<?xml version="1.0" encoding="UTF-8" standalone="no" ?>
<gpx xmlns="http://www.topografix.com/GPX/1/1" xmlns:xsi="http://www.w3.org/2001/XMLSchema-instance" xsi:schemaLocation="http://www.topografix.com/GPX/1/1 http://www.topografix.com/GPX/1/1/gpx.xsd" version="1.1" creator="VisuGPX - https://www.visugpx.com">
  <metadata>
    <name>Pic de la Paloumère </name>
  </metadata>
  <trk>
    <name><![CDATA[Pic de la Paloumère _1]]></name>
    <trkseg>
      <trkpt lat="42.94505" lon="0.85377">
        <ele>1075.8</ele>
        <time>2019-08-17T09:39:30Z</time>
      </trkpt>
      <trkpt lat="42.94507" lon="0.85377">
        <ele>1076</ele>
        <time>2019-08-17T09:39:31Z</time>
      </trkpt>
      <trkpt lat="42.94508" lon="0.85377">
        <ele>1076.3</ele>
        <time>2019-08-17T09:39:32Z</time>
      </trkpt>
      <trkpt lat="42.94509" lon="0.85377">
        <ele>1076.6</ele>
        <time>2019-08-17T09:39:33Z</time>
      </trkpt>
      <trkpt lat="42.9451" lon="0.85377">
        <ele>1076.8</ele>
        <time>2019-08-17T09:39:34Z</time>
      </trkpt>
      <trkpt lat="42.94511" lon="0.85377">
        <ele>1077.1</ele>
        <time>2019-08-17T09:39:35Z</time>
      </trkpt>
      <trkpt lat="42.94512" lon="0.85377">
        <ele>1077.3</ele>
        <time>2019-08-17T09:39:36Z</time>
      </trkpt>
      <trkpt lat="42.94514" lon="0.85377">
        <ele>1077.6</ele>
        <time>2019-08-17T09:39:37Z</time>
      </trkpt>
      <trkpt lat="42.94515" lon="0.85377">
        <ele>1077.8</ele>
        <time>2019-08-17T09:39:38Z</time>
      </trkpt>
      <trkpt lat="42.94516" lon="0.85377">
        <ele>1078.1</ele>
        <time>2019-08-17T09:39:39Z</time>
      </trkpt>
      <trkpt lat="42.94517" lon="0.85377">
        <ele>1078.3</ele>
        <time>2019-08-17T09:39:40Z</time>
      </trkpt>
      <trkpt lat="42.94518" lon="0.85377">
        <ele>1078.5</ele>
        <time>2019-08-17T09:39:41Z</time>
      </trkpt>
      <trkpt lat="42.94519" lon="0.85377">
        <ele>1078.8</ele>
        <time>2019-08-17T09:39:42Z</time>
      </trkpt>
      <trkpt lat="42.9452" lon="0.85377">
        <ele>1079</ele>
        <time>2019-08-17T09:39:43Z</time>
      </trkpt>
      <trkpt lat="42.94521" lon="0.85377">
        <ele>1079.2</ele>
        <time>2019-08-17T09:39:44Z</time>
      </trkpt>
      <trkpt lat="42.94522" lon="0.85377">
        <ele>1079.5</ele>
        <time>2019-08-17T09:39:45Z</time>
      </trkpt>
      <trkpt lat="42.94523" lon="0.85377">
        <ele>1079.7</ele>
        <time>2019-08-17T09:39:46Z</time>
      </trkpt>
      <trkpt lat="42.94524" lon="0.85377">
        <ele>1079.9</ele>
        <time>2019-08-17T09:39:47Z</time>
      </trkpt>
      <trkpt lat="42.94525" lon="0.85377">
        <ele>1080.1</ele>
        <time>2019-08-17T09:39:48Z</time>
      </trkpt>
      <trkpt lat="42.94526" lon="0.85377">
        <ele>1080.3</ele>
        <time>2019-08-17T09:39:49Z</time>
      </trkpt>
      <trkpt lat="42.94527" lon="0.85377">
        <ele>1080.5</ele>
        <time>2019-08-17T09:39:50Z</time>
      </trkpt>
      <trkpt lat="42.94528" lon="0.85377">
        <ele>1080.7</ele>
        <time>2019-08-17T09:39:51Z</time>
      </trkpt>
      <trkpt lat="42.94529" lon="0.85377">
        <ele>1080.9</ele>
        <time>2019-08-17T09:39:52Z</time>
      </trkpt>
      <trkpt lat="42.9453" lon="0.85377">
        <ele>1081.1</ele>
        <time>2019-08-17T09:39:53Z</time>
      </trkpt>
      <trkpt lat="42.94531" lon="0.85377">
        <ele>1081.3</ele>
        <time>2019-08-17T09:39:54Z</time>
      </trkpt>
      <trkpt lat="42.94532" lon="0.85377">
        <ele>1081.5</ele>
        <time>2019-08-17T09:39:55Z</time>
      </trkpt>
      <trkpt lat="42.94533" lon="0.85377">
        <ele>1081.7</ele>
        <time>2019-08-17T09:39:56Z</time>
      </trkpt>
      <trkpt lat="42.94533" lon="0.85377">
        <ele>1081.9</ele>
        <time>2019-08-17T09:39:57Z</time>
      </trkpt>
      <trkpt lat="42.94534" lon="0.85377">
        <ele>1082.1</ele>
        <time>2019-08-17T09:39:58Z</time>
      </trkpt>
      <trkpt lat="42.94535" lon="0.85377">
        <ele>1082.3</ele>
        <time>2019-08-17T09:39:59Z</time>
      </trkpt>
      <trkpt lat="42.94536" lon="0.85377">
        <ele>1082.4</ele>
        <time>2019-08-17T09:40:00Z</time>
      </trkpt>
      <trkpt lat="42.94537" lon="0.85377">
        <ele>1082.6</ele>
        <time>2019-08-17T09:40:01Z</time>
      </trkpt>
      <trkpt lat="42.94538" lon="0.85377">
        <ele>1082.7</ele>
        <time>2019-08-17T09:40:02Z</time>
      </trkpt>
      <trkpt lat="42.94539" lon="0.85377">
        <ele>1082.9</ele>
        <time>2019-08-17T09:40:03Z</time>
      </trkpt>
      <trkpt lat="42.9454" lon="0.85377">
        <ele>1083.1</ele>
        <time>2019-08-17T09:40:04Z</time>
      </trkpt>
      <trkpt lat="42.94541" lon="0.85377">
        <ele>1083.3</ele>
        <time>2019-08-17T09:40:05Z</time>
      </trkpt>
      <trkpt lat="42.94542" lon="0.85377">
        <ele>1083.4</ele>
        <time>2019-08-17T09:40:06Z</time>
      </trkpt>
      <trkpt lat="42.94543" lon="0.85377">
        <ele>1083.6</ele>
        <time>2019-08-17T09:40:07Z</time>
      </trkpt>
      <trkpt lat="42.94544" lon="0.85377">
        <ele>1083.8</ele>
        <time>2019-08-17T09:40:08Z</time>
      </trkpt>
      <trkpt lat="42.94545" lon="0.85377">
        <ele>1084</ele>
        <time>2019-08-17T09:40:09Z</time>
      </trkpt>
      <trkpt lat="42.94545" lon="0.85377">
        <ele>1084.1</ele>
        <time>2019-08-17T09:40:10Z</time>
      </trkpt>
      <trkpt lat="42.94546" lon="0.85377">
        <ele>1084.3</ele>
        <time>2019-08-17T09:40:11Z</time>
      </trkpt>
      <trkpt lat="42.94547" lon="0.85377">
        <ele>1084.5</ele>
        <time>2019-08-17T09:40:12Z</time>
      </trkpt>
      <trkpt lat="42.94548" lon="0.85377">
        <ele>1084.7</ele>
        <time>2019-08-17T09:40:13Z</time>
      </trkpt>
      <trkpt lat="42.94549" lon="0.85377">
        <ele>1084.9</ele>
        <time>2019-08-17T09:40:14Z</time>
      </trkpt>
      <trkpt lat="42.9455" lon="0.85377">
        <ele>1085</ele>
        <time>2019-08-17T09:40:15Z</time>
      </trkpt>
      <trkpt lat="42.94551" lon="0.85377">
        <ele>1085.2</ele>
        <time>2019-08-17T09:40:16Z</time>
      </trkpt>
      <trkpt lat="42.94552" lon="0.85377">
        <ele>1085.4</ele>
        <time>2019-08-17T09:40:17Z</time>
      </trkpt>
      <trkpt lat="42.94553" lon="0.85376">
        <ele>1085.5</ele>
        <time>2019-08-17T09:40:18Z</time>
      </trkpt>
      <trkpt lat="42.94553" lon="0.85376">
        <ele>1085.7</ele>
        <time>2019-08-17T09:40:19Z</time>
      </trkpt>
      <trkpt lat="42.94554" lon="0.85376">
        <ele>1085.8</ele>
        <time>2019-08-17T09:40:20Z</time>
      </trkpt>
      <trkpt lat="42.94555" lon="0.85376">
        <ele>1085.9</ele>
        <time>2019-08-17T09:40:21Z</time>
      </trkpt>
      <trkpt lat="42.94555" lon="0.85376">
        <ele>1086</ele>
        <time>2019-08-17T09:40:22Z</time>
      </trkpt>
      <trkpt lat="42.94556" lon="0.85376">
        <ele>1086.1</ele>
        <time>2019-08-17T09:40:23Z</time>
      </trkpt>
      <trkpt lat="42.94556" lon="0.85376">
        <ele>1086.2</ele>
        <time>2019-08-17T09:40:24Z</time>
      </trkpt>
      <trkpt lat="42.94556" lon="0.85376">
        <ele>1086.2</ele>
        <time>2019-08-17T09:40:25Z</time>
      </trkpt>
      <trkpt lat="42.94557" lon="0.85376">
        <ele>1086.3</ele>
        <time>2019-08-17T09:40:26Z</time>
      </trkpt>
      <trkpt lat="42.94557" lon="0.85376">
        <ele>1086.6</ele>
        <time>2019-08-17T09:40:27Z</time>
      </trkpt>
      <trkpt lat="42.94559" lon="0.85375">
        <ele>1087</ele>
        <time>2019-08-17T09:40:28Z</time>
      </trkpt>
      <trkpt lat="42.94561" lon="0.85375">
        <ele>1087.3</ele>
        <time>2019-08-17T09:40:29Z</time>
      </trkpt>
      <trkpt lat="42.94562" lon="0.85375">
        <ele>1087.5</ele>
        <time>2019-08-17T09:40:30Z</time>
      </trkpt>
      <trkpt lat="42.94562" lon="0.85375">
        <ele>1087.7</ele>
        <time>2019-08-17T09:40:31Z</time>
      </trkpt>
      <trkpt lat="42.94563" lon="0.85375">
        <ele>1087.9</ele>
        <time>2019-08-17T09:40:32Z</time>
      </trkpt>
      <trkpt lat="42.94564" lon="0.85375">
        <ele>1088.1</ele>
        <time>2019-08-17T09:40:33Z</time>
      </trkpt>
      <trkpt lat="42.94565" lon="0.85375">
        <ele>1088.3</ele>
        <time>2019-08-17T09:40:34Z</time>
      </trkpt>
      <trkpt lat="42.94567" lon="0.85376">
        <ele>1088.5</ele>
        <time>2019-08-17T09:40:35Z</time>
      </trkpt>
      <trkpt lat="42.94568" lon="0.85376">
        <ele>1088.7</ele>
        <time>2019-08-17T09:40:36Z</time>
      </trkpt>
      <trkpt lat="42.94569" lon="0.85376">
        <ele>1089</ele>
        <time>2019-08-17T09:40:37Z</time>
      </trkpt>
      <trkpt lat="42.9457" lon="0.85376">
        <ele>1089.2</ele>
        <time>2019-08-17T09:40:38Z</time>
      </trkpt>
      <trkpt lat="42.94571" lon="0.85377">
        <ele>1089.4</ele>
        <time>2019-08-17T09:40:39Z</time>
      </trkpt>
      <trkpt lat="42.94572" lon="0.85377">
        <ele>1089.6</ele>
        <time>2019-08-17T09:40:40Z</time>
      </trkpt>
      <trkpt lat="42.94573" lon="0.85377">
        <ele>1089.8</ele>
        <time>2019-08-17T09:40:41Z</time>
      </trkpt>
      <trkpt lat="42.94575" lon="0.85377">
        <ele>1090.2</ele>
        <time>2019-08-17T09:40:42Z</time>
      </trkpt>
      <trkpt lat="42.94576" lon="0.85377">
        <ele>1090.4</ele>
        <time>2019-08-17T09:40:43Z</time>
      </trkpt>
      <trkpt lat="42.94577" lon="0.85377">
        <ele>1090.6</ele>
        <time>2019-08-17T09:40:44Z</time>
      </trkpt>
      <trkpt lat="42.94578" lon="0.85377">
        <ele>1090.8</ele>
        <time>2019-08-17T09:40:45Z</time>
      </trkpt>
      <trkpt lat="42.94579" lon="0.85377">
        <ele>1090.9</ele>
        <time>2019-08-17T09:40:46Z</time>
      </trkpt>
      <trkpt lat="42.9458" lon="0.85377">
        <ele>1091.1</ele>
        <time>2019-08-17T09:40:47Z</time>
      </trkpt>
      <trkpt lat="42.94581" lon="0.85377">
        <ele>1091.3</ele>
        <time>2019-08-17T09:40:48Z</time>
      </trkpt>
      <trkpt lat="42.94581" lon="0.85377">
        <ele>1091.5</ele>
        <time>2019-08-17T09:40:49Z</time>
      </trkpt>
      <trkpt lat="42.94582" lon="0.85377">
        <ele>1091.8</ele>
        <time>2019-08-17T09:40:50Z</time>
      </trkpt>
      <trkpt lat="42.94583" lon="0.85377">
        <ele>1092</ele>
        <time>2019-08-17T09:40:51Z</time>
      </trkpt>
      <trkpt lat="42.94584" lon="0.85377">
        <ele>1092.2</ele>
        <time>2019-08-17T09:40:52Z</time>
      </trkpt>
      <trkpt lat="42.94585" lon="0.85377">
        <ele>1093.1</ele>
        <time>2019-08-17T09:40:53Z</time>
      </trkpt>
      <trkpt lat="42.94586" lon="0.85377">
        <ele>1093.3</ele>
        <time>2019-08-17T09:40:54Z</time>
      </trkpt>
      <trkpt lat="42.94587" lon="0.85377">
        <ele>1093.5</ele>
        <time>2019-08-17T09:40:55Z</time>
      </trkpt>
      <trkpt lat="42.94588" lon="0.85377">
        <ele>1093.7</ele>
        <time>2019-08-17T09:40:56Z</time>
      </trkpt>
      <trkpt lat="42.94589" lon="0.85377">
        <ele>1093.9</ele>
        <time>2019-08-17T09:40:57Z</time>
      </trkpt>
      <trkpt lat="42.9459" lon="0.85377">
        <ele>1094.1</ele>
        <time>2019-08-17T09:40:58Z</time>
      </trkpt>
      <trkpt lat="42.94591" lon="0.85377">
        <ele>1094.3</ele>
        <time>2019-08-17T09:40:59Z</time>
      </trkpt>
      <trkpt lat="42.94592" lon="0.85377">
        <ele>1094.5</ele>
        <time>2019-08-17T09:41:00Z</time>
      </trkpt>
      <trkpt lat="42.94593" lon="0.85377">
        <ele>1094.8</ele>
        <time>2019-08-17T09:41:01Z</time>
      </trkpt>
      <trkpt lat="42.94593" lon="0.85377">
        <ele>1095</ele>
        <time>2019-08-17T09:41:02Z</time>
      </trkpt>
      <trkpt lat="42.94594" lon="0.85377">
        <ele>1095.2</ele>
        <time>2019-08-17T09:41:03Z</time>
      </trkpt>
      <trkpt lat="42.94595" lon="0.85378">
        <ele>1095.4</ele>
        <time>2019-08-17T09:41:04Z</time>
      </trkpt>
      <trkpt lat="42.94596" lon="0.85378">
        <ele>1095.7</ele>
        <time>2019-08-17T09:41:05Z</time>
      </trkpt>
      <trkpt lat="42.94597" lon="0.85379">
        <ele>1096.1</ele>
        <time>2019-08-17T09:41:06Z</time>
      </trkpt>
      <trkpt lat="42.94599" lon="0.8538">
        <ele>1096.4</ele>
        <time>2019-08-17T09:41:07Z</time>
      </trkpt>
      <trkpt lat="42.946" lon="0.85381">
        <ele>1096.8</ele>
        <time>2019-08-17T09:41:08Z</time>
      </trkpt>
      <trkpt lat="42.94601" lon="0.85382">
        <ele>1097.1</ele>
        <time>2019-08-17T09:41:09Z</time>
      </trkpt>
      <trkpt lat="42.94602" lon="0.85383">
        <ele>1097.4</ele>
        <time>2019-08-17T09:41:10Z</time>
      </trkpt>
      <trkpt lat="42.94603" lon="0.85383">
        <ele>1097.7</ele>
        <time>2019-08-17T09:41:11Z</time>
      </trkpt>
      <trkpt lat="42.94604" lon="0.85383">
        <ele>1097.9</ele>
        <time>2019-08-17T09:41:12Z</time>
      </trkpt>
      <trkpt lat="42.94605" lon="0.85384">
        <ele>1098.1</ele>
        <time>2019-08-17T09:41:13Z</time>
      </trkpt>
      <trkpt lat="42.94605" lon="0.85384">
        <ele>1098.2</ele>
        <time>2019-08-17T09:41:14Z</time>
      </trkpt>
      <trkpt lat="42.94606" lon="0.85384">
        <ele>1098.4</ele>
        <time>2019-08-17T09:41:15Z</time>
      </trkpt>
      <trkpt lat="42.94607" lon="0.85384">
        <ele>1098.5</ele>
        <time>2019-08-17T09:41:16Z</time>
      </trkpt>
      <trkpt lat="42.94608" lon="0.85384">
        <ele>1098.7</ele>
        <time>2019-08-17T09:41:17Z</time>
      </trkpt>
      <trkpt lat="42.94609" lon="0.85384">
        <ele>1098.9</ele>
        <time>2019-08-17T09:41:18Z</time>
      </trkpt>
      <trkpt lat="42.94611" lon="0.85385">
        <ele>1099.2</ele>
        <time>2019-08-17T09:41:19Z</time>
      </trkpt>
      <trkpt lat="42.94612" lon="0.85385">
        <ele>1099.4</ele>
        <time>2019-08-17T09:41:20Z</time>
      </trkpt>
      <trkpt lat="42.94613" lon="0.85385">
        <ele>1099.6</ele>
        <time>2019-08-17T09:41:21Z</time>
      </trkpt>
      <trkpt lat="42.94613" lon="0.85386">
        <ele>1099.7</ele>
        <time>2019-08-17T09:41:22Z</time>
      </trkpt>
      <trkpt lat="42.94614" lon="0.85386">
        <ele>1099.9</ele>
        <time>2019-08-17T09:41:23Z</time>
      </trkpt>
      <trkpt lat="42.94615" lon="0.85386">
        <ele>1100</ele>
        <time>2019-08-17T09:41:24Z</time>
      </trkpt>
      <trkpt lat="42.94616" lon="0.85387">
        <ele>1100.2</ele>
        <time>2019-08-17T09:41:25Z</time>
      </trkpt>
      <trkpt lat="42.94617" lon="0.85387">
        <ele>1100.4</ele>
        <time>2019-08-17T09:41:26Z</time>
      </trkpt>
      <trkpt lat="42.94618" lon="0.85387">
        <ele>1100.7</ele>
        <time>2019-08-17T09:41:27Z</time>
      </trkpt>
      <trkpt lat="42.94619" lon="0.85387">
        <ele>1100.9</ele>
        <time>2019-08-17T09:41:28Z</time>
      </trkpt>
      <trkpt lat="42.9462" lon="0.85388">
        <ele>1101.1</ele>
        <time>2019-08-17T09:41:29Z</time>
      </trkpt>
      <trkpt lat="42.94621" lon="0.85388">
        <ele>1101.3</ele>
        <time>2019-08-17T09:41:30Z</time>
      </trkpt>
      <trkpt lat="42.94621" lon="0.85388">
        <ele>1101.5</ele>
        <time>2019-08-17T09:41:31Z</time>
      </trkpt>
      <trkpt lat="42.94622" lon="0.85388">
        <ele>1101.7</ele>
        <time>2019-08-17T09:41:32Z</time>
      </trkpt>
      <trkpt lat="42.94623" lon="0.85389">
        <ele>1101.9</ele>
        <time>2019-08-17T09:41:33Z</time>
      </trkpt>
      <trkpt lat="42.94624" lon="0.85389">
        <ele>1102.1</ele>
        <time>2019-08-17T09:41:34Z</time>
      </trkpt>
      <trkpt lat="42.94625" lon="0.85389">
        <ele>1102.3</ele>
        <time>2019-08-17T09:41:35Z</time>
      </trkpt>
      <trkpt lat="42.94626" lon="0.85389">
        <ele>1102.4</ele>
        <time>2019-08-17T09:41:36Z</time>
      </trkpt>
      <trkpt lat="42.94627" lon="0.8539">
        <ele>1102.6</ele>
        <time>2019-08-17T09:41:37Z</time>
      </trkpt>
      <trkpt lat="42.94628" lon="0.8539">
        <ele>1102.8</ele>
        <time>2019-08-17T09:41:38Z</time>
      </trkpt>
      <trkpt lat="42.94629" lon="0.8539">
        <ele>1102.9</ele>
        <time>2019-08-17T09:41:39Z</time>
      </trkpt>
      <trkpt lat="42.94629" lon="0.85391">
        <ele>1103.1</ele>
        <time>2019-08-17T09:41:40Z</time>
      </trkpt>
      <trkpt lat="42.9463" lon="0.85391">
        <ele>1103.3</ele>
        <time>2019-08-17T09:41:41Z</time>
      </trkpt>
      <trkpt lat="42.94631" lon="0.85391">
        <ele>1103.4</ele>
        <time>2019-08-17T09:41:42Z</time>
      </trkpt>
      <trkpt lat="42.94632" lon="0.85391">
        <ele>1103.6</ele>
        <time>2019-08-17T09:41:43Z</time>
      </trkpt>
      <trkpt lat="42.94633" lon="0.85392">
        <ele>1103.8</ele>
        <time>2019-08-17T09:41:44Z</time>
      </trkpt>
      <trkpt lat="42.94634" lon="0.85392">
        <ele>1104</ele>
        <time>2019-08-17T09:41:45Z</time>
      </trkpt>
      <trkpt lat="42.94635" lon="0.85392">
        <ele>1104.3</ele>
        <time>2019-08-17T09:41:46Z</time>
      </trkpt>
      <trkpt lat="42.94636" lon="0.85392">
        <ele>1104.5</ele>
        <time>2019-08-17T09:41:47Z</time>
      </trkpt>
      <trkpt lat="42.94637" lon="0.85393">
        <ele>1104.8</ele>
        <time>2019-08-17T09:41:48Z</time>
      </trkpt>
      <trkpt lat="42.94637" lon="0.85393">
        <ele>1105</ele>
        <time>2019-08-17T09:41:49Z</time>
      </trkpt>
      <trkpt lat="42.94638" lon="0.85393">
        <ele>1105.3</ele>
        <time>2019-08-17T09:41:50Z</time>
      </trkpt>
      <trkpt lat="42.94639" lon="0.85393">
        <ele>1105.5</ele>
        <time>2019-08-17T09:41:51Z</time>
      </trkpt>
      <trkpt lat="42.9464" lon="0.85394">
        <ele>1105.8</ele>
        <time>2019-08-17T09:41:52Z</time>
      </trkpt>
      <trkpt lat="42.94641" lon="0.85395">
        <ele>1106.1</ele>
        <time>2019-08-17T09:41:53Z</time>
      </trkpt>
      <trkpt lat="42.94642" lon="0.85395">
        <ele>1106.4</ele>
        <time>2019-08-17T09:41:54Z</time>
      </trkpt>
      <trkpt lat="42.94642" lon="0.85396">
        <ele>1106.7</ele>
        <time>2019-08-17T09:41:55Z</time>
      </trkpt>
      <trkpt lat="42.94643" lon="0.85397">
        <ele>1107</ele>
        <time>2019-08-17T09:41:56Z</time>
      </trkpt>
      <trkpt lat="42.94644" lon="0.85398">
        <ele>1107.3</ele>
        <time>2019-08-17T09:41:57Z</time>
      </trkpt>
      <trkpt lat="42.94645" lon="0.85399">
        <ele>1107.6</ele>
        <time>2019-08-17T09:41:58Z</time>
      </trkpt>
      <trkpt lat="42.94645" lon="0.85399">
        <ele>1107.9</ele>
        <time>2019-08-17T09:41:59Z</time>
      </trkpt>
      <trkpt lat="42.94646" lon="0.854">
        <ele>1108.3</ele>
        <time>2019-08-17T09:42:00Z</time>
      </trkpt>
      <trkpt lat="42.94647" lon="0.85401">
        <ele>1108.6</ele>
        <time>2019-08-17T09:42:01Z</time>
      </trkpt>
      <trkpt lat="42.94647" lon="0.85402">
        <ele>1108.9</ele>
        <time>2019-08-17T09:42:02Z</time>
      </trkpt>
      <trkpt lat="42.94648" lon="0.85403">
        <ele>1109.2</ele>
        <time>2019-08-17T09:42:03Z</time>
      </trkpt>
      <trkpt lat="42.94648" lon="0.85403">
        <ele>1109.3</ele>
        <time>2019-08-17T09:42:04Z</time>
      </trkpt>
      <trkpt lat="42.94649" lon="0.85404">
        <ele>1109.5</ele>
        <time>2019-08-17T09:42:05Z</time>
      </trkpt>
      <trkpt lat="42.94649" lon="0.85404">
        <ele>1109.6</ele>
        <time>2019-08-17T09:42:06Z</time>
      </trkpt>
      <trkpt lat="42.9465" lon="0.85404">
        <ele>1109.7</ele>
        <time>2019-08-17T09:42:07Z</time>
      </trkpt>
      <trkpt lat="42.9465" lon="0.85405">
        <ele>1109.9</ele>
        <time>2019-08-17T09:42:08Z</time>
      </trkpt>
      <trkpt lat="42.94651" lon="0.85405">
        <ele>1110</ele>
        <time>2019-08-17T09:42:09Z</time>
      </trkpt>
      <trkpt lat="42.94652" lon="0.85405">
        <ele>1110.2</ele>
        <time>2019-08-17T09:42:10Z</time>
      </trkpt>
      <trkpt lat="42.94653" lon="0.85405">
        <ele>1110.5</ele>
        <time>2019-08-17T09:42:11Z</time>
      </trkpt>
      <trkpt lat="42.94654" lon="0.85405">
        <ele>1110.8</ele>
        <time>2019-08-17T09:42:12Z</time>
      </trkpt>
      <trkpt lat="42.94655" lon="0.85405">
        <ele>1110.9</ele>
        <time>2019-08-17T09:42:13Z</time>
      </trkpt>
      <trkpt lat="42.94655" lon="0.85406">
        <ele>1111</ele>
        <time>2019-08-17T09:42:14Z</time>
      </trkpt>
      <trkpt lat="42.94656" lon="0.85406">
        <ele>1111.1</ele>
        <time>2019-08-17T09:42:15Z</time>
      </trkpt>
      <trkpt lat="42.94656" lon="0.85405">
        <ele>1111.2</ele>
        <time>2019-08-17T09:42:16Z</time>
      </trkpt>
      <trkpt lat="42.94657" lon="0.85405">
        <ele>1111.4</ele>
        <time>2019-08-17T09:42:17Z</time>
      </trkpt>
      <trkpt lat="42.94658" lon="0.85405">
        <ele>1111.6</ele>
        <time>2019-08-17T09:42:18Z</time>
      </trkpt>
      <trkpt lat="42.94659" lon="0.85405">
        <ele>1111.8</ele>
        <time>2019-08-17T09:42:19Z</time>
      </trkpt>
      <trkpt lat="42.9466" lon="0.85405">
        <ele>1112</ele>
        <time>2019-08-17T09:42:20Z</time>
      </trkpt>
      <trkpt lat="42.94661" lon="0.85405">
        <ele>1112.2</ele>
        <time>2019-08-17T09:42:21Z</time>
      </trkpt>
      <trkpt lat="42.94661" lon="0.85405">
        <ele>1112.4</ele>
        <time>2019-08-17T09:42:22Z</time>
      </trkpt>
      <trkpt lat="42.94662" lon="0.85404">
        <ele>1112.8</ele>
        <time>2019-08-17T09:42:23Z</time>
      </trkpt>
      <trkpt lat="42.94663" lon="0.85403">
        <ele>1112.9</ele>
        <time>2019-08-17T09:42:24Z</time>
      </trkpt>
      <trkpt lat="42.94663" lon="0.85403">
        <ele>1113.1</ele>
        <time>2019-08-17T09:42:25Z</time>
      </trkpt>
      <trkpt lat="42.94664" lon="0.85402">
        <ele>1113.3</ele>
        <time>2019-08-17T09:42:26Z</time>
      </trkpt>
      <trkpt lat="42.94664" lon="0.85402">
        <ele>1113.5</ele>
        <time>2019-08-17T09:42:27Z</time>
      </trkpt>
      <trkpt lat="42.94665" lon="0.85401">
        <ele>1113.6</ele>
        <time>2019-08-17T09:42:28Z</time>
      </trkpt>
      <trkpt lat="42.94665" lon="0.854">
        <ele>1113.9</ele>
        <time>2019-08-17T09:42:29Z</time>
      </trkpt>
      <trkpt lat="42.94666" lon="0.85398">
        <ele>1114.4</ele>
        <time>2019-08-17T09:42:30Z</time>
      </trkpt>
      <trkpt lat="42.94666" lon="0.85397">
        <ele>1114.6</ele>
        <time>2019-08-17T09:42:31Z</time>
      </trkpt>
      <trkpt lat="42.94667" lon="0.85397">
        <ele>1114.8</ele>
        <time>2019-08-17T09:42:32Z</time>
      </trkpt>
      <trkpt lat="42.94668" lon="0.85396">
        <ele>1115.1</ele>
        <time>2019-08-17T09:42:33Z</time>
      </trkpt>
      <trkpt lat="42.94668" lon="0.85396">
        <ele>1115.3</ele>
        <time>2019-08-17T09:42:34Z</time>
      </trkpt>
      <trkpt lat="42.94669" lon="0.85395">
        <ele>1115.5</ele>
        <time>2019-08-17T09:42:35Z</time>
      </trkpt>
      <trkpt lat="42.94669" lon="0.85395">
        <ele>1115.7</ele>
        <time>2019-08-17T09:42:36Z</time>
      </trkpt>
      <trkpt lat="42.9467" lon="0.85394">
        <ele>1115.9</ele>
        <time>2019-08-17T09:42:37Z</time>
      </trkpt>
      <trkpt lat="42.9467" lon="0.85394">
        <ele>1116.2</ele>
        <time>2019-08-17T09:42:38Z</time>
      </trkpt>
      <trkpt lat="42.94671" lon="0.85393">
        <ele>1116.4</ele>
        <time>2019-08-17T09:42:39Z</time>
      </trkpt>
      <trkpt lat="42.94672" lon="0.85392">
        <ele>1116.6</ele>
        <time>2019-08-17T09:42:40Z</time>
      </trkpt>
      <trkpt lat="42.94672" lon="0.85392">
        <ele>1116.8</ele>
        <time>2019-08-17T09:42:41Z</time>
      </trkpt>
      <trkpt lat="42.94673" lon="0.85391">
        <ele>1117</ele>
        <time>2019-08-17T09:42:42Z</time>
      </trkpt>
      <trkpt lat="42.94673" lon="0.85391">
        <ele>1117.3</ele>
        <time>2019-08-17T09:42:43Z</time>
      </trkpt>
      <trkpt lat="42.94674" lon="0.8539">
        <ele>1117.5</ele>
        <time>2019-08-17T09:42:44Z</time>
      </trkpt>
      <trkpt lat="42.94674" lon="0.8539">
        <ele>1117.7</ele>
        <time>2019-08-17T09:42:45Z</time>
      </trkpt>
      <trkpt lat="42.94675" lon="0.85389">
        <ele>1117.9</ele>
        <time>2019-08-17T09:42:46Z</time>
      </trkpt>
      <trkpt lat="42.94675" lon="0.85389">
        <ele>1118.1</ele>
        <time>2019-08-17T09:42:47Z</time>
      </trkpt>
      <trkpt lat="42.94676" lon="0.85388">
        <ele>1118.4</ele>
        <time>2019-08-17T09:42:48Z</time>
      </trkpt>
      <trkpt lat="42.94677" lon="0.85387">
        <ele>1118.6</ele>
        <time>2019-08-17T09:42:49Z</time>
      </trkpt>
      <trkpt lat="42.94677" lon="0.85387">
        <ele>1118.8</ele>
        <time>2019-08-17T09:42:50Z</time>
      </trkpt>
      <trkpt lat="42.94678" lon="0.85386">
        <ele>1119</ele>
        <time>2019-08-17T09:42:51Z</time>
      </trkpt>
      <trkpt lat="42.94678" lon="0.85386">
        <ele>1119.3</ele>
        <time>2019-08-17T09:42:52Z</time>
      </trkpt>
      <trkpt lat="42.94679" lon="0.85385">
        <ele>1119.5</ele>
        <time>2019-08-17T09:42:53Z</time>
      </trkpt>
      <trkpt lat="42.94679" lon="0.85385">
        <ele>1119.7</ele>
        <time>2019-08-17T09:42:54Z</time>
      </trkpt>
      <trkpt lat="42.9468" lon="0.85384">
        <ele>1119.9</ele>
        <time>2019-08-17T09:42:55Z</time>
      </trkpt>
      <trkpt lat="42.94681" lon="0.85384">
        <ele>1120.1</ele>
        <time>2019-08-17T09:42:56Z</time>
      </trkpt>
      <trkpt lat="42.94681" lon="0.85383">
        <ele>1120.3</ele>
        <time>2019-08-17T09:42:57Z</time>
      </trkpt>
      <trkpt lat="42.94682" lon="0.85382">
        <ele>1120.5</ele>
        <time>2019-08-17T09:42:58Z</time>
      </trkpt>
      <trkpt lat="42.94682" lon="0.85382">
        <ele>1120.7</ele>
        <time>2019-08-17T09:42:59Z</time>
      </trkpt>
      <trkpt lat="42.94683" lon="0.85381">
        <ele>1120.9</ele>
        <time>2019-08-17T09:43:00Z</time>
      </trkpt>
      <trkpt lat="42.94683" lon="0.85381">
        <ele>1121.1</ele>
        <time>2019-08-17T09:43:01Z</time>
      </trkpt>
      <trkpt lat="42.94684" lon="0.8538">
        <ele>1121.3</ele>
        <time>2019-08-17T09:43:02Z</time>
      </trkpt>
      <trkpt lat="42.94685" lon="0.8538">
        <ele>1121.5</ele>
        <time>2019-08-17T09:43:03Z</time>
      </trkpt>
      <trkpt lat="42.94685" lon="0.85379">
        <ele>1121.7</ele>
        <time>2019-08-17T09:43:04Z</time>
      </trkpt>
      <trkpt lat="42.94686" lon="0.85379">
        <ele>1121.9</ele>
        <time>2019-08-17T09:43:05Z</time>
      </trkpt>
      <trkpt lat="42.94686" lon="0.85378">
        <ele>1122.1</ele>
        <time>2019-08-17T09:43:06Z</time>
      </trkpt>
      <trkpt lat="42.94687" lon="0.85377">
        <ele>1122.3</ele>
        <time>2019-08-17T09:43:07Z</time>
      </trkpt>
      <trkpt lat="42.94687" lon="0.85377">
        <ele>1122.5</ele>
        <time>2019-08-17T09:43:08Z</time>
      </trkpt>
      <trkpt lat="42.94688" lon="0.85376">
        <ele>1122.7</ele>
        <time>2019-08-17T09:43:09Z</time>
      </trkpt>
      <trkpt lat="42.94688" lon="0.85376">
        <ele>1122.9</ele>
        <time>2019-08-17T09:43:10Z</time>
      </trkpt>
      <trkpt lat="42.94689" lon="0.85375">
        <ele>1123.1</ele>
        <time>2019-08-17T09:43:11Z</time>
      </trkpt>
      <trkpt lat="42.9469" lon="0.85375">
        <ele>1123.3</ele>
        <time>2019-08-17T09:43:12Z</time>
      </trkpt>
      <trkpt lat="42.9469" lon="0.85374">
        <ele>1123.5</ele>
        <time>2019-08-17T09:43:13Z</time>
      </trkpt>
      <trkpt lat="42.94691" lon="0.85374">
        <ele>1123.8</ele>
        <time>2019-08-17T09:43:14Z</time>
      </trkpt>
      <trkpt lat="42.94691" lon="0.85373">
        <ele>1124</ele>
        <time>2019-08-17T09:43:15Z</time>
      </trkpt>
      <trkpt lat="42.94692" lon="0.85373">
        <ele>1124.1</ele>
        <time>2019-08-17T09:43:16Z</time>
      </trkpt>
      <trkpt lat="42.94692" lon="0.85372">
        <ele>1124.3</ele>
        <time>2019-08-17T09:43:17Z</time>
      </trkpt>
      <trkpt lat="42.94693" lon="0.85372">
        <ele>1124.4</ele>
        <time>2019-08-17T09:43:18Z</time>
      </trkpt>
      <trkpt lat="42.94693" lon="0.85372">
        <ele>1124.5</ele>
        <time>2019-08-17T09:43:19Z</time>
      </trkpt>
      <trkpt lat="42.94693" lon="0.85372">
        <ele>1124.6</ele>
        <time>2019-08-17T09:43:20Z</time>
      </trkpt>
      <trkpt lat="42.94694" lon="0.85371">
        <ele>1124.8</ele>
        <time>2019-08-17T09:43:21Z</time>
      </trkpt>
      <trkpt lat="42.94694" lon="0.85371">
        <ele>1125</ele>
        <time>2019-08-17T09:43:22Z</time>
      </trkpt>
      <trkpt lat="42.94695" lon="0.8537">
        <ele>1125.4</ele>
        <time>2019-08-17T09:43:23Z</time>
      </trkpt>
      <trkpt lat="42.94696" lon="0.85369">
        <ele>1125.7</ele>
        <time>2019-08-17T09:43:24Z</time>
      </trkpt>
      <trkpt lat="42.94697" lon="0.85369">
        <ele>1125.9</ele>
        <time>2019-08-17T09:43:25Z</time>
      </trkpt>
      <trkpt lat="42.94698" lon="0.85369">
        <ele>1126.1</ele>
        <time>2019-08-17T09:43:26Z</time>
      </trkpt>
      <trkpt lat="42.94698" lon="0.85368">
        <ele>1126.2</ele>
        <time>2019-08-17T09:43:27Z</time>
      </trkpt>
      <trkpt lat="42.94698" lon="0.85368">
        <ele>1126.4</ele>
        <time>2019-08-17T09:43:28Z</time>
      </trkpt>
      <trkpt lat="42.94699" lon="0.85368">
        <ele>1126.5</ele>
        <time>2019-08-17T09:43:29Z</time>
      </trkpt>
      <trkpt lat="42.94699" lon="0.85368">
        <ele>1126.5</ele>
        <time>2019-08-17T09:43:30Z</time>
      </trkpt>
      <trkpt lat="42.94699" lon="0.85368">
        <ele>1126.6</ele>
        <time>2019-08-17T09:43:31Z</time>
      </trkpt>
      <trkpt lat="42.94699" lon="0.85368">
        <ele>1126.7</ele>
        <time>2019-08-17T09:43:32Z</time>
      </trkpt>
      <trkpt lat="42.947" lon="0.85367">
        <ele>1126.9</ele>
        <time>2019-08-17T09:43:33Z</time>
      </trkpt>
      <trkpt lat="42.94701" lon="0.85367">
        <ele>1127.2</ele>
        <time>2019-08-17T09:43:34Z</time>
      </trkpt>
      <trkpt lat="42.94702" lon="0.85366">
        <ele>1127.6</ele>
        <time>2019-08-17T09:43:35Z</time>
      </trkpt>
      <trkpt lat="42.94702" lon="0.85365">
        <ele>1127.9</ele>
        <time>2019-08-17T09:43:36Z</time>
      </trkpt>
      <trkpt lat="42.94703" lon="0.85364">
        <ele>1128.1</ele>
        <time>2019-08-17T09:43:37Z</time>
      </trkpt>
      <trkpt lat="42.94703" lon="0.85364">
        <ele>1128.2</ele>
        <time>2019-08-17T09:43:38Z</time>
      </trkpt>
      <trkpt lat="42.94704" lon="0.85363">
        <ele>1128.4</ele>
        <time>2019-08-17T09:43:39Z</time>
      </trkpt>
      <trkpt lat="42.94704" lon="0.85363">
        <ele>1128.6</ele>
        <time>2019-08-17T09:43:40Z</time>
      </trkpt>
      <trkpt lat="42.94704" lon="0.85362">
        <ele>1128.8</ele>
        <time>2019-08-17T09:43:41Z</time>
      </trkpt>
      <trkpt lat="42.94705" lon="0.85361">
        <ele>1129</ele>
        <time>2019-08-17T09:43:42Z</time>
      </trkpt>
      <trkpt lat="42.94705" lon="0.8536">
        <ele>1129.3</ele>
        <time>2019-08-17T09:43:43Z</time>
      </trkpt>
      <trkpt lat="42.94706" lon="0.8536">
        <ele>1129.6</ele>
        <time>2019-08-17T09:43:44Z</time>
      </trkpt>
      <trkpt lat="42.94706" lon="0.85359">
        <ele>1129.9</ele>
        <time>2019-08-17T09:43:45Z</time>
      </trkpt>
      <trkpt lat="42.94707" lon="0.85358">
        <ele>1130.3</ele>
        <time>2019-08-17T09:43:46Z</time>
      </trkpt>
      <trkpt lat="42.94708" lon="0.85357">
        <ele>1130.6</ele>
        <time>2019-08-17T09:43:47Z</time>
      </trkpt>
      <trkpt lat="42.94708" lon="0.85356">
        <ele>1130.8</ele>
        <time>2019-08-17T09:43:48Z</time>
      </trkpt>
      <trkpt lat="42.94709" lon="0.85356">
        <ele>1131.1</ele>
        <time>2019-08-17T09:43:49Z</time>
      </trkpt>
      <trkpt lat="42.9471" lon="0.85355">
        <ele>1131.4</ele>
        <time>2019-08-17T09:43:50Z</time>
      </trkpt>
      <trkpt lat="42.9471" lon="0.85355">
        <ele>1131.6</ele>
        <time>2019-08-17T09:43:51Z</time>
      </trkpt>
      <trkpt lat="42.94711" lon="0.85354">
        <ele>1131.9</ele>
        <time>2019-08-17T09:43:52Z</time>
      </trkpt>
      <trkpt lat="42.94712" lon="0.85353">
        <ele>1132.1</ele>
        <time>2019-08-17T09:43:53Z</time>
      </trkpt>
      <trkpt lat="42.94712" lon="0.85353">
        <ele>1132.4</ele>
        <time>2019-08-17T09:43:54Z</time>
      </trkpt>
      <trkpt lat="42.94713" lon="0.85352">
        <ele>1132.8</ele>
        <time>2019-08-17T09:43:55Z</time>
      </trkpt>
      <trkpt lat="42.94714" lon="0.85351">
        <ele>1133</ele>
        <time>2019-08-17T09:43:56Z</time>
      </trkpt>
      <trkpt lat="42.94714" lon="0.85351">
        <ele>1133.2</ele>
        <time>2019-08-17T09:43:57Z</time>
      </trkpt>
      <trkpt lat="42.94715" lon="0.8535">
        <ele>1133.3</ele>
        <time>2019-08-17T09:43:58Z</time>
      </trkpt>
      <trkpt lat="42.94715" lon="0.8535">
        <ele>1133.5</ele>
        <time>2019-08-17T09:43:59Z</time>
      </trkpt>
      <trkpt lat="42.94715" lon="0.85349">
        <ele>1133.7</ele>
        <time>2019-08-17T09:44:00Z</time>
      </trkpt>
      <trkpt lat="42.94716" lon="0.85349">
        <ele>1133.9</ele>
        <time>2019-08-17T09:44:01Z</time>
      </trkpt>
      <trkpt lat="42.94716" lon="0.85349">
        <ele>1134</ele>
        <time>2019-08-17T09:44:02Z</time>
      </trkpt>
      <trkpt lat="42.94717" lon="0.85348">
        <ele>1134.2</ele>
        <time>2019-08-17T09:44:03Z</time>
      </trkpt>
      <trkpt lat="42.94717" lon="0.85348">
        <ele>1134.4</ele>
        <time>2019-08-17T09:44:04Z</time>
      </trkpt>
      <trkpt lat="42.94718" lon="0.85347">
        <ele>1134.5</ele>
        <time>2019-08-17T09:44:05Z</time>
      </trkpt>
      <trkpt lat="42.94718" lon="0.85347">
        <ele>1134.7</ele>
        <time>2019-08-17T09:44:06Z</time>
      </trkpt>
      <trkpt lat="42.94719" lon="0.85346">
        <ele>1134.9</ele>
        <time>2019-08-17T09:44:07Z</time>
      </trkpt>
      <trkpt lat="42.94719" lon="0.85346">
        <ele>1135.1</ele>
        <time>2019-08-17T09:44:08Z</time>
      </trkpt>
      <trkpt lat="42.9472" lon="0.85345">
        <ele>1135.2</ele>
        <time>2019-08-17T09:44:09Z</time>
      </trkpt>
      <trkpt lat="42.9472" lon="0.85345">
        <ele>1135.4</ele>
        <time>2019-08-17T09:44:10Z</time>
      </trkpt>
      <trkpt lat="42.94721" lon="0.85344">
        <ele>1135.6</ele>
        <time>2019-08-17T09:44:11Z</time>
      </trkpt>
      <trkpt lat="42.94721" lon="0.85344">
        <ele>1135.7</ele>
        <time>2019-08-17T09:44:12Z</time>
      </trkpt>
      <trkpt lat="42.94721" lon="0.85343">
        <ele>1135.9</ele>
        <time>2019-08-17T09:44:13Z</time>
      </trkpt>
      <trkpt lat="42.94722" lon="0.85343">
        <ele>1136</ele>
        <time>2019-08-17T09:44:14Z</time>
      </trkpt>
      <trkpt lat="42.94722" lon="0.85342">
        <ele>1136.2</ele>
        <time>2019-08-17T09:44:15Z</time>
      </trkpt>
      <trkpt lat="42.94723" lon="0.85342">
        <ele>1136.3</ele>
        <time>2019-08-17T09:44:16Z</time>
      </trkpt>
      <trkpt lat="42.94723" lon="0.85341">
        <ele>1136.5</ele>
        <time>2019-08-17T09:44:17Z</time>
      </trkpt>
      <trkpt lat="42.94724" lon="0.85341">
        <ele>1136.6</ele>
        <time>2019-08-17T09:44:18Z</time>
      </trkpt>
      <trkpt lat="42.94724" lon="0.85341">
        <ele>1136.8</ele>
        <time>2019-08-17T09:44:19Z</time>
      </trkpt>
      <trkpt lat="42.94725" lon="0.8534">
        <ele>1137</ele>
        <time>2019-08-17T09:44:20Z</time>
      </trkpt>
      <trkpt lat="42.94725" lon="0.8534">
        <ele>1137.2</ele>
        <time>2019-08-17T09:44:21Z</time>
      </trkpt>
      <trkpt lat="42.94726" lon="0.8534">
        <ele>1137.3</ele>
        <time>2019-08-17T09:44:22Z</time>
      </trkpt>
      <trkpt lat="42.94726" lon="0.85339">
        <ele>1137.4</ele>
        <time>2019-08-17T09:44:23Z</time>
      </trkpt>
      <trkpt lat="42.94726" lon="0.85339">
        <ele>1137.5</ele>
        <time>2019-08-17T09:44:24Z</time>
      </trkpt>
      <trkpt lat="42.94727" lon="0.85339">
        <ele>1137.6</ele>
        <time>2019-08-17T09:44:25Z</time>
      </trkpt>
      <trkpt lat="42.94727" lon="0.85339">
        <ele>1137.8</ele>
        <time>2019-08-17T09:44:26Z</time>
      </trkpt>
      <trkpt lat="42.94728" lon="0.85338">
        <ele>1138.1</ele>
        <time>2019-08-17T09:44:27Z</time>
      </trkpt>
      <trkpt lat="42.94729" lon="0.85337">
        <ele>1138.5</ele>
        <time>2019-08-17T09:44:28Z</time>
      </trkpt>
      <trkpt lat="42.9473" lon="0.85337">
        <ele>1138.8</ele>
        <time>2019-08-17T09:44:29Z</time>
      </trkpt>
      <trkpt lat="42.94731" lon="0.85336">
        <ele>1139</ele>
        <time>2019-08-17T09:44:30Z</time>
      </trkpt>
      <trkpt lat="42.94731" lon="0.85336">
        <ele>1139.3</ele>
        <time>2019-08-17T09:44:31Z</time>
      </trkpt>
      <trkpt lat="42.94732" lon="0.85336">
        <ele>1139.4</ele>
        <time>2019-08-17T09:44:32Z</time>
      </trkpt>
      <trkpt lat="42.94732" lon="0.85335">
        <ele>1139.6</ele>
        <time>2019-08-17T09:44:33Z</time>
      </trkpt>
      <trkpt lat="42.94732" lon="0.85335">
        <ele>1139.6</ele>
        <time>2019-08-17T09:44:34Z</time>
      </trkpt>
      <trkpt lat="42.94733" lon="0.85335">
        <ele>1139.7</ele>
        <time>2019-08-17T09:44:35Z</time>
      </trkpt>
      <trkpt lat="42.94733" lon="0.85335">
        <ele>1139.9</ele>
        <time>2019-08-17T09:44:36Z</time>
      </trkpt>
      <trkpt lat="42.94734" lon="0.85335">
        <ele>1140</ele>
        <time>2019-08-17T09:44:37Z</time>
      </trkpt>
      <trkpt lat="42.94734" lon="0.85334">
        <ele>1140.2</ele>
        <time>2019-08-17T09:44:38Z</time>
      </trkpt>
      <trkpt lat="42.94735" lon="0.85334">
        <ele>1140.5</ele>
        <time>2019-08-17T09:44:39Z</time>
      </trkpt>
      <trkpt lat="42.94736" lon="0.85333">
        <ele>1140.8</ele>
        <time>2019-08-17T09:44:40Z</time>
      </trkpt>
      <trkpt lat="42.94737" lon="0.85333">
        <ele>1141.1</ele>
        <time>2019-08-17T09:44:41Z</time>
      </trkpt>
      <trkpt lat="42.94738" lon="0.85333">
        <ele>1141.4</ele>
        <time>2019-08-17T09:44:42Z</time>
      </trkpt>
      <trkpt lat="42.94739" lon="0.85334">
        <ele>1141.6</ele>
        <time>2019-08-17T09:44:43Z</time>
      </trkpt>
      <trkpt lat="42.94739" lon="0.85334">
        <ele>1141.8</ele>
        <time>2019-08-17T09:44:44Z</time>
      </trkpt>
      <trkpt lat="42.94739" lon="0.85335">
        <ele>1141.9</ele>
        <time>2019-08-17T09:44:45Z</time>
      </trkpt>
      <trkpt lat="42.9474" lon="0.85335">
        <ele>1142</ele>
        <time>2019-08-17T09:44:46Z</time>
      </trkpt>
      <trkpt lat="42.9474" lon="0.85335">
        <ele>1142.1</ele>
        <time>2019-08-17T09:44:47Z</time>
      </trkpt>
      <trkpt lat="42.9474" lon="0.85335">
        <ele>1142.1</ele>
        <time>2019-08-17T09:44:48Z</time>
      </trkpt>
      <trkpt lat="42.9474" lon="0.85335">
        <ele>1142.2</ele>
        <time>2019-08-17T09:44:49Z</time>
      </trkpt>
      <trkpt lat="42.9474" lon="0.85335">
        <ele>1142.3</ele>
        <time>2019-08-17T09:44:50Z</time>
      </trkpt>
      <trkpt lat="42.94741" lon="0.85335">
        <ele>1142.5</ele>
        <time>2019-08-17T09:44:51Z</time>
      </trkpt>
      <trkpt lat="42.94742" lon="0.85333">
        <ele>1142.9</ele>
        <time>2019-08-17T09:44:52Z</time>
      </trkpt>
      <trkpt lat="42.94743" lon="0.85332">
        <ele>1143.4</ele>
        <time>2019-08-17T09:44:53Z</time>
      </trkpt>
      <trkpt lat="42.94744" lon="0.85331">
        <ele>1143.9</ele>
        <time>2019-08-17T09:44:54Z</time>
      </trkpt>
      <trkpt lat="42.94745" lon="0.8533">
        <ele>1144.2</ele>
        <time>2019-08-17T09:44:55Z</time>
      </trkpt>
      <trkpt lat="42.94745" lon="0.85329">
        <ele>1144.6</ele>
        <time>2019-08-17T09:44:56Z</time>
      </trkpt>
      <trkpt lat="42.94746" lon="0.85328">
        <ele>1144.8</ele>
        <time>2019-08-17T09:44:57Z</time>
      </trkpt>
      <trkpt lat="42.94746" lon="0.85327">
        <ele>1145.1</ele>
        <time>2019-08-17T09:44:58Z</time>
      </trkpt>
      <trkpt lat="42.94747" lon="0.85326">
        <ele>1145.4</ele>
        <time>2019-08-17T09:44:59Z</time>
      </trkpt>
      <trkpt lat="42.94747" lon="0.85325">
        <ele>1145.7</ele>
        <time>2019-08-17T09:45:00Z</time>
      </trkpt>
      <trkpt lat="42.94748" lon="0.85324">
        <ele>1146.1</ele>
        <time>2019-08-17T09:45:01Z</time>
      </trkpt>
      <trkpt lat="42.94748" lon="0.85323">
        <ele>1146.4</ele>
        <time>2019-08-17T09:45:02Z</time>
      </trkpt>
      <trkpt lat="42.94748" lon="0.85321">
        <ele>1146.7</ele>
        <time>2019-08-17T09:45:03Z</time>
      </trkpt>
      <trkpt lat="42.94749" lon="0.8532">
        <ele>1146.9</ele>
        <time>2019-08-17T09:45:04Z</time>
      </trkpt>
      <trkpt lat="42.94749" lon="0.8532">
        <ele>1147.1</ele>
        <time>2019-08-17T09:45:05Z</time>
      </trkpt>
      <trkpt lat="42.94749" lon="0.85319">
        <ele>1147.2</ele>
        <time>2019-08-17T09:45:06Z</time>
      </trkpt>
      <trkpt lat="42.94749" lon="0.85319">
        <ele>1147.3</ele>
        <time>2019-08-17T09:45:07Z</time>
      </trkpt>
      <trkpt lat="42.94749" lon="0.85319">
        <ele>1147.4</ele>
        <time>2019-08-17T09:45:08Z</time>
      </trkpt>
      <trkpt lat="42.94749" lon="0.85318">
        <ele>1147.6</ele>
        <time>2019-08-17T09:45:09Z</time>
      </trkpt>
      <trkpt lat="42.9475" lon="0.85316">
        <ele>1147.9</ele>
        <time>2019-08-17T09:45:10Z</time>
      </trkpt>
      <trkpt lat="42.9475" lon="0.85314">
        <ele>1148.4</ele>
        <time>2019-08-17T09:45:11Z</time>
      </trkpt>
      <trkpt lat="42.94751" lon="0.85312">
        <ele>1148.9</ele>
        <time>2019-08-17T09:45:12Z</time>
      </trkpt>
      <trkpt lat="42.94751" lon="0.85311">
        <ele>1149.3</ele>
        <time>2019-08-17T09:45:13Z</time>
      </trkpt>
      <trkpt lat="42.94752" lon="0.85309">
        <ele>1149.6</ele>
        <time>2019-08-17T09:45:14Z</time>
      </trkpt>
      <trkpt lat="42.94752" lon="0.85308">
        <ele>1149.9</ele>
        <time>2019-08-17T09:45:15Z</time>
      </trkpt>
      <trkpt lat="42.94753" lon="0.85307">
        <ele>1150.2</ele>
        <time>2019-08-17T09:45:16Z</time>
      </trkpt>
      <trkpt lat="42.94754" lon="0.85306">
        <ele>1150.5</ele>
        <time>2019-08-17T09:45:17Z</time>
      </trkpt>
      <trkpt lat="42.94754" lon="0.85305">
        <ele>1150.8</ele>
        <time>2019-08-17T09:45:18Z</time>
      </trkpt>
      <trkpt lat="42.94755" lon="0.85304">
        <ele>1151.1</ele>
        <time>2019-08-17T09:45:19Z</time>
      </trkpt>
      <trkpt lat="42.94755" lon="0.85302">
        <ele>1151.4</ele>
        <time>2019-08-17T09:45:20Z</time>
      </trkpt>
      <trkpt lat="42.94756" lon="0.85301">
        <ele>1151.7</ele>
        <time>2019-08-17T09:45:21Z</time>
      </trkpt>
      <trkpt lat="42.94756" lon="0.853">
        <ele>1152</ele>
        <time>2019-08-17T09:45:22Z</time>
      </trkpt>
      <trkpt lat="42.94757" lon="0.85299">
        <ele>1152.3</ele>
        <time>2019-08-17T09:45:23Z</time>
      </trkpt>
      <trkpt lat="42.94758" lon="0.85298">
        <ele>1152.6</ele>
        <time>2019-08-17T09:45:24Z</time>
      </trkpt>
      <trkpt lat="42.94758" lon="0.85297">
        <ele>1152.9</ele>
        <time>2019-08-17T09:45:25Z</time>
      </trkpt>
      <trkpt lat="42.94758" lon="0.85295">
        <ele>1153.1</ele>
        <time>2019-08-17T09:45:26Z</time>
      </trkpt>
      <trkpt lat="42.94759" lon="0.85294">
        <ele>1153.4</ele>
        <time>2019-08-17T09:45:27Z</time>
      </trkpt>
      <trkpt lat="42.94759" lon="0.85293">
        <ele>1153.7</ele>
        <time>2019-08-17T09:45:28Z</time>
      </trkpt>
      <trkpt lat="42.9476" lon="0.85292">
        <ele>1153.9</ele>
        <time>2019-08-17T09:45:29Z</time>
      </trkpt>
      <trkpt lat="42.9476" lon="0.85291">
        <ele>1154.1</ele>
        <time>2019-08-17T09:45:30Z</time>
      </trkpt>
      <trkpt lat="42.9476" lon="0.8529">
        <ele>1154.3</ele>
        <time>2019-08-17T09:45:31Z</time>
      </trkpt>
      <trkpt lat="42.9476" lon="0.85289">
        <ele>1154.5</ele>
        <time>2019-08-17T09:45:32Z</time>
      </trkpt>
      <trkpt lat="42.94761" lon="0.85288">
        <ele>1154.7</ele>
        <time>2019-08-17T09:45:33Z</time>
      </trkpt>
      <trkpt lat="42.94761" lon="0.85288">
        <ele>1154.8</ele>
        <time>2019-08-17T09:45:34Z</time>
      </trkpt>
      <trkpt lat="42.94761" lon="0.85288">
        <ele>1154.9</ele>
        <time>2019-08-17T09:45:35Z</time>
      </trkpt>
      <trkpt lat="42.94762" lon="0.85287">
        <ele>1155.1</ele>
        <time>2019-08-17T09:45:36Z</time>
      </trkpt>
      <trkpt lat="42.94762" lon="0.85286">
        <ele>1155.3</ele>
        <time>2019-08-17T09:45:37Z</time>
      </trkpt>
      <trkpt lat="42.94762" lon="0.85285">
        <ele>1155.5</ele>
        <time>2019-08-17T09:45:38Z</time>
      </trkpt>
      <trkpt lat="42.94763" lon="0.85284">
        <ele>1155.7</ele>
        <time>2019-08-17T09:45:39Z</time>
      </trkpt>
      <trkpt lat="42.94763" lon="0.85284">
        <ele>1155.9</ele>
        <time>2019-08-17T09:45:40Z</time>
      </trkpt>
      <trkpt lat="42.94763" lon="0.85283">
        <ele>1156.1</ele>
        <time>2019-08-17T09:45:41Z</time>
      </trkpt>
      <trkpt lat="42.94764" lon="0.85282">
        <ele>1156.3</ele>
        <time>2019-08-17T09:45:42Z</time>
      </trkpt>
      <trkpt lat="42.94764" lon="0.85281">
        <ele>1156.4</ele>
        <time>2019-08-17T09:45:43Z</time>
      </trkpt>
      <trkpt lat="42.94765" lon="0.85281">
        <ele>1156.6</ele>
        <time>2019-08-17T09:45:44Z</time>
      </trkpt>
      <trkpt lat="42.94765" lon="0.8528">
        <ele>1156.8</ele>
        <time>2019-08-17T09:45:45Z</time>
      </trkpt>
      <trkpt lat="42.94765" lon="0.85279">
        <ele>1157</ele>
        <time>2019-08-17T09:45:46Z</time>
      </trkpt>
      <trkpt lat="42.94766" lon="0.85278">
        <ele>1157.1</ele>
        <time>2019-08-17T09:45:47Z</time>
      </trkpt>
      <trkpt lat="42.94766" lon="0.85277">
        <ele>1157.3</ele>
        <time>2019-08-17T09:45:48Z</time>
      </trkpt>
      <trkpt lat="42.94766" lon="0.85277">
        <ele>1157.5</ele>
        <time>2019-08-17T09:45:49Z</time>
      </trkpt>
      <trkpt lat="42.94767" lon="0.85276">
        <ele>1157.6</ele>
        <time>2019-08-17T09:45:50Z</time>
      </trkpt>
      <trkpt lat="42.94767" lon="0.85275">
        <ele>1157.8</ele>
        <time>2019-08-17T09:45:51Z</time>
      </trkpt>
      <trkpt lat="42.94768" lon="0.85274">
        <ele>1158</ele>
        <time>2019-08-17T09:45:52Z</time>
      </trkpt>
      <trkpt lat="42.94768" lon="0.85273">
        <ele>1158.1</ele>
        <time>2019-08-17T09:45:53Z</time>
      </trkpt>
      <trkpt lat="42.94768" lon="0.85273">
        <ele>1158.3</ele>
        <time>2019-08-17T09:45:54Z</time>
      </trkpt>
      <trkpt lat="42.94769" lon="0.85272">
        <ele>1158.5</ele>
        <time>2019-08-17T09:45:55Z</time>
      </trkpt>
      <trkpt lat="42.94769" lon="0.85271">
        <ele>1158.7</ele>
        <time>2019-08-17T09:45:56Z</time>
      </trkpt>
      <trkpt lat="42.94769" lon="0.8527">
        <ele>1158.8</ele>
        <time>2019-08-17T09:45:57Z</time>
      </trkpt>
      <trkpt lat="42.9477" lon="0.85269">
        <ele>1159</ele>
        <time>2019-08-17T09:45:58Z</time>
      </trkpt>
      <trkpt lat="42.9477" lon="0.85269">
        <ele>1159.2</ele>
        <time>2019-08-17T09:45:59Z</time>
      </trkpt>
      <trkpt lat="42.94771" lon="0.85268">
        <ele>1159.3</ele>
        <time>2019-08-17T09:46:00Z</time>
      </trkpt>
      <trkpt lat="42.94771" lon="0.85267">
        <ele>1159.5</ele>
        <time>2019-08-17T09:46:01Z</time>
      </trkpt>
      <trkpt lat="42.94771" lon="0.85266">
        <ele>1159.7</ele>
        <time>2019-08-17T09:46:02Z</time>
      </trkpt>
      <trkpt lat="42.94772" lon="0.85266">
        <ele>1159.8</ele>
        <time>2019-08-17T09:46:03Z</time>
      </trkpt>
      <trkpt lat="42.94772" lon="0.85265">
        <ele>1160</ele>
        <time>2019-08-17T09:46:04Z</time>
      </trkpt>
      <trkpt lat="42.94773" lon="0.85264">
        <ele>1160.2</ele>
        <time>2019-08-17T09:46:05Z</time>
      </trkpt>
      <trkpt lat="42.94773" lon="0.85264">
        <ele>1160.3</ele>
        <time>2019-08-17T09:46:06Z</time>
      </trkpt>
      <trkpt lat="42.94773" lon="0.85264">
        <ele>1160.3</ele>
        <time>2019-08-17T09:46:07Z</time>
      </trkpt>
      <trkpt lat="42.94773" lon="0.85264">
        <ele>1160.4</ele>
        <time>2019-08-17T09:46:08Z</time>
      </trkpt>
      <trkpt lat="42.94774" lon="0.85263">
        <ele>1160.4</ele>
        <time>2019-08-17T09:46:09Z</time>
      </trkpt>
      <trkpt lat="42.94774" lon="0.85263">
        <ele>1160.5</ele>
        <time>2019-08-17T09:46:10Z</time>
      </trkpt>
      <trkpt lat="42.94774" lon="0.85263">
        <ele>1160.6</ele>
        <time>2019-08-17T09:46:11Z</time>
      </trkpt>
      <trkpt lat="42.94775" lon="0.85263">
        <ele>1160.7</ele>
        <time>2019-08-17T09:46:12Z</time>
      </trkpt>
      <trkpt lat="42.94775" lon="0.85262">
        <ele>1160.9</ele>
        <time>2019-08-17T09:46:13Z</time>
      </trkpt>
      <trkpt lat="42.94776" lon="0.85262">
        <ele>1161.1</ele>
        <time>2019-08-17T09:46:14Z</time>
      </trkpt>
      <trkpt lat="42.94776" lon="0.85262">
        <ele>1161.2</ele>
        <time>2019-08-17T09:46:15Z</time>
      </trkpt>
      <trkpt lat="42.94776" lon="0.85262">
        <ele>1161.3</ele>
        <time>2019-08-17T09:46:16Z</time>
      </trkpt>
      <trkpt lat="42.94777" lon="0.85261">
        <ele>1161.4</ele>
        <time>2019-08-17T09:46:17Z</time>
      </trkpt>
      <trkpt lat="42.94777" lon="0.85261">
        <ele>1161.4</ele>
        <time>2019-08-17T09:46:18Z</time>
      </trkpt>
      <trkpt lat="42.94777" lon="0.85261">
        <ele>1161.5</ele>
        <time>2019-08-17T09:46:19Z</time>
      </trkpt>
      <trkpt lat="42.94777" lon="0.85261">
        <ele>1161.5</ele>
        <time>2019-08-17T09:46:20Z</time>
      </trkpt>
      <trkpt lat="42.94777" lon="0.8526">
        <ele>1161.7</ele>
        <time>2019-08-17T09:46:21Z</time>
      </trkpt>
      <trkpt lat="42.94778" lon="0.8526">
        <ele>1161.8</ele>
        <time>2019-08-17T09:46:22Z</time>
      </trkpt>
      <trkpt lat="42.94778" lon="0.85259">
        <ele>1162</ele>
        <time>2019-08-17T09:46:23Z</time>
      </trkpt>
      <trkpt lat="42.94779" lon="0.85259">
        <ele>1162.1</ele>
        <time>2019-08-17T09:46:24Z</time>
      </trkpt>
      <trkpt lat="42.94779" lon="0.85258">
        <ele>1162.3</ele>
        <time>2019-08-17T09:46:25Z</time>
      </trkpt>
      <trkpt lat="42.94779" lon="0.85258">
        <ele>1162.5</ele>
        <time>2019-08-17T09:46:26Z</time>
      </trkpt>
      <trkpt lat="42.9478" lon="0.85257">
        <ele>1162.6</ele>
        <time>2019-08-17T09:46:27Z</time>
      </trkpt>
      <trkpt lat="42.9478" lon="0.85257">
        <ele>1162.7</ele>
        <time>2019-08-17T09:46:28Z</time>
      </trkpt>
      <trkpt lat="42.9478" lon="0.85256">
        <ele>1162.9</ele>
        <time>2019-08-17T09:46:29Z</time>
      </trkpt>
      <trkpt lat="42.94781" lon="0.85255">
        <ele>1163.1</ele>
        <time>2019-08-17T09:46:30Z</time>
      </trkpt>
      <trkpt lat="42.94781" lon="0.85255">
        <ele>1163.3</ele>
        <time>2019-08-17T09:46:31Z</time>
      </trkpt>
      <trkpt lat="42.94781" lon="0.85253">
        <ele>1163.7</ele>
        <time>2019-08-17T09:46:32Z</time>
      </trkpt>
      <trkpt lat="42.94782" lon="0.85252">
        <ele>1164.1</ele>
        <time>2019-08-17T09:46:33Z</time>
      </trkpt>
      <trkpt lat="42.94782" lon="0.8525">
        <ele>1164.6</ele>
        <time>2019-08-17T09:46:34Z</time>
      </trkpt>
      <trkpt lat="42.94783" lon="0.85248">
        <ele>1165.1</ele>
        <time>2019-08-17T09:46:35Z</time>
      </trkpt>
      <trkpt lat="42.94783" lon="0.85247">
        <ele>1165.4</ele>
        <time>2019-08-17T09:46:36Z</time>
      </trkpt>
      <trkpt lat="42.94784" lon="0.85245">
        <ele>1165.7</ele>
        <time>2019-08-17T09:46:37Z</time>
      </trkpt>
      <trkpt lat="42.94784" lon="0.85244">
        <ele>1165.8</ele>
        <time>2019-08-17T09:46:38Z</time>
      </trkpt>
      <trkpt lat="42.94785" lon="0.85244">
        <ele>1166</ele>
        <time>2019-08-17T09:46:39Z</time>
      </trkpt>
      <trkpt lat="42.94785" lon="0.85243">
        <ele>1166.2</ele>
        <time>2019-08-17T09:46:40Z</time>
      </trkpt>
      <trkpt lat="42.94786" lon="0.85242">
        <ele>1166.5</ele>
        <time>2019-08-17T09:46:41Z</time>
      </trkpt>
      <trkpt lat="42.94786" lon="0.8524">
        <ele>1166.8</ele>
        <time>2019-08-17T09:46:42Z</time>
      </trkpt>
      <trkpt lat="42.94787" lon="0.85239">
        <ele>1167.1</ele>
        <time>2019-08-17T09:46:43Z</time>
      </trkpt>
      <trkpt lat="42.94788" lon="0.85238">
        <ele>1167.4</ele>
        <time>2019-08-17T09:46:44Z</time>
      </trkpt>
      <trkpt lat="42.94789" lon="0.85237">
        <ele>1167.7</ele>
        <time>2019-08-17T09:46:45Z</time>
      </trkpt>
      <trkpt lat="42.9479" lon="0.85236">
        <ele>1168.3</ele>
        <time>2019-08-17T09:46:46Z</time>
      </trkpt>
      <trkpt lat="42.9479" lon="0.85235">
        <ele>1168.5</ele>
        <time>2019-08-17T09:46:47Z</time>
      </trkpt>
      <trkpt lat="42.94791" lon="0.85235">
        <ele>1168.7</ele>
        <time>2019-08-17T09:46:48Z</time>
      </trkpt>
      <trkpt lat="42.94791" lon="0.85234">
        <ele>1168.9</ele>
        <time>2019-08-17T09:46:49Z</time>
      </trkpt>
      <trkpt lat="42.94792" lon="0.85234">
        <ele>1169</ele>
        <time>2019-08-17T09:46:50Z</time>
      </trkpt>
      <trkpt lat="42.94792" lon="0.85233">
        <ele>1169.2</ele>
        <time>2019-08-17T09:46:51Z</time>
      </trkpt>
      <trkpt lat="42.94793" lon="0.85233">
        <ele>1169.4</ele>
        <time>2019-08-17T09:46:52Z</time>
      </trkpt>
      <trkpt lat="42.94793" lon="0.85233">
        <ele>1169.6</ele>
        <time>2019-08-17T09:46:53Z</time>
      </trkpt>
      <trkpt lat="42.94794" lon="0.85232">
        <ele>1169.8</ele>
        <time>2019-08-17T09:46:54Z</time>
      </trkpt>
      <trkpt lat="42.94794" lon="0.85232">
        <ele>1169.9</ele>
        <time>2019-08-17T09:46:55Z</time>
      </trkpt>
      <trkpt lat="42.94794" lon="0.85231">
        <ele>1170.1</ele>
        <time>2019-08-17T09:46:56Z</time>
      </trkpt>
      <trkpt lat="42.94795" lon="0.85231">
        <ele>1170.2</ele>
        <time>2019-08-17T09:46:57Z</time>
      </trkpt>
      <trkpt lat="42.94795" lon="0.8523">
        <ele>1170.4</ele>
        <time>2019-08-17T09:46:58Z</time>
      </trkpt>
      <trkpt lat="42.94796" lon="0.8523">
        <ele>1170.6</ele>
        <time>2019-08-17T09:46:59Z</time>
      </trkpt>
      <trkpt lat="42.94796" lon="0.8523">
        <ele>1170.7</ele>
        <time>2019-08-17T09:47:00Z</time>
      </trkpt>
      <trkpt lat="42.94797" lon="0.85229">
        <ele>1170.9</ele>
        <time>2019-08-17T09:47:01Z</time>
      </trkpt>
      <trkpt lat="42.94797" lon="0.85229">
        <ele>1171.1</ele>
        <time>2019-08-17T09:47:02Z</time>
      </trkpt>
      <trkpt lat="42.94797" lon="0.85228">
        <ele>1171.2</ele>
        <time>2019-08-17T09:47:03Z</time>
      </trkpt>
      <trkpt lat="42.94798" lon="0.85228">
        <ele>1171.4</ele>
        <time>2019-08-17T09:47:04Z</time>
      </trkpt>
      <trkpt lat="42.94798" lon="0.85227">
        <ele>1171.6</ele>
        <time>2019-08-17T09:47:05Z</time>
      </trkpt>
      <trkpt lat="42.94799" lon="0.85227">
        <ele>1171.8</ele>
        <time>2019-08-17T09:47:06Z</time>
      </trkpt>
      <trkpt lat="42.94799" lon="0.85226">
        <ele>1172</ele>
        <time>2019-08-17T09:47:07Z</time>
      </trkpt>
      <trkpt lat="42.948" lon="0.85226">
        <ele>1172.1</ele>
        <time>2019-08-17T09:47:08Z</time>
      </trkpt>
      <trkpt lat="42.948" lon="0.85226">
        <ele>1172.3</ele>
        <time>2019-08-17T09:47:09Z</time>
      </trkpt>
      <trkpt lat="42.94801" lon="0.85225">
        <ele>1172.5</ele>
        <time>2019-08-17T09:47:10Z</time>
      </trkpt>
      <trkpt lat="42.94801" lon="0.85225">
        <ele>1172.7</ele>
        <time>2019-08-17T09:47:11Z</time>
      </trkpt>
      <trkpt lat="42.94801" lon="0.85224">
        <ele>1172.9</ele>
        <time>2019-08-17T09:47:12Z</time>
      </trkpt>
      <trkpt lat="42.94802" lon="0.85223">
        <ele>1173.2</ele>
        <time>2019-08-17T09:47:13Z</time>
      </trkpt>
      <trkpt lat="42.94802" lon="0.85223">
        <ele>1173.5</ele>
        <time>2019-08-17T09:47:14Z</time>
      </trkpt>
      <trkpt lat="42.94803" lon="0.85222">
        <ele>1173.7</ele>
        <time>2019-08-17T09:47:15Z</time>
      </trkpt>
      <trkpt lat="42.94803" lon="0.85221">
        <ele>1174</ele>
        <time>2019-08-17T09:47:16Z</time>
      </trkpt>
      <trkpt lat="42.94804" lon="0.8522">
        <ele>1174.2</ele>
        <time>2019-08-17T09:47:17Z</time>
      </trkpt>
      <trkpt lat="42.94804" lon="0.85219">
        <ele>1174.5</ele>
        <time>2019-08-17T09:47:18Z</time>
      </trkpt>
      <trkpt lat="42.94804" lon="0.85219">
        <ele>1174.7</ele>
        <time>2019-08-17T09:47:19Z</time>
      </trkpt>
      <trkpt lat="42.94805" lon="0.85218">
        <ele>1174.9</ele>
        <time>2019-08-17T09:47:20Z</time>
      </trkpt>
      <trkpt lat="42.94805" lon="0.85217">
        <ele>1175.2</ele>
        <time>2019-08-17T09:47:21Z</time>
      </trkpt>
      <trkpt lat="42.94806" lon="0.85216">
        <ele>1175.3</ele>
        <time>2019-08-17T09:47:22Z</time>
      </trkpt>
      <trkpt lat="42.94806" lon="0.85215">
        <ele>1175.5</ele>
        <time>2019-08-17T09:47:23Z</time>
      </trkpt>
      <trkpt lat="42.94806" lon="0.85215">
        <ele>1175.7</ele>
        <time>2019-08-17T09:47:24Z</time>
      </trkpt>
      <trkpt lat="42.94807" lon="0.85214">
        <ele>1175.9</ele>
        <time>2019-08-17T09:47:25Z</time>
      </trkpt>
      <trkpt lat="42.94808" lon="0.85213">
        <ele>1176.2</ele>
        <time>2019-08-17T09:47:26Z</time>
      </trkpt>
      <trkpt lat="42.94808" lon="0.85212">
        <ele>1176.4</ele>
        <time>2019-08-17T09:47:27Z</time>
      </trkpt>
      <trkpt lat="42.94808" lon="0.85212">
        <ele>1176.6</ele>
        <time>2019-08-17T09:47:28Z</time>
      </trkpt>
      <trkpt lat="42.94809" lon="0.85211">
        <ele>1176.7</ele>
        <time>2019-08-17T09:47:29Z</time>
      </trkpt>
      <trkpt lat="42.94809" lon="0.8521">
        <ele>1176.9</ele>
        <time>2019-08-17T09:47:30Z</time>
      </trkpt>
      <trkpt lat="42.9481" lon="0.8521">
        <ele>1177.1</ele>
        <time>2019-08-17T09:47:31Z</time>
      </trkpt>
      <trkpt lat="42.9481" lon="0.85209">
        <ele>1177.2</ele>
        <time>2019-08-17T09:47:32Z</time>
      </trkpt>
      <trkpt lat="42.94811" lon="0.85208">
        <ele>1177.4</ele>
        <time>2019-08-17T09:47:33Z</time>
      </trkpt>
      <trkpt lat="42.94811" lon="0.85208">
        <ele>1177.6</ele>
        <time>2019-08-17T09:47:34Z</time>
      </trkpt>
      <trkpt lat="42.94811" lon="0.85207">
        <ele>1177.8</ele>
        <time>2019-08-17T09:47:35Z</time>
      </trkpt>
      <trkpt lat="42.94812" lon="0.85206">
        <ele>1178</ele>
        <time>2019-08-17T09:47:36Z</time>
      </trkpt>
      <trkpt lat="42.94812" lon="0.85206">
        <ele>1178.2</ele>
        <time>2019-08-17T09:47:37Z</time>
      </trkpt>
      <trkpt lat="42.94813" lon="0.85205">
        <ele>1178.4</ele>
        <time>2019-08-17T09:47:38Z</time>
      </trkpt>
      <trkpt lat="42.94813" lon="0.85205">
        <ele>1178.6</ele>
        <time>2019-08-17T09:47:39Z</time>
      </trkpt>
      <trkpt lat="42.94813" lon="0.85204">
        <ele>1178.8</ele>
        <time>2019-08-17T09:47:40Z</time>
      </trkpt>
      <trkpt lat="42.94814" lon="0.85203">
        <ele>1179</ele>
        <time>2019-08-17T09:47:41Z</time>
      </trkpt>
      <trkpt lat="42.94815" lon="0.85202">
        <ele>1179.4</ele>
        <time>2019-08-17T09:47:42Z</time>
      </trkpt>
      <trkpt lat="42.94815" lon="0.85201">
        <ele>1179.7</ele>
        <time>2019-08-17T09:47:43Z</time>
      </trkpt>
      <trkpt lat="42.94815" lon="0.852">
        <ele>1180</ele>
        <time>2019-08-17T09:47:44Z</time>
      </trkpt>
      <trkpt lat="42.94816" lon="0.85199">
        <ele>1180.2</ele>
        <time>2019-08-17T09:47:45Z</time>
      </trkpt>
      <trkpt lat="42.94816" lon="0.85198">
        <ele>1180.5</ele>
        <time>2019-08-17T09:47:46Z</time>
      </trkpt>
      <trkpt lat="42.94816" lon="0.85197">
        <ele>1180.7</ele>
        <time>2019-08-17T09:47:47Z</time>
      </trkpt>
      <trkpt lat="42.94817" lon="0.85195">
        <ele>1181</ele>
        <time>2019-08-17T09:47:48Z</time>
      </trkpt>
      <trkpt lat="42.94817" lon="0.85194">
        <ele>1181.2</ele>
        <time>2019-08-17T09:47:49Z</time>
      </trkpt>
      <trkpt lat="42.94817" lon="0.85193">
        <ele>1181.5</ele>
        <time>2019-08-17T09:47:50Z</time>
      </trkpt>
      <trkpt lat="42.94818" lon="0.85192">
        <ele>1181.7</ele>
        <time>2019-08-17T09:47:51Z</time>
      </trkpt>
      <trkpt lat="42.94818" lon="0.85191">
        <ele>1182</ele>
        <time>2019-08-17T09:47:52Z</time>
      </trkpt>
      <trkpt lat="42.94819" lon="0.8519">
        <ele>1182.2</ele>
        <time>2019-08-17T09:47:53Z</time>
      </trkpt>
      <trkpt lat="42.94819" lon="0.85189">
        <ele>1182.6</ele>
        <time>2019-08-17T09:47:54Z</time>
      </trkpt>
      <trkpt lat="42.9482" lon="0.85189">
        <ele>1182.7</ele>
        <time>2019-08-17T09:47:55Z</time>
      </trkpt>
      <trkpt lat="42.9482" lon="0.85188">
        <ele>1182.8</ele>
        <time>2019-08-17T09:47:56Z</time>
      </trkpt>
      <trkpt lat="42.94821" lon="0.85188">
        <ele>1183</ele>
        <time>2019-08-17T09:47:57Z</time>
      </trkpt>
      <trkpt lat="42.94821" lon="0.85187">
        <ele>1183.1</ele>
        <time>2019-08-17T09:47:58Z</time>
      </trkpt>
      <trkpt lat="42.94822" lon="0.85186">
        <ele>1183.4</ele>
        <time>2019-08-17T09:47:59Z</time>
      </trkpt>
      <trkpt lat="42.94822" lon="0.85186">
        <ele>1183.6</ele>
        <time>2019-08-17T09:48:00Z</time>
      </trkpt>
      <trkpt lat="42.94823" lon="0.85185">
        <ele>1183.8</ele>
        <time>2019-08-17T09:48:01Z</time>
      </trkpt>
      <trkpt lat="42.94823" lon="0.85185">
        <ele>1184</ele>
        <time>2019-08-17T09:48:02Z</time>
      </trkpt>
      <trkpt lat="42.94824" lon="0.85184">
        <ele>1184.1</ele>
        <time>2019-08-17T09:48:03Z</time>
      </trkpt>
      <trkpt lat="42.94824" lon="0.85183">
        <ele>1184.3</ele>
        <time>2019-08-17T09:48:04Z</time>
      </trkpt>
      <trkpt lat="42.94825" lon="0.85183">
        <ele>1184.5</ele>
        <time>2019-08-17T09:48:05Z</time>
      </trkpt>
      <trkpt lat="42.94825" lon="0.85182">
        <ele>1184.7</ele>
        <time>2019-08-17T09:48:06Z</time>
      </trkpt>
      <trkpt lat="42.94826" lon="0.85182">
        <ele>1184.8</ele>
        <time>2019-08-17T09:48:07Z</time>
      </trkpt>
      <trkpt lat="42.94826" lon="0.85181">
        <ele>1185</ele>
        <time>2019-08-17T09:48:08Z</time>
      </trkpt>
      <trkpt lat="42.94827" lon="0.8518">
        <ele>1185.2</ele>
        <time>2019-08-17T09:48:09Z</time>
      </trkpt>
      <trkpt lat="42.94828" lon="0.8518">
        <ele>1185.4</ele>
        <time>2019-08-17T09:48:10Z</time>
      </trkpt>
      <trkpt lat="42.94828" lon="0.85179">
        <ele>1185.6</ele>
        <time>2019-08-17T09:48:11Z</time>
      </trkpt>
      <trkpt lat="42.94829" lon="0.85179">
        <ele>1185.8</ele>
        <time>2019-08-17T09:48:12Z</time>
      </trkpt>
      <trkpt lat="42.94829" lon="0.85178">
        <ele>1186</ele>
        <time>2019-08-17T09:48:13Z</time>
      </trkpt>
      <trkpt lat="42.9483" lon="0.85177">
        <ele>1186.2</ele>
        <time>2019-08-17T09:48:14Z</time>
      </trkpt>
      <trkpt lat="42.9483" lon="0.85177">
        <ele>1186.3</ele>
        <time>2019-08-17T09:48:15Z</time>
      </trkpt>
      <trkpt lat="42.94831" lon="0.85176">
        <ele>1186.5</ele>
        <time>2019-08-17T09:48:16Z</time>
      </trkpt>
      <trkpt lat="42.94831" lon="0.85176">
        <ele>1186.7</ele>
        <time>2019-08-17T09:48:17Z</time>
      </trkpt>
      <trkpt lat="42.94832" lon="0.85175">
        <ele>1186.9</ele>
        <time>2019-08-17T09:48:18Z</time>
      </trkpt>
      <trkpt lat="42.94832" lon="0.85174">
        <ele>1187.1</ele>
        <time>2019-08-17T09:48:19Z</time>
      </trkpt>
      <trkpt lat="42.94833" lon="0.85174">
        <ele>1187.3</ele>
        <time>2019-08-17T09:48:20Z</time>
      </trkpt>
      <trkpt lat="42.94833" lon="0.85173">
        <ele>1187.5</ele>
        <time>2019-08-17T09:48:21Z</time>
      </trkpt>
      <trkpt lat="42.94833" lon="0.85173">
        <ele>1187.6</ele>
        <time>2019-08-17T09:48:22Z</time>
      </trkpt>
      <trkpt lat="42.94834" lon="0.85173">
        <ele>1187.7</ele>
        <time>2019-08-17T09:48:23Z</time>
      </trkpt>
      <trkpt lat="42.94834" lon="0.85172">
        <ele>1187.9</ele>
        <time>2019-08-17T09:48:24Z</time>
      </trkpt>
      <trkpt lat="42.94835" lon="0.85171">
        <ele>1188.2</ele>
        <time>2019-08-17T09:48:25Z</time>
      </trkpt>
      <trkpt lat="42.94836" lon="0.8517">
        <ele>1188.5</ele>
        <time>2019-08-17T09:48:26Z</time>
      </trkpt>
      <trkpt lat="42.94837" lon="0.85169">
        <ele>1188.8</ele>
        <time>2019-08-17T09:48:27Z</time>
      </trkpt>
      <trkpt lat="42.94837" lon="0.85168">
        <ele>1189</ele>
        <time>2019-08-17T09:48:28Z</time>
      </trkpt>
      <trkpt lat="42.94838" lon="0.85167">
        <ele>1189.2</ele>
        <time>2019-08-17T09:48:29Z</time>
      </trkpt>
      <trkpt lat="42.94839" lon="0.85166">
        <ele>1189.4</ele>
        <time>2019-08-17T09:48:30Z</time>
      </trkpt>
      <trkpt lat="42.94839" lon="0.85165">
        <ele>1189.6</ele>
        <time>2019-08-17T09:48:31Z</time>
      </trkpt>
      <trkpt lat="42.9484" lon="0.85164">
        <ele>1189.9</ele>
        <time>2019-08-17T09:48:32Z</time>
      </trkpt>
      <trkpt lat="42.9484" lon="0.85164">
        <ele>1190.1</ele>
        <time>2019-08-17T09:48:33Z</time>
      </trkpt>
      <trkpt lat="42.94841" lon="0.85163">
        <ele>1190.3</ele>
        <time>2019-08-17T09:48:34Z</time>
      </trkpt>
      <trkpt lat="42.94842" lon="0.85162">
        <ele>1190.5</ele>
        <time>2019-08-17T09:48:35Z</time>
      </trkpt>
      <trkpt lat="42.94843" lon="0.85161">
        <ele>1190.7</ele>
        <time>2019-08-17T09:48:36Z</time>
      </trkpt>
      <trkpt lat="42.94843" lon="0.8516">
        <ele>1190.9</ele>
        <time>2019-08-17T09:48:37Z</time>
      </trkpt>
      <trkpt lat="42.94845" lon="0.85159">
        <ele>1191.3</ele>
        <time>2019-08-17T09:48:38Z</time>
      </trkpt>
      <trkpt lat="42.94845" lon="0.85158">
        <ele>1191.5</ele>
        <time>2019-08-17T09:48:39Z</time>
      </trkpt>
      <trkpt lat="42.94846" lon="0.85157">
        <ele>1191.7</ele>
        <time>2019-08-17T09:48:40Z</time>
      </trkpt>
      <trkpt lat="42.94847" lon="0.85157">
        <ele>1191.9</ele>
        <time>2019-08-17T09:48:41Z</time>
      </trkpt>
      <trkpt lat="42.94847" lon="0.85156">
        <ele>1192.1</ele>
        <time>2019-08-17T09:48:42Z</time>
      </trkpt>
      <trkpt lat="42.94848" lon="0.85155">
        <ele>1192.2</ele>
        <time>2019-08-17T09:48:43Z</time>
      </trkpt>
      <trkpt lat="42.94849" lon="0.85155">
        <ele>1192.4</ele>
        <time>2019-08-17T09:48:44Z</time>
      </trkpt>
      <trkpt lat="42.94849" lon="0.85154">
        <ele>1192.6</ele>
        <time>2019-08-17T09:48:45Z</time>
      </trkpt>
      <trkpt lat="42.9485" lon="0.85153">
        <ele>1192.8</ele>
        <time>2019-08-17T09:48:46Z</time>
      </trkpt>
      <trkpt lat="42.94851" lon="0.85153">
        <ele>1192.9</ele>
        <time>2019-08-17T09:48:47Z</time>
      </trkpt>
      <trkpt lat="42.94851" lon="0.85152">
        <ele>1193.1</ele>
        <time>2019-08-17T09:48:48Z</time>
      </trkpt>
      <trkpt lat="42.94852" lon="0.85151">
        <ele>1193.3</ele>
        <time>2019-08-17T09:48:49Z</time>
      </trkpt>
      <trkpt lat="42.94852" lon="0.85151">
        <ele>1193.5</ele>
        <time>2019-08-17T09:48:50Z</time>
      </trkpt>
      <trkpt lat="42.94854" lon="0.85149">
        <ele>1193.9</ele>
        <time>2019-08-17T09:48:51Z</time>
      </trkpt>
      <trkpt lat="42.94855" lon="0.85148">
        <ele>1194.1</ele>
        <time>2019-08-17T09:48:52Z</time>
      </trkpt>
      <trkpt lat="42.94856" lon="0.85148">
        <ele>1194.2</ele>
        <time>2019-08-17T09:48:53Z</time>
      </trkpt>
      <trkpt lat="42.94856" lon="0.85147">
        <ele>1194.4</ele>
        <time>2019-08-17T09:48:54Z</time>
      </trkpt>
      <trkpt lat="42.94857" lon="0.85147">
        <ele>1194.5</ele>
        <time>2019-08-17T09:48:55Z</time>
      </trkpt>
      <trkpt lat="42.94857" lon="0.85146">
        <ele>1194.7</ele>
        <time>2019-08-17T09:48:56Z</time>
      </trkpt>
      <trkpt lat="42.94858" lon="0.85146">
        <ele>1194.8</ele>
        <time>2019-08-17T09:48:57Z</time>
      </trkpt>
      <trkpt lat="42.94859" lon="0.85145">
        <ele>1195</ele>
        <time>2019-08-17T09:48:58Z</time>
      </trkpt>
      <trkpt lat="42.94859" lon="0.85145">
        <ele>1195.1</ele>
        <time>2019-08-17T09:48:59Z</time>
      </trkpt>
      <trkpt lat="42.9486" lon="0.85144">
        <ele>1195.2</ele>
        <time>2019-08-17T09:49:00Z</time>
      </trkpt>
      <trkpt lat="42.94861" lon="0.85144">
        <ele>1195.4</ele>
        <time>2019-08-17T09:49:01Z</time>
      </trkpt>
      <trkpt lat="42.94861" lon="0.85144">
        <ele>1195.6</ele>
        <time>2019-08-17T09:49:02Z</time>
      </trkpt>
      <trkpt lat="42.94862" lon="0.85143">
        <ele>1195.8</ele>
        <time>2019-08-17T09:49:03Z</time>
      </trkpt>
      <trkpt lat="42.94863" lon="0.85143">
        <ele>1196</ele>
        <time>2019-08-17T09:49:04Z</time>
      </trkpt>
      <trkpt lat="42.94864" lon="0.85142">
        <ele>1196.3</ele>
        <time>2019-08-17T09:49:05Z</time>
      </trkpt>
      <trkpt lat="42.94865" lon="0.85141">
        <ele>1196.5</ele>
        <time>2019-08-17T09:49:06Z</time>
      </trkpt>
      <trkpt lat="42.94866" lon="0.85141">
        <ele>1196.8</ele>
        <time>2019-08-17T09:49:07Z</time>
      </trkpt>
      <trkpt lat="42.94867" lon="0.8514">
        <ele>1197</ele>
        <time>2019-08-17T09:49:08Z</time>
      </trkpt>
      <trkpt lat="42.94868" lon="0.8514">
        <ele>1197.2</ele>
        <time>2019-08-17T09:49:09Z</time>
      </trkpt>
      <trkpt lat="42.94869" lon="0.85139">
        <ele>1197.4</ele>
        <time>2019-08-17T09:49:10Z</time>
      </trkpt>
      <trkpt lat="42.9487" lon="0.85139">
        <ele>1197.6</ele>
        <time>2019-08-17T09:49:11Z</time>
      </trkpt>
      <trkpt lat="42.94871" lon="0.85138">
        <ele>1197.8</ele>
        <time>2019-08-17T09:49:12Z</time>
      </trkpt>
      <trkpt lat="42.94871" lon="0.85138">
        <ele>1197.9</ele>
        <time>2019-08-17T09:49:13Z</time>
      </trkpt>
      <trkpt lat="42.94872" lon="0.85137">
        <ele>1198.1</ele>
        <time>2019-08-17T09:49:14Z</time>
      </trkpt>
      <trkpt lat="42.94872" lon="0.85137">
        <ele>1198.2</ele>
        <time>2019-08-17T09:49:15Z</time>
      </trkpt>
      <trkpt lat="42.94874" lon="0.85136">
        <ele>1198.5</ele>
        <time>2019-08-17T09:49:16Z</time>
      </trkpt>
      <trkpt lat="42.94875" lon="0.85136">
        <ele>1198.7</ele>
        <time>2019-08-17T09:49:17Z</time>
      </trkpt>
      <trkpt lat="42.94876" lon="0.85136">
        <ele>1198.9</ele>
        <time>2019-08-17T09:49:18Z</time>
      </trkpt>
      <trkpt lat="42.94877" lon="0.85136">
        <ele>1199.2</ele>
        <time>2019-08-17T09:49:19Z</time>
      </trkpt>
      <trkpt lat="42.94878" lon="0.85136">
        <ele>1199.3</ele>
        <time>2019-08-17T09:49:20Z</time>
      </trkpt>
      <trkpt lat="42.94879" lon="0.85136">
        <ele>1199.5</ele>
        <time>2019-08-17T09:49:21Z</time>
      </trkpt>
      <trkpt lat="42.9488" lon="0.85136">
        <ele>1199.7</ele>
        <time>2019-08-17T09:49:22Z</time>
      </trkpt>
      <trkpt lat="42.94881" lon="0.85136">
        <ele>1199.9</ele>
        <time>2019-08-17T09:49:23Z</time>
      </trkpt>
      <trkpt lat="42.94882" lon="0.85136">
        <ele>1200</ele>
        <time>2019-08-17T09:49:24Z</time>
      </trkpt>
      <trkpt lat="42.94883" lon="0.85135">
        <ele>1200.2</ele>
        <time>2019-08-17T09:49:25Z</time>
      </trkpt>
      <trkpt lat="42.94884" lon="0.85135">
        <ele>1200.4</ele>
        <time>2019-08-17T09:49:26Z</time>
      </trkpt>
      <trkpt lat="42.94885" lon="0.85135">
        <ele>1200.6</ele>
        <time>2019-08-17T09:49:27Z</time>
      </trkpt>
      <trkpt lat="42.94886" lon="0.85135">
        <ele>1200.8</ele>
        <time>2019-08-17T09:49:28Z</time>
      </trkpt>
      <trkpt lat="42.94887" lon="0.85135">
        <ele>1200.9</ele>
        <time>2019-08-17T09:49:29Z</time>
      </trkpt>
      <trkpt lat="42.94888" lon="0.85134">
        <ele>1201.1</ele>
        <time>2019-08-17T09:49:30Z</time>
      </trkpt>
      <trkpt lat="42.94889" lon="0.85134">
        <ele>1201.3</ele>
        <time>2019-08-17T09:49:31Z</time>
      </trkpt>
      <trkpt lat="42.9489" lon="0.85134">
        <ele>1201.5</ele>
        <time>2019-08-17T09:49:32Z</time>
      </trkpt>
      <trkpt lat="42.94891" lon="0.85133">
        <ele>1201.7</ele>
        <time>2019-08-17T09:49:33Z</time>
      </trkpt>
      <trkpt lat="42.94891" lon="0.85133">
        <ele>1201.9</ele>
        <time>2019-08-17T09:49:34Z</time>
      </trkpt>
      <trkpt lat="42.94892" lon="0.85133">
        <ele>1202.1</ele>
        <time>2019-08-17T09:49:35Z</time>
      </trkpt>
      <trkpt lat="42.94893" lon="0.85133">
        <ele>1202.2</ele>
        <time>2019-08-17T09:49:36Z</time>
      </trkpt>
      <trkpt lat="42.94894" lon="0.85132">
        <ele>1202.4</ele>
        <time>2019-08-17T09:49:37Z</time>
      </trkpt>
      <trkpt lat="42.94895" lon="0.85132">
        <ele>1202.6</ele>
        <time>2019-08-17T09:49:38Z</time>
      </trkpt>
      <trkpt lat="42.94896" lon="0.85132">
        <ele>1202.7</ele>
        <time>2019-08-17T09:49:39Z</time>
      </trkpt>
      <trkpt lat="42.94897" lon="0.85131">
        <ele>1202.9</ele>
        <time>2019-08-17T09:49:40Z</time>
      </trkpt>
      <trkpt lat="42.94897" lon="0.85131">
        <ele>1203.1</ele>
        <time>2019-08-17T09:49:41Z</time>
      </trkpt>
      <trkpt lat="42.94898" lon="0.85131">
        <ele>1203.2</ele>
        <time>2019-08-17T09:49:42Z</time>
      </trkpt>
      <trkpt lat="42.94899" lon="0.8513">
        <ele>1203.4</ele>
        <time>2019-08-17T09:49:43Z</time>
      </trkpt>
      <trkpt lat="42.949" lon="0.8513">
        <ele>1203.5</ele>
        <time>2019-08-17T09:49:44Z</time>
      </trkpt>
      <trkpt lat="42.94901" lon="0.85129">
        <ele>1203.7</ele>
        <time>2019-08-17T09:49:45Z</time>
      </trkpt>
      <trkpt lat="42.94902" lon="0.85129">
        <ele>1203.9</ele>
        <time>2019-08-17T09:49:46Z</time>
      </trkpt>
      <trkpt lat="42.94902" lon="0.85128">
        <ele>1204</ele>
        <time>2019-08-17T09:49:47Z</time>
      </trkpt>
      <trkpt lat="42.94903" lon="0.85128">
        <ele>1204.2</ele>
        <time>2019-08-17T09:49:48Z</time>
      </trkpt>
      <trkpt lat="42.94904" lon="0.85127">
        <ele>1204.3</ele>
        <time>2019-08-17T09:49:49Z</time>
      </trkpt>
      <trkpt lat="42.94905" lon="0.85127">
        <ele>1204.5</ele>
        <time>2019-08-17T09:49:50Z</time>
      </trkpt>
      <trkpt lat="42.94906" lon="0.85127">
        <ele>1204.6</ele>
        <time>2019-08-17T09:49:51Z</time>
      </trkpt>
      <trkpt lat="42.94907" lon="0.85127">
        <ele>1204.8</ele>
        <time>2019-08-17T09:49:52Z</time>
      </trkpt>
      <trkpt lat="42.94907" lon="0.85127">
        <ele>1204.9</ele>
        <time>2019-08-17T09:49:53Z</time>
      </trkpt>
      <trkpt lat="42.94908" lon="0.85127">
        <ele>1205</ele>
        <time>2019-08-17T09:49:54Z</time>
      </trkpt>
      <trkpt lat="42.94908" lon="0.85127">
        <ele>1205</ele>
        <time>2019-08-17T09:49:55Z</time>
      </trkpt>
      <trkpt lat="42.94908" lon="0.85127">
        <ele>1205.1</ele>
        <time>2019-08-17T09:49:56Z</time>
      </trkpt>
      <trkpt lat="42.94909" lon="0.85127">
        <ele>1205.2</ele>
        <time>2019-08-17T09:49:57Z</time>
      </trkpt>
      <trkpt lat="42.9491" lon="0.85127">
        <ele>1205.5</ele>
        <time>2019-08-17T09:49:58Z</time>
      </trkpt>
      <trkpt lat="42.94911" lon="0.85126">
        <ele>1205.7</ele>
        <time>2019-08-17T09:49:59Z</time>
      </trkpt>
      <trkpt lat="42.94912" lon="0.85126">
        <ele>1205.9</ele>
        <time>2019-08-17T09:50:00Z</time>
      </trkpt>
      <trkpt lat="42.94913" lon="0.85126">
        <ele>1206</ele>
        <time>2019-08-17T09:50:01Z</time>
      </trkpt>
      <trkpt lat="42.94914" lon="0.85126">
        <ele>1206.1</ele>
        <time>2019-08-17T09:50:02Z</time>
      </trkpt>
      <trkpt lat="42.94914" lon="0.85126">
        <ele>1206.3</ele>
        <time>2019-08-17T09:50:03Z</time>
      </trkpt>
      <trkpt lat="42.94915" lon="0.85126">
        <ele>1206.4</ele>
        <time>2019-08-17T09:50:04Z</time>
      </trkpt>
      <trkpt lat="42.94916" lon="0.85126">
        <ele>1206.6</ele>
        <time>2019-08-17T09:50:05Z</time>
      </trkpt>
      <trkpt lat="42.94917" lon="0.85126">
        <ele>1206.7</ele>
        <time>2019-08-17T09:50:06Z</time>
      </trkpt>
      <trkpt lat="42.94918" lon="0.85126">
        <ele>1206.9</ele>
        <time>2019-08-17T09:50:07Z</time>
      </trkpt>
      <trkpt lat="42.94918" lon="0.85126">
        <ele>1207</ele>
        <time>2019-08-17T09:50:08Z</time>
      </trkpt>
      <trkpt lat="42.94919" lon="0.85126">
        <ele>1207.2</ele>
        <time>2019-08-17T09:50:09Z</time>
      </trkpt>
      <trkpt lat="42.9492" lon="0.85126">
        <ele>1207.4</ele>
        <time>2019-08-17T09:50:10Z</time>
      </trkpt>
      <trkpt lat="42.94921" lon="0.85126">
        <ele>1207.6</ele>
        <time>2019-08-17T09:50:11Z</time>
      </trkpt>
      <trkpt lat="42.94922" lon="0.85126">
        <ele>1207.8</ele>
        <time>2019-08-17T09:50:12Z</time>
      </trkpt>
      <trkpt lat="42.94923" lon="0.85126">
        <ele>1208</ele>
        <time>2019-08-17T09:50:13Z</time>
      </trkpt>
      <trkpt lat="42.94924" lon="0.85126">
        <ele>1208.3</ele>
        <time>2019-08-17T09:50:14Z</time>
      </trkpt>
      <trkpt lat="42.94925" lon="0.85125">
        <ele>1208.6</ele>
        <time>2019-08-17T09:50:15Z</time>
      </trkpt>
      <trkpt lat="42.94927" lon="0.85125">
        <ele>1208.8</ele>
        <time>2019-08-17T09:50:16Z</time>
      </trkpt>
      <trkpt lat="42.94928" lon="0.85125">
        <ele>1209.1</ele>
        <time>2019-08-17T09:50:17Z</time>
      </trkpt>
      <trkpt lat="42.94929" lon="0.85124">
        <ele>1209.3</ele>
        <time>2019-08-17T09:50:18Z</time>
      </trkpt>
      <trkpt lat="42.9493" lon="0.85124">
        <ele>1209.5</ele>
        <time>2019-08-17T09:50:19Z</time>
      </trkpt>
      <trkpt lat="42.94931" lon="0.85124">
        <ele>1209.7</ele>
        <time>2019-08-17T09:50:20Z</time>
      </trkpt>
      <trkpt lat="42.94933" lon="0.85124">
        <ele>1210.1</ele>
        <time>2019-08-17T09:50:21Z</time>
      </trkpt>
      <trkpt lat="42.94934" lon="0.85124">
        <ele>1210.3</ele>
        <time>2019-08-17T09:50:22Z</time>
      </trkpt>
      <trkpt lat="42.94935" lon="0.85124">
        <ele>1210.4</ele>
        <time>2019-08-17T09:50:23Z</time>
      </trkpt>
      <trkpt lat="42.94935" lon="0.85125">
        <ele>1210.6</ele>
        <time>2019-08-17T09:50:24Z</time>
      </trkpt>
      <trkpt lat="42.94936" lon="0.85125">
        <ele>1210.8</ele>
        <time>2019-08-17T09:50:25Z</time>
      </trkpt>
      <trkpt lat="42.94937" lon="0.85125">
        <ele>1210.9</ele>
        <time>2019-08-17T09:50:26Z</time>
      </trkpt>
      <trkpt lat="42.94938" lon="0.85125">
        <ele>1211.1</ele>
        <time>2019-08-17T09:50:27Z</time>
      </trkpt>
      <trkpt lat="42.94939" lon="0.85126">
        <ele>1211.3</ele>
        <time>2019-08-17T09:50:28Z</time>
      </trkpt>
      <trkpt lat="42.9494" lon="0.85126">
        <ele>1211.5</ele>
        <time>2019-08-17T09:50:29Z</time>
      </trkpt>
      <trkpt lat="42.9494" lon="0.85126">
        <ele>1211.8</ele>
        <time>2019-08-17T09:50:30Z</time>
      </trkpt>
      <trkpt lat="42.94941" lon="0.85127">
        <ele>1212</ele>
        <time>2019-08-17T09:50:31Z</time>
      </trkpt>
      <trkpt lat="42.94942" lon="0.85127">
        <ele>1212.3</ele>
        <time>2019-08-17T09:50:32Z</time>
      </trkpt>
      <trkpt lat="42.94943" lon="0.85127">
        <ele>1212.5</ele>
        <time>2019-08-17T09:50:33Z</time>
      </trkpt>
      <trkpt lat="42.94944" lon="0.85127">
        <ele>1212.8</ele>
        <time>2019-08-17T09:50:34Z</time>
      </trkpt>
      <trkpt lat="42.94945" lon="0.85128">
        <ele>1213</ele>
        <time>2019-08-17T09:50:35Z</time>
      </trkpt>
      <trkpt lat="42.94946" lon="0.85128">
        <ele>1213.2</ele>
        <time>2019-08-17T09:50:36Z</time>
      </trkpt>
      <trkpt lat="42.94946" lon="0.85128">
        <ele>1213.3</ele>
        <time>2019-08-17T09:50:37Z</time>
      </trkpt>
      <trkpt lat="42.94947" lon="0.85129">
        <ele>1213.6</ele>
        <time>2019-08-17T09:50:38Z</time>
      </trkpt>
      <trkpt lat="42.94948" lon="0.85129">
        <ele>1213.7</ele>
        <time>2019-08-17T09:50:39Z</time>
      </trkpt>
      <trkpt lat="42.94949" lon="0.85129">
        <ele>1213.9</ele>
        <time>2019-08-17T09:50:40Z</time>
      </trkpt>
      <trkpt lat="42.9495" lon="0.85129">
        <ele>1214.1</ele>
        <time>2019-08-17T09:50:41Z</time>
      </trkpt>
      <trkpt lat="42.94951" lon="0.8513">
        <ele>1214.3</ele>
        <time>2019-08-17T09:50:42Z</time>
      </trkpt>
      <trkpt lat="42.94951" lon="0.8513">
        <ele>1214.5</ele>
        <time>2019-08-17T09:50:43Z</time>
      </trkpt>
      <trkpt lat="42.94952" lon="0.8513">
        <ele>1214.7</ele>
        <time>2019-08-17T09:50:44Z</time>
      </trkpt>
      <trkpt lat="42.94953" lon="0.85131">
        <ele>1214.9</ele>
        <time>2019-08-17T09:50:45Z</time>
      </trkpt>
      <trkpt lat="42.94953" lon="0.85131">
        <ele>1215</ele>
        <time>2019-08-17T09:50:46Z</time>
      </trkpt>
      <trkpt lat="42.94954" lon="0.85132">
        <ele>1215.2</ele>
        <time>2019-08-17T09:50:47Z</time>
      </trkpt>
      <trkpt lat="42.94954" lon="0.85133">
        <ele>1215.3</ele>
        <time>2019-08-17T09:50:48Z</time>
      </trkpt>
      <trkpt lat="42.94954" lon="0.85133">
        <ele>1215.4</ele>
        <time>2019-08-17T09:50:49Z</time>
      </trkpt>
      <trkpt lat="42.94955" lon="0.85134">
        <ele>1215.5</ele>
        <time>2019-08-17T09:50:50Z</time>
      </trkpt>
      <trkpt lat="42.94955" lon="0.85135">
        <ele>1215.6</ele>
        <time>2019-08-17T09:50:51Z</time>
      </trkpt>
      <trkpt lat="42.94955" lon="0.85135">
        <ele>1215.8</ele>
        <time>2019-08-17T09:50:52Z</time>
      </trkpt>
      <trkpt lat="42.94955" lon="0.85136">
        <ele>1215.9</ele>
        <time>2019-08-17T09:50:53Z</time>
      </trkpt>
      <trkpt lat="42.94956" lon="0.85137">
        <ele>1216</ele>
        <time>2019-08-17T09:50:54Z</time>
      </trkpt>
      <trkpt lat="42.94956" lon="0.85137">
        <ele>1216.1</ele>
        <time>2019-08-17T09:50:55Z</time>
      </trkpt>
      <trkpt lat="42.94956" lon="0.85138">
        <ele>1216.2</ele>
        <time>2019-08-17T09:50:56Z</time>
      </trkpt>
      <trkpt lat="42.94957" lon="0.85139">
        <ele>1216.4</ele>
        <time>2019-08-17T09:50:57Z</time>
      </trkpt>
      <trkpt lat="42.94957" lon="0.85139">
        <ele>1216.5</ele>
        <time>2019-08-17T09:50:58Z</time>
      </trkpt>
      <trkpt lat="42.94957" lon="0.8514">
        <ele>1216.6</ele>
        <time>2019-08-17T09:50:59Z</time>
      </trkpt>
      <trkpt lat="42.94957" lon="0.85141">
        <ele>1216.7</ele>
        <time>2019-08-17T09:51:00Z</time>
      </trkpt>
      <trkpt lat="42.94958" lon="0.85141">
        <ele>1216.8</ele>
        <time>2019-08-17T09:51:01Z</time>
      </trkpt>
      <trkpt lat="42.94958" lon="0.85142">
        <ele>1216.9</ele>
        <time>2019-08-17T09:51:02Z</time>
      </trkpt>
      <trkpt lat="42.94958" lon="0.85143">
        <ele>1217.2</ele>
        <time>2019-08-17T09:51:03Z</time>
      </trkpt>
      <trkpt lat="42.94958" lon="0.85145">
        <ele>1217.4</ele>
        <time>2019-08-17T09:51:04Z</time>
      </trkpt>
      <trkpt lat="42.94958" lon="0.85146">
        <ele>1217.6</ele>
        <time>2019-08-17T09:51:05Z</time>
      </trkpt>
      <trkpt lat="42.94957" lon="0.85147">
        <ele>1217.7</ele>
        <time>2019-08-17T09:51:06Z</time>
      </trkpt>
      <trkpt lat="42.94957" lon="0.85148">
        <ele>1218</ele>
        <time>2019-08-17T09:51:07Z</time>
      </trkpt>
      <trkpt lat="42.94957" lon="0.85149">
        <ele>1218.2</ele>
        <time>2019-08-17T09:51:08Z</time>
      </trkpt>
      <trkpt lat="42.94957" lon="0.8515">
        <ele>1218.3</ele>
        <time>2019-08-17T09:51:09Z</time>
      </trkpt>
      <trkpt lat="42.94957" lon="0.8515">
        <ele>1218.5</ele>
        <time>2019-08-17T09:51:10Z</time>
      </trkpt>
      <trkpt lat="42.94957" lon="0.85151">
        <ele>1218.7</ele>
        <time>2019-08-17T09:51:11Z</time>
      </trkpt>
      <trkpt lat="42.94957" lon="0.85152">
        <ele>1218.9</ele>
        <time>2019-08-17T09:51:12Z</time>
      </trkpt>
      <trkpt lat="42.94956" lon="0.85153">
        <ele>1219.1</ele>
        <time>2019-08-17T09:51:13Z</time>
      </trkpt>
      <trkpt lat="42.94956" lon="0.85155">
        <ele>1219.7</ele>
        <time>2019-08-17T09:51:14Z</time>
      </trkpt>
      <trkpt lat="42.94956" lon="0.85156">
        <ele>1219.9</ele>
        <time>2019-08-17T09:51:15Z</time>
      </trkpt>
      <trkpt lat="42.94956" lon="0.85157">
        <ele>1220.1</ele>
        <time>2019-08-17T09:51:16Z</time>
      </trkpt>
      <trkpt lat="42.94955" lon="0.85158">
        <ele>1220.3</ele>
        <time>2019-08-17T09:51:17Z</time>
      </trkpt>
      <trkpt lat="42.94955" lon="0.85159">
        <ele>1220.5</ele>
        <time>2019-08-17T09:51:18Z</time>
      </trkpt>
      <trkpt lat="42.94955" lon="0.8516">
        <ele>1220.7</ele>
        <time>2019-08-17T09:51:19Z</time>
      </trkpt>
      <trkpt lat="42.94955" lon="0.85161">
        <ele>1220.9</ele>
        <time>2019-08-17T09:51:20Z</time>
      </trkpt>
      <trkpt lat="42.94955" lon="0.85162">
        <ele>1221.1</ele>
        <time>2019-08-17T09:51:21Z</time>
      </trkpt>
      <trkpt lat="42.94955" lon="0.85163">
        <ele>1221.3</ele>
        <time>2019-08-17T09:51:22Z</time>
      </trkpt>
      <trkpt lat="42.94954" lon="0.85164">
        <ele>1221.5</ele>
        <time>2019-08-17T09:51:23Z</time>
      </trkpt>
      <trkpt lat="42.94954" lon="0.85165">
        <ele>1221.7</ele>
        <time>2019-08-17T09:51:24Z</time>
      </trkpt>
      <trkpt lat="42.94954" lon="0.85166">
        <ele>1221.9</ele>
        <time>2019-08-17T09:51:25Z</time>
      </trkpt>
      <trkpt lat="42.94954" lon="0.85167">
        <ele>1222.1</ele>
        <time>2019-08-17T09:51:26Z</time>
      </trkpt>
      <trkpt lat="42.94954" lon="0.85168">
        <ele>1222.3</ele>
        <time>2019-08-17T09:51:27Z</time>
      </trkpt>
      <trkpt lat="42.94954" lon="0.85169">
        <ele>1222.5</ele>
        <time>2019-08-17T09:51:28Z</time>
      </trkpt>
      <trkpt lat="42.94953" lon="0.8517">
        <ele>1222.6</ele>
        <time>2019-08-17T09:51:29Z</time>
      </trkpt>
      <trkpt lat="42.94953" lon="0.85171">
        <ele>1222.9</ele>
        <time>2019-08-17T09:51:30Z</time>
      </trkpt>
      <trkpt lat="42.94952" lon="0.85171">
        <ele>1223.1</ele>
        <time>2019-08-17T09:51:31Z</time>
      </trkpt>
      <trkpt lat="42.94952" lon="0.85172">
        <ele>1223.3</ele>
        <time>2019-08-17T09:51:32Z</time>
      </trkpt>
      <trkpt lat="42.94951" lon="0.85173">
        <ele>1223.6</ele>
        <time>2019-08-17T09:51:33Z</time>
      </trkpt>
      <trkpt lat="42.94951" lon="0.85174">
        <ele>1223.9</ele>
        <time>2019-08-17T09:51:34Z</time>
      </trkpt>
      <trkpt lat="42.9495" lon="0.85175">
        <ele>1224.2</ele>
        <time>2019-08-17T09:51:35Z</time>
      </trkpt>
      <trkpt lat="42.94949" lon="0.85176">
        <ele>1224.5</ele>
        <time>2019-08-17T09:51:36Z</time>
      </trkpt>
      <trkpt lat="42.94948" lon="0.85176">
        <ele>1224.9</ele>
        <time>2019-08-17T09:51:37Z</time>
      </trkpt>
      <trkpt lat="42.94948" lon="0.85177">
        <ele>1225.2</ele>
        <time>2019-08-17T09:51:38Z</time>
      </trkpt>
      <trkpt lat="42.94947" lon="0.85178">
        <ele>1225.5</ele>
        <time>2019-08-17T09:51:39Z</time>
      </trkpt>
      <trkpt lat="42.94946" lon="0.85179">
        <ele>1225.8</ele>
        <time>2019-08-17T09:51:40Z</time>
      </trkpt>
      <trkpt lat="42.94946" lon="0.8518">
        <ele>1226</ele>
        <time>2019-08-17T09:51:41Z</time>
      </trkpt>
      <trkpt lat="42.94946" lon="0.8518">
        <ele>1226.2</ele>
        <time>2019-08-17T09:51:42Z</time>
      </trkpt>
      <trkpt lat="42.94946" lon="0.85181">
        <ele>1226.4</ele>
        <time>2019-08-17T09:51:43Z</time>
      </trkpt>
      <trkpt lat="42.94945" lon="0.85181">
        <ele>1226.5</ele>
        <time>2019-08-17T09:51:44Z</time>
      </trkpt>
      <trkpt lat="42.94946" lon="0.85182">
        <ele>1226.6</ele>
        <time>2019-08-17T09:51:45Z</time>
      </trkpt>
      <trkpt lat="42.94946" lon="0.85182">
        <ele>1226.6</ele>
        <time>2019-08-17T09:51:46Z</time>
      </trkpt>
      <trkpt lat="42.94946" lon="0.85181">
        <ele>1226.8</ele>
        <time>2019-08-17T09:51:47Z</time>
      </trkpt>
      <trkpt lat="42.94947" lon="0.85181">
        <ele>1227.1</ele>
        <time>2019-08-17T09:51:48Z</time>
      </trkpt>
      <trkpt lat="42.94947" lon="0.8518">
        <ele>1227.5</ele>
        <time>2019-08-17T09:51:49Z</time>
      </trkpt>
      <trkpt lat="42.94948" lon="0.85179">
        <ele>1228</ele>
        <time>2019-08-17T09:51:50Z</time>
      </trkpt>
      <trkpt lat="42.94949" lon="0.85178">
        <ele>1228.5</ele>
        <time>2019-08-17T09:51:51Z</time>
      </trkpt>
      <trkpt lat="42.9495" lon="0.85177">
        <ele>1229</ele>
        <time>2019-08-17T09:51:52Z</time>
      </trkpt>
      <trkpt lat="42.94951" lon="0.85176">
        <ele>1229.6</ele>
        <time>2019-08-17T09:51:53Z</time>
      </trkpt>
      <trkpt lat="42.94952" lon="0.85176">
        <ele>1230.1</ele>
        <time>2019-08-17T09:51:54Z</time>
      </trkpt>
      <trkpt lat="42.94952" lon="0.85175">
        <ele>1230.5</ele>
        <time>2019-08-17T09:51:55Z</time>
      </trkpt>
      <trkpt lat="42.94953" lon="0.85174">
        <ele>1230.9</ele>
        <time>2019-08-17T09:51:56Z</time>
      </trkpt>
      <trkpt lat="42.94954" lon="0.85174">
        <ele>1231.3</ele>
        <time>2019-08-17T09:51:57Z</time>
      </trkpt>
      <trkpt lat="42.94955" lon="0.85174">
        <ele>1231.7</ele>
        <time>2019-08-17T09:51:58Z</time>
      </trkpt>
      <trkpt lat="42.94956" lon="0.85173">
        <ele>1232.1</ele>
        <time>2019-08-17T09:51:59Z</time>
      </trkpt>
      <trkpt lat="42.94957" lon="0.85173">
        <ele>1232.6</ele>
        <time>2019-08-17T09:52:00Z</time>
      </trkpt>
      <trkpt lat="42.94957" lon="0.85172">
        <ele>1233</ele>
        <time>2019-08-17T09:52:01Z</time>
      </trkpt>
      <trkpt lat="42.94958" lon="0.85172">
        <ele>1237.8</ele>
        <time>2019-08-17T09:52:02Z</time>
      </trkpt>
      <trkpt lat="42.94959" lon="0.85171">
        <ele>1237.9</ele>
        <time>2019-08-17T09:52:03Z</time>
      </trkpt>
      <trkpt lat="42.9496" lon="0.85171">
        <ele>1238</ele>
        <time>2019-08-17T09:52:04Z</time>
      </trkpt>
      <trkpt lat="42.94961" lon="0.8517">
        <ele>1238.2</ele>
        <time>2019-08-17T09:52:05Z</time>
      </trkpt>
      <trkpt lat="42.94962" lon="0.8517">
        <ele>1238.3</ele>
        <time>2019-08-17T09:52:06Z</time>
      </trkpt>
      <trkpt lat="42.94963" lon="0.8517">
        <ele>1238.5</ele>
        <time>2019-08-17T09:52:07Z</time>
      </trkpt>
      <trkpt lat="42.94964" lon="0.85169">
        <ele>1238.6</ele>
        <time>2019-08-17T09:52:08Z</time>
      </trkpt>
      <trkpt lat="42.94965" lon="0.85169">
        <ele>1238.7</ele>
        <time>2019-08-17T09:52:09Z</time>
      </trkpt>
      <trkpt lat="42.94966" lon="0.85168">
        <ele>1238.9</ele>
        <time>2019-08-17T09:52:10Z</time>
      </trkpt>
      <trkpt lat="42.94967" lon="0.85168">
        <ele>1239</ele>
        <time>2019-08-17T09:52:11Z</time>
      </trkpt>
      <trkpt lat="42.94968" lon="0.85167">
        <ele>1239.1</ele>
        <time>2019-08-17T09:52:12Z</time>
      </trkpt>
      <trkpt lat="42.94969" lon="0.85166">
        <ele>1239.3</ele>
        <time>2019-08-17T09:52:13Z</time>
      </trkpt>
      <trkpt lat="42.9497" lon="0.85166">
        <ele>1239.4</ele>
        <time>2019-08-17T09:52:14Z</time>
      </trkpt>
      <trkpt lat="42.94971" lon="0.85165">
        <ele>1239.5</ele>
        <time>2019-08-17T09:52:15Z</time>
      </trkpt>
      <trkpt lat="42.94971" lon="0.85164">
        <ele>1239.6</ele>
        <time>2019-08-17T09:52:16Z</time>
      </trkpt>
      <trkpt lat="42.94972" lon="0.85163">
        <ele>1239.8</ele>
        <time>2019-08-17T09:52:17Z</time>
      </trkpt>
      <trkpt lat="42.94973" lon="0.85163">
        <ele>1239.9</ele>
        <time>2019-08-17T09:52:18Z</time>
      </trkpt>
      <trkpt lat="42.94973" lon="0.85162">
        <ele>1240</ele>
        <time>2019-08-17T09:52:19Z</time>
      </trkpt>
      <trkpt lat="42.94974" lon="0.85161">
        <ele>1240.1</ele>
        <time>2019-08-17T09:52:20Z</time>
      </trkpt>
      <trkpt lat="42.94975" lon="0.8516">
        <ele>1240.2</ele>
        <time>2019-08-17T09:52:21Z</time>
      </trkpt>
      <trkpt lat="42.94976" lon="0.85159">
        <ele>1240.4</ele>
        <time>2019-08-17T09:52:22Z</time>
      </trkpt>
      <trkpt lat="42.94976" lon="0.85158">
        <ele>1240.5</ele>
        <time>2019-08-17T09:52:23Z</time>
      </trkpt>
      <trkpt lat="42.94977" lon="0.85157">
        <ele>1240.6</ele>
        <time>2019-08-17T09:52:24Z</time>
      </trkpt>
      <trkpt lat="42.94978" lon="0.85156">
        <ele>1240.7</ele>
        <time>2019-08-17T09:52:25Z</time>
      </trkpt>
      <trkpt lat="42.94978" lon="0.85155">
        <ele>1240.9</ele>
        <time>2019-08-17T09:52:26Z</time>
      </trkpt>
      <trkpt lat="42.94979" lon="0.85154">
        <ele>1241</ele>
        <time>2019-08-17T09:52:27Z</time>
      </trkpt>
      <trkpt lat="42.9498" lon="0.85153">
        <ele>1241.1</ele>
        <time>2019-08-17T09:52:28Z</time>
      </trkpt>
      <trkpt lat="42.9498" lon="0.85152">
        <ele>1241.2</ele>
        <time>2019-08-17T09:52:29Z</time>
      </trkpt>
      <trkpt lat="42.94981" lon="0.85151">
        <ele>1241.4</ele>
        <time>2019-08-17T09:52:30Z</time>
      </trkpt>
      <trkpt lat="42.94982" lon="0.8515">
        <ele>1241.5</ele>
        <time>2019-08-17T09:52:31Z</time>
      </trkpt>
      <trkpt lat="42.94983" lon="0.85149">
        <ele>1241.6</ele>
        <time>2019-08-17T09:52:32Z</time>
      </trkpt>
      <trkpt lat="42.94983" lon="0.85148">
        <ele>1241.8</ele>
        <time>2019-08-17T09:52:33Z</time>
      </trkpt>
      <trkpt lat="42.94984" lon="0.85146">
        <ele>1241.9</ele>
        <time>2019-08-17T09:52:34Z</time>
      </trkpt>
      <trkpt lat="42.94985" lon="0.85145">
        <ele>1242</ele>
        <time>2019-08-17T09:52:35Z</time>
      </trkpt>
      <trkpt lat="42.94986" lon="0.85144">
        <ele>1242.2</ele>
        <time>2019-08-17T09:52:36Z</time>
      </trkpt>
      <trkpt lat="42.94986" lon="0.85143">
        <ele>1242.3</ele>
        <time>2019-08-17T09:52:37Z</time>
      </trkpt>
      <trkpt lat="42.94987" lon="0.85141">
        <ele>1242.4</ele>
        <time>2019-08-17T09:52:38Z</time>
      </trkpt>
      <trkpt lat="42.94988" lon="0.8514">
        <ele>1242.6</ele>
        <time>2019-08-17T09:52:39Z</time>
      </trkpt>
      <trkpt lat="42.94988" lon="0.85139">
        <ele>1242.7</ele>
        <time>2019-08-17T09:52:40Z</time>
      </trkpt>
      <trkpt lat="42.94989" lon="0.85137">
        <ele>1242.8</ele>
        <time>2019-08-17T09:52:41Z</time>
      </trkpt>
      <trkpt lat="42.9499" lon="0.85136">
        <ele>1243</ele>
        <time>2019-08-17T09:52:42Z</time>
      </trkpt>
      <trkpt lat="42.9499" lon="0.85135">
        <ele>1243.1</ele>
        <time>2019-08-17T09:52:43Z</time>
      </trkpt>
      <trkpt lat="42.94991" lon="0.85133">
        <ele>1243.3</ele>
        <time>2019-08-17T09:52:44Z</time>
      </trkpt>
      <trkpt lat="42.94992" lon="0.85132">
        <ele>1243.4</ele>
        <time>2019-08-17T09:52:45Z</time>
      </trkpt>
      <trkpt lat="42.94992" lon="0.85131">
        <ele>1243.6</ele>
        <time>2019-08-17T09:52:46Z</time>
      </trkpt>
      <trkpt lat="42.94993" lon="0.85129">
        <ele>1243.8</ele>
        <time>2019-08-17T09:52:47Z</time>
      </trkpt>
      <trkpt lat="42.94993" lon="0.85128">
        <ele>1244</ele>
        <time>2019-08-17T09:52:48Z</time>
      </trkpt>
      <trkpt lat="42.94994" lon="0.85127">
        <ele>1244.2</ele>
        <time>2019-08-17T09:52:49Z</time>
      </trkpt>
      <trkpt lat="42.94995" lon="0.85125">
        <ele>1244.4</ele>
        <time>2019-08-17T09:52:50Z</time>
      </trkpt>
      <trkpt lat="42.94995" lon="0.85124">
        <ele>1244.6</ele>
        <time>2019-08-17T09:52:51Z</time>
      </trkpt>
      <trkpt lat="42.94996" lon="0.85123">
        <ele>1244.7</ele>
        <time>2019-08-17T09:52:52Z</time>
      </trkpt>
      <trkpt lat="42.94997" lon="0.85122">
        <ele>1244.9</ele>
        <time>2019-08-17T09:52:53Z</time>
      </trkpt>
      <trkpt lat="42.94997" lon="0.85121">
        <ele>1245.1</ele>
        <time>2019-08-17T09:52:54Z</time>
      </trkpt>
      <trkpt lat="42.94998" lon="0.85119">
        <ele>1245.3</ele>
        <time>2019-08-17T09:52:55Z</time>
      </trkpt>
      <trkpt lat="42.94999" lon="0.85118">
        <ele>1245.5</ele>
        <time>2019-08-17T09:52:56Z</time>
      </trkpt>
      <trkpt lat="42.95" lon="0.85117">
        <ele>1245.7</ele>
        <time>2019-08-17T09:52:57Z</time>
      </trkpt>
      <trkpt lat="42.95" lon="0.85116">
        <ele>1245.8</ele>
        <time>2019-08-17T09:52:58Z</time>
      </trkpt>
      <trkpt lat="42.95001" lon="0.85114">
        <ele>1246</ele>
        <time>2019-08-17T09:52:59Z</time>
      </trkpt>
      <trkpt lat="42.95002" lon="0.85113">
        <ele>1246.2</ele>
        <time>2019-08-17T09:53:00Z</time>
      </trkpt>
      <trkpt lat="42.95002" lon="0.85112">
        <ele>1246.4</ele>
        <time>2019-08-17T09:53:01Z</time>
      </trkpt>
      <trkpt lat="42.95003" lon="0.8511">
        <ele>1246.6</ele>
        <time>2019-08-17T09:53:02Z</time>
      </trkpt>
      <trkpt lat="42.95003" lon="0.85109">
        <ele>1246.7</ele>
        <time>2019-08-17T09:53:03Z</time>
      </trkpt>
      <trkpt lat="42.95004" lon="0.85107">
        <ele>1246.9</ele>
        <time>2019-08-17T09:53:04Z</time>
      </trkpt>
      <trkpt lat="42.95004" lon="0.85106">
        <ele>1247.1</ele>
        <time>2019-08-17T09:53:05Z</time>
      </trkpt>
      <trkpt lat="42.95005" lon="0.85104">
        <ele>1247.3</ele>
        <time>2019-08-17T09:53:06Z</time>
      </trkpt>
      <trkpt lat="42.95005" lon="0.85103">
        <ele>1247.4</ele>
        <time>2019-08-17T09:53:07Z</time>
      </trkpt>
      <trkpt lat="42.95005" lon="0.85101">
        <ele>1247.6</ele>
        <time>2019-08-17T09:53:08Z</time>
      </trkpt>
      <trkpt lat="42.95006" lon="0.851">
        <ele>1247.8</ele>
        <time>2019-08-17T09:53:09Z</time>
      </trkpt>
      <trkpt lat="42.95006" lon="0.85098">
        <ele>1247.9</ele>
        <time>2019-08-17T09:53:10Z</time>
      </trkpt>
      <trkpt lat="42.95007" lon="0.85097">
        <ele>1248.1</ele>
        <time>2019-08-17T09:53:11Z</time>
      </trkpt>
      <trkpt lat="42.95007" lon="0.85095">
        <ele>1248.3</ele>
        <time>2019-08-17T09:53:12Z</time>
      </trkpt>
      <trkpt lat="42.95007" lon="0.85094">
        <ele>1248.4</ele>
        <time>2019-08-17T09:53:13Z</time>
      </trkpt>
      <trkpt lat="42.95008" lon="0.85093">
        <ele>1248.6</ele>
        <time>2019-08-17T09:53:14Z</time>
      </trkpt>
      <trkpt lat="42.95008" lon="0.85091">
        <ele>1248.7</ele>
        <time>2019-08-17T09:53:15Z</time>
      </trkpt>
      <trkpt lat="42.95009" lon="0.8509">
        <ele>1248.9</ele>
        <time>2019-08-17T09:53:16Z</time>
      </trkpt>
      <trkpt lat="42.95009" lon="0.85089">
        <ele>1249</ele>
        <time>2019-08-17T09:53:17Z</time>
      </trkpt>
      <trkpt lat="42.9501" lon="0.85088">
        <ele>1249.2</ele>
        <time>2019-08-17T09:53:18Z</time>
      </trkpt>
      <trkpt lat="42.9501" lon="0.85086">
        <ele>1249.3</ele>
        <time>2019-08-17T09:53:19Z</time>
      </trkpt>
      <trkpt lat="42.9501" lon="0.85085">
        <ele>1249.5</ele>
        <time>2019-08-17T09:53:20Z</time>
      </trkpt>
      <trkpt lat="42.95011" lon="0.85084">
        <ele>1249.6</ele>
        <time>2019-08-17T09:53:21Z</time>
      </trkpt>
      <trkpt lat="42.95011" lon="0.85083">
        <ele>1249.8</ele>
        <time>2019-08-17T09:53:22Z</time>
      </trkpt>
      <trkpt lat="42.95012" lon="0.85081">
        <ele>1250</ele>
        <time>2019-08-17T09:53:23Z</time>
      </trkpt>
      <trkpt lat="42.95012" lon="0.8508">
        <ele>1250.2</ele>
        <time>2019-08-17T09:53:24Z</time>
      </trkpt>
      <trkpt lat="42.95012" lon="0.85078">
        <ele>1250.4</ele>
        <time>2019-08-17T09:53:25Z</time>
      </trkpt>
      <trkpt lat="42.95013" lon="0.85077">
        <ele>1250.6</ele>
        <time>2019-08-17T09:53:26Z</time>
      </trkpt>
      <trkpt lat="42.95013" lon="0.85075">
        <ele>1250.8</ele>
        <time>2019-08-17T09:53:27Z</time>
      </trkpt>
      <trkpt lat="42.95013" lon="0.85074">
        <ele>1251.1</ele>
        <time>2019-08-17T09:53:28Z</time>
      </trkpt>
      <trkpt lat="42.95014" lon="0.85072">
        <ele>1251.3</ele>
        <time>2019-08-17T09:53:29Z</time>
      </trkpt>
      <trkpt lat="42.95014" lon="0.85071">
        <ele>1251.5</ele>
        <time>2019-08-17T09:53:30Z</time>
      </trkpt>
      <trkpt lat="42.95014" lon="0.85069">
        <ele>1251.8</ele>
        <time>2019-08-17T09:53:31Z</time>
      </trkpt>
      <trkpt lat="42.95014" lon="0.85068">
        <ele>1252</ele>
        <time>2019-08-17T09:53:32Z</time>
      </trkpt>
      <trkpt lat="42.95015" lon="0.85066">
        <ele>1252.3</ele>
        <time>2019-08-17T09:53:33Z</time>
      </trkpt>
      <trkpt lat="42.95015" lon="0.85065">
        <ele>1252.5</ele>
        <time>2019-08-17T09:53:34Z</time>
      </trkpt>
      <trkpt lat="42.95015" lon="0.85063">
        <ele>1252.8</ele>
        <time>2019-08-17T09:53:35Z</time>
      </trkpt>
      <trkpt lat="42.95015" lon="0.85061">
        <ele>1253.1</ele>
        <time>2019-08-17T09:53:36Z</time>
      </trkpt>
      <trkpt lat="42.95015" lon="0.8506">
        <ele>1253.3</ele>
        <time>2019-08-17T09:53:37Z</time>
      </trkpt>
      <trkpt lat="42.95015" lon="0.85058">
        <ele>1253.5</ele>
        <time>2019-08-17T09:53:38Z</time>
      </trkpt>
      <trkpt lat="42.95016" lon="0.85057">
        <ele>1253.8</ele>
        <time>2019-08-17T09:53:39Z</time>
      </trkpt>
      <trkpt lat="42.95016" lon="0.85056">
        <ele>1254</ele>
        <time>2019-08-17T09:53:40Z</time>
      </trkpt>
      <trkpt lat="42.95016" lon="0.85054">
        <ele>1254.3</ele>
        <time>2019-08-17T09:53:41Z</time>
      </trkpt>
      <trkpt lat="42.95017" lon="0.85053">
        <ele>1254.6</ele>
        <time>2019-08-17T09:53:42Z</time>
      </trkpt>
      <trkpt lat="42.95017" lon="0.85052">
        <ele>1254.9</ele>
        <time>2019-08-17T09:53:43Z</time>
      </trkpt>
      <trkpt lat="42.95018" lon="0.85051">
        <ele>1255.1</ele>
        <time>2019-08-17T09:53:44Z</time>
      </trkpt>
      <trkpt lat="42.95018" lon="0.8505">
        <ele>1255.4</ele>
        <time>2019-08-17T09:53:45Z</time>
      </trkpt>
      <trkpt lat="42.95019" lon="0.8505">
        <ele>1255.6</ele>
        <time>2019-08-17T09:53:46Z</time>
      </trkpt>
      <trkpt lat="42.9502" lon="0.8505">
        <ele>1255.8</ele>
        <time>2019-08-17T09:53:47Z</time>
      </trkpt>
      <trkpt lat="42.9502" lon="0.8505">
        <ele>1256</ele>
        <time>2019-08-17T09:53:48Z</time>
      </trkpt>
      <trkpt lat="42.95021" lon="0.85051">
        <ele>1256.2</ele>
        <time>2019-08-17T09:53:49Z</time>
      </trkpt>
      <trkpt lat="42.95022" lon="0.85052">
        <ele>1256.5</ele>
        <time>2019-08-17T09:53:50Z</time>
      </trkpt>
      <trkpt lat="42.95022" lon="0.85053">
        <ele>1256.9</ele>
        <time>2019-08-17T09:53:51Z</time>
      </trkpt>
      <trkpt lat="42.95023" lon="0.85054">
        <ele>1257.2</ele>
        <time>2019-08-17T09:53:52Z</time>
      </trkpt>
      <trkpt lat="42.95023" lon="0.85056">
        <ele>1257.5</ele>
        <time>2019-08-17T09:53:53Z</time>
      </trkpt>
      <trkpt lat="42.95023" lon="0.85057">
        <ele>1257.7</ele>
        <time>2019-08-17T09:53:54Z</time>
      </trkpt>
      <trkpt lat="42.95022" lon="0.85058">
        <ele>1258</ele>
        <time>2019-08-17T09:53:55Z</time>
      </trkpt>
      <trkpt lat="42.95022" lon="0.85059">
        <ele>1258.3</ele>
        <time>2019-08-17T09:53:56Z</time>
      </trkpt>
      <trkpt lat="42.95022" lon="0.8506">
        <ele>1258.5</ele>
        <time>2019-08-17T09:53:57Z</time>
      </trkpt>
      <trkpt lat="42.95022" lon="0.85061">
        <ele>1260.1</ele>
        <time>2019-08-17T09:53:58Z</time>
      </trkpt>
      <trkpt lat="42.95022" lon="0.85062">
        <ele>1260.3</ele>
        <time>2019-08-17T09:53:59Z</time>
      </trkpt>
      <trkpt lat="42.95022" lon="0.85064">
        <ele>1260.5</ele>
        <time>2019-08-17T09:54:00Z</time>
      </trkpt>
      <trkpt lat="42.95022" lon="0.85065">
        <ele>1260.7</ele>
        <time>2019-08-17T09:54:01Z</time>
      </trkpt>
      <trkpt lat="42.95023" lon="0.85067">
        <ele>1260.9</ele>
        <time>2019-08-17T09:54:02Z</time>
      </trkpt>
      <trkpt lat="42.95023" lon="0.85068">
        <ele>1261.2</ele>
        <time>2019-08-17T09:54:03Z</time>
      </trkpt>
      <trkpt lat="42.95024" lon="0.85069">
        <ele>1261.4</ele>
        <time>2019-08-17T09:54:04Z</time>
      </trkpt>
      <trkpt lat="42.95024" lon="0.85071">
        <ele>1261.7</ele>
        <time>2019-08-17T09:54:05Z</time>
      </trkpt>
      <trkpt lat="42.95025" lon="0.85072">
        <ele>1261.9</ele>
        <time>2019-08-17T09:54:06Z</time>
      </trkpt>
      <trkpt lat="42.95025" lon="0.85073">
        <ele>1262.1</ele>
        <time>2019-08-17T09:54:07Z</time>
      </trkpt>
      <trkpt lat="42.95025" lon="0.85074">
        <ele>1262.3</ele>
        <time>2019-08-17T09:54:08Z</time>
      </trkpt>
      <trkpt lat="42.95026" lon="0.85075">
        <ele>1262.5</ele>
        <time>2019-08-17T09:54:09Z</time>
      </trkpt>
      <trkpt lat="42.95026" lon="0.85076">
        <ele>1262.7</ele>
        <time>2019-08-17T09:54:10Z</time>
      </trkpt>
      <trkpt lat="42.95026" lon="0.85078">
        <ele>1262.9</ele>
        <time>2019-08-17T09:54:11Z</time>
      </trkpt>
      <trkpt lat="42.95026" lon="0.85079">
        <ele>1263</ele>
        <time>2019-08-17T09:54:12Z</time>
      </trkpt>
      <trkpt lat="42.95026" lon="0.8508">
        <ele>1263</ele>
        <time>2019-08-17T09:54:13Z</time>
      </trkpt>
      <trkpt lat="42.95027" lon="0.85082">
        <ele>1263</ele>
        <time>2019-08-17T09:54:14Z</time>
      </trkpt>
      <trkpt lat="42.95027" lon="0.85083">
        <ele>1263.1</ele>
        <time>2019-08-17T09:54:15Z</time>
      </trkpt>
      <trkpt lat="42.95027" lon="0.85084">
        <ele>1263.1</ele>
        <time>2019-08-17T09:54:16Z</time>
      </trkpt>
      <trkpt lat="42.95027" lon="0.85086">
        <ele>1263.1</ele>
        <time>2019-08-17T09:54:17Z</time>
      </trkpt>
      <trkpt lat="42.95027" lon="0.85088">
        <ele>1263.1</ele>
        <time>2019-08-17T09:54:18Z</time>
      </trkpt>
      <trkpt lat="42.95027" lon="0.85089">
        <ele>1263.2</ele>
        <time>2019-08-17T09:54:19Z</time>
      </trkpt>
      <trkpt lat="42.95028" lon="0.85091">
        <ele>1263.4</ele>
        <time>2019-08-17T09:54:20Z</time>
      </trkpt>
      <trkpt lat="42.95028" lon="0.85092">
        <ele>1263.7</ele>
        <time>2019-08-17T09:54:21Z</time>
      </trkpt>
      <trkpt lat="42.95028" lon="0.85094">
        <ele>1264</ele>
        <time>2019-08-17T09:54:22Z</time>
      </trkpt>
      <trkpt lat="42.95028" lon="0.85095">
        <ele>1264.3</ele>
        <time>2019-08-17T09:54:23Z</time>
      </trkpt>
      <trkpt lat="42.95028" lon="0.85097">
        <ele>1264.6</ele>
        <time>2019-08-17T09:54:24Z</time>
      </trkpt>
      <trkpt lat="42.95029" lon="0.85098">
        <ele>1264.8</ele>
        <time>2019-08-17T09:54:25Z</time>
      </trkpt>
      <trkpt lat="42.95029" lon="0.851">
        <ele>1265.1</ele>
        <time>2019-08-17T09:54:26Z</time>
      </trkpt>
      <trkpt lat="42.95029" lon="0.85101">
        <ele>1265.3</ele>
        <time>2019-08-17T09:54:27Z</time>
      </trkpt>
      <trkpt lat="42.9503" lon="0.85102">
        <ele>1265.6</ele>
        <time>2019-08-17T09:54:28Z</time>
      </trkpt>
      <trkpt lat="42.9503" lon="0.85103">
        <ele>1265.8</ele>
        <time>2019-08-17T09:54:29Z</time>
      </trkpt>
      <trkpt lat="42.9503" lon="0.85105">
        <ele>1266</ele>
        <time>2019-08-17T09:54:30Z</time>
      </trkpt>
      <trkpt lat="42.9503" lon="0.85106">
        <ele>1266.3</ele>
        <time>2019-08-17T09:54:31Z</time>
      </trkpt>
      <trkpt lat="42.9503" lon="0.85108">
        <ele>1266.5</ele>
        <time>2019-08-17T09:54:32Z</time>
      </trkpt>
      <trkpt lat="42.9503" lon="0.85109">
        <ele>1266.8</ele>
        <time>2019-08-17T09:54:33Z</time>
      </trkpt>
      <trkpt lat="42.9503" lon="0.8511">
        <ele>1267</ele>
        <time>2019-08-17T09:54:34Z</time>
      </trkpt>
      <trkpt lat="42.9503" lon="0.85112">
        <ele>1267.2</ele>
        <time>2019-08-17T09:54:35Z</time>
      </trkpt>
      <trkpt lat="42.9503" lon="0.85113">
        <ele>1267.4</ele>
        <time>2019-08-17T09:54:36Z</time>
      </trkpt>
      <trkpt lat="42.9503" lon="0.85114">
        <ele>1267.6</ele>
        <time>2019-08-17T09:54:37Z</time>
      </trkpt>
      <trkpt lat="42.9503" lon="0.85115">
        <ele>1267.8</ele>
        <time>2019-08-17T09:54:38Z</time>
      </trkpt>
      <trkpt lat="42.9503" lon="0.85116">
        <ele>1268</ele>
        <time>2019-08-17T09:54:39Z</time>
      </trkpt>
      <trkpt lat="42.95031" lon="0.85117">
        <ele>1268.2</ele>
        <time>2019-08-17T09:54:40Z</time>
      </trkpt>
      <trkpt lat="42.95031" lon="0.85118">
        <ele>1268.4</ele>
        <time>2019-08-17T09:54:41Z</time>
      </trkpt>
      <trkpt lat="42.95031" lon="0.85119">
        <ele>1268.5</ele>
        <time>2019-08-17T09:54:42Z</time>
      </trkpt>
      <trkpt lat="42.95031" lon="0.8512">
        <ele>1268.6</ele>
        <time>2019-08-17T09:54:43Z</time>
      </trkpt>
      <trkpt lat="42.95031" lon="0.8512">
        <ele>1268.7</ele>
        <time>2019-08-17T09:54:44Z</time>
      </trkpt>
      <trkpt lat="42.95032" lon="0.85121">
        <ele>1268.8</ele>
        <time>2019-08-17T09:54:45Z</time>
      </trkpt>
      <trkpt lat="42.95032" lon="0.85121">
        <ele>1268.9</ele>
        <time>2019-08-17T09:54:46Z</time>
      </trkpt>
      <trkpt lat="42.95032" lon="0.85122">
        <ele>1269</ele>
        <time>2019-08-17T09:54:47Z</time>
      </trkpt>
      <trkpt lat="42.95032" lon="0.85122">
        <ele>1269</ele>
        <time>2019-08-17T09:54:48Z</time>
      </trkpt>
      <trkpt lat="42.95032" lon="0.85123">
        <ele>1269.1</ele>
        <time>2019-08-17T09:54:49Z</time>
      </trkpt>
      <trkpt lat="42.95032" lon="0.85123">
        <ele>1269.3</ele>
        <time>2019-08-17T09:54:50Z</time>
      </trkpt>
      <trkpt lat="42.95032" lon="0.85124">
        <ele>1269.4</ele>
        <time>2019-08-17T09:54:51Z</time>
      </trkpt>
      <trkpt lat="42.95032" lon="0.85126">
        <ele>1269.6</ele>
        <time>2019-08-17T09:54:52Z</time>
      </trkpt>
      <trkpt lat="42.95032" lon="0.85127">
        <ele>1269.7</ele>
        <time>2019-08-17T09:54:53Z</time>
      </trkpt>
      <trkpt lat="42.95032" lon="0.85128">
        <ele>1269.7</ele>
        <time>2019-08-17T09:54:54Z</time>
      </trkpt>
      <trkpt lat="42.95032" lon="0.85129">
        <ele>1269.7</ele>
        <time>2019-08-17T09:54:55Z</time>
      </trkpt>
      <trkpt lat="42.95033" lon="0.85129">
        <ele>1269.8</ele>
        <time>2019-08-17T09:54:56Z</time>
      </trkpt>
      <trkpt lat="42.95033" lon="0.85129">
        <ele>1269.8</ele>
        <time>2019-08-17T09:54:57Z</time>
      </trkpt>
      <trkpt lat="42.95033" lon="0.8513">
        <ele>1269.8</ele>
        <time>2019-08-17T09:54:58Z</time>
      </trkpt>
      <trkpt lat="42.95033" lon="0.8513">
        <ele>1269.8</ele>
        <time>2019-08-17T09:54:59Z</time>
      </trkpt>
      <trkpt lat="42.95033" lon="0.8513">
        <ele>1269.8</ele>
        <time>2019-08-17T09:55:00Z</time>
      </trkpt>
      <trkpt lat="42.95033" lon="0.8513">
        <ele>1269.8</ele>
        <time>2019-08-17T09:55:01Z</time>
      </trkpt>
      <trkpt lat="42.95033" lon="0.8513">
        <ele>1269.8</ele>
        <time>2019-08-17T09:55:02Z</time>
      </trkpt>
      <trkpt lat="42.95033" lon="0.8513">
        <ele>1269.8</ele>
        <time>2019-08-17T09:55:03Z</time>
      </trkpt>
      <trkpt lat="42.95033" lon="0.85131">
        <ele>1269.8</ele>
        <time>2019-08-17T09:55:04Z</time>
      </trkpt>
      <trkpt lat="42.95033" lon="0.85131">
        <ele>1269.8</ele>
        <time>2019-08-17T09:55:05Z</time>
      </trkpt>
      <trkpt lat="42.95033" lon="0.85132">
        <ele>1269.8</ele>
        <time>2019-08-17T09:55:06Z</time>
      </trkpt>
      <trkpt lat="42.95033" lon="0.85133">
        <ele>1269.9</ele>
        <time>2019-08-17T09:55:07Z</time>
      </trkpt>
      <trkpt lat="42.95033" lon="0.85135">
        <ele>1269.9</ele>
        <time>2019-08-17T09:55:08Z</time>
      </trkpt>
      <trkpt lat="42.95033" lon="0.85136">
        <ele>1270</ele>
        <time>2019-08-17T09:55:09Z</time>
      </trkpt>
      <trkpt lat="42.95033" lon="0.85137">
        <ele>1270</ele>
        <time>2019-08-17T09:55:10Z</time>
      </trkpt>
      <trkpt lat="42.95033" lon="0.85138">
        <ele>1270.1</ele>
        <time>2019-08-17T09:55:11Z</time>
      </trkpt>
      <trkpt lat="42.95034" lon="0.8514">
        <ele>1270.1</ele>
        <time>2019-08-17T09:55:12Z</time>
      </trkpt>
      <trkpt lat="42.95034" lon="0.85141">
        <ele>1270.2</ele>
        <time>2019-08-17T09:55:13Z</time>
      </trkpt>
      <trkpt lat="42.95034" lon="0.85143">
        <ele>1270.3</ele>
        <time>2019-08-17T09:55:14Z</time>
      </trkpt>
      <trkpt lat="42.95034" lon="0.85144">
        <ele>1270.4</ele>
        <time>2019-08-17T09:55:15Z</time>
      </trkpt>
      <trkpt lat="42.95035" lon="0.85145">
        <ele>1270.5</ele>
        <time>2019-08-17T09:55:16Z</time>
      </trkpt>
      <trkpt lat="42.95035" lon="0.85146">
        <ele>1270.5</ele>
        <time>2019-08-17T09:55:17Z</time>
      </trkpt>
      <trkpt lat="42.95035" lon="0.85147">
        <ele>1270.6</ele>
        <time>2019-08-17T09:55:18Z</time>
      </trkpt>
      <trkpt lat="42.95035" lon="0.85148">
        <ele>1270.6</ele>
        <time>2019-08-17T09:55:19Z</time>
      </trkpt>
      <trkpt lat="42.95035" lon="0.85149">
        <ele>1270.7</ele>
        <time>2019-08-17T09:55:20Z</time>
      </trkpt>
      <trkpt lat="42.95035" lon="0.8515">
        <ele>1270.7</ele>
        <time>2019-08-17T09:55:21Z</time>
      </trkpt>
      <trkpt lat="42.95035" lon="0.85151">
        <ele>1270.9</ele>
        <time>2019-08-17T09:55:22Z</time>
      </trkpt>
      <trkpt lat="42.95035" lon="0.85152">
        <ele>1271.2</ele>
        <time>2019-08-17T09:55:23Z</time>
      </trkpt>
      <trkpt lat="42.95035" lon="0.85155">
        <ele>1271.7</ele>
        <time>2019-08-17T09:55:24Z</time>
      </trkpt>
      <trkpt lat="42.95035" lon="0.85156">
        <ele>1272</ele>
        <time>2019-08-17T09:55:25Z</time>
      </trkpt>
      <trkpt lat="42.95035" lon="0.85158">
        <ele>1272.2</ele>
        <time>2019-08-17T09:55:26Z</time>
      </trkpt>
      <trkpt lat="42.95035" lon="0.85159">
        <ele>1272.4</ele>
        <time>2019-08-17T09:55:27Z</time>
      </trkpt>
      <trkpt lat="42.95035" lon="0.8516">
        <ele>1272.7</ele>
        <time>2019-08-17T09:55:28Z</time>
      </trkpt>
      <trkpt lat="42.95035" lon="0.85161">
        <ele>1272.9</ele>
        <time>2019-08-17T09:55:29Z</time>
      </trkpt>
      <trkpt lat="42.95035" lon="0.85162">
        <ele>1273.1</ele>
        <time>2019-08-17T09:55:30Z</time>
      </trkpt>
      <trkpt lat="42.95035" lon="0.85164">
        <ele>1273.2</ele>
        <time>2019-08-17T09:55:31Z</time>
      </trkpt>
      <trkpt lat="42.95035" lon="0.85165">
        <ele>1273.3</ele>
        <time>2019-08-17T09:55:32Z</time>
      </trkpt>
      <trkpt lat="42.95035" lon="0.85166">
        <ele>1273.3</ele>
        <time>2019-08-17T09:55:33Z</time>
      </trkpt>
      <trkpt lat="42.95035" lon="0.85167">
        <ele>1273.4</ele>
        <time>2019-08-17T09:55:34Z</time>
      </trkpt>
      <trkpt lat="42.95035" lon="0.85168">
        <ele>1273.5</ele>
        <time>2019-08-17T09:55:35Z</time>
      </trkpt>
      <trkpt lat="42.95035" lon="0.8517">
        <ele>1273.5</ele>
        <time>2019-08-17T09:55:36Z</time>
      </trkpt>
      <trkpt lat="42.95036" lon="0.85171">
        <ele>1273.6</ele>
        <time>2019-08-17T09:55:37Z</time>
      </trkpt>
      <trkpt lat="42.95036" lon="0.85172">
        <ele>1273.7</ele>
        <time>2019-08-17T09:55:38Z</time>
      </trkpt>
      <trkpt lat="42.95036" lon="0.85173">
        <ele>1273.8</ele>
        <time>2019-08-17T09:55:39Z</time>
      </trkpt>
      <trkpt lat="42.95036" lon="0.85174">
        <ele>1273.8</ele>
        <time>2019-08-17T09:55:40Z</time>
      </trkpt>
      <trkpt lat="42.95036" lon="0.85176">
        <ele>1274</ele>
        <time>2019-08-17T09:55:41Z</time>
      </trkpt>
      <trkpt lat="42.95036" lon="0.85177">
        <ele>1274.2</ele>
        <time>2019-08-17T09:55:42Z</time>
      </trkpt>
      <trkpt lat="42.95036" lon="0.85179">
        <ele>1274.6</ele>
        <time>2019-08-17T09:55:43Z</time>
      </trkpt>
      <trkpt lat="42.95036" lon="0.85179">
        <ele>1274.7</ele>
        <time>2019-08-17T09:55:44Z</time>
      </trkpt>
      <trkpt lat="42.95036" lon="0.8518">
        <ele>1274.8</ele>
        <time>2019-08-17T09:55:45Z</time>
      </trkpt>
      <trkpt lat="42.95036" lon="0.85181">
        <ele>1275</ele>
        <time>2019-08-17T09:55:46Z</time>
      </trkpt>
      <trkpt lat="42.95036" lon="0.85181">
        <ele>1275.1</ele>
        <time>2019-08-17T09:55:47Z</time>
      </trkpt>
      <trkpt lat="42.95036" lon="0.85182">
        <ele>1275.2</ele>
        <time>2019-08-17T09:55:48Z</time>
      </trkpt>
      <trkpt lat="42.95036" lon="0.85182">
        <ele>1275.2</ele>
        <time>2019-08-17T09:55:49Z</time>
      </trkpt>
      <trkpt lat="42.95036" lon="0.85182">
        <ele>1275.3</ele>
        <time>2019-08-17T09:55:50Z</time>
      </trkpt>
      <trkpt lat="42.95036" lon="0.85183">
        <ele>1275.4</ele>
        <time>2019-08-17T09:55:51Z</time>
      </trkpt>
      <trkpt lat="42.95036" lon="0.85184">
        <ele>1275.7</ele>
        <time>2019-08-17T09:55:52Z</time>
      </trkpt>
      <trkpt lat="42.95037" lon="0.85186">
        <ele>1276</ele>
        <time>2019-08-17T09:55:53Z</time>
      </trkpt>
      <trkpt lat="42.95037" lon="0.85187">
        <ele>1276.2</ele>
        <time>2019-08-17T09:55:54Z</time>
      </trkpt>
      <trkpt lat="42.95037" lon="0.85189">
        <ele>1276.4</ele>
        <time>2019-08-17T09:55:55Z</time>
      </trkpt>
      <trkpt lat="42.95037" lon="0.8519">
        <ele>1276.5</ele>
        <time>2019-08-17T09:55:56Z</time>
      </trkpt>
      <trkpt lat="42.95037" lon="0.85191">
        <ele>1276.6</ele>
        <time>2019-08-17T09:55:57Z</time>
      </trkpt>
      <trkpt lat="42.95037" lon="0.85192">
        <ele>1276.7</ele>
        <time>2019-08-17T09:55:58Z</time>
      </trkpt>
      <trkpt lat="42.95037" lon="0.85193">
        <ele>1276.7</ele>
        <time>2019-08-17T09:55:59Z</time>
      </trkpt>
      <trkpt lat="42.95037" lon="0.85194">
        <ele>1276.8</ele>
        <time>2019-08-17T09:56:00Z</time>
      </trkpt>
      <trkpt lat="42.95037" lon="0.85195">
        <ele>1276.9</ele>
        <time>2019-08-17T09:56:01Z</time>
      </trkpt>
      <trkpt lat="42.95037" lon="0.85196">
        <ele>1276.9</ele>
        <time>2019-08-17T09:56:02Z</time>
      </trkpt>
      <trkpt lat="42.95037" lon="0.85197">
        <ele>1277</ele>
        <time>2019-08-17T09:56:03Z</time>
      </trkpt>
      <trkpt lat="42.95037" lon="0.85198">
        <ele>1277.1</ele>
        <time>2019-08-17T09:56:04Z</time>
      </trkpt>
      <trkpt lat="42.95037" lon="0.85199">
        <ele>1277.2</ele>
        <time>2019-08-17T09:56:05Z</time>
      </trkpt>
      <trkpt lat="42.95037" lon="0.852">
        <ele>1277.3</ele>
        <time>2019-08-17T09:56:06Z</time>
      </trkpt>
      <trkpt lat="42.95037" lon="0.85201">
        <ele>1277.3</ele>
        <time>2019-08-17T09:56:07Z</time>
      </trkpt>
      <trkpt lat="42.95037" lon="0.85202">
        <ele>1277.3</ele>
        <time>2019-08-17T09:56:08Z</time>
      </trkpt>
      <trkpt lat="42.95037" lon="0.85202">
        <ele>1277.3</ele>
        <time>2019-08-17T09:56:09Z</time>
      </trkpt>
      <trkpt lat="42.95037" lon="0.85202">
        <ele>1277.3</ele>
        <time>2019-08-17T09:56:10Z</time>
      </trkpt>
      <trkpt lat="42.95037" lon="0.85203">
        <ele>1277.3</ele>
        <time>2019-08-17T09:56:11Z</time>
      </trkpt>
      <trkpt lat="42.95036" lon="0.85203">
        <ele>1277.4</ele>
        <time>2019-08-17T09:56:12Z</time>
      </trkpt>
      <trkpt lat="42.95036" lon="0.85203">
        <ele>1277.4</ele>
        <time>2019-08-17T09:56:13Z</time>
      </trkpt>
      <trkpt lat="42.95036" lon="0.85203">
        <ele>1277.4</ele>
        <time>2019-08-17T09:56:14Z</time>
      </trkpt>
      <trkpt lat="42.95036" lon="0.85204">
        <ele>1277.4</ele>
        <time>2019-08-17T09:56:15Z</time>
      </trkpt>
      <trkpt lat="42.95036" lon="0.85204">
        <ele>1277.4</ele>
        <time>2019-08-17T09:56:16Z</time>
      </trkpt>
      <trkpt lat="42.95036" lon="0.85205">
        <ele>1277.4</ele>
        <time>2019-08-17T09:56:17Z</time>
      </trkpt>
      <trkpt lat="42.95036" lon="0.85205">
        <ele>1277.4</ele>
        <time>2019-08-17T09:56:18Z</time>
      </trkpt>
      <trkpt lat="42.95036" lon="0.85205">
        <ele>1277.4</ele>
        <time>2019-08-17T09:56:19Z</time>
      </trkpt>
      <trkpt lat="42.95036" lon="0.85205">
        <ele>1277.4</ele>
        <time>2019-08-17T09:56:20Z</time>
      </trkpt>
      <trkpt lat="42.95036" lon="0.85205">
        <ele>1277.4</ele>
        <time>2019-08-17T09:56:21Z</time>
      </trkpt>
      <trkpt lat="42.95036" lon="0.85205">
        <ele>1277.4</ele>
        <time>2019-08-17T09:56:22Z</time>
      </trkpt>
      <trkpt lat="42.95036" lon="0.85204">
        <ele>1277.5</ele>
        <time>2019-08-17T09:56:23Z</time>
      </trkpt>
      <trkpt lat="42.95037" lon="0.85204">
        <ele>1277.5</ele>
        <time>2019-08-17T09:56:24Z</time>
      </trkpt>
      <trkpt lat="42.95038" lon="0.85203">
        <ele>1277.5</ele>
        <time>2019-08-17T09:56:25Z</time>
      </trkpt>
      <trkpt lat="42.95039" lon="0.85202">
        <ele>1277.6</ele>
        <time>2019-08-17T09:56:26Z</time>
      </trkpt>
      <trkpt lat="42.9504" lon="0.85201">
        <ele>1277.8</ele>
        <time>2019-08-17T09:56:27Z</time>
      </trkpt>
      <trkpt lat="42.9504" lon="0.85201">
        <ele>1278</ele>
        <time>2019-08-17T09:56:28Z</time>
      </trkpt>
      <trkpt lat="42.95041" lon="0.852">
        <ele>1278.2</ele>
        <time>2019-08-17T09:56:29Z</time>
      </trkpt>
      <trkpt lat="42.95041" lon="0.852">
        <ele>1278.3</ele>
        <time>2019-08-17T09:56:30Z</time>
      </trkpt>
      <trkpt lat="42.95042" lon="0.85199">
        <ele>1278.5</ele>
        <time>2019-08-17T09:56:31Z</time>
      </trkpt>
      <trkpt lat="42.95042" lon="0.85199">
        <ele>1278.6</ele>
        <time>2019-08-17T09:56:32Z</time>
      </trkpt>
      <trkpt lat="42.95042" lon="0.85199">
        <ele>1278.8</ele>
        <time>2019-08-17T09:56:33Z</time>
      </trkpt>
      <trkpt lat="42.95043" lon="0.85198">
        <ele>1278.9</ele>
        <time>2019-08-17T09:56:34Z</time>
      </trkpt>
      <trkpt lat="42.95043" lon="0.85198">
        <ele>1279</ele>
        <time>2019-08-17T09:56:35Z</time>
      </trkpt>
      <trkpt lat="42.95043" lon="0.85198">
        <ele>1279.1</ele>
        <time>2019-08-17T09:56:36Z</time>
      </trkpt>
      <trkpt lat="42.95044" lon="0.85197">
        <ele>1279.2</ele>
        <time>2019-08-17T09:56:37Z</time>
      </trkpt>
      <trkpt lat="42.95044" lon="0.85197">
        <ele>1279.3</ele>
        <time>2019-08-17T09:56:38Z</time>
      </trkpt>
      <trkpt lat="42.95044" lon="0.85197">
        <ele>1279.3</ele>
        <time>2019-08-17T09:56:39Z</time>
      </trkpt>
      <trkpt lat="42.95044" lon="0.85197">
        <ele>1279.4</ele>
        <time>2019-08-17T09:56:40Z</time>
      </trkpt>
      <trkpt lat="42.95045" lon="0.85196">
        <ele>1279.6</ele>
        <time>2019-08-17T09:56:41Z</time>
      </trkpt>
      <trkpt lat="42.95046" lon="0.85194">
        <ele>1280</ele>
        <time>2019-08-17T09:56:42Z</time>
      </trkpt>
      <trkpt lat="42.95047" lon="0.85193">
        <ele>1280.1</ele>
        <time>2019-08-17T09:56:43Z</time>
      </trkpt>
      <trkpt lat="42.95047" lon="0.85192">
        <ele>1280.2</ele>
        <time>2019-08-17T09:56:44Z</time>
      </trkpt>
      <trkpt lat="42.95048" lon="0.85192">
        <ele>1280.2</ele>
        <time>2019-08-17T09:56:45Z</time>
      </trkpt>
      <trkpt lat="42.95048" lon="0.85192">
        <ele>1280.2</ele>
        <time>2019-08-17T09:56:46Z</time>
      </trkpt>
      <trkpt lat="42.95048" lon="0.85191">
        <ele>1280.3</ele>
        <time>2019-08-17T09:56:47Z</time>
      </trkpt>
      <trkpt lat="42.95049" lon="0.8519">
        <ele>1280.4</ele>
        <time>2019-08-17T09:56:48Z</time>
      </trkpt>
      <trkpt lat="42.95049" lon="0.85189">
        <ele>1280.5</ele>
        <time>2019-08-17T09:56:49Z</time>
      </trkpt>
      <trkpt lat="42.9505" lon="0.85187">
        <ele>1280.6</ele>
        <time>2019-08-17T09:56:50Z</time>
      </trkpt>
      <trkpt lat="42.9505" lon="0.85186">
        <ele>1280.7</ele>
        <time>2019-08-17T09:56:51Z</time>
      </trkpt>
      <trkpt lat="42.95051" lon="0.85184">
        <ele>1281</ele>
        <time>2019-08-17T09:56:52Z</time>
      </trkpt>
      <trkpt lat="42.95051" lon="0.85183">
        <ele>1281.3</ele>
        <time>2019-08-17T09:56:53Z</time>
      </trkpt>
      <trkpt lat="42.95052" lon="0.85182">
        <ele>1281.5</ele>
        <time>2019-08-17T09:56:54Z</time>
      </trkpt>
      <trkpt lat="42.95052" lon="0.8518">
        <ele>1281.8</ele>
        <time>2019-08-17T09:56:55Z</time>
      </trkpt>
      <trkpt lat="42.95052" lon="0.85179">
        <ele>1282.1</ele>
        <time>2019-08-17T09:56:56Z</time>
      </trkpt>
      <trkpt lat="42.95053" lon="0.85178">
        <ele>1282.3</ele>
        <time>2019-08-17T09:56:57Z</time>
      </trkpt>
      <trkpt lat="42.95053" lon="0.85177">
        <ele>1282.6</ele>
        <time>2019-08-17T09:56:58Z</time>
      </trkpt>
      <trkpt lat="42.95054" lon="0.85175">
        <ele>1282.8</ele>
        <time>2019-08-17T09:56:59Z</time>
      </trkpt>
      <trkpt lat="42.95054" lon="0.85174">
        <ele>1283.1</ele>
        <time>2019-08-17T09:57:00Z</time>
      </trkpt>
      <trkpt lat="42.95054" lon="0.85173">
        <ele>1283.2</ele>
        <time>2019-08-17T09:57:01Z</time>
      </trkpt>
      <trkpt lat="42.95055" lon="0.85172">
        <ele>1283.3</ele>
        <time>2019-08-17T09:57:02Z</time>
      </trkpt>
      <trkpt lat="42.95055" lon="0.8517">
        <ele>1283.3</ele>
        <time>2019-08-17T09:57:03Z</time>
      </trkpt>
      <trkpt lat="42.95055" lon="0.85169">
        <ele>1283.4</ele>
        <time>2019-08-17T09:57:04Z</time>
      </trkpt>
      <trkpt lat="42.95056" lon="0.85168">
        <ele>1283.5</ele>
        <time>2019-08-17T09:57:05Z</time>
      </trkpt>
      <trkpt lat="42.95056" lon="0.85167">
        <ele>1283.6</ele>
        <time>2019-08-17T09:57:06Z</time>
      </trkpt>
      <trkpt lat="42.95056" lon="0.85165">
        <ele>1283.7</ele>
        <time>2019-08-17T09:57:07Z</time>
      </trkpt>
      <trkpt lat="42.95057" lon="0.85164">
        <ele>1283.8</ele>
        <time>2019-08-17T09:57:08Z</time>
      </trkpt>
      <trkpt lat="42.95057" lon="0.85163">
        <ele>1283.9</ele>
        <time>2019-08-17T09:57:09Z</time>
      </trkpt>
      <trkpt lat="42.95058" lon="0.85162">
        <ele>1283.9</ele>
        <time>2019-08-17T09:57:10Z</time>
      </trkpt>
      <trkpt lat="42.95058" lon="0.8516">
        <ele>1284</ele>
        <time>2019-08-17T09:57:11Z</time>
      </trkpt>
      <trkpt lat="42.95058" lon="0.85159">
        <ele>1284.1</ele>
        <time>2019-08-17T09:57:12Z</time>
      </trkpt>
      <trkpt lat="42.95059" lon="0.85157">
        <ele>1284.3</ele>
        <time>2019-08-17T09:57:13Z</time>
      </trkpt>
      <trkpt lat="42.9506" lon="0.85156">
        <ele>1284.4</ele>
        <time>2019-08-17T09:57:14Z</time>
      </trkpt>
      <trkpt lat="42.9506" lon="0.85156">
        <ele>1284.4</ele>
        <time>2019-08-17T09:57:15Z</time>
      </trkpt>
      <trkpt lat="42.95061" lon="0.85155">
        <ele>1284.5</ele>
        <time>2019-08-17T09:57:16Z</time>
      </trkpt>
      <trkpt lat="42.95061" lon="0.85154">
        <ele>1284.6</ele>
        <time>2019-08-17T09:57:17Z</time>
      </trkpt>
      <trkpt lat="42.95061" lon="0.85153">
        <ele>1284.6</ele>
        <time>2019-08-17T09:57:18Z</time>
      </trkpt>
      <trkpt lat="42.95062" lon="0.85152">
        <ele>1284.8</ele>
        <time>2019-08-17T09:57:19Z</time>
      </trkpt>
      <trkpt lat="42.95062" lon="0.85152">
        <ele>1284.9</ele>
        <time>2019-08-17T09:57:20Z</time>
      </trkpt>
      <trkpt lat="42.95063" lon="0.85151">
        <ele>1285.1</ele>
        <time>2019-08-17T09:57:21Z</time>
      </trkpt>
      <trkpt lat="42.95063" lon="0.8515">
        <ele>1285.3</ele>
        <time>2019-08-17T09:57:22Z</time>
      </trkpt>
      <trkpt lat="42.95063" lon="0.85149">
        <ele>1285.5</ele>
        <time>2019-08-17T09:57:23Z</time>
      </trkpt>
      <trkpt lat="42.95064" lon="0.85148">
        <ele>1285.7</ele>
        <time>2019-08-17T09:57:24Z</time>
      </trkpt>
      <trkpt lat="42.95064" lon="0.85148">
        <ele>1285.9</ele>
        <time>2019-08-17T09:57:25Z</time>
      </trkpt>
      <trkpt lat="42.95065" lon="0.85147">
        <ele>1286.1</ele>
        <time>2019-08-17T09:57:26Z</time>
      </trkpt>
      <trkpt lat="42.95065" lon="0.85146">
        <ele>1286.3</ele>
        <time>2019-08-17T09:57:27Z</time>
      </trkpt>
      <trkpt lat="42.95065" lon="0.85145">
        <ele>1286.5</ele>
        <time>2019-08-17T09:57:28Z</time>
      </trkpt>
      <trkpt lat="42.95066" lon="0.85144">
        <ele>1286.7</ele>
        <time>2019-08-17T09:57:29Z</time>
      </trkpt>
      <trkpt lat="42.95066" lon="0.85144">
        <ele>1286.9</ele>
        <time>2019-08-17T09:57:30Z</time>
      </trkpt>
      <trkpt lat="42.95067" lon="0.85143">
        <ele>1287.1</ele>
        <time>2019-08-17T09:57:31Z</time>
      </trkpt>
      <trkpt lat="42.95067" lon="0.85142">
        <ele>1287.2</ele>
        <time>2019-08-17T09:57:32Z</time>
      </trkpt>
      <trkpt lat="42.95068" lon="0.85141">
        <ele>1287.3</ele>
        <time>2019-08-17T09:57:33Z</time>
      </trkpt>
      <trkpt lat="42.95068" lon="0.8514">
        <ele>1287.4</ele>
        <time>2019-08-17T09:57:34Z</time>
      </trkpt>
      <trkpt lat="42.95068" lon="0.8514">
        <ele>1287.5</ele>
        <time>2019-08-17T09:57:35Z</time>
      </trkpt>
      <trkpt lat="42.95069" lon="0.85139">
        <ele>1287.7</ele>
        <time>2019-08-17T09:57:36Z</time>
      </trkpt>
      <trkpt lat="42.95069" lon="0.85138">
        <ele>1287.8</ele>
        <time>2019-08-17T09:57:37Z</time>
      </trkpt>
      <trkpt lat="42.9507" lon="0.85137">
        <ele>1287.9</ele>
        <time>2019-08-17T09:57:38Z</time>
      </trkpt>
      <trkpt lat="42.9507" lon="0.85136">
        <ele>1288</ele>
        <time>2019-08-17T09:57:39Z</time>
      </trkpt>
      <trkpt lat="42.9507" lon="0.85136">
        <ele>1288.1</ele>
        <time>2019-08-17T09:57:40Z</time>
      </trkpt>
      <trkpt lat="42.95071" lon="0.85135">
        <ele>1288.2</ele>
        <time>2019-08-17T09:57:41Z</time>
      </trkpt>
      <trkpt lat="42.95071" lon="0.85134">
        <ele>1288.3</ele>
        <time>2019-08-17T09:57:42Z</time>
      </trkpt>
      <trkpt lat="42.95072" lon="0.85133">
        <ele>1288.5</ele>
        <time>2019-08-17T09:57:43Z</time>
      </trkpt>
      <trkpt lat="42.95072" lon="0.85132">
        <ele>1288.6</ele>
        <time>2019-08-17T09:57:44Z</time>
      </trkpt>
      <trkpt lat="42.95073" lon="0.85132">
        <ele>1288.7</ele>
        <time>2019-08-17T09:57:45Z</time>
      </trkpt>
      <trkpt lat="42.95073" lon="0.85131">
        <ele>1288.9</ele>
        <time>2019-08-17T09:57:46Z</time>
      </trkpt>
      <trkpt lat="42.95073" lon="0.8513">
        <ele>1289</ele>
        <time>2019-08-17T09:57:47Z</time>
      </trkpt>
      <trkpt lat="42.95074" lon="0.85129">
        <ele>1289.1</ele>
        <time>2019-08-17T09:57:48Z</time>
      </trkpt>
      <trkpt lat="42.95074" lon="0.85128">
        <ele>1289.3</ele>
        <time>2019-08-17T09:57:49Z</time>
      </trkpt>
      <trkpt lat="42.95075" lon="0.85128">
        <ele>1289.4</ele>
        <time>2019-08-17T09:57:50Z</time>
      </trkpt>
      <trkpt lat="42.95075" lon="0.85127">
        <ele>1289.5</ele>
        <time>2019-08-17T09:57:51Z</time>
      </trkpt>
      <trkpt lat="42.95075" lon="0.85126">
        <ele>1289.7</ele>
        <time>2019-08-17T09:57:52Z</time>
      </trkpt>
      <trkpt lat="42.95076" lon="0.85125">
        <ele>1289.8</ele>
        <time>2019-08-17T09:57:53Z</time>
      </trkpt>
      <trkpt lat="42.95076" lon="0.85124">
        <ele>1289.9</ele>
        <time>2019-08-17T09:57:54Z</time>
      </trkpt>
      <trkpt lat="42.95077" lon="0.85124">
        <ele>1290.1</ele>
        <time>2019-08-17T09:57:55Z</time>
      </trkpt>
      <trkpt lat="42.95077" lon="0.85123">
        <ele>1290.2</ele>
        <time>2019-08-17T09:57:56Z</time>
      </trkpt>
      <trkpt lat="42.95078" lon="0.85122">
        <ele>1290.4</ele>
        <time>2019-08-17T09:57:57Z</time>
      </trkpt>
      <trkpt lat="42.95078" lon="0.85121">
        <ele>1290.5</ele>
        <time>2019-08-17T09:57:58Z</time>
      </trkpt>
      <trkpt lat="42.95078" lon="0.8512">
        <ele>1290.7</ele>
        <time>2019-08-17T09:57:59Z</time>
      </trkpt>
      <trkpt lat="42.95079" lon="0.8512">
        <ele>1290.8</ele>
        <time>2019-08-17T09:58:00Z</time>
      </trkpt>
      <trkpt lat="42.95079" lon="0.85119">
        <ele>1291</ele>
        <time>2019-08-17T09:58:01Z</time>
      </trkpt>
      <trkpt lat="42.9508" lon="0.85118">
        <ele>1291.1</ele>
        <time>2019-08-17T09:58:02Z</time>
      </trkpt>
      <trkpt lat="42.9508" lon="0.85117">
        <ele>1291.3</ele>
        <time>2019-08-17T09:58:03Z</time>
      </trkpt>
      <trkpt lat="42.9508" lon="0.85116">
        <ele>1291.4</ele>
        <time>2019-08-17T09:58:04Z</time>
      </trkpt>
      <trkpt lat="42.95081" lon="0.85116">
        <ele>1291.6</ele>
        <time>2019-08-17T09:58:05Z</time>
      </trkpt>
      <trkpt lat="42.95081" lon="0.85115">
        <ele>1291.7</ele>
        <time>2019-08-17T09:58:06Z</time>
      </trkpt>
      <trkpt lat="42.95082" lon="0.85114">
        <ele>1291.9</ele>
        <time>2019-08-17T09:58:07Z</time>
      </trkpt>
      <trkpt lat="42.95082" lon="0.85113">
        <ele>1292</ele>
        <time>2019-08-17T09:58:08Z</time>
      </trkpt>
      <trkpt lat="42.95083" lon="0.85112">
        <ele>1292.2</ele>
        <time>2019-08-17T09:58:09Z</time>
      </trkpt>
      <trkpt lat="42.95083" lon="0.85112">
        <ele>1292.4</ele>
        <time>2019-08-17T09:58:10Z</time>
      </trkpt>
      <trkpt lat="42.95083" lon="0.85111">
        <ele>1292.6</ele>
        <time>2019-08-17T09:58:11Z</time>
      </trkpt>
      <trkpt lat="42.95084" lon="0.8511">
        <ele>1292.8</ele>
        <time>2019-08-17T09:58:12Z</time>
      </trkpt>
      <trkpt lat="42.95084" lon="0.85109">
        <ele>1292.9</ele>
        <time>2019-08-17T09:58:13Z</time>
      </trkpt>
      <trkpt lat="42.95085" lon="0.85108">
        <ele>1293.1</ele>
        <time>2019-08-17T09:58:14Z</time>
      </trkpt>
      <trkpt lat="42.95085" lon="0.85108">
        <ele>1293.3</ele>
        <time>2019-08-17T09:58:15Z</time>
      </trkpt>
      <trkpt lat="42.95085" lon="0.85107">
        <ele>1293.5</ele>
        <time>2019-08-17T09:58:16Z</time>
      </trkpt>
      <trkpt lat="42.95086" lon="0.85106">
        <ele>1293.7</ele>
        <time>2019-08-17T09:58:17Z</time>
      </trkpt>
      <trkpt lat="42.95086" lon="0.85105">
        <ele>1293.9</ele>
        <time>2019-08-17T09:58:18Z</time>
      </trkpt>
      <trkpt lat="42.95087" lon="0.85104">
        <ele>1294.1</ele>
        <time>2019-08-17T09:58:19Z</time>
      </trkpt>
      <trkpt lat="42.95087" lon="0.85104">
        <ele>1294.2</ele>
        <time>2019-08-17T09:58:20Z</time>
      </trkpt>
      <trkpt lat="42.95087" lon="0.85103">
        <ele>1294.4</ele>
        <time>2019-08-17T09:58:21Z</time>
      </trkpt>
      <trkpt lat="42.95088" lon="0.85102">
        <ele>1294.5</ele>
        <time>2019-08-17T09:58:22Z</time>
      </trkpt>
      <trkpt lat="42.95088" lon="0.85101">
        <ele>1294.5</ele>
        <time>2019-08-17T09:58:23Z</time>
      </trkpt>
      <trkpt lat="42.95089" lon="0.851">
        <ele>1294.6</ele>
        <time>2019-08-17T09:58:24Z</time>
      </trkpt>
      <trkpt lat="42.95089" lon="0.851">
        <ele>1294.6</ele>
        <time>2019-08-17T09:58:25Z</time>
      </trkpt>
      <trkpt lat="42.95089" lon="0.85099">
        <ele>1294.7</ele>
        <time>2019-08-17T09:58:26Z</time>
      </trkpt>
      <trkpt lat="42.9509" lon="0.85098">
        <ele>1294.7</ele>
        <time>2019-08-17T09:58:27Z</time>
      </trkpt>
      <trkpt lat="42.9509" lon="0.85098">
        <ele>1294.8</ele>
        <time>2019-08-17T09:58:28Z</time>
      </trkpt>
      <trkpt lat="42.9509" lon="0.85097">
        <ele>1294.8</ele>
        <time>2019-08-17T09:58:29Z</time>
      </trkpt>
      <trkpt lat="42.9509" lon="0.85096">
        <ele>1294.9</ele>
        <time>2019-08-17T09:58:30Z</time>
      </trkpt>
      <trkpt lat="42.9509" lon="0.85095">
        <ele>1294.9</ele>
        <time>2019-08-17T09:58:31Z</time>
      </trkpt>
      <trkpt lat="42.9509" lon="0.85095">
        <ele>1295</ele>
        <time>2019-08-17T09:58:32Z</time>
      </trkpt>
      <trkpt lat="42.9509" lon="0.85094">
        <ele>1295</ele>
        <time>2019-08-17T09:58:33Z</time>
      </trkpt>
      <trkpt lat="42.9509" lon="0.85093">
        <ele>1295.1</ele>
        <time>2019-08-17T09:58:34Z</time>
      </trkpt>
      <trkpt lat="42.9509" lon="0.85092">
        <ele>1295.2</ele>
        <time>2019-08-17T09:58:35Z</time>
      </trkpt>
      <trkpt lat="42.95089" lon="0.85091">
        <ele>1295.4</ele>
        <time>2019-08-17T09:58:36Z</time>
      </trkpt>
      <trkpt lat="42.95089" lon="0.8509">
        <ele>1295.6</ele>
        <time>2019-08-17T09:58:37Z</time>
      </trkpt>
      <trkpt lat="42.95089" lon="0.85089">
        <ele>1295.8</ele>
        <time>2019-08-17T09:58:38Z</time>
      </trkpt>
      <trkpt lat="42.95089" lon="0.85087">
        <ele>1296</ele>
        <time>2019-08-17T09:58:39Z</time>
      </trkpt>
      <trkpt lat="42.95089" lon="0.85086">
        <ele>1296.2</ele>
        <time>2019-08-17T09:58:40Z</time>
      </trkpt>
      <trkpt lat="42.95088" lon="0.85085">
        <ele>1296.4</ele>
        <time>2019-08-17T09:58:41Z</time>
      </trkpt>
      <trkpt lat="42.95088" lon="0.85084">
        <ele>1296.7</ele>
        <time>2019-08-17T09:58:42Z</time>
      </trkpt>
      <trkpt lat="42.95088" lon="0.85083">
        <ele>1296.9</ele>
        <time>2019-08-17T09:58:43Z</time>
      </trkpt>
      <trkpt lat="42.95088" lon="0.85082">
        <ele>1297.1</ele>
        <time>2019-08-17T09:58:44Z</time>
      </trkpt>
      <trkpt lat="42.95089" lon="0.8508">
        <ele>1297.3</ele>
        <time>2019-08-17T09:58:45Z</time>
      </trkpt>
      <trkpt lat="42.95089" lon="0.85079">
        <ele>1297.4</ele>
        <time>2019-08-17T09:58:46Z</time>
      </trkpt>
      <trkpt lat="42.95089" lon="0.85078">
        <ele>1297.5</ele>
        <time>2019-08-17T09:58:47Z</time>
      </trkpt>
      <trkpt lat="42.95089" lon="0.85077">
        <ele>1297.5</ele>
        <time>2019-08-17T09:58:48Z</time>
      </trkpt>
      <trkpt lat="42.95089" lon="0.85077">
        <ele>1297.5</ele>
        <time>2019-08-17T09:58:49Z</time>
      </trkpt>
      <trkpt lat="42.95089" lon="0.85076">
        <ele>1297.6</ele>
        <time>2019-08-17T09:58:50Z</time>
      </trkpt>
      <trkpt lat="42.95089" lon="0.85075">
        <ele>1297.6</ele>
        <time>2019-08-17T09:58:51Z</time>
      </trkpt>
      <trkpt lat="42.9509" lon="0.85075">
        <ele>1297.6</ele>
        <time>2019-08-17T09:58:52Z</time>
      </trkpt>
      <trkpt lat="42.9509" lon="0.85074">
        <ele>1297.6</ele>
        <time>2019-08-17T09:58:53Z</time>
      </trkpt>
      <trkpt lat="42.9509" lon="0.85074">
        <ele>1297.7</ele>
        <time>2019-08-17T09:58:54Z</time>
      </trkpt>
      <trkpt lat="42.9509" lon="0.85072">
        <ele>1297.8</ele>
        <time>2019-08-17T09:58:55Z</time>
      </trkpt>
      <trkpt lat="42.9509" lon="0.85071">
        <ele>1297.8</ele>
        <time>2019-08-17T09:58:56Z</time>
      </trkpt>
      <trkpt lat="42.9509" lon="0.8507">
        <ele>1297.8</ele>
        <time>2019-08-17T09:58:57Z</time>
      </trkpt>
      <trkpt lat="42.9509" lon="0.8507">
        <ele>1297.8</ele>
        <time>2019-08-17T09:58:58Z</time>
      </trkpt>
      <trkpt lat="42.9509" lon="0.8507">
        <ele>1297.8</ele>
        <time>2019-08-17T09:58:59Z</time>
      </trkpt>
      <trkpt lat="42.9509" lon="0.8507">
        <ele>1297.8</ele>
        <time>2019-08-17T09:59:00Z</time>
      </trkpt>
      <trkpt lat="42.9509" lon="0.8507">
        <ele>1297.8</ele>
        <time>2019-08-17T09:59:01Z</time>
      </trkpt>
      <trkpt lat="42.9509" lon="0.8507">
        <ele>1297.8</ele>
        <time>2019-08-17T09:59:02Z</time>
      </trkpt>
      <trkpt lat="42.9509" lon="0.8507">
        <ele>1297.8</ele>
        <time>2019-08-17T09:59:03Z</time>
      </trkpt>
      <trkpt lat="42.9509" lon="0.8507">
        <ele>1297.9</ele>
        <time>2019-08-17T09:59:04Z</time>
      </trkpt>
      <trkpt lat="42.9509" lon="0.8507">
        <ele>1297.9</ele>
        <time>2019-08-17T09:59:05Z</time>
      </trkpt>
      <trkpt lat="42.9509" lon="0.8507">
        <ele>1297.9</ele>
        <time>2019-08-17T09:59:06Z</time>
      </trkpt>
      <trkpt lat="42.9509" lon="0.85069">
        <ele>1297.9</ele>
        <time>2019-08-17T09:59:07Z</time>
      </trkpt>
      <trkpt lat="42.9509" lon="0.85067">
        <ele>1298</ele>
        <time>2019-08-17T09:59:08Z</time>
      </trkpt>
      <trkpt lat="42.9509" lon="0.85066">
        <ele>1298.3</ele>
        <time>2019-08-17T09:59:09Z</time>
      </trkpt>
      <trkpt lat="42.9509" lon="0.85064">
        <ele>1298.5</ele>
        <time>2019-08-17T09:59:10Z</time>
      </trkpt>
      <trkpt lat="42.9509" lon="0.85063">
        <ele>1298.7</ele>
        <time>2019-08-17T09:59:11Z</time>
      </trkpt>
      <trkpt lat="42.9509" lon="0.85062">
        <ele>1298.9</ele>
        <time>2019-08-17T09:59:12Z</time>
      </trkpt>
      <trkpt lat="42.9509" lon="0.85061">
        <ele>1299.1</ele>
        <time>2019-08-17T09:59:13Z</time>
      </trkpt>
      <trkpt lat="42.9509" lon="0.8506">
        <ele>1299.3</ele>
        <time>2019-08-17T09:59:14Z</time>
      </trkpt>
      <trkpt lat="42.9509" lon="0.85058">
        <ele>1299.6</ele>
        <time>2019-08-17T09:59:15Z</time>
      </trkpt>
      <trkpt lat="42.9509" lon="0.85057">
        <ele>1299.8</ele>
        <time>2019-08-17T09:59:16Z</time>
      </trkpt>
      <trkpt lat="42.95091" lon="0.85055">
        <ele>1300.1</ele>
        <time>2019-08-17T09:59:17Z</time>
      </trkpt>
      <trkpt lat="42.95091" lon="0.85054">
        <ele>1300.3</ele>
        <time>2019-08-17T09:59:18Z</time>
      </trkpt>
      <trkpt lat="42.95091" lon="0.85052">
        <ele>1300.6</ele>
        <time>2019-08-17T09:59:19Z</time>
      </trkpt>
      <trkpt lat="42.95092" lon="0.85051">
        <ele>1300.7</ele>
        <time>2019-08-17T09:59:20Z</time>
      </trkpt>
      <trkpt lat="42.95092" lon="0.8505">
        <ele>1300.9</ele>
        <time>2019-08-17T09:59:21Z</time>
      </trkpt>
      <trkpt lat="42.95092" lon="0.85049">
        <ele>1301</ele>
        <time>2019-08-17T09:59:22Z</time>
      </trkpt>
      <trkpt lat="42.95092" lon="0.85049">
        <ele>1301.1</ele>
        <time>2019-08-17T09:59:23Z</time>
      </trkpt>
      <trkpt lat="42.95093" lon="0.85047">
        <ele>1301.4</ele>
        <time>2019-08-17T09:59:24Z</time>
      </trkpt>
      <trkpt lat="42.95093" lon="0.85047">
        <ele>1301.5</ele>
        <time>2019-08-17T09:59:25Z</time>
      </trkpt>
      <trkpt lat="42.95093" lon="0.85046">
        <ele>1301.5</ele>
        <time>2019-08-17T09:59:26Z</time>
      </trkpt>
      <trkpt lat="42.95093" lon="0.85045">
        <ele>1301.6</ele>
        <time>2019-08-17T09:59:27Z</time>
      </trkpt>
      <trkpt lat="42.95093" lon="0.85045">
        <ele>1301.7</ele>
        <time>2019-08-17T09:59:28Z</time>
      </trkpt>
      <trkpt lat="42.95094" lon="0.85044">
        <ele>1301.8</ele>
        <time>2019-08-17T09:59:29Z</time>
      </trkpt>
      <trkpt lat="42.95094" lon="0.85043">
        <ele>1301.8</ele>
        <time>2019-08-17T09:59:30Z</time>
      </trkpt>
      <trkpt lat="42.95094" lon="0.85042">
        <ele>1301.8</ele>
        <time>2019-08-17T09:59:31Z</time>
      </trkpt>
      <trkpt lat="42.95095" lon="0.85041">
        <ele>1301.9</ele>
        <time>2019-08-17T09:59:32Z</time>
      </trkpt>
      <trkpt lat="42.95095" lon="0.8504">
        <ele>1301.9</ele>
        <time>2019-08-17T09:59:33Z</time>
      </trkpt>
      <trkpt lat="42.95095" lon="0.85037">
        <ele>1302</ele>
        <time>2019-08-17T09:59:34Z</time>
      </trkpt>
      <trkpt lat="42.95095" lon="0.85036">
        <ele>1302</ele>
        <time>2019-08-17T09:59:35Z</time>
      </trkpt>
      <trkpt lat="42.95096" lon="0.85035">
        <ele>1302.1</ele>
        <time>2019-08-17T09:59:36Z</time>
      </trkpt>
      <trkpt lat="42.95096" lon="0.85033">
        <ele>1302.1</ele>
        <time>2019-08-17T09:59:37Z</time>
      </trkpt>
      <trkpt lat="42.95096" lon="0.85032">
        <ele>1302.2</ele>
        <time>2019-08-17T09:59:38Z</time>
      </trkpt>
      <trkpt lat="42.95096" lon="0.85031">
        <ele>1302.3</ele>
        <time>2019-08-17T09:59:39Z</time>
      </trkpt>
      <trkpt lat="42.95096" lon="0.85029">
        <ele>1302.4</ele>
        <time>2019-08-17T09:59:40Z</time>
      </trkpt>
      <trkpt lat="42.95096" lon="0.85028">
        <ele>1302.5</ele>
        <time>2019-08-17T09:59:41Z</time>
      </trkpt>
      <trkpt lat="42.95096" lon="0.85027">
        <ele>1302.6</ele>
        <time>2019-08-17T09:59:42Z</time>
      </trkpt>
      <trkpt lat="42.95096" lon="0.85025">
        <ele>1302.7</ele>
        <time>2019-08-17T09:59:43Z</time>
      </trkpt>
      <trkpt lat="42.95096" lon="0.85024">
        <ele>1302.8</ele>
        <time>2019-08-17T09:59:44Z</time>
      </trkpt>
      <trkpt lat="42.95097" lon="0.85023">
        <ele>1302.9</ele>
        <time>2019-08-17T09:59:45Z</time>
      </trkpt>
      <trkpt lat="42.95097" lon="0.85021">
        <ele>1303</ele>
        <time>2019-08-17T09:59:46Z</time>
      </trkpt>
      <trkpt lat="42.95097" lon="0.8502">
        <ele>1303</ele>
        <time>2019-08-17T09:59:47Z</time>
      </trkpt>
      <trkpt lat="42.95097" lon="0.85019">
        <ele>1303</ele>
        <time>2019-08-17T09:59:48Z</time>
      </trkpt>
      <trkpt lat="42.95097" lon="0.85017">
        <ele>1303.1</ele>
        <time>2019-08-17T09:59:49Z</time>
      </trkpt>
      <trkpt lat="42.95097" lon="0.85016">
        <ele>1303.1</ele>
        <time>2019-08-17T09:59:50Z</time>
      </trkpt>
      <trkpt lat="42.95097" lon="0.85015">
        <ele>1303.2</ele>
        <time>2019-08-17T09:59:51Z</time>
      </trkpt>
      <trkpt lat="42.95097" lon="0.85013">
        <ele>1303.2</ele>
        <time>2019-08-17T09:59:52Z</time>
      </trkpt>
      <trkpt lat="42.95097" lon="0.85012">
        <ele>1303.3</ele>
        <time>2019-08-17T09:59:53Z</time>
      </trkpt>
      <trkpt lat="42.95097" lon="0.85009">
        <ele>1303.3</ele>
        <time>2019-08-17T09:59:54Z</time>
      </trkpt>
      <trkpt lat="42.95098" lon="0.85008">
        <ele>1303.4</ele>
        <time>2019-08-17T09:59:55Z</time>
      </trkpt>
      <trkpt lat="42.95098" lon="0.85007">
        <ele>1303.5</ele>
        <time>2019-08-17T09:59:56Z</time>
      </trkpt>
      <trkpt lat="42.95098" lon="0.85005">
        <ele>1303.7</ele>
        <time>2019-08-17T09:59:57Z</time>
      </trkpt>
      <trkpt lat="42.95098" lon="0.85004">
        <ele>1303.9</ele>
        <time>2019-08-17T09:59:58Z</time>
      </trkpt>
      <trkpt lat="42.95098" lon="0.85003">
        <ele>1304</ele>
        <time>2019-08-17T09:59:59Z</time>
      </trkpt>
      <trkpt lat="42.95099" lon="0.85001">
        <ele>1304.1</ele>
        <time>2019-08-17T10:00:00Z</time>
      </trkpt>
      <trkpt lat="42.95099" lon="0.85">
        <ele>1304.3</ele>
        <time>2019-08-17T10:00:01Z</time>
      </trkpt>
      <trkpt lat="42.95099" lon="0.84999">
        <ele>1304.5</ele>
        <time>2019-08-17T10:00:02Z</time>
      </trkpt>
      <trkpt lat="42.95099" lon="0.84998">
        <ele>1304.6</ele>
        <time>2019-08-17T10:00:03Z</time>
      </trkpt>
      <trkpt lat="42.951" lon="0.84996">
        <ele>1304.8</ele>
        <time>2019-08-17T10:00:04Z</time>
      </trkpt>
      <trkpt lat="42.951" lon="0.84995">
        <ele>1304.8</ele>
        <time>2019-08-17T10:00:05Z</time>
      </trkpt>
      <trkpt lat="42.951" lon="0.84994">
        <ele>1305</ele>
        <time>2019-08-17T10:00:06Z</time>
      </trkpt>
      <trkpt lat="42.951" lon="0.84992">
        <ele>1305</ele>
        <time>2019-08-17T10:00:07Z</time>
      </trkpt>
      <trkpt lat="42.951" lon="0.84991">
        <ele>1305</ele>
        <time>2019-08-17T10:00:08Z</time>
      </trkpt>
      <trkpt lat="42.951" lon="0.8499">
        <ele>1305.1</ele>
        <time>2019-08-17T10:00:09Z</time>
      </trkpt>
      <trkpt lat="42.951" lon="0.84989">
        <ele>1305.1</ele>
        <time>2019-08-17T10:00:10Z</time>
      </trkpt>
      <trkpt lat="42.951" lon="0.84988">
        <ele>1305.2</ele>
        <time>2019-08-17T10:00:11Z</time>
      </trkpt>
      <trkpt lat="42.951" lon="0.84986">
        <ele>1305.2</ele>
        <time>2019-08-17T10:00:12Z</time>
      </trkpt>
      <trkpt lat="42.951" lon="0.84985">
        <ele>1305.3</ele>
        <time>2019-08-17T10:00:13Z</time>
      </trkpt>
      <trkpt lat="42.95101" lon="0.84984">
        <ele>1305.3</ele>
        <time>2019-08-17T10:00:14Z</time>
      </trkpt>
      <trkpt lat="42.95101" lon="0.84983">
        <ele>1305.4</ele>
        <time>2019-08-17T10:00:15Z</time>
      </trkpt>
      <trkpt lat="42.95101" lon="0.84982">
        <ele>1305.5</ele>
        <time>2019-08-17T10:00:16Z</time>
      </trkpt>
      <trkpt lat="42.95101" lon="0.8498">
        <ele>1305.6</ele>
        <time>2019-08-17T10:00:17Z</time>
      </trkpt>
      <trkpt lat="42.95102" lon="0.84979">
        <ele>1305.7</ele>
        <time>2019-08-17T10:00:18Z</time>
      </trkpt>
      <trkpt lat="42.95102" lon="0.84978">
        <ele>1305.8</ele>
        <time>2019-08-17T10:00:19Z</time>
      </trkpt>
      <trkpt lat="42.95103" lon="0.84977">
        <ele>1305.9</ele>
        <time>2019-08-17T10:00:20Z</time>
      </trkpt>
      <trkpt lat="42.95104" lon="0.84976">
        <ele>1306</ele>
        <time>2019-08-17T10:00:21Z</time>
      </trkpt>
      <trkpt lat="42.95104" lon="0.84975">
        <ele>1306.2</ele>
        <time>2019-08-17T10:00:22Z</time>
      </trkpt>
      <trkpt lat="42.95105" lon="0.84974">
        <ele>1306.3</ele>
        <time>2019-08-17T10:00:23Z</time>
      </trkpt>
      <trkpt lat="42.95105" lon="0.84973">
        <ele>1306.5</ele>
        <time>2019-08-17T10:00:24Z</time>
      </trkpt>
      <trkpt lat="42.95106" lon="0.84972">
        <ele>1306.6</ele>
        <time>2019-08-17T10:00:25Z</time>
      </trkpt>
      <trkpt lat="42.95106" lon="0.84971">
        <ele>1306.8</ele>
        <time>2019-08-17T10:00:26Z</time>
      </trkpt>
      <trkpt lat="42.95107" lon="0.84971">
        <ele>1306.9</ele>
        <time>2019-08-17T10:00:27Z</time>
      </trkpt>
      <trkpt lat="42.95107" lon="0.8497">
        <ele>1307.1</ele>
        <time>2019-08-17T10:00:28Z</time>
      </trkpt>
      <trkpt lat="42.95107" lon="0.84968">
        <ele>1307.3</ele>
        <time>2019-08-17T10:00:29Z</time>
      </trkpt>
      <trkpt lat="42.95108" lon="0.84967">
        <ele>1307.5</ele>
        <time>2019-08-17T10:00:30Z</time>
      </trkpt>
      <trkpt lat="42.95108" lon="0.84966">
        <ele>1307.7</ele>
        <time>2019-08-17T10:00:31Z</time>
      </trkpt>
      <trkpt lat="42.95109" lon="0.84965">
        <ele>1307.9</ele>
        <time>2019-08-17T10:00:32Z</time>
      </trkpt>
      <trkpt lat="42.95109" lon="0.84963">
        <ele>1308.1</ele>
        <time>2019-08-17T10:00:33Z</time>
      </trkpt>
      <trkpt lat="42.95109" lon="0.84962">
        <ele>1308.4</ele>
        <time>2019-08-17T10:00:34Z</time>
      </trkpt>
      <trkpt lat="42.9511" lon="0.8496">
        <ele>1308.6</ele>
        <time>2019-08-17T10:00:35Z</time>
      </trkpt>
      <trkpt lat="42.9511" lon="0.84958">
        <ele>1308.9</ele>
        <time>2019-08-17T10:00:36Z</time>
      </trkpt>
      <trkpt lat="42.9511" lon="0.84957">
        <ele>1309.2</ele>
        <time>2019-08-17T10:00:37Z</time>
      </trkpt>
      <trkpt lat="42.95111" lon="0.84955">
        <ele>1309.4</ele>
        <time>2019-08-17T10:00:38Z</time>
      </trkpt>
      <trkpt lat="42.95111" lon="0.84953">
        <ele>1309.6</ele>
        <time>2019-08-17T10:00:39Z</time>
      </trkpt>
      <trkpt lat="42.95111" lon="0.84951">
        <ele>1309.7</ele>
        <time>2019-08-17T10:00:40Z</time>
      </trkpt>
      <trkpt lat="42.95112" lon="0.8495">
        <ele>1309.7</ele>
        <time>2019-08-17T10:00:41Z</time>
      </trkpt>
      <trkpt lat="42.95112" lon="0.84948">
        <ele>1309.7</ele>
        <time>2019-08-17T10:00:42Z</time>
      </trkpt>
      <trkpt lat="42.95113" lon="0.84947">
        <ele>1309.7</ele>
        <time>2019-08-17T10:00:43Z</time>
      </trkpt>
      <trkpt lat="42.95113" lon="0.84946">
        <ele>1309.8</ele>
        <time>2019-08-17T10:00:44Z</time>
      </trkpt>
      <trkpt lat="42.95114" lon="0.84945">
        <ele>1309.7</ele>
        <time>2019-08-17T10:00:45Z</time>
      </trkpt>
      <trkpt lat="42.95114" lon="0.84944">
        <ele>1309.7</ele>
        <time>2019-08-17T10:00:46Z</time>
      </trkpt>
      <trkpt lat="42.95115" lon="0.84944">
        <ele>1309.7</ele>
        <time>2019-08-17T10:00:47Z</time>
      </trkpt>
      <trkpt lat="42.95115" lon="0.84943">
        <ele>1309.7</ele>
        <time>2019-08-17T10:00:48Z</time>
      </trkpt>
      <trkpt lat="42.95116" lon="0.84942">
        <ele>1309.9</ele>
        <time>2019-08-17T10:00:49Z</time>
      </trkpt>
      <trkpt lat="42.95116" lon="0.84941">
        <ele>1310.2</ele>
        <time>2019-08-17T10:00:50Z</time>
      </trkpt>
      <trkpt lat="42.95116" lon="0.84939">
        <ele>1310.5</ele>
        <time>2019-08-17T10:00:51Z</time>
      </trkpt>
      <trkpt lat="42.95115" lon="0.84938">
        <ele>1310.8</ele>
        <time>2019-08-17T10:00:52Z</time>
      </trkpt>
      <trkpt lat="42.95115" lon="0.84937">
        <ele>1311.1</ele>
        <time>2019-08-17T10:00:53Z</time>
      </trkpt>
      <trkpt lat="42.95115" lon="0.84936">
        <ele>1311.5</ele>
        <time>2019-08-17T10:00:54Z</time>
      </trkpt>
      <trkpt lat="42.95115" lon="0.84934">
        <ele>1311.8</ele>
        <time>2019-08-17T10:00:55Z</time>
      </trkpt>
      <trkpt lat="42.95114" lon="0.84933">
        <ele>1312.2</ele>
        <time>2019-08-17T10:00:56Z</time>
      </trkpt>
      <trkpt lat="42.95114" lon="0.84932">
        <ele>1312.5</ele>
        <time>2019-08-17T10:00:57Z</time>
      </trkpt>
      <trkpt lat="42.95114" lon="0.8493">
        <ele>1312.8</ele>
        <time>2019-08-17T10:00:58Z</time>
      </trkpt>
      <trkpt lat="42.95114" lon="0.84929">
        <ele>1313</ele>
        <time>2019-08-17T10:00:59Z</time>
      </trkpt>
      <trkpt lat="42.95114" lon="0.84928">
        <ele>1313.2</ele>
        <time>2019-08-17T10:01:00Z</time>
      </trkpt>
      <trkpt lat="42.95114" lon="0.84927">
        <ele>1313.3</ele>
        <time>2019-08-17T10:01:01Z</time>
      </trkpt>
      <trkpt lat="42.95114" lon="0.84926">
        <ele>1313.4</ele>
        <time>2019-08-17T10:01:02Z</time>
      </trkpt>
      <trkpt lat="42.95114" lon="0.84925">
        <ele>1313.5</ele>
        <time>2019-08-17T10:01:03Z</time>
      </trkpt>
      <trkpt lat="42.95115" lon="0.84923">
        <ele>1313.7</ele>
        <time>2019-08-17T10:01:04Z</time>
      </trkpt>
      <trkpt lat="42.95115" lon="0.84922">
        <ele>1313.8</ele>
        <time>2019-08-17T10:01:05Z</time>
      </trkpt>
      <trkpt lat="42.95115" lon="0.84921">
        <ele>1313.9</ele>
        <time>2019-08-17T10:01:06Z</time>
      </trkpt>
      <trkpt lat="42.95115" lon="0.8492">
        <ele>1314</ele>
        <time>2019-08-17T10:01:07Z</time>
      </trkpt>
      <trkpt lat="42.95116" lon="0.84919">
        <ele>1314.2</ele>
        <time>2019-08-17T10:01:08Z</time>
      </trkpt>
      <trkpt lat="42.95116" lon="0.84918">
        <ele>1314.3</ele>
        <time>2019-08-17T10:01:09Z</time>
      </trkpt>
      <trkpt lat="42.95116" lon="0.84917">
        <ele>1314.4</ele>
        <time>2019-08-17T10:01:10Z</time>
      </trkpt>
      <trkpt lat="42.95117" lon="0.84915">
        <ele>1314.5</ele>
        <time>2019-08-17T10:01:11Z</time>
      </trkpt>
      <trkpt lat="42.95117" lon="0.84914">
        <ele>1314.6</ele>
        <time>2019-08-17T10:01:12Z</time>
      </trkpt>
      <trkpt lat="42.95117" lon="0.84913">
        <ele>1314.7</ele>
        <time>2019-08-17T10:01:13Z</time>
      </trkpt>
      <trkpt lat="42.95117" lon="0.84911">
        <ele>1314.9</ele>
        <time>2019-08-17T10:01:14Z</time>
      </trkpt>
      <trkpt lat="42.95118" lon="0.8491">
        <ele>1315</ele>
        <time>2019-08-17T10:01:15Z</time>
      </trkpt>
      <trkpt lat="42.95118" lon="0.84908">
        <ele>1315.1</ele>
        <time>2019-08-17T10:01:16Z</time>
      </trkpt>
      <trkpt lat="42.95118" lon="0.84907">
        <ele>1315.2</ele>
        <time>2019-08-17T10:01:17Z</time>
      </trkpt>
      <trkpt lat="42.95119" lon="0.84905">
        <ele>1315.4</ele>
        <time>2019-08-17T10:01:18Z</time>
      </trkpt>
      <trkpt lat="42.95119" lon="0.84904">
        <ele>1315.5</ele>
        <time>2019-08-17T10:01:19Z</time>
      </trkpt>
      <trkpt lat="42.95119" lon="0.84902">
        <ele>1315.7</ele>
        <time>2019-08-17T10:01:20Z</time>
      </trkpt>
      <trkpt lat="42.9512" lon="0.84901">
        <ele>1315.8</ele>
        <time>2019-08-17T10:01:21Z</time>
      </trkpt>
      <trkpt lat="42.9512" lon="0.84899">
        <ele>1316</ele>
        <time>2019-08-17T10:01:22Z</time>
      </trkpt>
      <trkpt lat="42.95121" lon="0.84898">
        <ele>1316.1</ele>
        <time>2019-08-17T10:01:23Z</time>
      </trkpt>
      <trkpt lat="42.95121" lon="0.84896">
        <ele>1316.2</ele>
        <time>2019-08-17T10:01:24Z</time>
      </trkpt>
      <trkpt lat="42.95121" lon="0.84895">
        <ele>1316.3</ele>
        <time>2019-08-17T10:01:25Z</time>
      </trkpt>
      <trkpt lat="42.95122" lon="0.84894">
        <ele>1316.4</ele>
        <time>2019-08-17T10:01:26Z</time>
      </trkpt>
      <trkpt lat="42.95122" lon="0.84893">
        <ele>1316.5</ele>
        <time>2019-08-17T10:01:27Z</time>
      </trkpt>
      <trkpt lat="42.95122" lon="0.84892">
        <ele>1316.6</ele>
        <time>2019-08-17T10:01:28Z</time>
      </trkpt>
      <trkpt lat="42.95123" lon="0.84891">
        <ele>1316.8</ele>
        <time>2019-08-17T10:01:29Z</time>
      </trkpt>
      <trkpt lat="42.95123" lon="0.84889">
        <ele>1316.9</ele>
        <time>2019-08-17T10:01:30Z</time>
      </trkpt>
      <trkpt lat="42.95123" lon="0.84888">
        <ele>1317</ele>
        <time>2019-08-17T10:01:31Z</time>
      </trkpt>
      <trkpt lat="42.95123" lon="0.84886">
        <ele>1317.1</ele>
        <time>2019-08-17T10:01:32Z</time>
      </trkpt>
      <trkpt lat="42.95123" lon="0.84885">
        <ele>1317.3</ele>
        <time>2019-08-17T10:01:33Z</time>
      </trkpt>
      <trkpt lat="42.95123" lon="0.84883">
        <ele>1317.4</ele>
        <time>2019-08-17T10:01:34Z</time>
      </trkpt>
      <trkpt lat="42.95123" lon="0.84881">
        <ele>1317.5</ele>
        <time>2019-08-17T10:01:35Z</time>
      </trkpt>
      <trkpt lat="42.95124" lon="0.8488">
        <ele>1317.7</ele>
        <time>2019-08-17T10:01:36Z</time>
      </trkpt>
      <trkpt lat="42.95124" lon="0.84878">
        <ele>1318</ele>
        <time>2019-08-17T10:01:37Z</time>
      </trkpt>
      <trkpt lat="42.95125" lon="0.84877">
        <ele>1318.5</ele>
        <time>2019-08-17T10:01:38Z</time>
      </trkpt>
      <trkpt lat="42.95125" lon="0.84875">
        <ele>1318.9</ele>
        <time>2019-08-17T10:01:39Z</time>
      </trkpt>
      <trkpt lat="42.95126" lon="0.84874">
        <ele>1319.3</ele>
        <time>2019-08-17T10:01:40Z</time>
      </trkpt>
      <trkpt lat="42.95127" lon="0.84873">
        <ele>1319.7</ele>
        <time>2019-08-17T10:01:41Z</time>
      </trkpt>
      <trkpt lat="42.95127" lon="0.84871">
        <ele>1320.1</ele>
        <time>2019-08-17T10:01:42Z</time>
      </trkpt>
      <trkpt lat="42.95128" lon="0.8487">
        <ele>1320.5</ele>
        <time>2019-08-17T10:01:43Z</time>
      </trkpt>
      <trkpt lat="42.95129" lon="0.84869">
        <ele>1320.9</ele>
        <time>2019-08-17T10:01:44Z</time>
      </trkpt>
      <trkpt lat="42.9513" lon="0.84868">
        <ele>1321.2</ele>
        <time>2019-08-17T10:01:45Z</time>
      </trkpt>
      <trkpt lat="42.95131" lon="0.84867">
        <ele>1321.4</ele>
        <time>2019-08-17T10:01:46Z</time>
      </trkpt>
      <trkpt lat="42.95132" lon="0.84866">
        <ele>1321.6</ele>
        <time>2019-08-17T10:01:47Z</time>
      </trkpt>
      <trkpt lat="42.95133" lon="0.84865">
        <ele>1321.8</ele>
        <time>2019-08-17T10:01:48Z</time>
      </trkpt>
      <trkpt lat="42.95134" lon="0.84864">
        <ele>1322</ele>
        <time>2019-08-17T10:01:49Z</time>
      </trkpt>
      <trkpt lat="42.95134" lon="0.84863">
        <ele>1322.2</ele>
        <time>2019-08-17T10:01:50Z</time>
      </trkpt>
      <trkpt lat="42.95135" lon="0.84862">
        <ele>1322.4</ele>
        <time>2019-08-17T10:01:51Z</time>
      </trkpt>
      <trkpt lat="42.95136" lon="0.84861">
        <ele>1322.6</ele>
        <time>2019-08-17T10:01:52Z</time>
      </trkpt>
      <trkpt lat="42.95137" lon="0.84859">
        <ele>1322.9</ele>
        <time>2019-08-17T10:01:53Z</time>
      </trkpt>
      <trkpt lat="42.95138" lon="0.84858">
        <ele>1323.4</ele>
        <time>2019-08-17T10:01:54Z</time>
      </trkpt>
      <trkpt lat="42.95138" lon="0.84857">
        <ele>1323.9</ele>
        <time>2019-08-17T10:01:55Z</time>
      </trkpt>
      <trkpt lat="42.9514" lon="0.84854">
        <ele>1324.8</ele>
        <time>2019-08-17T10:01:56Z</time>
      </trkpt>
      <trkpt lat="42.9514" lon="0.84853">
        <ele>1325.1</ele>
        <time>2019-08-17T10:01:57Z</time>
      </trkpt>
      <trkpt lat="42.95141" lon="0.84852">
        <ele>1325.4</ele>
        <time>2019-08-17T10:01:58Z</time>
      </trkpt>
      <trkpt lat="42.95141" lon="0.84851">
        <ele>1325.7</ele>
        <time>2019-08-17T10:01:59Z</time>
      </trkpt>
      <trkpt lat="42.95142" lon="0.84851">
        <ele>1325.9</ele>
        <time>2019-08-17T10:02:00Z</time>
      </trkpt>
      <trkpt lat="42.95142" lon="0.8485">
        <ele>1326.2</ele>
        <time>2019-08-17T10:02:01Z</time>
      </trkpt>
      <trkpt lat="42.95143" lon="0.84849">
        <ele>1326.5</ele>
        <time>2019-08-17T10:02:02Z</time>
      </trkpt>
      <trkpt lat="42.95143" lon="0.84848">
        <ele>1326.7</ele>
        <time>2019-08-17T10:02:03Z</time>
      </trkpt>
      <trkpt lat="42.95144" lon="0.84847">
        <ele>1327</ele>
        <time>2019-08-17T10:02:04Z</time>
      </trkpt>
      <trkpt lat="42.95144" lon="0.84846">
        <ele>1327.3</ele>
        <time>2019-08-17T10:02:05Z</time>
      </trkpt>
      <trkpt lat="42.95145" lon="0.84845">
        <ele>1327.5</ele>
        <time>2019-08-17T10:02:06Z</time>
      </trkpt>
      <trkpt lat="42.95145" lon="0.84845">
        <ele>1327.8</ele>
        <time>2019-08-17T10:02:07Z</time>
      </trkpt>
      <trkpt lat="42.95146" lon="0.84844">
        <ele>1328</ele>
        <time>2019-08-17T10:02:08Z</time>
      </trkpt>
      <trkpt lat="42.95146" lon="0.84843">
        <ele>1328.3</ele>
        <time>2019-08-17T10:02:09Z</time>
      </trkpt>
      <trkpt lat="42.95147" lon="0.84842">
        <ele>1328.5</ele>
        <time>2019-08-17T10:02:10Z</time>
      </trkpt>
      <trkpt lat="42.95147" lon="0.84841">
        <ele>1328.8</ele>
        <time>2019-08-17T10:02:11Z</time>
      </trkpt>
      <trkpt lat="42.95148" lon="0.8484">
        <ele>1329</ele>
        <time>2019-08-17T10:02:12Z</time>
      </trkpt>
      <trkpt lat="42.95148" lon="0.84839">
        <ele>1329.3</ele>
        <time>2019-08-17T10:02:13Z</time>
      </trkpt>
      <trkpt lat="42.95149" lon="0.84839">
        <ele>1329.6</ele>
        <time>2019-08-17T10:02:14Z</time>
      </trkpt>
      <trkpt lat="42.95149" lon="0.84838">
        <ele>1329.9</ele>
        <time>2019-08-17T10:02:15Z</time>
      </trkpt>
      <trkpt lat="42.9515" lon="0.84837">
        <ele>1330.1</ele>
        <time>2019-08-17T10:02:16Z</time>
      </trkpt>
      <trkpt lat="42.9515" lon="0.84836">
        <ele>1330.4</ele>
        <time>2019-08-17T10:02:17Z</time>
      </trkpt>
      <trkpt lat="42.95151" lon="0.84835">
        <ele>1330.6</ele>
        <time>2019-08-17T10:02:18Z</time>
      </trkpt>
      <trkpt lat="42.95151" lon="0.84834">
        <ele>1330.9</ele>
        <time>2019-08-17T10:02:19Z</time>
      </trkpt>
      <trkpt lat="42.95152" lon="0.84834">
        <ele>1331.2</ele>
        <time>2019-08-17T10:02:20Z</time>
      </trkpt>
      <trkpt lat="42.95152" lon="0.84833">
        <ele>1331.5</ele>
        <time>2019-08-17T10:02:21Z</time>
      </trkpt>
      <trkpt lat="42.95153" lon="0.84832">
        <ele>1331.7</ele>
        <time>2019-08-17T10:02:22Z</time>
      </trkpt>
      <trkpt lat="42.95153" lon="0.84831">
        <ele>1332</ele>
        <time>2019-08-17T10:02:23Z</time>
      </trkpt>
      <trkpt lat="42.95154" lon="0.8483">
        <ele>1332.3</ele>
        <time>2019-08-17T10:02:24Z</time>
      </trkpt>
      <trkpt lat="42.95154" lon="0.84829">
        <ele>1332.6</ele>
        <time>2019-08-17T10:02:25Z</time>
      </trkpt>
      <trkpt lat="42.95155" lon="0.84828">
        <ele>1332.9</ele>
        <time>2019-08-17T10:02:26Z</time>
      </trkpt>
      <trkpt lat="42.95155" lon="0.84828">
        <ele>1333.2</ele>
        <time>2019-08-17T10:02:27Z</time>
      </trkpt>
      <trkpt lat="42.95156" lon="0.84827">
        <ele>1333.5</ele>
        <time>2019-08-17T10:02:28Z</time>
      </trkpt>
      <trkpt lat="42.95156" lon="0.84826">
        <ele>1333.8</ele>
        <time>2019-08-17T10:02:29Z</time>
      </trkpt>
      <trkpt lat="42.95157" lon="0.84825">
        <ele>1334.1</ele>
        <time>2019-08-17T10:02:30Z</time>
      </trkpt>
      <trkpt lat="42.95157" lon="0.84824">
        <ele>1334.4</ele>
        <time>2019-08-17T10:02:31Z</time>
      </trkpt>
      <trkpt lat="42.95158" lon="0.84823">
        <ele>1334.7</ele>
        <time>2019-08-17T10:02:32Z</time>
      </trkpt>
      <trkpt lat="42.95158" lon="0.84822">
        <ele>1335</ele>
        <time>2019-08-17T10:02:33Z</time>
      </trkpt>
      <trkpt lat="42.95159" lon="0.84822">
        <ele>1335.3</ele>
        <time>2019-08-17T10:02:34Z</time>
      </trkpt>
      <trkpt lat="42.95159" lon="0.84821">
        <ele>1335.6</ele>
        <time>2019-08-17T10:02:35Z</time>
      </trkpt>
      <trkpt lat="42.9516" lon="0.8482">
        <ele>1335.9</ele>
        <time>2019-08-17T10:02:36Z</time>
      </trkpt>
      <trkpt lat="42.9516" lon="0.8482">
        <ele>1336.1</ele>
        <time>2019-08-17T10:02:37Z</time>
      </trkpt>
      <trkpt lat="42.95161" lon="0.84819">
        <ele>1336.3</ele>
        <time>2019-08-17T10:02:38Z</time>
      </trkpt>
      <trkpt lat="42.95161" lon="0.84819">
        <ele>1336.6</ele>
        <time>2019-08-17T10:02:39Z</time>
      </trkpt>
      <trkpt lat="42.95162" lon="0.84818">
        <ele>1336.8</ele>
        <time>2019-08-17T10:02:40Z</time>
      </trkpt>
      <trkpt lat="42.95163" lon="0.84817">
        <ele>1337.3</ele>
        <time>2019-08-17T10:02:41Z</time>
      </trkpt>
      <trkpt lat="42.95164" lon="0.84817">
        <ele>1337.6</ele>
        <time>2019-08-17T10:02:42Z</time>
      </trkpt>
      <trkpt lat="42.95165" lon="0.84816">
        <ele>1337.8</ele>
        <time>2019-08-17T10:02:43Z</time>
      </trkpt>
      <trkpt lat="42.95165" lon="0.84816">
        <ele>1338.1</ele>
        <time>2019-08-17T10:02:44Z</time>
      </trkpt>
      <trkpt lat="42.95166" lon="0.84815">
        <ele>1338.4</ele>
        <time>2019-08-17T10:02:45Z</time>
      </trkpt>
      <trkpt lat="42.95167" lon="0.84815">
        <ele>1338.6</ele>
        <time>2019-08-17T10:02:46Z</time>
      </trkpt>
      <trkpt lat="42.95167" lon="0.84814">
        <ele>1338.9</ele>
        <time>2019-08-17T10:02:47Z</time>
      </trkpt>
      <trkpt lat="42.95168" lon="0.84814">
        <ele>1339.1</ele>
        <time>2019-08-17T10:02:48Z</time>
      </trkpt>
      <trkpt lat="42.95169" lon="0.84813">
        <ele>1339.3</ele>
        <time>2019-08-17T10:02:49Z</time>
      </trkpt>
      <trkpt lat="42.95169" lon="0.84813">
        <ele>1339.5</ele>
        <time>2019-08-17T10:02:50Z</time>
      </trkpt>
      <trkpt lat="42.9517" lon="0.84812">
        <ele>1339.8</ele>
        <time>2019-08-17T10:02:51Z</time>
      </trkpt>
      <trkpt lat="42.95171" lon="0.84811">
        <ele>1340</ele>
        <time>2019-08-17T10:02:52Z</time>
      </trkpt>
      <trkpt lat="42.95171" lon="0.84811">
        <ele>1340.2</ele>
        <time>2019-08-17T10:02:53Z</time>
      </trkpt>
      <trkpt lat="42.95172" lon="0.8481">
        <ele>1340.5</ele>
        <time>2019-08-17T10:02:54Z</time>
      </trkpt>
      <trkpt lat="42.95173" lon="0.8481">
        <ele>1340.7</ele>
        <time>2019-08-17T10:02:55Z</time>
      </trkpt>
      <trkpt lat="42.95173" lon="0.84809">
        <ele>1340.9</ele>
        <time>2019-08-17T10:02:56Z</time>
      </trkpt>
      <trkpt lat="42.95174" lon="0.84809">
        <ele>1341.1</ele>
        <time>2019-08-17T10:02:57Z</time>
      </trkpt>
      <trkpt lat="42.95175" lon="0.84808">
        <ele>1341.4</ele>
        <time>2019-08-17T10:02:58Z</time>
      </trkpt>
      <trkpt lat="42.95175" lon="0.84808">
        <ele>1341.6</ele>
        <time>2019-08-17T10:02:59Z</time>
      </trkpt>
      <trkpt lat="42.95176" lon="0.84807">
        <ele>1342</ele>
        <time>2019-08-17T10:03:00Z</time>
      </trkpt>
      <trkpt lat="42.95177" lon="0.84807">
        <ele>1342.3</ele>
        <time>2019-08-17T10:03:01Z</time>
      </trkpt>
      <trkpt lat="42.95178" lon="0.84806">
        <ele>1342.6</ele>
        <time>2019-08-17T10:03:02Z</time>
      </trkpt>
      <trkpt lat="42.95178" lon="0.84806">
        <ele>1342.9</ele>
        <time>2019-08-17T10:03:03Z</time>
      </trkpt>
      <trkpt lat="42.95179" lon="0.84805">
        <ele>1343.2</ele>
        <time>2019-08-17T10:03:04Z</time>
      </trkpt>
      <trkpt lat="42.9518" lon="0.84805">
        <ele>1343.6</ele>
        <time>2019-08-17T10:03:05Z</time>
      </trkpt>
      <trkpt lat="42.9518" lon="0.84804">
        <ele>1343.9</ele>
        <time>2019-08-17T10:03:06Z</time>
      </trkpt>
      <trkpt lat="42.95181" lon="0.84804">
        <ele>1344.2</ele>
        <time>2019-08-17T10:03:07Z</time>
      </trkpt>
      <trkpt lat="42.95182" lon="0.84803">
        <ele>1344.5</ele>
        <time>2019-08-17T10:03:08Z</time>
      </trkpt>
      <trkpt lat="42.95182" lon="0.84803">
        <ele>1344.9</ele>
        <time>2019-08-17T10:03:09Z</time>
      </trkpt>
      <trkpt lat="42.95183" lon="0.84802">
        <ele>1345.2</ele>
        <time>2019-08-17T10:03:10Z</time>
      </trkpt>
      <trkpt lat="42.95184" lon="0.84802">
        <ele>1345.4</ele>
        <time>2019-08-17T10:03:11Z</time>
      </trkpt>
      <trkpt lat="42.95184" lon="0.84801">
        <ele>1345.6</ele>
        <time>2019-08-17T10:03:12Z</time>
      </trkpt>
      <trkpt lat="42.95185" lon="0.84801">
        <ele>1345.8</ele>
        <time>2019-08-17T10:03:13Z</time>
      </trkpt>
      <trkpt lat="42.95186" lon="0.848">
        <ele>1346</ele>
        <time>2019-08-17T10:03:14Z</time>
      </trkpt>
      <trkpt lat="42.95186" lon="0.84799">
        <ele>1346.2</ele>
        <time>2019-08-17T10:03:15Z</time>
      </trkpt>
      <trkpt lat="42.95187" lon="0.84799">
        <ele>1346.5</ele>
        <time>2019-08-17T10:03:16Z</time>
      </trkpt>
      <trkpt lat="42.95188" lon="0.84797">
        <ele>1347</ele>
        <time>2019-08-17T10:03:17Z</time>
      </trkpt>
      <trkpt lat="42.95189" lon="0.84797">
        <ele>1347.3</ele>
        <time>2019-08-17T10:03:18Z</time>
      </trkpt>
      <trkpt lat="42.9519" lon="0.84796">
        <ele>1347.5</ele>
        <time>2019-08-17T10:03:19Z</time>
      </trkpt>
      <trkpt lat="42.95191" lon="0.84795">
        <ele>1347.8</ele>
        <time>2019-08-17T10:03:20Z</time>
      </trkpt>
      <trkpt lat="42.95192" lon="0.84794">
        <ele>1348.1</ele>
        <time>2019-08-17T10:03:21Z</time>
      </trkpt>
      <trkpt lat="42.95192" lon="0.84793">
        <ele>1348.3</ele>
        <time>2019-08-17T10:03:22Z</time>
      </trkpt>
      <trkpt lat="42.95193" lon="0.84792">
        <ele>1348.6</ele>
        <time>2019-08-17T10:03:23Z</time>
      </trkpt>
      <trkpt lat="42.95194" lon="0.84791">
        <ele>1348.9</ele>
        <time>2019-08-17T10:03:24Z</time>
      </trkpt>
      <trkpt lat="42.95195" lon="0.84791">
        <ele>1349.1</ele>
        <time>2019-08-17T10:03:25Z</time>
      </trkpt>
      <trkpt lat="42.95196" lon="0.8479">
        <ele>1349.4</ele>
        <time>2019-08-17T10:03:26Z</time>
      </trkpt>
      <trkpt lat="42.95197" lon="0.84789">
        <ele>1349.7</ele>
        <time>2019-08-17T10:03:27Z</time>
      </trkpt>
      <trkpt lat="42.95197" lon="0.84788">
        <ele>1349.9</ele>
        <time>2019-08-17T10:03:28Z</time>
      </trkpt>
      <trkpt lat="42.95198" lon="0.84787">
        <ele>1350.2</ele>
        <time>2019-08-17T10:03:29Z</time>
      </trkpt>
      <trkpt lat="42.95199" lon="0.84786">
        <ele>1350.4</ele>
        <time>2019-08-17T10:03:30Z</time>
      </trkpt>
      <trkpt lat="42.952" lon="0.84785">
        <ele>1350.6</ele>
        <time>2019-08-17T10:03:31Z</time>
      </trkpt>
      <trkpt lat="42.95201" lon="0.84785">
        <ele>1350.9</ele>
        <time>2019-08-17T10:03:32Z</time>
      </trkpt>
      <trkpt lat="42.95202" lon="0.84784">
        <ele>1351.1</ele>
        <time>2019-08-17T10:03:33Z</time>
      </trkpt>
      <trkpt lat="42.95203" lon="0.84784">
        <ele>1351.3</ele>
        <time>2019-08-17T10:03:34Z</time>
      </trkpt>
      <trkpt lat="42.95204" lon="0.84783">
        <ele>1351.6</ele>
        <time>2019-08-17T10:03:35Z</time>
      </trkpt>
      <trkpt lat="42.95204" lon="0.84783">
        <ele>1351.7</ele>
        <time>2019-08-17T10:03:36Z</time>
      </trkpt>
      <trkpt lat="42.95205" lon="0.84782">
        <ele>1352</ele>
        <time>2019-08-17T10:03:37Z</time>
      </trkpt>
      <trkpt lat="42.95206" lon="0.84782">
        <ele>1352.1</ele>
        <time>2019-08-17T10:03:38Z</time>
      </trkpt>
      <trkpt lat="42.95207" lon="0.84782">
        <ele>1352.3</ele>
        <time>2019-08-17T10:03:39Z</time>
      </trkpt>
      <trkpt lat="42.95208" lon="0.84781">
        <ele>1352.5</ele>
        <time>2019-08-17T10:03:40Z</time>
      </trkpt>
      <trkpt lat="42.95208" lon="0.84781">
        <ele>1352.7</ele>
        <time>2019-08-17T10:03:41Z</time>
      </trkpt>
      <trkpt lat="42.95209" lon="0.84781">
        <ele>1352.8</ele>
        <time>2019-08-17T10:03:42Z</time>
      </trkpt>
      <trkpt lat="42.9521" lon="0.8478">
        <ele>1353</ele>
        <time>2019-08-17T10:03:43Z</time>
      </trkpt>
      <trkpt lat="42.9521" lon="0.8478">
        <ele>1353.2</ele>
        <time>2019-08-17T10:03:44Z</time>
      </trkpt>
      <trkpt lat="42.95211" lon="0.84779">
        <ele>1353.4</ele>
        <time>2019-08-17T10:03:45Z</time>
      </trkpt>
      <trkpt lat="42.95211" lon="0.84778">
        <ele>1353.6</ele>
        <time>2019-08-17T10:03:46Z</time>
      </trkpt>
      <trkpt lat="42.95212" lon="0.84778">
        <ele>1353.8</ele>
        <time>2019-08-17T10:03:47Z</time>
      </trkpt>
      <trkpt lat="42.95213" lon="0.84777">
        <ele>1354</ele>
        <time>2019-08-17T10:03:48Z</time>
      </trkpt>
      <trkpt lat="42.95213" lon="0.84776">
        <ele>1354.2</ele>
        <time>2019-08-17T10:03:49Z</time>
      </trkpt>
      <trkpt lat="42.95214" lon="0.84775">
        <ele>1354.4</ele>
        <time>2019-08-17T10:03:50Z</time>
      </trkpt>
      <trkpt lat="42.95215" lon="0.84774">
        <ele>1354.7</ele>
        <time>2019-08-17T10:03:51Z</time>
      </trkpt>
      <trkpt lat="42.95216" lon="0.84773">
        <ele>1354.9</ele>
        <time>2019-08-17T10:03:52Z</time>
      </trkpt>
      <trkpt lat="42.95216" lon="0.84772">
        <ele>1355.1</ele>
        <time>2019-08-17T10:03:53Z</time>
      </trkpt>
      <trkpt lat="42.95217" lon="0.84772">
        <ele>1355.4</ele>
        <time>2019-08-17T10:03:54Z</time>
      </trkpt>
      <trkpt lat="42.95218" lon="0.84771">
        <ele>1355.6</ele>
        <time>2019-08-17T10:03:55Z</time>
      </trkpt>
      <trkpt lat="42.95218" lon="0.8477">
        <ele>1355.8</ele>
        <time>2019-08-17T10:03:56Z</time>
      </trkpt>
      <trkpt lat="42.95219" lon="0.84769">
        <ele>1356.1</ele>
        <time>2019-08-17T10:03:57Z</time>
      </trkpt>
      <trkpt lat="42.9522" lon="0.84768">
        <ele>1356.3</ele>
        <time>2019-08-17T10:03:58Z</time>
      </trkpt>
      <trkpt lat="42.9522" lon="0.84768">
        <ele>1356.5</ele>
        <time>2019-08-17T10:03:59Z</time>
      </trkpt>
      <trkpt lat="42.95221" lon="0.84767">
        <ele>1356.8</ele>
        <time>2019-08-17T10:04:00Z</time>
      </trkpt>
      <trkpt lat="42.95222" lon="0.84766">
        <ele>1357</ele>
        <time>2019-08-17T10:04:01Z</time>
      </trkpt>
      <trkpt lat="42.95223" lon="0.84766">
        <ele>1357.6</ele>
        <time>2019-08-17T10:04:02Z</time>
      </trkpt>
      <trkpt lat="42.95224" lon="0.84765">
        <ele>1357.9</ele>
        <time>2019-08-17T10:04:03Z</time>
      </trkpt>
      <trkpt lat="42.95225" lon="0.84765">
        <ele>1358.2</ele>
        <time>2019-08-17T10:04:04Z</time>
      </trkpt>
      <trkpt lat="42.95226" lon="0.84764">
        <ele>1358.6</ele>
        <time>2019-08-17T10:04:05Z</time>
      </trkpt>
      <trkpt lat="42.95227" lon="0.84764">
        <ele>1358.9</ele>
        <time>2019-08-17T10:04:06Z</time>
      </trkpt>
      <trkpt lat="42.95228" lon="0.84763">
        <ele>1359.2</ele>
        <time>2019-08-17T10:04:07Z</time>
      </trkpt>
      <trkpt lat="42.95229" lon="0.84763">
        <ele>1359.6</ele>
        <time>2019-08-17T10:04:08Z</time>
      </trkpt>
      <trkpt lat="42.9523" lon="0.84763">
        <ele>1359.8</ele>
        <time>2019-08-17T10:04:09Z</time>
      </trkpt>
      <trkpt lat="42.9523" lon="0.84762">
        <ele>1360</ele>
        <time>2019-08-17T10:04:10Z</time>
      </trkpt>
      <trkpt lat="42.95231" lon="0.84762">
        <ele>1360.2</ele>
        <time>2019-08-17T10:04:11Z</time>
      </trkpt>
      <trkpt lat="42.95232" lon="0.84761">
        <ele>1360.5</ele>
        <time>2019-08-17T10:04:12Z</time>
      </trkpt>
      <trkpt lat="42.95233" lon="0.84761">
        <ele>1360.7</ele>
        <time>2019-08-17T10:04:13Z</time>
      </trkpt>
      <trkpt lat="42.95234" lon="0.8476">
        <ele>1360.9</ele>
        <time>2019-08-17T10:04:14Z</time>
      </trkpt>
      <trkpt lat="42.95235" lon="0.8476">
        <ele>1361.2</ele>
        <time>2019-08-17T10:04:15Z</time>
      </trkpt>
      <trkpt lat="42.95236" lon="0.8476">
        <ele>1361.4</ele>
        <time>2019-08-17T10:04:16Z</time>
      </trkpt>
      <trkpt lat="42.95237" lon="0.84759">
        <ele>1361.6</ele>
        <time>2019-08-17T10:04:17Z</time>
      </trkpt>
      <trkpt lat="42.95238" lon="0.84759">
        <ele>1361.9</ele>
        <time>2019-08-17T10:04:18Z</time>
      </trkpt>
      <trkpt lat="42.95239" lon="0.84758">
        <ele>1362.1</ele>
        <time>2019-08-17T10:04:19Z</time>
      </trkpt>
      <trkpt lat="42.9524" lon="0.84758">
        <ele>1362.4</ele>
        <time>2019-08-17T10:04:20Z</time>
      </trkpt>
      <trkpt lat="42.95241" lon="0.84757">
        <ele>1362.7</ele>
        <time>2019-08-17T10:04:21Z</time>
      </trkpt>
      <trkpt lat="42.95241" lon="0.84757">
        <ele>1363</ele>
        <time>2019-08-17T10:04:22Z</time>
      </trkpt>
      <trkpt lat="42.95242" lon="0.84757">
        <ele>1363.3</ele>
        <time>2019-08-17T10:04:23Z</time>
      </trkpt>
      <trkpt lat="42.95243" lon="0.84756">
        <ele>1363.6</ele>
        <time>2019-08-17T10:04:24Z</time>
      </trkpt>
      <trkpt lat="42.95244" lon="0.84756">
        <ele>1363.9</ele>
        <time>2019-08-17T10:04:25Z</time>
      </trkpt>
      <trkpt lat="42.95245" lon="0.84755">
        <ele>1364.2</ele>
        <time>2019-08-17T10:04:26Z</time>
      </trkpt>
      <trkpt lat="42.95246" lon="0.84755">
        <ele>1364.4</ele>
        <time>2019-08-17T10:04:27Z</time>
      </trkpt>
      <trkpt lat="42.95247" lon="0.84755">
        <ele>1364.8</ele>
        <time>2019-08-17T10:04:28Z</time>
      </trkpt>
      <trkpt lat="42.95248" lon="0.84754">
        <ele>1365.2</ele>
        <time>2019-08-17T10:04:29Z</time>
      </trkpt>
      <trkpt lat="42.95249" lon="0.84754">
        <ele>1365.5</ele>
        <time>2019-08-17T10:04:30Z</time>
      </trkpt>
      <trkpt lat="42.9525" lon="0.84753">
        <ele>1365.9</ele>
        <time>2019-08-17T10:04:31Z</time>
      </trkpt>
      <trkpt lat="42.95251" lon="0.84753">
        <ele>1366.2</ele>
        <time>2019-08-17T10:04:32Z</time>
      </trkpt>
      <trkpt lat="42.95251" lon="0.84752">
        <ele>1366.5</ele>
        <time>2019-08-17T10:04:33Z</time>
      </trkpt>
      <trkpt lat="42.95252" lon="0.84752">
        <ele>1366.9</ele>
        <time>2019-08-17T10:04:34Z</time>
      </trkpt>
      <trkpt lat="42.95253" lon="0.84752">
        <ele>1367.2</ele>
        <time>2019-08-17T10:04:35Z</time>
      </trkpt>
      <trkpt lat="42.95254" lon="0.84751">
        <ele>1367.6</ele>
        <time>2019-08-17T10:04:36Z</time>
      </trkpt>
      <trkpt lat="42.95255" lon="0.84751">
        <ele>1367.9</ele>
        <time>2019-08-17T10:04:37Z</time>
      </trkpt>
      <trkpt lat="42.95256" lon="0.8475">
        <ele>1368.1</ele>
        <time>2019-08-17T10:04:38Z</time>
      </trkpt>
      <trkpt lat="42.95257" lon="0.8475">
        <ele>1368.3</ele>
        <time>2019-08-17T10:04:39Z</time>
      </trkpt>
      <trkpt lat="42.95258" lon="0.84749">
        <ele>1368.5</ele>
        <time>2019-08-17T10:04:40Z</time>
      </trkpt>
      <trkpt lat="42.95259" lon="0.84749">
        <ele>1368.8</ele>
        <time>2019-08-17T10:04:41Z</time>
      </trkpt>
      <trkpt lat="42.9526" lon="0.84749">
        <ele>1369</ele>
        <time>2019-08-17T10:04:42Z</time>
      </trkpt>
      <trkpt lat="42.95261" lon="0.84748">
        <ele>1369.2</ele>
        <time>2019-08-17T10:04:43Z</time>
      </trkpt>
      <trkpt lat="42.95261" lon="0.84748">
        <ele>1369.4</ele>
        <time>2019-08-17T10:04:44Z</time>
      </trkpt>
      <trkpt lat="42.95262" lon="0.84747">
        <ele>1369.6</ele>
        <time>2019-08-17T10:04:45Z</time>
      </trkpt>
      <trkpt lat="42.95263" lon="0.84747">
        <ele>1369.9</ele>
        <time>2019-08-17T10:04:46Z</time>
      </trkpt>
      <trkpt lat="42.95264" lon="0.84746">
        <ele>1370.1</ele>
        <time>2019-08-17T10:04:47Z</time>
      </trkpt>
      <trkpt lat="42.95265" lon="0.84746">
        <ele>1370.4</ele>
        <time>2019-08-17T10:04:48Z</time>
      </trkpt>
      <trkpt lat="42.95267" lon="0.84746">
        <ele>1370.9</ele>
        <time>2019-08-17T10:04:49Z</time>
      </trkpt>
      <trkpt lat="42.95267" lon="0.84746">
        <ele>1371.1</ele>
        <time>2019-08-17T10:04:50Z</time>
      </trkpt>
      <trkpt lat="42.95269" lon="0.84746">
        <ele>1371.5</ele>
        <time>2019-08-17T10:04:51Z</time>
      </trkpt>
      <trkpt lat="42.9527" lon="0.84747">
        <ele>1371.8</ele>
        <time>2019-08-17T10:04:52Z</time>
      </trkpt>
      <trkpt lat="42.95271" lon="0.84747">
        <ele>1372.1</ele>
        <time>2019-08-17T10:04:53Z</time>
      </trkpt>
      <trkpt lat="42.95272" lon="0.84747">
        <ele>1372.4</ele>
        <time>2019-08-17T10:04:54Z</time>
      </trkpt>
      <trkpt lat="42.95273" lon="0.84747">
        <ele>1372.7</ele>
        <time>2019-08-17T10:04:55Z</time>
      </trkpt>
      <trkpt lat="42.95274" lon="0.84747">
        <ele>1372.9</ele>
        <time>2019-08-17T10:04:56Z</time>
      </trkpt>
      <trkpt lat="42.95274" lon="0.84747">
        <ele>1373.1</ele>
        <time>2019-08-17T10:04:57Z</time>
      </trkpt>
      <trkpt lat="42.95275" lon="0.84747">
        <ele>1373.2</ele>
        <time>2019-08-17T10:04:58Z</time>
      </trkpt>
      <trkpt lat="42.95276" lon="0.84747">
        <ele>1373.4</ele>
        <time>2019-08-17T10:04:59Z</time>
      </trkpt>
      <trkpt lat="42.95276" lon="0.84747">
        <ele>1373.5</ele>
        <time>2019-08-17T10:05:00Z</time>
      </trkpt>
      <trkpt lat="42.95277" lon="0.84747">
        <ele>1373.7</ele>
        <time>2019-08-17T10:05:01Z</time>
      </trkpt>
      <trkpt lat="42.95277" lon="0.84746">
        <ele>1373.8</ele>
        <time>2019-08-17T10:05:02Z</time>
      </trkpt>
      <trkpt lat="42.95278" lon="0.84746">
        <ele>1373.9</ele>
        <time>2019-08-17T10:05:03Z</time>
      </trkpt>
      <trkpt lat="42.95278" lon="0.84746">
        <ele>1373.9</ele>
        <time>2019-08-17T10:05:04Z</time>
      </trkpt>
      <trkpt lat="42.95278" lon="0.84746">
        <ele>1374</ele>
        <time>2019-08-17T10:05:05Z</time>
      </trkpt>
      <trkpt lat="42.95279" lon="0.84746">
        <ele>1374.1</ele>
        <time>2019-08-17T10:05:06Z</time>
      </trkpt>
      <trkpt lat="42.95279" lon="0.84746">
        <ele>1374.2</ele>
        <time>2019-08-17T10:05:07Z</time>
      </trkpt>
      <trkpt lat="42.9528" lon="0.84746">
        <ele>1374.3</ele>
        <time>2019-08-17T10:05:08Z</time>
      </trkpt>
      <trkpt lat="42.9528" lon="0.84746">
        <ele>1374.5</ele>
        <time>2019-08-17T10:05:09Z</time>
      </trkpt>
      <trkpt lat="42.95281" lon="0.84747">
        <ele>1374.6</ele>
        <time>2019-08-17T10:05:10Z</time>
      </trkpt>
      <trkpt lat="42.95282" lon="0.84747">
        <ele>1374.8</ele>
        <time>2019-08-17T10:05:11Z</time>
      </trkpt>
      <trkpt lat="42.95282" lon="0.84747">
        <ele>1374.9</ele>
        <time>2019-08-17T10:05:12Z</time>
      </trkpt>
      <trkpt lat="42.95282" lon="0.84747">
        <ele>1375</ele>
        <time>2019-08-17T10:05:13Z</time>
      </trkpt>
      <trkpt lat="42.95283" lon="0.84747">
        <ele>1375.2</ele>
        <time>2019-08-17T10:05:14Z</time>
      </trkpt>
      <trkpt lat="42.95284" lon="0.84747">
        <ele>1375.5</ele>
        <time>2019-08-17T10:05:15Z</time>
      </trkpt>
      <trkpt lat="42.95285" lon="0.84747">
        <ele>1376</ele>
        <time>2019-08-17T10:05:16Z</time>
      </trkpt>
      <trkpt lat="42.95286" lon="0.84747">
        <ele>1376.5</ele>
        <time>2019-08-17T10:05:17Z</time>
      </trkpt>
      <trkpt lat="42.95288" lon="0.84747">
        <ele>1377.1</ele>
        <time>2019-08-17T10:05:18Z</time>
      </trkpt>
      <trkpt lat="42.95289" lon="0.84747">
        <ele>1377.5</ele>
        <time>2019-08-17T10:05:19Z</time>
      </trkpt>
      <trkpt lat="42.9529" lon="0.84747">
        <ele>1377.9</ele>
        <time>2019-08-17T10:05:20Z</time>
      </trkpt>
      <trkpt lat="42.95291" lon="0.84747">
        <ele>1378.1</ele>
        <time>2019-08-17T10:05:21Z</time>
      </trkpt>
      <trkpt lat="42.95291" lon="0.84747">
        <ele>1378.2</ele>
        <time>2019-08-17T10:05:22Z</time>
      </trkpt>
      <trkpt lat="42.95292" lon="0.84747">
        <ele>1378.4</ele>
        <time>2019-08-17T10:05:23Z</time>
      </trkpt>
      <trkpt lat="42.95293" lon="0.84747">
        <ele>1378.7</ele>
        <time>2019-08-17T10:05:24Z</time>
      </trkpt>
      <trkpt lat="42.95294" lon="0.84747">
        <ele>1378.9</ele>
        <time>2019-08-17T10:05:25Z</time>
      </trkpt>
      <trkpt lat="42.95295" lon="0.84747">
        <ele>1379.2</ele>
        <time>2019-08-17T10:05:26Z</time>
      </trkpt>
      <trkpt lat="42.95295" lon="0.84747">
        <ele>1379.4</ele>
        <time>2019-08-17T10:05:27Z</time>
      </trkpt>
      <trkpt lat="42.95296" lon="0.84747">
        <ele>1379.7</ele>
        <time>2019-08-17T10:05:28Z</time>
      </trkpt>
      <trkpt lat="42.95297" lon="0.84747">
        <ele>1379.9</ele>
        <time>2019-08-17T10:05:29Z</time>
      </trkpt>
      <trkpt lat="42.95298" lon="0.84747">
        <ele>1380.3</ele>
        <time>2019-08-17T10:05:30Z</time>
      </trkpt>
      <trkpt lat="42.95299" lon="0.84747">
        <ele>1380.4</ele>
        <time>2019-08-17T10:05:31Z</time>
      </trkpt>
      <trkpt lat="42.95299" lon="0.84747">
        <ele>1380.5</ele>
        <time>2019-08-17T10:05:32Z</time>
      </trkpt>
      <trkpt lat="42.95299" lon="0.84747">
        <ele>1380.6</ele>
        <time>2019-08-17T10:05:33Z</time>
      </trkpt>
      <trkpt lat="42.953" lon="0.84747">
        <ele>1380.7</ele>
        <time>2019-08-17T10:05:34Z</time>
      </trkpt>
      <trkpt lat="42.953" lon="0.84747">
        <ele>1380.8</ele>
        <time>2019-08-17T10:05:35Z</time>
      </trkpt>
      <trkpt lat="42.95302" lon="0.84748">
        <ele>1381.2</ele>
        <time>2019-08-17T10:05:36Z</time>
      </trkpt>
      <trkpt lat="42.95303" lon="0.84749">
        <ele>1381.4</ele>
        <time>2019-08-17T10:05:37Z</time>
      </trkpt>
      <trkpt lat="42.95303" lon="0.8475">
        <ele>1381.5</ele>
        <time>2019-08-17T10:05:38Z</time>
      </trkpt>
      <trkpt lat="42.95304" lon="0.8475">
        <ele>1381.7</ele>
        <time>2019-08-17T10:05:39Z</time>
      </trkpt>
      <trkpt lat="42.95305" lon="0.84751">
        <ele>1381.9</ele>
        <time>2019-08-17T10:05:40Z</time>
      </trkpt>
      <trkpt lat="42.95305" lon="0.84751">
        <ele>1382.1</ele>
        <time>2019-08-17T10:05:41Z</time>
      </trkpt>
      <trkpt lat="42.95306" lon="0.84752">
        <ele>1382.3</ele>
        <time>2019-08-17T10:05:42Z</time>
      </trkpt>
      <trkpt lat="42.95307" lon="0.84752">
        <ele>1382.5</ele>
        <time>2019-08-17T10:05:43Z</time>
      </trkpt>
      <trkpt lat="42.95308" lon="0.84753">
        <ele>1382.7</ele>
        <time>2019-08-17T10:05:44Z</time>
      </trkpt>
      <trkpt lat="42.95308" lon="0.84754">
        <ele>1382.9</ele>
        <time>2019-08-17T10:05:45Z</time>
      </trkpt>
      <trkpt lat="42.95309" lon="0.84754">
        <ele>1383.1</ele>
        <time>2019-08-17T10:05:46Z</time>
      </trkpt>
      <trkpt lat="42.9531" lon="0.84755">
        <ele>1383.3</ele>
        <time>2019-08-17T10:05:47Z</time>
      </trkpt>
      <trkpt lat="42.95311" lon="0.84755">
        <ele>1383.5</ele>
        <time>2019-08-17T10:05:48Z</time>
      </trkpt>
      <trkpt lat="42.95311" lon="0.84756">
        <ele>1383.7</ele>
        <time>2019-08-17T10:05:49Z</time>
      </trkpt>
      <trkpt lat="42.95312" lon="0.84756">
        <ele>1383.9</ele>
        <time>2019-08-17T10:05:50Z</time>
      </trkpt>
      <trkpt lat="42.95313" lon="0.84757">
        <ele>1384.1</ele>
        <time>2019-08-17T10:05:51Z</time>
      </trkpt>
      <trkpt lat="42.95314" lon="0.84758">
        <ele>1384.3</ele>
        <time>2019-08-17T10:05:52Z</time>
      </trkpt>
      <trkpt lat="42.95314" lon="0.84758">
        <ele>1384.5</ele>
        <time>2019-08-17T10:05:53Z</time>
      </trkpt>
      <trkpt lat="42.95315" lon="0.84759">
        <ele>1384.7</ele>
        <time>2019-08-17T10:05:54Z</time>
      </trkpt>
      <trkpt lat="42.95316" lon="0.84759">
        <ele>1384.9</ele>
        <time>2019-08-17T10:05:55Z</time>
      </trkpt>
      <trkpt lat="42.95317" lon="0.8476">
        <ele>1385.2</ele>
        <time>2019-08-17T10:05:56Z</time>
      </trkpt>
      <trkpt lat="42.95317" lon="0.84761">
        <ele>1385.4</ele>
        <time>2019-08-17T10:05:57Z</time>
      </trkpt>
      <trkpt lat="42.95318" lon="0.84761">
        <ele>1385.6</ele>
        <time>2019-08-17T10:05:58Z</time>
      </trkpt>
      <trkpt lat="42.95318" lon="0.84761">
        <ele>1385.8</ele>
        <time>2019-08-17T10:05:59Z</time>
      </trkpt>
      <trkpt lat="42.95319" lon="0.84762">
        <ele>1385.9</ele>
        <time>2019-08-17T10:06:00Z</time>
      </trkpt>
      <trkpt lat="42.95319" lon="0.84762">
        <ele>1386.1</ele>
        <time>2019-08-17T10:06:01Z</time>
      </trkpt>
      <trkpt lat="42.95319" lon="0.84762">
        <ele>1386.3</ele>
        <time>2019-08-17T10:06:02Z</time>
      </trkpt>
      <trkpt lat="42.9532" lon="0.84763">
        <ele>1386.4</ele>
        <time>2019-08-17T10:06:03Z</time>
      </trkpt>
      <trkpt lat="42.9532" lon="0.84763">
        <ele>1386.6</ele>
        <time>2019-08-17T10:06:04Z</time>
      </trkpt>
      <trkpt lat="42.95321" lon="0.84764">
        <ele>1386.8</ele>
        <time>2019-08-17T10:06:05Z</time>
      </trkpt>
      <trkpt lat="42.95321" lon="0.84764">
        <ele>1386.9</ele>
        <time>2019-08-17T10:06:06Z</time>
      </trkpt>
      <trkpt lat="42.95322" lon="0.84764">
        <ele>1387.1</ele>
        <time>2019-08-17T10:06:07Z</time>
      </trkpt>
      <trkpt lat="42.95322" lon="0.84765">
        <ele>1387.4</ele>
        <time>2019-08-17T10:06:08Z</time>
      </trkpt>
      <trkpt lat="42.95323" lon="0.84766">
        <ele>1387.6</ele>
        <time>2019-08-17T10:06:09Z</time>
      </trkpt>
      <trkpt lat="42.95323" lon="0.84766">
        <ele>1387.8</ele>
        <time>2019-08-17T10:06:10Z</time>
      </trkpt>
      <trkpt lat="42.95324" lon="0.84767">
        <ele>1387.9</ele>
        <time>2019-08-17T10:06:11Z</time>
      </trkpt>
      <trkpt lat="42.95324" lon="0.84767">
        <ele>1388.1</ele>
        <time>2019-08-17T10:06:12Z</time>
      </trkpt>
      <trkpt lat="42.95325" lon="0.84769">
        <ele>1388.4</ele>
        <time>2019-08-17T10:06:13Z</time>
      </trkpt>
      <trkpt lat="42.95326" lon="0.84769">
        <ele>1388.6</ele>
        <time>2019-08-17T10:06:14Z</time>
      </trkpt>
      <trkpt lat="42.95326" lon="0.8477">
        <ele>1388.7</ele>
        <time>2019-08-17T10:06:15Z</time>
      </trkpt>
      <trkpt lat="42.95326" lon="0.84771">
        <ele>1388.8</ele>
        <time>2019-08-17T10:06:16Z</time>
      </trkpt>
      <trkpt lat="42.95327" lon="0.84771">
        <ele>1389</ele>
        <time>2019-08-17T10:06:17Z</time>
      </trkpt>
      <trkpt lat="42.95327" lon="0.84772">
        <ele>1389.1</ele>
        <time>2019-08-17T10:06:18Z</time>
      </trkpt>
      <trkpt lat="42.95328" lon="0.84772">
        <ele>1389.2</ele>
        <time>2019-08-17T10:06:19Z</time>
      </trkpt>
      <trkpt lat="42.95328" lon="0.84773">
        <ele>1389.3</ele>
        <time>2019-08-17T10:06:20Z</time>
      </trkpt>
      <trkpt lat="42.95328" lon="0.84773">
        <ele>1389.5</ele>
        <time>2019-08-17T10:06:21Z</time>
      </trkpt>
      <trkpt lat="42.95329" lon="0.84774">
        <ele>1389.6</ele>
        <time>2019-08-17T10:06:22Z</time>
      </trkpt>
      <trkpt lat="42.95329" lon="0.84774">
        <ele>1389.7</ele>
        <time>2019-08-17T10:06:23Z</time>
      </trkpt>
      <trkpt lat="42.9533" lon="0.84775">
        <ele>1389.9</ele>
        <time>2019-08-17T10:06:24Z</time>
      </trkpt>
      <trkpt lat="42.9533" lon="0.84775">
        <ele>1390</ele>
        <time>2019-08-17T10:06:25Z</time>
      </trkpt>
      <trkpt lat="42.95331" lon="0.84776">
        <ele>1390.1</ele>
        <time>2019-08-17T10:06:26Z</time>
      </trkpt>
      <trkpt lat="42.95331" lon="0.84776">
        <ele>1390.3</ele>
        <time>2019-08-17T10:06:27Z</time>
      </trkpt>
      <trkpt lat="42.95331" lon="0.84777">
        <ele>1390.4</ele>
        <time>2019-08-17T10:06:28Z</time>
      </trkpt>
      <trkpt lat="42.95332" lon="0.84777">
        <ele>1390.5</ele>
        <time>2019-08-17T10:06:29Z</time>
      </trkpt>
      <trkpt lat="42.95332" lon="0.84778">
        <ele>1390.6</ele>
        <time>2019-08-17T10:06:30Z</time>
      </trkpt>
      <trkpt lat="42.95333" lon="0.84778">
        <ele>1390.8</ele>
        <time>2019-08-17T10:06:31Z</time>
      </trkpt>
      <trkpt lat="42.95333" lon="0.84779">
        <ele>1390.9</ele>
        <time>2019-08-17T10:06:32Z</time>
      </trkpt>
      <trkpt lat="42.95333" lon="0.84779">
        <ele>1391.1</ele>
        <time>2019-08-17T10:06:33Z</time>
      </trkpt>
      <trkpt lat="42.95334" lon="0.8478">
        <ele>1391.2</ele>
        <time>2019-08-17T10:06:34Z</time>
      </trkpt>
      <trkpt lat="42.95334" lon="0.8478">
        <ele>1391.3</ele>
        <time>2019-08-17T10:06:35Z</time>
      </trkpt>
      <trkpt lat="42.95335" lon="0.84781">
        <ele>1391.5</ele>
        <time>2019-08-17T10:06:36Z</time>
      </trkpt>
      <trkpt lat="42.95335" lon="0.84781">
        <ele>1391.6</ele>
        <time>2019-08-17T10:06:37Z</time>
      </trkpt>
      <trkpt lat="42.95335" lon="0.84782">
        <ele>1391.7</ele>
        <time>2019-08-17T10:06:38Z</time>
      </trkpt>
      <trkpt lat="42.95336" lon="0.84782">
        <ele>1391.9</ele>
        <time>2019-08-17T10:06:39Z</time>
      </trkpt>
      <trkpt lat="42.95336" lon="0.84783">
        <ele>1392</ele>
        <time>2019-08-17T10:06:40Z</time>
      </trkpt>
      <trkpt lat="42.95337" lon="0.84783">
        <ele>1392.1</ele>
        <time>2019-08-17T10:06:41Z</time>
      </trkpt>
      <trkpt lat="42.95337" lon="0.84784">
        <ele>1392.3</ele>
        <time>2019-08-17T10:06:42Z</time>
      </trkpt>
      <trkpt lat="42.95337" lon="0.84784">
        <ele>1392.5</ele>
        <time>2019-08-17T10:06:43Z</time>
      </trkpt>
      <trkpt lat="42.95338" lon="0.84785">
        <ele>1392.7</ele>
        <time>2019-08-17T10:06:44Z</time>
      </trkpt>
      <trkpt lat="42.95338" lon="0.84785">
        <ele>1392.9</ele>
        <time>2019-08-17T10:06:45Z</time>
      </trkpt>
      <trkpt lat="42.95339" lon="0.84786">
        <ele>1393.1</ele>
        <time>2019-08-17T10:06:46Z</time>
      </trkpt>
      <trkpt lat="42.95339" lon="0.84786">
        <ele>1393.3</ele>
        <time>2019-08-17T10:06:47Z</time>
      </trkpt>
      <trkpt lat="42.95339" lon="0.84787">
        <ele>1393.5</ele>
        <time>2019-08-17T10:06:48Z</time>
      </trkpt>
      <trkpt lat="42.9534" lon="0.84787">
        <ele>1393.7</ele>
        <time>2019-08-17T10:06:49Z</time>
      </trkpt>
      <trkpt lat="42.9534" lon="0.84788">
        <ele>1394</ele>
        <time>2019-08-17T10:06:50Z</time>
      </trkpt>
      <trkpt lat="42.95341" lon="0.84788">
        <ele>1394.2</ele>
        <time>2019-08-17T10:06:51Z</time>
      </trkpt>
      <trkpt lat="42.95341" lon="0.84789">
        <ele>1394.3</ele>
        <time>2019-08-17T10:06:52Z</time>
      </trkpt>
      <trkpt lat="42.95342" lon="0.84789">
        <ele>1394.5</ele>
        <time>2019-08-17T10:06:53Z</time>
      </trkpt>
      <trkpt lat="42.95342" lon="0.84789">
        <ele>1394.7</ele>
        <time>2019-08-17T10:06:54Z</time>
      </trkpt>
      <trkpt lat="42.95343" lon="0.84789">
        <ele>1394.8</ele>
        <time>2019-08-17T10:06:55Z</time>
      </trkpt>
      <trkpt lat="42.95343" lon="0.84789">
        <ele>1395</ele>
        <time>2019-08-17T10:06:56Z</time>
      </trkpt>
      <trkpt lat="42.95344" lon="0.84789">
        <ele>1395.2</ele>
        <time>2019-08-17T10:06:57Z</time>
      </trkpt>
      <trkpt lat="42.95344" lon="0.8479">
        <ele>1395.3</ele>
        <time>2019-08-17T10:06:58Z</time>
      </trkpt>
      <trkpt lat="42.95344" lon="0.8479">
        <ele>1395.5</ele>
        <time>2019-08-17T10:06:59Z</time>
      </trkpt>
      <trkpt lat="42.95345" lon="0.8479">
        <ele>1395.7</ele>
        <time>2019-08-17T10:07:00Z</time>
      </trkpt>
      <trkpt lat="42.95345" lon="0.8479">
        <ele>1395.8</ele>
        <time>2019-08-17T10:07:01Z</time>
      </trkpt>
      <trkpt lat="42.95346" lon="0.8479">
        <ele>1396</ele>
        <time>2019-08-17T10:07:02Z</time>
      </trkpt>
      <trkpt lat="42.95346" lon="0.84791">
        <ele>1396.1</ele>
        <time>2019-08-17T10:07:03Z</time>
      </trkpt>
      <trkpt lat="42.95347" lon="0.84791">
        <ele>1396.2</ele>
        <time>2019-08-17T10:07:04Z</time>
      </trkpt>
      <trkpt lat="42.95347" lon="0.84791">
        <ele>1396.3</ele>
        <time>2019-08-17T10:07:05Z</time>
      </trkpt>
      <trkpt lat="42.95348" lon="0.84791">
        <ele>1396.4</ele>
        <time>2019-08-17T10:07:06Z</time>
      </trkpt>
      <trkpt lat="42.95348" lon="0.84791">
        <ele>1396.5</ele>
        <time>2019-08-17T10:07:07Z</time>
      </trkpt>
      <trkpt lat="42.95349" lon="0.84792">
        <ele>1396.7</ele>
        <time>2019-08-17T10:07:08Z</time>
      </trkpt>
      <trkpt lat="42.95349" lon="0.84792">
        <ele>1396.8</ele>
        <time>2019-08-17T10:07:09Z</time>
      </trkpt>
      <trkpt lat="42.95349" lon="0.84792">
        <ele>1396.9</ele>
        <time>2019-08-17T10:07:10Z</time>
      </trkpt>
      <trkpt lat="42.9535" lon="0.84792">
        <ele>1397</ele>
        <time>2019-08-17T10:07:11Z</time>
      </trkpt>
      <trkpt lat="42.9535" lon="0.84792">
        <ele>1397.1</ele>
        <time>2019-08-17T10:07:12Z</time>
      </trkpt>
      <trkpt lat="42.95351" lon="0.84793">
        <ele>1397.3</ele>
        <time>2019-08-17T10:07:13Z</time>
      </trkpt>
      <trkpt lat="42.95351" lon="0.84793">
        <ele>1397.4</ele>
        <time>2019-08-17T10:07:14Z</time>
      </trkpt>
      <trkpt lat="42.95352" lon="0.84793">
        <ele>1397.5</ele>
        <time>2019-08-17T10:07:15Z</time>
      </trkpt>
      <trkpt lat="42.95352" lon="0.84793">
        <ele>1397.6</ele>
        <time>2019-08-17T10:07:16Z</time>
      </trkpt>
      <trkpt lat="42.95353" lon="0.84793">
        <ele>1397.8</ele>
        <time>2019-08-17T10:07:17Z</time>
      </trkpt>
      <trkpt lat="42.95353" lon="0.84793">
        <ele>1397.9</ele>
        <time>2019-08-17T10:07:18Z</time>
      </trkpt>
      <trkpt lat="42.95353" lon="0.84794">
        <ele>1398</ele>
        <time>2019-08-17T10:07:19Z</time>
      </trkpt>
      <trkpt lat="42.95354" lon="0.84794">
        <ele>1398.1</ele>
        <time>2019-08-17T10:07:20Z</time>
      </trkpt>
      <trkpt lat="42.95354" lon="0.84794">
        <ele>1398.2</ele>
        <time>2019-08-17T10:07:21Z</time>
      </trkpt>
      <trkpt lat="42.95355" lon="0.84794">
        <ele>1398.4</ele>
        <time>2019-08-17T10:07:22Z</time>
      </trkpt>
      <trkpt lat="42.95355" lon="0.84794">
        <ele>1398.5</ele>
        <time>2019-08-17T10:07:23Z</time>
      </trkpt>
      <trkpt lat="42.95356" lon="0.84795">
        <ele>1398.7</ele>
        <time>2019-08-17T10:07:24Z</time>
      </trkpt>
      <trkpt lat="42.95356" lon="0.84795">
        <ele>1398.9</ele>
        <time>2019-08-17T10:07:25Z</time>
      </trkpt>
      <trkpt lat="42.95357" lon="0.84795">
        <ele>1399</ele>
        <time>2019-08-17T10:07:26Z</time>
      </trkpt>
      <trkpt lat="42.95357" lon="0.84795">
        <ele>1399.2</ele>
        <time>2019-08-17T10:07:27Z</time>
      </trkpt>
      <trkpt lat="42.95357" lon="0.84795">
        <ele>1399.4</ele>
        <time>2019-08-17T10:07:28Z</time>
      </trkpt>
      <trkpt lat="42.95358" lon="0.84796">
        <ele>1399.5</ele>
        <time>2019-08-17T10:07:29Z</time>
      </trkpt>
      <trkpt lat="42.95358" lon="0.84796">
        <ele>1399.6</ele>
        <time>2019-08-17T10:07:30Z</time>
      </trkpt>
      <trkpt lat="42.95359" lon="0.84796">
        <ele>1399.8</ele>
        <time>2019-08-17T10:07:31Z</time>
      </trkpt>
      <trkpt lat="42.95359" lon="0.84796">
        <ele>1400</ele>
        <time>2019-08-17T10:07:32Z</time>
      </trkpt>
      <trkpt lat="42.9536" lon="0.84796">
        <ele>1400.1</ele>
        <time>2019-08-17T10:07:33Z</time>
      </trkpt>
      <trkpt lat="42.9536" lon="0.84797">
        <ele>1400.3</ele>
        <time>2019-08-17T10:07:34Z</time>
      </trkpt>
      <trkpt lat="42.95361" lon="0.84797">
        <ele>1400.5</ele>
        <time>2019-08-17T10:07:35Z</time>
      </trkpt>
      <trkpt lat="42.95361" lon="0.84797">
        <ele>1400.6</ele>
        <time>2019-08-17T10:07:36Z</time>
      </trkpt>
      <trkpt lat="42.95361" lon="0.84797">
        <ele>1400.8</ele>
        <time>2019-08-17T10:07:37Z</time>
      </trkpt>
      <trkpt lat="42.95362" lon="0.84797">
        <ele>1400.9</ele>
        <time>2019-08-17T10:07:38Z</time>
      </trkpt>
      <trkpt lat="42.95362" lon="0.84798">
        <ele>1401.1</ele>
        <time>2019-08-17T10:07:39Z</time>
      </trkpt>
      <trkpt lat="42.95363" lon="0.84798">
        <ele>1401.2</ele>
        <time>2019-08-17T10:07:40Z</time>
      </trkpt>
      <trkpt lat="42.95363" lon="0.84798">
        <ele>1401.4</ele>
        <time>2019-08-17T10:07:41Z</time>
      </trkpt>
      <trkpt lat="42.95364" lon="0.84798">
        <ele>1401.5</ele>
        <time>2019-08-17T10:07:42Z</time>
      </trkpt>
      <trkpt lat="42.95364" lon="0.84798">
        <ele>1401.6</ele>
        <time>2019-08-17T10:07:43Z</time>
      </trkpt>
      <trkpt lat="42.95365" lon="0.84798">
        <ele>1401.7</ele>
        <time>2019-08-17T10:07:44Z</time>
      </trkpt>
      <trkpt lat="42.95365" lon="0.84799">
        <ele>1401.8</ele>
        <time>2019-08-17T10:07:45Z</time>
      </trkpt>
      <trkpt lat="42.95365" lon="0.84799">
        <ele>1402</ele>
        <time>2019-08-17T10:07:46Z</time>
      </trkpt>
      <trkpt lat="42.95366" lon="0.84799">
        <ele>1402.1</ele>
        <time>2019-08-17T10:07:47Z</time>
      </trkpt>
      <trkpt lat="42.95366" lon="0.84799">
        <ele>1402.2</ele>
        <time>2019-08-17T10:07:48Z</time>
      </trkpt>
      <trkpt lat="42.95367" lon="0.84799">
        <ele>1402.3</ele>
        <time>2019-08-17T10:07:49Z</time>
      </trkpt>
      <trkpt lat="42.95367" lon="0.848">
        <ele>1402.4</ele>
        <time>2019-08-17T10:07:50Z</time>
      </trkpt>
      <trkpt lat="42.95368" lon="0.848">
        <ele>1402.5</ele>
        <time>2019-08-17T10:07:51Z</time>
      </trkpt>
      <trkpt lat="42.95368" lon="0.848">
        <ele>1402.6</ele>
        <time>2019-08-17T10:07:52Z</time>
      </trkpt>
      <trkpt lat="42.95369" lon="0.848">
        <ele>1402.7</ele>
        <time>2019-08-17T10:07:53Z</time>
      </trkpt>
      <trkpt lat="42.95369" lon="0.848">
        <ele>1402.8</ele>
        <time>2019-08-17T10:07:54Z</time>
      </trkpt>
      <trkpt lat="42.95369" lon="0.84801">
        <ele>1403</ele>
        <time>2019-08-17T10:07:55Z</time>
      </trkpt>
      <trkpt lat="42.9537" lon="0.84801">
        <ele>1403.1</ele>
        <time>2019-08-17T10:07:56Z</time>
      </trkpt>
      <trkpt lat="42.9537" lon="0.84801">
        <ele>1403.2</ele>
        <time>2019-08-17T10:07:57Z</time>
      </trkpt>
      <trkpt lat="42.95371" lon="0.84801">
        <ele>1403.3</ele>
        <time>2019-08-17T10:07:58Z</time>
      </trkpt>
      <trkpt lat="42.95371" lon="0.84802">
        <ele>1403.5</ele>
        <time>2019-08-17T10:07:59Z</time>
      </trkpt>
      <trkpt lat="42.95371" lon="0.84803">
        <ele>1403.6</ele>
        <time>2019-08-17T10:08:00Z</time>
      </trkpt>
      <trkpt lat="42.95371" lon="0.84803">
        <ele>1403.7</ele>
        <time>2019-08-17T10:08:01Z</time>
      </trkpt>
      <trkpt lat="42.95371" lon="0.84804">
        <ele>1403.8</ele>
        <time>2019-08-17T10:08:02Z</time>
      </trkpt>
      <trkpt lat="42.95372" lon="0.84804">
        <ele>1403.9</ele>
        <time>2019-08-17T10:08:03Z</time>
      </trkpt>
      <trkpt lat="42.95372" lon="0.84805">
        <ele>1404</ele>
        <time>2019-08-17T10:08:04Z</time>
      </trkpt>
      <trkpt lat="42.95372" lon="0.84806">
        <ele>1404.1</ele>
        <time>2019-08-17T10:08:05Z</time>
      </trkpt>
      <trkpt lat="42.95372" lon="0.84806">
        <ele>1404.2</ele>
        <time>2019-08-17T10:08:06Z</time>
      </trkpt>
      <trkpt lat="42.95372" lon="0.84807">
        <ele>1404.3</ele>
        <time>2019-08-17T10:08:07Z</time>
      </trkpt>
      <trkpt lat="42.95372" lon="0.84808">
        <ele>1404.5</ele>
        <time>2019-08-17T10:08:08Z</time>
      </trkpt>
      <trkpt lat="42.95373" lon="0.84808">
        <ele>1404.6</ele>
        <time>2019-08-17T10:08:09Z</time>
      </trkpt>
      <trkpt lat="42.95373" lon="0.84808">
        <ele>1404.7</ele>
        <time>2019-08-17T10:08:10Z</time>
      </trkpt>
      <trkpt lat="42.95373" lon="0.84809">
        <ele>1404.8</ele>
        <time>2019-08-17T10:08:11Z</time>
      </trkpt>
      <trkpt lat="42.95374" lon="0.84809">
        <ele>1404.9</ele>
        <time>2019-08-17T10:08:12Z</time>
      </trkpt>
      <trkpt lat="42.95374" lon="0.8481">
        <ele>1405</ele>
        <time>2019-08-17T10:08:13Z</time>
      </trkpt>
      <trkpt lat="42.95374" lon="0.8481">
        <ele>1405.1</ele>
        <time>2019-08-17T10:08:14Z</time>
      </trkpt>
      <trkpt lat="42.95375" lon="0.8481">
        <ele>1405.2</ele>
        <time>2019-08-17T10:08:15Z</time>
      </trkpt>
      <trkpt lat="42.95375" lon="0.84811">
        <ele>1405.3</ele>
        <time>2019-08-17T10:08:16Z</time>
      </trkpt>
      <trkpt lat="42.95375" lon="0.84811">
        <ele>1405.4</ele>
        <time>2019-08-17T10:08:17Z</time>
      </trkpt>
      <trkpt lat="42.95376" lon="0.84812">
        <ele>1405.5</ele>
        <time>2019-08-17T10:08:18Z</time>
      </trkpt>
      <trkpt lat="42.95376" lon="0.84812">
        <ele>1405.6</ele>
        <time>2019-08-17T10:08:19Z</time>
      </trkpt>
      <trkpt lat="42.95377" lon="0.84812">
        <ele>1405.7</ele>
        <time>2019-08-17T10:08:20Z</time>
      </trkpt>
      <trkpt lat="42.95377" lon="0.84813">
        <ele>1405.8</ele>
        <time>2019-08-17T10:08:21Z</time>
      </trkpt>
      <trkpt lat="42.95377" lon="0.84813">
        <ele>1406</ele>
        <time>2019-08-17T10:08:22Z</time>
      </trkpt>
      <trkpt lat="42.95378" lon="0.84813">
        <ele>1406.1</ele>
        <time>2019-08-17T10:08:23Z</time>
      </trkpt>
      <trkpt lat="42.95378" lon="0.84814">
        <ele>1406.2</ele>
        <time>2019-08-17T10:08:24Z</time>
      </trkpt>
      <trkpt lat="42.95378" lon="0.84814">
        <ele>1406.3</ele>
        <time>2019-08-17T10:08:25Z</time>
      </trkpt>
      <trkpt lat="42.95379" lon="0.84815">
        <ele>1406.5</ele>
        <time>2019-08-17T10:08:26Z</time>
      </trkpt>
      <trkpt lat="42.95379" lon="0.84815">
        <ele>1406.6</ele>
        <time>2019-08-17T10:08:27Z</time>
      </trkpt>
      <trkpt lat="42.95379" lon="0.84815">
        <ele>1406.7</ele>
        <time>2019-08-17T10:08:28Z</time>
      </trkpt>
      <trkpt lat="42.9538" lon="0.84816">
        <ele>1406.9</ele>
        <time>2019-08-17T10:08:29Z</time>
      </trkpt>
      <trkpt lat="42.9538" lon="0.84816">
        <ele>1407</ele>
        <time>2019-08-17T10:08:30Z</time>
      </trkpt>
      <trkpt lat="42.9538" lon="0.84817">
        <ele>1407.1</ele>
        <time>2019-08-17T10:08:31Z</time>
      </trkpt>
      <trkpt lat="42.95381" lon="0.84817">
        <ele>1407.3</ele>
        <time>2019-08-17T10:08:32Z</time>
      </trkpt>
      <trkpt lat="42.95381" lon="0.84818">
        <ele>1407.5</ele>
        <time>2019-08-17T10:08:33Z</time>
      </trkpt>
      <trkpt lat="42.95382" lon="0.84818">
        <ele>1407.7</ele>
        <time>2019-08-17T10:08:34Z</time>
      </trkpt>
      <trkpt lat="42.95382" lon="0.84819">
        <ele>1407.8</ele>
        <time>2019-08-17T10:08:35Z</time>
      </trkpt>
      <trkpt lat="42.95382" lon="0.84819">
        <ele>1407.9</ele>
        <time>2019-08-17T10:08:36Z</time>
      </trkpt>
      <trkpt lat="42.95383" lon="0.8482">
        <ele>1408.1</ele>
        <time>2019-08-17T10:08:37Z</time>
      </trkpt>
      <trkpt lat="42.95383" lon="0.8482">
        <ele>1408.2</ele>
        <time>2019-08-17T10:08:38Z</time>
      </trkpt>
      <trkpt lat="42.95383" lon="0.84821">
        <ele>1408.3</ele>
        <time>2019-08-17T10:08:39Z</time>
      </trkpt>
      <trkpt lat="42.95384" lon="0.84821">
        <ele>1408.4</ele>
        <time>2019-08-17T10:08:40Z</time>
      </trkpt>
      <trkpt lat="42.95384" lon="0.84822">
        <ele>1408.5</ele>
        <time>2019-08-17T10:08:41Z</time>
      </trkpt>
      <trkpt lat="42.95384" lon="0.84822">
        <ele>1408.6</ele>
        <time>2019-08-17T10:08:42Z</time>
      </trkpt>
      <trkpt lat="42.95384" lon="0.84823">
        <ele>1408.6</ele>
        <time>2019-08-17T10:08:43Z</time>
      </trkpt>
      <trkpt lat="42.95385" lon="0.84823">
        <ele>1408.7</ele>
        <time>2019-08-17T10:08:44Z</time>
      </trkpt>
      <trkpt lat="42.95385" lon="0.84824">
        <ele>1408.8</ele>
        <time>2019-08-17T10:08:45Z</time>
      </trkpt>
      <trkpt lat="42.95385" lon="0.84824">
        <ele>1408.9</ele>
        <time>2019-08-17T10:08:46Z</time>
      </trkpt>
      <trkpt lat="42.95386" lon="0.84825">
        <ele>1408.9</ele>
        <time>2019-08-17T10:08:47Z</time>
      </trkpt>
      <trkpt lat="42.95386" lon="0.84825">
        <ele>1409</ele>
        <time>2019-08-17T10:08:48Z</time>
      </trkpt>
      <trkpt lat="42.95387" lon="0.84826">
        <ele>1409.2</ele>
        <time>2019-08-17T10:08:49Z</time>
      </trkpt>
      <trkpt lat="42.95387" lon="0.84827">
        <ele>1409.3</ele>
        <time>2019-08-17T10:08:50Z</time>
      </trkpt>
      <trkpt lat="42.95387" lon="0.84827">
        <ele>1409.4</ele>
        <time>2019-08-17T10:08:51Z</time>
      </trkpt>
      <trkpt lat="42.95387" lon="0.84828">
        <ele>1409.4</ele>
        <time>2019-08-17T10:08:52Z</time>
      </trkpt>
      <trkpt lat="42.95388" lon="0.84828">
        <ele>1409.5</ele>
        <time>2019-08-17T10:08:53Z</time>
      </trkpt>
      <trkpt lat="42.95388" lon="0.84829">
        <ele>1409.6</ele>
        <time>2019-08-17T10:08:54Z</time>
      </trkpt>
      <trkpt lat="42.95388" lon="0.8483">
        <ele>1409.7</ele>
        <time>2019-08-17T10:08:55Z</time>
      </trkpt>
      <trkpt lat="42.95388" lon="0.84831">
        <ele>1409.8</ele>
        <time>2019-08-17T10:08:56Z</time>
      </trkpt>
      <trkpt lat="42.95389" lon="0.84832">
        <ele>1410</ele>
        <time>2019-08-17T10:08:57Z</time>
      </trkpt>
      <trkpt lat="42.95389" lon="0.84832">
        <ele>1410.1</ele>
        <time>2019-08-17T10:08:58Z</time>
      </trkpt>
      <trkpt lat="42.9539" lon="0.84833">
        <ele>1410.2</ele>
        <time>2019-08-17T10:08:59Z</time>
      </trkpt>
      <trkpt lat="42.9539" lon="0.84834">
        <ele>1410.3</ele>
        <time>2019-08-17T10:09:00Z</time>
      </trkpt>
      <trkpt lat="42.9539" lon="0.84835">
        <ele>1410.4</ele>
        <time>2019-08-17T10:09:01Z</time>
      </trkpt>
      <trkpt lat="42.95391" lon="0.84835">
        <ele>1410.6</ele>
        <time>2019-08-17T10:09:02Z</time>
      </trkpt>
      <trkpt lat="42.95391" lon="0.84836">
        <ele>1410.7</ele>
        <time>2019-08-17T10:09:03Z</time>
      </trkpt>
      <trkpt lat="42.95392" lon="0.84837">
        <ele>1410.8</ele>
        <time>2019-08-17T10:09:04Z</time>
      </trkpt>
      <trkpt lat="42.95392" lon="0.84837">
        <ele>1410.9</ele>
        <time>2019-08-17T10:09:05Z</time>
      </trkpt>
      <trkpt lat="42.95393" lon="0.84838">
        <ele>1410.9</ele>
        <time>2019-08-17T10:09:06Z</time>
      </trkpt>
      <trkpt lat="42.95393" lon="0.84838">
        <ele>1411</ele>
        <time>2019-08-17T10:09:07Z</time>
      </trkpt>
      <trkpt lat="42.95393" lon="0.84838">
        <ele>1411.1</ele>
        <time>2019-08-17T10:09:08Z</time>
      </trkpt>
      <trkpt lat="42.95393" lon="0.84839">
        <ele>1411.1</ele>
        <time>2019-08-17T10:09:09Z</time>
      </trkpt>
      <trkpt lat="42.95393" lon="0.84839">
        <ele>1411.2</ele>
        <time>2019-08-17T10:09:10Z</time>
      </trkpt>
      <trkpt lat="42.95394" lon="0.84839">
        <ele>1411.3</ele>
        <time>2019-08-17T10:09:11Z</time>
      </trkpt>
      <trkpt lat="42.95394" lon="0.8484">
        <ele>1411.3</ele>
        <time>2019-08-17T10:09:12Z</time>
      </trkpt>
      <trkpt lat="42.95394" lon="0.8484">
        <ele>1411.4</ele>
        <time>2019-08-17T10:09:13Z</time>
      </trkpt>
      <trkpt lat="42.95395" lon="0.8484">
        <ele>1411.5</ele>
        <time>2019-08-17T10:09:14Z</time>
      </trkpt>
      <trkpt lat="42.95396" lon="0.84841">
        <ele>1411.7</ele>
        <time>2019-08-17T10:09:15Z</time>
      </trkpt>
      <trkpt lat="42.95396" lon="0.84841">
        <ele>1411.9</ele>
        <time>2019-08-17T10:09:16Z</time>
      </trkpt>
      <trkpt lat="42.95396" lon="0.84842">
        <ele>1411.9</ele>
        <time>2019-08-17T10:09:17Z</time>
      </trkpt>
      <trkpt lat="42.95397" lon="0.84842">
        <ele>1412</ele>
        <time>2019-08-17T10:09:18Z</time>
      </trkpt>
      <trkpt lat="42.95397" lon="0.84842">
        <ele>1412</ele>
        <time>2019-08-17T10:09:19Z</time>
      </trkpt>
      <trkpt lat="42.95397" lon="0.84842">
        <ele>1412</ele>
        <time>2019-08-17T10:09:20Z</time>
      </trkpt>
      <trkpt lat="42.95397" lon="0.84842">
        <ele>1412</ele>
        <time>2019-08-17T10:09:21Z</time>
      </trkpt>
      <trkpt lat="42.95397" lon="0.84842">
        <ele>1412.1</ele>
        <time>2019-08-17T10:09:22Z</time>
      </trkpt>
      <trkpt lat="42.95397" lon="0.84842">
        <ele>1412.1</ele>
        <time>2019-08-17T10:09:23Z</time>
      </trkpt>
      <trkpt lat="42.95397" lon="0.84842">
        <ele>1412.1</ele>
        <time>2019-08-17T10:09:24Z</time>
      </trkpt>
      <trkpt lat="42.95397" lon="0.84842">
        <ele>1412.1</ele>
        <time>2019-08-17T10:09:25Z</time>
      </trkpt>
      <trkpt lat="42.95397" lon="0.84842">
        <ele>1412.1</ele>
        <time>2019-08-17T10:09:26Z</time>
      </trkpt>
      <trkpt lat="42.95397" lon="0.84842">
        <ele>1412.1</ele>
        <time>2019-08-17T10:09:27Z</time>
      </trkpt>
      <trkpt lat="42.95397" lon="0.84842">
        <ele>1412.1</ele>
        <time>2019-08-17T10:09:28Z</time>
      </trkpt>
      <trkpt lat="42.95397" lon="0.84842">
        <ele>1412.1</ele>
        <time>2019-08-17T10:09:29Z</time>
      </trkpt>
      <trkpt lat="42.95397" lon="0.84842">
        <ele>1412.1</ele>
        <time>2019-08-17T10:09:30Z</time>
      </trkpt>
      <trkpt lat="42.95397" lon="0.84842">
        <ele>1412.1</ele>
        <time>2019-08-17T10:09:31Z</time>
      </trkpt>
      <trkpt lat="42.95397" lon="0.84842">
        <ele>1412.1</ele>
        <time>2019-08-17T10:09:32Z</time>
      </trkpt>
      <trkpt lat="42.95397" lon="0.84842">
        <ele>1412.1</ele>
        <time>2019-08-17T10:09:33Z</time>
      </trkpt>
      <trkpt lat="42.95397" lon="0.84842">
        <ele>1412.1</ele>
        <time>2019-08-17T10:09:34Z</time>
      </trkpt>
      <trkpt lat="42.95397" lon="0.84842">
        <ele>1412.1</ele>
        <time>2019-08-17T10:09:35Z</time>
      </trkpt>
      <trkpt lat="42.95397" lon="0.84842">
        <ele>1412.1</ele>
        <time>2019-08-17T10:09:36Z</time>
      </trkpt>
      <trkpt lat="42.95397" lon="0.84842">
        <ele>1412.1</ele>
        <time>2019-08-17T10:09:37Z</time>
      </trkpt>
      <trkpt lat="42.95397" lon="0.84842">
        <ele>1412.1</ele>
        <time>2019-08-17T10:09:38Z</time>
      </trkpt>
      <trkpt lat="42.95397" lon="0.84842">
        <ele>1412.1</ele>
        <time>2019-08-17T10:09:39Z</time>
      </trkpt>
      <trkpt lat="42.95397" lon="0.84842">
        <ele>1412.1</ele>
        <time>2019-08-17T10:09:40Z</time>
      </trkpt>
      <trkpt lat="42.95397" lon="0.84842">
        <ele>1412.1</ele>
        <time>2019-08-17T10:09:41Z</time>
      </trkpt>
      <trkpt lat="42.95397" lon="0.84842">
        <ele>1412.1</ele>
        <time>2019-08-17T10:09:42Z</time>
      </trkpt>
      <trkpt lat="42.95397" lon="0.84842">
        <ele>1412.1</ele>
        <time>2019-08-17T10:09:43Z</time>
      </trkpt>
      <trkpt lat="42.95397" lon="0.84842">
        <ele>1412.1</ele>
        <time>2019-08-17T10:09:44Z</time>
      </trkpt>
      <trkpt lat="42.95397" lon="0.84842">
        <ele>1412.1</ele>
        <time>2019-08-17T10:09:45Z</time>
      </trkpt>
      <trkpt lat="42.95397" lon="0.84842">
        <ele>1412.1</ele>
        <time>2019-08-17T10:09:46Z</time>
      </trkpt>
      <trkpt lat="42.95397" lon="0.84842">
        <ele>1412.1</ele>
        <time>2019-08-17T10:09:47Z</time>
      </trkpt>
      <trkpt lat="42.95397" lon="0.84842">
        <ele>1412.2</ele>
        <time>2019-08-17T10:09:48Z</time>
      </trkpt>
      <trkpt lat="42.95397" lon="0.84842">
        <ele>1412.2</ele>
        <time>2019-08-17T10:09:49Z</time>
      </trkpt>
      <trkpt lat="42.95397" lon="0.84842">
        <ele>1412.2</ele>
        <time>2019-08-17T10:09:50Z</time>
      </trkpt>
      <trkpt lat="42.95397" lon="0.84842">
        <ele>1412.2</ele>
        <time>2019-08-17T10:09:51Z</time>
      </trkpt>
      <trkpt lat="42.95397" lon="0.84842">
        <ele>1412.2</ele>
        <time>2019-08-17T10:09:52Z</time>
      </trkpt>
      <trkpt lat="42.95397" lon="0.84842">
        <ele>1412.2</ele>
        <time>2019-08-17T10:09:53Z</time>
      </trkpt>
      <trkpt lat="42.95397" lon="0.84842">
        <ele>1412.3</ele>
        <time>2019-08-17T10:09:54Z</time>
      </trkpt>
      <trkpt lat="42.95398" lon="0.84842">
        <ele>1412.3</ele>
        <time>2019-08-17T10:09:55Z</time>
      </trkpt>
      <trkpt lat="42.95398" lon="0.84842">
        <ele>1412.4</ele>
        <time>2019-08-17T10:09:56Z</time>
      </trkpt>
      <trkpt lat="42.95398" lon="0.84842">
        <ele>1412.5</ele>
        <time>2019-08-17T10:09:57Z</time>
      </trkpt>
      <trkpt lat="42.95399" lon="0.84842">
        <ele>1412.6</ele>
        <time>2019-08-17T10:09:58Z</time>
      </trkpt>
      <trkpt lat="42.95399" lon="0.84842">
        <ele>1412.7</ele>
        <time>2019-08-17T10:09:59Z</time>
      </trkpt>
      <trkpt lat="42.954" lon="0.84842">
        <ele>1412.9</ele>
        <time>2019-08-17T10:10:00Z</time>
      </trkpt>
      <trkpt lat="42.95401" lon="0.84842">
        <ele>1413</ele>
        <time>2019-08-17T10:10:01Z</time>
      </trkpt>
      <trkpt lat="42.95401" lon="0.84842">
        <ele>1413.2</ele>
        <time>2019-08-17T10:10:02Z</time>
      </trkpt>
      <trkpt lat="42.95402" lon="0.84842">
        <ele>1413.4</ele>
        <time>2019-08-17T10:10:03Z</time>
      </trkpt>
      <trkpt lat="42.95403" lon="0.84842">
        <ele>1413.6</ele>
        <time>2019-08-17T10:10:04Z</time>
      </trkpt>
      <trkpt lat="42.95404" lon="0.84842">
        <ele>1413.8</ele>
        <time>2019-08-17T10:10:05Z</time>
      </trkpt>
      <trkpt lat="42.95405" lon="0.84842">
        <ele>1413.9</ele>
        <time>2019-08-17T10:10:06Z</time>
      </trkpt>
      <trkpt lat="42.95405" lon="0.84842">
        <ele>1414</ele>
        <time>2019-08-17T10:10:07Z</time>
      </trkpt>
      <trkpt lat="42.95406" lon="0.84843">
        <ele>1414.1</ele>
        <time>2019-08-17T10:10:08Z</time>
      </trkpt>
      <trkpt lat="42.95407" lon="0.84843">
        <ele>1414.2</ele>
        <time>2019-08-17T10:10:09Z</time>
      </trkpt>
      <trkpt lat="42.95407" lon="0.84843">
        <ele>1414.3</ele>
        <time>2019-08-17T10:10:10Z</time>
      </trkpt>
      <trkpt lat="42.95408" lon="0.84844">
        <ele>1414.4</ele>
        <time>2019-08-17T10:10:11Z</time>
      </trkpt>
      <trkpt lat="42.95408" lon="0.84844">
        <ele>1414.4</ele>
        <time>2019-08-17T10:10:12Z</time>
      </trkpt>
      <trkpt lat="42.95409" lon="0.84844">
        <ele>1414.5</ele>
        <time>2019-08-17T10:10:13Z</time>
      </trkpt>
      <trkpt lat="42.9541" lon="0.84844">
        <ele>1414.6</ele>
        <time>2019-08-17T10:10:14Z</time>
      </trkpt>
      <trkpt lat="42.9541" lon="0.84844">
        <ele>1414.7</ele>
        <time>2019-08-17T10:10:15Z</time>
      </trkpt>
      <trkpt lat="42.95411" lon="0.84845">
        <ele>1414.7</ele>
        <time>2019-08-17T10:10:16Z</time>
      </trkpt>
      <trkpt lat="42.95411" lon="0.84845">
        <ele>1414.8</ele>
        <time>2019-08-17T10:10:17Z</time>
      </trkpt>
      <trkpt lat="42.95412" lon="0.84845">
        <ele>1414.9</ele>
        <time>2019-08-17T10:10:18Z</time>
      </trkpt>
      <trkpt lat="42.95413" lon="0.84845">
        <ele>1415</ele>
        <time>2019-08-17T10:10:19Z</time>
      </trkpt>
      <trkpt lat="42.95414" lon="0.84845">
        <ele>1415.2</ele>
        <time>2019-08-17T10:10:20Z</time>
      </trkpt>
      <trkpt lat="42.95415" lon="0.84845">
        <ele>1415.3</ele>
        <time>2019-08-17T10:10:21Z</time>
      </trkpt>
      <trkpt lat="42.95416" lon="0.84846">
        <ele>1415.5</ele>
        <time>2019-08-17T10:10:22Z</time>
      </trkpt>
      <trkpt lat="42.95417" lon="0.84846">
        <ele>1415.6</ele>
        <time>2019-08-17T10:10:23Z</time>
      </trkpt>
      <trkpt lat="42.95418" lon="0.84847">
        <ele>1415.8</ele>
        <time>2019-08-17T10:10:24Z</time>
      </trkpt>
      <trkpt lat="42.95419" lon="0.84848">
        <ele>1415.9</ele>
        <time>2019-08-17T10:10:25Z</time>
      </trkpt>
      <trkpt lat="42.9542" lon="0.84848">
        <ele>1416</ele>
        <time>2019-08-17T10:10:26Z</time>
      </trkpt>
      <trkpt lat="42.9542" lon="0.84849">
        <ele>1416.1</ele>
        <time>2019-08-17T10:10:27Z</time>
      </trkpt>
      <trkpt lat="42.95421" lon="0.8485">
        <ele>1416.2</ele>
        <time>2019-08-17T10:10:28Z</time>
      </trkpt>
      <trkpt lat="42.95421" lon="0.8485">
        <ele>1416.4</ele>
        <time>2019-08-17T10:10:29Z</time>
      </trkpt>
      <trkpt lat="42.95422" lon="0.84851">
        <ele>1416.5</ele>
        <time>2019-08-17T10:10:30Z</time>
      </trkpt>
      <trkpt lat="42.95422" lon="0.84852">
        <ele>1416.7</ele>
        <time>2019-08-17T10:10:31Z</time>
      </trkpt>
      <trkpt lat="42.95422" lon="0.84853">
        <ele>1416.9</ele>
        <time>2019-08-17T10:10:32Z</time>
      </trkpt>
      <trkpt lat="42.95423" lon="0.84853">
        <ele>1417.1</ele>
        <time>2019-08-17T10:10:33Z</time>
      </trkpt>
      <trkpt lat="42.95423" lon="0.84854">
        <ele>1417.3</ele>
        <time>2019-08-17T10:10:34Z</time>
      </trkpt>
      <trkpt lat="42.95424" lon="0.84855">
        <ele>1417.4</ele>
        <time>2019-08-17T10:10:35Z</time>
      </trkpt>
      <trkpt lat="42.95424" lon="0.84855">
        <ele>1417.6</ele>
        <time>2019-08-17T10:10:36Z</time>
      </trkpt>
      <trkpt lat="42.95425" lon="0.84856">
        <ele>1417.8</ele>
        <time>2019-08-17T10:10:37Z</time>
      </trkpt>
      <trkpt lat="42.95426" lon="0.84856">
        <ele>1418</ele>
        <time>2019-08-17T10:10:38Z</time>
      </trkpt>
      <trkpt lat="42.95427" lon="0.84857">
        <ele>1418.3</ele>
        <time>2019-08-17T10:10:39Z</time>
      </trkpt>
      <trkpt lat="42.95427" lon="0.84857">
        <ele>1418.5</ele>
        <time>2019-08-17T10:10:40Z</time>
      </trkpt>
      <trkpt lat="42.95428" lon="0.84858">
        <ele>1418.7</ele>
        <time>2019-08-17T10:10:41Z</time>
      </trkpt>
      <trkpt lat="42.95429" lon="0.84858">
        <ele>1418.9</ele>
        <time>2019-08-17T10:10:42Z</time>
      </trkpt>
      <trkpt lat="42.9543" lon="0.84858">
        <ele>1419</ele>
        <time>2019-08-17T10:10:43Z</time>
      </trkpt>
      <trkpt lat="42.95431" lon="0.84859">
        <ele>1419.1</ele>
        <time>2019-08-17T10:10:44Z</time>
      </trkpt>
      <trkpt lat="42.95431" lon="0.84859">
        <ele>1419.2</ele>
        <time>2019-08-17T10:10:45Z</time>
      </trkpt>
      <trkpt lat="42.95432" lon="0.8486">
        <ele>1419.4</ele>
        <time>2019-08-17T10:10:46Z</time>
      </trkpt>
      <trkpt lat="42.95433" lon="0.8486">
        <ele>1419.5</ele>
        <time>2019-08-17T10:10:47Z</time>
      </trkpt>
      <trkpt lat="42.95434" lon="0.8486">
        <ele>1419.6</ele>
        <time>2019-08-17T10:10:48Z</time>
      </trkpt>
      <trkpt lat="42.95434" lon="0.84861">
        <ele>1419.7</ele>
        <time>2019-08-17T10:10:49Z</time>
      </trkpt>
      <trkpt lat="42.95435" lon="0.84861">
        <ele>1419.8</ele>
        <time>2019-08-17T10:10:50Z</time>
      </trkpt>
      <trkpt lat="42.95436" lon="0.84861">
        <ele>1419.9</ele>
        <time>2019-08-17T10:10:51Z</time>
      </trkpt>
      <trkpt lat="42.95436" lon="0.84861">
        <ele>1420</ele>
        <time>2019-08-17T10:10:52Z</time>
      </trkpt>
      <trkpt lat="42.95437" lon="0.84862">
        <ele>1420.1</ele>
        <time>2019-08-17T10:10:53Z</time>
      </trkpt>
      <trkpt lat="42.95438" lon="0.84862">
        <ele>1420.2</ele>
        <time>2019-08-17T10:10:54Z</time>
      </trkpt>
      <trkpt lat="42.95438" lon="0.84862">
        <ele>1420.4</ele>
        <time>2019-08-17T10:10:55Z</time>
      </trkpt>
      <trkpt lat="42.95439" lon="0.84862">
        <ele>1420.5</ele>
        <time>2019-08-17T10:10:56Z</time>
      </trkpt>
      <trkpt lat="42.9544" lon="0.84863">
        <ele>1420.6</ele>
        <time>2019-08-17T10:10:57Z</time>
      </trkpt>
      <trkpt lat="42.95441" lon="0.84863">
        <ele>1420.8</ele>
        <time>2019-08-17T10:10:58Z</time>
      </trkpt>
      <trkpt lat="42.95441" lon="0.84863">
        <ele>1420.9</ele>
        <time>2019-08-17T10:10:59Z</time>
      </trkpt>
      <trkpt lat="42.95442" lon="0.84863">
        <ele>1421.1</ele>
        <time>2019-08-17T10:11:00Z</time>
      </trkpt>
      <trkpt lat="42.95443" lon="0.84864">
        <ele>1421.2</ele>
        <time>2019-08-17T10:11:01Z</time>
      </trkpt>
      <trkpt lat="42.95443" lon="0.84864">
        <ele>1421.4</ele>
        <time>2019-08-17T10:11:02Z</time>
      </trkpt>
      <trkpt lat="42.95444" lon="0.84864">
        <ele>1421.5</ele>
        <time>2019-08-17T10:11:03Z</time>
      </trkpt>
      <trkpt lat="42.95445" lon="0.84865">
        <ele>1421.7</ele>
        <time>2019-08-17T10:11:04Z</time>
      </trkpt>
      <trkpt lat="42.95446" lon="0.84865">
        <ele>1421.9</ele>
        <time>2019-08-17T10:11:05Z</time>
      </trkpt>
      <trkpt lat="42.95447" lon="0.84865">
        <ele>1422</ele>
        <time>2019-08-17T10:11:06Z</time>
      </trkpt>
      <trkpt lat="42.95447" lon="0.84866">
        <ele>1422.1</ele>
        <time>2019-08-17T10:11:07Z</time>
      </trkpt>
      <trkpt lat="42.95448" lon="0.84866">
        <ele>1422.3</ele>
        <time>2019-08-17T10:11:08Z</time>
      </trkpt>
      <trkpt lat="42.95449" lon="0.84866">
        <ele>1422.4</ele>
        <time>2019-08-17T10:11:09Z</time>
      </trkpt>
      <trkpt lat="42.9545" lon="0.84867">
        <ele>1422.5</ele>
        <time>2019-08-17T10:11:10Z</time>
      </trkpt>
      <trkpt lat="42.95451" lon="0.84867">
        <ele>1422.7</ele>
        <time>2019-08-17T10:11:11Z</time>
      </trkpt>
      <trkpt lat="42.95451" lon="0.84867">
        <ele>1422.8</ele>
        <time>2019-08-17T10:11:12Z</time>
      </trkpt>
      <trkpt lat="42.95452" lon="0.84868">
        <ele>1422.9</ele>
        <time>2019-08-17T10:11:13Z</time>
      </trkpt>
      <trkpt lat="42.95453" lon="0.84868">
        <ele>1423.1</ele>
        <time>2019-08-17T10:11:14Z</time>
      </trkpt>
      <trkpt lat="42.95454" lon="0.84869">
        <ele>1423.2</ele>
        <time>2019-08-17T10:11:15Z</time>
      </trkpt>
      <trkpt lat="42.95455" lon="0.84869">
        <ele>1423.3</ele>
        <time>2019-08-17T10:11:16Z</time>
      </trkpt>
      <trkpt lat="42.95455" lon="0.84869">
        <ele>1423.4</ele>
        <time>2019-08-17T10:11:17Z</time>
      </trkpt>
      <trkpt lat="42.95456" lon="0.8487">
        <ele>1423.5</ele>
        <time>2019-08-17T10:11:18Z</time>
      </trkpt>
      <trkpt lat="42.95457" lon="0.8487">
        <ele>1423.7</ele>
        <time>2019-08-17T10:11:19Z</time>
      </trkpt>
      <trkpt lat="42.95458" lon="0.84871">
        <ele>1423.8</ele>
        <time>2019-08-17T10:11:20Z</time>
      </trkpt>
      <trkpt lat="42.95459" lon="0.84871">
        <ele>1423.9</ele>
        <time>2019-08-17T10:11:21Z</time>
      </trkpt>
      <trkpt lat="42.95459" lon="0.84871">
        <ele>1424</ele>
        <time>2019-08-17T10:11:22Z</time>
      </trkpt>
      <trkpt lat="42.9546" lon="0.84872">
        <ele>1424.1</ele>
        <time>2019-08-17T10:11:23Z</time>
      </trkpt>
      <trkpt lat="42.95461" lon="0.84872">
        <ele>1424.2</ele>
        <time>2019-08-17T10:11:24Z</time>
      </trkpt>
      <trkpt lat="42.95462" lon="0.84872">
        <ele>1424.3</ele>
        <time>2019-08-17T10:11:25Z</time>
      </trkpt>
      <trkpt lat="42.95463" lon="0.84873">
        <ele>1424.4</ele>
        <time>2019-08-17T10:11:26Z</time>
      </trkpt>
      <trkpt lat="42.95463" lon="0.84873">
        <ele>1424.5</ele>
        <time>2019-08-17T10:11:27Z</time>
      </trkpt>
      <trkpt lat="42.95464" lon="0.84873">
        <ele>1424.6</ele>
        <time>2019-08-17T10:11:28Z</time>
      </trkpt>
      <trkpt lat="42.95465" lon="0.84874">
        <ele>1424.7</ele>
        <time>2019-08-17T10:11:29Z</time>
      </trkpt>
      <trkpt lat="42.95466" lon="0.84874">
        <ele>1424.8</ele>
        <time>2019-08-17T10:11:30Z</time>
      </trkpt>
      <trkpt lat="42.95467" lon="0.84874">
        <ele>1424.9</ele>
        <time>2019-08-17T10:11:31Z</time>
      </trkpt>
      <trkpt lat="42.95467" lon="0.84874">
        <ele>1424.9</ele>
        <time>2019-08-17T10:11:32Z</time>
      </trkpt>
      <trkpt lat="42.95468" lon="0.84875">
        <ele>1425</ele>
        <time>2019-08-17T10:11:33Z</time>
      </trkpt>
      <trkpt lat="42.95469" lon="0.84875">
        <ele>1425.1</ele>
        <time>2019-08-17T10:11:34Z</time>
      </trkpt>
      <trkpt lat="42.9547" lon="0.84875">
        <ele>1425.2</ele>
        <time>2019-08-17T10:11:35Z</time>
      </trkpt>
      <trkpt lat="42.9547" lon="0.84875">
        <ele>1425.3</ele>
        <time>2019-08-17T10:11:36Z</time>
      </trkpt>
      <trkpt lat="42.95471" lon="0.84876">
        <ele>1425.5</ele>
        <time>2019-08-17T10:11:37Z</time>
      </trkpt>
      <trkpt lat="42.95472" lon="0.84876">
        <ele>1425.7</ele>
        <time>2019-08-17T10:11:38Z</time>
      </trkpt>
      <trkpt lat="42.95473" lon="0.84876">
        <ele>1425.9</ele>
        <time>2019-08-17T10:11:39Z</time>
      </trkpt>
      <trkpt lat="42.95474" lon="0.84876">
        <ele>1426.1</ele>
        <time>2019-08-17T10:11:40Z</time>
      </trkpt>
      <trkpt lat="42.95474" lon="0.84876">
        <ele>1426.3</ele>
        <time>2019-08-17T10:11:41Z</time>
      </trkpt>
      <trkpt lat="42.95475" lon="0.84877">
        <ele>1426.5</ele>
        <time>2019-08-17T10:11:42Z</time>
      </trkpt>
      <trkpt lat="42.95476" lon="0.84877">
        <ele>1426.7</ele>
        <time>2019-08-17T10:11:43Z</time>
      </trkpt>
      <trkpt lat="42.95477" lon="0.84877">
        <ele>1426.9</ele>
        <time>2019-08-17T10:11:44Z</time>
      </trkpt>
      <trkpt lat="42.95478" lon="0.84877">
        <ele>1427.1</ele>
        <time>2019-08-17T10:11:45Z</time>
      </trkpt>
      <trkpt lat="42.95478" lon="0.84877">
        <ele>1427.3</ele>
        <time>2019-08-17T10:11:46Z</time>
      </trkpt>
      <trkpt lat="42.95479" lon="0.84877">
        <ele>1427.4</ele>
        <time>2019-08-17T10:11:47Z</time>
      </trkpt>
      <trkpt lat="42.9548" lon="0.84878">
        <ele>1427.5</ele>
        <time>2019-08-17T10:11:48Z</time>
      </trkpt>
      <trkpt lat="42.95481" lon="0.84878">
        <ele>1427.6</ele>
        <time>2019-08-17T10:11:49Z</time>
      </trkpt>
      <trkpt lat="42.95482" lon="0.84878">
        <ele>1427.7</ele>
        <time>2019-08-17T10:11:50Z</time>
      </trkpt>
      <trkpt lat="42.95483" lon="0.84878">
        <ele>1427.9</ele>
        <time>2019-08-17T10:11:51Z</time>
      </trkpt>
      <trkpt lat="42.95484" lon="0.84879">
        <ele>1428</ele>
        <time>2019-08-17T10:11:52Z</time>
      </trkpt>
      <trkpt lat="42.95484" lon="0.84879">
        <ele>1428.1</ele>
        <time>2019-08-17T10:11:53Z</time>
      </trkpt>
      <trkpt lat="42.95485" lon="0.8488">
        <ele>1428.2</ele>
        <time>2019-08-17T10:11:54Z</time>
      </trkpt>
      <trkpt lat="42.95486" lon="0.8488">
        <ele>1428.4</ele>
        <time>2019-08-17T10:11:55Z</time>
      </trkpt>
      <trkpt lat="42.95487" lon="0.8488">
        <ele>1428.5</ele>
        <time>2019-08-17T10:11:56Z</time>
      </trkpt>
      <trkpt lat="42.95488" lon="0.84881">
        <ele>1428.6</ele>
        <time>2019-08-17T10:11:57Z</time>
      </trkpt>
      <trkpt lat="42.95488" lon="0.84881">
        <ele>1428.7</ele>
        <time>2019-08-17T10:11:58Z</time>
      </trkpt>
      <trkpt lat="42.95489" lon="0.84881">
        <ele>1428.7</ele>
        <time>2019-08-17T10:11:59Z</time>
      </trkpt>
      <trkpt lat="42.95489" lon="0.84881">
        <ele>1428.8</ele>
        <time>2019-08-17T10:12:00Z</time>
      </trkpt>
      <trkpt lat="42.95489" lon="0.84881">
        <ele>1428.8</ele>
        <time>2019-08-17T10:12:01Z</time>
      </trkpt>
      <trkpt lat="42.95489" lon="0.84881">
        <ele>1428.8</ele>
        <time>2019-08-17T10:12:02Z</time>
      </trkpt>
      <trkpt lat="42.95489" lon="0.84881">
        <ele>1428.8</ele>
        <time>2019-08-17T10:12:03Z</time>
      </trkpt>
      <trkpt lat="42.95489" lon="0.84881">
        <ele>1428.8</ele>
        <time>2019-08-17T10:12:04Z</time>
      </trkpt>
      <trkpt lat="42.95489" lon="0.84881">
        <ele>1428.8</ele>
        <time>2019-08-17T10:12:05Z</time>
      </trkpt>
      <trkpt lat="42.95489" lon="0.84881">
        <ele>1428.8</ele>
        <time>2019-08-17T10:12:06Z</time>
      </trkpt>
      <trkpt lat="42.95489" lon="0.84881">
        <ele>1428.8</ele>
        <time>2019-08-17T10:12:07Z</time>
      </trkpt>
      <trkpt lat="42.95489" lon="0.84881">
        <ele>1428.8</ele>
        <time>2019-08-17T10:12:08Z</time>
      </trkpt>
      <trkpt lat="42.95489" lon="0.84881">
        <ele>1428.8</ele>
        <time>2019-08-17T10:12:09Z</time>
      </trkpt>
      <trkpt lat="42.95489" lon="0.84881">
        <ele>1428.8</ele>
        <time>2019-08-17T10:12:10Z</time>
      </trkpt>
      <trkpt lat="42.95489" lon="0.84881">
        <ele>1428.8</ele>
        <time>2019-08-17T10:12:11Z</time>
      </trkpt>
      <trkpt lat="42.95489" lon="0.84881">
        <ele>1428.8</ele>
        <time>2019-08-17T10:12:12Z</time>
      </trkpt>
      <trkpt lat="42.95489" lon="0.84881">
        <ele>1428.8</ele>
        <time>2019-08-17T10:12:13Z</time>
      </trkpt>
      <trkpt lat="42.95489" lon="0.84881">
        <ele>1428.8</ele>
        <time>2019-08-17T10:12:14Z</time>
      </trkpt>
      <trkpt lat="42.95489" lon="0.84881">
        <ele>1428.8</ele>
        <time>2019-08-17T10:12:15Z</time>
      </trkpt>
      <trkpt lat="42.95489" lon="0.84881">
        <ele>1428.8</ele>
        <time>2019-08-17T10:12:16Z</time>
      </trkpt>
      <trkpt lat="42.95489" lon="0.84881">
        <ele>1428.8</ele>
        <time>2019-08-17T10:12:17Z</time>
      </trkpt>
      <trkpt lat="42.95489" lon="0.84881">
        <ele>1428.8</ele>
        <time>2019-08-17T10:12:18Z</time>
      </trkpt>
      <trkpt lat="42.95489" lon="0.84881">
        <ele>1428.8</ele>
        <time>2019-08-17T10:12:19Z</time>
      </trkpt>
      <trkpt lat="42.95489" lon="0.84881">
        <ele>1428.8</ele>
        <time>2019-08-17T10:12:20Z</time>
      </trkpt>
      <trkpt lat="42.95489" lon="0.84881">
        <ele>1428.8</ele>
        <time>2019-08-17T10:12:21Z</time>
      </trkpt>
      <trkpt lat="42.95489" lon="0.84881">
        <ele>1428.8</ele>
        <time>2019-08-17T10:12:22Z</time>
      </trkpt>
      <trkpt lat="42.95489" lon="0.84881">
        <ele>1428.8</ele>
        <time>2019-08-17T10:12:23Z</time>
      </trkpt>
      <trkpt lat="42.95489" lon="0.84881">
        <ele>1428.8</ele>
        <time>2019-08-17T10:12:24Z</time>
      </trkpt>
      <trkpt lat="42.95489" lon="0.84881">
        <ele>1428.8</ele>
        <time>2019-08-17T10:12:25Z</time>
      </trkpt>
      <trkpt lat="42.95489" lon="0.84881">
        <ele>1428.8</ele>
        <time>2019-08-17T10:12:26Z</time>
      </trkpt>
      <trkpt lat="42.95489" lon="0.84881">
        <ele>1428.8</ele>
        <time>2019-08-17T10:12:27Z</time>
      </trkpt>
      <trkpt lat="42.95489" lon="0.84881">
        <ele>1428.8</ele>
        <time>2019-08-17T10:12:28Z</time>
      </trkpt>
      <trkpt lat="42.95489" lon="0.84881">
        <ele>1428.8</ele>
        <time>2019-08-17T10:12:29Z</time>
      </trkpt>
      <trkpt lat="42.95489" lon="0.84881">
        <ele>1428.9</ele>
        <time>2019-08-17T10:12:30Z</time>
      </trkpt>
      <trkpt lat="42.95489" lon="0.84882">
        <ele>1428.9</ele>
        <time>2019-08-17T10:12:31Z</time>
      </trkpt>
      <trkpt lat="42.95489" lon="0.84882">
        <ele>1429</ele>
        <time>2019-08-17T10:12:32Z</time>
      </trkpt>
      <trkpt lat="42.95488" lon="0.84883">
        <ele>1429.1</ele>
        <time>2019-08-17T10:12:33Z</time>
      </trkpt>
      <trkpt lat="42.95487" lon="0.84884">
        <ele>1429.3</ele>
        <time>2019-08-17T10:12:34Z</time>
      </trkpt>
      <trkpt lat="42.95486" lon="0.84884">
        <ele>1429.4</ele>
        <time>2019-08-17T10:12:35Z</time>
      </trkpt>
      <trkpt lat="42.95486" lon="0.84885">
        <ele>1429.5</ele>
        <time>2019-08-17T10:12:36Z</time>
      </trkpt>
      <trkpt lat="42.95486" lon="0.84885">
        <ele>1429.5</ele>
        <time>2019-08-17T10:12:37Z</time>
      </trkpt>
      <trkpt lat="42.95486" lon="0.84885">
        <ele>1429.5</ele>
        <time>2019-08-17T10:12:38Z</time>
      </trkpt>
      <trkpt lat="42.95486" lon="0.84885">
        <ele>1429.5</ele>
        <time>2019-08-17T10:12:39Z</time>
      </trkpt>
      <trkpt lat="42.95486" lon="0.84885">
        <ele>1429.5</ele>
        <time>2019-08-17T10:12:40Z</time>
      </trkpt>
      <trkpt lat="42.95486" lon="0.84885">
        <ele>1429.5</ele>
        <time>2019-08-17T10:12:41Z</time>
      </trkpt>
      <trkpt lat="42.95486" lon="0.84885">
        <ele>1429.5</ele>
        <time>2019-08-17T10:12:42Z</time>
      </trkpt>
      <trkpt lat="42.95486" lon="0.84885">
        <ele>1429.5</ele>
        <time>2019-08-17T10:12:43Z</time>
      </trkpt>
      <trkpt lat="42.95486" lon="0.84885">
        <ele>1429.5</ele>
        <time>2019-08-17T10:12:44Z</time>
      </trkpt>
      <trkpt lat="42.95486" lon="0.84885">
        <ele>1429.5</ele>
        <time>2019-08-17T10:12:45Z</time>
      </trkpt>
      <trkpt lat="42.95486" lon="0.84885">
        <ele>1429.5</ele>
        <time>2019-08-17T10:12:46Z</time>
      </trkpt>
      <trkpt lat="42.95486" lon="0.84885">
        <ele>1429.5</ele>
        <time>2019-08-17T10:12:47Z</time>
      </trkpt>
      <trkpt lat="42.95486" lon="0.84885">
        <ele>1429.5</ele>
        <time>2019-08-17T10:12:48Z</time>
      </trkpt>
      <trkpt lat="42.95486" lon="0.84885">
        <ele>1429.6</ele>
        <time>2019-08-17T10:12:49Z</time>
      </trkpt>
      <trkpt lat="42.95486" lon="0.84885">
        <ele>1429.6</ele>
        <time>2019-08-17T10:12:50Z</time>
      </trkpt>
      <trkpt lat="42.95485" lon="0.84885">
        <ele>1429.6</ele>
        <time>2019-08-17T10:12:51Z</time>
      </trkpt>
      <trkpt lat="42.95485" lon="0.84885">
        <ele>1429.6</ele>
        <time>2019-08-17T10:12:52Z</time>
      </trkpt>
      <trkpt lat="42.95485" lon="0.84885">
        <ele>1429.6</ele>
        <time>2019-08-17T10:12:53Z</time>
      </trkpt>
      <trkpt lat="42.95486" lon="0.84884">
        <ele>1429.6</ele>
        <time>2019-08-17T10:12:54Z</time>
      </trkpt>
      <trkpt lat="42.95486" lon="0.84884">
        <ele>1429.7</ele>
        <time>2019-08-17T10:12:55Z</time>
      </trkpt>
      <trkpt lat="42.95486" lon="0.84883">
        <ele>1429.9</ele>
        <time>2019-08-17T10:12:56Z</time>
      </trkpt>
      <trkpt lat="42.95486" lon="0.84882">
        <ele>1430.1</ele>
        <time>2019-08-17T10:12:57Z</time>
      </trkpt>
      <trkpt lat="42.95487" lon="0.84881">
        <ele>1430.4</ele>
        <time>2019-08-17T10:12:58Z</time>
      </trkpt>
      <trkpt lat="42.95488" lon="0.84881">
        <ele>1430.6</ele>
        <time>2019-08-17T10:12:59Z</time>
      </trkpt>
      <trkpt lat="42.95489" lon="0.84881">
        <ele>1430.8</ele>
        <time>2019-08-17T10:13:00Z</time>
      </trkpt>
      <trkpt lat="42.95489" lon="0.84881">
        <ele>1431</ele>
        <time>2019-08-17T10:13:01Z</time>
      </trkpt>
      <trkpt lat="42.95489" lon="0.84881">
        <ele>1431</ele>
        <time>2019-08-17T10:13:02Z</time>
      </trkpt>
      <trkpt lat="42.95489" lon="0.84881">
        <ele>1431</ele>
        <time>2019-08-17T10:13:03Z</time>
      </trkpt>
      <trkpt lat="42.95489" lon="0.84881">
        <ele>1431.1</ele>
        <time>2019-08-17T10:13:04Z</time>
      </trkpt>
      <trkpt lat="42.9549" lon="0.84881">
        <ele>1431.1</ele>
        <time>2019-08-17T10:13:05Z</time>
      </trkpt>
      <trkpt lat="42.9549" lon="0.84881">
        <ele>1431.1</ele>
        <time>2019-08-17T10:13:06Z</time>
      </trkpt>
      <trkpt lat="42.9549" lon="0.84881">
        <ele>1431.1</ele>
        <time>2019-08-17T10:13:07Z</time>
      </trkpt>
      <trkpt lat="42.9549" lon="0.84881">
        <ele>1431.1</ele>
        <time>2019-08-17T10:13:08Z</time>
      </trkpt>
      <trkpt lat="42.9549" lon="0.84881">
        <ele>1431.2</ele>
        <time>2019-08-17T10:13:09Z</time>
      </trkpt>
      <trkpt lat="42.9549" lon="0.84881">
        <ele>1431.3</ele>
        <time>2019-08-17T10:13:10Z</time>
      </trkpt>
      <trkpt lat="42.95491" lon="0.84881">
        <ele>1431.4</ele>
        <time>2019-08-17T10:13:11Z</time>
      </trkpt>
      <trkpt lat="42.95492" lon="0.84881">
        <ele>1431.6</ele>
        <time>2019-08-17T10:13:12Z</time>
      </trkpt>
      <trkpt lat="42.95492" lon="0.84881">
        <ele>1431.8</ele>
        <time>2019-08-17T10:13:13Z</time>
      </trkpt>
      <trkpt lat="42.95493" lon="0.84881">
        <ele>1432.1</ele>
        <time>2019-08-17T10:13:14Z</time>
      </trkpt>
      <trkpt lat="42.95494" lon="0.84881">
        <ele>1432.3</ele>
        <time>2019-08-17T10:13:15Z</time>
      </trkpt>
      <trkpt lat="42.95495" lon="0.84881">
        <ele>1432.5</ele>
        <time>2019-08-17T10:13:16Z</time>
      </trkpt>
      <trkpt lat="42.95496" lon="0.84881">
        <ele>1432.8</ele>
        <time>2019-08-17T10:13:17Z</time>
      </trkpt>
      <trkpt lat="42.95497" lon="0.84881">
        <ele>1433</ele>
        <time>2019-08-17T10:13:18Z</time>
      </trkpt>
      <trkpt lat="42.95498" lon="0.84881">
        <ele>1433.3</ele>
        <time>2019-08-17T10:13:19Z</time>
      </trkpt>
      <trkpt lat="42.95499" lon="0.84881">
        <ele>1433.5</ele>
        <time>2019-08-17T10:13:20Z</time>
      </trkpt>
      <trkpt lat="42.955" lon="0.84881">
        <ele>1433.8</ele>
        <time>2019-08-17T10:13:21Z</time>
      </trkpt>
      <trkpt lat="42.95501" lon="0.84881">
        <ele>1434</ele>
        <time>2019-08-17T10:13:22Z</time>
      </trkpt>
      <trkpt lat="42.95502" lon="0.84881">
        <ele>1434.3</ele>
        <time>2019-08-17T10:13:23Z</time>
      </trkpt>
      <trkpt lat="42.95503" lon="0.84881">
        <ele>1434.5</ele>
        <time>2019-08-17T10:13:24Z</time>
      </trkpt>
      <trkpt lat="42.95503" lon="0.84881">
        <ele>1434.7</ele>
        <time>2019-08-17T10:13:25Z</time>
      </trkpt>
      <trkpt lat="42.95504" lon="0.84881">
        <ele>1434.9</ele>
        <time>2019-08-17T10:13:26Z</time>
      </trkpt>
      <trkpt lat="42.95505" lon="0.84881">
        <ele>1435.1</ele>
        <time>2019-08-17T10:13:27Z</time>
      </trkpt>
      <trkpt lat="42.95506" lon="0.84881">
        <ele>1435.3</ele>
        <time>2019-08-17T10:13:28Z</time>
      </trkpt>
      <trkpt lat="42.95507" lon="0.84881">
        <ele>1435.5</ele>
        <time>2019-08-17T10:13:29Z</time>
      </trkpt>
      <trkpt lat="42.95508" lon="0.84881">
        <ele>1435.7</ele>
        <time>2019-08-17T10:13:30Z</time>
      </trkpt>
      <trkpt lat="42.95509" lon="0.84881">
        <ele>1435.9</ele>
        <time>2019-08-17T10:13:31Z</time>
      </trkpt>
      <trkpt lat="42.9551" lon="0.84882">
        <ele>1436.1</ele>
        <time>2019-08-17T10:13:32Z</time>
      </trkpt>
      <trkpt lat="42.95511" lon="0.84882">
        <ele>1436.2</ele>
        <time>2019-08-17T10:13:33Z</time>
      </trkpt>
      <trkpt lat="42.95512" lon="0.84881">
        <ele>1436.4</ele>
        <time>2019-08-17T10:13:34Z</time>
      </trkpt>
      <trkpt lat="42.95513" lon="0.84881">
        <ele>1436.6</ele>
        <time>2019-08-17T10:13:35Z</time>
      </trkpt>
      <trkpt lat="42.95514" lon="0.84881">
        <ele>1437</ele>
        <time>2019-08-17T10:13:36Z</time>
      </trkpt>
      <trkpt lat="42.95514" lon="0.84881">
        <ele>1437.3</ele>
        <time>2019-08-17T10:13:37Z</time>
      </trkpt>
      <trkpt lat="42.95515" lon="0.84881">
        <ele>1437.6</ele>
        <time>2019-08-17T10:13:38Z</time>
      </trkpt>
      <trkpt lat="42.95516" lon="0.84881">
        <ele>1438</ele>
        <time>2019-08-17T10:13:39Z</time>
      </trkpt>
      <trkpt lat="42.95517" lon="0.84881">
        <ele>1438.3</ele>
        <time>2019-08-17T10:13:40Z</time>
      </trkpt>
      <trkpt lat="42.95518" lon="0.8488">
        <ele>1438.5</ele>
        <time>2019-08-17T10:13:41Z</time>
      </trkpt>
      <trkpt lat="42.95518" lon="0.8488">
        <ele>1438.9</ele>
        <time>2019-08-17T10:13:42Z</time>
      </trkpt>
      <trkpt lat="42.95519" lon="0.8488">
        <ele>1439.2</ele>
        <time>2019-08-17T10:13:43Z</time>
      </trkpt>
      <trkpt lat="42.9552" lon="0.8488">
        <ele>1439.5</ele>
        <time>2019-08-17T10:13:44Z</time>
      </trkpt>
      <trkpt lat="42.95521" lon="0.84879">
        <ele>1439.8</ele>
        <time>2019-08-17T10:13:45Z</time>
      </trkpt>
      <trkpt lat="42.95521" lon="0.84879">
        <ele>1440.1</ele>
        <time>2019-08-17T10:13:46Z</time>
      </trkpt>
      <trkpt lat="42.95522" lon="0.84879">
        <ele>1440.3</ele>
        <time>2019-08-17T10:13:47Z</time>
      </trkpt>
      <trkpt lat="42.95523" lon="0.84879">
        <ele>1440.6</ele>
        <time>2019-08-17T10:13:48Z</time>
      </trkpt>
      <trkpt lat="42.95524" lon="0.84879">
        <ele>1440.9</ele>
        <time>2019-08-17T10:13:49Z</time>
      </trkpt>
      <trkpt lat="42.95525" lon="0.84879">
        <ele>1441.1</ele>
        <time>2019-08-17T10:13:50Z</time>
      </trkpt>
      <trkpt lat="42.95525" lon="0.84879">
        <ele>1441.4</ele>
        <time>2019-08-17T10:13:51Z</time>
      </trkpt>
      <trkpt lat="42.95526" lon="0.84879">
        <ele>1441.6</ele>
        <time>2019-08-17T10:13:52Z</time>
      </trkpt>
      <trkpt lat="42.95527" lon="0.84879">
        <ele>1441.9</ele>
        <time>2019-08-17T10:13:53Z</time>
      </trkpt>
      <trkpt lat="42.95528" lon="0.84878">
        <ele>1442.2</ele>
        <time>2019-08-17T10:13:54Z</time>
      </trkpt>
      <trkpt lat="42.95529" lon="0.84878">
        <ele>1442.5</ele>
        <time>2019-08-17T10:13:55Z</time>
      </trkpt>
      <trkpt lat="42.9553" lon="0.84878">
        <ele>1442.8</ele>
        <time>2019-08-17T10:13:56Z</time>
      </trkpt>
      <trkpt lat="42.95531" lon="0.84878">
        <ele>1443</ele>
        <time>2019-08-17T10:13:57Z</time>
      </trkpt>
      <trkpt lat="42.95531" lon="0.84878">
        <ele>1443.4</ele>
        <time>2019-08-17T10:13:58Z</time>
      </trkpt>
      <trkpt lat="42.95532" lon="0.84878">
        <ele>1443.7</ele>
        <time>2019-08-17T10:13:59Z</time>
      </trkpt>
      <trkpt lat="42.95533" lon="0.84878">
        <ele>1444</ele>
        <time>2019-08-17T10:14:00Z</time>
      </trkpt>
      <trkpt lat="42.95534" lon="0.84878">
        <ele>1444.4</ele>
        <time>2019-08-17T10:14:01Z</time>
      </trkpt>
      <trkpt lat="42.95535" lon="0.84877">
        <ele>1444.7</ele>
        <time>2019-08-17T10:14:02Z</time>
      </trkpt>
      <trkpt lat="42.95536" lon="0.84877">
        <ele>1445</ele>
        <time>2019-08-17T10:14:03Z</time>
      </trkpt>
      <trkpt lat="42.95537" lon="0.84877">
        <ele>1445.4</ele>
        <time>2019-08-17T10:14:04Z</time>
      </trkpt>
      <trkpt lat="42.95537" lon="0.84876">
        <ele>1445.7</ele>
        <time>2019-08-17T10:14:05Z</time>
      </trkpt>
      <trkpt lat="42.95538" lon="0.84876">
        <ele>1446</ele>
        <time>2019-08-17T10:14:06Z</time>
      </trkpt>
      <trkpt lat="42.95539" lon="0.84875">
        <ele>1446.3</ele>
        <time>2019-08-17T10:14:07Z</time>
      </trkpt>
      <trkpt lat="42.95539" lon="0.84875">
        <ele>1446.6</ele>
        <time>2019-08-17T10:14:08Z</time>
      </trkpt>
      <trkpt lat="42.9554" lon="0.84874">
        <ele>1446.9</ele>
        <time>2019-08-17T10:14:09Z</time>
      </trkpt>
      <trkpt lat="42.95541" lon="0.84874">
        <ele>1447.1</ele>
        <time>2019-08-17T10:14:10Z</time>
      </trkpt>
      <trkpt lat="42.95541" lon="0.84873">
        <ele>1447.2</ele>
        <time>2019-08-17T10:14:11Z</time>
      </trkpt>
      <trkpt lat="42.95542" lon="0.84872">
        <ele>1447.4</ele>
        <time>2019-08-17T10:14:12Z</time>
      </trkpt>
      <trkpt lat="42.95542" lon="0.84872">
        <ele>1447.6</ele>
        <time>2019-08-17T10:14:13Z</time>
      </trkpt>
      <trkpt lat="42.95543" lon="0.84871">
        <ele>1447.8</ele>
        <time>2019-08-17T10:14:14Z</time>
      </trkpt>
      <trkpt lat="42.95544" lon="0.8487">
        <ele>1448</ele>
        <time>2019-08-17T10:14:15Z</time>
      </trkpt>
      <trkpt lat="42.95544" lon="0.8487">
        <ele>1448.3</ele>
        <time>2019-08-17T10:14:16Z</time>
      </trkpt>
      <trkpt lat="42.95545" lon="0.84869">
        <ele>1448.4</ele>
        <time>2019-08-17T10:14:17Z</time>
      </trkpt>
      <trkpt lat="42.95546" lon="0.84869">
        <ele>1448.6</ele>
        <time>2019-08-17T10:14:18Z</time>
      </trkpt>
      <trkpt lat="42.95546" lon="0.84868">
        <ele>1448.8</ele>
        <time>2019-08-17T10:14:19Z</time>
      </trkpt>
      <trkpt lat="42.95547" lon="0.84868">
        <ele>1449</ele>
        <time>2019-08-17T10:14:20Z</time>
      </trkpt>
      <trkpt lat="42.95547" lon="0.84868">
        <ele>1449.1</ele>
        <time>2019-08-17T10:14:21Z</time>
      </trkpt>
      <trkpt lat="42.95548" lon="0.84868">
        <ele>1449.3</ele>
        <time>2019-08-17T10:14:22Z</time>
      </trkpt>
      <trkpt lat="42.95548" lon="0.84867">
        <ele>1449.5</ele>
        <time>2019-08-17T10:14:23Z</time>
      </trkpt>
      <trkpt lat="42.95549" lon="0.84867">
        <ele>1449.7</ele>
        <time>2019-08-17T10:14:24Z</time>
      </trkpt>
      <trkpt lat="42.9555" lon="0.84867">
        <ele>1449.9</ele>
        <time>2019-08-17T10:14:25Z</time>
      </trkpt>
      <trkpt lat="42.9555" lon="0.84866">
        <ele>1450.1</ele>
        <time>2019-08-17T10:14:26Z</time>
      </trkpt>
      <trkpt lat="42.95551" lon="0.84866">
        <ele>1450.3</ele>
        <time>2019-08-17T10:14:27Z</time>
      </trkpt>
      <trkpt lat="42.95552" lon="0.84866">
        <ele>1450.6</ele>
        <time>2019-08-17T10:14:28Z</time>
      </trkpt>
      <trkpt lat="42.95552" lon="0.84865">
        <ele>1450.9</ele>
        <time>2019-08-17T10:14:29Z</time>
      </trkpt>
      <trkpt lat="42.95553" lon="0.84864">
        <ele>1451.1</ele>
        <time>2019-08-17T10:14:30Z</time>
      </trkpt>
      <trkpt lat="42.95554" lon="0.84864">
        <ele>1451.4</ele>
        <time>2019-08-17T10:14:31Z</time>
      </trkpt>
      <trkpt lat="42.95554" lon="0.84863">
        <ele>1451.7</ele>
        <time>2019-08-17T10:14:32Z</time>
      </trkpt>
      <trkpt lat="42.95555" lon="0.84862">
        <ele>1452</ele>
        <time>2019-08-17T10:14:33Z</time>
      </trkpt>
      <trkpt lat="42.95556" lon="0.84862">
        <ele>1452.3</ele>
        <time>2019-08-17T10:14:34Z</time>
      </trkpt>
      <trkpt lat="42.95557" lon="0.84861">
        <ele>1452.6</ele>
        <time>2019-08-17T10:14:35Z</time>
      </trkpt>
      <trkpt lat="42.95557" lon="0.84861">
        <ele>1452.9</ele>
        <time>2019-08-17T10:14:36Z</time>
      </trkpt>
      <trkpt lat="42.95558" lon="0.84861">
        <ele>1453.1</ele>
        <time>2019-08-17T10:14:37Z</time>
      </trkpt>
      <trkpt lat="42.95558" lon="0.8486">
        <ele>1453.4</ele>
        <time>2019-08-17T10:14:38Z</time>
      </trkpt>
      <trkpt lat="42.95559" lon="0.8486">
        <ele>1453.6</ele>
        <time>2019-08-17T10:14:39Z</time>
      </trkpt>
      <trkpt lat="42.95559" lon="0.8486">
        <ele>1453.7</ele>
        <time>2019-08-17T10:14:40Z</time>
      </trkpt>
      <trkpt lat="42.95559" lon="0.8486">
        <ele>1453.8</ele>
        <time>2019-08-17T10:14:41Z</time>
      </trkpt>
      <trkpt lat="42.95559" lon="0.8486">
        <ele>1453.9</ele>
        <time>2019-08-17T10:14:42Z</time>
      </trkpt>
      <trkpt lat="42.9556" lon="0.8486">
        <ele>1454.1</ele>
        <time>2019-08-17T10:14:43Z</time>
      </trkpt>
      <trkpt lat="42.9556" lon="0.84859">
        <ele>1454.2</ele>
        <time>2019-08-17T10:14:44Z</time>
      </trkpt>
      <trkpt lat="42.9556" lon="0.84859">
        <ele>1454.3</ele>
        <time>2019-08-17T10:14:45Z</time>
      </trkpt>
      <trkpt lat="42.95561" lon="0.84858">
        <ele>1454.9</ele>
        <time>2019-08-17T10:14:46Z</time>
      </trkpt>
      <trkpt lat="42.95562" lon="0.84857">
        <ele>1455.2</ele>
        <time>2019-08-17T10:14:47Z</time>
      </trkpt>
      <trkpt lat="42.95562" lon="0.84857">
        <ele>1455.5</ele>
        <time>2019-08-17T10:14:48Z</time>
      </trkpt>
      <trkpt lat="42.95563" lon="0.84857">
        <ele>1455.7</ele>
        <time>2019-08-17T10:14:49Z</time>
      </trkpt>
      <trkpt lat="42.95563" lon="0.84857">
        <ele>1455.9</ele>
        <time>2019-08-17T10:14:50Z</time>
      </trkpt>
      <trkpt lat="42.95564" lon="0.84857">
        <ele>1456.2</ele>
        <time>2019-08-17T10:14:51Z</time>
      </trkpt>
      <trkpt lat="42.95564" lon="0.84856">
        <ele>1456.3</ele>
        <time>2019-08-17T10:14:52Z</time>
      </trkpt>
      <trkpt lat="42.95565" lon="0.84856">
        <ele>1456.4</ele>
        <time>2019-08-17T10:14:53Z</time>
      </trkpt>
      <trkpt lat="42.95565" lon="0.84856">
        <ele>1456.5</ele>
        <time>2019-08-17T10:14:54Z</time>
      </trkpt>
      <trkpt lat="42.95565" lon="0.84856">
        <ele>1456.6</ele>
        <time>2019-08-17T10:14:55Z</time>
      </trkpt>
      <trkpt lat="42.95566" lon="0.84856">
        <ele>1456.7</ele>
        <time>2019-08-17T10:14:56Z</time>
      </trkpt>
      <trkpt lat="42.95566" lon="0.84856">
        <ele>1456.8</ele>
        <time>2019-08-17T10:14:57Z</time>
      </trkpt>
      <trkpt lat="42.95567" lon="0.84856">
        <ele>1456.9</ele>
        <time>2019-08-17T10:14:58Z</time>
      </trkpt>
      <trkpt lat="42.95567" lon="0.84856">
        <ele>1457</ele>
        <time>2019-08-17T10:14:59Z</time>
      </trkpt>
      <trkpt lat="42.95568" lon="0.84856">
        <ele>1457.1</ele>
        <time>2019-08-17T10:15:00Z</time>
      </trkpt>
      <trkpt lat="42.95568" lon="0.84856">
        <ele>1457.2</ele>
        <time>2019-08-17T10:15:01Z</time>
      </trkpt>
      <trkpt lat="42.95568" lon="0.84855">
        <ele>1457.3</ele>
        <time>2019-08-17T10:15:02Z</time>
      </trkpt>
      <trkpt lat="42.95569" lon="0.84855">
        <ele>1457.4</ele>
        <time>2019-08-17T10:15:03Z</time>
      </trkpt>
      <trkpt lat="42.95569" lon="0.84855">
        <ele>1457.5</ele>
        <time>2019-08-17T10:15:04Z</time>
      </trkpt>
      <trkpt lat="42.9557" lon="0.84855">
        <ele>1457.6</ele>
        <time>2019-08-17T10:15:05Z</time>
      </trkpt>
      <trkpt lat="42.9557" lon="0.84855">
        <ele>1457.7</ele>
        <time>2019-08-17T10:15:06Z</time>
      </trkpt>
      <trkpt lat="42.9557" lon="0.84855">
        <ele>1457.8</ele>
        <time>2019-08-17T10:15:07Z</time>
      </trkpt>
      <trkpt lat="42.95571" lon="0.84855">
        <ele>1457.9</ele>
        <time>2019-08-17T10:15:08Z</time>
      </trkpt>
      <trkpt lat="42.95571" lon="0.84855">
        <ele>1458.1</ele>
        <time>2019-08-17T10:15:09Z</time>
      </trkpt>
      <trkpt lat="42.95572" lon="0.84855">
        <ele>1458.2</ele>
        <time>2019-08-17T10:15:10Z</time>
      </trkpt>
      <trkpt lat="42.95572" lon="0.84855">
        <ele>1458.3</ele>
        <time>2019-08-17T10:15:11Z</time>
      </trkpt>
      <trkpt lat="42.95573" lon="0.84855">
        <ele>1458.4</ele>
        <time>2019-08-17T10:15:12Z</time>
      </trkpt>
      <trkpt lat="42.95573" lon="0.84854">
        <ele>1458.5</ele>
        <time>2019-08-17T10:15:13Z</time>
      </trkpt>
      <trkpt lat="42.95573" lon="0.84854">
        <ele>1458.6</ele>
        <time>2019-08-17T10:15:14Z</time>
      </trkpt>
      <trkpt lat="42.95574" lon="0.84854">
        <ele>1458.7</ele>
        <time>2019-08-17T10:15:15Z</time>
      </trkpt>
      <trkpt lat="42.95574" lon="0.84854">
        <ele>1458.8</ele>
        <time>2019-08-17T10:15:16Z</time>
      </trkpt>
      <trkpt lat="42.95575" lon="0.84854">
        <ele>1458.9</ele>
        <time>2019-08-17T10:15:17Z</time>
      </trkpt>
      <trkpt lat="42.95575" lon="0.84854">
        <ele>1459</ele>
        <time>2019-08-17T10:15:18Z</time>
      </trkpt>
      <trkpt lat="42.95575" lon="0.84854">
        <ele>1459.1</ele>
        <time>2019-08-17T10:15:19Z</time>
      </trkpt>
      <trkpt lat="42.95576" lon="0.84854">
        <ele>1459.2</ele>
        <time>2019-08-17T10:15:20Z</time>
      </trkpt>
      <trkpt lat="42.95576" lon="0.84854">
        <ele>1459.3</ele>
        <time>2019-08-17T10:15:21Z</time>
      </trkpt>
      <trkpt lat="42.95577" lon="0.84854">
        <ele>1459.4</ele>
        <time>2019-08-17T10:15:22Z</time>
      </trkpt>
      <trkpt lat="42.95577" lon="0.84853">
        <ele>1459.6</ele>
        <time>2019-08-17T10:15:23Z</time>
      </trkpt>
      <trkpt lat="42.95578" lon="0.84853">
        <ele>1459.7</ele>
        <time>2019-08-17T10:15:24Z</time>
      </trkpt>
      <trkpt lat="42.95578" lon="0.84853">
        <ele>1459.8</ele>
        <time>2019-08-17T10:15:25Z</time>
      </trkpt>
      <trkpt lat="42.95578" lon="0.84853">
        <ele>1459.9</ele>
        <time>2019-08-17T10:15:26Z</time>
      </trkpt>
      <trkpt lat="42.95579" lon="0.84853">
        <ele>1460</ele>
        <time>2019-08-17T10:15:27Z</time>
      </trkpt>
      <trkpt lat="42.95579" lon="0.84853">
        <ele>1460</ele>
        <time>2019-08-17T10:15:28Z</time>
      </trkpt>
      <trkpt lat="42.95579" lon="0.84853">
        <ele>1460.1</ele>
        <time>2019-08-17T10:15:29Z</time>
      </trkpt>
      <trkpt lat="42.9558" lon="0.84853">
        <ele>1460.2</ele>
        <time>2019-08-17T10:15:30Z</time>
      </trkpt>
      <trkpt lat="42.9558" lon="0.84853">
        <ele>1460.2</ele>
        <time>2019-08-17T10:15:31Z</time>
      </trkpt>
      <trkpt lat="42.9558" lon="0.84853">
        <ele>1460.2</ele>
        <time>2019-08-17T10:15:32Z</time>
      </trkpt>
      <trkpt lat="42.9558" lon="0.84853">
        <ele>1460.3</ele>
        <time>2019-08-17T10:15:33Z</time>
      </trkpt>
      <trkpt lat="42.9558" lon="0.84853">
        <ele>1460.4</ele>
        <time>2019-08-17T10:15:34Z</time>
      </trkpt>
      <trkpt lat="42.95581" lon="0.84852">
        <ele>1460.6</ele>
        <time>2019-08-17T10:15:35Z</time>
      </trkpt>
      <trkpt lat="42.95581" lon="0.84852">
        <ele>1460.7</ele>
        <time>2019-08-17T10:15:36Z</time>
      </trkpt>
      <trkpt lat="42.95581" lon="0.84852">
        <ele>1460.8</ele>
        <time>2019-08-17T10:15:37Z</time>
      </trkpt>
      <trkpt lat="42.95582" lon="0.84852">
        <ele>1460.9</ele>
        <time>2019-08-17T10:15:38Z</time>
      </trkpt>
      <trkpt lat="42.95582" lon="0.84852">
        <ele>1460.9</ele>
        <time>2019-08-17T10:15:39Z</time>
      </trkpt>
      <trkpt lat="42.95582" lon="0.84851">
        <ele>1460.9</ele>
        <time>2019-08-17T10:15:40Z</time>
      </trkpt>
      <trkpt lat="42.95582" lon="0.84851">
        <ele>1461</ele>
        <time>2019-08-17T10:15:41Z</time>
      </trkpt>
      <trkpt lat="42.95582" lon="0.84851">
        <ele>1461</ele>
        <time>2019-08-17T10:15:42Z</time>
      </trkpt>
      <trkpt lat="42.95582" lon="0.84851">
        <ele>1461</ele>
        <time>2019-08-17T10:15:43Z</time>
      </trkpt>
      <trkpt lat="42.95582" lon="0.84851">
        <ele>1461.1</ele>
        <time>2019-08-17T10:15:44Z</time>
      </trkpt>
      <trkpt lat="42.95582" lon="0.84851">
        <ele>1461.1</ele>
        <time>2019-08-17T10:15:45Z</time>
      </trkpt>
      <trkpt lat="42.95582" lon="0.84851">
        <ele>1461.1</ele>
        <time>2019-08-17T10:15:46Z</time>
      </trkpt>
      <trkpt lat="42.95582" lon="0.84851">
        <ele>1461.1</ele>
        <time>2019-08-17T10:15:47Z</time>
      </trkpt>
      <trkpt lat="42.95582" lon="0.84851">
        <ele>1461.2</ele>
        <time>2019-08-17T10:15:48Z</time>
      </trkpt>
      <trkpt lat="42.95582" lon="0.84851">
        <ele>1461.2</ele>
        <time>2019-08-17T10:15:49Z</time>
      </trkpt>
      <trkpt lat="42.95583" lon="0.84851">
        <ele>1461.4</ele>
        <time>2019-08-17T10:15:50Z</time>
      </trkpt>
      <trkpt lat="42.95583" lon="0.84851">
        <ele>1461.5</ele>
        <time>2019-08-17T10:15:51Z</time>
      </trkpt>
      <trkpt lat="42.95584" lon="0.84851">
        <ele>1461.7</ele>
        <time>2019-08-17T10:15:52Z</time>
      </trkpt>
      <trkpt lat="42.95585" lon="0.84852">
        <ele>1461.9</ele>
        <time>2019-08-17T10:15:53Z</time>
      </trkpt>
      <trkpt lat="42.95585" lon="0.84852">
        <ele>1462.1</ele>
        <time>2019-08-17T10:15:54Z</time>
      </trkpt>
      <trkpt lat="42.95586" lon="0.84853">
        <ele>1462.3</ele>
        <time>2019-08-17T10:15:55Z</time>
      </trkpt>
      <trkpt lat="42.95586" lon="0.84853">
        <ele>1462.5</ele>
        <time>2019-08-17T10:15:56Z</time>
      </trkpt>
      <trkpt lat="42.95586" lon="0.84854">
        <ele>1462.6</ele>
        <time>2019-08-17T10:15:57Z</time>
      </trkpt>
      <trkpt lat="42.95586" lon="0.84854">
        <ele>1462.6</ele>
        <time>2019-08-17T10:15:58Z</time>
      </trkpt>
      <trkpt lat="42.95586" lon="0.84855">
        <ele>1462.7</ele>
        <time>2019-08-17T10:15:59Z</time>
      </trkpt>
      <trkpt lat="42.95586" lon="0.84855">
        <ele>1462.7</ele>
        <time>2019-08-17T10:16:00Z</time>
      </trkpt>
      <trkpt lat="42.95586" lon="0.84855">
        <ele>1462.8</ele>
        <time>2019-08-17T10:16:01Z</time>
      </trkpt>
      <trkpt lat="42.95586" lon="0.84855">
        <ele>1462.8</ele>
        <time>2019-08-17T10:16:02Z</time>
      </trkpt>
      <trkpt lat="42.95586" lon="0.84855">
        <ele>1462.8</ele>
        <time>2019-08-17T10:16:03Z</time>
      </trkpt>
      <trkpt lat="42.95587" lon="0.84856">
        <ele>1463</ele>
        <time>2019-08-17T10:16:04Z</time>
      </trkpt>
      <trkpt lat="42.95587" lon="0.84856">
        <ele>1463.1</ele>
        <time>2019-08-17T10:16:05Z</time>
      </trkpt>
      <trkpt lat="42.95588" lon="0.84857">
        <ele>1463.2</ele>
        <time>2019-08-17T10:16:06Z</time>
      </trkpt>
      <trkpt lat="42.95588" lon="0.84857">
        <ele>1463.3</ele>
        <time>2019-08-17T10:16:07Z</time>
      </trkpt>
      <trkpt lat="42.95588" lon="0.84857">
        <ele>1463.3</ele>
        <time>2019-08-17T10:16:08Z</time>
      </trkpt>
      <trkpt lat="42.95588" lon="0.84857">
        <ele>1463.4</ele>
        <time>2019-08-17T10:16:09Z</time>
      </trkpt>
      <trkpt lat="42.95589" lon="0.84857">
        <ele>1463.5</ele>
        <time>2019-08-17T10:16:10Z</time>
      </trkpt>
      <trkpt lat="42.95589" lon="0.84857">
        <ele>1463.7</ele>
        <time>2019-08-17T10:16:11Z</time>
      </trkpt>
      <trkpt lat="42.9559" lon="0.84857">
        <ele>1464</ele>
        <time>2019-08-17T10:16:12Z</time>
      </trkpt>
      <trkpt lat="42.95591" lon="0.84856">
        <ele>1464.1</ele>
        <time>2019-08-17T10:16:13Z</time>
      </trkpt>
      <trkpt lat="42.95591" lon="0.84856">
        <ele>1464.2</ele>
        <time>2019-08-17T10:16:14Z</time>
      </trkpt>
      <trkpt lat="42.95591" lon="0.84856">
        <ele>1464.3</ele>
        <time>2019-08-17T10:16:15Z</time>
      </trkpt>
      <trkpt lat="42.95592" lon="0.84856">
        <ele>1464.3</ele>
        <time>2019-08-17T10:16:16Z</time>
      </trkpt>
      <trkpt lat="42.95592" lon="0.84856">
        <ele>1464.4</ele>
        <time>2019-08-17T10:16:17Z</time>
      </trkpt>
      <trkpt lat="42.95592" lon="0.84856">
        <ele>1464.4</ele>
        <time>2019-08-17T10:16:18Z</time>
      </trkpt>
      <trkpt lat="42.95592" lon="0.84856">
        <ele>1464.4</ele>
        <time>2019-08-17T10:16:19Z</time>
      </trkpt>
      <trkpt lat="42.95592" lon="0.84856">
        <ele>1464.5</ele>
        <time>2019-08-17T10:16:20Z</time>
      </trkpt>
      <trkpt lat="42.95593" lon="0.84856">
        <ele>1464.6</ele>
        <time>2019-08-17T10:16:21Z</time>
      </trkpt>
      <trkpt lat="42.95593" lon="0.84855">
        <ele>1464.7</ele>
        <time>2019-08-17T10:16:22Z</time>
      </trkpt>
      <trkpt lat="42.95594" lon="0.84854">
        <ele>1464.9</ele>
        <time>2019-08-17T10:16:23Z</time>
      </trkpt>
      <trkpt lat="42.95594" lon="0.84854">
        <ele>1465</ele>
        <time>2019-08-17T10:16:24Z</time>
      </trkpt>
      <trkpt lat="42.95595" lon="0.84854">
        <ele>1465</ele>
        <time>2019-08-17T10:16:25Z</time>
      </trkpt>
      <trkpt lat="42.95595" lon="0.84854">
        <ele>1465.1</ele>
        <time>2019-08-17T10:16:26Z</time>
      </trkpt>
      <trkpt lat="42.95596" lon="0.84855">
        <ele>1465.2</ele>
        <time>2019-08-17T10:16:27Z</time>
      </trkpt>
      <trkpt lat="42.95596" lon="0.84855">
        <ele>1465.3</ele>
        <time>2019-08-17T10:16:28Z</time>
      </trkpt>
      <trkpt lat="42.95596" lon="0.84855">
        <ele>1465.3</ele>
        <time>2019-08-17T10:16:29Z</time>
      </trkpt>
      <trkpt lat="42.95597" lon="0.84856">
        <ele>1465.4</ele>
        <time>2019-08-17T10:16:30Z</time>
      </trkpt>
      <trkpt lat="42.95597" lon="0.84856">
        <ele>1465.4</ele>
        <time>2019-08-17T10:16:31Z</time>
      </trkpt>
      <trkpt lat="42.95597" lon="0.84856">
        <ele>1465.5</ele>
        <time>2019-08-17T10:16:32Z</time>
      </trkpt>
      <trkpt lat="42.95597" lon="0.84857">
        <ele>1465.6</ele>
        <time>2019-08-17T10:16:33Z</time>
      </trkpt>
      <trkpt lat="42.95598" lon="0.84858">
        <ele>1465.7</ele>
        <time>2019-08-17T10:16:34Z</time>
      </trkpt>
      <trkpt lat="42.95598" lon="0.84859">
        <ele>1465.8</ele>
        <time>2019-08-17T10:16:35Z</time>
      </trkpt>
      <trkpt lat="42.95598" lon="0.84859">
        <ele>1465.8</ele>
        <time>2019-08-17T10:16:36Z</time>
      </trkpt>
      <trkpt lat="42.95598" lon="0.84859">
        <ele>1465.8</ele>
        <time>2019-08-17T10:16:37Z</time>
      </trkpt>
      <trkpt lat="42.95598" lon="0.84859">
        <ele>1465.8</ele>
        <time>2019-08-17T10:16:38Z</time>
      </trkpt>
      <trkpt lat="42.95598" lon="0.84859">
        <ele>1465.8</ele>
        <time>2019-08-17T10:16:39Z</time>
      </trkpt>
      <trkpt lat="42.95598" lon="0.84859">
        <ele>1465.8</ele>
        <time>2019-08-17T10:16:40Z</time>
      </trkpt>
      <trkpt lat="42.95598" lon="0.84859">
        <ele>1465.8</ele>
        <time>2019-08-17T10:16:41Z</time>
      </trkpt>
      <trkpt lat="42.95598" lon="0.84859">
        <ele>1465.9</ele>
        <time>2019-08-17T10:16:42Z</time>
      </trkpt>
      <trkpt lat="42.95598" lon="0.8486">
        <ele>1465.9</ele>
        <time>2019-08-17T10:16:43Z</time>
      </trkpt>
      <trkpt lat="42.95598" lon="0.8486">
        <ele>1465.9</ele>
        <time>2019-08-17T10:16:44Z</time>
      </trkpt>
      <trkpt lat="42.95598" lon="0.8486">
        <ele>1466</ele>
        <time>2019-08-17T10:16:45Z</time>
      </trkpt>
      <trkpt lat="42.95599" lon="0.84861">
        <ele>1466</ele>
        <time>2019-08-17T10:16:46Z</time>
      </trkpt>
      <trkpt lat="42.95599" lon="0.84861">
        <ele>1466.1</ele>
        <time>2019-08-17T10:16:47Z</time>
      </trkpt>
      <trkpt lat="42.95599" lon="0.84862">
        <ele>1466.1</ele>
        <time>2019-08-17T10:16:48Z</time>
      </trkpt>
      <trkpt lat="42.956" lon="0.84863">
        <ele>1466.2</ele>
        <time>2019-08-17T10:16:49Z</time>
      </trkpt>
      <trkpt lat="42.95602" lon="0.84864">
        <ele>1466.3</ele>
        <time>2019-08-17T10:16:50Z</time>
      </trkpt>
      <trkpt lat="42.95602" lon="0.84864">
        <ele>1466.3</ele>
        <time>2019-08-17T10:16:51Z</time>
      </trkpt>
      <trkpt lat="42.95603" lon="0.84865">
        <ele>1466.3</ele>
        <time>2019-08-17T10:16:52Z</time>
      </trkpt>
      <trkpt lat="42.95603" lon="0.84865">
        <ele>1466.3</ele>
        <time>2019-08-17T10:16:53Z</time>
      </trkpt>
      <trkpt lat="42.95604" lon="0.84865">
        <ele>1466.4</ele>
        <time>2019-08-17T10:16:54Z</time>
      </trkpt>
      <trkpt lat="42.95604" lon="0.84865">
        <ele>1466.4</ele>
        <time>2019-08-17T10:16:55Z</time>
      </trkpt>
      <trkpt lat="42.95604" lon="0.84865">
        <ele>1466.4</ele>
        <time>2019-08-17T10:16:56Z</time>
      </trkpt>
      <trkpt lat="42.95605" lon="0.84865">
        <ele>1466.4</ele>
        <time>2019-08-17T10:16:57Z</time>
      </trkpt>
      <trkpt lat="42.95605" lon="0.84865">
        <ele>1466.4</ele>
        <time>2019-08-17T10:16:58Z</time>
      </trkpt>
      <trkpt lat="42.95606" lon="0.84865">
        <ele>1466.4</ele>
        <time>2019-08-17T10:16:59Z</time>
      </trkpt>
      <trkpt lat="42.95607" lon="0.84865">
        <ele>1466.5</ele>
        <time>2019-08-17T10:17:00Z</time>
      </trkpt>
      <trkpt lat="42.95608" lon="0.84865">
        <ele>1466.6</ele>
        <time>2019-08-17T10:17:01Z</time>
      </trkpt>
      <trkpt lat="42.95609" lon="0.84866">
        <ele>1466.7</ele>
        <time>2019-08-17T10:17:02Z</time>
      </trkpt>
      <trkpt lat="42.95609" lon="0.84867">
        <ele>1466.8</ele>
        <time>2019-08-17T10:17:03Z</time>
      </trkpt>
      <trkpt lat="42.9561" lon="0.84868">
        <ele>1466.9</ele>
        <time>2019-08-17T10:17:04Z</time>
      </trkpt>
      <trkpt lat="42.9561" lon="0.84869">
        <ele>1467</ele>
        <time>2019-08-17T10:17:05Z</time>
      </trkpt>
      <trkpt lat="42.9561" lon="0.8487">
        <ele>1467.1</ele>
        <time>2019-08-17T10:17:06Z</time>
      </trkpt>
      <trkpt lat="42.9561" lon="0.84871">
        <ele>1467.2</ele>
        <time>2019-08-17T10:17:07Z</time>
      </trkpt>
      <trkpt lat="42.95611" lon="0.84872">
        <ele>1467.3</ele>
        <time>2019-08-17T10:17:08Z</time>
      </trkpt>
      <trkpt lat="42.95611" lon="0.84872">
        <ele>1467.4</ele>
        <time>2019-08-17T10:17:09Z</time>
      </trkpt>
      <trkpt lat="42.95612" lon="0.84873">
        <ele>1467.5</ele>
        <time>2019-08-17T10:17:10Z</time>
      </trkpt>
      <trkpt lat="42.95613" lon="0.84873">
        <ele>1467.6</ele>
        <time>2019-08-17T10:17:11Z</time>
      </trkpt>
      <trkpt lat="42.95613" lon="0.84872">
        <ele>1467.7</ele>
        <time>2019-08-17T10:17:12Z</time>
      </trkpt>
      <trkpt lat="42.95614" lon="0.84872">
        <ele>1467.8</ele>
        <time>2019-08-17T10:17:13Z</time>
      </trkpt>
      <trkpt lat="42.95615" lon="0.84871">
        <ele>1467.9</ele>
        <time>2019-08-17T10:17:14Z</time>
      </trkpt>
      <trkpt lat="42.95616" lon="0.84871">
        <ele>1468</ele>
        <time>2019-08-17T10:17:15Z</time>
      </trkpt>
      <trkpt lat="42.95616" lon="0.8487">
        <ele>1468</ele>
        <time>2019-08-17T10:17:16Z</time>
      </trkpt>
      <trkpt lat="42.95617" lon="0.8487">
        <ele>1468.1</ele>
        <time>2019-08-17T10:17:17Z</time>
      </trkpt>
      <trkpt lat="42.95618" lon="0.84869">
        <ele>1468.2</ele>
        <time>2019-08-17T10:17:18Z</time>
      </trkpt>
      <trkpt lat="42.95619" lon="0.84869">
        <ele>1468.3</ele>
        <time>2019-08-17T10:17:19Z</time>
      </trkpt>
      <trkpt lat="42.95619" lon="0.84868">
        <ele>1468.3</ele>
        <time>2019-08-17T10:17:20Z</time>
      </trkpt>
      <trkpt lat="42.9562" lon="0.84868">
        <ele>1468.4</ele>
        <time>2019-08-17T10:17:21Z</time>
      </trkpt>
      <trkpt lat="42.95621" lon="0.84868">
        <ele>1468.5</ele>
        <time>2019-08-17T10:17:22Z</time>
      </trkpt>
      <trkpt lat="42.95622" lon="0.84867">
        <ele>1468.5</ele>
        <time>2019-08-17T10:17:23Z</time>
      </trkpt>
      <trkpt lat="42.95623" lon="0.84867">
        <ele>1468.6</ele>
        <time>2019-08-17T10:17:24Z</time>
      </trkpt>
      <trkpt lat="42.95623" lon="0.84867">
        <ele>1468.7</ele>
        <time>2019-08-17T10:17:25Z</time>
      </trkpt>
      <trkpt lat="42.95624" lon="0.84867">
        <ele>1468.7</ele>
        <time>2019-08-17T10:17:26Z</time>
      </trkpt>
      <trkpt lat="42.95624" lon="0.84868">
        <ele>1468.8</ele>
        <time>2019-08-17T10:17:27Z</time>
      </trkpt>
      <trkpt lat="42.95625" lon="0.84868">
        <ele>1468.8</ele>
        <time>2019-08-17T10:17:28Z</time>
      </trkpt>
      <trkpt lat="42.95626" lon="0.84869">
        <ele>1468.8</ele>
        <time>2019-08-17T10:17:29Z</time>
      </trkpt>
      <trkpt lat="42.95626" lon="0.84869">
        <ele>1468.9</ele>
        <time>2019-08-17T10:17:30Z</time>
      </trkpt>
      <trkpt lat="42.95627" lon="0.84869">
        <ele>1468.9</ele>
        <time>2019-08-17T10:17:31Z</time>
      </trkpt>
      <trkpt lat="42.95627" lon="0.84869">
        <ele>1469</ele>
        <time>2019-08-17T10:17:32Z</time>
      </trkpt>
      <trkpt lat="42.95628" lon="0.84869">
        <ele>1469</ele>
        <time>2019-08-17T10:17:33Z</time>
      </trkpt>
      <trkpt lat="42.95629" lon="0.84869">
        <ele>1469.1</ele>
        <time>2019-08-17T10:17:34Z</time>
      </trkpt>
      <trkpt lat="42.9563" lon="0.84869">
        <ele>1469.1</ele>
        <time>2019-08-17T10:17:35Z</time>
      </trkpt>
      <trkpt lat="42.95631" lon="0.84869">
        <ele>1469.2</ele>
        <time>2019-08-17T10:17:36Z</time>
      </trkpt>
      <trkpt lat="42.95631" lon="0.84869">
        <ele>1469.2</ele>
        <time>2019-08-17T10:17:37Z</time>
      </trkpt>
      <trkpt lat="42.95631" lon="0.84869">
        <ele>1469.2</ele>
        <time>2019-08-17T10:17:38Z</time>
      </trkpt>
      <trkpt lat="42.95631" lon="0.84868">
        <ele>1469.3</ele>
        <time>2019-08-17T10:17:39Z</time>
      </trkpt>
      <trkpt lat="42.95631" lon="0.84868">
        <ele>1469.3</ele>
        <time>2019-08-17T10:17:40Z</time>
      </trkpt>
      <trkpt lat="42.95631" lon="0.84868">
        <ele>1469.3</ele>
        <time>2019-08-17T10:17:41Z</time>
      </trkpt>
      <trkpt lat="42.95632" lon="0.84867">
        <ele>1469.3</ele>
        <time>2019-08-17T10:17:42Z</time>
      </trkpt>
      <trkpt lat="42.95632" lon="0.84867">
        <ele>1469.3</ele>
        <time>2019-08-17T10:17:43Z</time>
      </trkpt>
      <trkpt lat="42.95632" lon="0.84867">
        <ele>1469.3</ele>
        <time>2019-08-17T10:17:44Z</time>
      </trkpt>
      <trkpt lat="42.95632" lon="0.84866">
        <ele>1469.4</ele>
        <time>2019-08-17T10:17:45Z</time>
      </trkpt>
      <trkpt lat="42.95632" lon="0.84866">
        <ele>1469.4</ele>
        <time>2019-08-17T10:17:46Z</time>
      </trkpt>
      <trkpt lat="42.95633" lon="0.84866">
        <ele>1469.4</ele>
        <time>2019-08-17T10:17:47Z</time>
      </trkpt>
      <trkpt lat="42.95633" lon="0.84865">
        <ele>1469.4</ele>
        <time>2019-08-17T10:17:48Z</time>
      </trkpt>
      <trkpt lat="42.95633" lon="0.84865">
        <ele>1469.4</ele>
        <time>2019-08-17T10:17:49Z</time>
      </trkpt>
      <trkpt lat="42.95633" lon="0.84865">
        <ele>1469.5</ele>
        <time>2019-08-17T10:17:50Z</time>
      </trkpt>
      <trkpt lat="42.95633" lon="0.84864">
        <ele>1469.5</ele>
        <time>2019-08-17T10:17:51Z</time>
      </trkpt>
      <trkpt lat="42.95633" lon="0.84864">
        <ele>1469.4</ele>
        <time>2019-08-17T10:17:52Z</time>
      </trkpt>
      <trkpt lat="42.95634" lon="0.84864">
        <ele>1469.4</ele>
        <time>2019-08-17T10:17:53Z</time>
      </trkpt>
      <trkpt lat="42.95634" lon="0.84863">
        <ele>1469.4</ele>
        <time>2019-08-17T10:17:54Z</time>
      </trkpt>
      <trkpt lat="42.95634" lon="0.84863">
        <ele>1469.4</ele>
        <time>2019-08-17T10:17:55Z</time>
      </trkpt>
      <trkpt lat="42.95634" lon="0.84863">
        <ele>1469.4</ele>
        <time>2019-08-17T10:17:56Z</time>
      </trkpt>
      <trkpt lat="42.95634" lon="0.84862">
        <ele>1469.4</ele>
        <time>2019-08-17T10:17:57Z</time>
      </trkpt>
      <trkpt lat="42.95634" lon="0.84862">
        <ele>1469.4</ele>
        <time>2019-08-17T10:17:58Z</time>
      </trkpt>
      <trkpt lat="42.95635" lon="0.84862">
        <ele>1469.4</ele>
        <time>2019-08-17T10:17:59Z</time>
      </trkpt>
      <trkpt lat="42.95635" lon="0.84861">
        <ele>1469.3</ele>
        <time>2019-08-17T10:18:00Z</time>
      </trkpt>
      <trkpt lat="42.95635" lon="0.84861">
        <ele>1469.3</ele>
        <time>2019-08-17T10:18:01Z</time>
      </trkpt>
      <trkpt lat="42.95635" lon="0.84861">
        <ele>1469.3</ele>
        <time>2019-08-17T10:18:02Z</time>
      </trkpt>
      <trkpt lat="42.95635" lon="0.8486">
        <ele>1469.3</ele>
        <time>2019-08-17T10:18:03Z</time>
      </trkpt>
      <trkpt lat="42.95635" lon="0.8486">
        <ele>1469.3</ele>
        <time>2019-08-17T10:18:04Z</time>
      </trkpt>
      <trkpt lat="42.95636" lon="0.8486">
        <ele>1469.3</ele>
        <time>2019-08-17T10:18:05Z</time>
      </trkpt>
      <trkpt lat="42.95636" lon="0.84859">
        <ele>1469.3</ele>
        <time>2019-08-17T10:18:06Z</time>
      </trkpt>
      <trkpt lat="42.95636" lon="0.84859">
        <ele>1469.3</ele>
        <time>2019-08-17T10:18:07Z</time>
      </trkpt>
      <trkpt lat="42.95636" lon="0.84859">
        <ele>1469.2</ele>
        <time>2019-08-17T10:18:08Z</time>
      </trkpt>
      <trkpt lat="42.95636" lon="0.84858">
        <ele>1469.2</ele>
        <time>2019-08-17T10:18:09Z</time>
      </trkpt>
      <trkpt lat="42.95636" lon="0.84858">
        <ele>1469.2</ele>
        <time>2019-08-17T10:18:10Z</time>
      </trkpt>
      <trkpt lat="42.95637" lon="0.84858">
        <ele>1469.2</ele>
        <time>2019-08-17T10:18:11Z</time>
      </trkpt>
      <trkpt lat="42.95637" lon="0.84857">
        <ele>1469.2</ele>
        <time>2019-08-17T10:18:12Z</time>
      </trkpt>
      <trkpt lat="42.95637" lon="0.84857">
        <ele>1469.2</ele>
        <time>2019-08-17T10:18:13Z</time>
      </trkpt>
      <trkpt lat="42.95637" lon="0.84857">
        <ele>1473.2</ele>
        <time>2019-08-17T10:18:14Z</time>
      </trkpt>
      <trkpt lat="42.95637" lon="0.84856">
        <ele>1473.2</ele>
        <time>2019-08-17T10:18:15Z</time>
      </trkpt>
      <trkpt lat="42.95638" lon="0.84856">
        <ele>1473.2</ele>
        <time>2019-08-17T10:18:16Z</time>
      </trkpt>
      <trkpt lat="42.95638" lon="0.84856">
        <ele>1473.3</ele>
        <time>2019-08-17T10:18:17Z</time>
      </trkpt>
      <trkpt lat="42.95638" lon="0.84855">
        <ele>1473.3</ele>
        <time>2019-08-17T10:18:18Z</time>
      </trkpt>
      <trkpt lat="42.95638" lon="0.84855">
        <ele>1473.4</ele>
        <time>2019-08-17T10:18:19Z</time>
      </trkpt>
      <trkpt lat="42.95638" lon="0.84855">
        <ele>1473.4</ele>
        <time>2019-08-17T10:18:20Z</time>
      </trkpt>
      <trkpt lat="42.95638" lon="0.84854">
        <ele>1473.5</ele>
        <time>2019-08-17T10:18:21Z</time>
      </trkpt>
      <trkpt lat="42.95639" lon="0.84854">
        <ele>1473.5</ele>
        <time>2019-08-17T10:18:22Z</time>
      </trkpt>
      <trkpt lat="42.95639" lon="0.84854">
        <ele>1473.5</ele>
        <time>2019-08-17T10:18:23Z</time>
      </trkpt>
      <trkpt lat="42.95639" lon="0.84853">
        <ele>1473.6</ele>
        <time>2019-08-17T10:18:24Z</time>
      </trkpt>
      <trkpt lat="42.95639" lon="0.84853">
        <ele>1473.6</ele>
        <time>2019-08-17T10:18:25Z</time>
      </trkpt>
      <trkpt lat="42.95639" lon="0.84853">
        <ele>1473.7</ele>
        <time>2019-08-17T10:18:26Z</time>
      </trkpt>
      <trkpt lat="42.95639" lon="0.84852">
        <ele>1473.8</ele>
        <time>2019-08-17T10:18:27Z</time>
      </trkpt>
      <trkpt lat="42.9564" lon="0.84852">
        <ele>1473.8</ele>
        <time>2019-08-17T10:18:28Z</time>
      </trkpt>
      <trkpt lat="42.9564" lon="0.84852">
        <ele>1473.8</ele>
        <time>2019-08-17T10:18:29Z</time>
      </trkpt>
      <trkpt lat="42.9564" lon="0.84851">
        <ele>1473.9</ele>
        <time>2019-08-17T10:18:30Z</time>
      </trkpt>
      <trkpt lat="42.9564" lon="0.84851">
        <ele>1474</ele>
        <time>2019-08-17T10:18:31Z</time>
      </trkpt>
      <trkpt lat="42.9564" lon="0.84851">
        <ele>1474</ele>
        <time>2019-08-17T10:18:32Z</time>
      </trkpt>
      <trkpt lat="42.9564" lon="0.8485">
        <ele>1474.1</ele>
        <time>2019-08-17T10:18:33Z</time>
      </trkpt>
      <trkpt lat="42.95641" lon="0.8485">
        <ele>1474.1</ele>
        <time>2019-08-17T10:18:34Z</time>
      </trkpt>
      <trkpt lat="42.95641" lon="0.8485">
        <ele>1474.2</ele>
        <time>2019-08-17T10:18:35Z</time>
      </trkpt>
      <trkpt lat="42.95641" lon="0.84849">
        <ele>1474.2</ele>
        <time>2019-08-17T10:18:36Z</time>
      </trkpt>
      <trkpt lat="42.95641" lon="0.84849">
        <ele>1474.3</ele>
        <time>2019-08-17T10:18:37Z</time>
      </trkpt>
      <trkpt lat="42.95641" lon="0.84849">
        <ele>1474.4</ele>
        <time>2019-08-17T10:18:38Z</time>
      </trkpt>
      <trkpt lat="42.95641" lon="0.84848">
        <ele>1474.4</ele>
        <time>2019-08-17T10:18:39Z</time>
      </trkpt>
      <trkpt lat="42.95642" lon="0.84848">
        <ele>1474.5</ele>
        <time>2019-08-17T10:18:40Z</time>
      </trkpt>
      <trkpt lat="42.95642" lon="0.84848">
        <ele>1474.5</ele>
        <time>2019-08-17T10:18:41Z</time>
      </trkpt>
      <trkpt lat="42.95642" lon="0.84847">
        <ele>1474.6</ele>
        <time>2019-08-17T10:18:42Z</time>
      </trkpt>
      <trkpt lat="42.95642" lon="0.84847">
        <ele>1474.6</ele>
        <time>2019-08-17T10:18:43Z</time>
      </trkpt>
      <trkpt lat="42.95642" lon="0.84847">
        <ele>1474.7</ele>
        <time>2019-08-17T10:18:44Z</time>
      </trkpt>
      <trkpt lat="42.95643" lon="0.84846">
        <ele>1474.7</ele>
        <time>2019-08-17T10:18:45Z</time>
      </trkpt>
      <trkpt lat="42.95643" lon="0.84846">
        <ele>1474.8</ele>
        <time>2019-08-17T10:18:46Z</time>
      </trkpt>
      <trkpt lat="42.95643" lon="0.84846">
        <ele>1474.8</ele>
        <time>2019-08-17T10:18:47Z</time>
      </trkpt>
      <trkpt lat="42.95643" lon="0.84845">
        <ele>1474.9</ele>
        <time>2019-08-17T10:18:48Z</time>
      </trkpt>
      <trkpt lat="42.95643" lon="0.84845">
        <ele>1475</ele>
        <time>2019-08-17T10:18:49Z</time>
      </trkpt>
      <trkpt lat="42.95643" lon="0.84845">
        <ele>1475</ele>
        <time>2019-08-17T10:18:50Z</time>
      </trkpt>
      <trkpt lat="42.95644" lon="0.84844">
        <ele>1475.1</ele>
        <time>2019-08-17T10:18:51Z</time>
      </trkpt>
      <trkpt lat="42.95644" lon="0.84844">
        <ele>1475.1</ele>
        <time>2019-08-17T10:18:52Z</time>
      </trkpt>
      <trkpt lat="42.95644" lon="0.84844">
        <ele>1475.2</ele>
        <time>2019-08-17T10:18:53Z</time>
      </trkpt>
      <trkpt lat="42.95644" lon="0.84843">
        <ele>1475.2</ele>
        <time>2019-08-17T10:18:54Z</time>
      </trkpt>
      <trkpt lat="42.95644" lon="0.84843">
        <ele>1475.3</ele>
        <time>2019-08-17T10:18:55Z</time>
      </trkpt>
      <trkpt lat="42.95644" lon="0.84843">
        <ele>1475.3</ele>
        <time>2019-08-17T10:18:56Z</time>
      </trkpt>
      <trkpt lat="42.95645" lon="0.84842">
        <ele>1475.4</ele>
        <time>2019-08-17T10:18:57Z</time>
      </trkpt>
      <trkpt lat="42.95645" lon="0.84842">
        <ele>1475.4</ele>
        <time>2019-08-17T10:18:58Z</time>
      </trkpt>
      <trkpt lat="42.95645" lon="0.84842">
        <ele>1475.5</ele>
        <time>2019-08-17T10:18:59Z</time>
      </trkpt>
      <trkpt lat="42.95645" lon="0.84841">
        <ele>1475.6</ele>
        <time>2019-08-17T10:19:00Z</time>
      </trkpt>
      <trkpt lat="42.95645" lon="0.84841">
        <ele>1475.6</ele>
        <time>2019-08-17T10:19:01Z</time>
      </trkpt>
      <trkpt lat="42.95645" lon="0.84841">
        <ele>1475.7</ele>
        <time>2019-08-17T10:19:02Z</time>
      </trkpt>
      <trkpt lat="42.95646" lon="0.8484">
        <ele>1475.7</ele>
        <time>2019-08-17T10:19:03Z</time>
      </trkpt>
      <trkpt lat="42.95646" lon="0.8484">
        <ele>1475.8</ele>
        <time>2019-08-17T10:19:04Z</time>
      </trkpt>
      <trkpt lat="42.95646" lon="0.8484">
        <ele>1475.8</ele>
        <time>2019-08-17T10:19:05Z</time>
      </trkpt>
      <trkpt lat="42.95646" lon="0.84839">
        <ele>1475.9</ele>
        <time>2019-08-17T10:19:06Z</time>
      </trkpt>
      <trkpt lat="42.95646" lon="0.84839">
        <ele>1475.9</ele>
        <time>2019-08-17T10:19:07Z</time>
      </trkpt>
      <trkpt lat="42.95646" lon="0.84839">
        <ele>1476</ele>
        <time>2019-08-17T10:19:08Z</time>
      </trkpt>
      <trkpt lat="42.95647" lon="0.84838">
        <ele>1476</ele>
        <time>2019-08-17T10:19:09Z</time>
      </trkpt>
      <trkpt lat="42.95647" lon="0.84838">
        <ele>1476.1</ele>
        <time>2019-08-17T10:19:10Z</time>
      </trkpt>
      <trkpt lat="42.95647" lon="0.84838">
        <ele>1476.1</ele>
        <time>2019-08-17T10:19:11Z</time>
      </trkpt>
      <trkpt lat="42.95647" lon="0.84838">
        <ele>1476.1</ele>
        <time>2019-08-17T10:19:12Z</time>
      </trkpt>
      <trkpt lat="42.95647" lon="0.84837">
        <ele>1476.1</ele>
        <time>2019-08-17T10:19:13Z</time>
      </trkpt>
      <trkpt lat="42.95648" lon="0.84837">
        <ele>1476.2</ele>
        <time>2019-08-17T10:19:14Z</time>
      </trkpt>
      <trkpt lat="42.95648" lon="0.84837">
        <ele>1476.2</ele>
        <time>2019-08-17T10:19:15Z</time>
      </trkpt>
      <trkpt lat="42.95648" lon="0.84836">
        <ele>1476.2</ele>
        <time>2019-08-17T10:19:16Z</time>
      </trkpt>
      <trkpt lat="42.95648" lon="0.84836">
        <ele>1476.3</ele>
        <time>2019-08-17T10:19:17Z</time>
      </trkpt>
      <trkpt lat="42.95648" lon="0.84836">
        <ele>1476.3</ele>
        <time>2019-08-17T10:19:18Z</time>
      </trkpt>
      <trkpt lat="42.95648" lon="0.84835">
        <ele>1476.3</ele>
        <time>2019-08-17T10:19:19Z</time>
      </trkpt>
      <trkpt lat="42.95649" lon="0.84835">
        <ele>1476.3</ele>
        <time>2019-08-17T10:19:20Z</time>
      </trkpt>
      <trkpt lat="42.95649" lon="0.84835">
        <ele>1476.4</ele>
        <time>2019-08-17T10:19:21Z</time>
      </trkpt>
      <trkpt lat="42.95649" lon="0.84834">
        <ele>1476.4</ele>
        <time>2019-08-17T10:19:22Z</time>
      </trkpt>
      <trkpt lat="42.95649" lon="0.84834">
        <ele>1476.4</ele>
        <time>2019-08-17T10:19:23Z</time>
      </trkpt>
      <trkpt lat="42.95649" lon="0.84834">
        <ele>1476.5</ele>
        <time>2019-08-17T10:19:24Z</time>
      </trkpt>
      <trkpt lat="42.95649" lon="0.84833">
        <ele>1476.5</ele>
        <time>2019-08-17T10:19:25Z</time>
      </trkpt>
      <trkpt lat="42.9565" lon="0.84833">
        <ele>1476.5</ele>
        <time>2019-08-17T10:19:26Z</time>
      </trkpt>
      <trkpt lat="42.9565" lon="0.84833">
        <ele>1476.5</ele>
        <time>2019-08-17T10:19:27Z</time>
      </trkpt>
      <trkpt lat="42.9565" lon="0.84832">
        <ele>1476.6</ele>
        <time>2019-08-17T10:19:28Z</time>
      </trkpt>
      <trkpt lat="42.9565" lon="0.84832">
        <ele>1476.6</ele>
        <time>2019-08-17T10:19:29Z</time>
      </trkpt>
      <trkpt lat="42.9565" lon="0.84832">
        <ele>1476.6</ele>
        <time>2019-08-17T10:19:30Z</time>
      </trkpt>
      <trkpt lat="42.9565" lon="0.84831">
        <ele>1476.7</ele>
        <time>2019-08-17T10:19:31Z</time>
      </trkpt>
      <trkpt lat="42.95651" lon="0.84831">
        <ele>1476.7</ele>
        <time>2019-08-17T10:19:32Z</time>
      </trkpt>
      <trkpt lat="42.95651" lon="0.84831">
        <ele>1476.7</ele>
        <time>2019-08-17T10:19:33Z</time>
      </trkpt>
      <trkpt lat="42.95651" lon="0.8483">
        <ele>1476.7</ele>
        <time>2019-08-17T10:19:34Z</time>
      </trkpt>
      <trkpt lat="42.95651" lon="0.8483">
        <ele>1476.8</ele>
        <time>2019-08-17T10:19:35Z</time>
      </trkpt>
      <trkpt lat="42.95651" lon="0.8483">
        <ele>1476.8</ele>
        <time>2019-08-17T10:19:36Z</time>
      </trkpt>
      <trkpt lat="42.95651" lon="0.84829">
        <ele>1476.7</ele>
        <time>2019-08-17T10:19:37Z</time>
      </trkpt>
      <trkpt lat="42.95652" lon="0.84829">
        <ele>1476.7</ele>
        <time>2019-08-17T10:19:38Z</time>
      </trkpt>
      <trkpt lat="42.95652" lon="0.84829">
        <ele>1476.6</ele>
        <time>2019-08-17T10:19:39Z</time>
      </trkpt>
      <trkpt lat="42.95652" lon="0.84828">
        <ele>1476.6</ele>
        <time>2019-08-17T10:19:40Z</time>
      </trkpt>
      <trkpt lat="42.95652" lon="0.84828">
        <ele>1476.6</ele>
        <time>2019-08-17T10:19:41Z</time>
      </trkpt>
      <trkpt lat="42.95652" lon="0.84828">
        <ele>1476.6</ele>
        <time>2019-08-17T10:19:42Z</time>
      </trkpt>
      <trkpt lat="42.95653" lon="0.84827">
        <ele>1476.5</ele>
        <time>2019-08-17T10:19:43Z</time>
      </trkpt>
      <trkpt lat="42.95653" lon="0.84827">
        <ele>1476.5</ele>
        <time>2019-08-17T10:19:44Z</time>
      </trkpt>
      <trkpt lat="42.95653" lon="0.84827">
        <ele>1476.5</ele>
        <time>2019-08-17T10:19:45Z</time>
      </trkpt>
      <trkpt lat="42.95653" lon="0.84826">
        <ele>1476.4</ele>
        <time>2019-08-17T10:19:46Z</time>
      </trkpt>
      <trkpt lat="42.95653" lon="0.84826">
        <ele>1476.4</ele>
        <time>2019-08-17T10:19:47Z</time>
      </trkpt>
      <trkpt lat="42.95653" lon="0.84826">
        <ele>1476.3</ele>
        <time>2019-08-17T10:19:48Z</time>
      </trkpt>
      <trkpt lat="42.95654" lon="0.84825">
        <ele>1476.3</ele>
        <time>2019-08-17T10:19:49Z</time>
      </trkpt>
      <trkpt lat="42.95654" lon="0.84825">
        <ele>1476.3</ele>
        <time>2019-08-17T10:19:50Z</time>
      </trkpt>
      <trkpt lat="42.95654" lon="0.84825">
        <ele>1476.2</ele>
        <time>2019-08-17T10:19:51Z</time>
      </trkpt>
      <trkpt lat="42.95654" lon="0.84824">
        <ele>1476.2</ele>
        <time>2019-08-17T10:19:52Z</time>
      </trkpt>
      <trkpt lat="42.95654" lon="0.84824">
        <ele>1476.1</ele>
        <time>2019-08-17T10:19:53Z</time>
      </trkpt>
      <trkpt lat="42.95654" lon="0.84824">
        <ele>1476.1</ele>
        <time>2019-08-17T10:19:54Z</time>
      </trkpt>
      <trkpt lat="42.95655" lon="0.84823">
        <ele>1476</ele>
        <time>2019-08-17T10:19:55Z</time>
      </trkpt>
      <trkpt lat="42.95655" lon="0.84823">
        <ele>1476</ele>
        <time>2019-08-17T10:19:56Z</time>
      </trkpt>
      <trkpt lat="42.95655" lon="0.84823">
        <ele>1476</ele>
        <time>2019-08-17T10:19:57Z</time>
      </trkpt>
      <trkpt lat="42.95655" lon="0.84822">
        <ele>1475.9</ele>
        <time>2019-08-17T10:19:58Z</time>
      </trkpt>
      <trkpt lat="42.95655" lon="0.84822">
        <ele>1475.9</ele>
        <time>2019-08-17T10:19:59Z</time>
      </trkpt>
      <trkpt lat="42.95655" lon="0.84822">
        <ele>1475.8</ele>
        <time>2019-08-17T10:20:00Z</time>
      </trkpt>
      <trkpt lat="42.95656" lon="0.84821">
        <ele>1475.8</ele>
        <time>2019-08-17T10:20:01Z</time>
      </trkpt>
      <trkpt lat="42.95656" lon="0.84821">
        <ele>1475.8</ele>
        <time>2019-08-17T10:20:02Z</time>
      </trkpt>
      <trkpt lat="42.95656" lon="0.84821">
        <ele>1475.7</ele>
        <time>2019-08-17T10:20:03Z</time>
      </trkpt>
      <trkpt lat="42.95656" lon="0.8482">
        <ele>1475.7</ele>
        <time>2019-08-17T10:20:04Z</time>
      </trkpt>
      <trkpt lat="42.95656" lon="0.8482">
        <ele>1475.7</ele>
        <time>2019-08-17T10:20:05Z</time>
      </trkpt>
      <trkpt lat="42.95656" lon="0.8482">
        <ele>1475.7</ele>
        <time>2019-08-17T10:20:06Z</time>
      </trkpt>
      <trkpt lat="42.95657" lon="0.84819">
        <ele>1475.7</ele>
        <time>2019-08-17T10:20:07Z</time>
      </trkpt>
      <trkpt lat="42.95657" lon="0.84819">
        <ele>1475.7</ele>
        <time>2019-08-17T10:20:08Z</time>
      </trkpt>
      <trkpt lat="42.95657" lon="0.84819">
        <ele>1475.7</ele>
        <time>2019-08-17T10:20:09Z</time>
      </trkpt>
      <trkpt lat="42.95657" lon="0.84818">
        <ele>1475.7</ele>
        <time>2019-08-17T10:20:10Z</time>
      </trkpt>
      <trkpt lat="42.95657" lon="0.84818">
        <ele>1475.7</ele>
        <time>2019-08-17T10:20:11Z</time>
      </trkpt>
      <trkpt lat="42.95658" lon="0.84818">
        <ele>1475.7</ele>
        <time>2019-08-17T10:20:12Z</time>
      </trkpt>
      <trkpt lat="42.95658" lon="0.84817">
        <ele>1475.7</ele>
        <time>2019-08-17T10:20:13Z</time>
      </trkpt>
      <trkpt lat="42.95658" lon="0.84817">
        <ele>1475.7</ele>
        <time>2019-08-17T10:20:14Z</time>
      </trkpt>
      <trkpt lat="42.95658" lon="0.84817">
        <ele>1475.8</ele>
        <time>2019-08-17T10:20:15Z</time>
      </trkpt>
      <trkpt lat="42.95658" lon="0.84816">
        <ele>1475.8</ele>
        <time>2019-08-17T10:20:16Z</time>
      </trkpt>
      <trkpt lat="42.95658" lon="0.84816">
        <ele>1475.8</ele>
        <time>2019-08-17T10:20:17Z</time>
      </trkpt>
      <trkpt lat="42.95659" lon="0.84816">
        <ele>1475.8</ele>
        <time>2019-08-17T10:20:18Z</time>
      </trkpt>
      <trkpt lat="42.95659" lon="0.84815">
        <ele>1475.8</ele>
        <time>2019-08-17T10:20:19Z</time>
      </trkpt>
      <trkpt lat="42.95659" lon="0.84815">
        <ele>1475.8</ele>
        <time>2019-08-17T10:20:20Z</time>
      </trkpt>
      <trkpt lat="42.95659" lon="0.84815">
        <ele>1475.8</ele>
        <time>2019-08-17T10:20:21Z</time>
      </trkpt>
      <trkpt lat="42.95659" lon="0.84814">
        <ele>1475.8</ele>
        <time>2019-08-17T10:20:22Z</time>
      </trkpt>
      <trkpt lat="42.95659" lon="0.84814">
        <ele>1475.8</ele>
        <time>2019-08-17T10:20:23Z</time>
      </trkpt>
      <trkpt lat="42.9566" lon="0.84814">
        <ele>1475.8</ele>
        <time>2019-08-17T10:20:24Z</time>
      </trkpt>
      <trkpt lat="42.9566" lon="0.84813">
        <ele>1475.9</ele>
        <time>2019-08-17T10:20:25Z</time>
      </trkpt>
      <trkpt lat="42.9566" lon="0.84813">
        <ele>1475.9</ele>
        <time>2019-08-17T10:20:26Z</time>
      </trkpt>
      <trkpt lat="42.9566" lon="0.84812">
        <ele>1475.9</ele>
        <time>2019-08-17T10:20:27Z</time>
      </trkpt>
      <trkpt lat="42.9566" lon="0.84811">
        <ele>1475.9</ele>
        <time>2019-08-17T10:20:28Z</time>
      </trkpt>
      <trkpt lat="42.9566" lon="0.8481">
        <ele>1475.9</ele>
        <time>2019-08-17T10:20:29Z</time>
      </trkpt>
      <trkpt lat="42.9566" lon="0.84809">
        <ele>1475.9</ele>
        <time>2019-08-17T10:20:30Z</time>
      </trkpt>
      <trkpt lat="42.95661" lon="0.84809">
        <ele>1475.9</ele>
        <time>2019-08-17T10:20:31Z</time>
      </trkpt>
      <trkpt lat="42.95661" lon="0.84808">
        <ele>1475.9</ele>
        <time>2019-08-17T10:20:32Z</time>
      </trkpt>
      <trkpt lat="42.95661" lon="0.84807">
        <ele>1475.9</ele>
        <time>2019-08-17T10:20:33Z</time>
      </trkpt>
      <trkpt lat="42.95661" lon="0.84806">
        <ele>1475.9</ele>
        <time>2019-08-17T10:20:34Z</time>
      </trkpt>
      <trkpt lat="42.95661" lon="0.84806">
        <ele>1476</ele>
        <time>2019-08-17T10:20:35Z</time>
      </trkpt>
      <trkpt lat="42.95661" lon="0.84805">
        <ele>1476</ele>
        <time>2019-08-17T10:20:36Z</time>
      </trkpt>
      <trkpt lat="42.95661" lon="0.84804">
        <ele>1476</ele>
        <time>2019-08-17T10:20:37Z</time>
      </trkpt>
      <trkpt lat="42.95661" lon="0.84802">
        <ele>1476</ele>
        <time>2019-08-17T10:20:38Z</time>
      </trkpt>
      <trkpt lat="42.95661" lon="0.84801">
        <ele>1475.9</ele>
        <time>2019-08-17T10:20:39Z</time>
      </trkpt>
      <trkpt lat="42.95662" lon="0.848">
        <ele>1475.8</ele>
        <time>2019-08-17T10:20:40Z</time>
      </trkpt>
      <trkpt lat="42.95662" lon="0.84799">
        <ele>1475.7</ele>
        <time>2019-08-17T10:20:41Z</time>
      </trkpt>
      <trkpt lat="42.95662" lon="0.84798">
        <ele>1475.6</ele>
        <time>2019-08-17T10:20:42Z</time>
      </trkpt>
      <trkpt lat="42.95662" lon="0.84797">
        <ele>1475.5</ele>
        <time>2019-08-17T10:20:43Z</time>
      </trkpt>
      <trkpt lat="42.95662" lon="0.84797">
        <ele>1475.5</ele>
        <time>2019-08-17T10:20:44Z</time>
      </trkpt>
      <trkpt lat="42.95662" lon="0.84797">
        <ele>1475.5</ele>
        <time>2019-08-17T10:20:45Z</time>
      </trkpt>
      <trkpt lat="42.95662" lon="0.84796">
        <ele>1475.4</ele>
        <time>2019-08-17T10:20:46Z</time>
      </trkpt>
      <trkpt lat="42.95662" lon="0.84796">
        <ele>1475.4</ele>
        <time>2019-08-17T10:20:47Z</time>
      </trkpt>
      <trkpt lat="42.95662" lon="0.84796">
        <ele>1475.4</ele>
        <time>2019-08-17T10:20:48Z</time>
      </trkpt>
      <trkpt lat="42.95662" lon="0.84796">
        <ele>1475.4</ele>
        <time>2019-08-17T10:20:49Z</time>
      </trkpt>
      <trkpt lat="42.95662" lon="0.84795">
        <ele>1475.3</ele>
        <time>2019-08-17T10:20:50Z</time>
      </trkpt>
      <trkpt lat="42.95662" lon="0.84795">
        <ele>1475.3</ele>
        <time>2019-08-17T10:20:51Z</time>
      </trkpt>
      <trkpt lat="42.95662" lon="0.84795">
        <ele>1475.3</ele>
        <time>2019-08-17T10:20:52Z</time>
      </trkpt>
      <trkpt lat="42.95662" lon="0.84795">
        <ele>1475.3</ele>
        <time>2019-08-17T10:20:53Z</time>
      </trkpt>
      <trkpt lat="42.95662" lon="0.84794">
        <ele>1475.2</ele>
        <time>2019-08-17T10:20:54Z</time>
      </trkpt>
      <trkpt lat="42.95662" lon="0.84794">
        <ele>1475.2</ele>
        <time>2019-08-17T10:20:55Z</time>
      </trkpt>
      <trkpt lat="42.95662" lon="0.84794">
        <ele>1475.2</ele>
        <time>2019-08-17T10:20:56Z</time>
      </trkpt>
      <trkpt lat="42.95662" lon="0.84794">
        <ele>1475.1</ele>
        <time>2019-08-17T10:20:57Z</time>
      </trkpt>
      <trkpt lat="42.95662" lon="0.84793">
        <ele>1475.1</ele>
        <time>2019-08-17T10:20:58Z</time>
      </trkpt>
      <trkpt lat="42.95662" lon="0.84793">
        <ele>1475.1</ele>
        <time>2019-08-17T10:20:59Z</time>
      </trkpt>
      <trkpt lat="42.95662" lon="0.84793">
        <ele>1475.1</ele>
        <time>2019-08-17T10:21:00Z</time>
      </trkpt>
      <trkpt lat="42.95662" lon="0.84793">
        <ele>1475</ele>
        <time>2019-08-17T10:21:01Z</time>
      </trkpt>
      <trkpt lat="42.95662" lon="0.84792">
        <ele>1475</ele>
        <time>2019-08-17T10:21:02Z</time>
      </trkpt>
      <trkpt lat="42.95662" lon="0.84792">
        <ele>1475.1</ele>
        <time>2019-08-17T10:21:03Z</time>
      </trkpt>
      <trkpt lat="42.95662" lon="0.84792">
        <ele>1475.1</ele>
        <time>2019-08-17T10:21:04Z</time>
      </trkpt>
      <trkpt lat="42.95662" lon="0.84791">
        <ele>1475.1</ele>
        <time>2019-08-17T10:21:05Z</time>
      </trkpt>
      <trkpt lat="42.95662" lon="0.84791">
        <ele>1475.1</ele>
        <time>2019-08-17T10:21:06Z</time>
      </trkpt>
      <trkpt lat="42.95662" lon="0.84791">
        <ele>1475.2</ele>
        <time>2019-08-17T10:21:07Z</time>
      </trkpt>
      <trkpt lat="42.95662" lon="0.84791">
        <ele>1475.2</ele>
        <time>2019-08-17T10:21:08Z</time>
      </trkpt>
      <trkpt lat="42.95662" lon="0.8479">
        <ele>1475.2</ele>
        <time>2019-08-17T10:21:09Z</time>
      </trkpt>
      <trkpt lat="42.95662" lon="0.8479">
        <ele>1475.2</ele>
        <time>2019-08-17T10:21:10Z</time>
      </trkpt>
      <trkpt lat="42.95662" lon="0.8479">
        <ele>1475.3</ele>
        <time>2019-08-17T10:21:11Z</time>
      </trkpt>
      <trkpt lat="42.95662" lon="0.8479">
        <ele>1475.3</ele>
        <time>2019-08-17T10:21:12Z</time>
      </trkpt>
      <trkpt lat="42.95662" lon="0.84789">
        <ele>1475.3</ele>
        <time>2019-08-17T10:21:13Z</time>
      </trkpt>
      <trkpt lat="42.95662" lon="0.84789">
        <ele>1475.3</ele>
        <time>2019-08-17T10:21:14Z</time>
      </trkpt>
      <trkpt lat="42.95662" lon="0.84789">
        <ele>1475.3</ele>
        <time>2019-08-17T10:21:15Z</time>
      </trkpt>
      <trkpt lat="42.95662" lon="0.84789">
        <ele>1475.4</ele>
        <time>2019-08-17T10:21:16Z</time>
      </trkpt>
      <trkpt lat="42.95662" lon="0.84788">
        <ele>1475.4</ele>
        <time>2019-08-17T10:21:17Z</time>
      </trkpt>
      <trkpt lat="42.95662" lon="0.84788">
        <ele>1475.4</ele>
        <time>2019-08-17T10:21:18Z</time>
      </trkpt>
      <trkpt lat="42.95662" lon="0.84788">
        <ele>1475.4</ele>
        <time>2019-08-17T10:21:19Z</time>
      </trkpt>
      <trkpt lat="42.95662" lon="0.84788">
        <ele>1475.5</ele>
        <time>2019-08-17T10:21:20Z</time>
      </trkpt>
      <trkpt lat="42.95662" lon="0.84787">
        <ele>1475.5</ele>
        <time>2019-08-17T10:21:21Z</time>
      </trkpt>
      <trkpt lat="42.95662" lon="0.84787">
        <ele>1475.5</ele>
        <time>2019-08-17T10:21:22Z</time>
      </trkpt>
      <trkpt lat="42.95662" lon="0.84787">
        <ele>1475.5</ele>
        <time>2019-08-17T10:21:23Z</time>
      </trkpt>
      <trkpt lat="42.95662" lon="0.84786">
        <ele>1475.6</ele>
        <time>2019-08-17T10:21:24Z</time>
      </trkpt>
      <trkpt lat="42.95662" lon="0.84786">
        <ele>1475.6</ele>
        <time>2019-08-17T10:21:25Z</time>
      </trkpt>
      <trkpt lat="42.95662" lon="0.84786">
        <ele>1475.6</ele>
        <time>2019-08-17T10:21:26Z</time>
      </trkpt>
      <trkpt lat="42.95662" lon="0.84786">
        <ele>1475.6</ele>
        <time>2019-08-17T10:21:27Z</time>
      </trkpt>
      <trkpt lat="42.95663" lon="0.84785">
        <ele>1475.7</ele>
        <time>2019-08-17T10:21:28Z</time>
      </trkpt>
      <trkpt lat="42.95663" lon="0.84785">
        <ele>1475.7</ele>
        <time>2019-08-17T10:21:29Z</time>
      </trkpt>
      <trkpt lat="42.95663" lon="0.84785">
        <ele>1475.7</ele>
        <time>2019-08-17T10:21:30Z</time>
      </trkpt>
      <trkpt lat="42.95663" lon="0.84785">
        <ele>1475.7</ele>
        <time>2019-08-17T10:21:31Z</time>
      </trkpt>
      <trkpt lat="42.95663" lon="0.84784">
        <ele>1475.7</ele>
        <time>2019-08-17T10:21:32Z</time>
      </trkpt>
      <trkpt lat="42.95663" lon="0.84784">
        <ele>1475.8</ele>
        <time>2019-08-17T10:21:33Z</time>
      </trkpt>
      <trkpt lat="42.95663" lon="0.84784">
        <ele>1475.8</ele>
        <time>2019-08-17T10:21:34Z</time>
      </trkpt>
      <trkpt lat="42.95663" lon="0.84784">
        <ele>1475.8</ele>
        <time>2019-08-17T10:21:35Z</time>
      </trkpt>
      <trkpt lat="42.95663" lon="0.84783">
        <ele>1475.8</ele>
        <time>2019-08-17T10:21:36Z</time>
      </trkpt>
      <trkpt lat="42.95663" lon="0.84783">
        <ele>1475.9</ele>
        <time>2019-08-17T10:21:37Z</time>
      </trkpt>
      <trkpt lat="42.95663" lon="0.84783">
        <ele>1475.9</ele>
        <time>2019-08-17T10:21:38Z</time>
      </trkpt>
      <trkpt lat="42.95663" lon="0.84782">
        <ele>1475.9</ele>
        <time>2019-08-17T10:21:39Z</time>
      </trkpt>
      <trkpt lat="42.95663" lon="0.84782">
        <ele>1475.9</ele>
        <time>2019-08-17T10:21:40Z</time>
      </trkpt>
      <trkpt lat="42.95663" lon="0.84782">
        <ele>1476</ele>
        <time>2019-08-17T10:21:41Z</time>
      </trkpt>
      <trkpt lat="42.95663" lon="0.84782">
        <ele>1476</ele>
        <time>2019-08-17T10:21:42Z</time>
      </trkpt>
      <trkpt lat="42.95663" lon="0.84781">
        <ele>1476</ele>
        <time>2019-08-17T10:21:43Z</time>
      </trkpt>
      <trkpt lat="42.95663" lon="0.84781">
        <ele>1476</ele>
        <time>2019-08-17T10:21:44Z</time>
      </trkpt>
      <trkpt lat="42.95663" lon="0.84781">
        <ele>1476</ele>
        <time>2019-08-17T10:21:45Z</time>
      </trkpt>
      <trkpt lat="42.95663" lon="0.84781">
        <ele>1476.1</ele>
        <time>2019-08-17T10:21:46Z</time>
      </trkpt>
      <trkpt lat="42.95663" lon="0.8478">
        <ele>1476.1</ele>
        <time>2019-08-17T10:21:47Z</time>
      </trkpt>
      <trkpt lat="42.95663" lon="0.8478">
        <ele>1476.1</ele>
        <time>2019-08-17T10:21:48Z</time>
      </trkpt>
      <trkpt lat="42.95663" lon="0.8478">
        <ele>1476.2</ele>
        <time>2019-08-17T10:21:49Z</time>
      </trkpt>
      <trkpt lat="42.95663" lon="0.8478">
        <ele>1476.2</ele>
        <time>2019-08-17T10:21:50Z</time>
      </trkpt>
      <trkpt lat="42.95663" lon="0.84779">
        <ele>1476.2</ele>
        <time>2019-08-17T10:21:51Z</time>
      </trkpt>
      <trkpt lat="42.95663" lon="0.84779">
        <ele>1476.3</ele>
        <time>2019-08-17T10:21:52Z</time>
      </trkpt>
      <trkpt lat="42.95663" lon="0.84779">
        <ele>1476.3</ele>
        <time>2019-08-17T10:21:53Z</time>
      </trkpt>
      <trkpt lat="42.95663" lon="0.84779">
        <ele>1476.4</ele>
        <time>2019-08-17T10:21:54Z</time>
      </trkpt>
      <trkpt lat="42.95663" lon="0.84778">
        <ele>1476.4</ele>
        <time>2019-08-17T10:21:55Z</time>
      </trkpt>
      <trkpt lat="42.95663" lon="0.84778">
        <ele>1476.4</ele>
        <time>2019-08-17T10:21:56Z</time>
      </trkpt>
      <trkpt lat="42.95663" lon="0.84778">
        <ele>1476.5</ele>
        <time>2019-08-17T10:21:57Z</time>
      </trkpt>
      <trkpt lat="42.95663" lon="0.84777">
        <ele>1476.5</ele>
        <time>2019-08-17T10:21:58Z</time>
      </trkpt>
      <trkpt lat="42.95663" lon="0.84777">
        <ele>1476.5</ele>
        <time>2019-08-17T10:21:59Z</time>
      </trkpt>
      <trkpt lat="42.95663" lon="0.84777">
        <ele>1476.6</ele>
        <time>2019-08-17T10:22:00Z</time>
      </trkpt>
      <trkpt lat="42.95663" lon="0.84777">
        <ele>1476.6</ele>
        <time>2019-08-17T10:22:01Z</time>
      </trkpt>
      <trkpt lat="42.95663" lon="0.84776">
        <ele>1476.6</ele>
        <time>2019-08-17T10:22:02Z</time>
      </trkpt>
      <trkpt lat="42.95663" lon="0.84776">
        <ele>1476.7</ele>
        <time>2019-08-17T10:22:03Z</time>
      </trkpt>
      <trkpt lat="42.95663" lon="0.84776">
        <ele>1476.7</ele>
        <time>2019-08-17T10:22:04Z</time>
      </trkpt>
      <trkpt lat="42.95663" lon="0.84776">
        <ele>1476.7</ele>
        <time>2019-08-17T10:22:05Z</time>
      </trkpt>
      <trkpt lat="42.95663" lon="0.84775">
        <ele>1476.8</ele>
        <time>2019-08-17T10:22:06Z</time>
      </trkpt>
      <trkpt lat="42.95663" lon="0.84775">
        <ele>1476.8</ele>
        <time>2019-08-17T10:22:07Z</time>
      </trkpt>
      <trkpt lat="42.95663" lon="0.84775">
        <ele>1476.8</ele>
        <time>2019-08-17T10:22:08Z</time>
      </trkpt>
      <trkpt lat="42.95663" lon="0.84775">
        <ele>1476.9</ele>
        <time>2019-08-17T10:22:09Z</time>
      </trkpt>
      <trkpt lat="42.95663" lon="0.84774">
        <ele>1476.9</ele>
        <time>2019-08-17T10:22:10Z</time>
      </trkpt>
      <trkpt lat="42.95663" lon="0.84774">
        <ele>1476.9</ele>
        <time>2019-08-17T10:22:11Z</time>
      </trkpt>
      <trkpt lat="42.95663" lon="0.84774">
        <ele>1477</ele>
        <time>2019-08-17T10:22:12Z</time>
      </trkpt>
      <trkpt lat="42.95663" lon="0.84774">
        <ele>1477</ele>
        <time>2019-08-17T10:22:13Z</time>
      </trkpt>
      <trkpt lat="42.95663" lon="0.84773">
        <ele>1477.1</ele>
        <time>2019-08-17T10:22:14Z</time>
      </trkpt>
      <trkpt lat="42.95663" lon="0.84773">
        <ele>1477.1</ele>
        <time>2019-08-17T10:22:15Z</time>
      </trkpt>
      <trkpt lat="42.95663" lon="0.84773">
        <ele>1477.1</ele>
        <time>2019-08-17T10:22:16Z</time>
      </trkpt>
      <trkpt lat="42.95663" lon="0.84772">
        <ele>1477.2</ele>
        <time>2019-08-17T10:22:17Z</time>
      </trkpt>
      <trkpt lat="42.95663" lon="0.84772">
        <ele>1477.2</ele>
        <time>2019-08-17T10:22:18Z</time>
      </trkpt>
      <trkpt lat="42.95663" lon="0.84772">
        <ele>1477.2</ele>
        <time>2019-08-17T10:22:19Z</time>
      </trkpt>
      <trkpt lat="42.95663" lon="0.84772">
        <ele>1477.3</ele>
        <time>2019-08-17T10:22:20Z</time>
      </trkpt>
      <trkpt lat="42.95663" lon="0.84771">
        <ele>1477.3</ele>
        <time>2019-08-17T10:22:21Z</time>
      </trkpt>
      <trkpt lat="42.95663" lon="0.84771">
        <ele>1477.3</ele>
        <time>2019-08-17T10:22:22Z</time>
      </trkpt>
      <trkpt lat="42.95663" lon="0.84771">
        <ele>1477.4</ele>
        <time>2019-08-17T10:22:23Z</time>
      </trkpt>
      <trkpt lat="42.95663" lon="0.84771">
        <ele>1477.4</ele>
        <time>2019-08-17T10:22:24Z</time>
      </trkpt>
      <trkpt lat="42.95663" lon="0.8477">
        <ele>1477.4</ele>
        <time>2019-08-17T10:22:25Z</time>
      </trkpt>
      <trkpt lat="42.95663" lon="0.8477">
        <ele>1477.5</ele>
        <time>2019-08-17T10:22:26Z</time>
      </trkpt>
      <trkpt lat="42.95663" lon="0.8477">
        <ele>1477.5</ele>
        <time>2019-08-17T10:22:27Z</time>
      </trkpt>
      <trkpt lat="42.95663" lon="0.8477">
        <ele>1477.5</ele>
        <time>2019-08-17T10:22:28Z</time>
      </trkpt>
      <trkpt lat="42.95663" lon="0.84769">
        <ele>1477.6</ele>
        <time>2019-08-17T10:22:29Z</time>
      </trkpt>
      <trkpt lat="42.95663" lon="0.84769">
        <ele>1477.6</ele>
        <time>2019-08-17T10:22:30Z</time>
      </trkpt>
      <trkpt lat="42.95663" lon="0.84769">
        <ele>1477.6</ele>
        <time>2019-08-17T10:22:31Z</time>
      </trkpt>
      <trkpt lat="42.95663" lon="0.84768">
        <ele>1477.6</ele>
        <time>2019-08-17T10:22:32Z</time>
      </trkpt>
      <trkpt lat="42.95663" lon="0.84768">
        <ele>1477.7</ele>
        <time>2019-08-17T10:22:33Z</time>
      </trkpt>
      <trkpt lat="42.95663" lon="0.84768">
        <ele>1477.7</ele>
        <time>2019-08-17T10:22:34Z</time>
      </trkpt>
      <trkpt lat="42.95663" lon="0.84768">
        <ele>1477.7</ele>
        <time>2019-08-17T10:22:35Z</time>
      </trkpt>
      <trkpt lat="42.95663" lon="0.84767">
        <ele>1477.7</ele>
        <time>2019-08-17T10:22:36Z</time>
      </trkpt>
      <trkpt lat="42.95663" lon="0.84767">
        <ele>1477.7</ele>
        <time>2019-08-17T10:22:37Z</time>
      </trkpt>
      <trkpt lat="42.95663" lon="0.84767">
        <ele>1477.7</ele>
        <time>2019-08-17T10:22:38Z</time>
      </trkpt>
      <trkpt lat="42.95664" lon="0.84767">
        <ele>1477.8</ele>
        <time>2019-08-17T10:22:39Z</time>
      </trkpt>
      <trkpt lat="42.95664" lon="0.84766">
        <ele>1477.8</ele>
        <time>2019-08-17T10:22:40Z</time>
      </trkpt>
      <trkpt lat="42.95664" lon="0.84766">
        <ele>1477.8</ele>
        <time>2019-08-17T10:22:41Z</time>
      </trkpt>
      <trkpt lat="42.95664" lon="0.84766">
        <ele>1477.8</ele>
        <time>2019-08-17T10:22:42Z</time>
      </trkpt>
      <trkpt lat="42.95664" lon="0.84766">
        <ele>1477.8</ele>
        <time>2019-08-17T10:22:43Z</time>
      </trkpt>
      <trkpt lat="42.95664" lon="0.84765">
        <ele>1477.9</ele>
        <time>2019-08-17T10:22:44Z</time>
      </trkpt>
      <trkpt lat="42.95664" lon="0.84765">
        <ele>1477.9</ele>
        <time>2019-08-17T10:22:45Z</time>
      </trkpt>
      <trkpt lat="42.95664" lon="0.84765">
        <ele>1477.9</ele>
        <time>2019-08-17T10:22:46Z</time>
      </trkpt>
      <trkpt lat="42.95664" lon="0.84765">
        <ele>1477.9</ele>
        <time>2019-08-17T10:22:47Z</time>
      </trkpt>
      <trkpt lat="42.95664" lon="0.84764">
        <ele>1477.9</ele>
        <time>2019-08-17T10:22:48Z</time>
      </trkpt>
      <trkpt lat="42.95664" lon="0.84764">
        <ele>1478</ele>
        <time>2019-08-17T10:22:49Z</time>
      </trkpt>
      <trkpt lat="42.95664" lon="0.84764">
        <ele>1478</ele>
        <time>2019-08-17T10:22:50Z</time>
      </trkpt>
      <trkpt lat="42.95664" lon="0.84763">
        <ele>1478</ele>
        <time>2019-08-17T10:22:51Z</time>
      </trkpt>
      <trkpt lat="42.95664" lon="0.84763">
        <ele>1478</ele>
        <time>2019-08-17T10:22:52Z</time>
      </trkpt>
      <trkpt lat="42.95664" lon="0.84763">
        <ele>1478</ele>
        <time>2019-08-17T10:22:53Z</time>
      </trkpt>
      <trkpt lat="42.95664" lon="0.84763">
        <ele>1478</ele>
        <time>2019-08-17T10:22:54Z</time>
      </trkpt>
      <trkpt lat="42.95664" lon="0.84762">
        <ele>1478.1</ele>
        <time>2019-08-17T10:22:55Z</time>
      </trkpt>
      <trkpt lat="42.95664" lon="0.84762">
        <ele>1478.1</ele>
        <time>2019-08-17T10:22:56Z</time>
      </trkpt>
      <trkpt lat="42.95664" lon="0.84762">
        <ele>1478.1</ele>
        <time>2019-08-17T10:22:57Z</time>
      </trkpt>
      <trkpt lat="42.95664" lon="0.84762">
        <ele>1478.1</ele>
        <time>2019-08-17T10:22:58Z</time>
      </trkpt>
      <trkpt lat="42.95664" lon="0.84761">
        <ele>1478.1</ele>
        <time>2019-08-17T10:22:59Z</time>
      </trkpt>
      <trkpt lat="42.95664" lon="0.84761">
        <ele>1478.2</ele>
        <time>2019-08-17T10:23:00Z</time>
      </trkpt>
      <trkpt lat="42.95664" lon="0.84761">
        <ele>1478.2</ele>
        <time>2019-08-17T10:23:01Z</time>
      </trkpt>
      <trkpt lat="42.95664" lon="0.84761">
        <ele>1478.2</ele>
        <time>2019-08-17T10:23:02Z</time>
      </trkpt>
      <trkpt lat="42.95664" lon="0.8476">
        <ele>1478.2</ele>
        <time>2019-08-17T10:23:03Z</time>
      </trkpt>
      <trkpt lat="42.95664" lon="0.8476">
        <ele>1478.2</ele>
        <time>2019-08-17T10:23:04Z</time>
      </trkpt>
      <trkpt lat="42.95664" lon="0.8476">
        <ele>1478.2</ele>
        <time>2019-08-17T10:23:05Z</time>
      </trkpt>
      <trkpt lat="42.95664" lon="0.8476">
        <ele>1478.3</ele>
        <time>2019-08-17T10:23:06Z</time>
      </trkpt>
      <trkpt lat="42.95664" lon="0.84759">
        <ele>1478.3</ele>
        <time>2019-08-17T10:23:07Z</time>
      </trkpt>
      <trkpt lat="42.95664" lon="0.84759">
        <ele>1478.3</ele>
        <time>2019-08-17T10:23:08Z</time>
      </trkpt>
      <trkpt lat="42.95664" lon="0.84759">
        <ele>1478.3</ele>
        <time>2019-08-17T10:23:09Z</time>
      </trkpt>
      <trkpt lat="42.95664" lon="0.84758">
        <ele>1478.4</ele>
        <time>2019-08-17T10:23:10Z</time>
      </trkpt>
      <trkpt lat="42.95664" lon="0.84758">
        <ele>1478.4</ele>
        <time>2019-08-17T10:23:11Z</time>
      </trkpt>
      <trkpt lat="42.95664" lon="0.84758">
        <ele>1478.4</ele>
        <time>2019-08-17T10:23:12Z</time>
      </trkpt>
      <trkpt lat="42.95664" lon="0.84758">
        <ele>1478.5</ele>
        <time>2019-08-17T10:23:13Z</time>
      </trkpt>
      <trkpt lat="42.95664" lon="0.84757">
        <ele>1478.5</ele>
        <time>2019-08-17T10:23:14Z</time>
      </trkpt>
      <trkpt lat="42.95664" lon="0.84757">
        <ele>1478.5</ele>
        <time>2019-08-17T10:23:15Z</time>
      </trkpt>
      <trkpt lat="42.95664" lon="0.84757">
        <ele>1478.6</ele>
        <time>2019-08-17T10:23:16Z</time>
      </trkpt>
      <trkpt lat="42.95664" lon="0.84757">
        <ele>1478.6</ele>
        <time>2019-08-17T10:23:17Z</time>
      </trkpt>
      <trkpt lat="42.95664" lon="0.84756">
        <ele>1478.6</ele>
        <time>2019-08-17T10:23:18Z</time>
      </trkpt>
      <trkpt lat="42.95664" lon="0.84756">
        <ele>1478.7</ele>
        <time>2019-08-17T10:23:19Z</time>
      </trkpt>
      <trkpt lat="42.95664" lon="0.84756">
        <ele>1478.7</ele>
        <time>2019-08-17T10:23:20Z</time>
      </trkpt>
      <trkpt lat="42.95664" lon="0.84756">
        <ele>1478.7</ele>
        <time>2019-08-17T10:23:21Z</time>
      </trkpt>
      <trkpt lat="42.95664" lon="0.84755">
        <ele>1478.8</ele>
        <time>2019-08-17T10:23:22Z</time>
      </trkpt>
      <trkpt lat="42.95664" lon="0.84755">
        <ele>1478.8</ele>
        <time>2019-08-17T10:23:23Z</time>
      </trkpt>
      <trkpt lat="42.95664" lon="0.84755">
        <ele>1478.8</ele>
        <time>2019-08-17T10:23:24Z</time>
      </trkpt>
      <trkpt lat="42.95664" lon="0.84754">
        <ele>1478.9</ele>
        <time>2019-08-17T10:23:25Z</time>
      </trkpt>
      <trkpt lat="42.95664" lon="0.84754">
        <ele>1478.9</ele>
        <time>2019-08-17T10:23:26Z</time>
      </trkpt>
      <trkpt lat="42.95664" lon="0.84754">
        <ele>1478.9</ele>
        <time>2019-08-17T10:23:27Z</time>
      </trkpt>
      <trkpt lat="42.95664" lon="0.84754">
        <ele>1479</ele>
        <time>2019-08-17T10:23:28Z</time>
      </trkpt>
      <trkpt lat="42.95664" lon="0.84753">
        <ele>1479</ele>
        <time>2019-08-17T10:23:29Z</time>
      </trkpt>
      <trkpt lat="42.95664" lon="0.84753">
        <ele>1479</ele>
        <time>2019-08-17T10:23:30Z</time>
      </trkpt>
      <trkpt lat="42.95664" lon="0.84753">
        <ele>1479.1</ele>
        <time>2019-08-17T10:23:31Z</time>
      </trkpt>
      <trkpt lat="42.95664" lon="0.84753">
        <ele>1479.1</ele>
        <time>2019-08-17T10:23:32Z</time>
      </trkpt>
      <trkpt lat="42.95664" lon="0.84752">
        <ele>1479.1</ele>
        <time>2019-08-17T10:23:33Z</time>
      </trkpt>
      <trkpt lat="42.95664" lon="0.84752">
        <ele>1479.2</ele>
        <time>2019-08-17T10:23:34Z</time>
      </trkpt>
      <trkpt lat="42.95664" lon="0.84752">
        <ele>1479.2</ele>
        <time>2019-08-17T10:23:35Z</time>
      </trkpt>
      <trkpt lat="42.95664" lon="0.84752">
        <ele>1479.3</ele>
        <time>2019-08-17T10:23:36Z</time>
      </trkpt>
      <trkpt lat="42.95664" lon="0.84751">
        <ele>1479.3</ele>
        <time>2019-08-17T10:23:37Z</time>
      </trkpt>
      <trkpt lat="42.95664" lon="0.84751">
        <ele>1479.3</ele>
        <time>2019-08-17T10:23:38Z</time>
      </trkpt>
      <trkpt lat="42.95664" lon="0.84751">
        <ele>1479.4</ele>
        <time>2019-08-17T10:23:39Z</time>
      </trkpt>
      <trkpt lat="42.95664" lon="0.84751">
        <ele>1479.4</ele>
        <time>2019-08-17T10:23:40Z</time>
      </trkpt>
      <trkpt lat="42.95664" lon="0.84751">
        <ele>1479.4</ele>
        <time>2019-08-17T10:23:41Z</time>
      </trkpt>
      <trkpt lat="42.95664" lon="0.84751">
        <ele>1479.4</ele>
        <time>2019-08-17T10:23:42Z</time>
      </trkpt>
      <trkpt lat="42.95664" lon="0.84751">
        <ele>1479.4</ele>
        <time>2019-08-17T10:23:43Z</time>
      </trkpt>
      <trkpt lat="42.95664" lon="0.84751">
        <ele>1479.4</ele>
        <time>2019-08-17T10:23:44Z</time>
      </trkpt>
      <trkpt lat="42.95664" lon="0.84751">
        <ele>1479.4</ele>
        <time>2019-08-17T10:23:45Z</time>
      </trkpt>
      <trkpt lat="42.95664" lon="0.84751">
        <ele>1479.4</ele>
        <time>2019-08-17T10:23:46Z</time>
      </trkpt>
      <trkpt lat="42.95664" lon="0.84751">
        <ele>1479.4</ele>
        <time>2019-08-17T10:23:47Z</time>
      </trkpt>
      <trkpt lat="42.95664" lon="0.84751">
        <ele>1479.4</ele>
        <time>2019-08-17T10:23:48Z</time>
      </trkpt>
      <trkpt lat="42.95664" lon="0.84751">
        <ele>1479.4</ele>
        <time>2019-08-17T10:23:49Z</time>
      </trkpt>
      <trkpt lat="42.95664" lon="0.84751">
        <ele>1479.4</ele>
        <time>2019-08-17T10:23:50Z</time>
      </trkpt>
      <trkpt lat="42.95664" lon="0.84751">
        <ele>1479.4</ele>
        <time>2019-08-17T10:23:51Z</time>
      </trkpt>
      <trkpt lat="42.95664" lon="0.84751">
        <ele>1479.4</ele>
        <time>2019-08-17T10:23:52Z</time>
      </trkpt>
      <trkpt lat="42.95664" lon="0.84751">
        <ele>1479.4</ele>
        <time>2019-08-17T10:23:53Z</time>
      </trkpt>
      <trkpt lat="42.95664" lon="0.84751">
        <ele>1479.4</ele>
        <time>2019-08-17T10:23:54Z</time>
      </trkpt>
      <trkpt lat="42.95664" lon="0.84751">
        <ele>1479.4</ele>
        <time>2019-08-17T10:23:55Z</time>
      </trkpt>
      <trkpt lat="42.95664" lon="0.84751">
        <ele>1479.4</ele>
        <time>2019-08-17T10:23:56Z</time>
      </trkpt>
      <trkpt lat="42.95664" lon="0.84751">
        <ele>1479.4</ele>
        <time>2019-08-17T10:23:57Z</time>
      </trkpt>
      <trkpt lat="42.95664" lon="0.84751">
        <ele>1479.4</ele>
        <time>2019-08-17T10:23:58Z</time>
      </trkpt>
      <trkpt lat="42.95664" lon="0.84751">
        <ele>1479.4</ele>
        <time>2019-08-17T10:23:59Z</time>
      </trkpt>
      <trkpt lat="42.95664" lon="0.84751">
        <ele>1479.4</ele>
        <time>2019-08-17T10:24:00Z</time>
      </trkpt>
      <trkpt lat="42.95664" lon="0.84751">
        <ele>1479.4</ele>
        <time>2019-08-17T10:24:01Z</time>
      </trkpt>
      <trkpt lat="42.95664" lon="0.84751">
        <ele>1479.4</ele>
        <time>2019-08-17T10:24:02Z</time>
      </trkpt>
      <trkpt lat="42.95664" lon="0.84751">
        <ele>1479.4</ele>
        <time>2019-08-17T10:24:03Z</time>
      </trkpt>
      <trkpt lat="42.95664" lon="0.84751">
        <ele>1479.4</ele>
        <time>2019-08-17T10:24:04Z</time>
      </trkpt>
      <trkpt lat="42.95664" lon="0.84751">
        <ele>1479.4</ele>
        <time>2019-08-17T10:24:05Z</time>
      </trkpt>
      <trkpt lat="42.95664" lon="0.84751">
        <ele>1479.4</ele>
        <time>2019-08-17T10:24:06Z</time>
      </trkpt>
      <trkpt lat="42.95664" lon="0.84751">
        <ele>1479.4</ele>
        <time>2019-08-17T10:24:07Z</time>
      </trkpt>
      <trkpt lat="42.95664" lon="0.84751">
        <ele>1479.4</ele>
        <time>2019-08-17T10:24:08Z</time>
      </trkpt>
      <trkpt lat="42.95664" lon="0.84751">
        <ele>1479.4</ele>
        <time>2019-08-17T10:24:09Z</time>
      </trkpt>
      <trkpt lat="42.95664" lon="0.84751">
        <ele>1479.4</ele>
        <time>2019-08-17T10:24:10Z</time>
      </trkpt>
      <trkpt lat="42.95664" lon="0.84751">
        <ele>1479.4</ele>
        <time>2019-08-17T10:24:11Z</time>
      </trkpt>
      <trkpt lat="42.95664" lon="0.84751">
        <ele>1479.4</ele>
        <time>2019-08-17T10:24:12Z</time>
      </trkpt>
      <trkpt lat="42.95664" lon="0.84751">
        <ele>1479.4</ele>
        <time>2019-08-17T10:24:13Z</time>
      </trkpt>
      <trkpt lat="42.95664" lon="0.84751">
        <ele>1479.4</ele>
        <time>2019-08-17T10:24:14Z</time>
      </trkpt>
      <trkpt lat="42.95664" lon="0.84751">
        <ele>1479.4</ele>
        <time>2019-08-17T10:24:15Z</time>
      </trkpt>
      <trkpt lat="42.95664" lon="0.84751">
        <ele>1479.4</ele>
        <time>2019-08-17T10:24:16Z</time>
      </trkpt>
      <trkpt lat="42.95664" lon="0.84751">
        <ele>1479.4</ele>
        <time>2019-08-17T10:24:17Z</time>
      </trkpt>
      <trkpt lat="42.95664" lon="0.84751">
        <ele>1479.4</ele>
        <time>2019-08-17T10:24:18Z</time>
      </trkpt>
      <trkpt lat="42.95664" lon="0.84751">
        <ele>1479.5</ele>
        <time>2019-08-17T10:24:19Z</time>
      </trkpt>
      <trkpt lat="42.95664" lon="0.84751">
        <ele>1479.5</ele>
        <time>2019-08-17T10:24:20Z</time>
      </trkpt>
      <trkpt lat="42.95664" lon="0.84751">
        <ele>1479.5</ele>
        <time>2019-08-17T10:24:21Z</time>
      </trkpt>
      <trkpt lat="42.95664" lon="0.84751">
        <ele>1479.5</ele>
        <time>2019-08-17T10:24:22Z</time>
      </trkpt>
      <trkpt lat="42.95664" lon="0.84751">
        <ele>1479.5</ele>
        <time>2019-08-17T10:24:23Z</time>
      </trkpt>
      <trkpt lat="42.95664" lon="0.84751">
        <ele>1479.5</ele>
        <time>2019-08-17T10:24:24Z</time>
      </trkpt>
      <trkpt lat="42.95664" lon="0.84751">
        <ele>1479.5</ele>
        <time>2019-08-17T10:24:25Z</time>
      </trkpt>
      <trkpt lat="42.95664" lon="0.84751">
        <ele>1479.5</ele>
        <time>2019-08-17T10:24:26Z</time>
      </trkpt>
      <trkpt lat="42.95664" lon="0.84751">
        <ele>1479.5</ele>
        <time>2019-08-17T10:24:27Z</time>
      </trkpt>
      <trkpt lat="42.95664" lon="0.84751">
        <ele>1479.5</ele>
        <time>2019-08-17T10:24:28Z</time>
      </trkpt>
      <trkpt lat="42.95664" lon="0.84751">
        <ele>1479.5</ele>
        <time>2019-08-17T10:24:29Z</time>
      </trkpt>
      <trkpt lat="42.95664" lon="0.84751">
        <ele>1479.5</ele>
        <time>2019-08-17T10:24:30Z</time>
      </trkpt>
      <trkpt lat="42.95664" lon="0.84751">
        <ele>1479.5</ele>
        <time>2019-08-17T10:24:31Z</time>
      </trkpt>
      <trkpt lat="42.95664" lon="0.84751">
        <ele>1479.5</ele>
        <time>2019-08-17T10:24:32Z</time>
      </trkpt>
      <trkpt lat="42.95664" lon="0.84751">
        <ele>1479.5</ele>
        <time>2019-08-17T10:24:33Z</time>
      </trkpt>
      <trkpt lat="42.95664" lon="0.84751">
        <ele>1479.5</ele>
        <time>2019-08-17T10:24:34Z</time>
      </trkpt>
      <trkpt lat="42.95664" lon="0.84751">
        <ele>1479.5</ele>
        <time>2019-08-17T10:24:35Z</time>
      </trkpt>
      <trkpt lat="42.95664" lon="0.84751">
        <ele>1479.5</ele>
        <time>2019-08-17T10:24:36Z</time>
      </trkpt>
      <trkpt lat="42.95664" lon="0.84751">
        <ele>1479.5</ele>
        <time>2019-08-17T10:24:37Z</time>
      </trkpt>
      <trkpt lat="42.95664" lon="0.84751">
        <ele>1479.5</ele>
        <time>2019-08-17T10:24:38Z</time>
      </trkpt>
      <trkpt lat="42.95664" lon="0.84751">
        <ele>1479.5</ele>
        <time>2019-08-17T10:24:39Z</time>
      </trkpt>
      <trkpt lat="42.95664" lon="0.84751">
        <ele>1479.5</ele>
        <time>2019-08-17T10:24:40Z</time>
      </trkpt>
      <trkpt lat="42.95664" lon="0.84751">
        <ele>1479.5</ele>
        <time>2019-08-17T10:24:41Z</time>
      </trkpt>
      <trkpt lat="42.95665" lon="0.84751">
        <ele>1479.5</ele>
        <time>2019-08-17T10:24:42Z</time>
      </trkpt>
      <trkpt lat="42.95665" lon="0.84751">
        <ele>1479.5</ele>
        <time>2019-08-17T10:24:43Z</time>
      </trkpt>
      <trkpt lat="42.95665" lon="0.84751">
        <ele>1479.5</ele>
        <time>2019-08-17T10:24:44Z</time>
      </trkpt>
      <trkpt lat="42.95665" lon="0.84751">
        <ele>1479.5</ele>
        <time>2019-08-17T10:24:45Z</time>
      </trkpt>
      <trkpt lat="42.95665" lon="0.84751">
        <ele>1479.5</ele>
        <time>2019-08-17T10:24:46Z</time>
      </trkpt>
      <trkpt lat="42.95665" lon="0.84751">
        <ele>1479.5</ele>
        <time>2019-08-17T10:24:47Z</time>
      </trkpt>
      <trkpt lat="42.95665" lon="0.84751">
        <ele>1479.5</ele>
        <time>2019-08-17T10:24:48Z</time>
      </trkpt>
      <trkpt lat="42.95665" lon="0.84751">
        <ele>1479.5</ele>
        <time>2019-08-17T10:24:49Z</time>
      </trkpt>
      <trkpt lat="42.95665" lon="0.84751">
        <ele>1479.5</ele>
        <time>2019-08-17T10:24:50Z</time>
      </trkpt>
      <trkpt lat="42.95665" lon="0.84751">
        <ele>1479.5</ele>
        <time>2019-08-17T10:24:51Z</time>
      </trkpt>
      <trkpt lat="42.95665" lon="0.84751">
        <ele>1479.5</ele>
        <time>2019-08-17T10:24:52Z</time>
      </trkpt>
      <trkpt lat="42.95665" lon="0.84751">
        <ele>1479.5</ele>
        <time>2019-08-17T10:24:53Z</time>
      </trkpt>
      <trkpt lat="42.95665" lon="0.84751">
        <ele>1479.5</ele>
        <time>2019-08-17T10:24:54Z</time>
      </trkpt>
      <trkpt lat="42.95665" lon="0.84751">
        <ele>1479.5</ele>
        <time>2019-08-17T10:24:55Z</time>
      </trkpt>
      <trkpt lat="42.95665" lon="0.84751">
        <ele>1479.5</ele>
        <time>2019-08-17T10:24:56Z</time>
      </trkpt>
      <trkpt lat="42.95665" lon="0.84751">
        <ele>1479.5</ele>
        <time>2019-08-17T10:24:57Z</time>
      </trkpt>
      <trkpt lat="42.95665" lon="0.84751">
        <ele>1479.5</ele>
        <time>2019-08-17T10:24:58Z</time>
      </trkpt>
      <trkpt lat="42.95665" lon="0.84751">
        <ele>1479.5</ele>
        <time>2019-08-17T10:24:59Z</time>
      </trkpt>
      <trkpt lat="42.95665" lon="0.84751">
        <ele>1479.5</ele>
        <time>2019-08-17T10:25:00Z</time>
      </trkpt>
      <trkpt lat="42.95665" lon="0.84751">
        <ele>1479.5</ele>
        <time>2019-08-17T10:25:01Z</time>
      </trkpt>
      <trkpt lat="42.95665" lon="0.84751">
        <ele>1479.5</ele>
        <time>2019-08-17T10:25:02Z</time>
      </trkpt>
      <trkpt lat="42.95665" lon="0.84751">
        <ele>1479.5</ele>
        <time>2019-08-17T10:25:03Z</time>
      </trkpt>
      <trkpt lat="42.95665" lon="0.84751">
        <ele>1479.5</ele>
        <time>2019-08-17T10:25:04Z</time>
      </trkpt>
      <trkpt lat="42.95665" lon="0.84751">
        <ele>1479.5</ele>
        <time>2019-08-17T10:25:05Z</time>
      </trkpt>
      <trkpt lat="42.95665" lon="0.84751">
        <ele>1479.5</ele>
        <time>2019-08-17T10:25:06Z</time>
      </trkpt>
      <trkpt lat="42.95665" lon="0.84751">
        <ele>1479.5</ele>
        <time>2019-08-17T10:25:07Z</time>
      </trkpt>
      <trkpt lat="42.95665" lon="0.84751">
        <ele>1479.5</ele>
        <time>2019-08-17T10:25:08Z</time>
      </trkpt>
      <trkpt lat="42.95665" lon="0.84751">
        <ele>1479.5</ele>
        <time>2019-08-17T10:25:09Z</time>
      </trkpt>
      <trkpt lat="42.95665" lon="0.84751">
        <ele>1479.5</ele>
        <time>2019-08-17T10:25:10Z</time>
      </trkpt>
      <trkpt lat="42.95665" lon="0.84751">
        <ele>1479.5</ele>
        <time>2019-08-17T10:25:11Z</time>
      </trkpt>
      <trkpt lat="42.95665" lon="0.84751">
        <ele>1479.6</ele>
        <time>2019-08-17T10:25:12Z</time>
      </trkpt>
      <trkpt lat="42.95665" lon="0.84751">
        <ele>1479.6</ele>
        <time>2019-08-17T10:25:13Z</time>
      </trkpt>
      <trkpt lat="42.95665" lon="0.84751">
        <ele>1479.6</ele>
        <time>2019-08-17T10:25:14Z</time>
      </trkpt>
      <trkpt lat="42.95666" lon="0.84751">
        <ele>1479.7</ele>
        <time>2019-08-17T10:25:15Z</time>
      </trkpt>
      <trkpt lat="42.95666" lon="0.84751">
        <ele>1479.7</ele>
        <time>2019-08-17T10:25:16Z</time>
      </trkpt>
      <trkpt lat="42.95666" lon="0.84751">
        <ele>1479.7</ele>
        <time>2019-08-17T10:25:17Z</time>
      </trkpt>
      <trkpt lat="42.95666" lon="0.84751">
        <ele>1479.7</ele>
        <time>2019-08-17T10:25:18Z</time>
      </trkpt>
      <trkpt lat="42.95666" lon="0.84751">
        <ele>1479.7</ele>
        <time>2019-08-17T10:25:19Z</time>
      </trkpt>
      <trkpt lat="42.95666" lon="0.84751">
        <ele>1479.7</ele>
        <time>2019-08-17T10:25:20Z</time>
      </trkpt>
      <trkpt lat="42.95666" lon="0.84751">
        <ele>1479.7</ele>
        <time>2019-08-17T10:25:21Z</time>
      </trkpt>
      <trkpt lat="42.95666" lon="0.84751">
        <ele>1479.7</ele>
        <time>2019-08-17T10:25:22Z</time>
      </trkpt>
      <trkpt lat="42.95666" lon="0.84751">
        <ele>1479.7</ele>
        <time>2019-08-17T10:25:23Z</time>
      </trkpt>
      <trkpt lat="42.95666" lon="0.84751">
        <ele>1479.7</ele>
        <time>2019-08-17T10:25:24Z</time>
      </trkpt>
      <trkpt lat="42.95666" lon="0.84751">
        <ele>1479.7</ele>
        <time>2019-08-17T10:25:25Z</time>
      </trkpt>
      <trkpt lat="42.95666" lon="0.84751">
        <ele>1479.7</ele>
        <time>2019-08-17T10:25:26Z</time>
      </trkpt>
      <trkpt lat="42.95666" lon="0.84751">
        <ele>1479.7</ele>
        <time>2019-08-17T10:25:27Z</time>
      </trkpt>
      <trkpt lat="42.95666" lon="0.84751">
        <ele>1479.7</ele>
        <time>2019-08-17T10:25:28Z</time>
      </trkpt>
      <trkpt lat="42.95666" lon="0.84751">
        <ele>1479.7</ele>
        <time>2019-08-17T10:25:29Z</time>
      </trkpt>
      <trkpt lat="42.95666" lon="0.84751">
        <ele>1479.7</ele>
        <time>2019-08-17T10:25:30Z</time>
      </trkpt>
      <trkpt lat="42.95666" lon="0.84751">
        <ele>1479.7</ele>
        <time>2019-08-17T10:25:31Z</time>
      </trkpt>
      <trkpt lat="42.95666" lon="0.84751">
        <ele>1479.7</ele>
        <time>2019-08-17T10:25:32Z</time>
      </trkpt>
      <trkpt lat="42.95666" lon="0.84751">
        <ele>1479.7</ele>
        <time>2019-08-17T10:25:33Z</time>
      </trkpt>
      <trkpt lat="42.95666" lon="0.84751">
        <ele>1479.7</ele>
        <time>2019-08-17T10:25:34Z</time>
      </trkpt>
      <trkpt lat="42.95666" lon="0.84751">
        <ele>1479.7</ele>
        <time>2019-08-17T10:25:35Z</time>
      </trkpt>
      <trkpt lat="42.95666" lon="0.84751">
        <ele>1479.7</ele>
        <time>2019-08-17T10:25:36Z</time>
      </trkpt>
      <trkpt lat="42.95666" lon="0.84751">
        <ele>1479.7</ele>
        <time>2019-08-17T10:25:37Z</time>
      </trkpt>
      <trkpt lat="42.95666" lon="0.84751">
        <ele>1479.7</ele>
        <time>2019-08-17T10:25:38Z</time>
      </trkpt>
      <trkpt lat="42.95666" lon="0.84751">
        <ele>1479.7</ele>
        <time>2019-08-17T10:25:39Z</time>
      </trkpt>
      <trkpt lat="42.95666" lon="0.84751">
        <ele>1479.7</ele>
        <time>2019-08-17T10:25:40Z</time>
      </trkpt>
      <trkpt lat="42.95666" lon="0.84751">
        <ele>1479.7</ele>
        <time>2019-08-17T10:25:41Z</time>
      </trkpt>
      <trkpt lat="42.95666" lon="0.84751">
        <ele>1479.7</ele>
        <time>2019-08-17T10:25:42Z</time>
      </trkpt>
      <trkpt lat="42.95666" lon="0.84751">
        <ele>1479.7</ele>
        <time>2019-08-17T10:25:43Z</time>
      </trkpt>
      <trkpt lat="42.95666" lon="0.84751">
        <ele>1479.7</ele>
        <time>2019-08-17T10:25:44Z</time>
      </trkpt>
      <trkpt lat="42.95666" lon="0.84751">
        <ele>1479.7</ele>
        <time>2019-08-17T10:25:45Z</time>
      </trkpt>
      <trkpt lat="42.95666" lon="0.84751">
        <ele>1479.7</ele>
        <time>2019-08-17T10:25:46Z</time>
      </trkpt>
      <trkpt lat="42.95666" lon="0.84751">
        <ele>1479.7</ele>
        <time>2019-08-17T10:25:47Z</time>
      </trkpt>
      <trkpt lat="42.95666" lon="0.84751">
        <ele>1479.7</ele>
        <time>2019-08-17T10:25:48Z</time>
      </trkpt>
      <trkpt lat="42.95666" lon="0.84751">
        <ele>1479.7</ele>
        <time>2019-08-17T10:25:49Z</time>
      </trkpt>
      <trkpt lat="42.95666" lon="0.84751">
        <ele>1479.7</ele>
        <time>2019-08-17T10:25:50Z</time>
      </trkpt>
      <trkpt lat="42.95666" lon="0.84751">
        <ele>1479.7</ele>
        <time>2019-08-17T10:25:51Z</time>
      </trkpt>
      <trkpt lat="42.95666" lon="0.84751">
        <ele>1479.7</ele>
        <time>2019-08-17T10:25:52Z</time>
      </trkpt>
      <trkpt lat="42.95666" lon="0.84751">
        <ele>1479.7</ele>
        <time>2019-08-17T10:25:53Z</time>
      </trkpt>
      <trkpt lat="42.95666" lon="0.84751">
        <ele>1479.7</ele>
        <time>2019-08-17T10:25:54Z</time>
      </trkpt>
      <trkpt lat="42.95666" lon="0.84751">
        <ele>1479.7</ele>
        <time>2019-08-17T10:25:55Z</time>
      </trkpt>
      <trkpt lat="42.95666" lon="0.84751">
        <ele>1479.7</ele>
        <time>2019-08-17T10:25:56Z</time>
      </trkpt>
      <trkpt lat="42.95666" lon="0.84751">
        <ele>1479.7</ele>
        <time>2019-08-17T10:25:57Z</time>
      </trkpt>
      <trkpt lat="42.95666" lon="0.84751">
        <ele>1479.7</ele>
        <time>2019-08-17T10:25:58Z</time>
      </trkpt>
      <trkpt lat="42.95666" lon="0.84751">
        <ele>1479.7</ele>
        <time>2019-08-17T10:25:59Z</time>
      </trkpt>
      <trkpt lat="42.95666" lon="0.84751">
        <ele>1479.7</ele>
        <time>2019-08-17T10:26:00Z</time>
      </trkpt>
      <trkpt lat="42.95666" lon="0.84751">
        <ele>1479.7</ele>
        <time>2019-08-17T10:26:01Z</time>
      </trkpt>
      <trkpt lat="42.95666" lon="0.84751">
        <ele>1479.7</ele>
        <time>2019-08-17T10:26:02Z</time>
      </trkpt>
      <trkpt lat="42.95666" lon="0.84751">
        <ele>1479.7</ele>
        <time>2019-08-17T10:26:03Z</time>
      </trkpt>
      <trkpt lat="42.95666" lon="0.84751">
        <ele>1479.7</ele>
        <time>2019-08-17T10:26:04Z</time>
      </trkpt>
      <trkpt lat="42.95666" lon="0.84751">
        <ele>1479.7</ele>
        <time>2019-08-17T10:26:05Z</time>
      </trkpt>
      <trkpt lat="42.95666" lon="0.84751">
        <ele>1479.7</ele>
        <time>2019-08-17T10:26:06Z</time>
      </trkpt>
      <trkpt lat="42.95666" lon="0.84751">
        <ele>1479.7</ele>
        <time>2019-08-17T10:26:07Z</time>
      </trkpt>
      <trkpt lat="42.95666" lon="0.84751">
        <ele>1479.7</ele>
        <time>2019-08-17T10:26:08Z</time>
      </trkpt>
      <trkpt lat="42.95666" lon="0.84751">
        <ele>1479.7</ele>
        <time>2019-08-17T10:26:09Z</time>
      </trkpt>
      <trkpt lat="42.95666" lon="0.84751">
        <ele>1479.7</ele>
        <time>2019-08-17T10:26:10Z</time>
      </trkpt>
      <trkpt lat="42.95666" lon="0.84751">
        <ele>1479.7</ele>
        <time>2019-08-17T10:26:11Z</time>
      </trkpt>
      <trkpt lat="42.95666" lon="0.84751">
        <ele>1479.7</ele>
        <time>2019-08-17T10:26:12Z</time>
      </trkpt>
      <trkpt lat="42.95666" lon="0.84751">
        <ele>1479.7</ele>
        <time>2019-08-17T10:26:13Z</time>
      </trkpt>
      <trkpt lat="42.95666" lon="0.84751">
        <ele>1479.7</ele>
        <time>2019-08-17T10:26:14Z</time>
      </trkpt>
      <trkpt lat="42.95666" lon="0.84751">
        <ele>1479.7</ele>
        <time>2019-08-17T10:26:15Z</time>
      </trkpt>
      <trkpt lat="42.95666" lon="0.84751">
        <ele>1479.7</ele>
        <time>2019-08-17T10:26:16Z</time>
      </trkpt>
      <trkpt lat="42.95666" lon="0.84751">
        <ele>1479.7</ele>
        <time>2019-08-17T10:26:17Z</time>
      </trkpt>
      <trkpt lat="42.95666" lon="0.84751">
        <ele>1479.7</ele>
        <time>2019-08-17T10:26:18Z</time>
      </trkpt>
      <trkpt lat="42.95666" lon="0.84751">
        <ele>1479.7</ele>
        <time>2019-08-17T10:26:19Z</time>
      </trkpt>
      <trkpt lat="42.95666" lon="0.84751">
        <ele>1479.7</ele>
        <time>2019-08-17T10:26:20Z</time>
      </trkpt>
      <trkpt lat="42.95666" lon="0.84751">
        <ele>1479.7</ele>
        <time>2019-08-17T10:26:21Z</time>
      </trkpt>
      <trkpt lat="42.95666" lon="0.84751">
        <ele>1479.7</ele>
        <time>2019-08-17T10:26:22Z</time>
      </trkpt>
      <trkpt lat="42.95666" lon="0.84751">
        <ele>1479.7</ele>
        <time>2019-08-17T10:26:23Z</time>
      </trkpt>
      <trkpt lat="42.95666" lon="0.84751">
        <ele>1479.7</ele>
        <time>2019-08-17T10:26:24Z</time>
      </trkpt>
      <trkpt lat="42.95666" lon="0.84751">
        <ele>1479.7</ele>
        <time>2019-08-17T10:26:25Z</time>
      </trkpt>
      <trkpt lat="42.95666" lon="0.84751">
        <ele>1479.7</ele>
        <time>2019-08-17T10:26:26Z</time>
      </trkpt>
      <trkpt lat="42.95666" lon="0.84751">
        <ele>1479.7</ele>
        <time>2019-08-17T10:26:27Z</time>
      </trkpt>
      <trkpt lat="42.95666" lon="0.84751">
        <ele>1479.7</ele>
        <time>2019-08-17T10:26:28Z</time>
      </trkpt>
      <trkpt lat="42.95666" lon="0.84751">
        <ele>1479.7</ele>
        <time>2019-08-17T10:26:29Z</time>
      </trkpt>
      <trkpt lat="42.95666" lon="0.84751">
        <ele>1479.7</ele>
        <time>2019-08-17T10:26:30Z</time>
      </trkpt>
      <trkpt lat="42.95666" lon="0.84751">
        <ele>1479.7</ele>
        <time>2019-08-17T10:26:31Z</time>
      </trkpt>
      <trkpt lat="42.95666" lon="0.84751">
        <ele>1479.7</ele>
        <time>2019-08-17T10:26:32Z</time>
      </trkpt>
      <trkpt lat="42.95666" lon="0.84751">
        <ele>1479.7</ele>
        <time>2019-08-17T10:26:33Z</time>
      </trkpt>
      <trkpt lat="42.95666" lon="0.84751">
        <ele>1479.7</ele>
        <time>2019-08-17T10:26:34Z</time>
      </trkpt>
      <trkpt lat="42.95666" lon="0.84751">
        <ele>1479.7</ele>
        <time>2019-08-17T10:26:35Z</time>
      </trkpt>
      <trkpt lat="42.95666" lon="0.84751">
        <ele>1479.7</ele>
        <time>2019-08-17T10:26:36Z</time>
      </trkpt>
      <trkpt lat="42.95666" lon="0.84751">
        <ele>1479.7</ele>
        <time>2019-08-17T10:26:37Z</time>
      </trkpt>
      <trkpt lat="42.95666" lon="0.84751">
        <ele>1479.7</ele>
        <time>2019-08-17T10:26:38Z</time>
      </trkpt>
      <trkpt lat="42.95666" lon="0.84751">
        <ele>1479.7</ele>
        <time>2019-08-17T10:26:39Z</time>
      </trkpt>
      <trkpt lat="42.95666" lon="0.84751">
        <ele>1479.7</ele>
        <time>2019-08-17T10:26:40Z</time>
      </trkpt>
      <trkpt lat="42.95666" lon="0.84751">
        <ele>1479.7</ele>
        <time>2019-08-17T10:26:41Z</time>
      </trkpt>
      <trkpt lat="42.95666" lon="0.84751">
        <ele>1479.7</ele>
        <time>2019-08-17T10:26:42Z</time>
      </trkpt>
      <trkpt lat="42.95666" lon="0.84751">
        <ele>1479.7</ele>
        <time>2019-08-17T10:26:43Z</time>
      </trkpt>
      <trkpt lat="42.95666" lon="0.84751">
        <ele>1479.7</ele>
        <time>2019-08-17T10:26:44Z</time>
      </trkpt>
      <trkpt lat="42.95666" lon="0.84751">
        <ele>1479.7</ele>
        <time>2019-08-17T10:26:45Z</time>
      </trkpt>
      <trkpt lat="42.95666" lon="0.84751">
        <ele>1479.7</ele>
        <time>2019-08-17T10:26:46Z</time>
      </trkpt>
      <trkpt lat="42.95666" lon="0.84751">
        <ele>1479.7</ele>
        <time>2019-08-17T10:26:47Z</time>
      </trkpt>
      <trkpt lat="42.95666" lon="0.84751">
        <ele>1479.7</ele>
        <time>2019-08-17T10:26:48Z</time>
      </trkpt>
      <trkpt lat="42.95666" lon="0.84751">
        <ele>1479.7</ele>
        <time>2019-08-17T10:26:49Z</time>
      </trkpt>
      <trkpt lat="42.95666" lon="0.84751">
        <ele>1479.7</ele>
        <time>2019-08-17T10:26:50Z</time>
      </trkpt>
      <trkpt lat="42.95666" lon="0.84751">
        <ele>1479.7</ele>
        <time>2019-08-17T10:26:51Z</time>
      </trkpt>
      <trkpt lat="42.95666" lon="0.84751">
        <ele>1479.7</ele>
        <time>2019-08-17T10:26:52Z</time>
      </trkpt>
      <trkpt lat="42.95666" lon="0.84751">
        <ele>1479.7</ele>
        <time>2019-08-17T10:26:53Z</time>
      </trkpt>
      <trkpt lat="42.95666" lon="0.84751">
        <ele>1479.7</ele>
        <time>2019-08-17T10:26:54Z</time>
      </trkpt>
      <trkpt lat="42.95666" lon="0.84751">
        <ele>1479.7</ele>
        <time>2019-08-17T10:26:55Z</time>
      </trkpt>
      <trkpt lat="42.95666" lon="0.84751">
        <ele>1479.7</ele>
        <time>2019-08-17T10:26:56Z</time>
      </trkpt>
      <trkpt lat="42.95666" lon="0.84751">
        <ele>1479.7</ele>
        <time>2019-08-17T10:26:57Z</time>
      </trkpt>
      <trkpt lat="42.95666" lon="0.84751">
        <ele>1479.7</ele>
        <time>2019-08-17T10:26:58Z</time>
      </trkpt>
      <trkpt lat="42.95666" lon="0.84751">
        <ele>1479.7</ele>
        <time>2019-08-17T10:26:59Z</time>
      </trkpt>
      <trkpt lat="42.95666" lon="0.84751">
        <ele>1479.7</ele>
        <time>2019-08-17T10:27:00Z</time>
      </trkpt>
      <trkpt lat="42.95666" lon="0.84751">
        <ele>1479.7</ele>
        <time>2019-08-17T10:27:01Z</time>
      </trkpt>
      <trkpt lat="42.95666" lon="0.84751">
        <ele>1479.7</ele>
        <time>2019-08-17T10:27:02Z</time>
      </trkpt>
      <trkpt lat="42.95665" lon="0.8475">
        <ele>1479.8</ele>
        <time>2019-08-17T10:27:03Z</time>
      </trkpt>
      <trkpt lat="42.95664" lon="0.84749">
        <ele>1480.1</ele>
        <time>2019-08-17T10:27:04Z</time>
      </trkpt>
      <trkpt lat="42.95663" lon="0.84748">
        <ele>1480.2</ele>
        <time>2019-08-17T10:27:05Z</time>
      </trkpt>
      <trkpt lat="42.95663" lon="0.84748">
        <ele>1480.3</ele>
        <time>2019-08-17T10:27:06Z</time>
      </trkpt>
      <trkpt lat="42.95663" lon="0.84748">
        <ele>1480.3</ele>
        <time>2019-08-17T10:27:07Z</time>
      </trkpt>
      <trkpt lat="42.95663" lon="0.84747">
        <ele>1480.3</ele>
        <time>2019-08-17T10:27:08Z</time>
      </trkpt>
      <trkpt lat="42.95663" lon="0.84747">
        <ele>1480.3</ele>
        <time>2019-08-17T10:27:09Z</time>
      </trkpt>
      <trkpt lat="42.95663" lon="0.84747">
        <ele>1480.4</ele>
        <time>2019-08-17T10:27:10Z</time>
      </trkpt>
      <trkpt lat="42.95662" lon="0.84747">
        <ele>1480.4</ele>
        <time>2019-08-17T10:27:11Z</time>
      </trkpt>
      <trkpt lat="42.95662" lon="0.84746">
        <ele>1480.5</ele>
        <time>2019-08-17T10:27:12Z</time>
      </trkpt>
      <trkpt lat="42.95662" lon="0.84746">
        <ele>1480.5</ele>
        <time>2019-08-17T10:27:13Z</time>
      </trkpt>
      <trkpt lat="42.95662" lon="0.84746">
        <ele>1480.6</ele>
        <time>2019-08-17T10:27:14Z</time>
      </trkpt>
      <trkpt lat="42.95662" lon="0.84746">
        <ele>1480.6</ele>
        <time>2019-08-17T10:27:15Z</time>
      </trkpt>
      <trkpt lat="42.95662" lon="0.84746">
        <ele>1480.6</ele>
        <time>2019-08-17T10:27:16Z</time>
      </trkpt>
      <trkpt lat="42.95661" lon="0.84745">
        <ele>1480.6</ele>
        <time>2019-08-17T10:27:17Z</time>
      </trkpt>
      <trkpt lat="42.95661" lon="0.84745">
        <ele>1480.7</ele>
        <time>2019-08-17T10:27:18Z</time>
      </trkpt>
      <trkpt lat="42.95661" lon="0.84745">
        <ele>1480.7</ele>
        <time>2019-08-17T10:27:19Z</time>
      </trkpt>
      <trkpt lat="42.95661" lon="0.84745">
        <ele>1480.7</ele>
        <time>2019-08-17T10:27:20Z</time>
      </trkpt>
      <trkpt lat="42.95661" lon="0.84745">
        <ele>1480.8</ele>
        <time>2019-08-17T10:27:21Z</time>
      </trkpt>
      <trkpt lat="42.9566" lon="0.84745">
        <ele>1480.9</ele>
        <time>2019-08-17T10:27:22Z</time>
      </trkpt>
      <trkpt lat="42.9566" lon="0.84745">
        <ele>1480.9</ele>
        <time>2019-08-17T10:27:23Z</time>
      </trkpt>
      <trkpt lat="42.95659" lon="0.84745">
        <ele>1481</ele>
        <time>2019-08-17T10:27:24Z</time>
      </trkpt>
      <trkpt lat="42.95659" lon="0.84744">
        <ele>1481</ele>
        <time>2019-08-17T10:27:25Z</time>
      </trkpt>
      <trkpt lat="42.95659" lon="0.84744">
        <ele>1481</ele>
        <time>2019-08-17T10:27:26Z</time>
      </trkpt>
      <trkpt lat="42.95659" lon="0.84744">
        <ele>1481</ele>
        <time>2019-08-17T10:27:27Z</time>
      </trkpt>
      <trkpt lat="42.95659" lon="0.84744">
        <ele>1481</ele>
        <time>2019-08-17T10:27:28Z</time>
      </trkpt>
      <trkpt lat="42.95659" lon="0.84744">
        <ele>1481</ele>
        <time>2019-08-17T10:27:29Z</time>
      </trkpt>
      <trkpt lat="42.95659" lon="0.84744">
        <ele>1481</ele>
        <time>2019-08-17T10:27:30Z</time>
      </trkpt>
      <trkpt lat="42.95659" lon="0.84744">
        <ele>1481</ele>
        <time>2019-08-17T10:27:31Z</time>
      </trkpt>
      <trkpt lat="42.95659" lon="0.84744">
        <ele>1481</ele>
        <time>2019-08-17T10:27:32Z</time>
      </trkpt>
      <trkpt lat="42.95659" lon="0.84744">
        <ele>1481</ele>
        <time>2019-08-17T10:27:33Z</time>
      </trkpt>
      <trkpt lat="42.95659" lon="0.84744">
        <ele>1481</ele>
        <time>2019-08-17T10:27:34Z</time>
      </trkpt>
      <trkpt lat="42.95659" lon="0.84744">
        <ele>1481</ele>
        <time>2019-08-17T10:27:35Z</time>
      </trkpt>
      <trkpt lat="42.95659" lon="0.84744">
        <ele>1481</ele>
        <time>2019-08-17T10:27:36Z</time>
      </trkpt>
      <trkpt lat="42.95659" lon="0.84744">
        <ele>1481.1</ele>
        <time>2019-08-17T10:27:37Z</time>
      </trkpt>
      <trkpt lat="42.95659" lon="0.84744">
        <ele>1481.1</ele>
        <time>2019-08-17T10:27:38Z</time>
      </trkpt>
      <trkpt lat="42.95658" lon="0.84744">
        <ele>1481.1</ele>
        <time>2019-08-17T10:27:39Z</time>
      </trkpt>
      <trkpt lat="42.95658" lon="0.84744">
        <ele>1481.2</ele>
        <time>2019-08-17T10:27:40Z</time>
      </trkpt>
      <trkpt lat="42.95657" lon="0.84743">
        <ele>1481.3</ele>
        <time>2019-08-17T10:27:41Z</time>
      </trkpt>
      <trkpt lat="42.95657" lon="0.84742">
        <ele>1481.4</ele>
        <time>2019-08-17T10:27:42Z</time>
      </trkpt>
      <trkpt lat="42.95657" lon="0.84742">
        <ele>1481.4</ele>
        <time>2019-08-17T10:27:43Z</time>
      </trkpt>
      <trkpt lat="42.95657" lon="0.84741">
        <ele>1481.5</ele>
        <time>2019-08-17T10:27:44Z</time>
      </trkpt>
      <trkpt lat="42.95657" lon="0.84741">
        <ele>1481.5</ele>
        <time>2019-08-17T10:27:45Z</time>
      </trkpt>
      <trkpt lat="42.95657" lon="0.8474">
        <ele>1481.6</ele>
        <time>2019-08-17T10:27:46Z</time>
      </trkpt>
      <trkpt lat="42.95656" lon="0.8474">
        <ele>1481.6</ele>
        <time>2019-08-17T10:27:47Z</time>
      </trkpt>
      <trkpt lat="42.95656" lon="0.84739">
        <ele>1481.7</ele>
        <time>2019-08-17T10:27:48Z</time>
      </trkpt>
      <trkpt lat="42.95656" lon="0.84739">
        <ele>1481.7</ele>
        <time>2019-08-17T10:27:49Z</time>
      </trkpt>
      <trkpt lat="42.95656" lon="0.84738">
        <ele>1481.8</ele>
        <time>2019-08-17T10:27:50Z</time>
      </trkpt>
      <trkpt lat="42.95656" lon="0.84738">
        <ele>1481.8</ele>
        <time>2019-08-17T10:27:51Z</time>
      </trkpt>
      <trkpt lat="42.95656" lon="0.84738">
        <ele>1481.9</ele>
        <time>2019-08-17T10:27:52Z</time>
      </trkpt>
      <trkpt lat="42.95656" lon="0.84737">
        <ele>1481.9</ele>
        <time>2019-08-17T10:27:53Z</time>
      </trkpt>
      <trkpt lat="42.95655" lon="0.84737">
        <ele>1481.9</ele>
        <time>2019-08-17T10:27:54Z</time>
      </trkpt>
      <trkpt lat="42.95655" lon="0.84736">
        <ele>1482</ele>
        <time>2019-08-17T10:27:55Z</time>
      </trkpt>
      <trkpt lat="42.95655" lon="0.84736">
        <ele>1482</ele>
        <time>2019-08-17T10:27:56Z</time>
      </trkpt>
      <trkpt lat="42.95655" lon="0.84735">
        <ele>1482.1</ele>
        <time>2019-08-17T10:27:57Z</time>
      </trkpt>
      <trkpt lat="42.95655" lon="0.84735">
        <ele>1482.1</ele>
        <time>2019-08-17T10:27:58Z</time>
      </trkpt>
      <trkpt lat="42.95655" lon="0.84734">
        <ele>1482.1</ele>
        <time>2019-08-17T10:27:59Z</time>
      </trkpt>
      <trkpt lat="42.95655" lon="0.84734">
        <ele>1482.2</ele>
        <time>2019-08-17T10:28:00Z</time>
      </trkpt>
      <trkpt lat="42.95654" lon="0.84733">
        <ele>1482.2</ele>
        <time>2019-08-17T10:28:01Z</time>
      </trkpt>
      <trkpt lat="42.95654" lon="0.84733">
        <ele>1482.3</ele>
        <time>2019-08-17T10:28:02Z</time>
      </trkpt>
      <trkpt lat="42.95654" lon="0.84732">
        <ele>1482.3</ele>
        <time>2019-08-17T10:28:03Z</time>
      </trkpt>
      <trkpt lat="42.95654" lon="0.84732">
        <ele>1482.3</ele>
        <time>2019-08-17T10:28:04Z</time>
      </trkpt>
      <trkpt lat="42.95654" lon="0.84731">
        <ele>1482.4</ele>
        <time>2019-08-17T10:28:05Z</time>
      </trkpt>
      <trkpt lat="42.95654" lon="0.84731">
        <ele>1482.4</ele>
        <time>2019-08-17T10:28:06Z</time>
      </trkpt>
      <trkpt lat="42.95654" lon="0.8473">
        <ele>1482.5</ele>
        <time>2019-08-17T10:28:07Z</time>
      </trkpt>
      <trkpt lat="42.95653" lon="0.8473">
        <ele>1482.5</ele>
        <time>2019-08-17T10:28:08Z</time>
      </trkpt>
      <trkpt lat="42.95653" lon="0.84729">
        <ele>1482.5</ele>
        <time>2019-08-17T10:28:09Z</time>
      </trkpt>
      <trkpt lat="42.95653" lon="0.84729">
        <ele>1482.6</ele>
        <time>2019-08-17T10:28:10Z</time>
      </trkpt>
      <trkpt lat="42.95653" lon="0.84728">
        <ele>1482.6</ele>
        <time>2019-08-17T10:28:11Z</time>
      </trkpt>
      <trkpt lat="42.95653" lon="0.84728">
        <ele>1482.7</ele>
        <time>2019-08-17T10:28:12Z</time>
      </trkpt>
      <trkpt lat="42.95653" lon="0.84728">
        <ele>1482.7</ele>
        <time>2019-08-17T10:28:13Z</time>
      </trkpt>
      <trkpt lat="42.95653" lon="0.84727">
        <ele>1482.7</ele>
        <time>2019-08-17T10:28:14Z</time>
      </trkpt>
      <trkpt lat="42.95652" lon="0.84727">
        <ele>1482.7</ele>
        <time>2019-08-17T10:28:15Z</time>
      </trkpt>
      <trkpt lat="42.95652" lon="0.84726">
        <ele>1482.7</ele>
        <time>2019-08-17T10:28:16Z</time>
      </trkpt>
      <trkpt lat="42.95652" lon="0.84726">
        <ele>1482.7</ele>
        <time>2019-08-17T10:28:17Z</time>
      </trkpt>
      <trkpt lat="42.95652" lon="0.84725">
        <ele>1482.6</ele>
        <time>2019-08-17T10:28:18Z</time>
      </trkpt>
      <trkpt lat="42.95652" lon="0.84725">
        <ele>1482.6</ele>
        <time>2019-08-17T10:28:19Z</time>
      </trkpt>
      <trkpt lat="42.95652" lon="0.84724">
        <ele>1482.6</ele>
        <time>2019-08-17T10:28:20Z</time>
      </trkpt>
      <trkpt lat="42.95652" lon="0.84724">
        <ele>1482.6</ele>
        <time>2019-08-17T10:28:21Z</time>
      </trkpt>
      <trkpt lat="42.95651" lon="0.84723">
        <ele>1482.6</ele>
        <time>2019-08-17T10:28:22Z</time>
      </trkpt>
      <trkpt lat="42.95651" lon="0.84723">
        <ele>1482.6</ele>
        <time>2019-08-17T10:28:23Z</time>
      </trkpt>
      <trkpt lat="42.95651" lon="0.84722">
        <ele>1482.6</ele>
        <time>2019-08-17T10:28:24Z</time>
      </trkpt>
      <trkpt lat="42.95651" lon="0.84722">
        <ele>1482.6</ele>
        <time>2019-08-17T10:28:25Z</time>
      </trkpt>
      <trkpt lat="42.95651" lon="0.84721">
        <ele>1482.6</ele>
        <time>2019-08-17T10:28:26Z</time>
      </trkpt>
      <trkpt lat="42.95651" lon="0.84721">
        <ele>1482.6</ele>
        <time>2019-08-17T10:28:27Z</time>
      </trkpt>
      <trkpt lat="42.95651" lon="0.8472">
        <ele>1482.6</ele>
        <time>2019-08-17T10:28:28Z</time>
      </trkpt>
      <trkpt lat="42.9565" lon="0.8472">
        <ele>1482.6</ele>
        <time>2019-08-17T10:28:29Z</time>
      </trkpt>
      <trkpt lat="42.9565" lon="0.84719">
        <ele>1482.6</ele>
        <time>2019-08-17T10:28:30Z</time>
      </trkpt>
      <trkpt lat="42.9565" lon="0.84719">
        <ele>1482.6</ele>
        <time>2019-08-17T10:28:31Z</time>
      </trkpt>
      <trkpt lat="42.9565" lon="0.84718">
        <ele>1482.6</ele>
        <time>2019-08-17T10:28:32Z</time>
      </trkpt>
      <trkpt lat="42.9565" lon="0.84718">
        <ele>1482.6</ele>
        <time>2019-08-17T10:28:33Z</time>
      </trkpt>
      <trkpt lat="42.9565" lon="0.84718">
        <ele>1482.6</ele>
        <time>2019-08-17T10:28:34Z</time>
      </trkpt>
      <trkpt lat="42.9565" lon="0.84717">
        <ele>1482.6</ele>
        <time>2019-08-17T10:28:35Z</time>
      </trkpt>
      <trkpt lat="42.95649" lon="0.84717">
        <ele>1482.6</ele>
        <time>2019-08-17T10:28:36Z</time>
      </trkpt>
      <trkpt lat="42.95649" lon="0.84716">
        <ele>1482.6</ele>
        <time>2019-08-17T10:28:37Z</time>
      </trkpt>
      <trkpt lat="42.95649" lon="0.84716">
        <ele>1482.6</ele>
        <time>2019-08-17T10:28:38Z</time>
      </trkpt>
      <trkpt lat="42.95649" lon="0.84715">
        <ele>1482.5</ele>
        <time>2019-08-17T10:28:39Z</time>
      </trkpt>
      <trkpt lat="42.95649" lon="0.84715">
        <ele>1482.5</ele>
        <time>2019-08-17T10:28:40Z</time>
      </trkpt>
      <trkpt lat="42.95649" lon="0.84714">
        <ele>1482.5</ele>
        <time>2019-08-17T10:28:41Z</time>
      </trkpt>
      <trkpt lat="42.95649" lon="0.84714">
        <ele>1482.5</ele>
        <time>2019-08-17T10:28:42Z</time>
      </trkpt>
      <trkpt lat="42.95648" lon="0.84713">
        <ele>1482.5</ele>
        <time>2019-08-17T10:28:43Z</time>
      </trkpt>
      <trkpt lat="42.95648" lon="0.84713">
        <ele>1482.5</ele>
        <time>2019-08-17T10:28:44Z</time>
      </trkpt>
      <trkpt lat="42.95648" lon="0.84712">
        <ele>1482.5</ele>
        <time>2019-08-17T10:28:45Z</time>
      </trkpt>
      <trkpt lat="42.95648" lon="0.84712">
        <ele>1482.5</ele>
        <time>2019-08-17T10:28:46Z</time>
      </trkpt>
      <trkpt lat="42.95648" lon="0.84711">
        <ele>1482.5</ele>
        <time>2019-08-17T10:28:47Z</time>
      </trkpt>
      <trkpt lat="42.95648" lon="0.84711">
        <ele>1482.5</ele>
        <time>2019-08-17T10:28:48Z</time>
      </trkpt>
      <trkpt lat="42.95648" lon="0.8471">
        <ele>1482.5</ele>
        <time>2019-08-17T10:28:49Z</time>
      </trkpt>
      <trkpt lat="42.95648" lon="0.84709">
        <ele>1482.4</ele>
        <time>2019-08-17T10:28:50Z</time>
      </trkpt>
      <trkpt lat="42.95647" lon="0.84708">
        <ele>1482.4</ele>
        <time>2019-08-17T10:28:51Z</time>
      </trkpt>
      <trkpt lat="42.95647" lon="0.84707">
        <ele>1482.4</ele>
        <time>2019-08-17T10:28:52Z</time>
      </trkpt>
      <trkpt lat="42.95647" lon="0.84707">
        <ele>1482.4</ele>
        <time>2019-08-17T10:28:53Z</time>
      </trkpt>
      <trkpt lat="42.95647" lon="0.84706">
        <ele>1482.5</ele>
        <time>2019-08-17T10:28:54Z</time>
      </trkpt>
      <trkpt lat="42.95647" lon="0.84706">
        <ele>1482.5</ele>
        <time>2019-08-17T10:28:55Z</time>
      </trkpt>
      <trkpt lat="42.95647" lon="0.84706">
        <ele>1482.5</ele>
        <time>2019-08-17T10:28:56Z</time>
      </trkpt>
      <trkpt lat="42.95647" lon="0.84705">
        <ele>1482.5</ele>
        <time>2019-08-17T10:28:57Z</time>
      </trkpt>
      <trkpt lat="42.95647" lon="0.84705">
        <ele>1482.5</ele>
        <time>2019-08-17T10:28:58Z</time>
      </trkpt>
      <trkpt lat="42.95647" lon="0.84704">
        <ele>1482.6</ele>
        <time>2019-08-17T10:28:59Z</time>
      </trkpt>
      <trkpt lat="42.95647" lon="0.84703">
        <ele>1482.6</ele>
        <time>2019-08-17T10:29:00Z</time>
      </trkpt>
      <trkpt lat="42.95647" lon="0.84702">
        <ele>1482.6</ele>
        <time>2019-08-17T10:29:01Z</time>
      </trkpt>
      <trkpt lat="42.95646" lon="0.84701">
        <ele>1482.7</ele>
        <time>2019-08-17T10:29:02Z</time>
      </trkpt>
      <trkpt lat="42.95646" lon="0.84699">
        <ele>1482.8</ele>
        <time>2019-08-17T10:29:03Z</time>
      </trkpt>
      <trkpt lat="42.95646" lon="0.84698">
        <ele>1482.8</ele>
        <time>2019-08-17T10:29:04Z</time>
      </trkpt>
      <trkpt lat="42.95646" lon="0.84697">
        <ele>1482.9</ele>
        <time>2019-08-17T10:29:05Z</time>
      </trkpt>
      <trkpt lat="42.95646" lon="0.84696">
        <ele>1482.9</ele>
        <time>2019-08-17T10:29:06Z</time>
      </trkpt>
      <trkpt lat="42.95646" lon="0.84694">
        <ele>1482.8</ele>
        <time>2019-08-17T10:29:07Z</time>
      </trkpt>
      <trkpt lat="42.95646" lon="0.84692">
        <ele>1482.8</ele>
        <time>2019-08-17T10:29:08Z</time>
      </trkpt>
      <trkpt lat="42.95646" lon="0.84691">
        <ele>1482.8</ele>
        <time>2019-08-17T10:29:09Z</time>
      </trkpt>
      <trkpt lat="42.95646" lon="0.8469">
        <ele>1482.7</ele>
        <time>2019-08-17T10:29:10Z</time>
      </trkpt>
      <trkpt lat="42.95646" lon="0.84689">
        <ele>1482.7</ele>
        <time>2019-08-17T10:29:11Z</time>
      </trkpt>
      <trkpt lat="42.95646" lon="0.84688">
        <ele>1482.7</ele>
        <time>2019-08-17T10:29:12Z</time>
      </trkpt>
      <trkpt lat="42.95646" lon="0.84686">
        <ele>1482.6</ele>
        <time>2019-08-17T10:29:13Z</time>
      </trkpt>
      <trkpt lat="42.95645" lon="0.84685">
        <ele>1482.6</ele>
        <time>2019-08-17T10:29:14Z</time>
      </trkpt>
      <trkpt lat="42.95645" lon="0.84683">
        <ele>1482.5</ele>
        <time>2019-08-17T10:29:15Z</time>
      </trkpt>
      <trkpt lat="42.95645" lon="0.84682">
        <ele>1482.5</ele>
        <time>2019-08-17T10:29:16Z</time>
      </trkpt>
      <trkpt lat="42.95644" lon="0.84681">
        <ele>1482.5</ele>
        <time>2019-08-17T10:29:17Z</time>
      </trkpt>
      <trkpt lat="42.95644" lon="0.84679">
        <ele>1482.5</ele>
        <time>2019-08-17T10:29:18Z</time>
      </trkpt>
      <trkpt lat="42.95644" lon="0.84678">
        <ele>1482.4</ele>
        <time>2019-08-17T10:29:19Z</time>
      </trkpt>
      <trkpt lat="42.95643" lon="0.84677">
        <ele>1482.4</ele>
        <time>2019-08-17T10:29:20Z</time>
      </trkpt>
      <trkpt lat="42.95643" lon="0.84676">
        <ele>1482.4</ele>
        <time>2019-08-17T10:29:21Z</time>
      </trkpt>
      <trkpt lat="42.95643" lon="0.84674">
        <ele>1482.4</ele>
        <time>2019-08-17T10:29:22Z</time>
      </trkpt>
      <trkpt lat="42.95642" lon="0.84673">
        <ele>1482.4</ele>
        <time>2019-08-17T10:29:23Z</time>
      </trkpt>
      <trkpt lat="42.95642" lon="0.84672">
        <ele>1482.4</ele>
        <time>2019-08-17T10:29:24Z</time>
      </trkpt>
      <trkpt lat="42.95642" lon="0.84672">
        <ele>1482.4</ele>
        <time>2019-08-17T10:29:25Z</time>
      </trkpt>
      <trkpt lat="42.95642" lon="0.84671">
        <ele>1482.5</ele>
        <time>2019-08-17T10:29:26Z</time>
      </trkpt>
      <trkpt lat="42.95642" lon="0.84669">
        <ele>1482.5</ele>
        <time>2019-08-17T10:29:27Z</time>
      </trkpt>
      <trkpt lat="42.95641" lon="0.84668">
        <ele>1482.5</ele>
        <time>2019-08-17T10:29:28Z</time>
      </trkpt>
      <trkpt lat="42.95641" lon="0.84666">
        <ele>1482.5</ele>
        <time>2019-08-17T10:29:29Z</time>
      </trkpt>
      <trkpt lat="42.9564" lon="0.84664">
        <ele>1482.4</ele>
        <time>2019-08-17T10:29:30Z</time>
      </trkpt>
      <trkpt lat="42.9564" lon="0.84663">
        <ele>1482.4</ele>
        <time>2019-08-17T10:29:31Z</time>
      </trkpt>
      <trkpt lat="42.9564" lon="0.84662">
        <ele>1482.3</ele>
        <time>2019-08-17T10:29:32Z</time>
      </trkpt>
      <trkpt lat="42.9564" lon="0.8466">
        <ele>1482.2</ele>
        <time>2019-08-17T10:29:33Z</time>
      </trkpt>
      <trkpt lat="42.9564" lon="0.84659">
        <ele>1482.2</ele>
        <time>2019-08-17T10:29:34Z</time>
      </trkpt>
      <trkpt lat="42.9564" lon="0.84658">
        <ele>1482.1</ele>
        <time>2019-08-17T10:29:35Z</time>
      </trkpt>
      <trkpt lat="42.9564" lon="0.84657">
        <ele>1482.1</ele>
        <time>2019-08-17T10:29:36Z</time>
      </trkpt>
      <trkpt lat="42.9564" lon="0.84655">
        <ele>1481.9</ele>
        <time>2019-08-17T10:29:37Z</time>
      </trkpt>
      <trkpt lat="42.9564" lon="0.84654">
        <ele>1481.9</ele>
        <time>2019-08-17T10:29:38Z</time>
      </trkpt>
      <trkpt lat="42.9564" lon="0.84653">
        <ele>1481.8</ele>
        <time>2019-08-17T10:29:39Z</time>
      </trkpt>
      <trkpt lat="42.9564" lon="0.84652">
        <ele>1481.7</ele>
        <time>2019-08-17T10:29:40Z</time>
      </trkpt>
      <trkpt lat="42.9564" lon="0.84651">
        <ele>1481.7</ele>
        <time>2019-08-17T10:29:41Z</time>
      </trkpt>
      <trkpt lat="42.9564" lon="0.84649">
        <ele>1481.6</ele>
        <time>2019-08-17T10:29:42Z</time>
      </trkpt>
      <trkpt lat="42.9564" lon="0.84648">
        <ele>1481.5</ele>
        <time>2019-08-17T10:29:43Z</time>
      </trkpt>
      <trkpt lat="42.9564" lon="0.84647">
        <ele>1481.5</ele>
        <time>2019-08-17T10:29:44Z</time>
      </trkpt>
      <trkpt lat="42.9564" lon="0.84646">
        <ele>1481.4</ele>
        <time>2019-08-17T10:29:45Z</time>
      </trkpt>
      <trkpt lat="42.95639" lon="0.84645">
        <ele>1481.4</ele>
        <time>2019-08-17T10:29:46Z</time>
      </trkpt>
      <trkpt lat="42.95639" lon="0.84644">
        <ele>1481.3</ele>
        <time>2019-08-17T10:29:47Z</time>
      </trkpt>
      <trkpt lat="42.95639" lon="0.84642">
        <ele>1481.3</ele>
        <time>2019-08-17T10:29:48Z</time>
      </trkpt>
      <trkpt lat="42.95639" lon="0.84641">
        <ele>1481.3</ele>
        <time>2019-08-17T10:29:49Z</time>
      </trkpt>
      <trkpt lat="42.95639" lon="0.8464">
        <ele>1481.2</ele>
        <time>2019-08-17T10:29:50Z</time>
      </trkpt>
      <trkpt lat="42.95639" lon="0.84639">
        <ele>1481.2</ele>
        <time>2019-08-17T10:29:51Z</time>
      </trkpt>
      <trkpt lat="42.95639" lon="0.84638">
        <ele>1481.1</ele>
        <time>2019-08-17T10:29:52Z</time>
      </trkpt>
      <trkpt lat="42.95639" lon="0.84637">
        <ele>1481.1</ele>
        <time>2019-08-17T10:29:53Z</time>
      </trkpt>
      <trkpt lat="42.95639" lon="0.84635">
        <ele>1481</ele>
        <time>2019-08-17T10:29:54Z</time>
      </trkpt>
      <trkpt lat="42.95639" lon="0.84634">
        <ele>1481</ele>
        <time>2019-08-17T10:29:55Z</time>
      </trkpt>
      <trkpt lat="42.95638" lon="0.84633">
        <ele>1480.9</ele>
        <time>2019-08-17T10:29:56Z</time>
      </trkpt>
      <trkpt lat="42.95638" lon="0.84632">
        <ele>1480.8</ele>
        <time>2019-08-17T10:29:57Z</time>
      </trkpt>
      <trkpt lat="42.95638" lon="0.84631">
        <ele>1480.7</ele>
        <time>2019-08-17T10:29:58Z</time>
      </trkpt>
      <trkpt lat="42.95638" lon="0.8463">
        <ele>1480.5</ele>
        <time>2019-08-17T10:29:59Z</time>
      </trkpt>
      <trkpt lat="42.95638" lon="0.84628">
        <ele>1480.4</ele>
        <time>2019-08-17T10:30:00Z</time>
      </trkpt>
      <trkpt lat="42.95638" lon="0.84627">
        <ele>1480.4</ele>
        <time>2019-08-17T10:30:01Z</time>
      </trkpt>
      <trkpt lat="42.95638" lon="0.84626">
        <ele>1480.2</ele>
        <time>2019-08-17T10:30:02Z</time>
      </trkpt>
      <trkpt lat="42.95638" lon="0.84625">
        <ele>1480.1</ele>
        <time>2019-08-17T10:30:03Z</time>
      </trkpt>
      <trkpt lat="42.95638" lon="0.84624">
        <ele>1480.1</ele>
        <time>2019-08-17T10:30:04Z</time>
      </trkpt>
      <trkpt lat="42.95637" lon="0.84623">
        <ele>1480</ele>
        <time>2019-08-17T10:30:05Z</time>
      </trkpt>
      <trkpt lat="42.95638" lon="0.8462">
        <ele>1479.7</ele>
        <time>2019-08-17T10:30:06Z</time>
      </trkpt>
      <trkpt lat="42.95638" lon="0.84619">
        <ele>1479.7</ele>
        <time>2019-08-17T10:30:07Z</time>
      </trkpt>
      <trkpt lat="42.95639" lon="0.84618">
        <ele>1479.6</ele>
        <time>2019-08-17T10:30:08Z</time>
      </trkpt>
      <trkpt lat="42.95639" lon="0.84616">
        <ele>1479.5</ele>
        <time>2019-08-17T10:30:09Z</time>
      </trkpt>
      <trkpt lat="42.9564" lon="0.84615">
        <ele>1479.4</ele>
        <time>2019-08-17T10:30:10Z</time>
      </trkpt>
      <trkpt lat="42.9564" lon="0.84614">
        <ele>1479.3</ele>
        <time>2019-08-17T10:30:11Z</time>
      </trkpt>
      <trkpt lat="42.9564" lon="0.84613">
        <ele>1479.2</ele>
        <time>2019-08-17T10:30:12Z</time>
      </trkpt>
      <trkpt lat="42.95641" lon="0.84612">
        <ele>1479.1</ele>
        <time>2019-08-17T10:30:13Z</time>
      </trkpt>
      <trkpt lat="42.95641" lon="0.8461">
        <ele>1478.9</ele>
        <time>2019-08-17T10:30:14Z</time>
      </trkpt>
      <trkpt lat="42.95641" lon="0.84609">
        <ele>1478.9</ele>
        <time>2019-08-17T10:30:15Z</time>
      </trkpt>
      <trkpt lat="42.95642" lon="0.84608">
        <ele>1478.8</ele>
        <time>2019-08-17T10:30:16Z</time>
      </trkpt>
      <trkpt lat="42.95642" lon="0.84607">
        <ele>1478.7</ele>
        <time>2019-08-17T10:30:17Z</time>
      </trkpt>
      <trkpt lat="42.95642" lon="0.84606">
        <ele>1478.7</ele>
        <time>2019-08-17T10:30:18Z</time>
      </trkpt>
      <trkpt lat="42.95642" lon="0.84605">
        <ele>1478.6</ele>
        <time>2019-08-17T10:30:19Z</time>
      </trkpt>
      <trkpt lat="42.95642" lon="0.84604">
        <ele>1478.5</ele>
        <time>2019-08-17T10:30:20Z</time>
      </trkpt>
      <trkpt lat="42.95642" lon="0.84603">
        <ele>1478.5</ele>
        <time>2019-08-17T10:30:21Z</time>
      </trkpt>
      <trkpt lat="42.95643" lon="0.84602">
        <ele>1478.4</ele>
        <time>2019-08-17T10:30:22Z</time>
      </trkpt>
      <trkpt lat="42.95643" lon="0.84601">
        <ele>1478.3</ele>
        <time>2019-08-17T10:30:23Z</time>
      </trkpt>
      <trkpt lat="42.95643" lon="0.846">
        <ele>1478.3</ele>
        <time>2019-08-17T10:30:24Z</time>
      </trkpt>
      <trkpt lat="42.95643" lon="0.84599">
        <ele>1478.2</ele>
        <time>2019-08-17T10:30:25Z</time>
      </trkpt>
      <trkpt lat="42.95643" lon="0.84598">
        <ele>1478.2</ele>
        <time>2019-08-17T10:30:26Z</time>
      </trkpt>
      <trkpt lat="42.95643" lon="0.84597">
        <ele>1478.1</ele>
        <time>2019-08-17T10:30:27Z</time>
      </trkpt>
      <trkpt lat="42.95644" lon="0.84596">
        <ele>1478</ele>
        <time>2019-08-17T10:30:28Z</time>
      </trkpt>
      <trkpt lat="42.95644" lon="0.84595">
        <ele>1478</ele>
        <time>2019-08-17T10:30:29Z</time>
      </trkpt>
      <trkpt lat="42.95644" lon="0.84594">
        <ele>1478</ele>
        <time>2019-08-17T10:30:30Z</time>
      </trkpt>
      <trkpt lat="42.95644" lon="0.84593">
        <ele>1478</ele>
        <time>2019-08-17T10:30:31Z</time>
      </trkpt>
      <trkpt lat="42.95644" lon="0.84593">
        <ele>1478</ele>
        <time>2019-08-17T10:30:32Z</time>
      </trkpt>
      <trkpt lat="42.95644" lon="0.84592">
        <ele>1478.1</ele>
        <time>2019-08-17T10:30:33Z</time>
      </trkpt>
      <trkpt lat="42.95644" lon="0.84591">
        <ele>1478.1</ele>
        <time>2019-08-17T10:30:34Z</time>
      </trkpt>
      <trkpt lat="42.95645" lon="0.8459">
        <ele>1478.1</ele>
        <time>2019-08-17T10:30:35Z</time>
      </trkpt>
      <trkpt lat="42.95645" lon="0.84589">
        <ele>1478.1</ele>
        <time>2019-08-17T10:30:36Z</time>
      </trkpt>
      <trkpt lat="42.95645" lon="0.84588">
        <ele>1478.1</ele>
        <time>2019-08-17T10:30:37Z</time>
      </trkpt>
      <trkpt lat="42.95645" lon="0.84587">
        <ele>1478.1</ele>
        <time>2019-08-17T10:30:38Z</time>
      </trkpt>
      <trkpt lat="42.95645" lon="0.84586">
        <ele>1478.1</ele>
        <time>2019-08-17T10:30:39Z</time>
      </trkpt>
      <trkpt lat="42.95645" lon="0.84585">
        <ele>1478.2</ele>
        <time>2019-08-17T10:30:40Z</time>
      </trkpt>
      <trkpt lat="42.95646" lon="0.84584">
        <ele>1478.2</ele>
        <time>2019-08-17T10:30:41Z</time>
      </trkpt>
      <trkpt lat="42.95646" lon="0.84583">
        <ele>1478.3</ele>
        <time>2019-08-17T10:30:42Z</time>
      </trkpt>
      <trkpt lat="42.95646" lon="0.84582">
        <ele>1478.4</ele>
        <time>2019-08-17T10:30:43Z</time>
      </trkpt>
      <trkpt lat="42.95646" lon="0.84581">
        <ele>1478.5</ele>
        <time>2019-08-17T10:30:44Z</time>
      </trkpt>
      <trkpt lat="42.95646" lon="0.8458">
        <ele>1478.6</ele>
        <time>2019-08-17T10:30:45Z</time>
      </trkpt>
      <trkpt lat="42.95646" lon="0.84579">
        <ele>1478.7</ele>
        <time>2019-08-17T10:30:46Z</time>
      </trkpt>
      <trkpt lat="42.95647" lon="0.84578">
        <ele>1478.8</ele>
        <time>2019-08-17T10:30:47Z</time>
      </trkpt>
      <trkpt lat="42.95647" lon="0.84577">
        <ele>1478.9</ele>
        <time>2019-08-17T10:30:48Z</time>
      </trkpt>
      <trkpt lat="42.95647" lon="0.84576">
        <ele>1479</ele>
        <time>2019-08-17T10:30:49Z</time>
      </trkpt>
      <trkpt lat="42.95647" lon="0.84575">
        <ele>1479</ele>
        <time>2019-08-17T10:30:50Z</time>
      </trkpt>
      <trkpt lat="42.95647" lon="0.84574">
        <ele>1479.1</ele>
        <time>2019-08-17T10:30:51Z</time>
      </trkpt>
      <trkpt lat="42.95647" lon="0.84574">
        <ele>1479.2</ele>
        <time>2019-08-17T10:30:52Z</time>
      </trkpt>
      <trkpt lat="42.95647" lon="0.84573">
        <ele>1479.3</ele>
        <time>2019-08-17T10:30:53Z</time>
      </trkpt>
      <trkpt lat="42.95648" lon="0.84571">
        <ele>1479.5</ele>
        <time>2019-08-17T10:30:54Z</time>
      </trkpt>
      <trkpt lat="42.95648" lon="0.8457">
        <ele>1479.6</ele>
        <time>2019-08-17T10:30:55Z</time>
      </trkpt>
      <trkpt lat="42.95648" lon="0.84569">
        <ele>1479.7</ele>
        <time>2019-08-17T10:30:56Z</time>
      </trkpt>
      <trkpt lat="42.95648" lon="0.84568">
        <ele>1479.8</ele>
        <time>2019-08-17T10:30:57Z</time>
      </trkpt>
      <trkpt lat="42.95648" lon="0.84567">
        <ele>1480</ele>
        <time>2019-08-17T10:30:58Z</time>
      </trkpt>
      <trkpt lat="42.95647" lon="0.84566">
        <ele>1480.1</ele>
        <time>2019-08-17T10:30:59Z</time>
      </trkpt>
      <trkpt lat="42.95647" lon="0.84565">
        <ele>1480.2</ele>
        <time>2019-08-17T10:31:00Z</time>
      </trkpt>
      <trkpt lat="42.95647" lon="0.84564">
        <ele>1480.3</ele>
        <time>2019-08-17T10:31:01Z</time>
      </trkpt>
      <trkpt lat="42.95647" lon="0.84563">
        <ele>1480.3</ele>
        <time>2019-08-17T10:31:02Z</time>
      </trkpt>
      <trkpt lat="42.95647" lon="0.84562">
        <ele>1480.3</ele>
        <time>2019-08-17T10:31:03Z</time>
      </trkpt>
      <trkpt lat="42.95648" lon="0.84561">
        <ele>1480.3</ele>
        <time>2019-08-17T10:31:04Z</time>
      </trkpt>
      <trkpt lat="42.95648" lon="0.8456">
        <ele>1480.2</ele>
        <time>2019-08-17T10:31:05Z</time>
      </trkpt>
      <trkpt lat="42.95648" lon="0.84559">
        <ele>1480.2</ele>
        <time>2019-08-17T10:31:06Z</time>
      </trkpt>
      <trkpt lat="42.95648" lon="0.84558">
        <ele>1480.2</ele>
        <time>2019-08-17T10:31:07Z</time>
      </trkpt>
      <trkpt lat="42.95648" lon="0.84558">
        <ele>1480.2</ele>
        <time>2019-08-17T10:31:08Z</time>
      </trkpt>
      <trkpt lat="42.95647" lon="0.84557">
        <ele>1480.2</ele>
        <time>2019-08-17T10:31:09Z</time>
      </trkpt>
      <trkpt lat="42.95647" lon="0.84555">
        <ele>1480.1</ele>
        <time>2019-08-17T10:31:10Z</time>
      </trkpt>
      <trkpt lat="42.95648" lon="0.84554">
        <ele>1480.1</ele>
        <time>2019-08-17T10:31:11Z</time>
      </trkpt>
      <trkpt lat="42.95648" lon="0.84552">
        <ele>1480.2</ele>
        <time>2019-08-17T10:31:12Z</time>
      </trkpt>
      <trkpt lat="42.95648" lon="0.84551">
        <ele>1480.2</ele>
        <time>2019-08-17T10:31:13Z</time>
      </trkpt>
      <trkpt lat="42.95647" lon="0.8455">
        <ele>1480.3</ele>
        <time>2019-08-17T10:31:14Z</time>
      </trkpt>
      <trkpt lat="42.95647" lon="0.84548">
        <ele>1480.3</ele>
        <time>2019-08-17T10:31:15Z</time>
      </trkpt>
      <trkpt lat="42.95647" lon="0.84547">
        <ele>1480.4</ele>
        <time>2019-08-17T10:31:16Z</time>
      </trkpt>
      <trkpt lat="42.95647" lon="0.84546">
        <ele>1480.5</ele>
        <time>2019-08-17T10:31:17Z</time>
      </trkpt>
      <trkpt lat="42.95647" lon="0.84545">
        <ele>1480.5</ele>
        <time>2019-08-17T10:31:18Z</time>
      </trkpt>
      <trkpt lat="42.95647" lon="0.84543">
        <ele>1480.6</ele>
        <time>2019-08-17T10:31:19Z</time>
      </trkpt>
      <trkpt lat="42.95647" lon="0.84542">
        <ele>1480.7</ele>
        <time>2019-08-17T10:31:20Z</time>
      </trkpt>
      <trkpt lat="42.95647" lon="0.84541">
        <ele>1480.8</ele>
        <time>2019-08-17T10:31:21Z</time>
      </trkpt>
      <trkpt lat="42.95648" lon="0.8454">
        <ele>1480.8</ele>
        <time>2019-08-17T10:31:22Z</time>
      </trkpt>
      <trkpt lat="42.95648" lon="0.84539">
        <ele>1480.9</ele>
        <time>2019-08-17T10:31:23Z</time>
      </trkpt>
      <trkpt lat="42.95648" lon="0.84538">
        <ele>1481</ele>
        <time>2019-08-17T10:31:24Z</time>
      </trkpt>
      <trkpt lat="42.95649" lon="0.84537">
        <ele>1481.1</ele>
        <time>2019-08-17T10:31:25Z</time>
      </trkpt>
      <trkpt lat="42.95649" lon="0.84536">
        <ele>1481.1</ele>
        <time>2019-08-17T10:31:26Z</time>
      </trkpt>
      <trkpt lat="42.95649" lon="0.84535">
        <ele>1481.2</ele>
        <time>2019-08-17T10:31:27Z</time>
      </trkpt>
      <trkpt lat="42.95649" lon="0.84534">
        <ele>1481.3</ele>
        <time>2019-08-17T10:31:28Z</time>
      </trkpt>
      <trkpt lat="42.95649" lon="0.84534">
        <ele>1481.3</ele>
        <time>2019-08-17T10:31:29Z</time>
      </trkpt>
      <trkpt lat="42.95648" lon="0.84533">
        <ele>1481.4</ele>
        <time>2019-08-17T10:31:30Z</time>
      </trkpt>
      <trkpt lat="42.95648" lon="0.84532">
        <ele>1481.5</ele>
        <time>2019-08-17T10:31:31Z</time>
      </trkpt>
      <trkpt lat="42.95649" lon="0.84531">
        <ele>1481.7</ele>
        <time>2019-08-17T10:31:32Z</time>
      </trkpt>
      <trkpt lat="42.95649" lon="0.84529">
        <ele>1481.8</ele>
        <time>2019-08-17T10:31:33Z</time>
      </trkpt>
      <trkpt lat="42.95649" lon="0.84528">
        <ele>1482</ele>
        <time>2019-08-17T10:31:34Z</time>
      </trkpt>
      <trkpt lat="42.95649" lon="0.84527">
        <ele>1482.1</ele>
        <time>2019-08-17T10:31:35Z</time>
      </trkpt>
      <trkpt lat="42.95649" lon="0.84526">
        <ele>1482.3</ele>
        <time>2019-08-17T10:31:36Z</time>
      </trkpt>
      <trkpt lat="42.95648" lon="0.84525">
        <ele>1482.4</ele>
        <time>2019-08-17T10:31:37Z</time>
      </trkpt>
      <trkpt lat="42.95648" lon="0.84524">
        <ele>1482.6</ele>
        <time>2019-08-17T10:31:38Z</time>
      </trkpt>
      <trkpt lat="42.95647" lon="0.84522">
        <ele>1482.8</ele>
        <time>2019-08-17T10:31:39Z</time>
      </trkpt>
      <trkpt lat="42.95647" lon="0.84521">
        <ele>1482.9</ele>
        <time>2019-08-17T10:31:40Z</time>
      </trkpt>
      <trkpt lat="42.95646" lon="0.8452">
        <ele>1483</ele>
        <time>2019-08-17T10:31:41Z</time>
      </trkpt>
      <trkpt lat="42.95646" lon="0.84518">
        <ele>1483.1</ele>
        <time>2019-08-17T10:31:42Z</time>
      </trkpt>
      <trkpt lat="42.95645" lon="0.84517">
        <ele>1483.2</ele>
        <time>2019-08-17T10:31:43Z</time>
      </trkpt>
      <trkpt lat="42.95645" lon="0.84515">
        <ele>1483.3</ele>
        <time>2019-08-17T10:31:44Z</time>
      </trkpt>
      <trkpt lat="42.95644" lon="0.84514">
        <ele>1483.3</ele>
        <time>2019-08-17T10:31:45Z</time>
      </trkpt>
      <trkpt lat="42.95644" lon="0.84513">
        <ele>1483.4</ele>
        <time>2019-08-17T10:31:46Z</time>
      </trkpt>
      <trkpt lat="42.95644" lon="0.84511">
        <ele>1483.5</ele>
        <time>2019-08-17T10:31:47Z</time>
      </trkpt>
      <trkpt lat="42.95645" lon="0.8451">
        <ele>1483.6</ele>
        <time>2019-08-17T10:31:48Z</time>
      </trkpt>
      <trkpt lat="42.95645" lon="0.84509">
        <ele>1483.8</ele>
        <time>2019-08-17T10:31:49Z</time>
      </trkpt>
      <trkpt lat="42.95646" lon="0.84507">
        <ele>1483.9</ele>
        <time>2019-08-17T10:31:50Z</time>
      </trkpt>
      <trkpt lat="42.95646" lon="0.84506">
        <ele>1484.1</ele>
        <time>2019-08-17T10:31:51Z</time>
      </trkpt>
      <trkpt lat="42.95647" lon="0.84504">
        <ele>1484.3</ele>
        <time>2019-08-17T10:31:52Z</time>
      </trkpt>
      <trkpt lat="42.95647" lon="0.84503">
        <ele>1484.4</ele>
        <time>2019-08-17T10:31:53Z</time>
      </trkpt>
      <trkpt lat="42.95647" lon="0.84501">
        <ele>1484.6</ele>
        <time>2019-08-17T10:31:54Z</time>
      </trkpt>
      <trkpt lat="42.95647" lon="0.845">
        <ele>1484.8</ele>
        <time>2019-08-17T10:31:55Z</time>
      </trkpt>
      <trkpt lat="42.95647" lon="0.84498">
        <ele>1484.9</ele>
        <time>2019-08-17T10:31:56Z</time>
      </trkpt>
      <trkpt lat="42.95647" lon="0.84496">
        <ele>1485</ele>
        <time>2019-08-17T10:31:57Z</time>
      </trkpt>
      <trkpt lat="42.95647" lon="0.84495">
        <ele>1485.1</ele>
        <time>2019-08-17T10:31:58Z</time>
      </trkpt>
      <trkpt lat="42.95647" lon="0.84493">
        <ele>1485.3</ele>
        <time>2019-08-17T10:31:59Z</time>
      </trkpt>
      <trkpt lat="42.95646" lon="0.84491">
        <ele>1485.4</ele>
        <time>2019-08-17T10:32:00Z</time>
      </trkpt>
      <trkpt lat="42.95646" lon="0.84489">
        <ele>1485.5</ele>
        <time>2019-08-17T10:32:01Z</time>
      </trkpt>
      <trkpt lat="42.95646" lon="0.84488">
        <ele>1485.6</ele>
        <time>2019-08-17T10:32:02Z</time>
      </trkpt>
      <trkpt lat="42.95646" lon="0.84486">
        <ele>1485.7</ele>
        <time>2019-08-17T10:32:03Z</time>
      </trkpt>
      <trkpt lat="42.95646" lon="0.84484">
        <ele>1485.8</ele>
        <time>2019-08-17T10:32:04Z</time>
      </trkpt>
      <trkpt lat="42.95646" lon="0.84483">
        <ele>1485.9</ele>
        <time>2019-08-17T10:32:05Z</time>
      </trkpt>
      <trkpt lat="42.95647" lon="0.84482">
        <ele>1486</ele>
        <time>2019-08-17T10:32:06Z</time>
      </trkpt>
      <trkpt lat="42.95647" lon="0.84481">
        <ele>1486</ele>
        <time>2019-08-17T10:32:07Z</time>
      </trkpt>
      <trkpt lat="42.95648" lon="0.8448">
        <ele>1486.1</ele>
        <time>2019-08-17T10:32:08Z</time>
      </trkpt>
      <trkpt lat="42.95649" lon="0.84479">
        <ele>1486.2</ele>
        <time>2019-08-17T10:32:09Z</time>
      </trkpt>
      <trkpt lat="42.95649" lon="0.84478">
        <ele>1486.3</ele>
        <time>2019-08-17T10:32:10Z</time>
      </trkpt>
      <trkpt lat="42.9565" lon="0.84477">
        <ele>1486.4</ele>
        <time>2019-08-17T10:32:11Z</time>
      </trkpt>
      <trkpt lat="42.9565" lon="0.84476">
        <ele>1486.6</ele>
        <time>2019-08-17T10:32:12Z</time>
      </trkpt>
      <trkpt lat="42.95651" lon="0.84475">
        <ele>1486.7</ele>
        <time>2019-08-17T10:32:13Z</time>
      </trkpt>
      <trkpt lat="42.95651" lon="0.84474">
        <ele>1486.9</ele>
        <time>2019-08-17T10:32:14Z</time>
      </trkpt>
      <trkpt lat="42.9565" lon="0.84473">
        <ele>1487.1</ele>
        <time>2019-08-17T10:32:15Z</time>
      </trkpt>
      <trkpt lat="42.9565" lon="0.84471">
        <ele>1487.3</ele>
        <time>2019-08-17T10:32:16Z</time>
      </trkpt>
      <trkpt lat="42.95649" lon="0.8447">
        <ele>1487.5</ele>
        <time>2019-08-17T10:32:17Z</time>
      </trkpt>
      <trkpt lat="42.95649" lon="0.84468">
        <ele>1487.8</ele>
        <time>2019-08-17T10:32:18Z</time>
      </trkpt>
      <trkpt lat="42.95648" lon="0.84467">
        <ele>1488</ele>
        <time>2019-08-17T10:32:19Z</time>
      </trkpt>
      <trkpt lat="42.95647" lon="0.84465">
        <ele>1488.2</ele>
        <time>2019-08-17T10:32:20Z</time>
      </trkpt>
      <trkpt lat="42.95647" lon="0.84464">
        <ele>1488.4</ele>
        <time>2019-08-17T10:32:21Z</time>
      </trkpt>
      <trkpt lat="42.95646" lon="0.84462">
        <ele>1488.6</ele>
        <time>2019-08-17T10:32:22Z</time>
      </trkpt>
      <trkpt lat="42.95646" lon="0.84461">
        <ele>1488.7</ele>
        <time>2019-08-17T10:32:23Z</time>
      </trkpt>
      <trkpt lat="42.95646" lon="0.84459">
        <ele>1488.9</ele>
        <time>2019-08-17T10:32:24Z</time>
      </trkpt>
      <trkpt lat="42.95646" lon="0.84458">
        <ele>1489.1</ele>
        <time>2019-08-17T10:32:25Z</time>
      </trkpt>
      <trkpt lat="42.95646" lon="0.84456">
        <ele>1489.3</ele>
        <time>2019-08-17T10:32:26Z</time>
      </trkpt>
      <trkpt lat="42.95646" lon="0.84454">
        <ele>1489.5</ele>
        <time>2019-08-17T10:32:27Z</time>
      </trkpt>
      <trkpt lat="42.95646" lon="0.84453">
        <ele>1489.7</ele>
        <time>2019-08-17T10:32:28Z</time>
      </trkpt>
      <trkpt lat="42.95646" lon="0.84451">
        <ele>1489.9</ele>
        <time>2019-08-17T10:32:29Z</time>
      </trkpt>
      <trkpt lat="42.95646" lon="0.84449">
        <ele>1490</ele>
        <time>2019-08-17T10:32:30Z</time>
      </trkpt>
      <trkpt lat="42.95646" lon="0.84448">
        <ele>1490.2</ele>
        <time>2019-08-17T10:32:31Z</time>
      </trkpt>
      <trkpt lat="42.95646" lon="0.84446">
        <ele>1490.3</ele>
        <time>2019-08-17T10:32:32Z</time>
      </trkpt>
      <trkpt lat="42.95646" lon="0.84445">
        <ele>1490.5</ele>
        <time>2019-08-17T10:32:33Z</time>
      </trkpt>
      <trkpt lat="42.95646" lon="0.84443">
        <ele>1490.8</ele>
        <time>2019-08-17T10:32:34Z</time>
      </trkpt>
      <trkpt lat="42.95646" lon="0.84443">
        <ele>1490.9</ele>
        <time>2019-08-17T10:32:35Z</time>
      </trkpt>
      <trkpt lat="42.95646" lon="0.84443">
        <ele>1491</ele>
        <time>2019-08-17T10:32:36Z</time>
      </trkpt>
      <trkpt lat="42.95646" lon="0.84442">
        <ele>1491.1</ele>
        <time>2019-08-17T10:32:37Z</time>
      </trkpt>
      <trkpt lat="42.95646" lon="0.84442">
        <ele>1491.1</ele>
        <time>2019-08-17T10:32:38Z</time>
      </trkpt>
      <trkpt lat="42.95646" lon="0.84441">
        <ele>1491.2</ele>
        <time>2019-08-17T10:32:39Z</time>
      </trkpt>
      <trkpt lat="42.95646" lon="0.84441">
        <ele>1491.3</ele>
        <time>2019-08-17T10:32:40Z</time>
      </trkpt>
      <trkpt lat="42.95646" lon="0.8444">
        <ele>1491.4</ele>
        <time>2019-08-17T10:32:41Z</time>
      </trkpt>
      <trkpt lat="42.95646" lon="0.8444">
        <ele>1491.5</ele>
        <time>2019-08-17T10:32:42Z</time>
      </trkpt>
      <trkpt lat="42.95646" lon="0.8444">
        <ele>1491.6</ele>
        <time>2019-08-17T10:32:43Z</time>
      </trkpt>
      <trkpt lat="42.95646" lon="0.84439">
        <ele>1491.7</ele>
        <time>2019-08-17T10:32:44Z</time>
      </trkpt>
      <trkpt lat="42.95646" lon="0.84439">
        <ele>1491.7</ele>
        <time>2019-08-17T10:32:45Z</time>
      </trkpt>
      <trkpt lat="42.95647" lon="0.84438">
        <ele>1491.8</ele>
        <time>2019-08-17T10:32:46Z</time>
      </trkpt>
      <trkpt lat="42.95647" lon="0.84438">
        <ele>1491.9</ele>
        <time>2019-08-17T10:32:47Z</time>
      </trkpt>
      <trkpt lat="42.95647" lon="0.84438">
        <ele>1492</ele>
        <time>2019-08-17T10:32:48Z</time>
      </trkpt>
      <trkpt lat="42.95647" lon="0.84437">
        <ele>1492.1</ele>
        <time>2019-08-17T10:32:49Z</time>
      </trkpt>
      <trkpt lat="42.95647" lon="0.84437">
        <ele>1492.2</ele>
        <time>2019-08-17T10:32:50Z</time>
      </trkpt>
      <trkpt lat="42.95647" lon="0.84436">
        <ele>1492.3</ele>
        <time>2019-08-17T10:32:51Z</time>
      </trkpt>
      <trkpt lat="42.95647" lon="0.84436">
        <ele>1492.3</ele>
        <time>2019-08-17T10:32:52Z</time>
      </trkpt>
      <trkpt lat="42.95647" lon="0.84435">
        <ele>1492.4</ele>
        <time>2019-08-17T10:32:53Z</time>
      </trkpt>
      <trkpt lat="42.95647" lon="0.84435">
        <ele>1492.5</ele>
        <time>2019-08-17T10:32:54Z</time>
      </trkpt>
      <trkpt lat="42.95647" lon="0.84435">
        <ele>1492.6</ele>
        <time>2019-08-17T10:32:55Z</time>
      </trkpt>
      <trkpt lat="42.95647" lon="0.84434">
        <ele>1492.7</ele>
        <time>2019-08-17T10:32:56Z</time>
      </trkpt>
      <trkpt lat="42.95647" lon="0.84434">
        <ele>1492.8</ele>
        <time>2019-08-17T10:32:57Z</time>
      </trkpt>
      <trkpt lat="42.95647" lon="0.84433">
        <ele>1492.8</ele>
        <time>2019-08-17T10:32:58Z</time>
      </trkpt>
      <trkpt lat="42.95647" lon="0.84433">
        <ele>1492.9</ele>
        <time>2019-08-17T10:32:59Z</time>
      </trkpt>
      <trkpt lat="42.95647" lon="0.84433">
        <ele>1492.9</ele>
        <time>2019-08-17T10:33:00Z</time>
      </trkpt>
      <trkpt lat="42.95647" lon="0.84432">
        <ele>1493</ele>
        <time>2019-08-17T10:33:01Z</time>
      </trkpt>
      <trkpt lat="42.95648" lon="0.84432">
        <ele>1493.1</ele>
        <time>2019-08-17T10:33:02Z</time>
      </trkpt>
      <trkpt lat="42.95648" lon="0.84431">
        <ele>1493.1</ele>
        <time>2019-08-17T10:33:03Z</time>
      </trkpt>
      <trkpt lat="42.95648" lon="0.84431">
        <ele>1493.2</ele>
        <time>2019-08-17T10:33:04Z</time>
      </trkpt>
      <trkpt lat="42.95648" lon="0.8443">
        <ele>1493.2</ele>
        <time>2019-08-17T10:33:05Z</time>
      </trkpt>
      <trkpt lat="42.95648" lon="0.8443">
        <ele>1493.3</ele>
        <time>2019-08-17T10:33:06Z</time>
      </trkpt>
      <trkpt lat="42.95648" lon="0.8443">
        <ele>1493.3</ele>
        <time>2019-08-17T10:33:07Z</time>
      </trkpt>
      <trkpt lat="42.95648" lon="0.84429">
        <ele>1493.4</ele>
        <time>2019-08-17T10:33:08Z</time>
      </trkpt>
      <trkpt lat="42.95648" lon="0.84429">
        <ele>1493.5</ele>
        <time>2019-08-17T10:33:09Z</time>
      </trkpt>
      <trkpt lat="42.95648" lon="0.84428">
        <ele>1493.5</ele>
        <time>2019-08-17T10:33:10Z</time>
      </trkpt>
      <trkpt lat="42.95648" lon="0.84428">
        <ele>1493.6</ele>
        <time>2019-08-17T10:33:11Z</time>
      </trkpt>
      <trkpt lat="42.95648" lon="0.84428">
        <ele>1493.6</ele>
        <time>2019-08-17T10:33:12Z</time>
      </trkpt>
      <trkpt lat="42.95648" lon="0.84427">
        <ele>1493.7</ele>
        <time>2019-08-17T10:33:13Z</time>
      </trkpt>
      <trkpt lat="42.95648" lon="0.84427">
        <ele>1493.7</ele>
        <time>2019-08-17T10:33:14Z</time>
      </trkpt>
      <trkpt lat="42.95648" lon="0.84426">
        <ele>1493.8</ele>
        <time>2019-08-17T10:33:15Z</time>
      </trkpt>
      <trkpt lat="42.95648" lon="0.84426">
        <ele>1493.8</ele>
        <time>2019-08-17T10:33:16Z</time>
      </trkpt>
      <trkpt lat="42.95648" lon="0.84425">
        <ele>1493.9</ele>
        <time>2019-08-17T10:33:17Z</time>
      </trkpt>
      <trkpt lat="42.95649" lon="0.84425">
        <ele>1493.9</ele>
        <time>2019-08-17T10:33:18Z</time>
      </trkpt>
      <trkpt lat="42.95649" lon="0.84425">
        <ele>1493.9</ele>
        <time>2019-08-17T10:33:19Z</time>
      </trkpt>
      <trkpt lat="42.95649" lon="0.84424">
        <ele>1494</ele>
        <time>2019-08-17T10:33:20Z</time>
      </trkpt>
      <trkpt lat="42.95649" lon="0.84424">
        <ele>1494</ele>
        <time>2019-08-17T10:33:21Z</time>
      </trkpt>
      <trkpt lat="42.95649" lon="0.84423">
        <ele>1494</ele>
        <time>2019-08-17T10:33:22Z</time>
      </trkpt>
      <trkpt lat="42.95649" lon="0.84423">
        <ele>1494.1</ele>
        <time>2019-08-17T10:33:23Z</time>
      </trkpt>
      <trkpt lat="42.95649" lon="0.84423">
        <ele>1494.1</ele>
        <time>2019-08-17T10:33:24Z</time>
      </trkpt>
      <trkpt lat="42.95649" lon="0.84422">
        <ele>1494.1</ele>
        <time>2019-08-17T10:33:25Z</time>
      </trkpt>
      <trkpt lat="42.95649" lon="0.84422">
        <ele>1494.2</ele>
        <time>2019-08-17T10:33:26Z</time>
      </trkpt>
      <trkpt lat="42.95649" lon="0.84421">
        <ele>1494.2</ele>
        <time>2019-08-17T10:33:27Z</time>
      </trkpt>
      <trkpt lat="42.95649" lon="0.84421">
        <ele>1494.2</ele>
        <time>2019-08-17T10:33:28Z</time>
      </trkpt>
      <trkpt lat="42.95649" lon="0.8442">
        <ele>1494.2</ele>
        <time>2019-08-17T10:33:29Z</time>
      </trkpt>
      <trkpt lat="42.95649" lon="0.8442">
        <ele>1494.3</ele>
        <time>2019-08-17T10:33:30Z</time>
      </trkpt>
      <trkpt lat="42.95649" lon="0.8442">
        <ele>1494.3</ele>
        <time>2019-08-17T10:33:31Z</time>
      </trkpt>
      <trkpt lat="42.95649" lon="0.84419">
        <ele>1494.3</ele>
        <time>2019-08-17T10:33:32Z</time>
      </trkpt>
      <trkpt lat="42.95649" lon="0.84419">
        <ele>1494.4</ele>
        <time>2019-08-17T10:33:33Z</time>
      </trkpt>
      <trkpt lat="42.9565" lon="0.84418">
        <ele>1494.4</ele>
        <time>2019-08-17T10:33:34Z</time>
      </trkpt>
      <trkpt lat="42.9565" lon="0.84418">
        <ele>1494.4</ele>
        <time>2019-08-17T10:33:35Z</time>
      </trkpt>
      <trkpt lat="42.9565" lon="0.84418">
        <ele>1494.4</ele>
        <time>2019-08-17T10:33:36Z</time>
      </trkpt>
      <trkpt lat="42.9565" lon="0.84417">
        <ele>1494.5</ele>
        <time>2019-08-17T10:33:37Z</time>
      </trkpt>
      <trkpt lat="42.9565" lon="0.84417">
        <ele>1494.5</ele>
        <time>2019-08-17T10:33:38Z</time>
      </trkpt>
      <trkpt lat="42.9565" lon="0.84416">
        <ele>1494.5</ele>
        <time>2019-08-17T10:33:39Z</time>
      </trkpt>
      <trkpt lat="42.9565" lon="0.84416">
        <ele>1494.6</ele>
        <time>2019-08-17T10:33:40Z</time>
      </trkpt>
      <trkpt lat="42.9565" lon="0.84415">
        <ele>1494.6</ele>
        <time>2019-08-17T10:33:41Z</time>
      </trkpt>
      <trkpt lat="42.9565" lon="0.84415">
        <ele>1494.6</ele>
        <time>2019-08-17T10:33:42Z</time>
      </trkpt>
      <trkpt lat="42.9565" lon="0.84415">
        <ele>1494.7</ele>
        <time>2019-08-17T10:33:43Z</time>
      </trkpt>
      <trkpt lat="42.9565" lon="0.84414">
        <ele>1494.7</ele>
        <time>2019-08-17T10:33:44Z</time>
      </trkpt>
      <trkpt lat="42.9565" lon="0.84414">
        <ele>1494.7</ele>
        <time>2019-08-17T10:33:45Z</time>
      </trkpt>
      <trkpt lat="42.9565" lon="0.84413">
        <ele>1494.8</ele>
        <time>2019-08-17T10:33:46Z</time>
      </trkpt>
      <trkpt lat="42.9565" lon="0.84413">
        <ele>1494.8</ele>
        <time>2019-08-17T10:33:47Z</time>
      </trkpt>
      <trkpt lat="42.9565" lon="0.84413">
        <ele>1494.8</ele>
        <time>2019-08-17T10:33:48Z</time>
      </trkpt>
      <trkpt lat="42.9565" lon="0.84412">
        <ele>1494.9</ele>
        <time>2019-08-17T10:33:49Z</time>
      </trkpt>
      <trkpt lat="42.95651" lon="0.84412">
        <ele>1494.9</ele>
        <time>2019-08-17T10:33:50Z</time>
      </trkpt>
      <trkpt lat="42.95651" lon="0.84411">
        <ele>1495</ele>
        <time>2019-08-17T10:33:51Z</time>
      </trkpt>
      <trkpt lat="42.95651" lon="0.84411">
        <ele>1495.1</ele>
        <time>2019-08-17T10:33:52Z</time>
      </trkpt>
      <trkpt lat="42.95651" lon="0.8441">
        <ele>1495.1</ele>
        <time>2019-08-17T10:33:53Z</time>
      </trkpt>
      <trkpt lat="42.95651" lon="0.8441">
        <ele>1495.2</ele>
        <time>2019-08-17T10:33:54Z</time>
      </trkpt>
      <trkpt lat="42.95651" lon="0.8441">
        <ele>1495.3</ele>
        <time>2019-08-17T10:33:55Z</time>
      </trkpt>
      <trkpt lat="42.95651" lon="0.84409">
        <ele>1495.3</ele>
        <time>2019-08-17T10:33:56Z</time>
      </trkpt>
      <trkpt lat="42.95651" lon="0.84409">
        <ele>1495.4</ele>
        <time>2019-08-17T10:33:57Z</time>
      </trkpt>
      <trkpt lat="42.95651" lon="0.84408">
        <ele>1495.5</ele>
        <time>2019-08-17T10:33:58Z</time>
      </trkpt>
      <trkpt lat="42.95651" lon="0.84408">
        <ele>1495.5</ele>
        <time>2019-08-17T10:33:59Z</time>
      </trkpt>
      <trkpt lat="42.95651" lon="0.84408">
        <ele>1495.6</ele>
        <time>2019-08-17T10:34:00Z</time>
      </trkpt>
      <trkpt lat="42.95651" lon="0.84407">
        <ele>1495.7</ele>
        <time>2019-08-17T10:34:01Z</time>
      </trkpt>
      <trkpt lat="42.95651" lon="0.84407">
        <ele>1495.7</ele>
        <time>2019-08-17T10:34:02Z</time>
      </trkpt>
      <trkpt lat="42.95651" lon="0.84406">
        <ele>1495.8</ele>
        <time>2019-08-17T10:34:03Z</time>
      </trkpt>
      <trkpt lat="42.95651" lon="0.84406">
        <ele>1495.9</ele>
        <time>2019-08-17T10:34:04Z</time>
      </trkpt>
      <trkpt lat="42.95651" lon="0.84405">
        <ele>1496</ele>
        <time>2019-08-17T10:34:05Z</time>
      </trkpt>
      <trkpt lat="42.95652" lon="0.84405">
        <ele>1496</ele>
        <time>2019-08-17T10:34:06Z</time>
      </trkpt>
      <trkpt lat="42.95652" lon="0.84405">
        <ele>1496.1</ele>
        <time>2019-08-17T10:34:07Z</time>
      </trkpt>
      <trkpt lat="42.95652" lon="0.84404">
        <ele>1496.1</ele>
        <time>2019-08-17T10:34:08Z</time>
      </trkpt>
      <trkpt lat="42.95652" lon="0.84403">
        <ele>1496.2</ele>
        <time>2019-08-17T10:34:09Z</time>
      </trkpt>
      <trkpt lat="42.95652" lon="0.84402">
        <ele>1496.3</ele>
        <time>2019-08-17T10:34:10Z</time>
      </trkpt>
      <trkpt lat="42.95653" lon="0.844">
        <ele>1496.4</ele>
        <time>2019-08-17T10:34:11Z</time>
      </trkpt>
      <trkpt lat="42.95654" lon="0.84399">
        <ele>1496.4</ele>
        <time>2019-08-17T10:34:12Z</time>
      </trkpt>
      <trkpt lat="42.95655" lon="0.84398">
        <ele>1496.5</ele>
        <time>2019-08-17T10:34:13Z</time>
      </trkpt>
      <trkpt lat="42.95655" lon="0.84398">
        <ele>1496.6</ele>
        <time>2019-08-17T10:34:14Z</time>
      </trkpt>
      <trkpt lat="42.95655" lon="0.84397">
        <ele>1496.6</ele>
        <time>2019-08-17T10:34:15Z</time>
      </trkpt>
      <trkpt lat="42.95656" lon="0.84397">
        <ele>1496.7</ele>
        <time>2019-08-17T10:34:16Z</time>
      </trkpt>
      <trkpt lat="42.95656" lon="0.84397">
        <ele>1496.8</ele>
        <time>2019-08-17T10:34:17Z</time>
      </trkpt>
      <trkpt lat="42.95656" lon="0.84396">
        <ele>1496.9</ele>
        <time>2019-08-17T10:34:18Z</time>
      </trkpt>
      <trkpt lat="42.95657" lon="0.84395">
        <ele>1497</ele>
        <time>2019-08-17T10:34:19Z</time>
      </trkpt>
      <trkpt lat="42.95657" lon="0.84394">
        <ele>1497.1</ele>
        <time>2019-08-17T10:34:20Z</time>
      </trkpt>
      <trkpt lat="42.95657" lon="0.84394">
        <ele>1497.2</ele>
        <time>2019-08-17T10:34:21Z</time>
      </trkpt>
      <trkpt lat="42.95657" lon="0.84393">
        <ele>1497.3</ele>
        <time>2019-08-17T10:34:22Z</time>
      </trkpt>
      <trkpt lat="42.95658" lon="0.84392">
        <ele>1497.4</ele>
        <time>2019-08-17T10:34:23Z</time>
      </trkpt>
      <trkpt lat="42.95658" lon="0.84392">
        <ele>1497.5</ele>
        <time>2019-08-17T10:34:24Z</time>
      </trkpt>
      <trkpt lat="42.95658" lon="0.84392">
        <ele>1497.5</ele>
        <time>2019-08-17T10:34:25Z</time>
      </trkpt>
      <trkpt lat="42.95658" lon="0.84392">
        <ele>1497.6</ele>
        <time>2019-08-17T10:34:26Z</time>
      </trkpt>
      <trkpt lat="42.95658" lon="0.84391">
        <ele>1497.6</ele>
        <time>2019-08-17T10:34:27Z</time>
      </trkpt>
      <trkpt lat="42.95658" lon="0.84391">
        <ele>1497.7</ele>
        <time>2019-08-17T10:34:28Z</time>
      </trkpt>
      <trkpt lat="42.95658" lon="0.8439">
        <ele>1497.8</ele>
        <time>2019-08-17T10:34:29Z</time>
      </trkpt>
      <trkpt lat="42.95659" lon="0.84388">
        <ele>1498</ele>
        <time>2019-08-17T10:34:30Z</time>
      </trkpt>
      <trkpt lat="42.95659" lon="0.84387">
        <ele>1498.2</ele>
        <time>2019-08-17T10:34:31Z</time>
      </trkpt>
      <trkpt lat="42.95659" lon="0.84385">
        <ele>1498.5</ele>
        <time>2019-08-17T10:34:32Z</time>
      </trkpt>
      <trkpt lat="42.9566" lon="0.84384">
        <ele>1498.6</ele>
        <time>2019-08-17T10:34:33Z</time>
      </trkpt>
      <trkpt lat="42.9566" lon="0.84383">
        <ele>1498.8</ele>
        <time>2019-08-17T10:34:34Z</time>
      </trkpt>
      <trkpt lat="42.9566" lon="0.84383">
        <ele>1498.9</ele>
        <time>2019-08-17T10:34:35Z</time>
      </trkpt>
      <trkpt lat="42.95661" lon="0.84383">
        <ele>1498.9</ele>
        <time>2019-08-17T10:34:36Z</time>
      </trkpt>
      <trkpt lat="42.95661" lon="0.84383">
        <ele>1499</ele>
        <time>2019-08-17T10:34:37Z</time>
      </trkpt>
      <trkpt lat="42.95662" lon="0.84382">
        <ele>1499.1</ele>
        <time>2019-08-17T10:34:38Z</time>
      </trkpt>
      <trkpt lat="42.95662" lon="0.84382">
        <ele>1499.1</ele>
        <time>2019-08-17T10:34:39Z</time>
      </trkpt>
      <trkpt lat="42.95663" lon="0.84381">
        <ele>1499.2</ele>
        <time>2019-08-17T10:34:40Z</time>
      </trkpt>
      <trkpt lat="42.95663" lon="0.8438">
        <ele>1499.3</ele>
        <time>2019-08-17T10:34:41Z</time>
      </trkpt>
      <trkpt lat="42.95663" lon="0.84378">
        <ele>1499.4</ele>
        <time>2019-08-17T10:34:42Z</time>
      </trkpt>
      <trkpt lat="42.95663" lon="0.84377">
        <ele>1499.5</ele>
        <time>2019-08-17T10:34:43Z</time>
      </trkpt>
      <trkpt lat="42.95663" lon="0.84376">
        <ele>1499.6</ele>
        <time>2019-08-17T10:34:44Z</time>
      </trkpt>
      <trkpt lat="42.95663" lon="0.84375">
        <ele>1499.6</ele>
        <time>2019-08-17T10:34:45Z</time>
      </trkpt>
      <trkpt lat="42.95663" lon="0.84374">
        <ele>1499.7</ele>
        <time>2019-08-17T10:34:46Z</time>
      </trkpt>
      <trkpt lat="42.95663" lon="0.84372">
        <ele>1499.8</ele>
        <time>2019-08-17T10:34:47Z</time>
      </trkpt>
      <trkpt lat="42.95664" lon="0.84371">
        <ele>1499.8</ele>
        <time>2019-08-17T10:34:48Z</time>
      </trkpt>
      <trkpt lat="42.95664" lon="0.8437">
        <ele>1499.9</ele>
        <time>2019-08-17T10:34:49Z</time>
      </trkpt>
      <trkpt lat="42.95664" lon="0.84369">
        <ele>1500</ele>
        <time>2019-08-17T10:34:50Z</time>
      </trkpt>
      <trkpt lat="42.95665" lon="0.84368">
        <ele>1500.1</ele>
        <time>2019-08-17T10:34:51Z</time>
      </trkpt>
      <trkpt lat="42.95665" lon="0.84367">
        <ele>1500.1</ele>
        <time>2019-08-17T10:34:52Z</time>
      </trkpt>
      <trkpt lat="42.95666" lon="0.84365">
        <ele>1500.2</ele>
        <time>2019-08-17T10:34:53Z</time>
      </trkpt>
      <trkpt lat="42.95666" lon="0.84364">
        <ele>1500.3</ele>
        <time>2019-08-17T10:34:54Z</time>
      </trkpt>
      <trkpt lat="42.95667" lon="0.84363">
        <ele>1500.3</ele>
        <time>2019-08-17T10:34:55Z</time>
      </trkpt>
      <trkpt lat="42.95667" lon="0.84362">
        <ele>1500.4</ele>
        <time>2019-08-17T10:34:56Z</time>
      </trkpt>
      <trkpt lat="42.95667" lon="0.84361">
        <ele>1500.4</ele>
        <time>2019-08-17T10:34:57Z</time>
      </trkpt>
      <trkpt lat="42.95668" lon="0.8436">
        <ele>1500.5</ele>
        <time>2019-08-17T10:34:58Z</time>
      </trkpt>
      <trkpt lat="42.95668" lon="0.8436">
        <ele>1500.5</ele>
        <time>2019-08-17T10:34:59Z</time>
      </trkpt>
      <trkpt lat="42.95668" lon="0.84359">
        <ele>1500.5</ele>
        <time>2019-08-17T10:35:00Z</time>
      </trkpt>
      <trkpt lat="42.95668" lon="0.84359">
        <ele>1500.6</ele>
        <time>2019-08-17T10:35:01Z</time>
      </trkpt>
      <trkpt lat="42.95668" lon="0.84358">
        <ele>1500.6</ele>
        <time>2019-08-17T10:35:02Z</time>
      </trkpt>
      <trkpt lat="42.95669" lon="0.84357">
        <ele>1500.7</ele>
        <time>2019-08-17T10:35:03Z</time>
      </trkpt>
      <trkpt lat="42.95669" lon="0.84355">
        <ele>1500.7</ele>
        <time>2019-08-17T10:35:04Z</time>
      </trkpt>
      <trkpt lat="42.9567" lon="0.84354">
        <ele>1500.8</ele>
        <time>2019-08-17T10:35:05Z</time>
      </trkpt>
      <trkpt lat="42.95671" lon="0.84353">
        <ele>1500.8</ele>
        <time>2019-08-17T10:35:06Z</time>
      </trkpt>
      <trkpt lat="42.95672" lon="0.84352">
        <ele>1500.8</ele>
        <time>2019-08-17T10:35:07Z</time>
      </trkpt>
      <trkpt lat="42.95672" lon="0.84351">
        <ele>1500.8</ele>
        <time>2019-08-17T10:35:08Z</time>
      </trkpt>
      <trkpt lat="42.95673" lon="0.8435">
        <ele>1500.8</ele>
        <time>2019-08-17T10:35:09Z</time>
      </trkpt>
      <trkpt lat="42.95673" lon="0.84349">
        <ele>1500.8</ele>
        <time>2019-08-17T10:35:10Z</time>
      </trkpt>
      <trkpt lat="42.95674" lon="0.84349">
        <ele>1500.8</ele>
        <time>2019-08-17T10:35:11Z</time>
      </trkpt>
      <trkpt lat="42.95675" lon="0.84348">
        <ele>1500.8</ele>
        <time>2019-08-17T10:35:12Z</time>
      </trkpt>
      <trkpt lat="42.95675" lon="0.84347">
        <ele>1500.8</ele>
        <time>2019-08-17T10:35:13Z</time>
      </trkpt>
      <trkpt lat="42.95676" lon="0.84346">
        <ele>1500.8</ele>
        <time>2019-08-17T10:35:14Z</time>
      </trkpt>
      <trkpt lat="42.95676" lon="0.84345">
        <ele>1500.8</ele>
        <time>2019-08-17T10:35:15Z</time>
      </trkpt>
      <trkpt lat="42.95677" lon="0.84344">
        <ele>1500.8</ele>
        <time>2019-08-17T10:35:16Z</time>
      </trkpt>
      <trkpt lat="42.95677" lon="0.84343">
        <ele>1500.8</ele>
        <time>2019-08-17T10:35:17Z</time>
      </trkpt>
      <trkpt lat="42.95678" lon="0.84342">
        <ele>1500.8</ele>
        <time>2019-08-17T10:35:18Z</time>
      </trkpt>
      <trkpt lat="42.95678" lon="0.84341">
        <ele>1500.8</ele>
        <time>2019-08-17T10:35:19Z</time>
      </trkpt>
      <trkpt lat="42.95679" lon="0.8434">
        <ele>1500.8</ele>
        <time>2019-08-17T10:35:20Z</time>
      </trkpt>
      <trkpt lat="42.9568" lon="0.84339">
        <ele>1500.8</ele>
        <time>2019-08-17T10:35:21Z</time>
      </trkpt>
      <trkpt lat="42.9568" lon="0.84337">
        <ele>1500.9</ele>
        <time>2019-08-17T10:35:22Z</time>
      </trkpt>
      <trkpt lat="42.95681" lon="0.84336">
        <ele>1500.9</ele>
        <time>2019-08-17T10:35:23Z</time>
      </trkpt>
      <trkpt lat="42.95681" lon="0.84335">
        <ele>1500.9</ele>
        <time>2019-08-17T10:35:24Z</time>
      </trkpt>
      <trkpt lat="42.95682" lon="0.84334">
        <ele>1500.9</ele>
        <time>2019-08-17T10:35:25Z</time>
      </trkpt>
      <trkpt lat="42.95683" lon="0.84333">
        <ele>1500.9</ele>
        <time>2019-08-17T10:35:26Z</time>
      </trkpt>
      <trkpt lat="42.95683" lon="0.84332">
        <ele>1501</ele>
        <time>2019-08-17T10:35:27Z</time>
      </trkpt>
      <trkpt lat="42.95684" lon="0.8433">
        <ele>1500.9</ele>
        <time>2019-08-17T10:35:28Z</time>
      </trkpt>
      <trkpt lat="42.95685" lon="0.84329">
        <ele>1500.9</ele>
        <time>2019-08-17T10:35:29Z</time>
      </trkpt>
      <trkpt lat="42.95685" lon="0.84328">
        <ele>1500.9</ele>
        <time>2019-08-17T10:35:30Z</time>
      </trkpt>
      <trkpt lat="42.95686" lon="0.84327">
        <ele>1500.9</ele>
        <time>2019-08-17T10:35:31Z</time>
      </trkpt>
      <trkpt lat="42.95687" lon="0.84326">
        <ele>1500.9</ele>
        <time>2019-08-17T10:35:32Z</time>
      </trkpt>
      <trkpt lat="42.95687" lon="0.84325">
        <ele>1500.9</ele>
        <time>2019-08-17T10:35:33Z</time>
      </trkpt>
      <trkpt lat="42.95688" lon="0.84324">
        <ele>1500.8</ele>
        <time>2019-08-17T10:35:34Z</time>
      </trkpt>
      <trkpt lat="42.95688" lon="0.84323">
        <ele>1500.8</ele>
        <time>2019-08-17T10:35:35Z</time>
      </trkpt>
      <trkpt lat="42.95689" lon="0.84322">
        <ele>1500.8</ele>
        <time>2019-08-17T10:35:36Z</time>
      </trkpt>
      <trkpt lat="42.95689" lon="0.84321">
        <ele>1500.8</ele>
        <time>2019-08-17T10:35:37Z</time>
      </trkpt>
      <trkpt lat="42.9569" lon="0.8432">
        <ele>1500.8</ele>
        <time>2019-08-17T10:35:38Z</time>
      </trkpt>
      <trkpt lat="42.9569" lon="0.84319">
        <ele>1500.9</ele>
        <time>2019-08-17T10:35:39Z</time>
      </trkpt>
      <trkpt lat="42.9569" lon="0.84318">
        <ele>1500.9</ele>
        <time>2019-08-17T10:35:40Z</time>
      </trkpt>
      <trkpt lat="42.9569" lon="0.84318">
        <ele>1500.9</ele>
        <time>2019-08-17T10:35:41Z</time>
      </trkpt>
      <trkpt lat="42.9569" lon="0.84317">
        <ele>1500.9</ele>
        <time>2019-08-17T10:35:42Z</time>
      </trkpt>
      <trkpt lat="42.9569" lon="0.84317">
        <ele>1500.9</ele>
        <time>2019-08-17T10:35:43Z</time>
      </trkpt>
      <trkpt lat="42.9569" lon="0.84318">
        <ele>1500.9</ele>
        <time>2019-08-17T10:35:44Z</time>
      </trkpt>
      <trkpt lat="42.9569" lon="0.84318">
        <ele>1500.9</ele>
        <time>2019-08-17T10:35:45Z</time>
      </trkpt>
      <trkpt lat="42.9569" lon="0.84318">
        <ele>1500.9</ele>
        <time>2019-08-17T10:35:46Z</time>
      </trkpt>
      <trkpt lat="42.9569" lon="0.84317">
        <ele>1500.9</ele>
        <time>2019-08-17T10:35:47Z</time>
      </trkpt>
      <trkpt lat="42.9569" lon="0.84317">
        <ele>1500.9</ele>
        <time>2019-08-17T10:35:48Z</time>
      </trkpt>
      <trkpt lat="42.9569" lon="0.84316">
        <ele>1500.9</ele>
        <time>2019-08-17T10:35:49Z</time>
      </trkpt>
      <trkpt lat="42.95691" lon="0.84316">
        <ele>1500.9</ele>
        <time>2019-08-17T10:35:50Z</time>
      </trkpt>
      <trkpt lat="42.95691" lon="0.84314">
        <ele>1500.9</ele>
        <time>2019-08-17T10:35:51Z</time>
      </trkpt>
      <trkpt lat="42.95692" lon="0.84313">
        <ele>1501</ele>
        <time>2019-08-17T10:35:52Z</time>
      </trkpt>
      <trkpt lat="42.95693" lon="0.84312">
        <ele>1501</ele>
        <time>2019-08-17T10:35:53Z</time>
      </trkpt>
      <trkpt lat="42.95693" lon="0.8431">
        <ele>1501.1</ele>
        <time>2019-08-17T10:35:54Z</time>
      </trkpt>
      <trkpt lat="42.95694" lon="0.84308">
        <ele>1501.2</ele>
        <time>2019-08-17T10:35:55Z</time>
      </trkpt>
      <trkpt lat="42.95695" lon="0.84306">
        <ele>1501.3</ele>
        <time>2019-08-17T10:35:56Z</time>
      </trkpt>
      <trkpt lat="42.95695" lon="0.84305">
        <ele>1501.3</ele>
        <time>2019-08-17T10:35:57Z</time>
      </trkpt>
      <trkpt lat="42.95695" lon="0.84303">
        <ele>1501.4</ele>
        <time>2019-08-17T10:35:58Z</time>
      </trkpt>
      <trkpt lat="42.95696" lon="0.84301">
        <ele>1501.5</ele>
        <time>2019-08-17T10:35:59Z</time>
      </trkpt>
      <trkpt lat="42.95696" lon="0.84299">
        <ele>1501.7</ele>
        <time>2019-08-17T10:36:00Z</time>
      </trkpt>
      <trkpt lat="42.95696" lon="0.84298">
        <ele>1501.9</ele>
        <time>2019-08-17T10:36:01Z</time>
      </trkpt>
      <trkpt lat="42.95697" lon="0.84296">
        <ele>1502.1</ele>
        <time>2019-08-17T10:36:02Z</time>
      </trkpt>
      <trkpt lat="42.95697" lon="0.84294">
        <ele>1502.3</ele>
        <time>2019-08-17T10:36:03Z</time>
      </trkpt>
      <trkpt lat="42.95698" lon="0.84293">
        <ele>1502.5</ele>
        <time>2019-08-17T10:36:04Z</time>
      </trkpt>
      <trkpt lat="42.95698" lon="0.84291">
        <ele>1502.7</ele>
        <time>2019-08-17T10:36:05Z</time>
      </trkpt>
      <trkpt lat="42.95699" lon="0.8429">
        <ele>1502.9</ele>
        <time>2019-08-17T10:36:06Z</time>
      </trkpt>
      <trkpt lat="42.95699" lon="0.84289">
        <ele>1503</ele>
        <time>2019-08-17T10:36:07Z</time>
      </trkpt>
      <trkpt lat="42.957" lon="0.84287">
        <ele>1503.1</ele>
        <time>2019-08-17T10:36:08Z</time>
      </trkpt>
      <trkpt lat="42.957" lon="0.84286">
        <ele>1503.2</ele>
        <time>2019-08-17T10:36:09Z</time>
      </trkpt>
      <trkpt lat="42.95701" lon="0.84284">
        <ele>1503.4</ele>
        <time>2019-08-17T10:36:10Z</time>
      </trkpt>
      <trkpt lat="42.95701" lon="0.84283">
        <ele>1503.5</ele>
        <time>2019-08-17T10:36:11Z</time>
      </trkpt>
      <trkpt lat="42.95702" lon="0.84281">
        <ele>1503.7</ele>
        <time>2019-08-17T10:36:12Z</time>
      </trkpt>
      <trkpt lat="42.95702" lon="0.8428">
        <ele>1503.8</ele>
        <time>2019-08-17T10:36:13Z</time>
      </trkpt>
      <trkpt lat="42.95703" lon="0.84278">
        <ele>1503.9</ele>
        <time>2019-08-17T10:36:14Z</time>
      </trkpt>
      <trkpt lat="42.95703" lon="0.84277">
        <ele>1504.1</ele>
        <time>2019-08-17T10:36:15Z</time>
      </trkpt>
      <trkpt lat="42.95704" lon="0.84276">
        <ele>1504.2</ele>
        <time>2019-08-17T10:36:16Z</time>
      </trkpt>
      <trkpt lat="42.95705" lon="0.84274">
        <ele>1504.3</ele>
        <time>2019-08-17T10:36:17Z</time>
      </trkpt>
      <trkpt lat="42.95706" lon="0.84273">
        <ele>1504.4</ele>
        <time>2019-08-17T10:36:18Z</time>
      </trkpt>
      <trkpt lat="42.95707" lon="0.84272">
        <ele>1504.6</ele>
        <time>2019-08-17T10:36:19Z</time>
      </trkpt>
      <trkpt lat="42.95708" lon="0.84271">
        <ele>1504.9</ele>
        <time>2019-08-17T10:36:20Z</time>
      </trkpt>
      <trkpt lat="42.95709" lon="0.8427">
        <ele>1505.2</ele>
        <time>2019-08-17T10:36:21Z</time>
      </trkpt>
      <trkpt lat="42.9571" lon="0.84269">
        <ele>1505.5</ele>
        <time>2019-08-17T10:36:22Z</time>
      </trkpt>
      <trkpt lat="42.95711" lon="0.84268">
        <ele>1505.7</ele>
        <time>2019-08-17T10:36:23Z</time>
      </trkpt>
      <trkpt lat="42.95711" lon="0.84268">
        <ele>1506</ele>
        <time>2019-08-17T10:36:24Z</time>
      </trkpt>
      <trkpt lat="42.95712" lon="0.84267">
        <ele>1506.3</ele>
        <time>2019-08-17T10:36:25Z</time>
      </trkpt>
      <trkpt lat="42.95713" lon="0.84266">
        <ele>1506.5</ele>
        <time>2019-08-17T10:36:26Z</time>
      </trkpt>
      <trkpt lat="42.95714" lon="0.84266">
        <ele>1506.8</ele>
        <time>2019-08-17T10:36:27Z</time>
      </trkpt>
      <trkpt lat="42.95715" lon="0.84265">
        <ele>1507</ele>
        <time>2019-08-17T10:36:28Z</time>
      </trkpt>
      <trkpt lat="42.95716" lon="0.84265">
        <ele>1507.3</ele>
        <time>2019-08-17T10:36:29Z</time>
      </trkpt>
      <trkpt lat="42.95717" lon="0.84265">
        <ele>1507.5</ele>
        <time>2019-08-17T10:36:30Z</time>
      </trkpt>
      <trkpt lat="42.95718" lon="0.84264">
        <ele>1507.6</ele>
        <time>2019-08-17T10:36:31Z</time>
      </trkpt>
      <trkpt lat="42.95719" lon="0.84264">
        <ele>1507.6</ele>
        <time>2019-08-17T10:36:32Z</time>
      </trkpt>
      <trkpt lat="42.9572" lon="0.84264">
        <ele>1507.7</ele>
        <time>2019-08-17T10:36:33Z</time>
      </trkpt>
      <trkpt lat="42.9572" lon="0.84264">
        <ele>1507.8</ele>
        <time>2019-08-17T10:36:34Z</time>
      </trkpt>
      <trkpt lat="42.95721" lon="0.84264">
        <ele>1507.8</ele>
        <time>2019-08-17T10:36:35Z</time>
      </trkpt>
      <trkpt lat="42.95722" lon="0.84264">
        <ele>1507.9</ele>
        <time>2019-08-17T10:36:36Z</time>
      </trkpt>
      <trkpt lat="42.95723" lon="0.84264">
        <ele>1508</ele>
        <time>2019-08-17T10:36:37Z</time>
      </trkpt>
      <trkpt lat="42.95724" lon="0.84264">
        <ele>1508.1</ele>
        <time>2019-08-17T10:36:38Z</time>
      </trkpt>
      <trkpt lat="42.95725" lon="0.84264">
        <ele>1508.2</ele>
        <time>2019-08-17T10:36:39Z</time>
      </trkpt>
      <trkpt lat="42.95726" lon="0.84264">
        <ele>1508.3</ele>
        <time>2019-08-17T10:36:40Z</time>
      </trkpt>
      <trkpt lat="42.95727" lon="0.84265">
        <ele>1508.3</ele>
        <time>2019-08-17T10:36:41Z</time>
      </trkpt>
      <trkpt lat="42.95728" lon="0.84265">
        <ele>1508.4</ele>
        <time>2019-08-17T10:36:42Z</time>
      </trkpt>
      <trkpt lat="42.95729" lon="0.84265">
        <ele>1508.5</ele>
        <time>2019-08-17T10:36:43Z</time>
      </trkpt>
      <trkpt lat="42.9573" lon="0.84265">
        <ele>1508.6</ele>
        <time>2019-08-17T10:36:44Z</time>
      </trkpt>
      <trkpt lat="42.95731" lon="0.84266">
        <ele>1508.7</ele>
        <time>2019-08-17T10:36:45Z</time>
      </trkpt>
      <trkpt lat="42.95732" lon="0.84266">
        <ele>1508.8</ele>
        <time>2019-08-17T10:36:46Z</time>
      </trkpt>
      <trkpt lat="42.95733" lon="0.84267">
        <ele>1508.9</ele>
        <time>2019-08-17T10:36:47Z</time>
      </trkpt>
      <trkpt lat="42.95734" lon="0.84267">
        <ele>1509</ele>
        <time>2019-08-17T10:36:48Z</time>
      </trkpt>
      <trkpt lat="42.95735" lon="0.84267">
        <ele>1509.1</ele>
        <time>2019-08-17T10:36:49Z</time>
      </trkpt>
      <trkpt lat="42.95736" lon="0.84268">
        <ele>1509.3</ele>
        <time>2019-08-17T10:36:50Z</time>
      </trkpt>
      <trkpt lat="42.95737" lon="0.84268">
        <ele>1509.4</ele>
        <time>2019-08-17T10:36:51Z</time>
      </trkpt>
      <trkpt lat="42.95738" lon="0.84268">
        <ele>1509.6</ele>
        <time>2019-08-17T10:36:52Z</time>
      </trkpt>
      <trkpt lat="42.95739" lon="0.84269">
        <ele>1509.7</ele>
        <time>2019-08-17T10:36:53Z</time>
      </trkpt>
      <trkpt lat="42.95741" lon="0.84269">
        <ele>1509.9</ele>
        <time>2019-08-17T10:36:54Z</time>
      </trkpt>
      <trkpt lat="42.95742" lon="0.8427">
        <ele>1510</ele>
        <time>2019-08-17T10:36:55Z</time>
      </trkpt>
      <trkpt lat="42.95743" lon="0.8427">
        <ele>1510.2</ele>
        <time>2019-08-17T10:36:56Z</time>
      </trkpt>
      <trkpt lat="42.95744" lon="0.8427">
        <ele>1510.3</ele>
        <time>2019-08-17T10:36:57Z</time>
      </trkpt>
      <trkpt lat="42.95745" lon="0.84271">
        <ele>1510.5</ele>
        <time>2019-08-17T10:36:58Z</time>
      </trkpt>
      <trkpt lat="42.95746" lon="0.84272">
        <ele>1510.6</ele>
        <time>2019-08-17T10:36:59Z</time>
      </trkpt>
      <trkpt lat="42.95747" lon="0.84272">
        <ele>1510.8</ele>
        <time>2019-08-17T10:37:00Z</time>
      </trkpt>
      <trkpt lat="42.95748" lon="0.84273">
        <ele>1510.9</ele>
        <time>2019-08-17T10:37:01Z</time>
      </trkpt>
      <trkpt lat="42.95749" lon="0.84273">
        <ele>1511.1</ele>
        <time>2019-08-17T10:37:02Z</time>
      </trkpt>
      <trkpt lat="42.9575" lon="0.84274">
        <ele>1511.2</ele>
        <time>2019-08-17T10:37:03Z</time>
      </trkpt>
      <trkpt lat="42.95751" lon="0.84275">
        <ele>1511.4</ele>
        <time>2019-08-17T10:37:04Z</time>
      </trkpt>
      <trkpt lat="42.95752" lon="0.84275">
        <ele>1511.6</ele>
        <time>2019-08-17T10:37:05Z</time>
      </trkpt>
      <trkpt lat="42.95752" lon="0.84276">
        <ele>1511.8</ele>
        <time>2019-08-17T10:37:06Z</time>
      </trkpt>
      <trkpt lat="42.95753" lon="0.84276">
        <ele>1512</ele>
        <time>2019-08-17T10:37:07Z</time>
      </trkpt>
      <trkpt lat="42.95754" lon="0.84277">
        <ele>1512.2</ele>
        <time>2019-08-17T10:37:08Z</time>
      </trkpt>
      <trkpt lat="42.95755" lon="0.84277">
        <ele>1512.3</ele>
        <time>2019-08-17T10:37:09Z</time>
      </trkpt>
      <trkpt lat="42.95756" lon="0.84278">
        <ele>1512.6</ele>
        <time>2019-08-17T10:37:10Z</time>
      </trkpt>
      <trkpt lat="42.95757" lon="0.84278">
        <ele>1512.8</ele>
        <time>2019-08-17T10:37:11Z</time>
      </trkpt>
      <trkpt lat="42.95758" lon="0.84278">
        <ele>1513</ele>
        <time>2019-08-17T10:37:12Z</time>
      </trkpt>
      <trkpt lat="42.95759" lon="0.84279">
        <ele>1513.2</ele>
        <time>2019-08-17T10:37:13Z</time>
      </trkpt>
      <trkpt lat="42.9576" lon="0.84279">
        <ele>1513.4</ele>
        <time>2019-08-17T10:37:14Z</time>
      </trkpt>
      <trkpt lat="42.95761" lon="0.84279">
        <ele>1513.6</ele>
        <time>2019-08-17T10:37:15Z</time>
      </trkpt>
      <trkpt lat="42.95762" lon="0.8428">
        <ele>1513.8</ele>
        <time>2019-08-17T10:37:16Z</time>
      </trkpt>
      <trkpt lat="42.95763" lon="0.8428">
        <ele>1514</ele>
        <time>2019-08-17T10:37:17Z</time>
      </trkpt>
      <trkpt lat="42.95764" lon="0.8428">
        <ele>1514.3</ele>
        <time>2019-08-17T10:37:18Z</time>
      </trkpt>
      <trkpt lat="42.95765" lon="0.84281">
        <ele>1514.5</ele>
        <time>2019-08-17T10:37:19Z</time>
      </trkpt>
      <trkpt lat="42.95766" lon="0.84282">
        <ele>1514.7</ele>
        <time>2019-08-17T10:37:20Z</time>
      </trkpt>
      <trkpt lat="42.95766" lon="0.84282">
        <ele>1514.9</ele>
        <time>2019-08-17T10:37:21Z</time>
      </trkpt>
      <trkpt lat="42.95767" lon="0.84283">
        <ele>1515.1</ele>
        <time>2019-08-17T10:37:22Z</time>
      </trkpt>
      <trkpt lat="42.95768" lon="0.84284">
        <ele>1515.4</ele>
        <time>2019-08-17T10:37:23Z</time>
      </trkpt>
      <trkpt lat="42.95769" lon="0.84284">
        <ele>1515.6</ele>
        <time>2019-08-17T10:37:24Z</time>
      </trkpt>
      <trkpt lat="42.9577" lon="0.84284">
        <ele>1515.8</ele>
        <time>2019-08-17T10:37:25Z</time>
      </trkpt>
      <trkpt lat="42.95771" lon="0.84284">
        <ele>1516</ele>
        <time>2019-08-17T10:37:26Z</time>
      </trkpt>
      <trkpt lat="42.95772" lon="0.84284">
        <ele>1516.2</ele>
        <time>2019-08-17T10:37:27Z</time>
      </trkpt>
      <trkpt lat="42.95773" lon="0.84284">
        <ele>1516.4</ele>
        <time>2019-08-17T10:37:28Z</time>
      </trkpt>
      <trkpt lat="42.95774" lon="0.84284">
        <ele>1516.6</ele>
        <time>2019-08-17T10:37:29Z</time>
      </trkpt>
      <trkpt lat="42.95775" lon="0.84284">
        <ele>1516.9</ele>
        <time>2019-08-17T10:37:30Z</time>
      </trkpt>
      <trkpt lat="42.95776" lon="0.84283">
        <ele>1517.1</ele>
        <time>2019-08-17T10:37:31Z</time>
      </trkpt>
      <trkpt lat="42.95777" lon="0.84283">
        <ele>1517.2</ele>
        <time>2019-08-17T10:37:32Z</time>
      </trkpt>
      <trkpt lat="42.95777" lon="0.84282">
        <ele>1517.4</ele>
        <time>2019-08-17T10:37:33Z</time>
      </trkpt>
      <trkpt lat="42.95778" lon="0.84282">
        <ele>1517.6</ele>
        <time>2019-08-17T10:37:34Z</time>
      </trkpt>
      <trkpt lat="42.95779" lon="0.84282">
        <ele>1517.7</ele>
        <time>2019-08-17T10:37:35Z</time>
      </trkpt>
      <trkpt lat="42.9578" lon="0.84281">
        <ele>1517.9</ele>
        <time>2019-08-17T10:37:36Z</time>
      </trkpt>
      <trkpt lat="42.9578" lon="0.84281">
        <ele>1518.1</ele>
        <time>2019-08-17T10:37:37Z</time>
      </trkpt>
      <trkpt lat="42.95781" lon="0.8428">
        <ele>1518.2</ele>
        <time>2019-08-17T10:37:38Z</time>
      </trkpt>
      <trkpt lat="42.95782" lon="0.8428">
        <ele>1518.4</ele>
        <time>2019-08-17T10:37:39Z</time>
      </trkpt>
      <trkpt lat="42.95782" lon="0.84279">
        <ele>1518.5</ele>
        <time>2019-08-17T10:37:40Z</time>
      </trkpt>
      <trkpt lat="42.95783" lon="0.84279">
        <ele>1518.7</ele>
        <time>2019-08-17T10:37:41Z</time>
      </trkpt>
      <trkpt lat="42.95784" lon="0.84278">
        <ele>1518.9</ele>
        <time>2019-08-17T10:37:42Z</time>
      </trkpt>
      <trkpt lat="42.95784" lon="0.84278">
        <ele>1519.1</ele>
        <time>2019-08-17T10:37:43Z</time>
      </trkpt>
      <trkpt lat="42.95785" lon="0.84277">
        <ele>1519.4</ele>
        <time>2019-08-17T10:37:44Z</time>
      </trkpt>
      <trkpt lat="42.95786" lon="0.84277">
        <ele>1519.6</ele>
        <time>2019-08-17T10:37:45Z</time>
      </trkpt>
      <trkpt lat="42.95786" lon="0.84276">
        <ele>1519.8</ele>
        <time>2019-08-17T10:37:46Z</time>
      </trkpt>
      <trkpt lat="42.95787" lon="0.84276">
        <ele>1520</ele>
        <time>2019-08-17T10:37:47Z</time>
      </trkpt>
      <trkpt lat="42.95788" lon="0.84275">
        <ele>1520.2</ele>
        <time>2019-08-17T10:37:48Z</time>
      </trkpt>
      <trkpt lat="42.95789" lon="0.84275">
        <ele>1520.4</ele>
        <time>2019-08-17T10:37:49Z</time>
      </trkpt>
      <trkpt lat="42.95789" lon="0.84275">
        <ele>1520.6</ele>
        <time>2019-08-17T10:37:50Z</time>
      </trkpt>
      <trkpt lat="42.9579" lon="0.84274">
        <ele>1520.8</ele>
        <time>2019-08-17T10:37:51Z</time>
      </trkpt>
      <trkpt lat="42.95791" lon="0.84274">
        <ele>1521</ele>
        <time>2019-08-17T10:37:52Z</time>
      </trkpt>
      <trkpt lat="42.95792" lon="0.84274">
        <ele>1521.2</ele>
        <time>2019-08-17T10:37:53Z</time>
      </trkpt>
      <trkpt lat="42.95793" lon="0.84274">
        <ele>1521.4</ele>
        <time>2019-08-17T10:37:54Z</time>
      </trkpt>
      <trkpt lat="42.95793" lon="0.84274">
        <ele>1521.6</ele>
        <time>2019-08-17T10:37:55Z</time>
      </trkpt>
      <trkpt lat="42.95794" lon="0.84273">
        <ele>1521.8</ele>
        <time>2019-08-17T10:37:56Z</time>
      </trkpt>
      <trkpt lat="42.95795" lon="0.84273">
        <ele>1521.9</ele>
        <time>2019-08-17T10:37:57Z</time>
      </trkpt>
      <trkpt lat="42.95795" lon="0.84273">
        <ele>1522.1</ele>
        <time>2019-08-17T10:37:58Z</time>
      </trkpt>
      <trkpt lat="42.95796" lon="0.84272">
        <ele>1522.2</ele>
        <time>2019-08-17T10:37:59Z</time>
      </trkpt>
      <trkpt lat="42.95796" lon="0.84271">
        <ele>1522.3</ele>
        <time>2019-08-17T10:38:00Z</time>
      </trkpt>
      <trkpt lat="42.95796" lon="0.84271">
        <ele>1522.4</ele>
        <time>2019-08-17T10:38:01Z</time>
      </trkpt>
      <trkpt lat="42.95797" lon="0.8427">
        <ele>1522.5</ele>
        <time>2019-08-17T10:38:02Z</time>
      </trkpt>
      <trkpt lat="42.95797" lon="0.84269">
        <ele>1522.6</ele>
        <time>2019-08-17T10:38:03Z</time>
      </trkpt>
      <trkpt lat="42.95797" lon="0.84269">
        <ele>1522.7</ele>
        <time>2019-08-17T10:38:04Z</time>
      </trkpt>
      <trkpt lat="42.95798" lon="0.84268">
        <ele>1522.8</ele>
        <time>2019-08-17T10:38:05Z</time>
      </trkpt>
      <trkpt lat="42.95798" lon="0.84268">
        <ele>1523</ele>
        <time>2019-08-17T10:38:06Z</time>
      </trkpt>
      <trkpt lat="42.95799" lon="0.84267">
        <ele>1523.1</ele>
        <time>2019-08-17T10:38:07Z</time>
      </trkpt>
      <trkpt lat="42.95799" lon="0.84266">
        <ele>1523.3</ele>
        <time>2019-08-17T10:38:08Z</time>
      </trkpt>
      <trkpt lat="42.958" lon="0.84265">
        <ele>1523.4</ele>
        <time>2019-08-17T10:38:09Z</time>
      </trkpt>
      <trkpt lat="42.958" lon="0.84265">
        <ele>1523.5</ele>
        <time>2019-08-17T10:38:10Z</time>
      </trkpt>
      <trkpt lat="42.958" lon="0.84264">
        <ele>1523.7</ele>
        <time>2019-08-17T10:38:11Z</time>
      </trkpt>
      <trkpt lat="42.958" lon="0.84263">
        <ele>1523.8</ele>
        <time>2019-08-17T10:38:12Z</time>
      </trkpt>
      <trkpt lat="42.95801" lon="0.84262">
        <ele>1523.9</ele>
        <time>2019-08-17T10:38:13Z</time>
      </trkpt>
      <trkpt lat="42.95801" lon="0.84261">
        <ele>1524.1</ele>
        <time>2019-08-17T10:38:14Z</time>
      </trkpt>
      <trkpt lat="42.95801" lon="0.8426">
        <ele>1524.2</ele>
        <time>2019-08-17T10:38:15Z</time>
      </trkpt>
      <trkpt lat="42.95802" lon="0.8426">
        <ele>1524.4</ele>
        <time>2019-08-17T10:38:16Z</time>
      </trkpt>
      <trkpt lat="42.95802" lon="0.84259">
        <ele>1524.6</ele>
        <time>2019-08-17T10:38:17Z</time>
      </trkpt>
      <trkpt lat="42.95803" lon="0.84258">
        <ele>1524.8</ele>
        <time>2019-08-17T10:38:18Z</time>
      </trkpt>
      <trkpt lat="42.95803" lon="0.84257">
        <ele>1524.9</ele>
        <time>2019-08-17T10:38:19Z</time>
      </trkpt>
      <trkpt lat="42.95804" lon="0.84256">
        <ele>1525.1</ele>
        <time>2019-08-17T10:38:20Z</time>
      </trkpt>
      <trkpt lat="42.95804" lon="0.84255">
        <ele>1525.3</ele>
        <time>2019-08-17T10:38:21Z</time>
      </trkpt>
      <trkpt lat="42.95805" lon="0.84254">
        <ele>1525.5</ele>
        <time>2019-08-17T10:38:22Z</time>
      </trkpt>
      <trkpt lat="42.95805" lon="0.84253">
        <ele>1525.7</ele>
        <time>2019-08-17T10:38:23Z</time>
      </trkpt>
      <trkpt lat="42.95805" lon="0.84252">
        <ele>1525.9</ele>
        <time>2019-08-17T10:38:24Z</time>
      </trkpt>
      <trkpt lat="42.95805" lon="0.84251">
        <ele>1526.1</ele>
        <time>2019-08-17T10:38:25Z</time>
      </trkpt>
      <trkpt lat="42.95806" lon="0.8425">
        <ele>1526.3</ele>
        <time>2019-08-17T10:38:26Z</time>
      </trkpt>
      <trkpt lat="42.95806" lon="0.84249">
        <ele>1526.5</ele>
        <time>2019-08-17T10:38:27Z</time>
      </trkpt>
      <trkpt lat="42.95806" lon="0.84248">
        <ele>1526.7</ele>
        <time>2019-08-17T10:38:28Z</time>
      </trkpt>
      <trkpt lat="42.95806" lon="0.84247">
        <ele>1527</ele>
        <time>2019-08-17T10:38:29Z</time>
      </trkpt>
      <trkpt lat="42.95807" lon="0.84246">
        <ele>1527.2</ele>
        <time>2019-08-17T10:38:30Z</time>
      </trkpt>
      <trkpt lat="42.95807" lon="0.84245">
        <ele>1527.3</ele>
        <time>2019-08-17T10:38:31Z</time>
      </trkpt>
      <trkpt lat="42.95807" lon="0.84244">
        <ele>1527.5</ele>
        <time>2019-08-17T10:38:32Z</time>
      </trkpt>
      <trkpt lat="42.95807" lon="0.84243">
        <ele>1527.6</ele>
        <time>2019-08-17T10:38:33Z</time>
      </trkpt>
      <trkpt lat="42.95807" lon="0.84242">
        <ele>1527.8</ele>
        <time>2019-08-17T10:38:34Z</time>
      </trkpt>
      <trkpt lat="42.95807" lon="0.84241">
        <ele>1527.9</ele>
        <time>2019-08-17T10:38:35Z</time>
      </trkpt>
      <trkpt lat="42.95808" lon="0.8424">
        <ele>1528.1</ele>
        <time>2019-08-17T10:38:36Z</time>
      </trkpt>
      <trkpt lat="42.95808" lon="0.84239">
        <ele>1528.2</ele>
        <time>2019-08-17T10:38:37Z</time>
      </trkpt>
      <trkpt lat="42.95808" lon="0.84238">
        <ele>1528.4</ele>
        <time>2019-08-17T10:38:38Z</time>
      </trkpt>
      <trkpt lat="42.95808" lon="0.84236">
        <ele>1528.6</ele>
        <time>2019-08-17T10:38:39Z</time>
      </trkpt>
      <trkpt lat="42.95808" lon="0.84235">
        <ele>1528.8</ele>
        <time>2019-08-17T10:38:40Z</time>
      </trkpt>
      <trkpt lat="42.95808" lon="0.84234">
        <ele>1528.9</ele>
        <time>2019-08-17T10:38:41Z</time>
      </trkpt>
      <trkpt lat="42.95808" lon="0.84233">
        <ele>1529.1</ele>
        <time>2019-08-17T10:38:42Z</time>
      </trkpt>
      <trkpt lat="42.95808" lon="0.84231">
        <ele>1529.3</ele>
        <time>2019-08-17T10:38:43Z</time>
      </trkpt>
      <trkpt lat="42.95809" lon="0.8423">
        <ele>1529.4</ele>
        <time>2019-08-17T10:38:44Z</time>
      </trkpt>
      <trkpt lat="42.95809" lon="0.84229">
        <ele>1529.6</ele>
        <time>2019-08-17T10:38:45Z</time>
      </trkpt>
      <trkpt lat="42.95809" lon="0.84228">
        <ele>1529.7</ele>
        <time>2019-08-17T10:38:46Z</time>
      </trkpt>
      <trkpt lat="42.95809" lon="0.84227">
        <ele>1529.9</ele>
        <time>2019-08-17T10:38:47Z</time>
      </trkpt>
      <trkpt lat="42.9581" lon="0.84226">
        <ele>1530</ele>
        <time>2019-08-17T10:38:48Z</time>
      </trkpt>
      <trkpt lat="42.9581" lon="0.84225">
        <ele>1530.2</ele>
        <time>2019-08-17T10:38:49Z</time>
      </trkpt>
      <trkpt lat="42.9581" lon="0.84224">
        <ele>1530.3</ele>
        <time>2019-08-17T10:38:50Z</time>
      </trkpt>
      <trkpt lat="42.95811" lon="0.84223">
        <ele>1530.5</ele>
        <time>2019-08-17T10:38:51Z</time>
      </trkpt>
      <trkpt lat="42.95811" lon="0.84222">
        <ele>1530.6</ele>
        <time>2019-08-17T10:38:52Z</time>
      </trkpt>
      <trkpt lat="42.95812" lon="0.84221">
        <ele>1530.8</ele>
        <time>2019-08-17T10:38:53Z</time>
      </trkpt>
      <trkpt lat="42.95812" lon="0.8422">
        <ele>1530.9</ele>
        <time>2019-08-17T10:38:54Z</time>
      </trkpt>
      <trkpt lat="42.95813" lon="0.84219">
        <ele>1531.1</ele>
        <time>2019-08-17T10:38:55Z</time>
      </trkpt>
      <trkpt lat="42.95813" lon="0.84218">
        <ele>1531.3</ele>
        <time>2019-08-17T10:38:56Z</time>
      </trkpt>
      <trkpt lat="42.95813" lon="0.84217">
        <ele>1531.5</ele>
        <time>2019-08-17T10:38:57Z</time>
      </trkpt>
      <trkpt lat="42.95814" lon="0.84216">
        <ele>1531.6</ele>
        <time>2019-08-17T10:38:58Z</time>
      </trkpt>
      <trkpt lat="42.95814" lon="0.84215">
        <ele>1531.8</ele>
        <time>2019-08-17T10:38:59Z</time>
      </trkpt>
      <trkpt lat="42.95814" lon="0.84214">
        <ele>1531.9</ele>
        <time>2019-08-17T10:39:00Z</time>
      </trkpt>
      <trkpt lat="42.95814" lon="0.84213">
        <ele>1532.1</ele>
        <time>2019-08-17T10:39:01Z</time>
      </trkpt>
      <trkpt lat="42.95814" lon="0.84211">
        <ele>1532.3</ele>
        <time>2019-08-17T10:39:02Z</time>
      </trkpt>
      <trkpt lat="42.95814" lon="0.8421">
        <ele>1532.4</ele>
        <time>2019-08-17T10:39:03Z</time>
      </trkpt>
      <trkpt lat="42.95813" lon="0.84209">
        <ele>1532.6</ele>
        <time>2019-08-17T10:39:04Z</time>
      </trkpt>
      <trkpt lat="42.95813" lon="0.84208">
        <ele>1532.8</ele>
        <time>2019-08-17T10:39:05Z</time>
      </trkpt>
      <trkpt lat="42.95813" lon="0.84207">
        <ele>1533.1</ele>
        <time>2019-08-17T10:39:06Z</time>
      </trkpt>
      <trkpt lat="42.95812" lon="0.84206">
        <ele>1533.3</ele>
        <time>2019-08-17T10:39:07Z</time>
      </trkpt>
      <trkpt lat="42.95812" lon="0.84205">
        <ele>1533.5</ele>
        <time>2019-08-17T10:39:08Z</time>
      </trkpt>
      <trkpt lat="42.95812" lon="0.84203">
        <ele>1533.7</ele>
        <time>2019-08-17T10:39:09Z</time>
      </trkpt>
      <trkpt lat="42.95812" lon="0.84202">
        <ele>1533.9</ele>
        <time>2019-08-17T10:39:10Z</time>
      </trkpt>
      <trkpt lat="42.95812" lon="0.84201">
        <ele>1534.1</ele>
        <time>2019-08-17T10:39:11Z</time>
      </trkpt>
      <trkpt lat="42.95812" lon="0.842">
        <ele>1534.3</ele>
        <time>2019-08-17T10:39:12Z</time>
      </trkpt>
      <trkpt lat="42.95812" lon="0.84199">
        <ele>1534.5</ele>
        <time>2019-08-17T10:39:13Z</time>
      </trkpt>
      <trkpt lat="42.95812" lon="0.84198">
        <ele>1534.6</ele>
        <time>2019-08-17T10:39:14Z</time>
      </trkpt>
      <trkpt lat="42.95813" lon="0.84197">
        <ele>1534.9</ele>
        <time>2019-08-17T10:39:15Z</time>
      </trkpt>
      <trkpt lat="42.95813" lon="0.84196">
        <ele>1535.1</ele>
        <time>2019-08-17T10:39:16Z</time>
      </trkpt>
      <trkpt lat="42.95814" lon="0.84195">
        <ele>1535.3</ele>
        <time>2019-08-17T10:39:17Z</time>
      </trkpt>
      <trkpt lat="42.95814" lon="0.84194">
        <ele>1535.5</ele>
        <time>2019-08-17T10:39:18Z</time>
      </trkpt>
      <trkpt lat="42.95815" lon="0.84194">
        <ele>1535.7</ele>
        <time>2019-08-17T10:39:19Z</time>
      </trkpt>
      <trkpt lat="42.95815" lon="0.84193">
        <ele>1535.9</ele>
        <time>2019-08-17T10:39:20Z</time>
      </trkpt>
      <trkpt lat="42.95815" lon="0.84192">
        <ele>1536</ele>
        <time>2019-08-17T10:39:21Z</time>
      </trkpt>
      <trkpt lat="42.95816" lon="0.84191">
        <ele>1536.2</ele>
        <time>2019-08-17T10:39:22Z</time>
      </trkpt>
      <trkpt lat="42.95816" lon="0.8419">
        <ele>1536.4</ele>
        <time>2019-08-17T10:39:23Z</time>
      </trkpt>
      <trkpt lat="42.95816" lon="0.84189">
        <ele>1536.6</ele>
        <time>2019-08-17T10:39:24Z</time>
      </trkpt>
      <trkpt lat="42.95816" lon="0.84189">
        <ele>1536.7</ele>
        <time>2019-08-17T10:39:25Z</time>
      </trkpt>
      <trkpt lat="42.95817" lon="0.84188">
        <ele>1536.8</ele>
        <time>2019-08-17T10:39:26Z</time>
      </trkpt>
      <trkpt lat="42.95817" lon="0.84187">
        <ele>1537</ele>
        <time>2019-08-17T10:39:27Z</time>
      </trkpt>
      <trkpt lat="42.95817" lon="0.84186">
        <ele>1537.1</ele>
        <time>2019-08-17T10:39:28Z</time>
      </trkpt>
      <trkpt lat="42.95817" lon="0.84185">
        <ele>1537.3</ele>
        <time>2019-08-17T10:39:29Z</time>
      </trkpt>
      <trkpt lat="42.95817" lon="0.84184">
        <ele>1537.4</ele>
        <time>2019-08-17T10:39:30Z</time>
      </trkpt>
      <trkpt lat="42.95818" lon="0.84184">
        <ele>1537.5</ele>
        <time>2019-08-17T10:39:31Z</time>
      </trkpt>
      <trkpt lat="42.95818" lon="0.84183">
        <ele>1537.7</ele>
        <time>2019-08-17T10:39:32Z</time>
      </trkpt>
      <trkpt lat="42.95818" lon="0.84182">
        <ele>1537.8</ele>
        <time>2019-08-17T10:39:33Z</time>
      </trkpt>
      <trkpt lat="42.95818" lon="0.84181">
        <ele>1538</ele>
        <time>2019-08-17T10:39:34Z</time>
      </trkpt>
      <trkpt lat="42.95819" lon="0.8418">
        <ele>1538.1</ele>
        <time>2019-08-17T10:39:35Z</time>
      </trkpt>
      <trkpt lat="42.95819" lon="0.84179">
        <ele>1538.3</ele>
        <time>2019-08-17T10:39:36Z</time>
      </trkpt>
      <trkpt lat="42.95819" lon="0.84178">
        <ele>1538.5</ele>
        <time>2019-08-17T10:39:37Z</time>
      </trkpt>
      <trkpt lat="42.95819" lon="0.84177">
        <ele>1538.7</ele>
        <time>2019-08-17T10:39:38Z</time>
      </trkpt>
      <trkpt lat="42.95819" lon="0.84177">
        <ele>1538.8</ele>
        <time>2019-08-17T10:39:39Z</time>
      </trkpt>
      <trkpt lat="42.95819" lon="0.84177">
        <ele>1538.8</ele>
        <time>2019-08-17T10:39:40Z</time>
      </trkpt>
      <trkpt lat="42.95819" lon="0.84176">
        <ele>1538.9</ele>
        <time>2019-08-17T10:39:41Z</time>
      </trkpt>
      <trkpt lat="42.95819" lon="0.84175">
        <ele>1539.2</ele>
        <time>2019-08-17T10:39:42Z</time>
      </trkpt>
      <trkpt lat="42.95819" lon="0.84174">
        <ele>1539.4</ele>
        <time>2019-08-17T10:39:43Z</time>
      </trkpt>
      <trkpt lat="42.95819" lon="0.84173">
        <ele>1539.6</ele>
        <time>2019-08-17T10:39:44Z</time>
      </trkpt>
      <trkpt lat="42.95819" lon="0.84172">
        <ele>1539.9</ele>
        <time>2019-08-17T10:39:45Z</time>
      </trkpt>
      <trkpt lat="42.95818" lon="0.84171">
        <ele>1540.1</ele>
        <time>2019-08-17T10:39:46Z</time>
      </trkpt>
      <trkpt lat="42.95818" lon="0.8417">
        <ele>1540.3</ele>
        <time>2019-08-17T10:39:47Z</time>
      </trkpt>
      <trkpt lat="42.95818" lon="0.84169">
        <ele>1540.6</ele>
        <time>2019-08-17T10:39:48Z</time>
      </trkpt>
      <trkpt lat="42.95818" lon="0.84168">
        <ele>1540.8</ele>
        <time>2019-08-17T10:39:49Z</time>
      </trkpt>
      <trkpt lat="42.95818" lon="0.84167">
        <ele>1541.1</ele>
        <time>2019-08-17T10:39:50Z</time>
      </trkpt>
      <trkpt lat="42.95818" lon="0.84166">
        <ele>1541.3</ele>
        <time>2019-08-17T10:39:51Z</time>
      </trkpt>
      <trkpt lat="42.95817" lon="0.84165">
        <ele>1541.6</ele>
        <time>2019-08-17T10:39:52Z</time>
      </trkpt>
      <trkpt lat="42.95817" lon="0.84164">
        <ele>1541.8</ele>
        <time>2019-08-17T10:39:53Z</time>
      </trkpt>
      <trkpt lat="42.95817" lon="0.84163">
        <ele>1542</ele>
        <time>2019-08-17T10:39:54Z</time>
      </trkpt>
      <trkpt lat="42.95817" lon="0.84162">
        <ele>1542.2</ele>
        <time>2019-08-17T10:39:55Z</time>
      </trkpt>
      <trkpt lat="42.95816" lon="0.84161">
        <ele>1542.4</ele>
        <time>2019-08-17T10:39:56Z</time>
      </trkpt>
      <trkpt lat="42.95816" lon="0.8416">
        <ele>1542.7</ele>
        <time>2019-08-17T10:39:57Z</time>
      </trkpt>
      <trkpt lat="42.95816" lon="0.84159">
        <ele>1542.9</ele>
        <time>2019-08-17T10:39:58Z</time>
      </trkpt>
      <trkpt lat="42.95815" lon="0.84158">
        <ele>1543.1</ele>
        <time>2019-08-17T10:39:59Z</time>
      </trkpt>
      <trkpt lat="42.95815" lon="0.84157">
        <ele>1543.3</ele>
        <time>2019-08-17T10:40:00Z</time>
      </trkpt>
      <trkpt lat="42.95815" lon="0.84156">
        <ele>1543.5</ele>
        <time>2019-08-17T10:40:01Z</time>
      </trkpt>
      <trkpt lat="42.95815" lon="0.84155">
        <ele>1543.6</ele>
        <time>2019-08-17T10:40:02Z</time>
      </trkpt>
      <trkpt lat="42.95815" lon="0.84154">
        <ele>1543.9</ele>
        <time>2019-08-17T10:40:03Z</time>
      </trkpt>
      <trkpt lat="42.95815" lon="0.84153">
        <ele>1544.2</ele>
        <time>2019-08-17T10:40:04Z</time>
      </trkpt>
      <trkpt lat="42.95814" lon="0.84152">
        <ele>1544.4</ele>
        <time>2019-08-17T10:40:05Z</time>
      </trkpt>
      <trkpt lat="42.95814" lon="0.84151">
        <ele>1544.7</ele>
        <time>2019-08-17T10:40:06Z</time>
      </trkpt>
      <trkpt lat="42.95814" lon="0.84151">
        <ele>1544.9</ele>
        <time>2019-08-17T10:40:07Z</time>
      </trkpt>
      <trkpt lat="42.95814" lon="0.8415">
        <ele>1545.2</ele>
        <time>2019-08-17T10:40:08Z</time>
      </trkpt>
      <trkpt lat="42.95814" lon="0.84148">
        <ele>1545.5</ele>
        <time>2019-08-17T10:40:09Z</time>
      </trkpt>
      <trkpt lat="42.95814" lon="0.84147">
        <ele>1545.7</ele>
        <time>2019-08-17T10:40:10Z</time>
      </trkpt>
      <trkpt lat="42.95813" lon="0.84146">
        <ele>1545.9</ele>
        <time>2019-08-17T10:40:11Z</time>
      </trkpt>
      <trkpt lat="42.95813" lon="0.84145">
        <ele>1546.2</ele>
        <time>2019-08-17T10:40:12Z</time>
      </trkpt>
      <trkpt lat="42.95813" lon="0.84144">
        <ele>1546.4</ele>
        <time>2019-08-17T10:40:13Z</time>
      </trkpt>
      <trkpt lat="42.95814" lon="0.84144">
        <ele>1546.6</ele>
        <time>2019-08-17T10:40:14Z</time>
      </trkpt>
      <trkpt lat="42.95814" lon="0.84143">
        <ele>1546.9</ele>
        <time>2019-08-17T10:40:15Z</time>
      </trkpt>
      <trkpt lat="42.95814" lon="0.84142">
        <ele>1547</ele>
        <time>2019-08-17T10:40:16Z</time>
      </trkpt>
      <trkpt lat="42.95815" lon="0.84142">
        <ele>1547.2</ele>
        <time>2019-08-17T10:40:17Z</time>
      </trkpt>
      <trkpt lat="42.95815" lon="0.84141">
        <ele>1547.3</ele>
        <time>2019-08-17T10:40:18Z</time>
      </trkpt>
      <trkpt lat="42.95815" lon="0.84141">
        <ele>1547.3</ele>
        <time>2019-08-17T10:40:19Z</time>
      </trkpt>
      <trkpt lat="42.95815" lon="0.84141">
        <ele>1547.4</ele>
        <time>2019-08-17T10:40:20Z</time>
      </trkpt>
      <trkpt lat="42.95815" lon="0.84141">
        <ele>1547.4</ele>
        <time>2019-08-17T10:40:21Z</time>
      </trkpt>
      <trkpt lat="42.95815" lon="0.84141">
        <ele>1547.4</ele>
        <time>2019-08-17T10:40:22Z</time>
      </trkpt>
      <trkpt lat="42.95815" lon="0.84141">
        <ele>1547.5</ele>
        <time>2019-08-17T10:40:23Z</time>
      </trkpt>
      <trkpt lat="42.95815" lon="0.84141">
        <ele>1547.5</ele>
        <time>2019-08-17T10:40:24Z</time>
      </trkpt>
      <trkpt lat="42.95815" lon="0.84141">
        <ele>1547.5</ele>
        <time>2019-08-17T10:40:25Z</time>
      </trkpt>
      <trkpt lat="42.95815" lon="0.84141">
        <ele>1547.5</ele>
        <time>2019-08-17T10:40:26Z</time>
      </trkpt>
      <trkpt lat="42.95815" lon="0.84141">
        <ele>1547.5</ele>
        <time>2019-08-17T10:40:27Z</time>
      </trkpt>
      <trkpt lat="42.95815" lon="0.84141">
        <ele>1547.5</ele>
        <time>2019-08-17T10:40:28Z</time>
      </trkpt>
      <trkpt lat="42.95815" lon="0.84141">
        <ele>1547.5</ele>
        <time>2019-08-17T10:40:29Z</time>
      </trkpt>
      <trkpt lat="42.95815" lon="0.84141">
        <ele>1547.5</ele>
        <time>2019-08-17T10:40:30Z</time>
      </trkpt>
      <trkpt lat="42.95815" lon="0.84141">
        <ele>1547.5</ele>
        <time>2019-08-17T10:40:31Z</time>
      </trkpt>
      <trkpt lat="42.95815" lon="0.84141">
        <ele>1547.5</ele>
        <time>2019-08-17T10:40:32Z</time>
      </trkpt>
      <trkpt lat="42.95815" lon="0.84141">
        <ele>1547.5</ele>
        <time>2019-08-17T10:40:33Z</time>
      </trkpt>
      <trkpt lat="42.95815" lon="0.84141">
        <ele>1547.5</ele>
        <time>2019-08-17T10:40:34Z</time>
      </trkpt>
      <trkpt lat="42.95815" lon="0.84141">
        <ele>1547.5</ele>
        <time>2019-08-17T10:40:35Z</time>
      </trkpt>
      <trkpt lat="42.95815" lon="0.84141">
        <ele>1547.5</ele>
        <time>2019-08-17T10:40:36Z</time>
      </trkpt>
      <trkpt lat="42.95815" lon="0.84141">
        <ele>1547.5</ele>
        <time>2019-08-17T10:40:37Z</time>
      </trkpt>
      <trkpt lat="42.95815" lon="0.84141">
        <ele>1547.5</ele>
        <time>2019-08-17T10:40:38Z</time>
      </trkpt>
      <trkpt lat="42.95815" lon="0.84141">
        <ele>1547.5</ele>
        <time>2019-08-17T10:40:39Z</time>
      </trkpt>
      <trkpt lat="42.95815" lon="0.84141">
        <ele>1547.5</ele>
        <time>2019-08-17T10:40:40Z</time>
      </trkpt>
      <trkpt lat="42.95815" lon="0.84141">
        <ele>1547.5</ele>
        <time>2019-08-17T10:40:41Z</time>
      </trkpt>
      <trkpt lat="42.95815" lon="0.84141">
        <ele>1547.5</ele>
        <time>2019-08-17T10:40:42Z</time>
      </trkpt>
      <trkpt lat="42.95815" lon="0.84141">
        <ele>1547.5</ele>
        <time>2019-08-17T10:40:43Z</time>
      </trkpt>
      <trkpt lat="42.95815" lon="0.84141">
        <ele>1547.5</ele>
        <time>2019-08-17T10:40:44Z</time>
      </trkpt>
      <trkpt lat="42.95815" lon="0.84141">
        <ele>1547.5</ele>
        <time>2019-08-17T10:40:45Z</time>
      </trkpt>
      <trkpt lat="42.95815" lon="0.84141">
        <ele>1547.5</ele>
        <time>2019-08-17T10:40:46Z</time>
      </trkpt>
      <trkpt lat="42.95815" lon="0.84141">
        <ele>1547.5</ele>
        <time>2019-08-17T10:40:47Z</time>
      </trkpt>
      <trkpt lat="42.95815" lon="0.84141">
        <ele>1547.5</ele>
        <time>2019-08-17T10:40:48Z</time>
      </trkpt>
      <trkpt lat="42.95815" lon="0.84141">
        <ele>1547.5</ele>
        <time>2019-08-17T10:40:49Z</time>
      </trkpt>
      <trkpt lat="42.95815" lon="0.84141">
        <ele>1547.5</ele>
        <time>2019-08-17T10:40:50Z</time>
      </trkpt>
      <trkpt lat="42.95815" lon="0.84141">
        <ele>1547.5</ele>
        <time>2019-08-17T10:40:51Z</time>
      </trkpt>
      <trkpt lat="42.95815" lon="0.84141">
        <ele>1547.5</ele>
        <time>2019-08-17T10:40:52Z</time>
      </trkpt>
      <trkpt lat="42.95815" lon="0.84141">
        <ele>1547.5</ele>
        <time>2019-08-17T10:40:53Z</time>
      </trkpt>
      <trkpt lat="42.95815" lon="0.84141">
        <ele>1547.5</ele>
        <time>2019-08-17T10:40:54Z</time>
      </trkpt>
      <trkpt lat="42.95815" lon="0.84141">
        <ele>1547.5</ele>
        <time>2019-08-17T10:40:55Z</time>
      </trkpt>
      <trkpt lat="42.95815" lon="0.84141">
        <ele>1547.5</ele>
        <time>2019-08-17T10:40:56Z</time>
      </trkpt>
      <trkpt lat="42.95815" lon="0.84141">
        <ele>1547.5</ele>
        <time>2019-08-17T10:40:57Z</time>
      </trkpt>
      <trkpt lat="42.95815" lon="0.84141">
        <ele>1547.5</ele>
        <time>2019-08-17T10:40:58Z</time>
      </trkpt>
      <trkpt lat="42.95815" lon="0.84141">
        <ele>1547.5</ele>
        <time>2019-08-17T10:40:59Z</time>
      </trkpt>
      <trkpt lat="42.95815" lon="0.84141">
        <ele>1547.5</ele>
        <time>2019-08-17T10:41:00Z</time>
      </trkpt>
      <trkpt lat="42.95815" lon="0.84141">
        <ele>1547.5</ele>
        <time>2019-08-17T10:41:01Z</time>
      </trkpt>
      <trkpt lat="42.95815" lon="0.84141">
        <ele>1547.5</ele>
        <time>2019-08-17T10:41:02Z</time>
      </trkpt>
      <trkpt lat="42.95815" lon="0.84141">
        <ele>1547.5</ele>
        <time>2019-08-17T10:41:03Z</time>
      </trkpt>
      <trkpt lat="42.95815" lon="0.84141">
        <ele>1547.5</ele>
        <time>2019-08-17T10:41:04Z</time>
      </trkpt>
      <trkpt lat="42.95815" lon="0.84141">
        <ele>1547.5</ele>
        <time>2019-08-17T10:41:05Z</time>
      </trkpt>
      <trkpt lat="42.95815" lon="0.84141">
        <ele>1547.5</ele>
        <time>2019-08-17T10:41:06Z</time>
      </trkpt>
      <trkpt lat="42.95815" lon="0.84141">
        <ele>1547.5</ele>
        <time>2019-08-17T10:41:07Z</time>
      </trkpt>
      <trkpt lat="42.95815" lon="0.84141">
        <ele>1547.5</ele>
        <time>2019-08-17T10:41:08Z</time>
      </trkpt>
      <trkpt lat="42.95815" lon="0.84141">
        <ele>1547.5</ele>
        <time>2019-08-17T10:41:09Z</time>
      </trkpt>
      <trkpt lat="42.95815" lon="0.84141">
        <ele>1547.5</ele>
        <time>2019-08-17T10:41:10Z</time>
      </trkpt>
      <trkpt lat="42.95815" lon="0.84141">
        <ele>1547.5</ele>
        <time>2019-08-17T10:41:11Z</time>
      </trkpt>
      <trkpt lat="42.95815" lon="0.84141">
        <ele>1547.5</ele>
        <time>2019-08-17T10:41:12Z</time>
      </trkpt>
      <trkpt lat="42.95815" lon="0.84141">
        <ele>1547.5</ele>
        <time>2019-08-17T10:41:13Z</time>
      </trkpt>
      <trkpt lat="42.95815" lon="0.84141">
        <ele>1547.5</ele>
        <time>2019-08-17T10:41:14Z</time>
      </trkpt>
      <trkpt lat="42.95815" lon="0.84141">
        <ele>1547.5</ele>
        <time>2019-08-17T10:41:15Z</time>
      </trkpt>
      <trkpt lat="42.95815" lon="0.84141">
        <ele>1547.5</ele>
        <time>2019-08-17T10:41:16Z</time>
      </trkpt>
      <trkpt lat="42.95815" lon="0.84141">
        <ele>1547.5</ele>
        <time>2019-08-17T10:41:17Z</time>
      </trkpt>
      <trkpt lat="42.95815" lon="0.84141">
        <ele>1547.5</ele>
        <time>2019-08-17T10:41:18Z</time>
      </trkpt>
      <trkpt lat="42.95815" lon="0.84141">
        <ele>1547.5</ele>
        <time>2019-08-17T10:41:19Z</time>
      </trkpt>
      <trkpt lat="42.95815" lon="0.84141">
        <ele>1547.5</ele>
        <time>2019-08-17T10:41:20Z</time>
      </trkpt>
      <trkpt lat="42.95815" lon="0.84141">
        <ele>1547.5</ele>
        <time>2019-08-17T10:41:21Z</time>
      </trkpt>
      <trkpt lat="42.95815" lon="0.84141">
        <ele>1547.5</ele>
        <time>2019-08-17T10:41:22Z</time>
      </trkpt>
      <trkpt lat="42.95815" lon="0.84141">
        <ele>1547.5</ele>
        <time>2019-08-17T10:41:23Z</time>
      </trkpt>
      <trkpt lat="42.95815" lon="0.84141">
        <ele>1547.5</ele>
        <time>2019-08-17T10:41:24Z</time>
      </trkpt>
      <trkpt lat="42.95815" lon="0.84141">
        <ele>1547.5</ele>
        <time>2019-08-17T10:41:25Z</time>
      </trkpt>
      <trkpt lat="42.95815" lon="0.84141">
        <ele>1547.5</ele>
        <time>2019-08-17T10:41:26Z</time>
      </trkpt>
      <trkpt lat="42.95815" lon="0.84141">
        <ele>1547.5</ele>
        <time>2019-08-17T10:41:27Z</time>
      </trkpt>
      <trkpt lat="42.95815" lon="0.84141">
        <ele>1547.5</ele>
        <time>2019-08-17T10:41:28Z</time>
      </trkpt>
      <trkpt lat="42.95815" lon="0.84141">
        <ele>1547.5</ele>
        <time>2019-08-17T10:41:29Z</time>
      </trkpt>
      <trkpt lat="42.95815" lon="0.84141">
        <ele>1547.5</ele>
        <time>2019-08-17T10:41:30Z</time>
      </trkpt>
      <trkpt lat="42.95815" lon="0.84141">
        <ele>1547.5</ele>
        <time>2019-08-17T10:41:31Z</time>
      </trkpt>
      <trkpt lat="42.95815" lon="0.84141">
        <ele>1547.5</ele>
        <time>2019-08-17T10:41:32Z</time>
      </trkpt>
      <trkpt lat="42.95815" lon="0.84141">
        <ele>1547.5</ele>
        <time>2019-08-17T10:41:33Z</time>
      </trkpt>
      <trkpt lat="42.95815" lon="0.84141">
        <ele>1547.5</ele>
        <time>2019-08-17T10:41:34Z</time>
      </trkpt>
      <trkpt lat="42.95815" lon="0.84141">
        <ele>1547.5</ele>
        <time>2019-08-17T10:41:35Z</time>
      </trkpt>
      <trkpt lat="42.95815" lon="0.84141">
        <ele>1547.5</ele>
        <time>2019-08-17T10:41:36Z</time>
      </trkpt>
      <trkpt lat="42.95815" lon="0.84141">
        <ele>1547.5</ele>
        <time>2019-08-17T10:41:37Z</time>
      </trkpt>
      <trkpt lat="42.95815" lon="0.84141">
        <ele>1547.5</ele>
        <time>2019-08-17T10:41:38Z</time>
      </trkpt>
      <trkpt lat="42.95815" lon="0.84141">
        <ele>1547.5</ele>
        <time>2019-08-17T10:41:39Z</time>
      </trkpt>
      <trkpt lat="42.95815" lon="0.84141">
        <ele>1547.5</ele>
        <time>2019-08-17T10:41:40Z</time>
      </trkpt>
      <trkpt lat="42.95816" lon="0.84141">
        <ele>1547.6</ele>
        <time>2019-08-17T10:41:41Z</time>
      </trkpt>
      <trkpt lat="42.95816" lon="0.84141">
        <ele>1547.6</ele>
        <time>2019-08-17T10:41:42Z</time>
      </trkpt>
      <trkpt lat="42.95816" lon="0.8414">
        <ele>1547.6</ele>
        <time>2019-08-17T10:41:43Z</time>
      </trkpt>
      <trkpt lat="42.95816" lon="0.8414">
        <ele>1547.6</ele>
        <time>2019-08-17T10:41:44Z</time>
      </trkpt>
      <trkpt lat="42.95816" lon="0.8414">
        <ele>1547.7</ele>
        <time>2019-08-17T10:41:45Z</time>
      </trkpt>
      <trkpt lat="42.95816" lon="0.8414">
        <ele>1547.7</ele>
        <time>2019-08-17T10:41:46Z</time>
      </trkpt>
      <trkpt lat="42.95816" lon="0.8414">
        <ele>1547.7</ele>
        <time>2019-08-17T10:41:47Z</time>
      </trkpt>
      <trkpt lat="42.95816" lon="0.8414">
        <ele>1547.8</ele>
        <time>2019-08-17T10:41:48Z</time>
      </trkpt>
      <trkpt lat="42.95816" lon="0.8414">
        <ele>1547.8</ele>
        <time>2019-08-17T10:41:49Z</time>
      </trkpt>
      <trkpt lat="42.95816" lon="0.8414">
        <ele>1547.9</ele>
        <time>2019-08-17T10:41:50Z</time>
      </trkpt>
      <trkpt lat="42.95817" lon="0.8414">
        <ele>1548</ele>
        <time>2019-08-17T10:41:51Z</time>
      </trkpt>
      <trkpt lat="42.95817" lon="0.8414">
        <ele>1548.1</ele>
        <time>2019-08-17T10:41:52Z</time>
      </trkpt>
      <trkpt lat="42.95817" lon="0.84139">
        <ele>1548.2</ele>
        <time>2019-08-17T10:41:53Z</time>
      </trkpt>
      <trkpt lat="42.95818" lon="0.84139">
        <ele>1548.6</ele>
        <time>2019-08-17T10:41:54Z</time>
      </trkpt>
      <trkpt lat="42.95819" lon="0.84138">
        <ele>1548.9</ele>
        <time>2019-08-17T10:41:55Z</time>
      </trkpt>
      <trkpt lat="42.9582" lon="0.84138">
        <ele>1549.2</ele>
        <time>2019-08-17T10:41:56Z</time>
      </trkpt>
      <trkpt lat="42.95821" lon="0.84137">
        <ele>1549.5</ele>
        <time>2019-08-17T10:41:57Z</time>
      </trkpt>
      <trkpt lat="42.95822" lon="0.84137">
        <ele>1549.8</ele>
        <time>2019-08-17T10:41:58Z</time>
      </trkpt>
      <trkpt lat="42.95823" lon="0.84136">
        <ele>1550</ele>
        <time>2019-08-17T10:41:59Z</time>
      </trkpt>
      <trkpt lat="42.95823" lon="0.84136">
        <ele>1550.2</ele>
        <time>2019-08-17T10:42:00Z</time>
      </trkpt>
      <trkpt lat="42.95824" lon="0.84135">
        <ele>1550.5</ele>
        <time>2019-08-17T10:42:01Z</time>
      </trkpt>
      <trkpt lat="42.95825" lon="0.84135">
        <ele>1550.7</ele>
        <time>2019-08-17T10:42:02Z</time>
      </trkpt>
      <trkpt lat="42.95826" lon="0.84134">
        <ele>1551</ele>
        <time>2019-08-17T10:42:03Z</time>
      </trkpt>
      <trkpt lat="42.95826" lon="0.84134">
        <ele>1551.2</ele>
        <time>2019-08-17T10:42:04Z</time>
      </trkpt>
      <trkpt lat="42.95827" lon="0.84134">
        <ele>1551.4</ele>
        <time>2019-08-17T10:42:05Z</time>
      </trkpt>
      <trkpt lat="42.95828" lon="0.84133">
        <ele>1551.6</ele>
        <time>2019-08-17T10:42:06Z</time>
      </trkpt>
      <trkpt lat="42.95828" lon="0.84133">
        <ele>1551.8</ele>
        <time>2019-08-17T10:42:07Z</time>
      </trkpt>
      <trkpt lat="42.95829" lon="0.84133">
        <ele>1552.1</ele>
        <time>2019-08-17T10:42:08Z</time>
      </trkpt>
      <trkpt lat="42.9583" lon="0.84133">
        <ele>1552.3</ele>
        <time>2019-08-17T10:42:09Z</time>
      </trkpt>
      <trkpt lat="42.95831" lon="0.84132">
        <ele>1552.5</ele>
        <time>2019-08-17T10:42:10Z</time>
      </trkpt>
      <trkpt lat="42.95831" lon="0.84132">
        <ele>1552.7</ele>
        <time>2019-08-17T10:42:11Z</time>
      </trkpt>
      <trkpt lat="42.95832" lon="0.84132">
        <ele>1552.9</ele>
        <time>2019-08-17T10:42:12Z</time>
      </trkpt>
      <trkpt lat="42.95833" lon="0.84132">
        <ele>1553.1</ele>
        <time>2019-08-17T10:42:13Z</time>
      </trkpt>
      <trkpt lat="42.95834" lon="0.84132">
        <ele>1553.3</ele>
        <time>2019-08-17T10:42:14Z</time>
      </trkpt>
      <trkpt lat="42.95834" lon="0.84132">
        <ele>1553.5</ele>
        <time>2019-08-17T10:42:15Z</time>
      </trkpt>
      <trkpt lat="42.95835" lon="0.84132">
        <ele>1553.7</ele>
        <time>2019-08-17T10:42:16Z</time>
      </trkpt>
      <trkpt lat="42.95836" lon="0.84132">
        <ele>1553.9</ele>
        <time>2019-08-17T10:42:17Z</time>
      </trkpt>
      <trkpt lat="42.95836" lon="0.84132">
        <ele>1554.1</ele>
        <time>2019-08-17T10:42:18Z</time>
      </trkpt>
      <trkpt lat="42.95837" lon="0.84132">
        <ele>1554.3</ele>
        <time>2019-08-17T10:42:19Z</time>
      </trkpt>
      <trkpt lat="42.95838" lon="0.84132">
        <ele>1554.5</ele>
        <time>2019-08-17T10:42:20Z</time>
      </trkpt>
      <trkpt lat="42.95839" lon="0.84132">
        <ele>1554.7</ele>
        <time>2019-08-17T10:42:21Z</time>
      </trkpt>
      <trkpt lat="42.95839" lon="0.84132">
        <ele>1554.9</ele>
        <time>2019-08-17T10:42:22Z</time>
      </trkpt>
      <trkpt lat="42.9584" lon="0.84132">
        <ele>1555.1</ele>
        <time>2019-08-17T10:42:23Z</time>
      </trkpt>
      <trkpt lat="42.95841" lon="0.84132">
        <ele>1555.3</ele>
        <time>2019-08-17T10:42:24Z</time>
      </trkpt>
      <trkpt lat="42.95842" lon="0.84131">
        <ele>1555.5</ele>
        <time>2019-08-17T10:42:25Z</time>
      </trkpt>
      <trkpt lat="42.95843" lon="0.84131">
        <ele>1555.7</ele>
        <time>2019-08-17T10:42:26Z</time>
      </trkpt>
      <trkpt lat="42.95843" lon="0.84131">
        <ele>1555.9</ele>
        <time>2019-08-17T10:42:27Z</time>
      </trkpt>
      <trkpt lat="42.95844" lon="0.84131">
        <ele>1556.1</ele>
        <time>2019-08-17T10:42:28Z</time>
      </trkpt>
      <trkpt lat="42.95845" lon="0.84131">
        <ele>1556.3</ele>
        <time>2019-08-17T10:42:29Z</time>
      </trkpt>
      <trkpt lat="42.95846" lon="0.84131">
        <ele>1556.5</ele>
        <time>2019-08-17T10:42:30Z</time>
      </trkpt>
      <trkpt lat="42.95847" lon="0.84131">
        <ele>1556.7</ele>
        <time>2019-08-17T10:42:31Z</time>
      </trkpt>
      <trkpt lat="42.95848" lon="0.84131">
        <ele>1556.9</ele>
        <time>2019-08-17T10:42:32Z</time>
      </trkpt>
      <trkpt lat="42.95848" lon="0.84131">
        <ele>1557.2</ele>
        <time>2019-08-17T10:42:33Z</time>
      </trkpt>
      <trkpt lat="42.95849" lon="0.84131">
        <ele>1557.4</ele>
        <time>2019-08-17T10:42:34Z</time>
      </trkpt>
      <trkpt lat="42.9585" lon="0.84131">
        <ele>1557.6</ele>
        <time>2019-08-17T10:42:35Z</time>
      </trkpt>
      <trkpt lat="42.95851" lon="0.84131">
        <ele>1557.9</ele>
        <time>2019-08-17T10:42:36Z</time>
      </trkpt>
      <trkpt lat="42.95851" lon="0.84131">
        <ele>1558.1</ele>
        <time>2019-08-17T10:42:37Z</time>
      </trkpt>
      <trkpt lat="42.95852" lon="0.84131">
        <ele>1558.3</ele>
        <time>2019-08-17T10:42:38Z</time>
      </trkpt>
      <trkpt lat="42.95853" lon="0.84131">
        <ele>1558.5</ele>
        <time>2019-08-17T10:42:39Z</time>
      </trkpt>
      <trkpt lat="42.95853" lon="0.84131">
        <ele>1559.4</ele>
        <time>2019-08-17T10:42:40Z</time>
      </trkpt>
      <trkpt lat="42.95854" lon="0.84131">
        <ele>1559.6</ele>
        <time>2019-08-17T10:42:41Z</time>
      </trkpt>
      <trkpt lat="42.95855" lon="0.8413">
        <ele>1559.8</ele>
        <time>2019-08-17T10:42:42Z</time>
      </trkpt>
      <trkpt lat="42.95856" lon="0.8413">
        <ele>1560</ele>
        <time>2019-08-17T10:42:43Z</time>
      </trkpt>
      <trkpt lat="42.95857" lon="0.8413">
        <ele>1560.2</ele>
        <time>2019-08-17T10:42:44Z</time>
      </trkpt>
      <trkpt lat="42.95857" lon="0.8413">
        <ele>1560.3</ele>
        <time>2019-08-17T10:42:45Z</time>
      </trkpt>
      <trkpt lat="42.95858" lon="0.8413">
        <ele>1560.4</ele>
        <time>2019-08-17T10:42:46Z</time>
      </trkpt>
      <trkpt lat="42.95858" lon="0.84129">
        <ele>1560.5</ele>
        <time>2019-08-17T10:42:47Z</time>
      </trkpt>
      <trkpt lat="42.95858" lon="0.84129">
        <ele>1560.6</ele>
        <time>2019-08-17T10:42:48Z</time>
      </trkpt>
      <trkpt lat="42.95859" lon="0.84129">
        <ele>1560.7</ele>
        <time>2019-08-17T10:42:49Z</time>
      </trkpt>
      <trkpt lat="42.95859" lon="0.84129">
        <ele>1560.8</ele>
        <time>2019-08-17T10:42:50Z</time>
      </trkpt>
      <trkpt lat="42.9586" lon="0.84129">
        <ele>1561</ele>
        <time>2019-08-17T10:42:51Z</time>
      </trkpt>
      <trkpt lat="42.95861" lon="0.84128">
        <ele>1561.1</ele>
        <time>2019-08-17T10:42:52Z</time>
      </trkpt>
      <trkpt lat="42.95861" lon="0.84128">
        <ele>1561.3</ele>
        <time>2019-08-17T10:42:53Z</time>
      </trkpt>
      <trkpt lat="42.95862" lon="0.84127">
        <ele>1561.5</ele>
        <time>2019-08-17T10:42:54Z</time>
      </trkpt>
      <trkpt lat="42.95863" lon="0.84127">
        <ele>1561.6</ele>
        <time>2019-08-17T10:42:55Z</time>
      </trkpt>
      <trkpt lat="42.95864" lon="0.84127">
        <ele>1561.8</ele>
        <time>2019-08-17T10:42:56Z</time>
      </trkpt>
      <trkpt lat="42.95864" lon="0.84126">
        <ele>1561.9</ele>
        <time>2019-08-17T10:42:57Z</time>
      </trkpt>
      <trkpt lat="42.95865" lon="0.84126">
        <ele>1562.1</ele>
        <time>2019-08-17T10:42:58Z</time>
      </trkpt>
      <trkpt lat="42.95866" lon="0.84125">
        <ele>1562.3</ele>
        <time>2019-08-17T10:42:59Z</time>
      </trkpt>
      <trkpt lat="42.95866" lon="0.84125">
        <ele>1562.4</ele>
        <time>2019-08-17T10:43:00Z</time>
      </trkpt>
      <trkpt lat="42.95867" lon="0.84124">
        <ele>1562.6</ele>
        <time>2019-08-17T10:43:01Z</time>
      </trkpt>
      <trkpt lat="42.95868" lon="0.84124">
        <ele>1562.7</ele>
        <time>2019-08-17T10:43:02Z</time>
      </trkpt>
      <trkpt lat="42.95868" lon="0.84123">
        <ele>1562.9</ele>
        <time>2019-08-17T10:43:03Z</time>
      </trkpt>
      <trkpt lat="42.95869" lon="0.84123">
        <ele>1563</ele>
        <time>2019-08-17T10:43:04Z</time>
      </trkpt>
      <trkpt lat="42.9587" lon="0.84122">
        <ele>1563.1</ele>
        <time>2019-08-17T10:43:05Z</time>
      </trkpt>
      <trkpt lat="42.9587" lon="0.84122">
        <ele>1563.3</ele>
        <time>2019-08-17T10:43:06Z</time>
      </trkpt>
      <trkpt lat="42.95871" lon="0.84122">
        <ele>1563.4</ele>
        <time>2019-08-17T10:43:07Z</time>
      </trkpt>
      <trkpt lat="42.95872" lon="0.84122">
        <ele>1563.5</ele>
        <time>2019-08-17T10:43:08Z</time>
      </trkpt>
      <trkpt lat="42.95872" lon="0.84122">
        <ele>1563.6</ele>
        <time>2019-08-17T10:43:09Z</time>
      </trkpt>
      <trkpt lat="42.95873" lon="0.84121">
        <ele>1563.8</ele>
        <time>2019-08-17T10:43:10Z</time>
      </trkpt>
      <trkpt lat="42.95874" lon="0.84122">
        <ele>1563.9</ele>
        <time>2019-08-17T10:43:11Z</time>
      </trkpt>
      <trkpt lat="42.95874" lon="0.84122">
        <ele>1564.1</ele>
        <time>2019-08-17T10:43:12Z</time>
      </trkpt>
      <trkpt lat="42.95875" lon="0.84122">
        <ele>1564.2</ele>
        <time>2019-08-17T10:43:13Z</time>
      </trkpt>
      <trkpt lat="42.95876" lon="0.84122">
        <ele>1564.4</ele>
        <time>2019-08-17T10:43:14Z</time>
      </trkpt>
      <trkpt lat="42.95877" lon="0.84122">
        <ele>1564.6</ele>
        <time>2019-08-17T10:43:15Z</time>
      </trkpt>
      <trkpt lat="42.95877" lon="0.84122">
        <ele>1564.7</ele>
        <time>2019-08-17T10:43:16Z</time>
      </trkpt>
      <trkpt lat="42.95878" lon="0.84123">
        <ele>1564.9</ele>
        <time>2019-08-17T10:43:17Z</time>
      </trkpt>
      <trkpt lat="42.95879" lon="0.84123">
        <ele>1565</ele>
        <time>2019-08-17T10:43:18Z</time>
      </trkpt>
      <trkpt lat="42.95879" lon="0.84123">
        <ele>1565.1</ele>
        <time>2019-08-17T10:43:19Z</time>
      </trkpt>
      <trkpt lat="42.9588" lon="0.84123">
        <ele>1565.3</ele>
        <time>2019-08-17T10:43:20Z</time>
      </trkpt>
      <trkpt lat="42.9588" lon="0.84123">
        <ele>1565.3</ele>
        <time>2019-08-17T10:43:21Z</time>
      </trkpt>
      <trkpt lat="42.9588" lon="0.84123">
        <ele>1565.4</ele>
        <time>2019-08-17T10:43:22Z</time>
      </trkpt>
      <trkpt lat="42.9588" lon="0.84123">
        <ele>1565.4</ele>
        <time>2019-08-17T10:43:23Z</time>
      </trkpt>
      <trkpt lat="42.95881" lon="0.84123">
        <ele>1565.6</ele>
        <time>2019-08-17T10:43:24Z</time>
      </trkpt>
      <trkpt lat="42.95882" lon="0.84123">
        <ele>1565.7</ele>
        <time>2019-08-17T10:43:25Z</time>
      </trkpt>
      <trkpt lat="42.95882" lon="0.84123">
        <ele>1565.8</ele>
        <time>2019-08-17T10:43:26Z</time>
      </trkpt>
      <trkpt lat="42.95883" lon="0.84123">
        <ele>1565.9</ele>
        <time>2019-08-17T10:43:27Z</time>
      </trkpt>
      <trkpt lat="42.95884" lon="0.84123">
        <ele>1566</ele>
        <time>2019-08-17T10:43:28Z</time>
      </trkpt>
      <trkpt lat="42.95884" lon="0.84123">
        <ele>1566.1</ele>
        <time>2019-08-17T10:43:29Z</time>
      </trkpt>
      <trkpt lat="42.95885" lon="0.84123">
        <ele>1566.2</ele>
        <time>2019-08-17T10:43:30Z</time>
      </trkpt>
      <trkpt lat="42.95886" lon="0.84123">
        <ele>1566.2</ele>
        <time>2019-08-17T10:43:31Z</time>
      </trkpt>
      <trkpt lat="42.95886" lon="0.84123">
        <ele>1566.3</ele>
        <time>2019-08-17T10:43:32Z</time>
      </trkpt>
      <trkpt lat="42.95887" lon="0.84122">
        <ele>1566.4</ele>
        <time>2019-08-17T10:43:33Z</time>
      </trkpt>
      <trkpt lat="42.95887" lon="0.84122">
        <ele>1566.5</ele>
        <time>2019-08-17T10:43:34Z</time>
      </trkpt>
      <trkpt lat="42.95887" lon="0.84121">
        <ele>1566.5</ele>
        <time>2019-08-17T10:43:35Z</time>
      </trkpt>
      <trkpt lat="42.95888" lon="0.84121">
        <ele>1566.6</ele>
        <time>2019-08-17T10:43:36Z</time>
      </trkpt>
      <trkpt lat="42.95888" lon="0.84121">
        <ele>1566.6</ele>
        <time>2019-08-17T10:43:37Z</time>
      </trkpt>
      <trkpt lat="42.95888" lon="0.84121">
        <ele>1566.7</ele>
        <time>2019-08-17T10:43:38Z</time>
      </trkpt>
      <trkpt lat="42.95889" lon="0.8412">
        <ele>1566.8</ele>
        <time>2019-08-17T10:43:39Z</time>
      </trkpt>
      <trkpt lat="42.95889" lon="0.84119">
        <ele>1566.9</ele>
        <time>2019-08-17T10:43:40Z</time>
      </trkpt>
      <trkpt lat="42.9589" lon="0.84118">
        <ele>1567.1</ele>
        <time>2019-08-17T10:43:41Z</time>
      </trkpt>
      <trkpt lat="42.95891" lon="0.84118">
        <ele>1567.3</ele>
        <time>2019-08-17T10:43:42Z</time>
      </trkpt>
      <trkpt lat="42.95892" lon="0.84118">
        <ele>1567.5</ele>
        <time>2019-08-17T10:43:43Z</time>
      </trkpt>
      <trkpt lat="42.95893" lon="0.84118">
        <ele>1567.6</ele>
        <time>2019-08-17T10:43:44Z</time>
      </trkpt>
      <trkpt lat="42.95894" lon="0.84118">
        <ele>1567.8</ele>
        <time>2019-08-17T10:43:45Z</time>
      </trkpt>
      <trkpt lat="42.95894" lon="0.84118">
        <ele>1567.9</ele>
        <time>2019-08-17T10:43:46Z</time>
      </trkpt>
      <trkpt lat="42.95895" lon="0.84117">
        <ele>1568.1</ele>
        <time>2019-08-17T10:43:47Z</time>
      </trkpt>
      <trkpt lat="42.95896" lon="0.84117">
        <ele>1568.3</ele>
        <time>2019-08-17T10:43:48Z</time>
      </trkpt>
      <trkpt lat="42.95897" lon="0.84117">
        <ele>1568.3</ele>
        <time>2019-08-17T10:43:49Z</time>
      </trkpt>
      <trkpt lat="42.95898" lon="0.84117">
        <ele>1568.4</ele>
        <time>2019-08-17T10:43:50Z</time>
      </trkpt>
      <trkpt lat="42.95899" lon="0.84117">
        <ele>1568.4</ele>
        <time>2019-08-17T10:43:51Z</time>
      </trkpt>
      <trkpt lat="42.95899" lon="0.84117">
        <ele>1568.5</ele>
        <time>2019-08-17T10:43:52Z</time>
      </trkpt>
      <trkpt lat="42.959" lon="0.84116">
        <ele>1568.6</ele>
        <time>2019-08-17T10:43:53Z</time>
      </trkpt>
      <trkpt lat="42.95901" lon="0.84116">
        <ele>1568.6</ele>
        <time>2019-08-17T10:43:54Z</time>
      </trkpt>
      <trkpt lat="42.95901" lon="0.84116">
        <ele>1568.7</ele>
        <time>2019-08-17T10:43:55Z</time>
      </trkpt>
      <trkpt lat="42.95902" lon="0.84116">
        <ele>1568.7</ele>
        <time>2019-08-17T10:43:56Z</time>
      </trkpt>
      <trkpt lat="42.95903" lon="0.84116">
        <ele>1568.8</ele>
        <time>2019-08-17T10:43:57Z</time>
      </trkpt>
      <trkpt lat="42.95904" lon="0.84116">
        <ele>1568.8</ele>
        <time>2019-08-17T10:43:58Z</time>
      </trkpt>
      <trkpt lat="42.95904" lon="0.84117">
        <ele>1568.9</ele>
        <time>2019-08-17T10:43:59Z</time>
      </trkpt>
      <trkpt lat="42.95905" lon="0.84117">
        <ele>1568.9</ele>
        <time>2019-08-17T10:44:00Z</time>
      </trkpt>
      <trkpt lat="42.95906" lon="0.84117">
        <ele>1568.9</ele>
        <time>2019-08-17T10:44:01Z</time>
      </trkpt>
      <trkpt lat="42.95907" lon="0.84117">
        <ele>1569</ele>
        <time>2019-08-17T10:44:02Z</time>
      </trkpt>
      <trkpt lat="42.95907" lon="0.84117">
        <ele>1569</ele>
        <time>2019-08-17T10:44:03Z</time>
      </trkpt>
      <trkpt lat="42.95908" lon="0.84116">
        <ele>1569</ele>
        <time>2019-08-17T10:44:04Z</time>
      </trkpt>
      <trkpt lat="42.95909" lon="0.84116">
        <ele>1569.1</ele>
        <time>2019-08-17T10:44:05Z</time>
      </trkpt>
      <trkpt lat="42.9591" lon="0.84116">
        <ele>1569.1</ele>
        <time>2019-08-17T10:44:06Z</time>
      </trkpt>
      <trkpt lat="42.95911" lon="0.84116">
        <ele>1569.1</ele>
        <time>2019-08-17T10:44:07Z</time>
      </trkpt>
      <trkpt lat="42.95911" lon="0.84116">
        <ele>1569.2</ele>
        <time>2019-08-17T10:44:08Z</time>
      </trkpt>
      <trkpt lat="42.95912" lon="0.84116">
        <ele>1569.3</ele>
        <time>2019-08-17T10:44:09Z</time>
      </trkpt>
      <trkpt lat="42.95913" lon="0.84117">
        <ele>1569.3</ele>
        <time>2019-08-17T10:44:10Z</time>
      </trkpt>
      <trkpt lat="42.95914" lon="0.84117">
        <ele>1569.4</ele>
        <time>2019-08-17T10:44:11Z</time>
      </trkpt>
      <trkpt lat="42.95914" lon="0.84118">
        <ele>1569.4</ele>
        <time>2019-08-17T10:44:12Z</time>
      </trkpt>
      <trkpt lat="42.95915" lon="0.84118">
        <ele>1569.5</ele>
        <time>2019-08-17T10:44:13Z</time>
      </trkpt>
      <trkpt lat="42.95915" lon="0.84119">
        <ele>1569.6</ele>
        <time>2019-08-17T10:44:14Z</time>
      </trkpt>
      <trkpt lat="42.95916" lon="0.8412">
        <ele>1569.6</ele>
        <time>2019-08-17T10:44:15Z</time>
      </trkpt>
      <trkpt lat="42.95916" lon="0.84121">
        <ele>1569.7</ele>
        <time>2019-08-17T10:44:16Z</time>
      </trkpt>
      <trkpt lat="42.95916" lon="0.84121">
        <ele>1569.7</ele>
        <time>2019-08-17T10:44:17Z</time>
      </trkpt>
      <trkpt lat="42.95916" lon="0.84122">
        <ele>1569.7</ele>
        <time>2019-08-17T10:44:18Z</time>
      </trkpt>
      <trkpt lat="42.95916" lon="0.84122">
        <ele>1569.7</ele>
        <time>2019-08-17T10:44:19Z</time>
      </trkpt>
      <trkpt lat="42.95916" lon="0.84123">
        <ele>1569.7</ele>
        <time>2019-08-17T10:44:20Z</time>
      </trkpt>
      <trkpt lat="42.95916" lon="0.84123">
        <ele>1569.7</ele>
        <time>2019-08-17T10:44:21Z</time>
      </trkpt>
      <trkpt lat="42.95916" lon="0.84123">
        <ele>1569.7</ele>
        <time>2019-08-17T10:44:22Z</time>
      </trkpt>
      <trkpt lat="42.95916" lon="0.84123">
        <ele>1569.7</ele>
        <time>2019-08-17T10:44:23Z</time>
      </trkpt>
      <trkpt lat="42.95916" lon="0.84123">
        <ele>1569.7</ele>
        <time>2019-08-17T10:44:24Z</time>
      </trkpt>
      <trkpt lat="42.95916" lon="0.84122">
        <ele>1569.7</ele>
        <time>2019-08-17T10:44:25Z</time>
      </trkpt>
      <trkpt lat="42.95916" lon="0.84122">
        <ele>1569.7</ele>
        <time>2019-08-17T10:44:26Z</time>
      </trkpt>
      <trkpt lat="42.95916" lon="0.84122">
        <ele>1569.7</ele>
        <time>2019-08-17T10:44:27Z</time>
      </trkpt>
      <trkpt lat="42.95916" lon="0.84122">
        <ele>1569.7</ele>
        <time>2019-08-17T10:44:28Z</time>
      </trkpt>
      <trkpt lat="42.95916" lon="0.84122">
        <ele>1569.7</ele>
        <time>2019-08-17T10:44:29Z</time>
      </trkpt>
      <trkpt lat="42.95916" lon="0.84122">
        <ele>1569.7</ele>
        <time>2019-08-17T10:44:30Z</time>
      </trkpt>
      <trkpt lat="42.95916" lon="0.84122">
        <ele>1569.7</ele>
        <time>2019-08-17T10:44:31Z</time>
      </trkpt>
      <trkpt lat="42.95916" lon="0.84122">
        <ele>1569.7</ele>
        <time>2019-08-17T10:44:32Z</time>
      </trkpt>
      <trkpt lat="42.95916" lon="0.84122">
        <ele>1569.7</ele>
        <time>2019-08-17T10:44:33Z</time>
      </trkpt>
      <trkpt lat="42.95916" lon="0.84122">
        <ele>1569.7</ele>
        <time>2019-08-17T10:44:34Z</time>
      </trkpt>
      <trkpt lat="42.95916" lon="0.84122">
        <ele>1569.7</ele>
        <time>2019-08-17T10:44:35Z</time>
      </trkpt>
      <trkpt lat="42.95916" lon="0.84122">
        <ele>1569.7</ele>
        <time>2019-08-17T10:44:36Z</time>
      </trkpt>
      <trkpt lat="42.95916" lon="0.84122">
        <ele>1569.7</ele>
        <time>2019-08-17T10:44:37Z</time>
      </trkpt>
      <trkpt lat="42.95916" lon="0.84122">
        <ele>1569.7</ele>
        <time>2019-08-17T10:44:38Z</time>
      </trkpt>
      <trkpt lat="42.95916" lon="0.84122">
        <ele>1569.7</ele>
        <time>2019-08-17T10:44:39Z</time>
      </trkpt>
      <trkpt lat="42.95916" lon="0.84122">
        <ele>1569.7</ele>
        <time>2019-08-17T10:44:40Z</time>
      </trkpt>
      <trkpt lat="42.95916" lon="0.84122">
        <ele>1569.7</ele>
        <time>2019-08-17T10:44:41Z</time>
      </trkpt>
      <trkpt lat="42.95916" lon="0.84122">
        <ele>1569.7</ele>
        <time>2019-08-17T10:44:42Z</time>
      </trkpt>
      <trkpt lat="42.95916" lon="0.84122">
        <ele>1569.7</ele>
        <time>2019-08-17T10:44:43Z</time>
      </trkpt>
      <trkpt lat="42.95916" lon="0.84122">
        <ele>1569.7</ele>
        <time>2019-08-17T10:44:44Z</time>
      </trkpt>
      <trkpt lat="42.95916" lon="0.84122">
        <ele>1569.7</ele>
        <time>2019-08-17T10:44:45Z</time>
      </trkpt>
      <trkpt lat="42.95916" lon="0.84122">
        <ele>1569.7</ele>
        <time>2019-08-17T10:44:46Z</time>
      </trkpt>
      <trkpt lat="42.95916" lon="0.84122">
        <ele>1569.7</ele>
        <time>2019-08-17T10:44:47Z</time>
      </trkpt>
      <trkpt lat="42.95916" lon="0.84122">
        <ele>1569.7</ele>
        <time>2019-08-17T10:44:48Z</time>
      </trkpt>
      <trkpt lat="42.95916" lon="0.84122">
        <ele>1569.7</ele>
        <time>2019-08-17T10:44:49Z</time>
      </trkpt>
      <trkpt lat="42.95916" lon="0.84122">
        <ele>1569.7</ele>
        <time>2019-08-17T10:44:50Z</time>
      </trkpt>
      <trkpt lat="42.95916" lon="0.84122">
        <ele>1569.7</ele>
        <time>2019-08-17T10:44:51Z</time>
      </trkpt>
      <trkpt lat="42.95916" lon="0.84122">
        <ele>1569.7</ele>
        <time>2019-08-17T10:44:52Z</time>
      </trkpt>
      <trkpt lat="42.95916" lon="0.84122">
        <ele>1569.7</ele>
        <time>2019-08-17T10:44:53Z</time>
      </trkpt>
      <trkpt lat="42.95916" lon="0.84122">
        <ele>1569.7</ele>
        <time>2019-08-17T10:44:54Z</time>
      </trkpt>
      <trkpt lat="42.95916" lon="0.84122">
        <ele>1569.7</ele>
        <time>2019-08-17T10:44:55Z</time>
      </trkpt>
      <trkpt lat="42.95916" lon="0.84122">
        <ele>1569.7</ele>
        <time>2019-08-17T10:44:56Z</time>
      </trkpt>
      <trkpt lat="42.95916" lon="0.84122">
        <ele>1569.7</ele>
        <time>2019-08-17T10:44:57Z</time>
      </trkpt>
      <trkpt lat="42.95916" lon="0.84122">
        <ele>1569.7</ele>
        <time>2019-08-17T10:44:58Z</time>
      </trkpt>
      <trkpt lat="42.95916" lon="0.84122">
        <ele>1569.7</ele>
        <time>2019-08-17T10:44:59Z</time>
      </trkpt>
      <trkpt lat="42.95916" lon="0.84122">
        <ele>1569.7</ele>
        <time>2019-08-17T10:45:00Z</time>
      </trkpt>
      <trkpt lat="42.95916" lon="0.84122">
        <ele>1569.7</ele>
        <time>2019-08-17T10:45:01Z</time>
      </trkpt>
      <trkpt lat="42.95916" lon="0.84122">
        <ele>1569.7</ele>
        <time>2019-08-17T10:45:02Z</time>
      </trkpt>
      <trkpt lat="42.95916" lon="0.84122">
        <ele>1569.7</ele>
        <time>2019-08-17T10:45:03Z</time>
      </trkpt>
      <trkpt lat="42.95917" lon="0.84122">
        <ele>1569.7</ele>
        <time>2019-08-17T10:45:04Z</time>
      </trkpt>
      <trkpt lat="42.95918" lon="0.84122">
        <ele>1569.7</ele>
        <time>2019-08-17T10:45:05Z</time>
      </trkpt>
      <trkpt lat="42.95918" lon="0.84122">
        <ele>1569.7</ele>
        <time>2019-08-17T10:45:06Z</time>
      </trkpt>
      <trkpt lat="42.95919" lon="0.84121">
        <ele>1569.8</ele>
        <time>2019-08-17T10:45:07Z</time>
      </trkpt>
      <trkpt lat="42.95919" lon="0.84119">
        <ele>1569.8</ele>
        <time>2019-08-17T10:45:08Z</time>
      </trkpt>
      <trkpt lat="42.9592" lon="0.84118">
        <ele>1569.8</ele>
        <time>2019-08-17T10:45:09Z</time>
      </trkpt>
      <trkpt lat="42.95921" lon="0.84118">
        <ele>1569.9</ele>
        <time>2019-08-17T10:45:10Z</time>
      </trkpt>
      <trkpt lat="42.95922" lon="0.84118">
        <ele>1570</ele>
        <time>2019-08-17T10:45:11Z</time>
      </trkpt>
      <trkpt lat="42.95923" lon="0.84119">
        <ele>1570.1</ele>
        <time>2019-08-17T10:45:12Z</time>
      </trkpt>
      <trkpt lat="42.95924" lon="0.8412">
        <ele>1570.2</ele>
        <time>2019-08-17T10:45:13Z</time>
      </trkpt>
      <trkpt lat="42.95925" lon="0.8412">
        <ele>1570.3</ele>
        <time>2019-08-17T10:45:14Z</time>
      </trkpt>
      <trkpt lat="42.95925" lon="0.84121">
        <ele>1570.4</ele>
        <time>2019-08-17T10:45:15Z</time>
      </trkpt>
      <trkpt lat="42.95926" lon="0.84122">
        <ele>1570.5</ele>
        <time>2019-08-17T10:45:16Z</time>
      </trkpt>
      <trkpt lat="42.95927" lon="0.84123">
        <ele>1570.6</ele>
        <time>2019-08-17T10:45:17Z</time>
      </trkpt>
      <trkpt lat="42.95927" lon="0.84123">
        <ele>1570.6</ele>
        <time>2019-08-17T10:45:18Z</time>
      </trkpt>
      <trkpt lat="42.95928" lon="0.84123">
        <ele>1570.7</ele>
        <time>2019-08-17T10:45:19Z</time>
      </trkpt>
      <trkpt lat="42.95929" lon="0.84124">
        <ele>1570.8</ele>
        <time>2019-08-17T10:45:20Z</time>
      </trkpt>
      <trkpt lat="42.9593" lon="0.84124">
        <ele>1570.9</ele>
        <time>2019-08-17T10:45:21Z</time>
      </trkpt>
      <trkpt lat="42.9593" lon="0.84125">
        <ele>1571</ele>
        <time>2019-08-17T10:45:22Z</time>
      </trkpt>
      <trkpt lat="42.95931" lon="0.84126">
        <ele>1571.1</ele>
        <time>2019-08-17T10:45:23Z</time>
      </trkpt>
      <trkpt lat="42.95932" lon="0.84127">
        <ele>1571.2</ele>
        <time>2019-08-17T10:45:24Z</time>
      </trkpt>
      <trkpt lat="42.95933" lon="0.84128">
        <ele>1571.3</ele>
        <time>2019-08-17T10:45:25Z</time>
      </trkpt>
      <trkpt lat="42.95933" lon="0.84129">
        <ele>1571.3</ele>
        <time>2019-08-17T10:45:26Z</time>
      </trkpt>
      <trkpt lat="42.95934" lon="0.8413">
        <ele>1571.3</ele>
        <time>2019-08-17T10:45:27Z</time>
      </trkpt>
      <trkpt lat="42.95935" lon="0.84131">
        <ele>1571.3</ele>
        <time>2019-08-17T10:45:28Z</time>
      </trkpt>
      <trkpt lat="42.95935" lon="0.84131">
        <ele>1571.3</ele>
        <time>2019-08-17T10:45:29Z</time>
      </trkpt>
      <trkpt lat="42.95936" lon="0.84132">
        <ele>1571.3</ele>
        <time>2019-08-17T10:45:30Z</time>
      </trkpt>
      <trkpt lat="42.95937" lon="0.84133">
        <ele>1571.3</ele>
        <time>2019-08-17T10:45:31Z</time>
      </trkpt>
      <trkpt lat="42.95938" lon="0.84133">
        <ele>1571.3</ele>
        <time>2019-08-17T10:45:32Z</time>
      </trkpt>
      <trkpt lat="42.95938" lon="0.84134">
        <ele>1571.4</ele>
        <time>2019-08-17T10:45:33Z</time>
      </trkpt>
      <trkpt lat="42.95939" lon="0.84134">
        <ele>1571.4</ele>
        <time>2019-08-17T10:45:34Z</time>
      </trkpt>
      <trkpt lat="42.9594" lon="0.84135">
        <ele>1571.4</ele>
        <time>2019-08-17T10:45:35Z</time>
      </trkpt>
      <trkpt lat="42.95941" lon="0.84135">
        <ele>1571.5</ele>
        <time>2019-08-17T10:45:36Z</time>
      </trkpt>
      <trkpt lat="42.95941" lon="0.84135">
        <ele>1571.5</ele>
        <time>2019-08-17T10:45:37Z</time>
      </trkpt>
      <trkpt lat="42.95942" lon="0.84135">
        <ele>1571.6</ele>
        <time>2019-08-17T10:45:38Z</time>
      </trkpt>
      <trkpt lat="42.95943" lon="0.84136">
        <ele>1571.6</ele>
        <time>2019-08-17T10:45:39Z</time>
      </trkpt>
      <trkpt lat="42.95944" lon="0.84136">
        <ele>1571.6</ele>
        <time>2019-08-17T10:45:40Z</time>
      </trkpt>
      <trkpt lat="42.95945" lon="0.84136">
        <ele>1571.7</ele>
        <time>2019-08-17T10:45:41Z</time>
      </trkpt>
      <trkpt lat="42.95946" lon="0.84136">
        <ele>1571.7</ele>
        <time>2019-08-17T10:45:42Z</time>
      </trkpt>
      <trkpt lat="42.95947" lon="0.84136">
        <ele>1571.8</ele>
        <time>2019-08-17T10:45:43Z</time>
      </trkpt>
      <trkpt lat="42.95948" lon="0.84136">
        <ele>1571.9</ele>
        <time>2019-08-17T10:45:44Z</time>
      </trkpt>
      <trkpt lat="42.95949" lon="0.84136">
        <ele>1572</ele>
        <time>2019-08-17T10:45:45Z</time>
      </trkpt>
      <trkpt lat="42.9595" lon="0.84135">
        <ele>1572.1</ele>
        <time>2019-08-17T10:45:46Z</time>
      </trkpt>
      <trkpt lat="42.95952" lon="0.84136">
        <ele>1572.2</ele>
        <time>2019-08-17T10:45:47Z</time>
      </trkpt>
      <trkpt lat="42.95953" lon="0.84137">
        <ele>1572.3</ele>
        <time>2019-08-17T10:45:48Z</time>
      </trkpt>
      <trkpt lat="42.95954" lon="0.84137">
        <ele>1572.4</ele>
        <time>2019-08-17T10:45:49Z</time>
      </trkpt>
      <trkpt lat="42.95955" lon="0.84138">
        <ele>1572.4</ele>
        <time>2019-08-17T10:45:50Z</time>
      </trkpt>
      <trkpt lat="42.95956" lon="0.84138">
        <ele>1572.4</ele>
        <time>2019-08-17T10:45:51Z</time>
      </trkpt>
      <trkpt lat="42.95957" lon="0.84139">
        <ele>1572.5</ele>
        <time>2019-08-17T10:45:52Z</time>
      </trkpt>
      <trkpt lat="42.95958" lon="0.84139">
        <ele>1572.5</ele>
        <time>2019-08-17T10:45:53Z</time>
      </trkpt>
      <trkpt lat="42.95959" lon="0.8414">
        <ele>1572.6</ele>
        <time>2019-08-17T10:45:54Z</time>
      </trkpt>
      <trkpt lat="42.9596" lon="0.84141">
        <ele>1572.6</ele>
        <time>2019-08-17T10:45:55Z</time>
      </trkpt>
      <trkpt lat="42.95961" lon="0.84141">
        <ele>1572.7</ele>
        <time>2019-08-17T10:45:56Z</time>
      </trkpt>
      <trkpt lat="42.95962" lon="0.84142">
        <ele>1572.7</ele>
        <time>2019-08-17T10:45:57Z</time>
      </trkpt>
      <trkpt lat="42.95963" lon="0.84142">
        <ele>1572.7</ele>
        <time>2019-08-17T10:45:58Z</time>
      </trkpt>
      <trkpt lat="42.95964" lon="0.84143">
        <ele>1572.7</ele>
        <time>2019-08-17T10:45:59Z</time>
      </trkpt>
      <trkpt lat="42.95965" lon="0.84143">
        <ele>1572.7</ele>
        <time>2019-08-17T10:46:00Z</time>
      </trkpt>
      <trkpt lat="42.95966" lon="0.84144">
        <ele>1572.7</ele>
        <time>2019-08-17T10:46:01Z</time>
      </trkpt>
      <trkpt lat="42.95967" lon="0.84145">
        <ele>1572.8</ele>
        <time>2019-08-17T10:46:02Z</time>
      </trkpt>
      <trkpt lat="42.95968" lon="0.84145">
        <ele>1572.8</ele>
        <time>2019-08-17T10:46:03Z</time>
      </trkpt>
      <trkpt lat="42.95969" lon="0.84146">
        <ele>1572.8</ele>
        <time>2019-08-17T10:46:04Z</time>
      </trkpt>
      <trkpt lat="42.9597" lon="0.84147">
        <ele>1572.8</ele>
        <time>2019-08-17T10:46:05Z</time>
      </trkpt>
      <trkpt lat="42.9597" lon="0.84148">
        <ele>1572.8</ele>
        <time>2019-08-17T10:46:06Z</time>
      </trkpt>
      <trkpt lat="42.95971" lon="0.84149">
        <ele>1572.8</ele>
        <time>2019-08-17T10:46:07Z</time>
      </trkpt>
      <trkpt lat="42.95972" lon="0.8415">
        <ele>1572.8</ele>
        <time>2019-08-17T10:46:08Z</time>
      </trkpt>
      <trkpt lat="42.95973" lon="0.8415">
        <ele>1572.8</ele>
        <time>2019-08-17T10:46:09Z</time>
      </trkpt>
      <trkpt lat="42.95974" lon="0.84151">
        <ele>1572.8</ele>
        <time>2019-08-17T10:46:10Z</time>
      </trkpt>
      <trkpt lat="42.95975" lon="0.84152">
        <ele>1572.8</ele>
        <time>2019-08-17T10:46:11Z</time>
      </trkpt>
      <trkpt lat="42.95976" lon="0.84152">
        <ele>1572.8</ele>
        <time>2019-08-17T10:46:12Z</time>
      </trkpt>
      <trkpt lat="42.95977" lon="0.84153">
        <ele>1572.8</ele>
        <time>2019-08-17T10:46:13Z</time>
      </trkpt>
      <trkpt lat="42.95978" lon="0.84154">
        <ele>1572.8</ele>
        <time>2019-08-17T10:46:14Z</time>
      </trkpt>
      <trkpt lat="42.95979" lon="0.84154">
        <ele>1572.9</ele>
        <time>2019-08-17T10:46:15Z</time>
      </trkpt>
      <trkpt lat="42.9598" lon="0.84155">
        <ele>1572.9</ele>
        <time>2019-08-17T10:46:16Z</time>
      </trkpt>
      <trkpt lat="42.95981" lon="0.84156">
        <ele>1573</ele>
        <time>2019-08-17T10:46:17Z</time>
      </trkpt>
      <trkpt lat="42.95982" lon="0.84157">
        <ele>1573</ele>
        <time>2019-08-17T10:46:18Z</time>
      </trkpt>
      <trkpt lat="42.95983" lon="0.84158">
        <ele>1573.1</ele>
        <time>2019-08-17T10:46:19Z</time>
      </trkpt>
      <trkpt lat="42.95984" lon="0.84159">
        <ele>1573.1</ele>
        <time>2019-08-17T10:46:20Z</time>
      </trkpt>
      <trkpt lat="42.95985" lon="0.8416">
        <ele>1573.1</ele>
        <time>2019-08-17T10:46:21Z</time>
      </trkpt>
      <trkpt lat="42.95986" lon="0.84161">
        <ele>1573.2</ele>
        <time>2019-08-17T10:46:22Z</time>
      </trkpt>
      <trkpt lat="42.95987" lon="0.84162">
        <ele>1573.2</ele>
        <time>2019-08-17T10:46:23Z</time>
      </trkpt>
      <trkpt lat="42.95988" lon="0.84163">
        <ele>1573.2</ele>
        <time>2019-08-17T10:46:24Z</time>
      </trkpt>
      <trkpt lat="42.95988" lon="0.84164">
        <ele>1573.2</ele>
        <time>2019-08-17T10:46:25Z</time>
      </trkpt>
      <trkpt lat="42.95989" lon="0.84165">
        <ele>1573.2</ele>
        <time>2019-08-17T10:46:26Z</time>
      </trkpt>
      <trkpt lat="42.9599" lon="0.84166">
        <ele>1573.3</ele>
        <time>2019-08-17T10:46:27Z</time>
      </trkpt>
      <trkpt lat="42.95991" lon="0.84168">
        <ele>1573.3</ele>
        <time>2019-08-17T10:46:28Z</time>
      </trkpt>
      <trkpt lat="42.95992" lon="0.84169">
        <ele>1573.3</ele>
        <time>2019-08-17T10:46:29Z</time>
      </trkpt>
      <trkpt lat="42.95992" lon="0.8417">
        <ele>1573.3</ele>
        <time>2019-08-17T10:46:30Z</time>
      </trkpt>
      <trkpt lat="42.95993" lon="0.84172">
        <ele>1573.4</ele>
        <time>2019-08-17T10:46:31Z</time>
      </trkpt>
      <trkpt lat="42.95994" lon="0.84173">
        <ele>1573.4</ele>
        <time>2019-08-17T10:46:32Z</time>
      </trkpt>
      <trkpt lat="42.95994" lon="0.84174">
        <ele>1573.5</ele>
        <time>2019-08-17T10:46:33Z</time>
      </trkpt>
      <trkpt lat="42.95995" lon="0.84176">
        <ele>1573.5</ele>
        <time>2019-08-17T10:46:34Z</time>
      </trkpt>
      <trkpt lat="42.95995" lon="0.84177">
        <ele>1573.5</ele>
        <time>2019-08-17T10:46:35Z</time>
      </trkpt>
      <trkpt lat="42.95996" lon="0.84178">
        <ele>1573.6</ele>
        <time>2019-08-17T10:46:36Z</time>
      </trkpt>
      <trkpt lat="42.95997" lon="0.8418">
        <ele>1573.6</ele>
        <time>2019-08-17T10:46:37Z</time>
      </trkpt>
      <trkpt lat="42.95997" lon="0.84181">
        <ele>1573.6</ele>
        <time>2019-08-17T10:46:38Z</time>
      </trkpt>
      <trkpt lat="42.95998" lon="0.84182">
        <ele>1573.7</ele>
        <time>2019-08-17T10:46:39Z</time>
      </trkpt>
      <trkpt lat="42.95999" lon="0.84184">
        <ele>1573.7</ele>
        <time>2019-08-17T10:46:40Z</time>
      </trkpt>
      <trkpt lat="42.95999" lon="0.84185">
        <ele>1573.7</ele>
        <time>2019-08-17T10:46:41Z</time>
      </trkpt>
      <trkpt lat="42.96" lon="0.84187">
        <ele>1573.7</ele>
        <time>2019-08-17T10:46:42Z</time>
      </trkpt>
      <trkpt lat="42.96" lon="0.84188">
        <ele>1573.7</ele>
        <time>2019-08-17T10:46:43Z</time>
      </trkpt>
      <trkpt lat="42.96001" lon="0.84189">
        <ele>1573.7</ele>
        <time>2019-08-17T10:46:44Z</time>
      </trkpt>
      <trkpt lat="42.96002" lon="0.84191">
        <ele>1573.7</ele>
        <time>2019-08-17T10:46:45Z</time>
      </trkpt>
      <trkpt lat="42.96002" lon="0.84192">
        <ele>1573.7</ele>
        <time>2019-08-17T10:46:46Z</time>
      </trkpt>
      <trkpt lat="42.96002" lon="0.84194">
        <ele>1573.8</ele>
        <time>2019-08-17T10:46:47Z</time>
      </trkpt>
      <trkpt lat="42.96003" lon="0.84195">
        <ele>1573.8</ele>
        <time>2019-08-17T10:46:48Z</time>
      </trkpt>
      <trkpt lat="42.96003" lon="0.84197">
        <ele>1573.8</ele>
        <time>2019-08-17T10:46:49Z</time>
      </trkpt>
      <trkpt lat="42.96004" lon="0.84198">
        <ele>1573.8</ele>
        <time>2019-08-17T10:46:50Z</time>
      </trkpt>
      <trkpt lat="42.96005" lon="0.84199">
        <ele>1573.8</ele>
        <time>2019-08-17T10:46:51Z</time>
      </trkpt>
      <trkpt lat="42.96006" lon="0.84199">
        <ele>1573.9</ele>
        <time>2019-08-17T10:46:52Z</time>
      </trkpt>
      <trkpt lat="42.96008" lon="0.842">
        <ele>1573.9</ele>
        <time>2019-08-17T10:46:53Z</time>
      </trkpt>
      <trkpt lat="42.96009" lon="0.84201">
        <ele>1573.9</ele>
        <time>2019-08-17T10:46:54Z</time>
      </trkpt>
      <trkpt lat="42.9601" lon="0.84201">
        <ele>1574</ele>
        <time>2019-08-17T10:46:55Z</time>
      </trkpt>
      <trkpt lat="42.96011" lon="0.84203">
        <ele>1574</ele>
        <time>2019-08-17T10:46:56Z</time>
      </trkpt>
      <trkpt lat="42.96012" lon="0.84204">
        <ele>1574.1</ele>
        <time>2019-08-17T10:46:57Z</time>
      </trkpt>
      <trkpt lat="42.96013" lon="0.84205">
        <ele>1574.1</ele>
        <time>2019-08-17T10:46:58Z</time>
      </trkpt>
      <trkpt lat="42.96013" lon="0.84207">
        <ele>1574.2</ele>
        <time>2019-08-17T10:46:59Z</time>
      </trkpt>
      <trkpt lat="42.96014" lon="0.84208">
        <ele>1574.2</ele>
        <time>2019-08-17T10:47:00Z</time>
      </trkpt>
      <trkpt lat="42.96015" lon="0.84209">
        <ele>1574.3</ele>
        <time>2019-08-17T10:47:01Z</time>
      </trkpt>
      <trkpt lat="42.96015" lon="0.8421">
        <ele>1574.3</ele>
        <time>2019-08-17T10:47:02Z</time>
      </trkpt>
      <trkpt lat="42.96016" lon="0.84212">
        <ele>1574.4</ele>
        <time>2019-08-17T10:47:03Z</time>
      </trkpt>
      <trkpt lat="42.96017" lon="0.84213">
        <ele>1574.5</ele>
        <time>2019-08-17T10:47:04Z</time>
      </trkpt>
      <trkpt lat="42.96018" lon="0.84214">
        <ele>1574.5</ele>
        <time>2019-08-17T10:47:05Z</time>
      </trkpt>
      <trkpt lat="42.96019" lon="0.84215">
        <ele>1574.6</ele>
        <time>2019-08-17T10:47:06Z</time>
      </trkpt>
      <trkpt lat="42.96019" lon="0.84216">
        <ele>1574.6</ele>
        <time>2019-08-17T10:47:07Z</time>
      </trkpt>
      <trkpt lat="42.9602" lon="0.84217">
        <ele>1574.7</ele>
        <time>2019-08-17T10:47:08Z</time>
      </trkpt>
      <trkpt lat="42.96021" lon="0.84217">
        <ele>1574.7</ele>
        <time>2019-08-17T10:47:09Z</time>
      </trkpt>
      <trkpt lat="42.96022" lon="0.84218">
        <ele>1574.8</ele>
        <time>2019-08-17T10:47:10Z</time>
      </trkpt>
      <trkpt lat="42.96023" lon="0.84219">
        <ele>1574.9</ele>
        <time>2019-08-17T10:47:11Z</time>
      </trkpt>
      <trkpt lat="42.96024" lon="0.8422">
        <ele>1574.9</ele>
        <time>2019-08-17T10:47:12Z</time>
      </trkpt>
      <trkpt lat="42.96025" lon="0.8422">
        <ele>1575</ele>
        <time>2019-08-17T10:47:13Z</time>
      </trkpt>
      <trkpt lat="42.96026" lon="0.84221">
        <ele>1575</ele>
        <time>2019-08-17T10:47:14Z</time>
      </trkpt>
      <trkpt lat="42.96026" lon="0.84222">
        <ele>1575.1</ele>
        <time>2019-08-17T10:47:15Z</time>
      </trkpt>
      <trkpt lat="42.96027" lon="0.84223">
        <ele>1575.1</ele>
        <time>2019-08-17T10:47:16Z</time>
      </trkpt>
      <trkpt lat="42.96027" lon="0.84225">
        <ele>1575.2</ele>
        <time>2019-08-17T10:47:17Z</time>
      </trkpt>
      <trkpt lat="42.96028" lon="0.84226">
        <ele>1575.2</ele>
        <time>2019-08-17T10:47:18Z</time>
      </trkpt>
      <trkpt lat="42.96028" lon="0.84227">
        <ele>1575.2</ele>
        <time>2019-08-17T10:47:19Z</time>
      </trkpt>
      <trkpt lat="42.96028" lon="0.84228">
        <ele>1575.3</ele>
        <time>2019-08-17T10:47:20Z</time>
      </trkpt>
      <trkpt lat="42.96029" lon="0.8423">
        <ele>1575.3</ele>
        <time>2019-08-17T10:47:21Z</time>
      </trkpt>
      <trkpt lat="42.9603" lon="0.84231">
        <ele>1575.4</ele>
        <time>2019-08-17T10:47:22Z</time>
      </trkpt>
      <trkpt lat="42.9603" lon="0.84232">
        <ele>1575.4</ele>
        <time>2019-08-17T10:47:23Z</time>
      </trkpt>
      <trkpt lat="42.96031" lon="0.84233">
        <ele>1575.5</ele>
        <time>2019-08-17T10:47:24Z</time>
      </trkpt>
      <trkpt lat="42.96032" lon="0.84235">
        <ele>1575.5</ele>
        <time>2019-08-17T10:47:25Z</time>
      </trkpt>
      <trkpt lat="42.96033" lon="0.84236">
        <ele>1575.5</ele>
        <time>2019-08-17T10:47:26Z</time>
      </trkpt>
      <trkpt lat="42.96033" lon="0.84237">
        <ele>1575.5</ele>
        <time>2019-08-17T10:47:27Z</time>
      </trkpt>
      <trkpt lat="42.96034" lon="0.84239">
        <ele>1575.5</ele>
        <time>2019-08-17T10:47:28Z</time>
      </trkpt>
      <trkpt lat="42.96034" lon="0.8424">
        <ele>1575.6</ele>
        <time>2019-08-17T10:47:29Z</time>
      </trkpt>
      <trkpt lat="42.96035" lon="0.84241">
        <ele>1575.6</ele>
        <time>2019-08-17T10:47:30Z</time>
      </trkpt>
      <trkpt lat="42.96035" lon="0.84243">
        <ele>1575.6</ele>
        <time>2019-08-17T10:47:31Z</time>
      </trkpt>
      <trkpt lat="42.96036" lon="0.84244">
        <ele>1575.6</ele>
        <time>2019-08-17T10:47:32Z</time>
      </trkpt>
      <trkpt lat="42.96036" lon="0.84245">
        <ele>1575.6</ele>
        <time>2019-08-17T10:47:33Z</time>
      </trkpt>
      <trkpt lat="42.96037" lon="0.84246">
        <ele>1575.7</ele>
        <time>2019-08-17T10:47:34Z</time>
      </trkpt>
      <trkpt lat="42.96037" lon="0.84247">
        <ele>1575.7</ele>
        <time>2019-08-17T10:47:35Z</time>
      </trkpt>
      <trkpt lat="42.96038" lon="0.84248">
        <ele>1575.7</ele>
        <time>2019-08-17T10:47:36Z</time>
      </trkpt>
      <trkpt lat="42.96039" lon="0.84249">
        <ele>1575.7</ele>
        <time>2019-08-17T10:47:37Z</time>
      </trkpt>
      <trkpt lat="42.9604" lon="0.84249">
        <ele>1575.7</ele>
        <time>2019-08-17T10:47:38Z</time>
      </trkpt>
      <trkpt lat="42.96041" lon="0.8425">
        <ele>1575.7</ele>
        <time>2019-08-17T10:47:39Z</time>
      </trkpt>
      <trkpt lat="42.96041" lon="0.84251">
        <ele>1575.7</ele>
        <time>2019-08-17T10:47:40Z</time>
      </trkpt>
      <trkpt lat="42.96042" lon="0.84252">
        <ele>1575.8</ele>
        <time>2019-08-17T10:47:41Z</time>
      </trkpt>
      <trkpt lat="42.96043" lon="0.84253">
        <ele>1575.6</ele>
        <time>2019-08-17T10:47:42Z</time>
      </trkpt>
      <trkpt lat="42.96043" lon="0.84254">
        <ele>1575.5</ele>
        <time>2019-08-17T10:47:43Z</time>
      </trkpt>
      <trkpt lat="42.96044" lon="0.84255">
        <ele>1575.4</ele>
        <time>2019-08-17T10:47:44Z</time>
      </trkpt>
      <trkpt lat="42.96045" lon="0.84256">
        <ele>1575.3</ele>
        <time>2019-08-17T10:47:45Z</time>
      </trkpt>
      <trkpt lat="42.96045" lon="0.84257">
        <ele>1575.1</ele>
        <time>2019-08-17T10:47:46Z</time>
      </trkpt>
      <trkpt lat="42.96046" lon="0.84258">
        <ele>1575</ele>
        <time>2019-08-17T10:47:47Z</time>
      </trkpt>
      <trkpt lat="42.96047" lon="0.84259">
        <ele>1574.9</ele>
        <time>2019-08-17T10:47:48Z</time>
      </trkpt>
      <trkpt lat="42.96048" lon="0.8426">
        <ele>1574.7</ele>
        <time>2019-08-17T10:47:49Z</time>
      </trkpt>
      <trkpt lat="42.96048" lon="0.84262">
        <ele>1574.6</ele>
        <time>2019-08-17T10:47:50Z</time>
      </trkpt>
      <trkpt lat="42.96049" lon="0.84263">
        <ele>1574.4</ele>
        <time>2019-08-17T10:47:51Z</time>
      </trkpt>
      <trkpt lat="42.96049" lon="0.84265">
        <ele>1574.8</ele>
        <time>2019-08-17T10:47:52Z</time>
      </trkpt>
      <trkpt lat="42.9605" lon="0.84266">
        <ele>1574.8</ele>
        <time>2019-08-17T10:47:53Z</time>
      </trkpt>
      <trkpt lat="42.9605" lon="0.84268">
        <ele>1574.8</ele>
        <time>2019-08-17T10:47:54Z</time>
      </trkpt>
      <trkpt lat="42.96051" lon="0.84269">
        <ele>1574.6</ele>
        <time>2019-08-17T10:47:55Z</time>
      </trkpt>
      <trkpt lat="42.96051" lon="0.84271">
        <ele>1574.6</ele>
        <time>2019-08-17T10:47:56Z</time>
      </trkpt>
      <trkpt lat="42.96051" lon="0.84272">
        <ele>1574.6</ele>
        <time>2019-08-17T10:47:57Z</time>
      </trkpt>
      <trkpt lat="42.96052" lon="0.84273">
        <ele>1574.9</ele>
        <time>2019-08-17T10:47:58Z</time>
      </trkpt>
      <trkpt lat="42.96052" lon="0.84275">
        <ele>1574.9</ele>
        <time>2019-08-17T10:47:59Z</time>
      </trkpt>
      <trkpt lat="42.96052" lon="0.84276">
        <ele>1574.9</ele>
        <time>2019-08-17T10:48:00Z</time>
      </trkpt>
      <trkpt lat="42.96053" lon="0.84278">
        <ele>1575.2</ele>
        <time>2019-08-17T10:48:01Z</time>
      </trkpt>
      <trkpt lat="42.96053" lon="0.84279">
        <ele>1575.2</ele>
        <time>2019-08-17T10:48:02Z</time>
      </trkpt>
      <trkpt lat="42.96053" lon="0.8428">
        <ele>1575.2</ele>
        <time>2019-08-17T10:48:03Z</time>
      </trkpt>
      <trkpt lat="42.96054" lon="0.84282">
        <ele>1574.9</ele>
        <time>2019-08-17T10:48:04Z</time>
      </trkpt>
      <trkpt lat="42.96054" lon="0.84283">
        <ele>1574.9</ele>
        <time>2019-08-17T10:48:05Z</time>
      </trkpt>
      <trkpt lat="42.96055" lon="0.84284">
        <ele>1574.9</ele>
        <time>2019-08-17T10:48:06Z</time>
      </trkpt>
      <trkpt lat="42.96055" lon="0.84285">
        <ele>1574.9</ele>
        <time>2019-08-17T10:48:07Z</time>
      </trkpt>
      <trkpt lat="42.96056" lon="0.84287">
        <ele>1575.2</ele>
        <time>2019-08-17T10:48:08Z</time>
      </trkpt>
      <trkpt lat="42.96056" lon="0.84288">
        <ele>1575.2</ele>
        <time>2019-08-17T10:48:09Z</time>
      </trkpt>
      <trkpt lat="42.96057" lon="0.84289">
        <ele>1575.2</ele>
        <time>2019-08-17T10:48:10Z</time>
      </trkpt>
      <trkpt lat="42.96057" lon="0.84291">
        <ele>1574.8</ele>
        <time>2019-08-17T10:48:11Z</time>
      </trkpt>
      <trkpt lat="42.96057" lon="0.84292">
        <ele>1574.8</ele>
        <time>2019-08-17T10:48:12Z</time>
      </trkpt>
      <trkpt lat="42.96057" lon="0.84294">
        <ele>1574.8</ele>
        <time>2019-08-17T10:48:13Z</time>
      </trkpt>
      <trkpt lat="42.96058" lon="0.84295">
        <ele>1575</ele>
        <time>2019-08-17T10:48:14Z</time>
      </trkpt>
      <trkpt lat="42.96058" lon="0.84296">
        <ele>1575</ele>
        <time>2019-08-17T10:48:15Z</time>
      </trkpt>
      <trkpt lat="42.96058" lon="0.84298">
        <ele>1575</ele>
        <time>2019-08-17T10:48:16Z</time>
      </trkpt>
      <trkpt lat="42.96057" lon="0.84299">
        <ele>1575.2</ele>
        <time>2019-08-17T10:48:17Z</time>
      </trkpt>
      <trkpt lat="42.96057" lon="0.843">
        <ele>1575.2</ele>
        <time>2019-08-17T10:48:18Z</time>
      </trkpt>
      <trkpt lat="42.96057" lon="0.84302">
        <ele>1575.2</ele>
        <time>2019-08-17T10:48:19Z</time>
      </trkpt>
      <trkpt lat="42.96057" lon="0.84303">
        <ele>1575.2</ele>
        <time>2019-08-17T10:48:20Z</time>
      </trkpt>
      <trkpt lat="42.96057" lon="0.84304">
        <ele>1575.3</ele>
        <time>2019-08-17T10:48:21Z</time>
      </trkpt>
      <trkpt lat="42.96057" lon="0.84305">
        <ele>1575.9</ele>
        <time>2019-08-17T10:48:22Z</time>
      </trkpt>
      <trkpt lat="42.96057" lon="0.84306">
        <ele>1575.9</ele>
        <time>2019-08-17T10:48:23Z</time>
      </trkpt>
      <trkpt lat="42.96057" lon="0.84308">
        <ele>1576</ele>
        <time>2019-08-17T10:48:24Z</time>
      </trkpt>
      <trkpt lat="42.96057" lon="0.84309">
        <ele>1576</ele>
        <time>2019-08-17T10:48:25Z</time>
      </trkpt>
      <trkpt lat="42.96057" lon="0.8431">
        <ele>1576</ele>
        <time>2019-08-17T10:48:26Z</time>
      </trkpt>
      <trkpt lat="42.96057" lon="0.84311">
        <ele>1575.4</ele>
        <time>2019-08-17T10:48:27Z</time>
      </trkpt>
      <trkpt lat="42.96057" lon="0.84312">
        <ele>1575.5</ele>
        <time>2019-08-17T10:48:28Z</time>
      </trkpt>
      <trkpt lat="42.96057" lon="0.84314">
        <ele>1576</ele>
        <time>2019-08-17T10:48:29Z</time>
      </trkpt>
      <trkpt lat="42.96057" lon="0.84315">
        <ele>1576</ele>
        <time>2019-08-17T10:48:30Z</time>
      </trkpt>
      <trkpt lat="42.96057" lon="0.84316">
        <ele>1576</ele>
        <time>2019-08-17T10:48:31Z</time>
      </trkpt>
      <trkpt lat="42.96057" lon="0.84317">
        <ele>1576</ele>
        <time>2019-08-17T10:48:32Z</time>
      </trkpt>
      <trkpt lat="42.96057" lon="0.84319">
        <ele>1576</ele>
        <time>2019-08-17T10:48:33Z</time>
      </trkpt>
      <trkpt lat="42.96057" lon="0.8432">
        <ele>1575.5</ele>
        <time>2019-08-17T10:48:34Z</time>
      </trkpt>
      <trkpt lat="42.96057" lon="0.84321">
        <ele>1575.5</ele>
        <time>2019-08-17T10:48:35Z</time>
      </trkpt>
      <trkpt lat="42.96058" lon="0.84321">
        <ele>1575.5</ele>
        <time>2019-08-17T10:48:36Z</time>
      </trkpt>
      <trkpt lat="42.96059" lon="0.84322">
        <ele>1575.5</ele>
        <time>2019-08-17T10:48:37Z</time>
      </trkpt>
      <trkpt lat="42.9606" lon="0.84323">
        <ele>1575.5</ele>
        <time>2019-08-17T10:48:38Z</time>
      </trkpt>
      <trkpt lat="42.9606" lon="0.84323">
        <ele>1575</ele>
        <time>2019-08-17T10:48:39Z</time>
      </trkpt>
      <trkpt lat="42.96061" lon="0.84324">
        <ele>1575</ele>
        <time>2019-08-17T10:48:40Z</time>
      </trkpt>
      <trkpt lat="42.96062" lon="0.84325">
        <ele>1575</ele>
        <time>2019-08-17T10:48:41Z</time>
      </trkpt>
      <trkpt lat="42.96062" lon="0.84326">
        <ele>1575</ele>
        <time>2019-08-17T10:48:42Z</time>
      </trkpt>
      <trkpt lat="42.96062" lon="0.84327">
        <ele>1575</ele>
        <time>2019-08-17T10:48:43Z</time>
      </trkpt>
      <trkpt lat="42.96063" lon="0.84328">
        <ele>1575</ele>
        <time>2019-08-17T10:48:44Z</time>
      </trkpt>
      <trkpt lat="42.96063" lon="0.84329">
        <ele>1574.5</ele>
        <time>2019-08-17T10:48:45Z</time>
      </trkpt>
      <trkpt lat="42.96064" lon="0.8433">
        <ele>1574.5</ele>
        <time>2019-08-17T10:48:46Z</time>
      </trkpt>
      <trkpt lat="42.96064" lon="0.84331">
        <ele>1574.5</ele>
        <time>2019-08-17T10:48:47Z</time>
      </trkpt>
      <trkpt lat="42.96065" lon="0.84332">
        <ele>1574.5</ele>
        <time>2019-08-17T10:48:48Z</time>
      </trkpt>
      <trkpt lat="42.96066" lon="0.84333">
        <ele>1574.4</ele>
        <time>2019-08-17T10:48:49Z</time>
      </trkpt>
      <trkpt lat="42.96066" lon="0.84334">
        <ele>1574.4</ele>
        <time>2019-08-17T10:48:50Z</time>
      </trkpt>
      <trkpt lat="42.96067" lon="0.84335">
        <ele>1574</ele>
        <time>2019-08-17T10:48:51Z</time>
      </trkpt>
      <trkpt lat="42.96067" lon="0.84336">
        <ele>1574</ele>
        <time>2019-08-17T10:48:52Z</time>
      </trkpt>
      <trkpt lat="42.96068" lon="0.84336">
        <ele>1574</ele>
        <time>2019-08-17T10:48:53Z</time>
      </trkpt>
      <trkpt lat="42.96069" lon="0.84337">
        <ele>1574</ele>
        <time>2019-08-17T10:48:54Z</time>
      </trkpt>
      <trkpt lat="42.96069" lon="0.84337">
        <ele>1573.5</ele>
        <time>2019-08-17T10:48:55Z</time>
      </trkpt>
      <trkpt lat="42.9607" lon="0.84337">
        <ele>1573.5</ele>
        <time>2019-08-17T10:48:56Z</time>
      </trkpt>
      <trkpt lat="42.96071" lon="0.84337">
        <ele>1573.4</ele>
        <time>2019-08-17T10:48:57Z</time>
      </trkpt>
      <trkpt lat="42.96072" lon="0.84337">
        <ele>1573.4</ele>
        <time>2019-08-17T10:48:58Z</time>
      </trkpt>
      <trkpt lat="42.96072" lon="0.84337">
        <ele>1573.4</ele>
        <time>2019-08-17T10:48:59Z</time>
      </trkpt>
      <trkpt lat="42.96073" lon="0.84338">
        <ele>1572.9</ele>
        <time>2019-08-17T10:49:00Z</time>
      </trkpt>
      <trkpt lat="42.96073" lon="0.84338">
        <ele>1572.9</ele>
        <time>2019-08-17T10:49:01Z</time>
      </trkpt>
      <trkpt lat="42.96074" lon="0.84338">
        <ele>1572.9</ele>
        <time>2019-08-17T10:49:02Z</time>
      </trkpt>
      <trkpt lat="42.96074" lon="0.84338">
        <ele>1572.9</ele>
        <time>2019-08-17T10:49:03Z</time>
      </trkpt>
      <trkpt lat="42.96075" lon="0.84338">
        <ele>1572.9</ele>
        <time>2019-08-17T10:49:04Z</time>
      </trkpt>
      <trkpt lat="42.96075" lon="0.84338">
        <ele>1572.9</ele>
        <time>2019-08-17T10:49:05Z</time>
      </trkpt>
      <trkpt lat="42.96075" lon="0.84338">
        <ele>1572.9</ele>
        <time>2019-08-17T10:49:06Z</time>
      </trkpt>
      <trkpt lat="42.96076" lon="0.84339">
        <ele>1572.9</ele>
        <time>2019-08-17T10:49:07Z</time>
      </trkpt>
      <trkpt lat="42.96076" lon="0.84339">
        <ele>1572.3</ele>
        <time>2019-08-17T10:49:08Z</time>
      </trkpt>
      <trkpt lat="42.96076" lon="0.84339">
        <ele>1572.3</ele>
        <time>2019-08-17T10:49:09Z</time>
      </trkpt>
      <trkpt lat="42.96077" lon="0.84338">
        <ele>1572.3</ele>
        <time>2019-08-17T10:49:10Z</time>
      </trkpt>
      <trkpt lat="42.96077" lon="0.84338">
        <ele>1572.3</ele>
        <time>2019-08-17T10:49:11Z</time>
      </trkpt>
      <trkpt lat="42.96077" lon="0.84337">
        <ele>1572.3</ele>
        <time>2019-08-17T10:49:12Z</time>
      </trkpt>
      <trkpt lat="42.96078" lon="0.84337">
        <ele>1572.3</ele>
        <time>2019-08-17T10:49:13Z</time>
      </trkpt>
      <trkpt lat="42.96079" lon="0.84336">
        <ele>1572.3</ele>
        <time>2019-08-17T10:49:14Z</time>
      </trkpt>
      <trkpt lat="42.96079" lon="0.84336">
        <ele>1571.6</ele>
        <time>2019-08-17T10:49:15Z</time>
      </trkpt>
      <trkpt lat="42.9608" lon="0.84336">
        <ele>1571.6</ele>
        <time>2019-08-17T10:49:16Z</time>
      </trkpt>
      <trkpt lat="42.9608" lon="0.84337">
        <ele>1571.6</ele>
        <time>2019-08-17T10:49:17Z</time>
      </trkpt>
      <trkpt lat="42.9608" lon="0.84338">
        <ele>1571.6</ele>
        <time>2019-08-17T10:49:18Z</time>
      </trkpt>
      <trkpt lat="42.96081" lon="0.84338">
        <ele>1571.6</ele>
        <time>2019-08-17T10:49:19Z</time>
      </trkpt>
      <trkpt lat="42.96081" lon="0.84339">
        <ele>1571.6</ele>
        <time>2019-08-17T10:49:20Z</time>
      </trkpt>
      <trkpt lat="42.96081" lon="0.8434">
        <ele>1571.6</ele>
        <time>2019-08-17T10:49:21Z</time>
      </trkpt>
      <trkpt lat="42.96082" lon="0.8434">
        <ele>1571.6</ele>
        <time>2019-08-17T10:49:22Z</time>
      </trkpt>
      <trkpt lat="42.96082" lon="0.8434">
        <ele>1570.8</ele>
        <time>2019-08-17T10:49:23Z</time>
      </trkpt>
      <trkpt lat="42.96083" lon="0.84341">
        <ele>1570.8</ele>
        <time>2019-08-17T10:49:24Z</time>
      </trkpt>
      <trkpt lat="42.96083" lon="0.84341">
        <ele>1570.8</ele>
        <time>2019-08-17T10:49:25Z</time>
      </trkpt>
      <trkpt lat="42.96084" lon="0.84341">
        <ele>1570.8</ele>
        <time>2019-08-17T10:49:26Z</time>
      </trkpt>
      <trkpt lat="42.96084" lon="0.84341">
        <ele>1570.8</ele>
        <time>2019-08-17T10:49:27Z</time>
      </trkpt>
      <trkpt lat="42.96085" lon="0.84341">
        <ele>1570.8</ele>
        <time>2019-08-17T10:49:28Z</time>
      </trkpt>
      <trkpt lat="42.96085" lon="0.84342">
        <ele>1570.8</ele>
        <time>2019-08-17T10:49:29Z</time>
      </trkpt>
      <trkpt lat="42.96085" lon="0.84342">
        <ele>1570</ele>
        <time>2019-08-17T10:49:30Z</time>
      </trkpt>
      <trkpt lat="42.96086" lon="0.84342">
        <ele>1570</ele>
        <time>2019-08-17T10:49:31Z</time>
      </trkpt>
      <trkpt lat="42.96086" lon="0.84342">
        <ele>1570</ele>
        <time>2019-08-17T10:49:32Z</time>
      </trkpt>
      <trkpt lat="42.96086" lon="0.84342">
        <ele>1570</ele>
        <time>2019-08-17T10:49:33Z</time>
      </trkpt>
      <trkpt lat="42.96087" lon="0.84342">
        <ele>1570</ele>
        <time>2019-08-17T10:49:34Z</time>
      </trkpt>
      <trkpt lat="42.96087" lon="0.84342">
        <ele>1570</ele>
        <time>2019-08-17T10:49:35Z</time>
      </trkpt>
      <trkpt lat="42.96088" lon="0.84342">
        <ele>1570</ele>
        <time>2019-08-17T10:49:36Z</time>
      </trkpt>
      <trkpt lat="42.96088" lon="0.84342">
        <ele>1569.3</ele>
        <time>2019-08-17T10:49:37Z</time>
      </trkpt>
      <trkpt lat="42.96089" lon="0.84342">
        <ele>1569.3</ele>
        <time>2019-08-17T10:49:38Z</time>
      </trkpt>
      <trkpt lat="42.9609" lon="0.84342">
        <ele>1569.3</ele>
        <time>2019-08-17T10:49:39Z</time>
      </trkpt>
      <trkpt lat="42.96091" lon="0.84342">
        <ele>1569.3</ele>
        <time>2019-08-17T10:49:40Z</time>
      </trkpt>
      <trkpt lat="42.96091" lon="0.84342">
        <ele>1569.3</ele>
        <time>2019-08-17T10:49:41Z</time>
      </trkpt>
      <trkpt lat="42.96092" lon="0.84342">
        <ele>1568.5</ele>
        <time>2019-08-17T10:49:42Z</time>
      </trkpt>
      <trkpt lat="42.96093" lon="0.84342">
        <ele>1568.5</ele>
        <time>2019-08-17T10:49:43Z</time>
      </trkpt>
      <trkpt lat="42.96093" lon="0.84342">
        <ele>1568.5</ele>
        <time>2019-08-17T10:49:44Z</time>
      </trkpt>
      <trkpt lat="42.96094" lon="0.84342">
        <ele>1568.5</ele>
        <time>2019-08-17T10:49:45Z</time>
      </trkpt>
      <trkpt lat="42.96095" lon="0.84342">
        <ele>1567.8</ele>
        <time>2019-08-17T10:49:46Z</time>
      </trkpt>
      <trkpt lat="42.96096" lon="0.84342">
        <ele>1567.8</ele>
        <time>2019-08-17T10:49:47Z</time>
      </trkpt>
      <trkpt lat="42.96096" lon="0.84342">
        <ele>1567.8</ele>
        <time>2019-08-17T10:49:48Z</time>
      </trkpt>
      <trkpt lat="42.96097" lon="0.84342">
        <ele>1567.8</ele>
        <time>2019-08-17T10:49:49Z</time>
      </trkpt>
      <trkpt lat="42.96098" lon="0.84342">
        <ele>1567</ele>
        <time>2019-08-17T10:49:50Z</time>
      </trkpt>
      <trkpt lat="42.96098" lon="0.84342">
        <ele>1567</ele>
        <time>2019-08-17T10:49:51Z</time>
      </trkpt>
      <trkpt lat="42.96099" lon="0.84342">
        <ele>1567</ele>
        <time>2019-08-17T10:49:52Z</time>
      </trkpt>
      <trkpt lat="42.961" lon="0.84342">
        <ele>1567</ele>
        <time>2019-08-17T10:49:53Z</time>
      </trkpt>
      <trkpt lat="42.96101" lon="0.84341">
        <ele>1567</ele>
        <time>2019-08-17T10:49:54Z</time>
      </trkpt>
      <trkpt lat="42.96101" lon="0.84341">
        <ele>1566.1</ele>
        <time>2019-08-17T10:49:55Z</time>
      </trkpt>
      <trkpt lat="42.96102" lon="0.84341">
        <ele>1566.1</ele>
        <time>2019-08-17T10:49:56Z</time>
      </trkpt>
      <trkpt lat="42.96103" lon="0.8434">
        <ele>1566.1</ele>
        <time>2019-08-17T10:49:57Z</time>
      </trkpt>
      <trkpt lat="42.96104" lon="0.8434">
        <ele>1566.1</ele>
        <time>2019-08-17T10:49:58Z</time>
      </trkpt>
      <trkpt lat="42.96105" lon="0.84339">
        <ele>1565.1</ele>
        <time>2019-08-17T10:49:59Z</time>
      </trkpt>
      <trkpt lat="42.96105" lon="0.84338">
        <ele>1565.1</ele>
        <time>2019-08-17T10:50:00Z</time>
      </trkpt>
      <trkpt lat="42.96106" lon="0.84338">
        <ele>1565.1</ele>
        <time>2019-08-17T10:50:01Z</time>
      </trkpt>
      <trkpt lat="42.96106" lon="0.84338">
        <ele>1565.1</ele>
        <time>2019-08-17T10:50:02Z</time>
      </trkpt>
      <trkpt lat="42.96107" lon="0.84338">
        <ele>1565.1</ele>
        <time>2019-08-17T10:50:03Z</time>
      </trkpt>
      <trkpt lat="42.96107" lon="0.84338">
        <ele>1565.1</ele>
        <time>2019-08-17T10:50:04Z</time>
      </trkpt>
      <trkpt lat="42.96107" lon="0.84338">
        <ele>1565.1</ele>
        <time>2019-08-17T10:50:05Z</time>
      </trkpt>
      <trkpt lat="42.96107" lon="0.84338">
        <ele>1565.1</ele>
        <time>2019-08-17T10:50:06Z</time>
      </trkpt>
      <trkpt lat="42.96107" lon="0.84338">
        <ele>1565.1</ele>
        <time>2019-08-17T10:50:07Z</time>
      </trkpt>
      <trkpt lat="42.96107" lon="0.84338">
        <ele>1565.1</ele>
        <time>2019-08-17T10:50:08Z</time>
      </trkpt>
      <trkpt lat="42.96107" lon="0.84338">
        <ele>1565.1</ele>
        <time>2019-08-17T10:50:09Z</time>
      </trkpt>
      <trkpt lat="42.96107" lon="0.84338">
        <ele>1565.1</ele>
        <time>2019-08-17T10:50:10Z</time>
      </trkpt>
      <trkpt lat="42.96107" lon="0.84338">
        <ele>1565.1</ele>
        <time>2019-08-17T10:50:11Z</time>
      </trkpt>
      <trkpt lat="42.96107" lon="0.84338">
        <ele>1565.1</ele>
        <time>2019-08-17T10:50:12Z</time>
      </trkpt>
      <trkpt lat="42.96107" lon="0.84338">
        <ele>1565.1</ele>
        <time>2019-08-17T10:50:13Z</time>
      </trkpt>
      <trkpt lat="42.96107" lon="0.84338">
        <ele>1565.1</ele>
        <time>2019-08-17T10:50:14Z</time>
      </trkpt>
      <trkpt lat="42.96107" lon="0.84338">
        <ele>1565.1</ele>
        <time>2019-08-17T10:50:15Z</time>
      </trkpt>
      <trkpt lat="42.96107" lon="0.84338">
        <ele>1565.1</ele>
        <time>2019-08-17T10:50:16Z</time>
      </trkpt>
      <trkpt lat="42.96107" lon="0.84338">
        <ele>1565.1</ele>
        <time>2019-08-17T10:50:17Z</time>
      </trkpt>
      <trkpt lat="42.96107" lon="0.84338">
        <ele>1565.1</ele>
        <time>2019-08-17T10:50:18Z</time>
      </trkpt>
      <trkpt lat="42.96107" lon="0.84338">
        <ele>1565.1</ele>
        <time>2019-08-17T10:50:19Z</time>
      </trkpt>
      <trkpt lat="42.96107" lon="0.84338">
        <ele>1565.1</ele>
        <time>2019-08-17T10:50:20Z</time>
      </trkpt>
      <trkpt lat="42.96107" lon="0.84338">
        <ele>1565.1</ele>
        <time>2019-08-17T10:50:21Z</time>
      </trkpt>
      <trkpt lat="42.96107" lon="0.84338">
        <ele>1565.1</ele>
        <time>2019-08-17T10:50:22Z</time>
      </trkpt>
      <trkpt lat="42.96107" lon="0.84338">
        <ele>1565.1</ele>
        <time>2019-08-17T10:50:23Z</time>
      </trkpt>
      <trkpt lat="42.96107" lon="0.84338">
        <ele>1565.1</ele>
        <time>2019-08-17T10:50:24Z</time>
      </trkpt>
      <trkpt lat="42.96107" lon="0.84338">
        <ele>1565.1</ele>
        <time>2019-08-17T10:50:25Z</time>
      </trkpt>
      <trkpt lat="42.96107" lon="0.84338">
        <ele>1565.1</ele>
        <time>2019-08-17T10:50:26Z</time>
      </trkpt>
      <trkpt lat="42.96107" lon="0.84338">
        <ele>1565.1</ele>
        <time>2019-08-17T10:50:27Z</time>
      </trkpt>
      <trkpt lat="42.96107" lon="0.84338">
        <ele>1565.1</ele>
        <time>2019-08-17T10:50:28Z</time>
      </trkpt>
      <trkpt lat="42.96107" lon="0.84338">
        <ele>1565.1</ele>
        <time>2019-08-17T10:50:29Z</time>
      </trkpt>
      <trkpt lat="42.96107" lon="0.84338">
        <ele>1565.1</ele>
        <time>2019-08-17T10:50:30Z</time>
      </trkpt>
      <trkpt lat="42.96107" lon="0.84338">
        <ele>1565.1</ele>
        <time>2019-08-17T10:50:31Z</time>
      </trkpt>
      <trkpt lat="42.96107" lon="0.84338">
        <ele>1565.1</ele>
        <time>2019-08-17T10:50:32Z</time>
      </trkpt>
      <trkpt lat="42.96107" lon="0.84338">
        <ele>1565.1</ele>
        <time>2019-08-17T10:50:33Z</time>
      </trkpt>
      <trkpt lat="42.96107" lon="0.84338">
        <ele>1565.1</ele>
        <time>2019-08-17T10:50:34Z</time>
      </trkpt>
      <trkpt lat="42.96107" lon="0.84338">
        <ele>1565.1</ele>
        <time>2019-08-17T10:50:35Z</time>
      </trkpt>
      <trkpt lat="42.96107" lon="0.84338">
        <ele>1565.1</ele>
        <time>2019-08-17T10:50:36Z</time>
      </trkpt>
      <trkpt lat="42.96107" lon="0.84338">
        <ele>1565.1</ele>
        <time>2019-08-17T10:50:37Z</time>
      </trkpt>
      <trkpt lat="42.96107" lon="0.84338">
        <ele>1565.1</ele>
        <time>2019-08-17T10:50:38Z</time>
      </trkpt>
      <trkpt lat="42.96107" lon="0.84338">
        <ele>1565.1</ele>
        <time>2019-08-17T10:50:39Z</time>
      </trkpt>
      <trkpt lat="42.96107" lon="0.84338">
        <ele>1565.1</ele>
        <time>2019-08-17T10:50:40Z</time>
      </trkpt>
      <trkpt lat="42.96107" lon="0.84338">
        <ele>1565.1</ele>
        <time>2019-08-17T10:50:41Z</time>
      </trkpt>
      <trkpt lat="42.96107" lon="0.84338">
        <ele>1565.1</ele>
        <time>2019-08-17T10:50:42Z</time>
      </trkpt>
      <trkpt lat="42.96107" lon="0.84338">
        <ele>1565.1</ele>
        <time>2019-08-17T10:50:43Z</time>
      </trkpt>
      <trkpt lat="42.96107" lon="0.84338">
        <ele>1565.1</ele>
        <time>2019-08-17T10:50:44Z</time>
      </trkpt>
      <trkpt lat="42.96107" lon="0.84338">
        <ele>1565.1</ele>
        <time>2019-08-17T10:50:45Z</time>
      </trkpt>
      <trkpt lat="42.96107" lon="0.84338">
        <ele>1565.1</ele>
        <time>2019-08-17T10:50:46Z</time>
      </trkpt>
      <trkpt lat="42.96107" lon="0.84338">
        <ele>1565.1</ele>
        <time>2019-08-17T10:50:47Z</time>
      </trkpt>
      <trkpt lat="42.96107" lon="0.84338">
        <ele>1565.1</ele>
        <time>2019-08-17T10:50:48Z</time>
      </trkpt>
      <trkpt lat="42.96107" lon="0.84338">
        <ele>1565.1</ele>
        <time>2019-08-17T10:50:49Z</time>
      </trkpt>
      <trkpt lat="42.96107" lon="0.84338">
        <ele>1565.1</ele>
        <time>2019-08-17T10:50:50Z</time>
      </trkpt>
      <trkpt lat="42.96107" lon="0.84338">
        <ele>1565.1</ele>
        <time>2019-08-17T10:50:51Z</time>
      </trkpt>
      <trkpt lat="42.96107" lon="0.84338">
        <ele>1565.1</ele>
        <time>2019-08-17T10:50:52Z</time>
      </trkpt>
      <trkpt lat="42.96107" lon="0.84338">
        <ele>1565.1</ele>
        <time>2019-08-17T10:50:53Z</time>
      </trkpt>
      <trkpt lat="42.96107" lon="0.84338">
        <ele>1565.1</ele>
        <time>2019-08-17T10:50:54Z</time>
      </trkpt>
      <trkpt lat="42.96107" lon="0.84338">
        <ele>1565.1</ele>
        <time>2019-08-17T10:50:55Z</time>
      </trkpt>
      <trkpt lat="42.96107" lon="0.84338">
        <ele>1565.1</ele>
        <time>2019-08-17T10:50:56Z</time>
      </trkpt>
      <trkpt lat="42.96107" lon="0.84338">
        <ele>1565.1</ele>
        <time>2019-08-17T10:50:57Z</time>
      </trkpt>
      <trkpt lat="42.96107" lon="0.84338">
        <ele>1565.1</ele>
        <time>2019-08-17T10:50:58Z</time>
      </trkpt>
      <trkpt lat="42.96107" lon="0.84338">
        <ele>1565.1</ele>
        <time>2019-08-17T10:50:59Z</time>
      </trkpt>
      <trkpt lat="42.96107" lon="0.84338">
        <ele>1565.1</ele>
        <time>2019-08-17T10:51:00Z</time>
      </trkpt>
      <trkpt lat="42.96107" lon="0.84338">
        <ele>1565.1</ele>
        <time>2019-08-17T10:51:01Z</time>
      </trkpt>
      <trkpt lat="42.96107" lon="0.84338">
        <ele>1565.1</ele>
        <time>2019-08-17T10:51:02Z</time>
      </trkpt>
      <trkpt lat="42.96107" lon="0.84338">
        <ele>1565.1</ele>
        <time>2019-08-17T10:51:03Z</time>
      </trkpt>
      <trkpt lat="42.96107" lon="0.84338">
        <ele>1565.1</ele>
        <time>2019-08-17T10:51:04Z</time>
      </trkpt>
      <trkpt lat="42.96107" lon="0.84338">
        <ele>1565.1</ele>
        <time>2019-08-17T10:51:05Z</time>
      </trkpt>
      <trkpt lat="42.96107" lon="0.84338">
        <ele>1565.1</ele>
        <time>2019-08-17T10:51:06Z</time>
      </trkpt>
      <trkpt lat="42.96107" lon="0.84338">
        <ele>1565.1</ele>
        <time>2019-08-17T10:51:07Z</time>
      </trkpt>
      <trkpt lat="42.96107" lon="0.84338">
        <ele>1565.1</ele>
        <time>2019-08-17T10:51:08Z</time>
      </trkpt>
      <trkpt lat="42.96107" lon="0.84338">
        <ele>1565.1</ele>
        <time>2019-08-17T10:51:09Z</time>
      </trkpt>
      <trkpt lat="42.96107" lon="0.84338">
        <ele>1564</ele>
        <time>2019-08-17T10:51:10Z</time>
      </trkpt>
      <trkpt lat="42.96107" lon="0.84339">
        <ele>1564</ele>
        <time>2019-08-17T10:51:11Z</time>
      </trkpt>
      <trkpt lat="42.96107" lon="0.84339">
        <ele>1565.1</ele>
        <time>2019-08-17T10:51:12Z</time>
      </trkpt>
      <trkpt lat="42.96107" lon="0.8434">
        <ele>1565.1</ele>
        <time>2019-08-17T10:51:13Z</time>
      </trkpt>
      <trkpt lat="42.96107" lon="0.8434">
        <ele>1565.1</ele>
        <time>2019-08-17T10:51:14Z</time>
      </trkpt>
      <trkpt lat="42.96107" lon="0.8434">
        <ele>1565.1</ele>
        <time>2019-08-17T10:51:15Z</time>
      </trkpt>
      <trkpt lat="42.96106" lon="0.84341">
        <ele>1565.1</ele>
        <time>2019-08-17T10:51:16Z</time>
      </trkpt>
      <trkpt lat="42.96106" lon="0.84341">
        <ele>1565.1</ele>
        <time>2019-08-17T10:51:17Z</time>
      </trkpt>
      <trkpt lat="42.96105" lon="0.84341">
        <ele>1565.1</ele>
        <time>2019-08-17T10:51:18Z</time>
      </trkpt>
      <trkpt lat="42.96104" lon="0.84341">
        <ele>1565.1</ele>
        <time>2019-08-17T10:51:19Z</time>
      </trkpt>
      <trkpt lat="42.96104" lon="0.84342">
        <ele>1566.1</ele>
        <time>2019-08-17T10:51:20Z</time>
      </trkpt>
      <trkpt lat="42.96103" lon="0.84342">
        <ele>1566.1</ele>
        <time>2019-08-17T10:51:21Z</time>
      </trkpt>
      <trkpt lat="42.96103" lon="0.84343">
        <ele>1566.1</ele>
        <time>2019-08-17T10:51:22Z</time>
      </trkpt>
      <trkpt lat="42.96103" lon="0.84344">
        <ele>1566.1</ele>
        <time>2019-08-17T10:51:23Z</time>
      </trkpt>
      <trkpt lat="42.96102" lon="0.84345">
        <ele>1566.1</ele>
        <time>2019-08-17T10:51:24Z</time>
      </trkpt>
      <trkpt lat="42.96102" lon="0.84346">
        <ele>1566.1</ele>
        <time>2019-08-17T10:51:25Z</time>
      </trkpt>
      <trkpt lat="42.96102" lon="0.84346">
        <ele>1566.2</ele>
        <time>2019-08-17T10:51:26Z</time>
      </trkpt>
      <trkpt lat="42.96102" lon="0.84346">
        <ele>1566.2</ele>
        <time>2019-08-17T10:51:27Z</time>
      </trkpt>
      <trkpt lat="42.96102" lon="0.84347">
        <ele>1566.2</ele>
        <time>2019-08-17T10:51:28Z</time>
      </trkpt>
      <trkpt lat="42.96102" lon="0.84347">
        <ele>1566.2</ele>
        <time>2019-08-17T10:51:29Z</time>
      </trkpt>
      <trkpt lat="42.96102" lon="0.84347">
        <ele>1566.2</ele>
        <time>2019-08-17T10:51:30Z</time>
      </trkpt>
      <trkpt lat="42.96102" lon="0.84347">
        <ele>1566.2</ele>
        <time>2019-08-17T10:51:31Z</time>
      </trkpt>
      <trkpt lat="42.96102" lon="0.84347">
        <ele>1566.2</ele>
        <time>2019-08-17T10:51:32Z</time>
      </trkpt>
      <trkpt lat="42.96102" lon="0.84347">
        <ele>1566.2</ele>
        <time>2019-08-17T10:51:33Z</time>
      </trkpt>
      <trkpt lat="42.96102" lon="0.84347">
        <ele>1566.2</ele>
        <time>2019-08-17T10:51:34Z</time>
      </trkpt>
      <trkpt lat="42.96102" lon="0.84347">
        <ele>1566.2</ele>
        <time>2019-08-17T10:51:35Z</time>
      </trkpt>
      <trkpt lat="42.96102" lon="0.84347">
        <ele>1566.2</ele>
        <time>2019-08-17T10:51:36Z</time>
      </trkpt>
      <trkpt lat="42.96102" lon="0.84347">
        <ele>1566.2</ele>
        <time>2019-08-17T10:51:37Z</time>
      </trkpt>
      <trkpt lat="42.96102" lon="0.84347">
        <ele>1566.2</ele>
        <time>2019-08-17T10:51:38Z</time>
      </trkpt>
      <trkpt lat="42.96102" lon="0.84347">
        <ele>1566.2</ele>
        <time>2019-08-17T10:51:39Z</time>
      </trkpt>
      <trkpt lat="42.96102" lon="0.84347">
        <ele>1566.2</ele>
        <time>2019-08-17T10:51:40Z</time>
      </trkpt>
      <trkpt lat="42.96102" lon="0.84347">
        <ele>1566.2</ele>
        <time>2019-08-17T10:51:41Z</time>
      </trkpt>
      <trkpt lat="42.96102" lon="0.84347">
        <ele>1566.2</ele>
        <time>2019-08-17T10:51:42Z</time>
      </trkpt>
      <trkpt lat="42.96102" lon="0.84347">
        <ele>1566.2</ele>
        <time>2019-08-17T10:51:43Z</time>
      </trkpt>
      <trkpt lat="42.96102" lon="0.84347">
        <ele>1566.2</ele>
        <time>2019-08-17T10:51:44Z</time>
      </trkpt>
      <trkpt lat="42.96102" lon="0.84347">
        <ele>1566.2</ele>
        <time>2019-08-17T10:51:45Z</time>
      </trkpt>
      <trkpt lat="42.96102" lon="0.84347">
        <ele>1566.2</ele>
        <time>2019-08-17T10:51:46Z</time>
      </trkpt>
      <trkpt lat="42.96102" lon="0.84347">
        <ele>1566.2</ele>
        <time>2019-08-17T10:51:47Z</time>
      </trkpt>
      <trkpt lat="42.96102" lon="0.84347">
        <ele>1566.2</ele>
        <time>2019-08-17T10:51:48Z</time>
      </trkpt>
      <trkpt lat="42.96102" lon="0.84347">
        <ele>1566.2</ele>
        <time>2019-08-17T10:51:49Z</time>
      </trkpt>
      <trkpt lat="42.96102" lon="0.84347">
        <ele>1566.2</ele>
        <time>2019-08-17T10:51:50Z</time>
      </trkpt>
      <trkpt lat="42.96102" lon="0.84347">
        <ele>1566.2</ele>
        <time>2019-08-17T10:51:51Z</time>
      </trkpt>
      <trkpt lat="42.96102" lon="0.84348">
        <ele>1566.2</ele>
        <time>2019-08-17T10:51:52Z</time>
      </trkpt>
      <trkpt lat="42.96102" lon="0.84348">
        <ele>1566.2</ele>
        <time>2019-08-17T10:51:53Z</time>
      </trkpt>
      <trkpt lat="42.96102" lon="0.84348">
        <ele>1566.2</ele>
        <time>2019-08-17T10:51:54Z</time>
      </trkpt>
      <trkpt lat="42.96102" lon="0.84348">
        <ele>1566.2</ele>
        <time>2019-08-17T10:51:55Z</time>
      </trkpt>
      <trkpt lat="42.96103" lon="0.84349">
        <ele>1566.2</ele>
        <time>2019-08-17T10:51:56Z</time>
      </trkpt>
      <trkpt lat="42.96103" lon="0.8435">
        <ele>1566.2</ele>
        <time>2019-08-17T10:51:57Z</time>
      </trkpt>
      <trkpt lat="42.96104" lon="0.84351">
        <ele>1566.1</ele>
        <time>2019-08-17T10:51:58Z</time>
      </trkpt>
      <trkpt lat="42.96104" lon="0.84351">
        <ele>1565.3</ele>
        <time>2019-08-17T10:51:59Z</time>
      </trkpt>
      <trkpt lat="42.96105" lon="0.84351">
        <ele>1565.3</ele>
        <time>2019-08-17T10:52:00Z</time>
      </trkpt>
      <trkpt lat="42.96106" lon="0.84352">
        <ele>1565.3</ele>
        <time>2019-08-17T10:52:01Z</time>
      </trkpt>
      <trkpt lat="42.96107" lon="0.84352">
        <ele>1565.3</ele>
        <time>2019-08-17T10:52:02Z</time>
      </trkpt>
      <trkpt lat="42.96107" lon="0.84352">
        <ele>1564.4</ele>
        <time>2019-08-17T10:52:03Z</time>
      </trkpt>
      <trkpt lat="42.96108" lon="0.84353">
        <ele>1564.4</ele>
        <time>2019-08-17T10:52:04Z</time>
      </trkpt>
      <trkpt lat="42.96108" lon="0.84353">
        <ele>1564.4</ele>
        <time>2019-08-17T10:52:05Z</time>
      </trkpt>
      <trkpt lat="42.96108" lon="0.84353">
        <ele>1564.4</ele>
        <time>2019-08-17T10:52:06Z</time>
      </trkpt>
      <trkpt lat="42.96108" lon="0.84353">
        <ele>1564.4</ele>
        <time>2019-08-17T10:52:07Z</time>
      </trkpt>
      <trkpt lat="42.96108" lon="0.84354">
        <ele>1564.4</ele>
        <time>2019-08-17T10:52:08Z</time>
      </trkpt>
      <trkpt lat="42.96108" lon="0.84354">
        <ele>1564.4</ele>
        <time>2019-08-17T10:52:09Z</time>
      </trkpt>
      <trkpt lat="42.96108" lon="0.84354">
        <ele>1564.4</ele>
        <time>2019-08-17T10:52:10Z</time>
      </trkpt>
      <trkpt lat="42.96108" lon="0.84354">
        <ele>1564.4</ele>
        <time>2019-08-17T10:52:11Z</time>
      </trkpt>
      <trkpt lat="42.96108" lon="0.84354">
        <ele>1564.4</ele>
        <time>2019-08-17T10:52:12Z</time>
      </trkpt>
      <trkpt lat="42.96109" lon="0.84354">
        <ele>1564.4</ele>
        <time>2019-08-17T10:52:13Z</time>
      </trkpt>
      <trkpt lat="42.96109" lon="0.84354">
        <ele>1564.4</ele>
        <time>2019-08-17T10:52:14Z</time>
      </trkpt>
      <trkpt lat="42.96109" lon="0.84354">
        <ele>1564.4</ele>
        <time>2019-08-17T10:52:15Z</time>
      </trkpt>
      <trkpt lat="42.96109" lon="0.84354">
        <ele>1564.4</ele>
        <time>2019-08-17T10:52:16Z</time>
      </trkpt>
      <trkpt lat="42.96109" lon="0.84354">
        <ele>1564.4</ele>
        <time>2019-08-17T10:52:17Z</time>
      </trkpt>
      <trkpt lat="42.96109" lon="0.84354">
        <ele>1564.4</ele>
        <time>2019-08-17T10:52:18Z</time>
      </trkpt>
      <trkpt lat="42.96108" lon="0.84354">
        <ele>1564.4</ele>
        <time>2019-08-17T10:52:19Z</time>
      </trkpt>
      <trkpt lat="42.96108" lon="0.84354">
        <ele>1564.4</ele>
        <time>2019-08-17T10:52:20Z</time>
      </trkpt>
      <trkpt lat="42.96108" lon="0.84354">
        <ele>1564.4</ele>
        <time>2019-08-17T10:52:21Z</time>
      </trkpt>
      <trkpt lat="42.96108" lon="0.84354">
        <ele>1564.4</ele>
        <time>2019-08-17T10:52:22Z</time>
      </trkpt>
      <trkpt lat="42.96108" lon="0.84354">
        <ele>1564.4</ele>
        <time>2019-08-17T10:52:23Z</time>
      </trkpt>
      <trkpt lat="42.96108" lon="0.84354">
        <ele>1564.4</ele>
        <time>2019-08-17T10:52:24Z</time>
      </trkpt>
      <trkpt lat="42.96108" lon="0.84354">
        <ele>1564.4</ele>
        <time>2019-08-17T10:52:25Z</time>
      </trkpt>
      <trkpt lat="42.96108" lon="0.84354">
        <ele>1564.4</ele>
        <time>2019-08-17T10:52:26Z</time>
      </trkpt>
      <trkpt lat="42.96108" lon="0.84354">
        <ele>1564.4</ele>
        <time>2019-08-17T10:52:27Z</time>
      </trkpt>
      <trkpt lat="42.96108" lon="0.84354">
        <ele>1564.4</ele>
        <time>2019-08-17T10:52:28Z</time>
      </trkpt>
      <trkpt lat="42.96108" lon="0.84354">
        <ele>1564.4</ele>
        <time>2019-08-17T10:52:29Z</time>
      </trkpt>
      <trkpt lat="42.96107" lon="0.84354">
        <ele>1564.4</ele>
        <time>2019-08-17T10:52:30Z</time>
      </trkpt>
      <trkpt lat="42.96107" lon="0.84354">
        <ele>1565.3</ele>
        <time>2019-08-17T10:52:31Z</time>
      </trkpt>
      <trkpt lat="42.96107" lon="0.84353">
        <ele>1565.3</ele>
        <time>2019-08-17T10:52:32Z</time>
      </trkpt>
      <trkpt lat="42.96106" lon="0.84353">
        <ele>1565.3</ele>
        <time>2019-08-17T10:52:33Z</time>
      </trkpt>
      <trkpt lat="42.96106" lon="0.84352">
        <ele>1565.3</ele>
        <time>2019-08-17T10:52:34Z</time>
      </trkpt>
      <trkpt lat="42.96106" lon="0.84352">
        <ele>1565.3</ele>
        <time>2019-08-17T10:52:35Z</time>
      </trkpt>
      <trkpt lat="42.96106" lon="0.84352">
        <ele>1565.3</ele>
        <time>2019-08-17T10:52:36Z</time>
      </trkpt>
      <trkpt lat="42.96106" lon="0.84352">
        <ele>1565.3</ele>
        <time>2019-08-17T10:52:37Z</time>
      </trkpt>
      <trkpt lat="42.96106" lon="0.84352">
        <ele>1565.3</ele>
        <time>2019-08-17T10:52:38Z</time>
      </trkpt>
      <trkpt lat="42.96106" lon="0.84352">
        <ele>1565.3</ele>
        <time>2019-08-17T10:52:39Z</time>
      </trkpt>
      <trkpt lat="42.96106" lon="0.84352">
        <ele>1565.3</ele>
        <time>2019-08-17T10:52:40Z</time>
      </trkpt>
      <trkpt lat="42.96106" lon="0.84352">
        <ele>1565.3</ele>
        <time>2019-08-17T10:52:41Z</time>
      </trkpt>
      <trkpt lat="42.96106" lon="0.84352">
        <ele>1565.3</ele>
        <time>2019-08-17T10:52:42Z</time>
      </trkpt>
      <trkpt lat="42.96106" lon="0.84352">
        <ele>1565.3</ele>
        <time>2019-08-17T10:52:43Z</time>
      </trkpt>
      <trkpt lat="42.96106" lon="0.84352">
        <ele>1565.3</ele>
        <time>2019-08-17T10:52:44Z</time>
      </trkpt>
      <trkpt lat="42.96106" lon="0.84352">
        <ele>1565.3</ele>
        <time>2019-08-17T10:52:45Z</time>
      </trkpt>
      <trkpt lat="42.96106" lon="0.84352">
        <ele>1565.3</ele>
        <time>2019-08-17T10:52:46Z</time>
      </trkpt>
      <trkpt lat="42.96106" lon="0.84352">
        <ele>1565.3</ele>
        <time>2019-08-17T10:52:47Z</time>
      </trkpt>
      <trkpt lat="42.96105" lon="0.84352">
        <ele>1565.3</ele>
        <time>2019-08-17T10:52:48Z</time>
      </trkpt>
      <trkpt lat="42.96105" lon="0.84352">
        <ele>1565.3</ele>
        <time>2019-08-17T10:52:49Z</time>
      </trkpt>
      <trkpt lat="42.96105" lon="0.84352">
        <ele>1565.3</ele>
        <time>2019-08-17T10:52:50Z</time>
      </trkpt>
      <trkpt lat="42.96105" lon="0.84351">
        <ele>1565.3</ele>
        <time>2019-08-17T10:52:51Z</time>
      </trkpt>
      <trkpt lat="42.96105" lon="0.84351">
        <ele>1565.3</ele>
        <time>2019-08-17T10:52:52Z</time>
      </trkpt>
      <trkpt lat="42.96104" lon="0.84351">
        <ele>1566.1</ele>
        <time>2019-08-17T10:52:53Z</time>
      </trkpt>
      <trkpt lat="42.96103" lon="0.8435">
        <ele>1566.2</ele>
        <time>2019-08-17T10:52:54Z</time>
      </trkpt>
      <trkpt lat="42.96102" lon="0.84349">
        <ele>1566.2</ele>
        <time>2019-08-17T10:52:55Z</time>
      </trkpt>
      <trkpt lat="42.96102" lon="0.84348">
        <ele>1566.2</ele>
        <time>2019-08-17T10:52:56Z</time>
      </trkpt>
      <trkpt lat="42.96102" lon="0.84347">
        <ele>1566.2</ele>
        <time>2019-08-17T10:52:57Z</time>
      </trkpt>
      <trkpt lat="42.96102" lon="0.84345">
        <ele>1566.1</ele>
        <time>2019-08-17T10:52:58Z</time>
      </trkpt>
      <trkpt lat="42.96102" lon="0.84344">
        <ele>1566.1</ele>
        <time>2019-08-17T10:52:59Z</time>
      </trkpt>
      <trkpt lat="42.96103" lon="0.84343">
        <ele>1566.1</ele>
        <time>2019-08-17T10:53:00Z</time>
      </trkpt>
      <trkpt lat="42.96103" lon="0.84342">
        <ele>1566.1</ele>
        <time>2019-08-17T10:53:01Z</time>
      </trkpt>
      <trkpt lat="42.96103" lon="0.84341">
        <ele>1566.1</ele>
        <time>2019-08-17T10:53:02Z</time>
      </trkpt>
      <trkpt lat="42.96103" lon="0.8434">
        <ele>1566.1</ele>
        <time>2019-08-17T10:53:03Z</time>
      </trkpt>
      <trkpt lat="42.96103" lon="0.84339">
        <ele>1566.1</ele>
        <time>2019-08-17T10:53:04Z</time>
      </trkpt>
      <trkpt lat="42.96102" lon="0.84338">
        <ele>1566.1</ele>
        <time>2019-08-17T10:53:05Z</time>
      </trkpt>
      <trkpt lat="42.96102" lon="0.84338">
        <ele>1566.1</ele>
        <time>2019-08-17T10:53:06Z</time>
      </trkpt>
      <trkpt lat="42.96103" lon="0.84338">
        <ele>1566.1</ele>
        <time>2019-08-17T10:53:07Z</time>
      </trkpt>
      <trkpt lat="42.96103" lon="0.84339">
        <ele>1566.1</ele>
        <time>2019-08-17T10:53:08Z</time>
      </trkpt>
      <trkpt lat="42.96103" lon="0.84339">
        <ele>1566.1</ele>
        <time>2019-08-17T10:53:09Z</time>
      </trkpt>
      <trkpt lat="42.96104" lon="0.84339">
        <ele>1566.1</ele>
        <time>2019-08-17T10:53:10Z</time>
      </trkpt>
      <trkpt lat="42.96104" lon="0.84339">
        <ele>1566.1</ele>
        <time>2019-08-17T10:53:11Z</time>
      </trkpt>
      <trkpt lat="42.96104" lon="0.84339">
        <ele>1566.1</ele>
        <time>2019-08-17T10:53:12Z</time>
      </trkpt>
      <trkpt lat="42.96104" lon="0.84339">
        <ele>1566.1</ele>
        <time>2019-08-17T10:53:13Z</time>
      </trkpt>
      <trkpt lat="42.96104" lon="0.84339">
        <ele>1566.1</ele>
        <time>2019-08-17T10:53:14Z</time>
      </trkpt>
      <trkpt lat="42.96104" lon="0.84339">
        <ele>1566.1</ele>
        <time>2019-08-17T10:53:15Z</time>
      </trkpt>
      <trkpt lat="42.96103" lon="0.84339">
        <ele>1566.1</ele>
        <time>2019-08-17T10:53:16Z</time>
      </trkpt>
      <trkpt lat="42.96103" lon="0.84339">
        <ele>1566.1</ele>
        <time>2019-08-17T10:53:17Z</time>
      </trkpt>
      <trkpt lat="42.96103" lon="0.84339">
        <ele>1566.1</ele>
        <time>2019-08-17T10:53:18Z</time>
      </trkpt>
      <trkpt lat="42.96103" lon="0.84339">
        <ele>1566.1</ele>
        <time>2019-08-17T10:53:19Z</time>
      </trkpt>
      <trkpt lat="42.96103" lon="0.84339">
        <ele>1566.1</ele>
        <time>2019-08-17T10:53:20Z</time>
      </trkpt>
      <trkpt lat="42.96103" lon="0.84339">
        <ele>1566.1</ele>
        <time>2019-08-17T10:53:21Z</time>
      </trkpt>
      <trkpt lat="42.96103" lon="0.84339">
        <ele>1566.1</ele>
        <time>2019-08-17T10:53:22Z</time>
      </trkpt>
      <trkpt lat="42.96103" lon="0.84339">
        <ele>1566.1</ele>
        <time>2019-08-17T10:53:23Z</time>
      </trkpt>
      <trkpt lat="42.96103" lon="0.84339">
        <ele>1566.1</ele>
        <time>2019-08-17T10:53:24Z</time>
      </trkpt>
      <trkpt lat="42.96103" lon="0.84339">
        <ele>1566.1</ele>
        <time>2019-08-17T10:53:25Z</time>
      </trkpt>
      <trkpt lat="42.96103" lon="0.84339">
        <ele>1566.1</ele>
        <time>2019-08-17T10:53:26Z</time>
      </trkpt>
      <trkpt lat="42.96103" lon="0.84339">
        <ele>1566.1</ele>
        <time>2019-08-17T10:53:27Z</time>
      </trkpt>
      <trkpt lat="42.96103" lon="0.84339">
        <ele>1566.1</ele>
        <time>2019-08-17T10:53:28Z</time>
      </trkpt>
      <trkpt lat="42.96103" lon="0.84339">
        <ele>1566.1</ele>
        <time>2019-08-17T10:53:29Z</time>
      </trkpt>
      <trkpt lat="42.96103" lon="0.84339">
        <ele>1566.1</ele>
        <time>2019-08-17T10:53:30Z</time>
      </trkpt>
      <trkpt lat="42.96103" lon="0.84339">
        <ele>1566.1</ele>
        <time>2019-08-17T10:53:31Z</time>
      </trkpt>
      <trkpt lat="42.96103" lon="0.84339">
        <ele>1566.1</ele>
        <time>2019-08-17T10:53:32Z</time>
      </trkpt>
      <trkpt lat="42.96103" lon="0.84339">
        <ele>1566.1</ele>
        <time>2019-08-17T10:53:33Z</time>
      </trkpt>
      <trkpt lat="42.96103" lon="0.84339">
        <ele>1566.1</ele>
        <time>2019-08-17T10:53:34Z</time>
      </trkpt>
      <trkpt lat="42.96103" lon="0.84339">
        <ele>1566.1</ele>
        <time>2019-08-17T10:53:35Z</time>
      </trkpt>
      <trkpt lat="42.96103" lon="0.84339">
        <ele>1566.1</ele>
        <time>2019-08-17T10:53:36Z</time>
      </trkpt>
      <trkpt lat="42.96103" lon="0.84339">
        <ele>1566.1</ele>
        <time>2019-08-17T10:53:37Z</time>
      </trkpt>
      <trkpt lat="42.96103" lon="0.84339">
        <ele>1566.1</ele>
        <time>2019-08-17T10:53:38Z</time>
      </trkpt>
      <trkpt lat="42.96103" lon="0.84339">
        <ele>1566.1</ele>
        <time>2019-08-17T10:53:39Z</time>
      </trkpt>
      <trkpt lat="42.96103" lon="0.84339">
        <ele>1566.1</ele>
        <time>2019-08-17T10:53:40Z</time>
      </trkpt>
      <trkpt lat="42.96103" lon="0.84339">
        <ele>1566.1</ele>
        <time>2019-08-17T10:53:41Z</time>
      </trkpt>
      <trkpt lat="42.96103" lon="0.84339">
        <ele>1566.1</ele>
        <time>2019-08-17T10:53:42Z</time>
      </trkpt>
      <trkpt lat="42.96103" lon="0.84339">
        <ele>1566.1</ele>
        <time>2019-08-17T10:53:43Z</time>
      </trkpt>
      <trkpt lat="42.96103" lon="0.84339">
        <ele>1566.1</ele>
        <time>2019-08-17T10:53:44Z</time>
      </trkpt>
      <trkpt lat="42.96103" lon="0.84339">
        <ele>1566.1</ele>
        <time>2019-08-17T10:53:45Z</time>
      </trkpt>
      <trkpt lat="42.96103" lon="0.84339">
        <ele>1566.1</ele>
        <time>2019-08-17T10:53:46Z</time>
      </trkpt>
      <trkpt lat="42.96103" lon="0.84339">
        <ele>1566.1</ele>
        <time>2019-08-17T10:53:47Z</time>
      </trkpt>
      <trkpt lat="42.96103" lon="0.84339">
        <ele>1566.1</ele>
        <time>2019-08-17T10:53:48Z</time>
      </trkpt>
      <trkpt lat="42.96103" lon="0.84339">
        <ele>1566.1</ele>
        <time>2019-08-17T10:53:49Z</time>
      </trkpt>
      <trkpt lat="42.96103" lon="0.84339">
        <ele>1566.1</ele>
        <time>2019-08-17T10:53:50Z</time>
      </trkpt>
      <trkpt lat="42.96103" lon="0.84339">
        <ele>1566.1</ele>
        <time>2019-08-17T10:53:51Z</time>
      </trkpt>
      <trkpt lat="42.96103" lon="0.84339">
        <ele>1566.1</ele>
        <time>2019-08-17T10:53:52Z</time>
      </trkpt>
      <trkpt lat="42.96103" lon="0.84339">
        <ele>1566.1</ele>
        <time>2019-08-17T10:53:53Z</time>
      </trkpt>
      <trkpt lat="42.96103" lon="0.84339">
        <ele>1566.1</ele>
        <time>2019-08-17T10:53:54Z</time>
      </trkpt>
      <trkpt lat="42.96103" lon="0.84339">
        <ele>1566.1</ele>
        <time>2019-08-17T10:53:55Z</time>
      </trkpt>
      <trkpt lat="42.96103" lon="0.84339">
        <ele>1566.1</ele>
        <time>2019-08-17T10:53:56Z</time>
      </trkpt>
      <trkpt lat="42.96103" lon="0.84339">
        <ele>1566.1</ele>
        <time>2019-08-17T10:53:57Z</time>
      </trkpt>
      <trkpt lat="42.96103" lon="0.8434">
        <ele>1566.1</ele>
        <time>2019-08-17T10:53:58Z</time>
      </trkpt>
      <trkpt lat="42.96103" lon="0.8434">
        <ele>1566.1</ele>
        <time>2019-08-17T10:53:59Z</time>
      </trkpt>
      <trkpt lat="42.96103" lon="0.8434">
        <ele>1566.1</ele>
        <time>2019-08-17T10:54:00Z</time>
      </trkpt>
      <trkpt lat="42.96103" lon="0.8434">
        <ele>1566.1</ele>
        <time>2019-08-17T10:54:01Z</time>
      </trkpt>
      <trkpt lat="42.96103" lon="0.8434">
        <ele>1566.1</ele>
        <time>2019-08-17T10:54:02Z</time>
      </trkpt>
      <trkpt lat="42.96103" lon="0.8434">
        <ele>1566.1</ele>
        <time>2019-08-17T10:54:03Z</time>
      </trkpt>
      <trkpt lat="42.96103" lon="0.8434">
        <ele>1566.1</ele>
        <time>2019-08-17T10:54:04Z</time>
      </trkpt>
      <trkpt lat="42.96103" lon="0.8434">
        <ele>1566.1</ele>
        <time>2019-08-17T10:54:05Z</time>
      </trkpt>
      <trkpt lat="42.96103" lon="0.8434">
        <ele>1566.1</ele>
        <time>2019-08-17T10:54:06Z</time>
      </trkpt>
      <trkpt lat="42.96103" lon="0.8434">
        <ele>1566.1</ele>
        <time>2019-08-17T10:54:07Z</time>
      </trkpt>
      <trkpt lat="42.96103" lon="0.8434">
        <ele>1566.1</ele>
        <time>2019-08-17T10:54:08Z</time>
      </trkpt>
      <trkpt lat="42.96103" lon="0.8434">
        <ele>1566.1</ele>
        <time>2019-08-17T10:54:09Z</time>
      </trkpt>
      <trkpt lat="42.96103" lon="0.8434">
        <ele>1566.1</ele>
        <time>2019-08-17T10:54:10Z</time>
      </trkpt>
      <trkpt lat="42.96103" lon="0.8434">
        <ele>1566.1</ele>
        <time>2019-08-17T10:54:11Z</time>
      </trkpt>
      <trkpt lat="42.96103" lon="0.8434">
        <ele>1566.1</ele>
        <time>2019-08-17T10:54:12Z</time>
      </trkpt>
      <trkpt lat="42.96103" lon="0.8434">
        <ele>1566.1</ele>
        <time>2019-08-17T10:54:13Z</time>
      </trkpt>
      <trkpt lat="42.96103" lon="0.84341">
        <ele>1566.1</ele>
        <time>2019-08-17T10:54:14Z</time>
      </trkpt>
      <trkpt lat="42.96102" lon="0.84341">
        <ele>1566.1</ele>
        <time>2019-08-17T10:54:15Z</time>
      </trkpt>
      <trkpt lat="42.96102" lon="0.84341">
        <ele>1566.1</ele>
        <time>2019-08-17T10:54:16Z</time>
      </trkpt>
      <trkpt lat="42.96102" lon="0.84341">
        <ele>1566.1</ele>
        <time>2019-08-17T10:54:17Z</time>
      </trkpt>
      <trkpt lat="42.96101" lon="0.84342">
        <ele>1566.1</ele>
        <time>2019-08-17T10:54:18Z</time>
      </trkpt>
      <trkpt lat="42.96101" lon="0.84343">
        <ele>1567</ele>
        <time>2019-08-17T10:54:19Z</time>
      </trkpt>
      <trkpt lat="42.961" lon="0.84343">
        <ele>1567</ele>
        <time>2019-08-17T10:54:20Z</time>
      </trkpt>
      <trkpt lat="42.96098" lon="0.84343">
        <ele>1567</ele>
        <time>2019-08-17T10:54:21Z</time>
      </trkpt>
      <trkpt lat="42.96097" lon="0.84344">
        <ele>1567.8</ele>
        <time>2019-08-17T10:54:22Z</time>
      </trkpt>
      <trkpt lat="42.96097" lon="0.84344">
        <ele>1567.8</ele>
        <time>2019-08-17T10:54:23Z</time>
      </trkpt>
      <trkpt lat="42.96096" lon="0.84344">
        <ele>1567.8</ele>
        <time>2019-08-17T10:54:24Z</time>
      </trkpt>
      <trkpt lat="42.96096" lon="0.84343">
        <ele>1567.8</ele>
        <time>2019-08-17T10:54:25Z</time>
      </trkpt>
      <trkpt lat="42.96095" lon="0.84343">
        <ele>1567.8</ele>
        <time>2019-08-17T10:54:26Z</time>
      </trkpt>
      <trkpt lat="42.96095" lon="0.84343">
        <ele>1567.8</ele>
        <time>2019-08-17T10:54:27Z</time>
      </trkpt>
      <trkpt lat="42.96094" lon="0.84343">
        <ele>1568.5</ele>
        <time>2019-08-17T10:54:28Z</time>
      </trkpt>
      <trkpt lat="42.96094" lon="0.84343">
        <ele>1568.5</ele>
        <time>2019-08-17T10:54:29Z</time>
      </trkpt>
      <trkpt lat="42.96093" lon="0.84343">
        <ele>1568.5</ele>
        <time>2019-08-17T10:54:30Z</time>
      </trkpt>
      <trkpt lat="42.96092" lon="0.84343">
        <ele>1568.5</ele>
        <time>2019-08-17T10:54:31Z</time>
      </trkpt>
      <trkpt lat="42.96092" lon="0.84343">
        <ele>1568.5</ele>
        <time>2019-08-17T10:54:32Z</time>
      </trkpt>
      <trkpt lat="42.96091" lon="0.84343">
        <ele>1569.3</ele>
        <time>2019-08-17T10:54:33Z</time>
      </trkpt>
      <trkpt lat="42.9609" lon="0.84343">
        <ele>1569.3</ele>
        <time>2019-08-17T10:54:34Z</time>
      </trkpt>
      <trkpt lat="42.9609" lon="0.84343">
        <ele>1569.3</ele>
        <time>2019-08-17T10:54:35Z</time>
      </trkpt>
      <trkpt lat="42.96089" lon="0.84342">
        <ele>1569.3</ele>
        <time>2019-08-17T10:54:36Z</time>
      </trkpt>
      <trkpt lat="42.96089" lon="0.84342">
        <ele>1569.3</ele>
        <time>2019-08-17T10:54:37Z</time>
      </trkpt>
      <trkpt lat="42.96088" lon="0.84342">
        <ele>1570</ele>
        <time>2019-08-17T10:54:38Z</time>
      </trkpt>
      <trkpt lat="42.96088" lon="0.84342">
        <ele>1570</ele>
        <time>2019-08-17T10:54:39Z</time>
      </trkpt>
      <trkpt lat="42.96088" lon="0.84342">
        <ele>1570.1</ele>
        <time>2019-08-17T10:54:40Z</time>
      </trkpt>
      <trkpt lat="42.96088" lon="0.84341">
        <ele>1570.1</ele>
        <time>2019-08-17T10:54:41Z</time>
      </trkpt>
      <trkpt lat="42.96088" lon="0.84341">
        <ele>1570.1</ele>
        <time>2019-08-17T10:54:42Z</time>
      </trkpt>
      <trkpt lat="42.96088" lon="0.84341">
        <ele>1570.1</ele>
        <time>2019-08-17T10:54:43Z</time>
      </trkpt>
      <trkpt lat="42.96087" lon="0.84341">
        <ele>1570.1</ele>
        <time>2019-08-17T10:54:44Z</time>
      </trkpt>
      <trkpt lat="42.96087" lon="0.84341">
        <ele>1570.1</ele>
        <time>2019-08-17T10:54:45Z</time>
      </trkpt>
      <trkpt lat="42.96087" lon="0.84341">
        <ele>1570.1</ele>
        <time>2019-08-17T10:54:46Z</time>
      </trkpt>
      <trkpt lat="42.96087" lon="0.84342">
        <ele>1570.1</ele>
        <time>2019-08-17T10:54:47Z</time>
      </trkpt>
      <trkpt lat="42.96087" lon="0.84342">
        <ele>1570.1</ele>
        <time>2019-08-17T10:54:48Z</time>
      </trkpt>
      <trkpt lat="42.96087" lon="0.84342">
        <ele>1570.1</ele>
        <time>2019-08-17T10:54:49Z</time>
      </trkpt>
      <trkpt lat="42.96087" lon="0.84341">
        <ele>1570.1</ele>
        <time>2019-08-17T10:54:50Z</time>
      </trkpt>
      <trkpt lat="42.96087" lon="0.84341">
        <ele>1570.1</ele>
        <time>2019-08-17T10:54:51Z</time>
      </trkpt>
      <trkpt lat="42.96086" lon="0.84341">
        <ele>1570.1</ele>
        <time>2019-08-17T10:54:52Z</time>
      </trkpt>
      <trkpt lat="42.96085" lon="0.84341">
        <ele>1570.1</ele>
        <time>2019-08-17T10:54:53Z</time>
      </trkpt>
      <trkpt lat="42.96085" lon="0.84341">
        <ele>1570.8</ele>
        <time>2019-08-17T10:54:54Z</time>
      </trkpt>
      <trkpt lat="42.96084" lon="0.84341">
        <ele>1570.8</ele>
        <time>2019-08-17T10:54:55Z</time>
      </trkpt>
      <trkpt lat="42.96084" lon="0.84341">
        <ele>1570.8</ele>
        <time>2019-08-17T10:54:56Z</time>
      </trkpt>
      <trkpt lat="42.96084" lon="0.84341">
        <ele>1570.8</ele>
        <time>2019-08-17T10:54:57Z</time>
      </trkpt>
      <trkpt lat="42.96084" lon="0.84341">
        <ele>1570.8</ele>
        <time>2019-08-17T10:54:58Z</time>
      </trkpt>
      <trkpt lat="42.96084" lon="0.84341">
        <ele>1570.8</ele>
        <time>2019-08-17T10:54:59Z</time>
      </trkpt>
      <trkpt lat="42.96083" lon="0.84341">
        <ele>1570.8</ele>
        <time>2019-08-17T10:55:00Z</time>
      </trkpt>
      <trkpt lat="42.96083" lon="0.84341">
        <ele>1570.8</ele>
        <time>2019-08-17T10:55:01Z</time>
      </trkpt>
      <trkpt lat="42.96082" lon="0.84341">
        <ele>1570.8</ele>
        <time>2019-08-17T10:55:02Z</time>
      </trkpt>
      <trkpt lat="42.96081" lon="0.84341">
        <ele>1571.6</ele>
        <time>2019-08-17T10:55:03Z</time>
      </trkpt>
      <trkpt lat="42.96081" lon="0.84341">
        <ele>1571.6</ele>
        <time>2019-08-17T10:55:04Z</time>
      </trkpt>
      <trkpt lat="42.96081" lon="0.84341">
        <ele>1571.6</ele>
        <time>2019-08-17T10:55:05Z</time>
      </trkpt>
      <trkpt lat="42.96081" lon="0.84341">
        <ele>1571.6</ele>
        <time>2019-08-17T10:55:06Z</time>
      </trkpt>
      <trkpt lat="42.96081" lon="0.84341">
        <ele>1571.6</ele>
        <time>2019-08-17T10:55:07Z</time>
      </trkpt>
      <trkpt lat="42.9608" lon="0.8434">
        <ele>1571.6</ele>
        <time>2019-08-17T10:55:08Z</time>
      </trkpt>
      <trkpt lat="42.9608" lon="0.8434">
        <ele>1571.6</ele>
        <time>2019-08-17T10:55:09Z</time>
      </trkpt>
      <trkpt lat="42.9608" lon="0.84339">
        <ele>1571.6</ele>
        <time>2019-08-17T10:55:10Z</time>
      </trkpt>
      <trkpt lat="42.96079" lon="0.84338">
        <ele>1571.6</ele>
        <time>2019-08-17T10:55:11Z</time>
      </trkpt>
      <trkpt lat="42.96079" lon="0.84337">
        <ele>1571.6</ele>
        <time>2019-08-17T10:55:12Z</time>
      </trkpt>
      <trkpt lat="42.96079" lon="0.84337">
        <ele>1571.6</ele>
        <time>2019-08-17T10:55:13Z</time>
      </trkpt>
      <trkpt lat="42.96079" lon="0.84337">
        <ele>1571.6</ele>
        <time>2019-08-17T10:55:14Z</time>
      </trkpt>
      <trkpt lat="42.96079" lon="0.84337">
        <ele>1571.6</ele>
        <time>2019-08-17T10:55:15Z</time>
      </trkpt>
      <trkpt lat="42.96079" lon="0.84337">
        <ele>1571.6</ele>
        <time>2019-08-17T10:55:16Z</time>
      </trkpt>
      <trkpt lat="42.96079" lon="0.84336">
        <ele>1572.3</ele>
        <time>2019-08-17T10:55:17Z</time>
      </trkpt>
      <trkpt lat="42.96078" lon="0.84334">
        <ele>1572.3</ele>
        <time>2019-08-17T10:55:18Z</time>
      </trkpt>
      <trkpt lat="42.96078" lon="0.84334">
        <ele>1572.3</ele>
        <time>2019-08-17T10:55:19Z</time>
      </trkpt>
      <trkpt lat="42.96078" lon="0.84333">
        <ele>1572.3</ele>
        <time>2019-08-17T10:55:20Z</time>
      </trkpt>
      <trkpt lat="42.96078" lon="0.84333">
        <ele>1572.4</ele>
        <time>2019-08-17T10:55:21Z</time>
      </trkpt>
      <trkpt lat="42.96078" lon="0.84332">
        <ele>1572.4</ele>
        <time>2019-08-17T10:55:22Z</time>
      </trkpt>
      <trkpt lat="42.96078" lon="0.84332">
        <ele>1572.4</ele>
        <time>2019-08-17T10:55:23Z</time>
      </trkpt>
      <trkpt lat="42.96077" lon="0.84331">
        <ele>1572.4</ele>
        <time>2019-08-17T10:55:24Z</time>
      </trkpt>
      <trkpt lat="42.96077" lon="0.84331">
        <ele>1572.4</ele>
        <time>2019-08-17T10:55:25Z</time>
      </trkpt>
      <trkpt lat="42.96076" lon="0.8433">
        <ele>1572.4</ele>
        <time>2019-08-17T10:55:26Z</time>
      </trkpt>
      <trkpt lat="42.96076" lon="0.84329">
        <ele>1572.4</ele>
        <time>2019-08-17T10:55:27Z</time>
      </trkpt>
      <trkpt lat="42.96075" lon="0.84329">
        <ele>1573</ele>
        <time>2019-08-17T10:55:28Z</time>
      </trkpt>
      <trkpt lat="42.96075" lon="0.84329">
        <ele>1573</ele>
        <time>2019-08-17T10:55:29Z</time>
      </trkpt>
      <trkpt lat="42.96075" lon="0.84328">
        <ele>1573</ele>
        <time>2019-08-17T10:55:30Z</time>
      </trkpt>
      <trkpt lat="42.96075" lon="0.84328">
        <ele>1573</ele>
        <time>2019-08-17T10:55:31Z</time>
      </trkpt>
      <trkpt lat="42.96075" lon="0.84328">
        <ele>1573</ele>
        <time>2019-08-17T10:55:32Z</time>
      </trkpt>
      <trkpt lat="42.96074" lon="0.84328">
        <ele>1573</ele>
        <time>2019-08-17T10:55:33Z</time>
      </trkpt>
      <trkpt lat="42.96074" lon="0.84328">
        <ele>1573</ele>
        <time>2019-08-17T10:55:34Z</time>
      </trkpt>
      <trkpt lat="42.96074" lon="0.84328">
        <ele>1573</ele>
        <time>2019-08-17T10:55:35Z</time>
      </trkpt>
      <trkpt lat="42.96074" lon="0.84328">
        <ele>1573</ele>
        <time>2019-08-17T10:55:36Z</time>
      </trkpt>
      <trkpt lat="42.96074" lon="0.84328">
        <ele>1573</ele>
        <time>2019-08-17T10:55:37Z</time>
      </trkpt>
      <trkpt lat="42.96074" lon="0.84327">
        <ele>1573</ele>
        <time>2019-08-17T10:55:38Z</time>
      </trkpt>
      <trkpt lat="42.96074" lon="0.84327">
        <ele>1573</ele>
        <time>2019-08-17T10:55:39Z</time>
      </trkpt>
      <trkpt lat="42.96073" lon="0.84327">
        <ele>1573</ele>
        <time>2019-08-17T10:55:40Z</time>
      </trkpt>
      <trkpt lat="42.96073" lon="0.84327">
        <ele>1573</ele>
        <time>2019-08-17T10:55:41Z</time>
      </trkpt>
      <trkpt lat="42.96073" lon="0.84326">
        <ele>1573</ele>
        <time>2019-08-17T10:55:42Z</time>
      </trkpt>
      <trkpt lat="42.96072" lon="0.84326">
        <ele>1573.6</ele>
        <time>2019-08-17T10:55:43Z</time>
      </trkpt>
      <trkpt lat="42.96072" lon="0.84325">
        <ele>1573.6</ele>
        <time>2019-08-17T10:55:44Z</time>
      </trkpt>
      <trkpt lat="42.96071" lon="0.84324">
        <ele>1573.5</ele>
        <time>2019-08-17T10:55:45Z</time>
      </trkpt>
      <trkpt lat="42.96071" lon="0.84324">
        <ele>1573.5</ele>
        <time>2019-08-17T10:55:46Z</time>
      </trkpt>
      <trkpt lat="42.96071" lon="0.84323">
        <ele>1573.5</ele>
        <time>2019-08-17T10:55:47Z</time>
      </trkpt>
      <trkpt lat="42.96071" lon="0.84322">
        <ele>1573.5</ele>
        <time>2019-08-17T10:55:48Z</time>
      </trkpt>
      <trkpt lat="42.9607" lon="0.84322">
        <ele>1573.5</ele>
        <time>2019-08-17T10:55:49Z</time>
      </trkpt>
      <trkpt lat="42.9607" lon="0.84322">
        <ele>1573.5</ele>
        <time>2019-08-17T10:55:50Z</time>
      </trkpt>
      <trkpt lat="42.9607" lon="0.84321">
        <ele>1573.5</ele>
        <time>2019-08-17T10:55:51Z</time>
      </trkpt>
      <trkpt lat="42.9607" lon="0.8432">
        <ele>1573.5</ele>
        <time>2019-08-17T10:55:52Z</time>
      </trkpt>
      <trkpt lat="42.96069" lon="0.84319">
        <ele>1574</ele>
        <time>2019-08-17T10:55:53Z</time>
      </trkpt>
      <trkpt lat="42.96069" lon="0.84319">
        <ele>1574</ele>
        <time>2019-08-17T10:55:54Z</time>
      </trkpt>
      <trkpt lat="42.96068" lon="0.84318">
        <ele>1574</ele>
        <time>2019-08-17T10:55:55Z</time>
      </trkpt>
      <trkpt lat="42.96068" lon="0.84318">
        <ele>1574</ele>
        <time>2019-08-17T10:55:56Z</time>
      </trkpt>
      <trkpt lat="42.96067" lon="0.84317">
        <ele>1574</ele>
        <time>2019-08-17T10:55:57Z</time>
      </trkpt>
      <trkpt lat="42.96067" lon="0.84316">
        <ele>1574</ele>
        <time>2019-08-17T10:55:58Z</time>
      </trkpt>
      <trkpt lat="42.96066" lon="0.84316">
        <ele>1574.4</ele>
        <time>2019-08-17T10:55:59Z</time>
      </trkpt>
      <trkpt lat="42.96065" lon="0.84315">
        <ele>1574.4</ele>
        <time>2019-08-17T10:56:00Z</time>
      </trkpt>
      <trkpt lat="42.96065" lon="0.84314">
        <ele>1574.4</ele>
        <time>2019-08-17T10:56:01Z</time>
      </trkpt>
      <trkpt lat="42.96064" lon="0.84314">
        <ele>1574.4</ele>
        <time>2019-08-17T10:56:02Z</time>
      </trkpt>
      <trkpt lat="42.96064" lon="0.84313">
        <ele>1574.4</ele>
        <time>2019-08-17T10:56:03Z</time>
      </trkpt>
      <trkpt lat="42.96063" lon="0.84312">
        <ele>1574.4</ele>
        <time>2019-08-17T10:56:04Z</time>
      </trkpt>
      <trkpt lat="42.96063" lon="0.84312">
        <ele>1575</ele>
        <time>2019-08-17T10:56:05Z</time>
      </trkpt>
      <trkpt lat="42.96062" lon="0.84312">
        <ele>1575</ele>
        <time>2019-08-17T10:56:06Z</time>
      </trkpt>
      <trkpt lat="42.96062" lon="0.84311">
        <ele>1574.9</ele>
        <time>2019-08-17T10:56:07Z</time>
      </trkpt>
      <trkpt lat="42.96061" lon="0.84311">
        <ele>1574.9</ele>
        <time>2019-08-17T10:56:08Z</time>
      </trkpt>
      <trkpt lat="42.96061" lon="0.84311">
        <ele>1574.9</ele>
        <time>2019-08-17T10:56:09Z</time>
      </trkpt>
      <trkpt lat="42.9606" lon="0.84311">
        <ele>1574.9</ele>
        <time>2019-08-17T10:56:10Z</time>
      </trkpt>
      <trkpt lat="42.9606" lon="0.84311">
        <ele>1575.4</ele>
        <time>2019-08-17T10:56:11Z</time>
      </trkpt>
      <trkpt lat="42.96059" lon="0.84312">
        <ele>1575.5</ele>
        <time>2019-08-17T10:56:12Z</time>
      </trkpt>
      <trkpt lat="42.96059" lon="0.84312">
        <ele>1575.5</ele>
        <time>2019-08-17T10:56:13Z</time>
      </trkpt>
      <trkpt lat="42.96059" lon="0.84312">
        <ele>1575.5</ele>
        <time>2019-08-17T10:56:14Z</time>
      </trkpt>
      <trkpt lat="42.96059" lon="0.84312">
        <ele>1575.5</ele>
        <time>2019-08-17T10:56:15Z</time>
      </trkpt>
      <trkpt lat="42.96058" lon="0.84312">
        <ele>1575.5</ele>
        <time>2019-08-17T10:56:16Z</time>
      </trkpt>
      <trkpt lat="42.96058" lon="0.84312">
        <ele>1575.5</ele>
        <time>2019-08-17T10:56:17Z</time>
      </trkpt>
      <trkpt lat="42.96058" lon="0.84312">
        <ele>1575.5</ele>
        <time>2019-08-17T10:56:18Z</time>
      </trkpt>
      <trkpt lat="42.96057" lon="0.84312">
        <ele>1575.5</ele>
        <time>2019-08-17T10:56:19Z</time>
      </trkpt>
      <trkpt lat="42.96057" lon="0.84311">
        <ele>1576</ele>
        <time>2019-08-17T10:56:20Z</time>
      </trkpt>
      <trkpt lat="42.96056" lon="0.84311">
        <ele>1576</ele>
        <time>2019-08-17T10:56:21Z</time>
      </trkpt>
      <trkpt lat="42.96056" lon="0.84311">
        <ele>1576</ele>
        <time>2019-08-17T10:56:22Z</time>
      </trkpt>
      <trkpt lat="42.96055" lon="0.8431">
        <ele>1576</ele>
        <time>2019-08-17T10:56:23Z</time>
      </trkpt>
      <trkpt lat="42.96055" lon="0.8431">
        <ele>1576</ele>
        <time>2019-08-17T10:56:24Z</time>
      </trkpt>
      <trkpt lat="42.96054" lon="0.84309">
        <ele>1576</ele>
        <time>2019-08-17T10:56:25Z</time>
      </trkpt>
      <trkpt lat="42.96054" lon="0.84309">
        <ele>1576</ele>
        <time>2019-08-17T10:56:26Z</time>
      </trkpt>
      <trkpt lat="42.96054" lon="0.84308">
        <ele>1576</ele>
        <time>2019-08-17T10:56:27Z</time>
      </trkpt>
      <trkpt lat="42.96054" lon="0.84308">
        <ele>1576.4</ele>
        <time>2019-08-17T10:56:28Z</time>
      </trkpt>
      <trkpt lat="42.96053" lon="0.84308">
        <ele>1576.4</ele>
        <time>2019-08-17T10:56:29Z</time>
      </trkpt>
      <trkpt lat="42.96053" lon="0.84307">
        <ele>1576.4</ele>
        <time>2019-08-17T10:56:30Z</time>
      </trkpt>
      <trkpt lat="42.96053" lon="0.84306">
        <ele>1576.4</ele>
        <time>2019-08-17T10:56:31Z</time>
      </trkpt>
      <trkpt lat="42.96052" lon="0.84306">
        <ele>1576.4</ele>
        <time>2019-08-17T10:56:32Z</time>
      </trkpt>
      <trkpt lat="42.96052" lon="0.84305">
        <ele>1576.4</ele>
        <time>2019-08-17T10:56:33Z</time>
      </trkpt>
      <trkpt lat="42.96051" lon="0.84305">
        <ele>1576.4</ele>
        <time>2019-08-17T10:56:34Z</time>
      </trkpt>
      <trkpt lat="42.96051" lon="0.84305">
        <ele>1576.4</ele>
        <time>2019-08-17T10:56:35Z</time>
      </trkpt>
      <trkpt lat="42.9605" lon="0.84304">
        <ele>1576.8</ele>
        <time>2019-08-17T10:56:36Z</time>
      </trkpt>
      <trkpt lat="42.9605" lon="0.84304">
        <ele>1576.8</ele>
        <time>2019-08-17T10:56:37Z</time>
      </trkpt>
      <trkpt lat="42.96049" lon="0.84303">
        <ele>1576.8</ele>
        <time>2019-08-17T10:56:38Z</time>
      </trkpt>
      <trkpt lat="42.96048" lon="0.84303">
        <ele>1576.7</ele>
        <time>2019-08-17T10:56:39Z</time>
      </trkpt>
      <trkpt lat="42.96048" lon="0.84302">
        <ele>1576.7</ele>
        <time>2019-08-17T10:56:40Z</time>
      </trkpt>
      <trkpt lat="42.96048" lon="0.84302">
        <ele>1576.7</ele>
        <time>2019-08-17T10:56:41Z</time>
      </trkpt>
      <trkpt lat="42.96047" lon="0.84302">
        <ele>1577</ele>
        <time>2019-08-17T10:56:42Z</time>
      </trkpt>
      <trkpt lat="42.96047" lon="0.84302">
        <ele>1577</ele>
        <time>2019-08-17T10:56:43Z</time>
      </trkpt>
      <trkpt lat="42.96047" lon="0.84302">
        <ele>1577</ele>
        <time>2019-08-17T10:56:44Z</time>
      </trkpt>
      <trkpt lat="42.96047" lon="0.84302">
        <ele>1577</ele>
        <time>2019-08-17T10:56:45Z</time>
      </trkpt>
      <trkpt lat="42.96047" lon="0.84301">
        <ele>1577</ele>
        <time>2019-08-17T10:56:46Z</time>
      </trkpt>
      <trkpt lat="42.96046" lon="0.84301">
        <ele>1577</ele>
        <time>2019-08-17T10:56:47Z</time>
      </trkpt>
      <trkpt lat="42.96046" lon="0.84301">
        <ele>1577</ele>
        <time>2019-08-17T10:56:48Z</time>
      </trkpt>
      <trkpt lat="42.96045" lon="0.843">
        <ele>1577</ele>
        <time>2019-08-17T10:56:49Z</time>
      </trkpt>
      <trkpt lat="42.96045" lon="0.843">
        <ele>1577</ele>
        <time>2019-08-17T10:56:50Z</time>
      </trkpt>
      <trkpt lat="42.96045" lon="0.84299">
        <ele>1577</ele>
        <time>2019-08-17T10:56:51Z</time>
      </trkpt>
      <trkpt lat="42.96044" lon="0.84298">
        <ele>1576.9</ele>
        <time>2019-08-17T10:56:52Z</time>
      </trkpt>
      <trkpt lat="42.96044" lon="0.84297">
        <ele>1577.2</ele>
        <time>2019-08-17T10:56:53Z</time>
      </trkpt>
      <trkpt lat="42.96044" lon="0.84296">
        <ele>1577.2</ele>
        <time>2019-08-17T10:56:54Z</time>
      </trkpt>
      <trkpt lat="42.96044" lon="0.84295">
        <ele>1577.2</ele>
        <time>2019-08-17T10:56:55Z</time>
      </trkpt>
      <trkpt lat="42.96044" lon="0.84294">
        <ele>1577</ele>
        <time>2019-08-17T10:56:56Z</time>
      </trkpt>
      <trkpt lat="42.96043" lon="0.84294">
        <ele>1577</ele>
        <time>2019-08-17T10:56:57Z</time>
      </trkpt>
      <trkpt lat="42.96043" lon="0.84293">
        <ele>1577</ele>
        <time>2019-08-17T10:56:58Z</time>
      </trkpt>
      <trkpt lat="42.96042" lon="0.84293">
        <ele>1577</ele>
        <time>2019-08-17T10:56:59Z</time>
      </trkpt>
      <trkpt lat="42.96041" lon="0.84292">
        <ele>1577.3</ele>
        <time>2019-08-17T10:57:00Z</time>
      </trkpt>
      <trkpt lat="42.9604" lon="0.84292">
        <ele>1577.3</ele>
        <time>2019-08-17T10:57:01Z</time>
      </trkpt>
      <trkpt lat="42.9604" lon="0.84291">
        <ele>1577.3</ele>
        <time>2019-08-17T10:57:02Z</time>
      </trkpt>
      <trkpt lat="42.96039" lon="0.8429">
        <ele>1577.3</ele>
        <time>2019-08-17T10:57:03Z</time>
      </trkpt>
      <trkpt lat="42.96039" lon="0.84289">
        <ele>1577.1</ele>
        <time>2019-08-17T10:57:04Z</time>
      </trkpt>
      <trkpt lat="42.96038" lon="0.84289">
        <ele>1577.4</ele>
        <time>2019-08-17T10:57:05Z</time>
      </trkpt>
      <trkpt lat="42.96037" lon="0.84288">
        <ele>1577.4</ele>
        <time>2019-08-17T10:57:06Z</time>
      </trkpt>
      <trkpt lat="42.96037" lon="0.84287">
        <ele>1577.4</ele>
        <time>2019-08-17T10:57:07Z</time>
      </trkpt>
      <trkpt lat="42.96036" lon="0.84287">
        <ele>1577.4</ele>
        <time>2019-08-17T10:57:08Z</time>
      </trkpt>
      <trkpt lat="42.96035" lon="0.84286">
        <ele>1577.6</ele>
        <time>2019-08-17T10:57:09Z</time>
      </trkpt>
      <trkpt lat="42.96034" lon="0.84286">
        <ele>1577.6</ele>
        <time>2019-08-17T10:57:10Z</time>
      </trkpt>
      <trkpt lat="42.96033" lon="0.84285">
        <ele>1577.4</ele>
        <time>2019-08-17T10:57:11Z</time>
      </trkpt>
      <trkpt lat="42.96033" lon="0.84285">
        <ele>1577.4</ele>
        <time>2019-08-17T10:57:12Z</time>
      </trkpt>
      <trkpt lat="42.96032" lon="0.84284">
        <ele>1577.4</ele>
        <time>2019-08-17T10:57:13Z</time>
      </trkpt>
      <trkpt lat="42.96032" lon="0.84283">
        <ele>1577.6</ele>
        <time>2019-08-17T10:57:14Z</time>
      </trkpt>
      <trkpt lat="42.96031" lon="0.84281">
        <ele>1577.5</ele>
        <time>2019-08-17T10:57:15Z</time>
      </trkpt>
      <trkpt lat="42.96031" lon="0.8428">
        <ele>1577.5</ele>
        <time>2019-08-17T10:57:16Z</time>
      </trkpt>
      <trkpt lat="42.96031" lon="0.84279">
        <ele>1577.5</ele>
        <time>2019-08-17T10:57:17Z</time>
      </trkpt>
      <trkpt lat="42.9603" lon="0.84277">
        <ele>1577.5</ele>
        <time>2019-08-17T10:57:18Z</time>
      </trkpt>
      <trkpt lat="42.9603" lon="0.84276">
        <ele>1577.3</ele>
        <time>2019-08-17T10:57:19Z</time>
      </trkpt>
      <trkpt lat="42.96029" lon="0.84275">
        <ele>1577.3</ele>
        <time>2019-08-17T10:57:20Z</time>
      </trkpt>
      <trkpt lat="42.96029" lon="0.84274">
        <ele>1577.5</ele>
        <time>2019-08-17T10:57:21Z</time>
      </trkpt>
      <trkpt lat="42.96028" lon="0.84273">
        <ele>1577.3</ele>
        <time>2019-08-17T10:57:22Z</time>
      </trkpt>
      <trkpt lat="42.96027" lon="0.84271">
        <ele>1577.3</ele>
        <time>2019-08-17T10:57:23Z</time>
      </trkpt>
      <trkpt lat="42.96027" lon="0.8427">
        <ele>1577.3</ele>
        <time>2019-08-17T10:57:24Z</time>
      </trkpt>
      <trkpt lat="42.96026" lon="0.84269">
        <ele>1577.3</ele>
        <time>2019-08-17T10:57:25Z</time>
      </trkpt>
      <trkpt lat="42.96026" lon="0.84268">
        <ele>1577.1</ele>
        <time>2019-08-17T10:57:26Z</time>
      </trkpt>
      <trkpt lat="42.96025" lon="0.84267">
        <ele>1577.2</ele>
        <time>2019-08-17T10:57:27Z</time>
      </trkpt>
      <trkpt lat="42.96024" lon="0.84266">
        <ele>1577.2</ele>
        <time>2019-08-17T10:57:28Z</time>
      </trkpt>
      <trkpt lat="42.96024" lon="0.84265">
        <ele>1577.2</ele>
        <time>2019-08-17T10:57:29Z</time>
      </trkpt>
      <trkpt lat="42.96023" lon="0.84265">
        <ele>1577.2</ele>
        <time>2019-08-17T10:57:30Z</time>
      </trkpt>
      <trkpt lat="42.96022" lon="0.84265">
        <ele>1577.3</ele>
        <time>2019-08-17T10:57:31Z</time>
      </trkpt>
      <trkpt lat="42.96022" lon="0.84264">
        <ele>1577.1</ele>
        <time>2019-08-17T10:57:32Z</time>
      </trkpt>
      <trkpt lat="42.96021" lon="0.84263">
        <ele>1577.1</ele>
        <time>2019-08-17T10:57:33Z</time>
      </trkpt>
      <trkpt lat="42.96021" lon="0.84261">
        <ele>1577.1</ele>
        <time>2019-08-17T10:57:34Z</time>
      </trkpt>
      <trkpt lat="42.9602" lon="0.84259">
        <ele>1576.8</ele>
        <time>2019-08-17T10:57:35Z</time>
      </trkpt>
      <trkpt lat="42.9602" lon="0.84258">
        <ele>1576.8</ele>
        <time>2019-08-17T10:57:36Z</time>
      </trkpt>
      <trkpt lat="42.96019" lon="0.84256">
        <ele>1576.8</ele>
        <time>2019-08-17T10:57:37Z</time>
      </trkpt>
      <trkpt lat="42.96019" lon="0.84255">
        <ele>1576.5</ele>
        <time>2019-08-17T10:57:38Z</time>
      </trkpt>
      <trkpt lat="42.96018" lon="0.84254">
        <ele>1576.5</ele>
        <time>2019-08-17T10:57:39Z</time>
      </trkpt>
      <trkpt lat="42.96018" lon="0.84253">
        <ele>1576.5</ele>
        <time>2019-08-17T10:57:40Z</time>
      </trkpt>
      <trkpt lat="42.96017" lon="0.84253">
        <ele>1576.5</ele>
        <time>2019-08-17T10:57:41Z</time>
      </trkpt>
      <trkpt lat="42.96017" lon="0.84252">
        <ele>1576.5</ele>
        <time>2019-08-17T10:57:42Z</time>
      </trkpt>
      <trkpt lat="42.96016" lon="0.84251">
        <ele>1576.1</ele>
        <time>2019-08-17T10:57:43Z</time>
      </trkpt>
      <trkpt lat="42.96015" lon="0.8425">
        <ele>1576.1</ele>
        <time>2019-08-17T10:57:44Z</time>
      </trkpt>
      <trkpt lat="42.96015" lon="0.84249">
        <ele>1576.1</ele>
        <time>2019-08-17T10:57:45Z</time>
      </trkpt>
      <trkpt lat="42.96014" lon="0.84248">
        <ele>1576.1</ele>
        <time>2019-08-17T10:57:46Z</time>
      </trkpt>
      <trkpt lat="42.96014" lon="0.84247">
        <ele>1575.8</ele>
        <time>2019-08-17T10:57:47Z</time>
      </trkpt>
      <trkpt lat="42.96014" lon="0.84245">
        <ele>1575.8</ele>
        <time>2019-08-17T10:57:48Z</time>
      </trkpt>
      <trkpt lat="42.96013" lon="0.84244">
        <ele>1575.8</ele>
        <time>2019-08-17T10:57:49Z</time>
      </trkpt>
      <trkpt lat="42.96013" lon="0.84243">
        <ele>1575.4</ele>
        <time>2019-08-17T10:57:50Z</time>
      </trkpt>
      <trkpt lat="42.96013" lon="0.84241">
        <ele>1575.4</ele>
        <time>2019-08-17T10:57:51Z</time>
      </trkpt>
      <trkpt lat="42.96013" lon="0.84239">
        <ele>1575.4</ele>
        <time>2019-08-17T10:57:52Z</time>
      </trkpt>
      <trkpt lat="42.96013" lon="0.84238">
        <ele>1575.1</ele>
        <time>2019-08-17T10:57:53Z</time>
      </trkpt>
      <trkpt lat="42.96013" lon="0.84236">
        <ele>1575.1</ele>
        <time>2019-08-17T10:57:54Z</time>
      </trkpt>
      <trkpt lat="42.96012" lon="0.84234">
        <ele>1575.1</ele>
        <time>2019-08-17T10:57:55Z</time>
      </trkpt>
      <trkpt lat="42.96012" lon="0.84233">
        <ele>1574.8</ele>
        <time>2019-08-17T10:57:56Z</time>
      </trkpt>
      <trkpt lat="42.96011" lon="0.84231">
        <ele>1574.8</ele>
        <time>2019-08-17T10:57:57Z</time>
      </trkpt>
      <trkpt lat="42.9601" lon="0.84229">
        <ele>1574.4</ele>
        <time>2019-08-17T10:57:58Z</time>
      </trkpt>
      <trkpt lat="42.9601" lon="0.84228">
        <ele>1574.5</ele>
        <time>2019-08-17T10:57:59Z</time>
      </trkpt>
      <trkpt lat="42.96009" lon="0.84227">
        <ele>1574.5</ele>
        <time>2019-08-17T10:58:00Z</time>
      </trkpt>
      <trkpt lat="42.96008" lon="0.84226">
        <ele>1574.2</ele>
        <time>2019-08-17T10:58:01Z</time>
      </trkpt>
      <trkpt lat="42.96007" lon="0.84225">
        <ele>1574.2</ele>
        <time>2019-08-17T10:58:02Z</time>
      </trkpt>
      <trkpt lat="42.96006" lon="0.84224">
        <ele>1574.3</ele>
        <time>2019-08-17T10:58:03Z</time>
      </trkpt>
      <trkpt lat="42.96005" lon="0.84223">
        <ele>1574.3</ele>
        <time>2019-08-17T10:58:04Z</time>
      </trkpt>
      <trkpt lat="42.96004" lon="0.84222">
        <ele>1574.3</ele>
        <time>2019-08-17T10:58:05Z</time>
      </trkpt>
      <trkpt lat="42.96003" lon="0.8422">
        <ele>1574.1</ele>
        <time>2019-08-17T10:58:06Z</time>
      </trkpt>
      <trkpt lat="42.96002" lon="0.84219">
        <ele>1574.1</ele>
        <time>2019-08-17T10:58:07Z</time>
      </trkpt>
      <trkpt lat="42.96001" lon="0.84218">
        <ele>1574.1</ele>
        <time>2019-08-17T10:58:08Z</time>
      </trkpt>
      <trkpt lat="42.96" lon="0.84217">
        <ele>1573.8</ele>
        <time>2019-08-17T10:58:09Z</time>
      </trkpt>
      <trkpt lat="42.96" lon="0.84215">
        <ele>1574</ele>
        <time>2019-08-17T10:58:10Z</time>
      </trkpt>
      <trkpt lat="42.95999" lon="0.84214">
        <ele>1574</ele>
        <time>2019-08-17T10:58:11Z</time>
      </trkpt>
      <trkpt lat="42.95998" lon="0.84212">
        <ele>1573.7</ele>
        <time>2019-08-17T10:58:12Z</time>
      </trkpt>
      <trkpt lat="42.95997" lon="0.84211">
        <ele>1573.7</ele>
        <time>2019-08-17T10:58:13Z</time>
      </trkpt>
      <trkpt lat="42.95997" lon="0.8421">
        <ele>1573.8</ele>
        <time>2019-08-17T10:58:14Z</time>
      </trkpt>
      <trkpt lat="42.95996" lon="0.84208">
        <ele>1573.5</ele>
        <time>2019-08-17T10:58:15Z</time>
      </trkpt>
      <trkpt lat="42.95995" lon="0.84207">
        <ele>1573.5</ele>
        <time>2019-08-17T10:58:16Z</time>
      </trkpt>
      <trkpt lat="42.95995" lon="0.84206">
        <ele>1573.5</ele>
        <time>2019-08-17T10:58:17Z</time>
      </trkpt>
      <trkpt lat="42.95994" lon="0.84204">
        <ele>1573.7</ele>
        <time>2019-08-17T10:58:18Z</time>
      </trkpt>
      <trkpt lat="42.95993" lon="0.84203">
        <ele>1573.4</ele>
        <time>2019-08-17T10:58:19Z</time>
      </trkpt>
      <trkpt lat="42.95993" lon="0.84202">
        <ele>1573.4</ele>
        <time>2019-08-17T10:58:20Z</time>
      </trkpt>
      <trkpt lat="42.95992" lon="0.842">
        <ele>1573.4</ele>
        <time>2019-08-17T10:58:21Z</time>
      </trkpt>
      <trkpt lat="42.95992" lon="0.84199">
        <ele>1573.1</ele>
        <time>2019-08-17T10:58:22Z</time>
      </trkpt>
      <trkpt lat="42.95991" lon="0.84198">
        <ele>1573.2</ele>
        <time>2019-08-17T10:58:23Z</time>
      </trkpt>
      <trkpt lat="42.95991" lon="0.84197">
        <ele>1573.2</ele>
        <time>2019-08-17T10:58:24Z</time>
      </trkpt>
      <trkpt lat="42.95991" lon="0.84196">
        <ele>1573.3</ele>
        <time>2019-08-17T10:58:25Z</time>
      </trkpt>
      <trkpt lat="42.95991" lon="0.84196">
        <ele>1572.9</ele>
        <time>2019-08-17T10:58:26Z</time>
      </trkpt>
      <trkpt lat="42.95991" lon="0.84195">
        <ele>1572.9</ele>
        <time>2019-08-17T10:58:27Z</time>
      </trkpt>
      <trkpt lat="42.95991" lon="0.84195">
        <ele>1572.9</ele>
        <time>2019-08-17T10:58:28Z</time>
      </trkpt>
      <trkpt lat="42.95992" lon="0.84194">
        <ele>1572.9</ele>
        <time>2019-08-17T10:58:29Z</time>
      </trkpt>
      <trkpt lat="42.95992" lon="0.84193">
        <ele>1572.9</ele>
        <time>2019-08-17T10:58:30Z</time>
      </trkpt>
      <trkpt lat="42.95992" lon="0.84192">
        <ele>1573</ele>
        <time>2019-08-17T10:58:31Z</time>
      </trkpt>
      <trkpt lat="42.95992" lon="0.84191">
        <ele>1572.8</ele>
        <time>2019-08-17T10:58:32Z</time>
      </trkpt>
      <trkpt lat="42.95992" lon="0.8419">
        <ele>1572.8</ele>
        <time>2019-08-17T10:58:33Z</time>
      </trkpt>
      <trkpt lat="42.95992" lon="0.84189">
        <ele>1572.8</ele>
        <time>2019-08-17T10:58:34Z</time>
      </trkpt>
      <trkpt lat="42.95992" lon="0.84187">
        <ele>1572.8</ele>
        <time>2019-08-17T10:58:35Z</time>
      </trkpt>
      <trkpt lat="42.95993" lon="0.84186">
        <ele>1572.6</ele>
        <time>2019-08-17T10:58:36Z</time>
      </trkpt>
      <trkpt lat="42.95993" lon="0.84185">
        <ele>1572.6</ele>
        <time>2019-08-17T10:58:37Z</time>
      </trkpt>
      <trkpt lat="42.95993" lon="0.84183">
        <ele>1572.6</ele>
        <time>2019-08-17T10:58:38Z</time>
      </trkpt>
      <trkpt lat="42.95993" lon="0.84182">
        <ele>1572.4</ele>
        <time>2019-08-17T10:58:39Z</time>
      </trkpt>
      <trkpt lat="42.95994" lon="0.8418">
        <ele>1572.4</ele>
        <time>2019-08-17T10:58:40Z</time>
      </trkpt>
      <trkpt lat="42.95994" lon="0.84179">
        <ele>1572.4</ele>
        <time>2019-08-17T10:58:41Z</time>
      </trkpt>
      <trkpt lat="42.95994" lon="0.84178">
        <ele>1572.2</ele>
        <time>2019-08-17T10:58:42Z</time>
      </trkpt>
      <trkpt lat="42.95993" lon="0.84176">
        <ele>1572.2</ele>
        <time>2019-08-17T10:58:43Z</time>
      </trkpt>
      <trkpt lat="42.95993" lon="0.84175">
        <ele>1572.2</ele>
        <time>2019-08-17T10:58:44Z</time>
      </trkpt>
      <trkpt lat="42.95992" lon="0.84174">
        <ele>1571.9</ele>
        <time>2019-08-17T10:58:45Z</time>
      </trkpt>
      <trkpt lat="42.95991" lon="0.84172">
        <ele>1571.9</ele>
        <time>2019-08-17T10:58:46Z</time>
      </trkpt>
      <trkpt lat="42.95991" lon="0.84171">
        <ele>1572.1</ele>
        <time>2019-08-17T10:58:47Z</time>
      </trkpt>
      <trkpt lat="42.9599" lon="0.8417">
        <ele>1571.9</ele>
        <time>2019-08-17T10:58:48Z</time>
      </trkpt>
      <trkpt lat="42.95989" lon="0.84168">
        <ele>1572</ele>
        <time>2019-08-17T10:58:49Z</time>
      </trkpt>
      <trkpt lat="42.95989" lon="0.84167">
        <ele>1572</ele>
        <time>2019-08-17T10:58:50Z</time>
      </trkpt>
      <trkpt lat="42.95988" lon="0.84166">
        <ele>1572.2</ele>
        <time>2019-08-17T10:58:51Z</time>
      </trkpt>
      <trkpt lat="42.95987" lon="0.84165">
        <ele>1572</ele>
        <time>2019-08-17T10:58:52Z</time>
      </trkpt>
      <trkpt lat="42.95986" lon="0.84164">
        <ele>1571.9</ele>
        <time>2019-08-17T10:58:53Z</time>
      </trkpt>
      <trkpt lat="42.95985" lon="0.84162">
        <ele>1572</ele>
        <time>2019-08-17T10:58:54Z</time>
      </trkpt>
      <trkpt lat="42.95984" lon="0.84161">
        <ele>1572.1</ele>
        <time>2019-08-17T10:58:55Z</time>
      </trkpt>
      <trkpt lat="42.95983" lon="0.8416">
        <ele>1571.9</ele>
        <time>2019-08-17T10:58:56Z</time>
      </trkpt>
      <trkpt lat="42.95982" lon="0.8416">
        <ele>1571.9</ele>
        <time>2019-08-17T10:58:57Z</time>
      </trkpt>
      <trkpt lat="42.95981" lon="0.84159">
        <ele>1572.1</ele>
        <time>2019-08-17T10:58:58Z</time>
      </trkpt>
      <trkpt lat="42.9598" lon="0.84158">
        <ele>1572.1</ele>
        <time>2019-08-17T10:58:59Z</time>
      </trkpt>
      <trkpt lat="42.9598" lon="0.84157">
        <ele>1572.1</ele>
        <time>2019-08-17T10:59:00Z</time>
      </trkpt>
      <trkpt lat="42.95979" lon="0.84156">
        <ele>1572</ele>
        <time>2019-08-17T10:59:01Z</time>
      </trkpt>
      <trkpt lat="42.95978" lon="0.84156">
        <ele>1572.1</ele>
        <time>2019-08-17T10:59:02Z</time>
      </trkpt>
      <trkpt lat="42.95977" lon="0.84155">
        <ele>1572.1</ele>
        <time>2019-08-17T10:59:03Z</time>
      </trkpt>
      <trkpt lat="42.95976" lon="0.84154">
        <ele>1572.2</ele>
        <time>2019-08-17T10:59:04Z</time>
      </trkpt>
      <trkpt lat="42.95976" lon="0.84154">
        <ele>1572.2</ele>
        <time>2019-08-17T10:59:05Z</time>
      </trkpt>
      <trkpt lat="42.95975" lon="0.84153">
        <ele>1572.3</ele>
        <time>2019-08-17T10:59:06Z</time>
      </trkpt>
      <trkpt lat="42.95975" lon="0.84153">
        <ele>1572.3</ele>
        <time>2019-08-17T10:59:07Z</time>
      </trkpt>
      <trkpt lat="42.95975" lon="0.84153">
        <ele>1572.3</ele>
        <time>2019-08-17T10:59:08Z</time>
      </trkpt>
      <trkpt lat="42.95974" lon="0.84153">
        <ele>1572.2</ele>
        <time>2019-08-17T10:59:09Z</time>
      </trkpt>
      <trkpt lat="42.95974" lon="0.84153">
        <ele>1572.2</ele>
        <time>2019-08-17T10:59:10Z</time>
      </trkpt>
      <trkpt lat="42.95974" lon="0.84153">
        <ele>1572.2</ele>
        <time>2019-08-17T10:59:11Z</time>
      </trkpt>
      <trkpt lat="42.95974" lon="0.84153">
        <ele>1572.3</ele>
        <time>2019-08-17T10:59:12Z</time>
      </trkpt>
      <trkpt lat="42.95974" lon="0.84153">
        <ele>1572.3</ele>
        <time>2019-08-17T10:59:13Z</time>
      </trkpt>
      <trkpt lat="42.95974" lon="0.84152">
        <ele>1572.3</ele>
        <time>2019-08-17T10:59:14Z</time>
      </trkpt>
      <trkpt lat="42.95973" lon="0.84152">
        <ele>1572.3</ele>
        <time>2019-08-17T10:59:15Z</time>
      </trkpt>
      <trkpt lat="42.95973" lon="0.84152">
        <ele>1572.3</ele>
        <time>2019-08-17T10:59:16Z</time>
      </trkpt>
      <trkpt lat="42.95972" lon="0.84152">
        <ele>1572.3</ele>
        <time>2019-08-17T10:59:17Z</time>
      </trkpt>
      <trkpt lat="42.95972" lon="0.84152">
        <ele>1572.4</ele>
        <time>2019-08-17T10:59:18Z</time>
      </trkpt>
      <trkpt lat="42.95971" lon="0.84151">
        <ele>1572.5</ele>
        <time>2019-08-17T10:59:19Z</time>
      </trkpt>
      <trkpt lat="42.9597" lon="0.84151">
        <ele>1572.5</ele>
        <time>2019-08-17T10:59:20Z</time>
      </trkpt>
      <trkpt lat="42.95969" lon="0.8415">
        <ele>1572.5</ele>
        <time>2019-08-17T10:59:21Z</time>
      </trkpt>
      <trkpt lat="42.95968" lon="0.84149">
        <ele>1572.5</ele>
        <time>2019-08-17T10:59:22Z</time>
      </trkpt>
      <trkpt lat="42.95967" lon="0.84148">
        <ele>1572.4</ele>
        <time>2019-08-17T10:59:23Z</time>
      </trkpt>
      <trkpt lat="42.95967" lon="0.84147">
        <ele>1572.4</ele>
        <time>2019-08-17T10:59:24Z</time>
      </trkpt>
      <trkpt lat="42.95966" lon="0.84146">
        <ele>1572.5</ele>
        <time>2019-08-17T10:59:25Z</time>
      </trkpt>
      <trkpt lat="42.95965" lon="0.84145">
        <ele>1572.5</ele>
        <time>2019-08-17T10:59:26Z</time>
      </trkpt>
      <trkpt lat="42.95964" lon="0.84144">
        <ele>1572.5</ele>
        <time>2019-08-17T10:59:27Z</time>
      </trkpt>
      <trkpt lat="42.95963" lon="0.84144">
        <ele>1572.4</ele>
        <time>2019-08-17T10:59:28Z</time>
      </trkpt>
      <trkpt lat="42.95962" lon="0.84143">
        <ele>1572.4</ele>
        <time>2019-08-17T10:59:29Z</time>
      </trkpt>
      <trkpt lat="42.95961" lon="0.84142">
        <ele>1572.4</ele>
        <time>2019-08-17T10:59:30Z</time>
      </trkpt>
      <trkpt lat="42.9596" lon="0.84142">
        <ele>1572.4</ele>
        <time>2019-08-17T10:59:31Z</time>
      </trkpt>
      <trkpt lat="42.95959" lon="0.84141">
        <ele>1572.4</ele>
        <time>2019-08-17T10:59:32Z</time>
      </trkpt>
      <trkpt lat="42.95958" lon="0.84141">
        <ele>1572.4</ele>
        <time>2019-08-17T10:59:33Z</time>
      </trkpt>
      <trkpt lat="42.95957" lon="0.8414">
        <ele>1572.4</ele>
        <time>2019-08-17T10:59:34Z</time>
      </trkpt>
      <trkpt lat="42.95956" lon="0.8414">
        <ele>1572.3</ele>
        <time>2019-08-17T10:59:35Z</time>
      </trkpt>
      <trkpt lat="42.95955" lon="0.8414">
        <ele>1572.2</ele>
        <time>2019-08-17T10:59:36Z</time>
      </trkpt>
      <trkpt lat="42.95953" lon="0.84139">
        <ele>1572.1</ele>
        <time>2019-08-17T10:59:37Z</time>
      </trkpt>
      <trkpt lat="42.95952" lon="0.84139">
        <ele>1572</ele>
        <time>2019-08-17T10:59:38Z</time>
      </trkpt>
      <trkpt lat="42.95951" lon="0.84138">
        <ele>1572</ele>
        <time>2019-08-17T10:59:39Z</time>
      </trkpt>
      <trkpt lat="42.9595" lon="0.84138">
        <ele>1571.9</ele>
        <time>2019-08-17T10:59:40Z</time>
      </trkpt>
      <trkpt lat="42.95949" lon="0.84137">
        <ele>1571.8</ele>
        <time>2019-08-17T10:59:41Z</time>
      </trkpt>
      <trkpt lat="42.95949" lon="0.84137">
        <ele>1571.8</ele>
        <time>2019-08-17T10:59:42Z</time>
      </trkpt>
      <trkpt lat="42.95948" lon="0.84137">
        <ele>1571.7</ele>
        <time>2019-08-17T10:59:43Z</time>
      </trkpt>
      <trkpt lat="42.95947" lon="0.84136">
        <ele>1571.7</ele>
        <time>2019-08-17T10:59:44Z</time>
      </trkpt>
      <trkpt lat="42.95946" lon="0.84136">
        <ele>1571.6</ele>
        <time>2019-08-17T10:59:45Z</time>
      </trkpt>
      <trkpt lat="42.95946" lon="0.84136">
        <ele>1571.6</ele>
        <time>2019-08-17T10:59:46Z</time>
      </trkpt>
      <trkpt lat="42.95945" lon="0.84136">
        <ele>1571.6</ele>
        <time>2019-08-17T10:59:47Z</time>
      </trkpt>
      <trkpt lat="42.95945" lon="0.84136">
        <ele>1571.5</ele>
        <time>2019-08-17T10:59:48Z</time>
      </trkpt>
      <trkpt lat="42.95944" lon="0.84136">
        <ele>1571.5</ele>
        <time>2019-08-17T10:59:49Z</time>
      </trkpt>
      <trkpt lat="42.95944" lon="0.84136">
        <ele>1571.5</ele>
        <time>2019-08-17T10:59:50Z</time>
      </trkpt>
      <trkpt lat="42.95943" lon="0.84136">
        <ele>1571.5</ele>
        <time>2019-08-17T10:59:51Z</time>
      </trkpt>
      <trkpt lat="42.95943" lon="0.84136">
        <ele>1571.4</ele>
        <time>2019-08-17T10:59:52Z</time>
      </trkpt>
      <trkpt lat="42.95942" lon="0.84136">
        <ele>1571.4</ele>
        <time>2019-08-17T10:59:53Z</time>
      </trkpt>
      <trkpt lat="42.9594" lon="0.84136">
        <ele>1571.3</ele>
        <time>2019-08-17T10:59:54Z</time>
      </trkpt>
      <trkpt lat="42.9594" lon="0.84136">
        <ele>1571.3</ele>
        <time>2019-08-17T10:59:55Z</time>
      </trkpt>
      <trkpt lat="42.95939" lon="0.84136">
        <ele>1571.3</ele>
        <time>2019-08-17T10:59:56Z</time>
      </trkpt>
      <trkpt lat="42.95938" lon="0.84136">
        <ele>1571.3</ele>
        <time>2019-08-17T10:59:57Z</time>
      </trkpt>
      <trkpt lat="42.95938" lon="0.84136">
        <ele>1571.3</ele>
        <time>2019-08-17T10:59:58Z</time>
      </trkpt>
      <trkpt lat="42.95937" lon="0.84136">
        <ele>1571.3</ele>
        <time>2019-08-17T10:59:59Z</time>
      </trkpt>
      <trkpt lat="42.95936" lon="0.84135">
        <ele>1571.3</ele>
        <time>2019-08-17T11:00:00Z</time>
      </trkpt>
      <trkpt lat="42.95935" lon="0.84134">
        <ele>1571.3</ele>
        <time>2019-08-17T11:00:01Z</time>
      </trkpt>
      <trkpt lat="42.95934" lon="0.84133">
        <ele>1571.3</ele>
        <time>2019-08-17T11:00:02Z</time>
      </trkpt>
      <trkpt lat="42.95934" lon="0.84133">
        <ele>1571.2</ele>
        <time>2019-08-17T11:00:03Z</time>
      </trkpt>
      <trkpt lat="42.95933" lon="0.84132">
        <ele>1571.1</ele>
        <time>2019-08-17T11:00:04Z</time>
      </trkpt>
      <trkpt lat="42.95932" lon="0.84131">
        <ele>1571</ele>
        <time>2019-08-17T11:00:05Z</time>
      </trkpt>
      <trkpt lat="42.95931" lon="0.8413">
        <ele>1570.9</ele>
        <time>2019-08-17T11:00:06Z</time>
      </trkpt>
      <trkpt lat="42.9593" lon="0.84129">
        <ele>1570.7</ele>
        <time>2019-08-17T11:00:07Z</time>
      </trkpt>
      <trkpt lat="42.95929" lon="0.84128">
        <ele>1570.6</ele>
        <time>2019-08-17T11:00:08Z</time>
      </trkpt>
      <trkpt lat="42.95928" lon="0.84127">
        <ele>1570.5</ele>
        <time>2019-08-17T11:00:09Z</time>
      </trkpt>
      <trkpt lat="42.95927" lon="0.84126">
        <ele>1570.4</ele>
        <time>2019-08-17T11:00:10Z</time>
      </trkpt>
      <trkpt lat="42.95926" lon="0.84125">
        <ele>1570.3</ele>
        <time>2019-08-17T11:00:11Z</time>
      </trkpt>
      <trkpt lat="42.95925" lon="0.84124">
        <ele>1570.1</ele>
        <time>2019-08-17T11:00:12Z</time>
      </trkpt>
      <trkpt lat="42.95924" lon="0.84123">
        <ele>1570</ele>
        <time>2019-08-17T11:00:13Z</time>
      </trkpt>
      <trkpt lat="42.95923" lon="0.84122">
        <ele>1569.9</ele>
        <time>2019-08-17T11:00:14Z</time>
      </trkpt>
      <trkpt lat="42.95922" lon="0.84122">
        <ele>1569.8</ele>
        <time>2019-08-17T11:00:15Z</time>
      </trkpt>
      <trkpt lat="42.95921" lon="0.84121">
        <ele>1569.8</ele>
        <time>2019-08-17T11:00:16Z</time>
      </trkpt>
      <trkpt lat="42.9592" lon="0.8412">
        <ele>1569.8</ele>
        <time>2019-08-17T11:00:17Z</time>
      </trkpt>
      <trkpt lat="42.95919" lon="0.8412">
        <ele>1569.7</ele>
        <time>2019-08-17T11:00:18Z</time>
      </trkpt>
      <trkpt lat="42.95918" lon="0.84119">
        <ele>1569.7</ele>
        <time>2019-08-17T11:00:19Z</time>
      </trkpt>
      <trkpt lat="42.95917" lon="0.84119">
        <ele>1569.7</ele>
        <time>2019-08-17T11:00:20Z</time>
      </trkpt>
      <trkpt lat="42.95915" lon="0.84118">
        <ele>1569.7</ele>
        <time>2019-08-17T11:00:21Z</time>
      </trkpt>
      <trkpt lat="42.95914" lon="0.84118">
        <ele>1569.6</ele>
        <time>2019-08-17T11:00:22Z</time>
      </trkpt>
      <trkpt lat="42.95913" lon="0.84118">
        <ele>1569.5</ele>
        <time>2019-08-17T11:00:23Z</time>
      </trkpt>
      <trkpt lat="42.95912" lon="0.84117">
        <ele>1569.4</ele>
        <time>2019-08-17T11:00:24Z</time>
      </trkpt>
      <trkpt lat="42.95911" lon="0.84117">
        <ele>1569.3</ele>
        <time>2019-08-17T11:00:25Z</time>
      </trkpt>
      <trkpt lat="42.9591" lon="0.84117">
        <ele>1569.2</ele>
        <time>2019-08-17T11:00:26Z</time>
      </trkpt>
      <trkpt lat="42.95909" lon="0.84118">
        <ele>1569.2</ele>
        <time>2019-08-17T11:00:27Z</time>
      </trkpt>
      <trkpt lat="42.95909" lon="0.84118">
        <ele>1569.2</ele>
        <time>2019-08-17T11:00:28Z</time>
      </trkpt>
      <trkpt lat="42.95909" lon="0.84118">
        <ele>1569.1</ele>
        <time>2019-08-17T11:00:29Z</time>
      </trkpt>
      <trkpt lat="42.95909" lon="0.84118">
        <ele>1569.1</ele>
        <time>2019-08-17T11:00:30Z</time>
      </trkpt>
      <trkpt lat="42.95909" lon="0.84118">
        <ele>1569.1</ele>
        <time>2019-08-17T11:00:31Z</time>
      </trkpt>
      <trkpt lat="42.95909" lon="0.84118">
        <ele>1569.1</ele>
        <time>2019-08-17T11:00:32Z</time>
      </trkpt>
      <trkpt lat="42.95909" lon="0.84118">
        <ele>1569.1</ele>
        <time>2019-08-17T11:00:33Z</time>
      </trkpt>
      <trkpt lat="42.95909" lon="0.84118">
        <ele>1569.1</ele>
        <time>2019-08-17T11:00:34Z</time>
      </trkpt>
      <trkpt lat="42.95909" lon="0.84118">
        <ele>1569.1</ele>
        <time>2019-08-17T11:00:35Z</time>
      </trkpt>
      <trkpt lat="42.95909" lon="0.84118">
        <ele>1569.1</ele>
        <time>2019-08-17T11:00:36Z</time>
      </trkpt>
      <trkpt lat="42.95909" lon="0.84118">
        <ele>1569.1</ele>
        <time>2019-08-17T11:00:37Z</time>
      </trkpt>
      <trkpt lat="42.95909" lon="0.84118">
        <ele>1569.1</ele>
        <time>2019-08-17T11:00:38Z</time>
      </trkpt>
      <trkpt lat="42.95909" lon="0.84118">
        <ele>1569.1</ele>
        <time>2019-08-17T11:00:39Z</time>
      </trkpt>
      <trkpt lat="42.95909" lon="0.84118">
        <ele>1569.1</ele>
        <time>2019-08-17T11:00:40Z</time>
      </trkpt>
      <trkpt lat="42.95909" lon="0.84118">
        <ele>1569.1</ele>
        <time>2019-08-17T11:00:41Z</time>
      </trkpt>
      <trkpt lat="42.95909" lon="0.84118">
        <ele>1569.1</ele>
        <time>2019-08-17T11:00:42Z</time>
      </trkpt>
      <trkpt lat="42.95909" lon="0.84118">
        <ele>1569.1</ele>
        <time>2019-08-17T11:00:43Z</time>
      </trkpt>
      <trkpt lat="42.95909" lon="0.84118">
        <ele>1569.1</ele>
        <time>2019-08-17T11:00:44Z</time>
      </trkpt>
      <trkpt lat="42.95909" lon="0.84118">
        <ele>1569.1</ele>
        <time>2019-08-17T11:00:45Z</time>
      </trkpt>
      <trkpt lat="42.95909" lon="0.84118">
        <ele>1569.1</ele>
        <time>2019-08-17T11:00:46Z</time>
      </trkpt>
      <trkpt lat="42.95909" lon="0.84118">
        <ele>1569.1</ele>
        <time>2019-08-17T11:00:47Z</time>
      </trkpt>
      <trkpt lat="42.95909" lon="0.84118">
        <ele>1569.1</ele>
        <time>2019-08-17T11:00:48Z</time>
      </trkpt>
      <trkpt lat="42.95909" lon="0.84118">
        <ele>1569.1</ele>
        <time>2019-08-17T11:00:49Z</time>
      </trkpt>
      <trkpt lat="42.95909" lon="0.84118">
        <ele>1569.1</ele>
        <time>2019-08-17T11:00:50Z</time>
      </trkpt>
      <trkpt lat="42.95909" lon="0.84118">
        <ele>1569.1</ele>
        <time>2019-08-17T11:00:51Z</time>
      </trkpt>
      <trkpt lat="42.95909" lon="0.84118">
        <ele>1569.1</ele>
        <time>2019-08-17T11:00:52Z</time>
      </trkpt>
      <trkpt lat="42.95909" lon="0.84118">
        <ele>1569.1</ele>
        <time>2019-08-17T11:00:53Z</time>
      </trkpt>
      <trkpt lat="42.95909" lon="0.84118">
        <ele>1569.1</ele>
        <time>2019-08-17T11:00:54Z</time>
      </trkpt>
      <trkpt lat="42.95909" lon="0.84118">
        <ele>1569.1</ele>
        <time>2019-08-17T11:00:55Z</time>
      </trkpt>
      <trkpt lat="42.95909" lon="0.84118">
        <ele>1569.1</ele>
        <time>2019-08-17T11:00:56Z</time>
      </trkpt>
      <trkpt lat="42.95909" lon="0.84118">
        <ele>1569.1</ele>
        <time>2019-08-17T11:00:57Z</time>
      </trkpt>
      <trkpt lat="42.95909" lon="0.84118">
        <ele>1569.1</ele>
        <time>2019-08-17T11:00:58Z</time>
      </trkpt>
      <trkpt lat="42.95909" lon="0.84118">
        <ele>1569.1</ele>
        <time>2019-08-17T11:00:59Z</time>
      </trkpt>
      <trkpt lat="42.95909" lon="0.84118">
        <ele>1569.1</ele>
        <time>2019-08-17T11:01:00Z</time>
      </trkpt>
      <trkpt lat="42.95909" lon="0.84118">
        <ele>1569.1</ele>
        <time>2019-08-17T11:01:01Z</time>
      </trkpt>
      <trkpt lat="42.95909" lon="0.84118">
        <ele>1569.1</ele>
        <time>2019-08-17T11:01:02Z</time>
      </trkpt>
      <trkpt lat="42.95909" lon="0.84118">
        <ele>1569.1</ele>
        <time>2019-08-17T11:01:03Z</time>
      </trkpt>
      <trkpt lat="42.95909" lon="0.84118">
        <ele>1569.1</ele>
        <time>2019-08-17T11:01:04Z</time>
      </trkpt>
      <trkpt lat="42.95909" lon="0.84118">
        <ele>1569.1</ele>
        <time>2019-08-17T11:01:05Z</time>
      </trkpt>
      <trkpt lat="42.95909" lon="0.84118">
        <ele>1569.1</ele>
        <time>2019-08-17T11:01:06Z</time>
      </trkpt>
      <trkpt lat="42.95909" lon="0.84118">
        <ele>1569.1</ele>
        <time>2019-08-17T11:01:07Z</time>
      </trkpt>
      <trkpt lat="42.95909" lon="0.84118">
        <ele>1569.1</ele>
        <time>2019-08-17T11:01:08Z</time>
      </trkpt>
      <trkpt lat="42.95909" lon="0.84118">
        <ele>1569.1</ele>
        <time>2019-08-17T11:01:09Z</time>
      </trkpt>
      <trkpt lat="42.95909" lon="0.84118">
        <ele>1569.1</ele>
        <time>2019-08-17T11:01:10Z</time>
      </trkpt>
      <trkpt lat="42.95909" lon="0.84118">
        <ele>1569.1</ele>
        <time>2019-08-17T11:01:11Z</time>
      </trkpt>
      <trkpt lat="42.95909" lon="0.84118">
        <ele>1569.1</ele>
        <time>2019-08-17T11:01:12Z</time>
      </trkpt>
      <trkpt lat="42.95909" lon="0.84118">
        <ele>1569.1</ele>
        <time>2019-08-17T11:01:13Z</time>
      </trkpt>
      <trkpt lat="42.95909" lon="0.84118">
        <ele>1569.1</ele>
        <time>2019-08-17T11:01:14Z</time>
      </trkpt>
      <trkpt lat="42.95909" lon="0.84118">
        <ele>1569.1</ele>
        <time>2019-08-17T11:01:15Z</time>
      </trkpt>
      <trkpt lat="42.95909" lon="0.84118">
        <ele>1569.1</ele>
        <time>2019-08-17T11:01:16Z</time>
      </trkpt>
      <trkpt lat="42.95909" lon="0.84118">
        <ele>1569.1</ele>
        <time>2019-08-17T11:01:17Z</time>
      </trkpt>
      <trkpt lat="42.95909" lon="0.84118">
        <ele>1569.1</ele>
        <time>2019-08-17T11:01:18Z</time>
      </trkpt>
      <trkpt lat="42.95909" lon="0.84118">
        <ele>1569.1</ele>
        <time>2019-08-17T11:01:19Z</time>
      </trkpt>
      <trkpt lat="42.95909" lon="0.84118">
        <ele>1569.1</ele>
        <time>2019-08-17T11:01:20Z</time>
      </trkpt>
      <trkpt lat="42.95909" lon="0.84118">
        <ele>1569.1</ele>
        <time>2019-08-17T11:01:21Z</time>
      </trkpt>
      <trkpt lat="42.95909" lon="0.84118">
        <ele>1569.1</ele>
        <time>2019-08-17T11:01:22Z</time>
      </trkpt>
      <trkpt lat="42.95909" lon="0.84118">
        <ele>1569.1</ele>
        <time>2019-08-17T11:01:23Z</time>
      </trkpt>
      <trkpt lat="42.95909" lon="0.84118">
        <ele>1569.1</ele>
        <time>2019-08-17T11:01:24Z</time>
      </trkpt>
      <trkpt lat="42.95909" lon="0.84118">
        <ele>1569.1</ele>
        <time>2019-08-17T11:01:25Z</time>
      </trkpt>
      <trkpt lat="42.95909" lon="0.84118">
        <ele>1569.1</ele>
        <time>2019-08-17T11:01:26Z</time>
      </trkpt>
      <trkpt lat="42.95909" lon="0.84118">
        <ele>1569.1</ele>
        <time>2019-08-17T11:01:27Z</time>
      </trkpt>
      <trkpt lat="42.95909" lon="0.84118">
        <ele>1569.1</ele>
        <time>2019-08-17T11:01:28Z</time>
      </trkpt>
      <trkpt lat="42.95909" lon="0.84118">
        <ele>1569.1</ele>
        <time>2019-08-17T11:01:29Z</time>
      </trkpt>
      <trkpt lat="42.95909" lon="0.84118">
        <ele>1569.1</ele>
        <time>2019-08-17T11:01:30Z</time>
      </trkpt>
      <trkpt lat="42.95909" lon="0.84118">
        <ele>1569.1</ele>
        <time>2019-08-17T11:01:31Z</time>
      </trkpt>
      <trkpt lat="42.95909" lon="0.84118">
        <ele>1569.1</ele>
        <time>2019-08-17T11:01:32Z</time>
      </trkpt>
      <trkpt lat="42.95909" lon="0.84118">
        <ele>1569.1</ele>
        <time>2019-08-17T11:01:33Z</time>
      </trkpt>
      <trkpt lat="42.95909" lon="0.84118">
        <ele>1569.1</ele>
        <time>2019-08-17T11:01:34Z</time>
      </trkpt>
      <trkpt lat="42.95909" lon="0.84118">
        <ele>1569.1</ele>
        <time>2019-08-17T11:01:35Z</time>
      </trkpt>
      <trkpt lat="42.95909" lon="0.84118">
        <ele>1569.1</ele>
        <time>2019-08-17T11:01:36Z</time>
      </trkpt>
      <trkpt lat="42.95909" lon="0.84118">
        <ele>1569.1</ele>
        <time>2019-08-17T11:01:37Z</time>
      </trkpt>
      <trkpt lat="42.95909" lon="0.84118">
        <ele>1569.1</ele>
        <time>2019-08-17T11:01:38Z</time>
      </trkpt>
      <trkpt lat="42.95909" lon="0.84118">
        <ele>1569.1</ele>
        <time>2019-08-17T11:01:39Z</time>
      </trkpt>
      <trkpt lat="42.95909" lon="0.84118">
        <ele>1569.1</ele>
        <time>2019-08-17T11:01:40Z</time>
      </trkpt>
      <trkpt lat="42.95909" lon="0.84118">
        <ele>1569.1</ele>
        <time>2019-08-17T11:01:41Z</time>
      </trkpt>
      <trkpt lat="42.95909" lon="0.84118">
        <ele>1569.1</ele>
        <time>2019-08-17T11:01:42Z</time>
      </trkpt>
      <trkpt lat="42.95909" lon="0.84118">
        <ele>1569.1</ele>
        <time>2019-08-17T11:01:43Z</time>
      </trkpt>
      <trkpt lat="42.95909" lon="0.84118">
        <ele>1569.1</ele>
        <time>2019-08-17T11:01:44Z</time>
      </trkpt>
      <trkpt lat="42.95909" lon="0.84118">
        <ele>1569.1</ele>
        <time>2019-08-17T11:01:45Z</time>
      </trkpt>
      <trkpt lat="42.95909" lon="0.84118">
        <ele>1569.1</ele>
        <time>2019-08-17T11:01:46Z</time>
      </trkpt>
      <trkpt lat="42.95909" lon="0.84118">
        <ele>1569.1</ele>
        <time>2019-08-17T11:01:47Z</time>
      </trkpt>
      <trkpt lat="42.95909" lon="0.84118">
        <ele>1569.1</ele>
        <time>2019-08-17T11:01:48Z</time>
      </trkpt>
      <trkpt lat="42.95909" lon="0.84118">
        <ele>1569.1</ele>
        <time>2019-08-17T11:01:49Z</time>
      </trkpt>
      <trkpt lat="42.95909" lon="0.84118">
        <ele>1569.1</ele>
        <time>2019-08-17T11:01:50Z</time>
      </trkpt>
      <trkpt lat="42.95909" lon="0.84118">
        <ele>1569.1</ele>
        <time>2019-08-17T11:01:51Z</time>
      </trkpt>
      <trkpt lat="42.95909" lon="0.84118">
        <ele>1569.1</ele>
        <time>2019-08-17T11:01:52Z</time>
      </trkpt>
      <trkpt lat="42.95909" lon="0.84118">
        <ele>1569.1</ele>
        <time>2019-08-17T11:01:53Z</time>
      </trkpt>
      <trkpt lat="42.95909" lon="0.84118">
        <ele>1569.1</ele>
        <time>2019-08-17T11:01:54Z</time>
      </trkpt>
      <trkpt lat="42.95909" lon="0.84118">
        <ele>1569.1</ele>
        <time>2019-08-17T11:01:55Z</time>
      </trkpt>
      <trkpt lat="42.95909" lon="0.84118">
        <ele>1569.1</ele>
        <time>2019-08-17T11:01:56Z</time>
      </trkpt>
      <trkpt lat="42.95909" lon="0.84118">
        <ele>1569.1</ele>
        <time>2019-08-17T11:01:57Z</time>
      </trkpt>
      <trkpt lat="42.95909" lon="0.84118">
        <ele>1569.1</ele>
        <time>2019-08-17T11:01:58Z</time>
      </trkpt>
      <trkpt lat="42.95909" lon="0.84118">
        <ele>1569.1</ele>
        <time>2019-08-17T11:01:59Z</time>
      </trkpt>
      <trkpt lat="42.95909" lon="0.84118">
        <ele>1569.1</ele>
        <time>2019-08-17T11:02:00Z</time>
      </trkpt>
      <trkpt lat="42.95909" lon="0.84118">
        <ele>1569.1</ele>
        <time>2019-08-17T11:02:01Z</time>
      </trkpt>
      <trkpt lat="42.95909" lon="0.84118">
        <ele>1569.1</ele>
        <time>2019-08-17T11:02:02Z</time>
      </trkpt>
      <trkpt lat="42.95909" lon="0.84118">
        <ele>1569.1</ele>
        <time>2019-08-17T11:02:03Z</time>
      </trkpt>
      <trkpt lat="42.95909" lon="0.84118">
        <ele>1569.1</ele>
        <time>2019-08-17T11:02:04Z</time>
      </trkpt>
      <trkpt lat="42.95909" lon="0.84118">
        <ele>1569.1</ele>
        <time>2019-08-17T11:02:05Z</time>
      </trkpt>
      <trkpt lat="42.95909" lon="0.84118">
        <ele>1569.1</ele>
        <time>2019-08-17T11:02:06Z</time>
      </trkpt>
      <trkpt lat="42.95909" lon="0.84118">
        <ele>1569.1</ele>
        <time>2019-08-17T11:02:07Z</time>
      </trkpt>
      <trkpt lat="42.95909" lon="0.84118">
        <ele>1569.1</ele>
        <time>2019-08-17T11:02:08Z</time>
      </trkpt>
      <trkpt lat="42.95909" lon="0.84118">
        <ele>1569.1</ele>
        <time>2019-08-17T11:02:09Z</time>
      </trkpt>
      <trkpt lat="42.95909" lon="0.84118">
        <ele>1569.1</ele>
        <time>2019-08-17T11:02:10Z</time>
      </trkpt>
      <trkpt lat="42.95909" lon="0.84118">
        <ele>1569.1</ele>
        <time>2019-08-17T11:02:11Z</time>
      </trkpt>
      <trkpt lat="42.95909" lon="0.84118">
        <ele>1569.1</ele>
        <time>2019-08-17T11:02:12Z</time>
      </trkpt>
      <trkpt lat="42.95909" lon="0.84118">
        <ele>1569.1</ele>
        <time>2019-08-17T11:02:13Z</time>
      </trkpt>
      <trkpt lat="42.95909" lon="0.84118">
        <ele>1569.1</ele>
        <time>2019-08-17T11:02:14Z</time>
      </trkpt>
      <trkpt lat="42.95909" lon="0.84118">
        <ele>1569.1</ele>
        <time>2019-08-17T11:02:15Z</time>
      </trkpt>
      <trkpt lat="42.95909" lon="0.84118">
        <ele>1569.1</ele>
        <time>2019-08-17T11:02:16Z</time>
      </trkpt>
      <trkpt lat="42.95909" lon="0.84118">
        <ele>1569.1</ele>
        <time>2019-08-17T11:02:17Z</time>
      </trkpt>
      <trkpt lat="42.95909" lon="0.84118">
        <ele>1569.1</ele>
        <time>2019-08-17T11:02:18Z</time>
      </trkpt>
      <trkpt lat="42.95909" lon="0.84118">
        <ele>1569.1</ele>
        <time>2019-08-17T11:02:19Z</time>
      </trkpt>
      <trkpt lat="42.95909" lon="0.84118">
        <ele>1569.1</ele>
        <time>2019-08-17T11:02:20Z</time>
      </trkpt>
      <trkpt lat="42.95909" lon="0.84118">
        <ele>1569.1</ele>
        <time>2019-08-17T11:02:21Z</time>
      </trkpt>
      <trkpt lat="42.95909" lon="0.84118">
        <ele>1569.1</ele>
        <time>2019-08-17T11:02:22Z</time>
      </trkpt>
      <trkpt lat="42.95909" lon="0.84118">
        <ele>1569.1</ele>
        <time>2019-08-17T11:02:23Z</time>
      </trkpt>
      <trkpt lat="42.95909" lon="0.84118">
        <ele>1569.1</ele>
        <time>2019-08-17T11:02:24Z</time>
      </trkpt>
      <trkpt lat="42.95909" lon="0.84118">
        <ele>1569.1</ele>
        <time>2019-08-17T11:02:25Z</time>
      </trkpt>
      <trkpt lat="42.95909" lon="0.84118">
        <ele>1569.1</ele>
        <time>2019-08-17T11:02:26Z</time>
      </trkpt>
      <trkpt lat="42.95909" lon="0.84118">
        <ele>1569.1</ele>
        <time>2019-08-17T11:02:27Z</time>
      </trkpt>
      <trkpt lat="42.95909" lon="0.84118">
        <ele>1569.1</ele>
        <time>2019-08-17T11:02:28Z</time>
      </trkpt>
      <trkpt lat="42.95909" lon="0.84118">
        <ele>1569.1</ele>
        <time>2019-08-17T11:02:29Z</time>
      </trkpt>
      <trkpt lat="42.95909" lon="0.84118">
        <ele>1569.1</ele>
        <time>2019-08-17T11:02:30Z</time>
      </trkpt>
      <trkpt lat="42.95909" lon="0.84118">
        <ele>1569.1</ele>
        <time>2019-08-17T11:02:31Z</time>
      </trkpt>
      <trkpt lat="42.95909" lon="0.84118">
        <ele>1569.1</ele>
        <time>2019-08-17T11:02:32Z</time>
      </trkpt>
      <trkpt lat="42.95909" lon="0.84118">
        <ele>1569.1</ele>
        <time>2019-08-17T11:02:33Z</time>
      </trkpt>
      <trkpt lat="42.95909" lon="0.84118">
        <ele>1569.1</ele>
        <time>2019-08-17T11:02:34Z</time>
      </trkpt>
      <trkpt lat="42.95909" lon="0.84118">
        <ele>1569.1</ele>
        <time>2019-08-17T11:02:35Z</time>
      </trkpt>
      <trkpt lat="42.95909" lon="0.84118">
        <ele>1569.1</ele>
        <time>2019-08-17T11:02:36Z</time>
      </trkpt>
      <trkpt lat="42.95909" lon="0.84118">
        <ele>1569.1</ele>
        <time>2019-08-17T11:02:37Z</time>
      </trkpt>
      <trkpt lat="42.95909" lon="0.84118">
        <ele>1569.1</ele>
        <time>2019-08-17T11:02:38Z</time>
      </trkpt>
      <trkpt lat="42.95909" lon="0.84118">
        <ele>1569.1</ele>
        <time>2019-08-17T11:02:39Z</time>
      </trkpt>
      <trkpt lat="42.95909" lon="0.84118">
        <ele>1569.1</ele>
        <time>2019-08-17T11:02:40Z</time>
      </trkpt>
      <trkpt lat="42.95909" lon="0.84118">
        <ele>1569.1</ele>
        <time>2019-08-17T11:02:41Z</time>
      </trkpt>
      <trkpt lat="42.95909" lon="0.84118">
        <ele>1569.1</ele>
        <time>2019-08-17T11:02:42Z</time>
      </trkpt>
      <trkpt lat="42.95909" lon="0.84118">
        <ele>1569.1</ele>
        <time>2019-08-17T11:02:43Z</time>
      </trkpt>
      <trkpt lat="42.95909" lon="0.84118">
        <ele>1569.1</ele>
        <time>2019-08-17T11:02:44Z</time>
      </trkpt>
      <trkpt lat="42.95909" lon="0.84118">
        <ele>1569.1</ele>
        <time>2019-08-17T11:02:45Z</time>
      </trkpt>
      <trkpt lat="42.95909" lon="0.84118">
        <ele>1569.1</ele>
        <time>2019-08-17T11:02:46Z</time>
      </trkpt>
      <trkpt lat="42.95909" lon="0.84118">
        <ele>1569.1</ele>
        <time>2019-08-17T11:02:47Z</time>
      </trkpt>
      <trkpt lat="42.95909" lon="0.84118">
        <ele>1569.1</ele>
        <time>2019-08-17T11:02:48Z</time>
      </trkpt>
      <trkpt lat="42.95909" lon="0.84118">
        <ele>1569.1</ele>
        <time>2019-08-17T11:02:49Z</time>
      </trkpt>
      <trkpt lat="42.95909" lon="0.84118">
        <ele>1569.1</ele>
        <time>2019-08-17T11:02:50Z</time>
      </trkpt>
      <trkpt lat="42.95909" lon="0.84118">
        <ele>1569.1</ele>
        <time>2019-08-17T11:02:51Z</time>
      </trkpt>
      <trkpt lat="42.95909" lon="0.84118">
        <ele>1569.1</ele>
        <time>2019-08-17T11:02:52Z</time>
      </trkpt>
      <trkpt lat="42.95909" lon="0.84118">
        <ele>1569.1</ele>
        <time>2019-08-17T11:02:53Z</time>
      </trkpt>
      <trkpt lat="42.95909" lon="0.84118">
        <ele>1569.1</ele>
        <time>2019-08-17T11:02:54Z</time>
      </trkpt>
      <trkpt lat="42.95909" lon="0.84118">
        <ele>1569.1</ele>
        <time>2019-08-17T11:02:55Z</time>
      </trkpt>
      <trkpt lat="42.95909" lon="0.84118">
        <ele>1569.1</ele>
        <time>2019-08-17T11:02:56Z</time>
      </trkpt>
      <trkpt lat="42.95909" lon="0.84118">
        <ele>1569.1</ele>
        <time>2019-08-17T11:02:57Z</time>
      </trkpt>
      <trkpt lat="42.95909" lon="0.84118">
        <ele>1569.1</ele>
        <time>2019-08-17T11:02:58Z</time>
      </trkpt>
      <trkpt lat="42.95909" lon="0.84118">
        <ele>1569.1</ele>
        <time>2019-08-17T11:02:59Z</time>
      </trkpt>
      <trkpt lat="42.95909" lon="0.84118">
        <ele>1569.1</ele>
        <time>2019-08-17T11:03:00Z</time>
      </trkpt>
      <trkpt lat="42.95909" lon="0.84118">
        <ele>1569.1</ele>
        <time>2019-08-17T11:03:01Z</time>
      </trkpt>
      <trkpt lat="42.95909" lon="0.84118">
        <ele>1569.1</ele>
        <time>2019-08-17T11:03:02Z</time>
      </trkpt>
      <trkpt lat="42.95909" lon="0.84118">
        <ele>1569.1</ele>
        <time>2019-08-17T11:03:03Z</time>
      </trkpt>
      <trkpt lat="42.95909" lon="0.84118">
        <ele>1569.1</ele>
        <time>2019-08-17T11:03:04Z</time>
      </trkpt>
      <trkpt lat="42.95909" lon="0.84118">
        <ele>1569.1</ele>
        <time>2019-08-17T11:03:05Z</time>
      </trkpt>
      <trkpt lat="42.95909" lon="0.84118">
        <ele>1569.1</ele>
        <time>2019-08-17T11:03:06Z</time>
      </trkpt>
      <trkpt lat="42.95909" lon="0.84118">
        <ele>1569.1</ele>
        <time>2019-08-17T11:03:07Z</time>
      </trkpt>
      <trkpt lat="42.95909" lon="0.84118">
        <ele>1569.1</ele>
        <time>2019-08-17T11:03:08Z</time>
      </trkpt>
      <trkpt lat="42.95909" lon="0.84118">
        <ele>1569.1</ele>
        <time>2019-08-17T11:03:09Z</time>
      </trkpt>
      <trkpt lat="42.95909" lon="0.84118">
        <ele>1569.1</ele>
        <time>2019-08-17T11:03:10Z</time>
      </trkpt>
      <trkpt lat="42.95909" lon="0.84118">
        <ele>1569.1</ele>
        <time>2019-08-17T11:03:11Z</time>
      </trkpt>
      <trkpt lat="42.95909" lon="0.84118">
        <ele>1569.1</ele>
        <time>2019-08-17T11:03:12Z</time>
      </trkpt>
      <trkpt lat="42.95909" lon="0.84118">
        <ele>1569.1</ele>
        <time>2019-08-17T11:03:13Z</time>
      </trkpt>
      <trkpt lat="42.95909" lon="0.84118">
        <ele>1569.1</ele>
        <time>2019-08-17T11:03:14Z</time>
      </trkpt>
      <trkpt lat="42.95909" lon="0.84118">
        <ele>1569.1</ele>
        <time>2019-08-17T11:03:15Z</time>
      </trkpt>
      <trkpt lat="42.95909" lon="0.84118">
        <ele>1569.1</ele>
        <time>2019-08-17T11:03:16Z</time>
      </trkpt>
      <trkpt lat="42.95909" lon="0.84118">
        <ele>1569.1</ele>
        <time>2019-08-17T11:03:17Z</time>
      </trkpt>
      <trkpt lat="42.95908" lon="0.84118">
        <ele>1569.1</ele>
        <time>2019-08-17T11:03:18Z</time>
      </trkpt>
      <trkpt lat="42.95908" lon="0.84118">
        <ele>1569.1</ele>
        <time>2019-08-17T11:03:19Z</time>
      </trkpt>
      <trkpt lat="42.95907" lon="0.84118">
        <ele>1569.1</ele>
        <time>2019-08-17T11:03:20Z</time>
      </trkpt>
      <trkpt lat="42.95906" lon="0.84118">
        <ele>1569</ele>
        <time>2019-08-17T11:03:21Z</time>
      </trkpt>
      <trkpt lat="42.95905" lon="0.84118">
        <ele>1569</ele>
        <time>2019-08-17T11:03:22Z</time>
      </trkpt>
      <trkpt lat="42.95904" lon="0.84118">
        <ele>1568.9</ele>
        <time>2019-08-17T11:03:23Z</time>
      </trkpt>
      <trkpt lat="42.95904" lon="0.84118">
        <ele>1568.9</ele>
        <time>2019-08-17T11:03:24Z</time>
      </trkpt>
      <trkpt lat="42.95903" lon="0.84118">
        <ele>1568.8</ele>
        <time>2019-08-17T11:03:25Z</time>
      </trkpt>
      <trkpt lat="42.95902" lon="0.84118">
        <ele>1568.8</ele>
        <time>2019-08-17T11:03:26Z</time>
      </trkpt>
      <trkpt lat="42.95901" lon="0.84118">
        <ele>1568.7</ele>
        <time>2019-08-17T11:03:27Z</time>
      </trkpt>
      <trkpt lat="42.959" lon="0.84119">
        <ele>1568.7</ele>
        <time>2019-08-17T11:03:28Z</time>
      </trkpt>
      <trkpt lat="42.95899" lon="0.84119">
        <ele>1568.6</ele>
        <time>2019-08-17T11:03:29Z</time>
      </trkpt>
      <trkpt lat="42.95898" lon="0.84119">
        <ele>1568.6</ele>
        <time>2019-08-17T11:03:30Z</time>
      </trkpt>
      <trkpt lat="42.95898" lon="0.84119">
        <ele>1568.5</ele>
        <time>2019-08-17T11:03:31Z</time>
      </trkpt>
      <trkpt lat="42.95897" lon="0.84119">
        <ele>1568.4</ele>
        <time>2019-08-17T11:03:32Z</time>
      </trkpt>
      <trkpt lat="42.95896" lon="0.84119">
        <ele>1568.4</ele>
        <time>2019-08-17T11:03:33Z</time>
      </trkpt>
      <trkpt lat="42.95895" lon="0.8412">
        <ele>1568.3</ele>
        <time>2019-08-17T11:03:34Z</time>
      </trkpt>
      <trkpt lat="42.95894" lon="0.8412">
        <ele>1568.2</ele>
        <time>2019-08-17T11:03:35Z</time>
      </trkpt>
      <trkpt lat="42.95894" lon="0.8412">
        <ele>1568.1</ele>
        <time>2019-08-17T11:03:36Z</time>
      </trkpt>
      <trkpt lat="42.95893" lon="0.8412">
        <ele>1568</ele>
        <time>2019-08-17T11:03:37Z</time>
      </trkpt>
      <trkpt lat="42.95892" lon="0.8412">
        <ele>1567.8</ele>
        <time>2019-08-17T11:03:38Z</time>
      </trkpt>
      <trkpt lat="42.95892" lon="0.84121">
        <ele>1567.7</ele>
        <time>2019-08-17T11:03:39Z</time>
      </trkpt>
      <trkpt lat="42.95891" lon="0.84121">
        <ele>1567.6</ele>
        <time>2019-08-17T11:03:40Z</time>
      </trkpt>
      <trkpt lat="42.9589" lon="0.84121">
        <ele>1567.4</ele>
        <time>2019-08-17T11:03:41Z</time>
      </trkpt>
      <trkpt lat="42.95889" lon="0.84121">
        <ele>1567.2</ele>
        <time>2019-08-17T11:03:42Z</time>
      </trkpt>
      <trkpt lat="42.95888" lon="0.84121">
        <ele>1567</ele>
        <time>2019-08-17T11:03:43Z</time>
      </trkpt>
      <trkpt lat="42.95887" lon="0.84122">
        <ele>1566.9</ele>
        <time>2019-08-17T11:03:44Z</time>
      </trkpt>
      <trkpt lat="42.95886" lon="0.84122">
        <ele>1566.7</ele>
        <time>2019-08-17T11:03:45Z</time>
      </trkpt>
      <trkpt lat="42.95885" lon="0.84122">
        <ele>1566.6</ele>
        <time>2019-08-17T11:03:46Z</time>
      </trkpt>
      <trkpt lat="42.95885" lon="0.84123">
        <ele>1566.5</ele>
        <time>2019-08-17T11:03:47Z</time>
      </trkpt>
      <trkpt lat="42.95884" lon="0.84124">
        <ele>1566.4</ele>
        <time>2019-08-17T11:03:48Z</time>
      </trkpt>
      <trkpt lat="42.95884" lon="0.84124">
        <ele>1566.3</ele>
        <time>2019-08-17T11:03:49Z</time>
      </trkpt>
      <trkpt lat="42.95883" lon="0.84125">
        <ele>1566.2</ele>
        <time>2019-08-17T11:03:50Z</time>
      </trkpt>
      <trkpt lat="42.95883" lon="0.84125">
        <ele>1566.1</ele>
        <time>2019-08-17T11:03:51Z</time>
      </trkpt>
      <trkpt lat="42.95882" lon="0.84126">
        <ele>1566</ele>
        <time>2019-08-17T11:03:52Z</time>
      </trkpt>
      <trkpt lat="42.95881" lon="0.84126">
        <ele>1565.9</ele>
        <time>2019-08-17T11:03:53Z</time>
      </trkpt>
      <trkpt lat="42.95881" lon="0.84126">
        <ele>1565.8</ele>
        <time>2019-08-17T11:03:54Z</time>
      </trkpt>
      <trkpt lat="42.9588" lon="0.84127">
        <ele>1565.7</ele>
        <time>2019-08-17T11:03:55Z</time>
      </trkpt>
      <trkpt lat="42.9588" lon="0.84127">
        <ele>1565.6</ele>
        <time>2019-08-17T11:03:56Z</time>
      </trkpt>
      <trkpt lat="42.95879" lon="0.84128">
        <ele>1565.5</ele>
        <time>2019-08-17T11:03:57Z</time>
      </trkpt>
      <trkpt lat="42.95879" lon="0.84127">
        <ele>1565.4</ele>
        <time>2019-08-17T11:03:58Z</time>
      </trkpt>
      <trkpt lat="42.95878" lon="0.84127">
        <ele>1565.2</ele>
        <time>2019-08-17T11:03:59Z</time>
      </trkpt>
      <trkpt lat="42.95878" lon="0.84127">
        <ele>1565.2</ele>
        <time>2019-08-17T11:04:00Z</time>
      </trkpt>
      <trkpt lat="42.95877" lon="0.84127">
        <ele>1565.1</ele>
        <time>2019-08-17T11:04:01Z</time>
      </trkpt>
      <trkpt lat="42.95877" lon="0.84127">
        <ele>1565</ele>
        <time>2019-08-17T11:04:02Z</time>
      </trkpt>
      <trkpt lat="42.95877" lon="0.84127">
        <ele>1564.9</ele>
        <time>2019-08-17T11:04:03Z</time>
      </trkpt>
      <trkpt lat="42.95876" lon="0.84127">
        <ele>1564.8</ele>
        <time>2019-08-17T11:04:04Z</time>
      </trkpt>
      <trkpt lat="42.95875" lon="0.84127">
        <ele>1564.6</ele>
        <time>2019-08-17T11:04:05Z</time>
      </trkpt>
      <trkpt lat="42.95875" lon="0.84127">
        <ele>1564.5</ele>
        <time>2019-08-17T11:04:06Z</time>
      </trkpt>
      <trkpt lat="42.95874" lon="0.84127">
        <ele>1564.3</ele>
        <time>2019-08-17T11:04:07Z</time>
      </trkpt>
      <trkpt lat="42.95873" lon="0.84127">
        <ele>1564.2</ele>
        <time>2019-08-17T11:04:08Z</time>
      </trkpt>
      <trkpt lat="42.95873" lon="0.84126">
        <ele>1564</ele>
        <time>2019-08-17T11:04:09Z</time>
      </trkpt>
      <trkpt lat="42.95872" lon="0.84126">
        <ele>1563.9</ele>
        <time>2019-08-17T11:04:10Z</time>
      </trkpt>
      <trkpt lat="42.95871" lon="0.84126">
        <ele>1563.7</ele>
        <time>2019-08-17T11:04:11Z</time>
      </trkpt>
      <trkpt lat="42.95871" lon="0.84126">
        <ele>1563.6</ele>
        <time>2019-08-17T11:04:12Z</time>
      </trkpt>
      <trkpt lat="42.9587" lon="0.84126">
        <ele>1563.5</ele>
        <time>2019-08-17T11:04:13Z</time>
      </trkpt>
      <trkpt lat="42.95869" lon="0.84126">
        <ele>1563.4</ele>
        <time>2019-08-17T11:04:14Z</time>
      </trkpt>
      <trkpt lat="42.95869" lon="0.84126">
        <ele>1563.2</ele>
        <time>2019-08-17T11:04:15Z</time>
      </trkpt>
      <trkpt lat="42.95868" lon="0.84126">
        <ele>1563.1</ele>
        <time>2019-08-17T11:04:16Z</time>
      </trkpt>
      <trkpt lat="42.95867" lon="0.84126">
        <ele>1563</ele>
        <time>2019-08-17T11:04:17Z</time>
      </trkpt>
      <trkpt lat="42.95867" lon="0.84127">
        <ele>1562.9</ele>
        <time>2019-08-17T11:04:18Z</time>
      </trkpt>
      <trkpt lat="42.95866" lon="0.84127">
        <ele>1562.7</ele>
        <time>2019-08-17T11:04:19Z</time>
      </trkpt>
      <trkpt lat="42.95865" lon="0.84127">
        <ele>1562.6</ele>
        <time>2019-08-17T11:04:20Z</time>
      </trkpt>
      <trkpt lat="42.95864" lon="0.84128">
        <ele>1562.4</ele>
        <time>2019-08-17T11:04:21Z</time>
      </trkpt>
      <trkpt lat="42.95864" lon="0.84128">
        <ele>1562.3</ele>
        <time>2019-08-17T11:04:22Z</time>
      </trkpt>
      <trkpt lat="42.95863" lon="0.84128">
        <ele>1562.1</ele>
        <time>2019-08-17T11:04:23Z</time>
      </trkpt>
      <trkpt lat="42.95862" lon="0.84129">
        <ele>1562</ele>
        <time>2019-08-17T11:04:24Z</time>
      </trkpt>
      <trkpt lat="42.95862" lon="0.84129">
        <ele>1561.8</ele>
        <time>2019-08-17T11:04:25Z</time>
      </trkpt>
      <trkpt lat="42.95861" lon="0.8413">
        <ele>1561.6</ele>
        <time>2019-08-17T11:04:26Z</time>
      </trkpt>
      <trkpt lat="42.9586" lon="0.8413">
        <ele>1561.5</ele>
        <time>2019-08-17T11:04:27Z</time>
      </trkpt>
      <trkpt lat="42.9586" lon="0.84131">
        <ele>1561.3</ele>
        <time>2019-08-17T11:04:28Z</time>
      </trkpt>
      <trkpt lat="42.95859" lon="0.84131">
        <ele>1561.2</ele>
        <time>2019-08-17T11:04:29Z</time>
      </trkpt>
      <trkpt lat="42.95858" lon="0.84131">
        <ele>1561.1</ele>
        <time>2019-08-17T11:04:30Z</time>
      </trkpt>
      <trkpt lat="42.95858" lon="0.84132">
        <ele>1560.9</ele>
        <time>2019-08-17T11:04:31Z</time>
      </trkpt>
      <trkpt lat="42.95857" lon="0.84132">
        <ele>1560.8</ele>
        <time>2019-08-17T11:04:32Z</time>
      </trkpt>
      <trkpt lat="42.95857" lon="0.84132">
        <ele>1560.6</ele>
        <time>2019-08-17T11:04:33Z</time>
      </trkpt>
      <trkpt lat="42.95856" lon="0.84133">
        <ele>1560.5</ele>
        <time>2019-08-17T11:04:34Z</time>
      </trkpt>
      <trkpt lat="42.95855" lon="0.84133">
        <ele>1560.3</ele>
        <time>2019-08-17T11:04:35Z</time>
      </trkpt>
      <trkpt lat="42.95855" lon="0.84133">
        <ele>1560.2</ele>
        <time>2019-08-17T11:04:36Z</time>
      </trkpt>
      <trkpt lat="42.95854" lon="0.84133">
        <ele>1560.1</ele>
        <time>2019-08-17T11:04:37Z</time>
      </trkpt>
      <trkpt lat="42.95854" lon="0.84134">
        <ele>1559.9</ele>
        <time>2019-08-17T11:04:38Z</time>
      </trkpt>
      <trkpt lat="42.95853" lon="0.84134">
        <ele>1559.8</ele>
        <time>2019-08-17T11:04:39Z</time>
      </trkpt>
      <trkpt lat="42.95852" lon="0.84134">
        <ele>1559.6</ele>
        <time>2019-08-17T11:04:40Z</time>
      </trkpt>
      <trkpt lat="42.95851" lon="0.84134">
        <ele>1559.4</ele>
        <time>2019-08-17T11:04:41Z</time>
      </trkpt>
      <trkpt lat="42.95851" lon="0.84134">
        <ele>1557.9</ele>
        <time>2019-08-17T11:04:42Z</time>
      </trkpt>
      <trkpt lat="42.9585" lon="0.84134">
        <ele>1557.6</ele>
        <time>2019-08-17T11:04:43Z</time>
      </trkpt>
      <trkpt lat="42.95849" lon="0.84135">
        <ele>1557.4</ele>
        <time>2019-08-17T11:04:44Z</time>
      </trkpt>
      <trkpt lat="42.95849" lon="0.84135">
        <ele>1557.2</ele>
        <time>2019-08-17T11:04:45Z</time>
      </trkpt>
      <trkpt lat="42.95848" lon="0.84135">
        <ele>1557</ele>
        <time>2019-08-17T11:04:46Z</time>
      </trkpt>
      <trkpt lat="42.95847" lon="0.84135">
        <ele>1556.8</ele>
        <time>2019-08-17T11:04:47Z</time>
      </trkpt>
      <trkpt lat="42.95846" lon="0.84135">
        <ele>1556.6</ele>
        <time>2019-08-17T11:04:48Z</time>
      </trkpt>
      <trkpt lat="42.95845" lon="0.84135">
        <ele>1556.4</ele>
        <time>2019-08-17T11:04:49Z</time>
      </trkpt>
      <trkpt lat="42.95845" lon="0.84134">
        <ele>1556.2</ele>
        <time>2019-08-17T11:04:50Z</time>
      </trkpt>
      <trkpt lat="42.95844" lon="0.84134">
        <ele>1556</ele>
        <time>2019-08-17T11:04:51Z</time>
      </trkpt>
      <trkpt lat="42.95843" lon="0.84134">
        <ele>1555.8</ele>
        <time>2019-08-17T11:04:52Z</time>
      </trkpt>
      <trkpt lat="42.95842" lon="0.84134">
        <ele>1555.6</ele>
        <time>2019-08-17T11:04:53Z</time>
      </trkpt>
      <trkpt lat="42.95842" lon="0.84134">
        <ele>1555.4</ele>
        <time>2019-08-17T11:04:54Z</time>
      </trkpt>
      <trkpt lat="42.95841" lon="0.84134">
        <ele>1555.2</ele>
        <time>2019-08-17T11:04:55Z</time>
      </trkpt>
      <trkpt lat="42.9584" lon="0.84134">
        <ele>1555</ele>
        <time>2019-08-17T11:04:56Z</time>
      </trkpt>
      <trkpt lat="42.95839" lon="0.84134">
        <ele>1554.8</ele>
        <time>2019-08-17T11:04:57Z</time>
      </trkpt>
      <trkpt lat="42.95838" lon="0.84135">
        <ele>1554.5</ele>
        <time>2019-08-17T11:04:58Z</time>
      </trkpt>
      <trkpt lat="42.95837" lon="0.84135">
        <ele>1554.3</ele>
        <time>2019-08-17T11:04:59Z</time>
      </trkpt>
      <trkpt lat="42.95836" lon="0.84135">
        <ele>1554.1</ele>
        <time>2019-08-17T11:05:00Z</time>
      </trkpt>
      <trkpt lat="42.95835" lon="0.84135">
        <ele>1553.8</ele>
        <time>2019-08-17T11:05:01Z</time>
      </trkpt>
      <trkpt lat="42.95835" lon="0.84135">
        <ele>1553.6</ele>
        <time>2019-08-17T11:05:02Z</time>
      </trkpt>
      <trkpt lat="42.95834" lon="0.84135">
        <ele>1553.4</ele>
        <time>2019-08-17T11:05:03Z</time>
      </trkpt>
      <trkpt lat="42.95833" lon="0.84135">
        <ele>1553.2</ele>
        <time>2019-08-17T11:05:04Z</time>
      </trkpt>
      <trkpt lat="42.95832" lon="0.84135">
        <ele>1553</ele>
        <time>2019-08-17T11:05:05Z</time>
      </trkpt>
      <trkpt lat="42.95832" lon="0.84135">
        <ele>1552.8</ele>
        <time>2019-08-17T11:05:06Z</time>
      </trkpt>
      <trkpt lat="42.95831" lon="0.84135">
        <ele>1552.5</ele>
        <time>2019-08-17T11:05:07Z</time>
      </trkpt>
      <trkpt lat="42.9583" lon="0.84135">
        <ele>1552.3</ele>
        <time>2019-08-17T11:05:08Z</time>
      </trkpt>
      <trkpt lat="42.95829" lon="0.84135">
        <ele>1552.1</ele>
        <time>2019-08-17T11:05:09Z</time>
      </trkpt>
      <trkpt lat="42.95828" lon="0.84135">
        <ele>1551.8</ele>
        <time>2019-08-17T11:05:10Z</time>
      </trkpt>
      <trkpt lat="42.95827" lon="0.84135">
        <ele>1551.6</ele>
        <time>2019-08-17T11:05:11Z</time>
      </trkpt>
      <trkpt lat="42.95827" lon="0.84136">
        <ele>1551.4</ele>
        <time>2019-08-17T11:05:12Z</time>
      </trkpt>
      <trkpt lat="42.95826" lon="0.84136">
        <ele>1551.3</ele>
        <time>2019-08-17T11:05:13Z</time>
      </trkpt>
      <trkpt lat="42.95826" lon="0.84136">
        <ele>1551.1</ele>
        <time>2019-08-17T11:05:14Z</time>
      </trkpt>
      <trkpt lat="42.95825" lon="0.84136">
        <ele>1551</ele>
        <time>2019-08-17T11:05:15Z</time>
      </trkpt>
      <trkpt lat="42.95825" lon="0.84137">
        <ele>1550.8</ele>
        <time>2019-08-17T11:05:16Z</time>
      </trkpt>
      <trkpt lat="42.95824" lon="0.84137">
        <ele>1550.6</ele>
        <time>2019-08-17T11:05:17Z</time>
      </trkpt>
      <trkpt lat="42.95823" lon="0.84137">
        <ele>1550.3</ele>
        <time>2019-08-17T11:05:18Z</time>
      </trkpt>
      <trkpt lat="42.95822" lon="0.84138">
        <ele>1550.1</ele>
        <time>2019-08-17T11:05:19Z</time>
      </trkpt>
      <trkpt lat="42.95822" lon="0.84138">
        <ele>1549.8</ele>
        <time>2019-08-17T11:05:20Z</time>
      </trkpt>
      <trkpt lat="42.95821" lon="0.84139">
        <ele>1549.6</ele>
        <time>2019-08-17T11:05:21Z</time>
      </trkpt>
      <trkpt lat="42.9582" lon="0.84139">
        <ele>1549.4</ele>
        <time>2019-08-17T11:05:22Z</time>
      </trkpt>
      <trkpt lat="42.95819" lon="0.8414">
        <ele>1549.1</ele>
        <time>2019-08-17T11:05:23Z</time>
      </trkpt>
      <trkpt lat="42.95819" lon="0.8414">
        <ele>1548.9</ele>
        <time>2019-08-17T11:05:24Z</time>
      </trkpt>
      <trkpt lat="42.95818" lon="0.8414">
        <ele>1548.6</ele>
        <time>2019-08-17T11:05:25Z</time>
      </trkpt>
      <trkpt lat="42.95817" lon="0.8414">
        <ele>1548.3</ele>
        <time>2019-08-17T11:05:26Z</time>
      </trkpt>
      <trkpt lat="42.95816" lon="0.8414">
        <ele>1548.1</ele>
        <time>2019-08-17T11:05:27Z</time>
      </trkpt>
      <trkpt lat="42.95815" lon="0.84141">
        <ele>1547.8</ele>
        <time>2019-08-17T11:05:28Z</time>
      </trkpt>
      <trkpt lat="42.95814" lon="0.84141">
        <ele>1547.5</ele>
        <time>2019-08-17T11:05:29Z</time>
      </trkpt>
      <trkpt lat="42.95814" lon="0.84141">
        <ele>1547.2</ele>
        <time>2019-08-17T11:05:30Z</time>
      </trkpt>
      <trkpt lat="42.95813" lon="0.84142">
        <ele>1546.9</ele>
        <time>2019-08-17T11:05:31Z</time>
      </trkpt>
      <trkpt lat="42.95812" lon="0.84142">
        <ele>1546.7</ele>
        <time>2019-08-17T11:05:32Z</time>
      </trkpt>
      <trkpt lat="42.95812" lon="0.84143">
        <ele>1546.5</ele>
        <time>2019-08-17T11:05:33Z</time>
      </trkpt>
      <trkpt lat="42.95811" lon="0.84144">
        <ele>1546.2</ele>
        <time>2019-08-17T11:05:34Z</time>
      </trkpt>
      <trkpt lat="42.95811" lon="0.84145">
        <ele>1546</ele>
        <time>2019-08-17T11:05:35Z</time>
      </trkpt>
      <trkpt lat="42.95811" lon="0.84146">
        <ele>1545.8</ele>
        <time>2019-08-17T11:05:36Z</time>
      </trkpt>
      <trkpt lat="42.95812" lon="0.84147">
        <ele>1545.6</ele>
        <time>2019-08-17T11:05:37Z</time>
      </trkpt>
      <trkpt lat="42.95812" lon="0.84147">
        <ele>1545.4</ele>
        <time>2019-08-17T11:05:38Z</time>
      </trkpt>
      <trkpt lat="42.95812" lon="0.84148">
        <ele>1545.2</ele>
        <time>2019-08-17T11:05:39Z</time>
      </trkpt>
      <trkpt lat="42.95813" lon="0.84149">
        <ele>1544.9</ele>
        <time>2019-08-17T11:05:40Z</time>
      </trkpt>
      <trkpt lat="42.95813" lon="0.8415">
        <ele>1544.7</ele>
        <time>2019-08-17T11:05:41Z</time>
      </trkpt>
      <trkpt lat="42.95813" lon="0.84151">
        <ele>1544.5</ele>
        <time>2019-08-17T11:05:42Z</time>
      </trkpt>
      <trkpt lat="42.95814" lon="0.84151">
        <ele>1544.2</ele>
        <time>2019-08-17T11:05:43Z</time>
      </trkpt>
      <trkpt lat="42.95814" lon="0.84152">
        <ele>1544</ele>
        <time>2019-08-17T11:05:44Z</time>
      </trkpt>
      <trkpt lat="42.95814" lon="0.84153">
        <ele>1543.8</ele>
        <time>2019-08-17T11:05:45Z</time>
      </trkpt>
      <trkpt lat="42.95814" lon="0.84154">
        <ele>1543.5</ele>
        <time>2019-08-17T11:05:46Z</time>
      </trkpt>
      <trkpt lat="42.95814" lon="0.84155">
        <ele>1543.3</ele>
        <time>2019-08-17T11:05:47Z</time>
      </trkpt>
      <trkpt lat="42.95815" lon="0.84156">
        <ele>1543.1</ele>
        <time>2019-08-17T11:05:48Z</time>
      </trkpt>
      <trkpt lat="42.95815" lon="0.84157">
        <ele>1542.9</ele>
        <time>2019-08-17T11:05:49Z</time>
      </trkpt>
      <trkpt lat="42.95815" lon="0.84158">
        <ele>1542.7</ele>
        <time>2019-08-17T11:05:50Z</time>
      </trkpt>
      <trkpt lat="42.95815" lon="0.84159">
        <ele>1542.5</ele>
        <time>2019-08-17T11:05:51Z</time>
      </trkpt>
      <trkpt lat="42.95816" lon="0.8416">
        <ele>1542.3</ele>
        <time>2019-08-17T11:05:52Z</time>
      </trkpt>
      <trkpt lat="42.95816" lon="0.84161">
        <ele>1542.1</ele>
        <time>2019-08-17T11:05:53Z</time>
      </trkpt>
      <trkpt lat="42.95816" lon="0.84162">
        <ele>1541.9</ele>
        <time>2019-08-17T11:05:54Z</time>
      </trkpt>
      <trkpt lat="42.95816" lon="0.84163">
        <ele>1541.8</ele>
        <time>2019-08-17T11:05:55Z</time>
      </trkpt>
      <trkpt lat="42.95817" lon="0.84164">
        <ele>1541.6</ele>
        <time>2019-08-17T11:05:56Z</time>
      </trkpt>
      <trkpt lat="42.95817" lon="0.84164">
        <ele>1541.4</ele>
        <time>2019-08-17T11:05:57Z</time>
      </trkpt>
      <trkpt lat="42.95817" lon="0.84165">
        <ele>1541.2</ele>
        <time>2019-08-17T11:05:58Z</time>
      </trkpt>
      <trkpt lat="42.95817" lon="0.84166">
        <ele>1541</ele>
        <time>2019-08-17T11:05:59Z</time>
      </trkpt>
      <trkpt lat="42.95818" lon="0.84167">
        <ele>1540.8</ele>
        <time>2019-08-17T11:06:00Z</time>
      </trkpt>
      <trkpt lat="42.95818" lon="0.84168">
        <ele>1540.6</ele>
        <time>2019-08-17T11:06:01Z</time>
      </trkpt>
      <trkpt lat="42.95818" lon="0.84169">
        <ele>1540.4</ele>
        <time>2019-08-17T11:06:02Z</time>
      </trkpt>
      <trkpt lat="42.95818" lon="0.8417">
        <ele>1540.2</ele>
        <time>2019-08-17T11:06:03Z</time>
      </trkpt>
      <trkpt lat="42.95818" lon="0.84171">
        <ele>1539.9</ele>
        <time>2019-08-17T11:06:04Z</time>
      </trkpt>
      <trkpt lat="42.95819" lon="0.84172">
        <ele>1539.7</ele>
        <time>2019-08-17T11:06:05Z</time>
      </trkpt>
      <trkpt lat="42.95819" lon="0.84173">
        <ele>1539.5</ele>
        <time>2019-08-17T11:06:06Z</time>
      </trkpt>
      <trkpt lat="42.95819" lon="0.84174">
        <ele>1539.2</ele>
        <time>2019-08-17T11:06:07Z</time>
      </trkpt>
      <trkpt lat="42.95819" lon="0.84175">
        <ele>1539</ele>
        <time>2019-08-17T11:06:08Z</time>
      </trkpt>
      <trkpt lat="42.95819" lon="0.84176">
        <ele>1538.8</ele>
        <time>2019-08-17T11:06:09Z</time>
      </trkpt>
      <trkpt lat="42.9582" lon="0.84177">
        <ele>1538.5</ele>
        <time>2019-08-17T11:06:10Z</time>
      </trkpt>
      <trkpt lat="42.9582" lon="0.84178">
        <ele>1538.3</ele>
        <time>2019-08-17T11:06:11Z</time>
      </trkpt>
      <trkpt lat="42.9582" lon="0.84179">
        <ele>1538.1</ele>
        <time>2019-08-17T11:06:12Z</time>
      </trkpt>
      <trkpt lat="42.9582" lon="0.8418">
        <ele>1537.9</ele>
        <time>2019-08-17T11:06:13Z</time>
      </trkpt>
      <trkpt lat="42.95821" lon="0.84181">
        <ele>1537.7</ele>
        <time>2019-08-17T11:06:14Z</time>
      </trkpt>
      <trkpt lat="42.95821" lon="0.84183">
        <ele>1537.5</ele>
        <time>2019-08-17T11:06:15Z</time>
      </trkpt>
      <trkpt lat="42.95821" lon="0.84184">
        <ele>1537.2</ele>
        <time>2019-08-17T11:06:16Z</time>
      </trkpt>
      <trkpt lat="42.95821" lon="0.84186">
        <ele>1537</ele>
        <time>2019-08-17T11:06:17Z</time>
      </trkpt>
      <trkpt lat="42.9582" lon="0.84187">
        <ele>1536.7</ele>
        <time>2019-08-17T11:06:18Z</time>
      </trkpt>
      <trkpt lat="42.9582" lon="0.84188">
        <ele>1536.5</ele>
        <time>2019-08-17T11:06:19Z</time>
      </trkpt>
      <trkpt lat="42.95819" lon="0.8419">
        <ele>1536.3</ele>
        <time>2019-08-17T11:06:20Z</time>
      </trkpt>
      <trkpt lat="42.95819" lon="0.8419">
        <ele>1536.1</ele>
        <time>2019-08-17T11:06:21Z</time>
      </trkpt>
      <trkpt lat="42.95818" lon="0.84191">
        <ele>1535.9</ele>
        <time>2019-08-17T11:06:22Z</time>
      </trkpt>
      <trkpt lat="42.95817" lon="0.84192">
        <ele>1535.6</ele>
        <time>2019-08-17T11:06:23Z</time>
      </trkpt>
      <trkpt lat="42.95816" lon="0.84192">
        <ele>1535.4</ele>
        <time>2019-08-17T11:06:24Z</time>
      </trkpt>
      <trkpt lat="42.95815" lon="0.84193">
        <ele>1535.2</ele>
        <time>2019-08-17T11:06:25Z</time>
      </trkpt>
      <trkpt lat="42.95815" lon="0.84193">
        <ele>1535</ele>
        <time>2019-08-17T11:06:26Z</time>
      </trkpt>
      <trkpt lat="42.95814" lon="0.84194">
        <ele>1534.8</ele>
        <time>2019-08-17T11:06:27Z</time>
      </trkpt>
      <trkpt lat="42.95814" lon="0.84195">
        <ele>1534.5</ele>
        <time>2019-08-17T11:06:28Z</time>
      </trkpt>
      <trkpt lat="42.95813" lon="0.84196">
        <ele>1534.3</ele>
        <time>2019-08-17T11:06:29Z</time>
      </trkpt>
      <trkpt lat="42.95813" lon="0.84197">
        <ele>1534.1</ele>
        <time>2019-08-17T11:06:30Z</time>
      </trkpt>
      <trkpt lat="42.95813" lon="0.84198">
        <ele>1533.9</ele>
        <time>2019-08-17T11:06:31Z</time>
      </trkpt>
      <trkpt lat="42.95812" lon="0.842">
        <ele>1533.7</ele>
        <time>2019-08-17T11:06:32Z</time>
      </trkpt>
      <trkpt lat="42.95812" lon="0.84201">
        <ele>1533.4</ele>
        <time>2019-08-17T11:06:33Z</time>
      </trkpt>
      <trkpt lat="42.95812" lon="0.84202">
        <ele>1533.2</ele>
        <time>2019-08-17T11:06:34Z</time>
      </trkpt>
      <trkpt lat="42.95811" lon="0.84203">
        <ele>1533</ele>
        <time>2019-08-17T11:06:35Z</time>
      </trkpt>
      <trkpt lat="42.95811" lon="0.84204">
        <ele>1532.9</ele>
        <time>2019-08-17T11:06:36Z</time>
      </trkpt>
      <trkpt lat="42.95811" lon="0.84205">
        <ele>1532.7</ele>
        <time>2019-08-17T11:06:37Z</time>
      </trkpt>
      <trkpt lat="42.95811" lon="0.84206">
        <ele>1532.5</ele>
        <time>2019-08-17T11:06:38Z</time>
      </trkpt>
      <trkpt lat="42.9581" lon="0.84207">
        <ele>1532.4</ele>
        <time>2019-08-17T11:06:39Z</time>
      </trkpt>
      <trkpt lat="42.95811" lon="0.84208">
        <ele>1532.2</ele>
        <time>2019-08-17T11:06:40Z</time>
      </trkpt>
      <trkpt lat="42.95811" lon="0.84209">
        <ele>1532</ele>
        <time>2019-08-17T11:06:41Z</time>
      </trkpt>
      <trkpt lat="42.95811" lon="0.8421">
        <ele>1531.9</ele>
        <time>2019-08-17T11:06:42Z</time>
      </trkpt>
      <trkpt lat="42.95812" lon="0.84211">
        <ele>1531.7</ele>
        <time>2019-08-17T11:06:43Z</time>
      </trkpt>
      <trkpt lat="42.95812" lon="0.84212">
        <ele>1531.5</ele>
        <time>2019-08-17T11:06:44Z</time>
      </trkpt>
      <trkpt lat="42.95813" lon="0.84213">
        <ele>1531.3</ele>
        <time>2019-08-17T11:06:45Z</time>
      </trkpt>
      <trkpt lat="42.95813" lon="0.84214">
        <ele>1531.1</ele>
        <time>2019-08-17T11:06:46Z</time>
      </trkpt>
      <trkpt lat="42.95813" lon="0.84215">
        <ele>1530.9</ele>
        <time>2019-08-17T11:06:47Z</time>
      </trkpt>
      <trkpt lat="42.95813" lon="0.84216">
        <ele>1530.8</ele>
        <time>2019-08-17T11:06:48Z</time>
      </trkpt>
      <trkpt lat="42.95813" lon="0.84217">
        <ele>1530.6</ele>
        <time>2019-08-17T11:06:49Z</time>
      </trkpt>
      <trkpt lat="42.95813" lon="0.84218">
        <ele>1530.5</ele>
        <time>2019-08-17T11:06:50Z</time>
      </trkpt>
      <trkpt lat="42.95812" lon="0.8422">
        <ele>1530.3</ele>
        <time>2019-08-17T11:06:51Z</time>
      </trkpt>
      <trkpt lat="42.95812" lon="0.84221">
        <ele>1530.2</ele>
        <time>2019-08-17T11:06:52Z</time>
      </trkpt>
      <trkpt lat="42.95812" lon="0.84222">
        <ele>1530</ele>
        <time>2019-08-17T11:06:53Z</time>
      </trkpt>
      <trkpt lat="42.95811" lon="0.84223">
        <ele>1529.8</ele>
        <time>2019-08-17T11:06:54Z</time>
      </trkpt>
      <trkpt lat="42.95811" lon="0.84224">
        <ele>1529.7</ele>
        <time>2019-08-17T11:06:55Z</time>
      </trkpt>
      <trkpt lat="42.9581" lon="0.84225">
        <ele>1529.5</ele>
        <time>2019-08-17T11:06:56Z</time>
      </trkpt>
      <trkpt lat="42.9581" lon="0.84226">
        <ele>1529.3</ele>
        <time>2019-08-17T11:06:57Z</time>
      </trkpt>
      <trkpt lat="42.95809" lon="0.84227">
        <ele>1529.2</ele>
        <time>2019-08-17T11:06:58Z</time>
      </trkpt>
      <trkpt lat="42.95809" lon="0.84228">
        <ele>1529</ele>
        <time>2019-08-17T11:06:59Z</time>
      </trkpt>
      <trkpt lat="42.95809" lon="0.84229">
        <ele>1528.8</ele>
        <time>2019-08-17T11:07:00Z</time>
      </trkpt>
      <trkpt lat="42.95808" lon="0.8423">
        <ele>1528.7</ele>
        <time>2019-08-17T11:07:01Z</time>
      </trkpt>
      <trkpt lat="42.95808" lon="0.84231">
        <ele>1528.5</ele>
        <time>2019-08-17T11:07:02Z</time>
      </trkpt>
      <trkpt lat="42.95808" lon="0.84232">
        <ele>1528.3</ele>
        <time>2019-08-17T11:07:03Z</time>
      </trkpt>
      <trkpt lat="42.95807" lon="0.84233">
        <ele>1528.2</ele>
        <time>2019-08-17T11:07:04Z</time>
      </trkpt>
      <trkpt lat="42.95807" lon="0.84234">
        <ele>1528</ele>
        <time>2019-08-17T11:07:05Z</time>
      </trkpt>
      <trkpt lat="42.95807" lon="0.84236">
        <ele>1527.8</ele>
        <time>2019-08-17T11:07:06Z</time>
      </trkpt>
      <trkpt lat="42.95806" lon="0.84237">
        <ele>1527.6</ele>
        <time>2019-08-17T11:07:07Z</time>
      </trkpt>
      <trkpt lat="42.95806" lon="0.84238">
        <ele>1527.4</ele>
        <time>2019-08-17T11:07:08Z</time>
      </trkpt>
      <trkpt lat="42.95806" lon="0.84239">
        <ele>1527.3</ele>
        <time>2019-08-17T11:07:09Z</time>
      </trkpt>
      <trkpt lat="42.95805" lon="0.8424">
        <ele>1527</ele>
        <time>2019-08-17T11:07:10Z</time>
      </trkpt>
      <trkpt lat="42.95805" lon="0.84241">
        <ele>1526.8</ele>
        <time>2019-08-17T11:07:11Z</time>
      </trkpt>
      <trkpt lat="42.95804" lon="0.84242">
        <ele>1526.5</ele>
        <time>2019-08-17T11:07:12Z</time>
      </trkpt>
      <trkpt lat="42.95804" lon="0.84244">
        <ele>1526.3</ele>
        <time>2019-08-17T11:07:13Z</time>
      </trkpt>
      <trkpt lat="42.95804" lon="0.84245">
        <ele>1526</ele>
        <time>2019-08-17T11:07:14Z</time>
      </trkpt>
      <trkpt lat="42.95803" lon="0.84246">
        <ele>1525.8</ele>
        <time>2019-08-17T11:07:15Z</time>
      </trkpt>
      <trkpt lat="42.95803" lon="0.84247">
        <ele>1525.6</ele>
        <time>2019-08-17T11:07:16Z</time>
      </trkpt>
      <trkpt lat="42.95802" lon="0.84248">
        <ele>1525.3</ele>
        <time>2019-08-17T11:07:17Z</time>
      </trkpt>
      <trkpt lat="42.95802" lon="0.8425">
        <ele>1525.1</ele>
        <time>2019-08-17T11:07:18Z</time>
      </trkpt>
      <trkpt lat="42.95801" lon="0.84251">
        <ele>1524.9</ele>
        <time>2019-08-17T11:07:19Z</time>
      </trkpt>
      <trkpt lat="42.95801" lon="0.84252">
        <ele>1524.6</ele>
        <time>2019-08-17T11:07:20Z</time>
      </trkpt>
      <trkpt lat="42.958" lon="0.84253">
        <ele>1524.4</ele>
        <time>2019-08-17T11:07:21Z</time>
      </trkpt>
      <trkpt lat="42.958" lon="0.84254">
        <ele>1524.2</ele>
        <time>2019-08-17T11:07:22Z</time>
      </trkpt>
      <trkpt lat="42.95799" lon="0.84255">
        <ele>1524</ele>
        <time>2019-08-17T11:07:23Z</time>
      </trkpt>
      <trkpt lat="42.95798" lon="0.84255">
        <ele>1523.8</ele>
        <time>2019-08-17T11:07:24Z</time>
      </trkpt>
      <trkpt lat="42.95798" lon="0.84256">
        <ele>1523.7</ele>
        <time>2019-08-17T11:07:25Z</time>
      </trkpt>
      <trkpt lat="42.95797" lon="0.84257">
        <ele>1523.5</ele>
        <time>2019-08-17T11:07:26Z</time>
      </trkpt>
      <trkpt lat="42.95797" lon="0.84257">
        <ele>1523.4</ele>
        <time>2019-08-17T11:07:27Z</time>
      </trkpt>
      <trkpt lat="42.95796" lon="0.84258">
        <ele>1523.3</ele>
        <time>2019-08-17T11:07:28Z</time>
      </trkpt>
      <trkpt lat="42.95796" lon="0.84258">
        <ele>1523.2</ele>
        <time>2019-08-17T11:07:29Z</time>
      </trkpt>
      <trkpt lat="42.95795" lon="0.84258">
        <ele>1523</ele>
        <time>2019-08-17T11:07:30Z</time>
      </trkpt>
      <trkpt lat="42.95795" lon="0.84259">
        <ele>1522.9</ele>
        <time>2019-08-17T11:07:31Z</time>
      </trkpt>
      <trkpt lat="42.95794" lon="0.84259">
        <ele>1522.8</ele>
        <time>2019-08-17T11:07:32Z</time>
      </trkpt>
      <trkpt lat="42.95794" lon="0.8426">
        <ele>1522.8</ele>
        <time>2019-08-17T11:07:33Z</time>
      </trkpt>
      <trkpt lat="42.95794" lon="0.8426">
        <ele>1522.7</ele>
        <time>2019-08-17T11:07:34Z</time>
      </trkpt>
      <trkpt lat="42.95794" lon="0.84261">
        <ele>1522.5</ele>
        <time>2019-08-17T11:07:35Z</time>
      </trkpt>
      <trkpt lat="42.95793" lon="0.84262">
        <ele>1522.4</ele>
        <time>2019-08-17T11:07:36Z</time>
      </trkpt>
      <trkpt lat="42.95793" lon="0.84263">
        <ele>1522.2</ele>
        <time>2019-08-17T11:07:37Z</time>
      </trkpt>
      <trkpt lat="42.95793" lon="0.84264">
        <ele>1522.1</ele>
        <time>2019-08-17T11:07:38Z</time>
      </trkpt>
      <trkpt lat="42.95792" lon="0.84264">
        <ele>1522</ele>
        <time>2019-08-17T11:07:39Z</time>
      </trkpt>
      <trkpt lat="42.95792" lon="0.84265">
        <ele>1521.9</ele>
        <time>2019-08-17T11:07:40Z</time>
      </trkpt>
      <trkpt lat="42.95791" lon="0.84266">
        <ele>1521.7</ele>
        <time>2019-08-17T11:07:41Z</time>
      </trkpt>
      <trkpt lat="42.95791" lon="0.84267">
        <ele>1521.5</ele>
        <time>2019-08-17T11:07:42Z</time>
      </trkpt>
      <trkpt lat="42.95791" lon="0.84267">
        <ele>1521.3</ele>
        <time>2019-08-17T11:07:43Z</time>
      </trkpt>
      <trkpt lat="42.9579" lon="0.84268">
        <ele>1521.2</ele>
        <time>2019-08-17T11:07:44Z</time>
      </trkpt>
      <trkpt lat="42.9579" lon="0.84269">
        <ele>1521.1</ele>
        <time>2019-08-17T11:07:45Z</time>
      </trkpt>
      <trkpt lat="42.9579" lon="0.84269">
        <ele>1521</ele>
        <time>2019-08-17T11:07:46Z</time>
      </trkpt>
      <trkpt lat="42.9579" lon="0.84269">
        <ele>1521</ele>
        <time>2019-08-17T11:07:47Z</time>
      </trkpt>
      <trkpt lat="42.9579" lon="0.84269">
        <ele>1520.9</ele>
        <time>2019-08-17T11:07:48Z</time>
      </trkpt>
      <trkpt lat="42.95789" lon="0.8427">
        <ele>1520.8</ele>
        <time>2019-08-17T11:07:49Z</time>
      </trkpt>
      <trkpt lat="42.95789" lon="0.8427">
        <ele>1520.8</ele>
        <time>2019-08-17T11:07:50Z</time>
      </trkpt>
      <trkpt lat="42.95789" lon="0.84271">
        <ele>1520.6</ele>
        <time>2019-08-17T11:07:51Z</time>
      </trkpt>
      <trkpt lat="42.95789" lon="0.84271">
        <ele>1520.5</ele>
        <time>2019-08-17T11:07:52Z</time>
      </trkpt>
      <trkpt lat="42.95788" lon="0.84272">
        <ele>1520.4</ele>
        <time>2019-08-17T11:07:53Z</time>
      </trkpt>
      <trkpt lat="42.95788" lon="0.84272">
        <ele>1520.2</ele>
        <time>2019-08-17T11:07:54Z</time>
      </trkpt>
      <trkpt lat="42.95787" lon="0.84273">
        <ele>1520</ele>
        <time>2019-08-17T11:07:55Z</time>
      </trkpt>
      <trkpt lat="42.95787" lon="0.84274">
        <ele>1519.8</ele>
        <time>2019-08-17T11:07:56Z</time>
      </trkpt>
      <trkpt lat="42.95787" lon="0.84275">
        <ele>1519.5</ele>
        <time>2019-08-17T11:07:57Z</time>
      </trkpt>
      <trkpt lat="42.95786" lon="0.84276">
        <ele>1519.3</ele>
        <time>2019-08-17T11:07:58Z</time>
      </trkpt>
      <trkpt lat="42.95786" lon="0.84277">
        <ele>1519.1</ele>
        <time>2019-08-17T11:07:59Z</time>
      </trkpt>
      <trkpt lat="42.95785" lon="0.84278">
        <ele>1518.9</ele>
        <time>2019-08-17T11:08:00Z</time>
      </trkpt>
      <trkpt lat="42.95785" lon="0.84279">
        <ele>1518.7</ele>
        <time>2019-08-17T11:08:01Z</time>
      </trkpt>
      <trkpt lat="42.95785" lon="0.84279">
        <ele>1518.6</ele>
        <time>2019-08-17T11:08:02Z</time>
      </trkpt>
      <trkpt lat="42.95785" lon="0.8428">
        <ele>1518.5</ele>
        <time>2019-08-17T11:08:03Z</time>
      </trkpt>
      <trkpt lat="42.95784" lon="0.8428">
        <ele>1518.4</ele>
        <time>2019-08-17T11:08:04Z</time>
      </trkpt>
      <trkpt lat="42.95784" lon="0.8428">
        <ele>1518.4</ele>
        <time>2019-08-17T11:08:05Z</time>
      </trkpt>
      <trkpt lat="42.95784" lon="0.8428">
        <ele>1518.3</ele>
        <time>2019-08-17T11:08:06Z</time>
      </trkpt>
      <trkpt lat="42.95784" lon="0.84281">
        <ele>1518.3</ele>
        <time>2019-08-17T11:08:07Z</time>
      </trkpt>
      <trkpt lat="42.95784" lon="0.84281">
        <ele>1518.2</ele>
        <time>2019-08-17T11:08:08Z</time>
      </trkpt>
      <trkpt lat="42.95783" lon="0.84282">
        <ele>1518</ele>
        <time>2019-08-17T11:08:09Z</time>
      </trkpt>
      <trkpt lat="42.95783" lon="0.84283">
        <ele>1517.8</ele>
        <time>2019-08-17T11:08:10Z</time>
      </trkpt>
      <trkpt lat="42.95782" lon="0.84283">
        <ele>1517.7</ele>
        <time>2019-08-17T11:08:11Z</time>
      </trkpt>
      <trkpt lat="42.95781" lon="0.84284">
        <ele>1517.5</ele>
        <time>2019-08-17T11:08:12Z</time>
      </trkpt>
      <trkpt lat="42.9578" lon="0.84284">
        <ele>1517.3</ele>
        <time>2019-08-17T11:08:13Z</time>
      </trkpt>
      <trkpt lat="42.95779" lon="0.84285">
        <ele>1517.1</ele>
        <time>2019-08-17T11:08:14Z</time>
      </trkpt>
      <trkpt lat="42.95778" lon="0.84285">
        <ele>1516.9</ele>
        <time>2019-08-17T11:08:15Z</time>
      </trkpt>
      <trkpt lat="42.95778" lon="0.84286">
        <ele>1516.7</ele>
        <time>2019-08-17T11:08:16Z</time>
      </trkpt>
      <trkpt lat="42.95777" lon="0.84286">
        <ele>1516.5</ele>
        <time>2019-08-17T11:08:17Z</time>
      </trkpt>
      <trkpt lat="42.95776" lon="0.84287">
        <ele>1516.3</ele>
        <time>2019-08-17T11:08:18Z</time>
      </trkpt>
      <trkpt lat="42.95775" lon="0.84287">
        <ele>1516.1</ele>
        <time>2019-08-17T11:08:19Z</time>
      </trkpt>
      <trkpt lat="42.95774" lon="0.84287">
        <ele>1515.9</ele>
        <time>2019-08-17T11:08:20Z</time>
      </trkpt>
      <trkpt lat="42.95773" lon="0.84288">
        <ele>1515.7</ele>
        <time>2019-08-17T11:08:21Z</time>
      </trkpt>
      <trkpt lat="42.95772" lon="0.84288">
        <ele>1515.5</ele>
        <time>2019-08-17T11:08:22Z</time>
      </trkpt>
      <trkpt lat="42.95771" lon="0.84288">
        <ele>1515.3</ele>
        <time>2019-08-17T11:08:23Z</time>
      </trkpt>
      <trkpt lat="42.9577" lon="0.84288">
        <ele>1515.1</ele>
        <time>2019-08-17T11:08:24Z</time>
      </trkpt>
      <trkpt lat="42.9577" lon="0.84288">
        <ele>1514.9</ele>
        <time>2019-08-17T11:08:25Z</time>
      </trkpt>
      <trkpt lat="42.95769" lon="0.84287">
        <ele>1514.7</ele>
        <time>2019-08-17T11:08:26Z</time>
      </trkpt>
      <trkpt lat="42.95768" lon="0.84287">
        <ele>1514.5</ele>
        <time>2019-08-17T11:08:27Z</time>
      </trkpt>
      <trkpt lat="42.95767" lon="0.84287">
        <ele>1514.3</ele>
        <time>2019-08-17T11:08:28Z</time>
      </trkpt>
      <trkpt lat="42.95766" lon="0.84287">
        <ele>1514.1</ele>
        <time>2019-08-17T11:08:29Z</time>
      </trkpt>
      <trkpt lat="42.95766" lon="0.84286">
        <ele>1513.9</ele>
        <time>2019-08-17T11:08:30Z</time>
      </trkpt>
      <trkpt lat="42.95765" lon="0.84286">
        <ele>1513.7</ele>
        <time>2019-08-17T11:08:31Z</time>
      </trkpt>
      <trkpt lat="42.95764" lon="0.84285">
        <ele>1513.5</ele>
        <time>2019-08-17T11:08:32Z</time>
      </trkpt>
      <trkpt lat="42.95763" lon="0.84285">
        <ele>1513.3</ele>
        <time>2019-08-17T11:08:33Z</time>
      </trkpt>
      <trkpt lat="42.95762" lon="0.84284">
        <ele>1513.1</ele>
        <time>2019-08-17T11:08:34Z</time>
      </trkpt>
      <trkpt lat="42.95762" lon="0.84284">
        <ele>1512.9</ele>
        <time>2019-08-17T11:08:35Z</time>
      </trkpt>
      <trkpt lat="42.95761" lon="0.84284">
        <ele>1512.8</ele>
        <time>2019-08-17T11:08:36Z</time>
      </trkpt>
      <trkpt lat="42.9576" lon="0.84283">
        <ele>1512.6</ele>
        <time>2019-08-17T11:08:37Z</time>
      </trkpt>
      <trkpt lat="42.95759" lon="0.84283">
        <ele>1512.4</ele>
        <time>2019-08-17T11:08:38Z</time>
      </trkpt>
      <trkpt lat="42.95758" lon="0.84282">
        <ele>1512.2</ele>
        <time>2019-08-17T11:08:39Z</time>
      </trkpt>
      <trkpt lat="42.95757" lon="0.84282">
        <ele>1512.1</ele>
        <time>2019-08-17T11:08:40Z</time>
      </trkpt>
      <trkpt lat="42.95757" lon="0.84282">
        <ele>1511.9</ele>
        <time>2019-08-17T11:08:41Z</time>
      </trkpt>
      <trkpt lat="42.95756" lon="0.84282">
        <ele>1511.7</ele>
        <time>2019-08-17T11:08:42Z</time>
      </trkpt>
      <trkpt lat="42.95755" lon="0.84281">
        <ele>1511.6</ele>
        <time>2019-08-17T11:08:43Z</time>
      </trkpt>
      <trkpt lat="42.95754" lon="0.84281">
        <ele>1511.4</ele>
        <time>2019-08-17T11:08:44Z</time>
      </trkpt>
      <trkpt lat="42.95753" lon="0.84281">
        <ele>1511.3</ele>
        <time>2019-08-17T11:08:45Z</time>
      </trkpt>
      <trkpt lat="42.95753" lon="0.8428">
        <ele>1511.1</ele>
        <time>2019-08-17T11:08:46Z</time>
      </trkpt>
      <trkpt lat="42.95752" lon="0.8428">
        <ele>1511</ele>
        <time>2019-08-17T11:08:47Z</time>
      </trkpt>
      <trkpt lat="42.95751" lon="0.8428">
        <ele>1510.9</ele>
        <time>2019-08-17T11:08:48Z</time>
      </trkpt>
      <trkpt lat="42.9575" lon="0.84279">
        <ele>1510.8</ele>
        <time>2019-08-17T11:08:49Z</time>
      </trkpt>
      <trkpt lat="42.95749" lon="0.84279">
        <ele>1510.7</ele>
        <time>2019-08-17T11:08:50Z</time>
      </trkpt>
      <trkpt lat="42.95749" lon="0.84278">
        <ele>1510.6</ele>
        <time>2019-08-17T11:08:51Z</time>
      </trkpt>
      <trkpt lat="42.95748" lon="0.84278">
        <ele>1510.4</ele>
        <time>2019-08-17T11:08:52Z</time>
      </trkpt>
      <trkpt lat="42.95747" lon="0.84277">
        <ele>1510.3</ele>
        <time>2019-08-17T11:08:53Z</time>
      </trkpt>
      <trkpt lat="42.95747" lon="0.84277">
        <ele>1510.2</ele>
        <time>2019-08-17T11:08:54Z</time>
      </trkpt>
      <trkpt lat="42.95746" lon="0.84276">
        <ele>1510.1</ele>
        <time>2019-08-17T11:08:55Z</time>
      </trkpt>
      <trkpt lat="42.95745" lon="0.84276">
        <ele>1510</ele>
        <time>2019-08-17T11:08:56Z</time>
      </trkpt>
      <trkpt lat="42.95744" lon="0.84275">
        <ele>1509.9</ele>
        <time>2019-08-17T11:08:57Z</time>
      </trkpt>
      <trkpt lat="42.95744" lon="0.84274">
        <ele>1509.8</ele>
        <time>2019-08-17T11:08:58Z</time>
      </trkpt>
      <trkpt lat="42.95743" lon="0.84274">
        <ele>1509.6</ele>
        <time>2019-08-17T11:08:59Z</time>
      </trkpt>
      <trkpt lat="42.95742" lon="0.84273">
        <ele>1509.5</ele>
        <time>2019-08-17T11:09:00Z</time>
      </trkpt>
      <trkpt lat="42.95741" lon="0.84273">
        <ele>1509.4</ele>
        <time>2019-08-17T11:09:01Z</time>
      </trkpt>
      <trkpt lat="42.9574" lon="0.84273">
        <ele>1509.3</ele>
        <time>2019-08-17T11:09:02Z</time>
      </trkpt>
      <trkpt lat="42.95739" lon="0.84272">
        <ele>1509.2</ele>
        <time>2019-08-17T11:09:03Z</time>
      </trkpt>
      <trkpt lat="42.95739" lon="0.84272">
        <ele>1509</ele>
        <time>2019-08-17T11:09:04Z</time>
      </trkpt>
      <trkpt lat="42.95738" lon="0.84272">
        <ele>1508.9</ele>
        <time>2019-08-17T11:09:05Z</time>
      </trkpt>
      <trkpt lat="42.95737" lon="0.84272">
        <ele>1508.9</ele>
        <time>2019-08-17T11:09:06Z</time>
      </trkpt>
      <trkpt lat="42.95736" lon="0.84271">
        <ele>1508.8</ele>
        <time>2019-08-17T11:09:07Z</time>
      </trkpt>
      <trkpt lat="42.95735" lon="0.84271">
        <ele>1508.7</ele>
        <time>2019-08-17T11:09:08Z</time>
      </trkpt>
      <trkpt lat="42.95734" lon="0.84271">
        <ele>1508.6</ele>
        <time>2019-08-17T11:09:09Z</time>
      </trkpt>
      <trkpt lat="42.95734" lon="0.84271">
        <ele>1508.6</ele>
        <time>2019-08-17T11:09:10Z</time>
      </trkpt>
      <trkpt lat="42.95733" lon="0.84271">
        <ele>1508.5</ele>
        <time>2019-08-17T11:09:11Z</time>
      </trkpt>
      <trkpt lat="42.95732" lon="0.84271">
        <ele>1508.4</ele>
        <time>2019-08-17T11:09:12Z</time>
      </trkpt>
      <trkpt lat="42.95731" lon="0.8427">
        <ele>1508.4</ele>
        <time>2019-08-17T11:09:13Z</time>
      </trkpt>
      <trkpt lat="42.9573" lon="0.8427">
        <ele>1508.3</ele>
        <time>2019-08-17T11:09:14Z</time>
      </trkpt>
      <trkpt lat="42.9573" lon="0.8427">
        <ele>1508.2</ele>
        <time>2019-08-17T11:09:15Z</time>
      </trkpt>
      <trkpt lat="42.95729" lon="0.8427">
        <ele>1508.1</ele>
        <time>2019-08-17T11:09:16Z</time>
      </trkpt>
      <trkpt lat="42.95728" lon="0.84269">
        <ele>1508</ele>
        <time>2019-08-17T11:09:17Z</time>
      </trkpt>
      <trkpt lat="42.95726" lon="0.84269">
        <ele>1507.9</ele>
        <time>2019-08-17T11:09:18Z</time>
      </trkpt>
      <trkpt lat="42.95725" lon="0.84269">
        <ele>1507.6</ele>
        <time>2019-08-17T11:09:19Z</time>
      </trkpt>
      <trkpt lat="42.95724" lon="0.84268">
        <ele>1507.6</ele>
        <time>2019-08-17T11:09:20Z</time>
      </trkpt>
      <trkpt lat="42.95723" lon="0.84268">
        <ele>1507.6</ele>
        <time>2019-08-17T11:09:21Z</time>
      </trkpt>
      <trkpt lat="42.95722" lon="0.84268">
        <ele>1507.6</ele>
        <time>2019-08-17T11:09:22Z</time>
      </trkpt>
      <trkpt lat="42.95722" lon="0.84268">
        <ele>1507.6</ele>
        <time>2019-08-17T11:09:23Z</time>
      </trkpt>
      <trkpt lat="42.95721" lon="0.84268">
        <ele>1507.6</ele>
        <time>2019-08-17T11:09:24Z</time>
      </trkpt>
      <trkpt lat="42.9572" lon="0.84268">
        <ele>1507.5</ele>
        <time>2019-08-17T11:09:25Z</time>
      </trkpt>
      <trkpt lat="42.95719" lon="0.84268">
        <ele>1507.2</ele>
        <time>2019-08-17T11:09:26Z</time>
      </trkpt>
      <trkpt lat="42.95718" lon="0.84269">
        <ele>1507</ele>
        <time>2019-08-17T11:09:27Z</time>
      </trkpt>
      <trkpt lat="42.95717" lon="0.84269">
        <ele>1506.7</ele>
        <time>2019-08-17T11:09:28Z</time>
      </trkpt>
      <trkpt lat="42.95716" lon="0.8427">
        <ele>1506.5</ele>
        <time>2019-08-17T11:09:29Z</time>
      </trkpt>
      <trkpt lat="42.95715" lon="0.8427">
        <ele>1506.3</ele>
        <time>2019-08-17T11:09:30Z</time>
      </trkpt>
      <trkpt lat="42.95715" lon="0.8427">
        <ele>1506.1</ele>
        <time>2019-08-17T11:09:31Z</time>
      </trkpt>
      <trkpt lat="42.95714" lon="0.84271">
        <ele>1505.9</ele>
        <time>2019-08-17T11:09:32Z</time>
      </trkpt>
      <trkpt lat="42.95713" lon="0.84271">
        <ele>1505.7</ele>
        <time>2019-08-17T11:09:33Z</time>
      </trkpt>
      <trkpt lat="42.95712" lon="0.84272">
        <ele>1505.5</ele>
        <time>2019-08-17T11:09:34Z</time>
      </trkpt>
      <trkpt lat="42.95712" lon="0.84273">
        <ele>1505.3</ele>
        <time>2019-08-17T11:09:35Z</time>
      </trkpt>
      <trkpt lat="42.95711" lon="0.84273">
        <ele>1505.1</ele>
        <time>2019-08-17T11:09:36Z</time>
      </trkpt>
      <trkpt lat="42.9571" lon="0.84274">
        <ele>1504.9</ele>
        <time>2019-08-17T11:09:37Z</time>
      </trkpt>
      <trkpt lat="42.95709" lon="0.84275">
        <ele>1504.7</ele>
        <time>2019-08-17T11:09:38Z</time>
      </trkpt>
      <trkpt lat="42.95709" lon="0.84276">
        <ele>1504.4</ele>
        <time>2019-08-17T11:09:39Z</time>
      </trkpt>
      <trkpt lat="42.95708" lon="0.84277">
        <ele>1504.4</ele>
        <time>2019-08-17T11:09:40Z</time>
      </trkpt>
      <trkpt lat="42.95707" lon="0.84278">
        <ele>1504.3</ele>
        <time>2019-08-17T11:09:41Z</time>
      </trkpt>
      <trkpt lat="42.95707" lon="0.84279">
        <ele>1504.2</ele>
        <time>2019-08-17T11:09:42Z</time>
      </trkpt>
      <trkpt lat="42.95706" lon="0.8428">
        <ele>1504.1</ele>
        <time>2019-08-17T11:09:43Z</time>
      </trkpt>
      <trkpt lat="42.95706" lon="0.8428">
        <ele>1504</ele>
        <time>2019-08-17T11:09:44Z</time>
      </trkpt>
      <trkpt lat="42.95706" lon="0.84281">
        <ele>1504</ele>
        <time>2019-08-17T11:09:45Z</time>
      </trkpt>
      <trkpt lat="42.95705" lon="0.84282">
        <ele>1503.9</ele>
        <time>2019-08-17T11:09:46Z</time>
      </trkpt>
      <trkpt lat="42.95704" lon="0.84282">
        <ele>1503.8</ele>
        <time>2019-08-17T11:09:47Z</time>
      </trkpt>
      <trkpt lat="42.95704" lon="0.84283">
        <ele>1503.8</ele>
        <time>2019-08-17T11:09:48Z</time>
      </trkpt>
      <trkpt lat="42.95703" lon="0.84283">
        <ele>1503.7</ele>
        <time>2019-08-17T11:09:49Z</time>
      </trkpt>
      <trkpt lat="42.95703" lon="0.84284">
        <ele>1503.6</ele>
        <time>2019-08-17T11:09:50Z</time>
      </trkpt>
      <trkpt lat="42.95702" lon="0.84285">
        <ele>1503.5</ele>
        <time>2019-08-17T11:09:51Z</time>
      </trkpt>
      <trkpt lat="42.95702" lon="0.84286">
        <ele>1503.4</ele>
        <time>2019-08-17T11:09:52Z</time>
      </trkpt>
      <trkpt lat="42.95701" lon="0.84287">
        <ele>1503.3</ele>
        <time>2019-08-17T11:09:53Z</time>
      </trkpt>
      <trkpt lat="42.95701" lon="0.84288">
        <ele>1503.2</ele>
        <time>2019-08-17T11:09:54Z</time>
      </trkpt>
      <trkpt lat="42.95701" lon="0.8429">
        <ele>1503.1</ele>
        <time>2019-08-17T11:09:55Z</time>
      </trkpt>
      <trkpt lat="42.957" lon="0.84291">
        <ele>1502.9</ele>
        <time>2019-08-17T11:09:56Z</time>
      </trkpt>
      <trkpt lat="42.957" lon="0.84292">
        <ele>1502.8</ele>
        <time>2019-08-17T11:09:57Z</time>
      </trkpt>
      <trkpt lat="42.95699" lon="0.84293">
        <ele>1502.7</ele>
        <time>2019-08-17T11:09:58Z</time>
      </trkpt>
      <trkpt lat="42.95699" lon="0.84295">
        <ele>1502.5</ele>
        <time>2019-08-17T11:09:59Z</time>
      </trkpt>
      <trkpt lat="42.95698" lon="0.84296">
        <ele>1502.3</ele>
        <time>2019-08-17T11:10:00Z</time>
      </trkpt>
      <trkpt lat="42.95698" lon="0.84297">
        <ele>1502.2</ele>
        <time>2019-08-17T11:10:01Z</time>
      </trkpt>
      <trkpt lat="42.95697" lon="0.84299">
        <ele>1502</ele>
        <time>2019-08-17T11:10:02Z</time>
      </trkpt>
      <trkpt lat="42.95697" lon="0.843">
        <ele>1501.8</ele>
        <time>2019-08-17T11:10:03Z</time>
      </trkpt>
      <trkpt lat="42.95696" lon="0.84302">
        <ele>1501.7</ele>
        <time>2019-08-17T11:10:04Z</time>
      </trkpt>
      <trkpt lat="42.95696" lon="0.84303">
        <ele>1501.5</ele>
        <time>2019-08-17T11:10:05Z</time>
      </trkpt>
      <trkpt lat="42.95696" lon="0.84304">
        <ele>1501.4</ele>
        <time>2019-08-17T11:10:06Z</time>
      </trkpt>
      <trkpt lat="42.95695" lon="0.84306">
        <ele>1501.3</ele>
        <time>2019-08-17T11:10:07Z</time>
      </trkpt>
      <trkpt lat="42.95695" lon="0.84307">
        <ele>1501.3</ele>
        <time>2019-08-17T11:10:08Z</time>
      </trkpt>
      <trkpt lat="42.95695" lon="0.84309">
        <ele>1501.2</ele>
        <time>2019-08-17T11:10:09Z</time>
      </trkpt>
      <trkpt lat="42.95694" lon="0.8431">
        <ele>1501.2</ele>
        <time>2019-08-17T11:10:10Z</time>
      </trkpt>
      <trkpt lat="42.95694" lon="0.84311">
        <ele>1501.1</ele>
        <time>2019-08-17T11:10:11Z</time>
      </trkpt>
      <trkpt lat="42.95694" lon="0.84313">
        <ele>1501</ele>
        <time>2019-08-17T11:10:12Z</time>
      </trkpt>
      <trkpt lat="42.95693" lon="0.84314">
        <ele>1501</ele>
        <time>2019-08-17T11:10:13Z</time>
      </trkpt>
      <trkpt lat="42.95693" lon="0.84315">
        <ele>1501</ele>
        <time>2019-08-17T11:10:14Z</time>
      </trkpt>
      <trkpt lat="42.95693" lon="0.84316">
        <ele>1500.9</ele>
        <time>2019-08-17T11:10:15Z</time>
      </trkpt>
      <trkpt lat="42.95692" lon="0.84317">
        <ele>1500.9</ele>
        <time>2019-08-17T11:10:16Z</time>
      </trkpt>
      <trkpt lat="42.95692" lon="0.84318">
        <ele>1500.9</ele>
        <time>2019-08-17T11:10:17Z</time>
      </trkpt>
      <trkpt lat="42.95691" lon="0.84319">
        <ele>1500.9</ele>
        <time>2019-08-17T11:10:18Z</time>
      </trkpt>
      <trkpt lat="42.95691" lon="0.84321">
        <ele>1500.9</ele>
        <time>2019-08-17T11:10:19Z</time>
      </trkpt>
      <trkpt lat="42.9569" lon="0.84322">
        <ele>1500.9</ele>
        <time>2019-08-17T11:10:20Z</time>
      </trkpt>
      <trkpt lat="42.9569" lon="0.84323">
        <ele>1500.8</ele>
        <time>2019-08-17T11:10:21Z</time>
      </trkpt>
      <trkpt lat="42.95689" lon="0.84324">
        <ele>1500.8</ele>
        <time>2019-08-17T11:10:22Z</time>
      </trkpt>
      <trkpt lat="42.95689" lon="0.84325">
        <ele>1500.8</ele>
        <time>2019-08-17T11:10:23Z</time>
      </trkpt>
      <trkpt lat="42.95688" lon="0.84326">
        <ele>1500.8</ele>
        <time>2019-08-17T11:10:24Z</time>
      </trkpt>
      <trkpt lat="42.95688" lon="0.84328">
        <ele>1500.9</ele>
        <time>2019-08-17T11:10:25Z</time>
      </trkpt>
      <trkpt lat="42.95687" lon="0.84329">
        <ele>1500.9</ele>
        <time>2019-08-17T11:10:26Z</time>
      </trkpt>
      <trkpt lat="42.95687" lon="0.8433">
        <ele>1500.9</ele>
        <time>2019-08-17T11:10:27Z</time>
      </trkpt>
      <trkpt lat="42.95686" lon="0.84331">
        <ele>1500.9</ele>
        <time>2019-08-17T11:10:28Z</time>
      </trkpt>
      <trkpt lat="42.95685" lon="0.84332">
        <ele>1500.9</ele>
        <time>2019-08-17T11:10:29Z</time>
      </trkpt>
      <trkpt lat="42.95685" lon="0.84334">
        <ele>1500.9</ele>
        <time>2019-08-17T11:10:30Z</time>
      </trkpt>
      <trkpt lat="42.95684" lon="0.84335">
        <ele>1501</ele>
        <time>2019-08-17T11:10:31Z</time>
      </trkpt>
      <trkpt lat="42.95683" lon="0.84336">
        <ele>1500.9</ele>
        <time>2019-08-17T11:10:32Z</time>
      </trkpt>
      <trkpt lat="42.95683" lon="0.84337">
        <ele>1500.9</ele>
        <time>2019-08-17T11:10:33Z</time>
      </trkpt>
      <trkpt lat="42.95682" lon="0.84338">
        <ele>1500.9</ele>
        <time>2019-08-17T11:10:34Z</time>
      </trkpt>
      <trkpt lat="42.95682" lon="0.84339">
        <ele>1500.9</ele>
        <time>2019-08-17T11:10:35Z</time>
      </trkpt>
      <trkpt lat="42.95681" lon="0.8434">
        <ele>1500.9</ele>
        <time>2019-08-17T11:10:36Z</time>
      </trkpt>
      <trkpt lat="42.95681" lon="0.84341">
        <ele>1500.9</ele>
        <time>2019-08-17T11:10:37Z</time>
      </trkpt>
      <trkpt lat="42.9568" lon="0.84342">
        <ele>1500.8</ele>
        <time>2019-08-17T11:10:38Z</time>
      </trkpt>
      <trkpt lat="42.95679" lon="0.84343">
        <ele>1500.8</ele>
        <time>2019-08-17T11:10:39Z</time>
      </trkpt>
      <trkpt lat="42.95679" lon="0.84344">
        <ele>1500.8</ele>
        <time>2019-08-17T11:10:40Z</time>
      </trkpt>
      <trkpt lat="42.95678" lon="0.84345">
        <ele>1500.8</ele>
        <time>2019-08-17T11:10:41Z</time>
      </trkpt>
      <trkpt lat="42.95678" lon="0.84346">
        <ele>1500.8</ele>
        <time>2019-08-17T11:10:42Z</time>
      </trkpt>
      <trkpt lat="42.95677" lon="0.84347">
        <ele>1500.8</ele>
        <time>2019-08-17T11:10:43Z</time>
      </trkpt>
      <trkpt lat="42.95677" lon="0.84349">
        <ele>1500.8</ele>
        <time>2019-08-17T11:10:44Z</time>
      </trkpt>
      <trkpt lat="42.95676" lon="0.8435">
        <ele>1500.8</ele>
        <time>2019-08-17T11:10:45Z</time>
      </trkpt>
      <trkpt lat="42.95675" lon="0.84351">
        <ele>1500.8</ele>
        <time>2019-08-17T11:10:46Z</time>
      </trkpt>
      <trkpt lat="42.95675" lon="0.84352">
        <ele>1500.8</ele>
        <time>2019-08-17T11:10:47Z</time>
      </trkpt>
      <trkpt lat="42.95674" lon="0.84352">
        <ele>1500.8</ele>
        <time>2019-08-17T11:10:48Z</time>
      </trkpt>
      <trkpt lat="42.95674" lon="0.84353">
        <ele>1500.8</ele>
        <time>2019-08-17T11:10:49Z</time>
      </trkpt>
      <trkpt lat="42.95673" lon="0.84354">
        <ele>1500.8</ele>
        <time>2019-08-17T11:10:50Z</time>
      </trkpt>
      <trkpt lat="42.95672" lon="0.84354">
        <ele>1500.8</ele>
        <time>2019-08-17T11:10:51Z</time>
      </trkpt>
      <trkpt lat="42.95672" lon="0.84355">
        <ele>1500.8</ele>
        <time>2019-08-17T11:10:52Z</time>
      </trkpt>
      <trkpt lat="42.95671" lon="0.84356">
        <ele>1500.8</ele>
        <time>2019-08-17T11:10:53Z</time>
      </trkpt>
      <trkpt lat="42.95671" lon="0.84357">
        <ele>1500.8</ele>
        <time>2019-08-17T11:10:54Z</time>
      </trkpt>
      <trkpt lat="42.9567" lon="0.84358">
        <ele>1500.8</ele>
        <time>2019-08-17T11:10:55Z</time>
      </trkpt>
      <trkpt lat="42.9567" lon="0.84359">
        <ele>1500.7</ele>
        <time>2019-08-17T11:10:56Z</time>
      </trkpt>
      <trkpt lat="42.95669" lon="0.84361">
        <ele>1500.6</ele>
        <time>2019-08-17T11:10:57Z</time>
      </trkpt>
      <trkpt lat="42.95669" lon="0.84362">
        <ele>1500.6</ele>
        <time>2019-08-17T11:10:58Z</time>
      </trkpt>
      <trkpt lat="42.95669" lon="0.84363">
        <ele>1500.5</ele>
        <time>2019-08-17T11:10:59Z</time>
      </trkpt>
      <trkpt lat="42.95668" lon="0.84363">
        <ele>1500.5</ele>
        <time>2019-08-17T11:11:00Z</time>
      </trkpt>
      <trkpt lat="42.95668" lon="0.84364">
        <ele>1500.4</ele>
        <time>2019-08-17T11:11:01Z</time>
      </trkpt>
      <trkpt lat="42.95668" lon="0.84365">
        <ele>1500.4</ele>
        <time>2019-08-17T11:11:02Z</time>
      </trkpt>
      <trkpt lat="42.95667" lon="0.84366">
        <ele>1500.3</ele>
        <time>2019-08-17T11:11:03Z</time>
      </trkpt>
      <trkpt lat="42.95667" lon="0.84367">
        <ele>1500.3</ele>
        <time>2019-08-17T11:11:04Z</time>
      </trkpt>
      <trkpt lat="42.95666" lon="0.84368">
        <ele>1500.2</ele>
        <time>2019-08-17T11:11:05Z</time>
      </trkpt>
      <trkpt lat="42.95666" lon="0.8437">
        <ele>1500.2</ele>
        <time>2019-08-17T11:11:06Z</time>
      </trkpt>
      <trkpt lat="42.95666" lon="0.84371">
        <ele>1500.1</ele>
        <time>2019-08-17T11:11:07Z</time>
      </trkpt>
      <trkpt lat="42.95665" lon="0.84372">
        <ele>1500</ele>
        <time>2019-08-17T11:11:08Z</time>
      </trkpt>
      <trkpt lat="42.95665" lon="0.84373">
        <ele>1500</ele>
        <time>2019-08-17T11:11:09Z</time>
      </trkpt>
      <trkpt lat="42.95664" lon="0.84374">
        <ele>1499.9</ele>
        <time>2019-08-17T11:11:10Z</time>
      </trkpt>
      <trkpt lat="42.95664" lon="0.84375">
        <ele>1499.8</ele>
        <time>2019-08-17T11:11:11Z</time>
      </trkpt>
      <trkpt lat="42.95664" lon="0.84376">
        <ele>1499.8</ele>
        <time>2019-08-17T11:11:12Z</time>
      </trkpt>
      <trkpt lat="42.95663" lon="0.84377">
        <ele>1499.7</ele>
        <time>2019-08-17T11:11:13Z</time>
      </trkpt>
      <trkpt lat="42.95663" lon="0.84379">
        <ele>1499.6</ele>
        <time>2019-08-17T11:11:14Z</time>
      </trkpt>
      <trkpt lat="42.95662" lon="0.84382">
        <ele>1499.4</ele>
        <time>2019-08-17T11:11:15Z</time>
      </trkpt>
      <trkpt lat="42.95662" lon="0.84382">
        <ele>1499.3</ele>
        <time>2019-08-17T11:11:16Z</time>
      </trkpt>
      <trkpt lat="42.95662" lon="0.84383">
        <ele>1499.2</ele>
        <time>2019-08-17T11:11:17Z</time>
      </trkpt>
      <trkpt lat="42.95662" lon="0.84384">
        <ele>1499.2</ele>
        <time>2019-08-17T11:11:18Z</time>
      </trkpt>
      <trkpt lat="42.95661" lon="0.84385">
        <ele>1499.1</ele>
        <time>2019-08-17T11:11:19Z</time>
      </trkpt>
      <trkpt lat="42.95661" lon="0.84386">
        <ele>1499</ele>
        <time>2019-08-17T11:11:20Z</time>
      </trkpt>
      <trkpt lat="42.95661" lon="0.84387">
        <ele>1499</ele>
        <time>2019-08-17T11:11:21Z</time>
      </trkpt>
      <trkpt lat="42.95661" lon="0.84388">
        <ele>1498.8</ele>
        <time>2019-08-17T11:11:22Z</time>
      </trkpt>
      <trkpt lat="42.9566" lon="0.84389">
        <ele>1498.7</ele>
        <time>2019-08-17T11:11:23Z</time>
      </trkpt>
      <trkpt lat="42.9566" lon="0.8439">
        <ele>1498.6</ele>
        <time>2019-08-17T11:11:24Z</time>
      </trkpt>
      <trkpt lat="42.9566" lon="0.84391">
        <ele>1498.4</ele>
        <time>2019-08-17T11:11:25Z</time>
      </trkpt>
      <trkpt lat="42.9566" lon="0.84391">
        <ele>1498.3</ele>
        <time>2019-08-17T11:11:26Z</time>
      </trkpt>
      <trkpt lat="42.95659" lon="0.84392">
        <ele>1498.2</ele>
        <time>2019-08-17T11:11:27Z</time>
      </trkpt>
      <trkpt lat="42.95659" lon="0.84393">
        <ele>1498</ele>
        <time>2019-08-17T11:11:28Z</time>
      </trkpt>
      <trkpt lat="42.95659" lon="0.84394">
        <ele>1497.9</ele>
        <time>2019-08-17T11:11:29Z</time>
      </trkpt>
      <trkpt lat="42.95659" lon="0.84395">
        <ele>1497.8</ele>
        <time>2019-08-17T11:11:30Z</time>
      </trkpt>
      <trkpt lat="42.95658" lon="0.84396">
        <ele>1497.6</ele>
        <time>2019-08-17T11:11:31Z</time>
      </trkpt>
      <trkpt lat="42.95658" lon="0.84397">
        <ele>1497.5</ele>
        <time>2019-08-17T11:11:32Z</time>
      </trkpt>
      <trkpt lat="42.95658" lon="0.84398">
        <ele>1497.4</ele>
        <time>2019-08-17T11:11:33Z</time>
      </trkpt>
      <trkpt lat="42.95657" lon="0.84399">
        <ele>1497.2</ele>
        <time>2019-08-17T11:11:34Z</time>
      </trkpt>
      <trkpt lat="42.95657" lon="0.844">
        <ele>1497.1</ele>
        <time>2019-08-17T11:11:35Z</time>
      </trkpt>
      <trkpt lat="42.95657" lon="0.844">
        <ele>1497</ele>
        <time>2019-08-17T11:11:36Z</time>
      </trkpt>
      <trkpt lat="42.95657" lon="0.84401">
        <ele>1496.9</ele>
        <time>2019-08-17T11:11:37Z</time>
      </trkpt>
      <trkpt lat="42.95656" lon="0.84402">
        <ele>1496.7</ele>
        <time>2019-08-17T11:11:38Z</time>
      </trkpt>
      <trkpt lat="42.95656" lon="0.84403">
        <ele>1496.6</ele>
        <time>2019-08-17T11:11:39Z</time>
      </trkpt>
      <trkpt lat="42.95656" lon="0.84404">
        <ele>1496.5</ele>
        <time>2019-08-17T11:11:40Z</time>
      </trkpt>
      <trkpt lat="42.95656" lon="0.84405">
        <ele>1496.5</ele>
        <time>2019-08-17T11:11:41Z</time>
      </trkpt>
      <trkpt lat="42.95655" lon="0.84406">
        <ele>1496.4</ele>
        <time>2019-08-17T11:11:42Z</time>
      </trkpt>
      <trkpt lat="42.95655" lon="0.84407">
        <ele>1496.4</ele>
        <time>2019-08-17T11:11:43Z</time>
      </trkpt>
      <trkpt lat="42.95655" lon="0.84408">
        <ele>1496.3</ele>
        <time>2019-08-17T11:11:44Z</time>
      </trkpt>
      <trkpt lat="42.95655" lon="0.84409">
        <ele>1496.3</ele>
        <time>2019-08-17T11:11:45Z</time>
      </trkpt>
      <trkpt lat="42.95654" lon="0.84409">
        <ele>1496.2</ele>
        <time>2019-08-17T11:11:46Z</time>
      </trkpt>
      <trkpt lat="42.95654" lon="0.8441">
        <ele>1496.2</ele>
        <time>2019-08-17T11:11:47Z</time>
      </trkpt>
      <trkpt lat="42.95654" lon="0.84411">
        <ele>1496.1</ele>
        <time>2019-08-17T11:11:48Z</time>
      </trkpt>
      <trkpt lat="42.95653" lon="0.84412">
        <ele>1496</ele>
        <time>2019-08-17T11:11:49Z</time>
      </trkpt>
      <trkpt lat="42.95653" lon="0.84413">
        <ele>1495.9</ele>
        <time>2019-08-17T11:11:50Z</time>
      </trkpt>
      <trkpt lat="42.95653" lon="0.84414">
        <ele>1495.7</ele>
        <time>2019-08-17T11:11:51Z</time>
      </trkpt>
      <trkpt lat="42.95653" lon="0.84415">
        <ele>1495.5</ele>
        <time>2019-08-17T11:11:52Z</time>
      </trkpt>
      <trkpt lat="42.95652" lon="0.84416">
        <ele>1495.4</ele>
        <time>2019-08-17T11:11:53Z</time>
      </trkpt>
      <trkpt lat="42.95652" lon="0.84417">
        <ele>1495.3</ele>
        <time>2019-08-17T11:11:54Z</time>
      </trkpt>
      <trkpt lat="42.95652" lon="0.84418">
        <ele>1495.1</ele>
        <time>2019-08-17T11:11:55Z</time>
      </trkpt>
      <trkpt lat="42.95652" lon="0.84418">
        <ele>1495</ele>
        <time>2019-08-17T11:11:56Z</time>
      </trkpt>
      <trkpt lat="42.95651" lon="0.84419">
        <ele>1494.8</ele>
        <time>2019-08-17T11:11:57Z</time>
      </trkpt>
      <trkpt lat="42.95651" lon="0.8442">
        <ele>1494.7</ele>
        <time>2019-08-17T11:11:58Z</time>
      </trkpt>
      <trkpt lat="42.95651" lon="0.84421">
        <ele>1494.7</ele>
        <time>2019-08-17T11:11:59Z</time>
      </trkpt>
      <trkpt lat="42.95651" lon="0.84422">
        <ele>1494.6</ele>
        <time>2019-08-17T11:12:00Z</time>
      </trkpt>
      <trkpt lat="42.9565" lon="0.84423">
        <ele>1494.5</ele>
        <time>2019-08-17T11:12:01Z</time>
      </trkpt>
      <trkpt lat="42.9565" lon="0.84424">
        <ele>1494.5</ele>
        <time>2019-08-17T11:12:02Z</time>
      </trkpt>
      <trkpt lat="42.9565" lon="0.84425">
        <ele>1494.4</ele>
        <time>2019-08-17T11:12:03Z</time>
      </trkpt>
      <trkpt lat="42.9565" lon="0.84426">
        <ele>1494.3</ele>
        <time>2019-08-17T11:12:04Z</time>
      </trkpt>
      <trkpt lat="42.9565" lon="0.84427">
        <ele>1494.2</ele>
        <time>2019-08-17T11:12:05Z</time>
      </trkpt>
      <trkpt lat="42.9565" lon="0.84429">
        <ele>1494.1</ele>
        <time>2019-08-17T11:12:06Z</time>
      </trkpt>
      <trkpt lat="42.95649" lon="0.8443">
        <ele>1494</ele>
        <time>2019-08-17T11:12:07Z</time>
      </trkpt>
      <trkpt lat="42.95649" lon="0.84431">
        <ele>1493.9</ele>
        <time>2019-08-17T11:12:08Z</time>
      </trkpt>
      <trkpt lat="42.95648" lon="0.84433">
        <ele>1493.8</ele>
        <time>2019-08-17T11:12:09Z</time>
      </trkpt>
      <trkpt lat="42.95648" lon="0.84434">
        <ele>1493.6</ele>
        <time>2019-08-17T11:12:10Z</time>
      </trkpt>
      <trkpt lat="42.95648" lon="0.84435">
        <ele>1493.4</ele>
        <time>2019-08-17T11:12:11Z</time>
      </trkpt>
      <trkpt lat="42.95648" lon="0.84436">
        <ele>1493.3</ele>
        <time>2019-08-17T11:12:12Z</time>
      </trkpt>
      <trkpt lat="42.95647" lon="0.84438">
        <ele>1493.1</ele>
        <time>2019-08-17T11:12:13Z</time>
      </trkpt>
      <trkpt lat="42.95647" lon="0.84439">
        <ele>1492.9</ele>
        <time>2019-08-17T11:12:14Z</time>
      </trkpt>
      <trkpt lat="42.95647" lon="0.8444">
        <ele>1492.7</ele>
        <time>2019-08-17T11:12:15Z</time>
      </trkpt>
      <trkpt lat="42.95647" lon="0.84442">
        <ele>1492.4</ele>
        <time>2019-08-17T11:12:16Z</time>
      </trkpt>
      <trkpt lat="42.95647" lon="0.84443">
        <ele>1492.2</ele>
        <time>2019-08-17T11:12:17Z</time>
      </trkpt>
      <trkpt lat="42.95647" lon="0.84445">
        <ele>1491.9</ele>
        <time>2019-08-17T11:12:18Z</time>
      </trkpt>
      <trkpt lat="42.95647" lon="0.84446">
        <ele>1491.5</ele>
        <time>2019-08-17T11:12:19Z</time>
      </trkpt>
      <trkpt lat="42.95647" lon="0.84448">
        <ele>1491.2</ele>
        <time>2019-08-17T11:12:20Z</time>
      </trkpt>
      <trkpt lat="42.95647" lon="0.84449">
        <ele>1491</ele>
        <time>2019-08-17T11:12:21Z</time>
      </trkpt>
      <trkpt lat="42.95647" lon="0.84451">
        <ele>1490.7</ele>
        <time>2019-08-17T11:12:22Z</time>
      </trkpt>
      <trkpt lat="42.95647" lon="0.84452">
        <ele>1490.4</ele>
        <time>2019-08-17T11:12:23Z</time>
      </trkpt>
      <trkpt lat="42.95647" lon="0.84454">
        <ele>1490.3</ele>
        <time>2019-08-17T11:12:24Z</time>
      </trkpt>
      <trkpt lat="42.95647" lon="0.84455">
        <ele>1490.1</ele>
        <time>2019-08-17T11:12:25Z</time>
      </trkpt>
      <trkpt lat="42.95647" lon="0.84457">
        <ele>1489.9</ele>
        <time>2019-08-17T11:12:26Z</time>
      </trkpt>
      <trkpt lat="42.95647" lon="0.84458">
        <ele>1489.8</ele>
        <time>2019-08-17T11:12:27Z</time>
      </trkpt>
      <trkpt lat="42.95647" lon="0.8446">
        <ele>1489.7</ele>
        <time>2019-08-17T11:12:28Z</time>
      </trkpt>
      <trkpt lat="42.95648" lon="0.84461">
        <ele>1489.5</ele>
        <time>2019-08-17T11:12:29Z</time>
      </trkpt>
      <trkpt lat="42.95648" lon="0.84462">
        <ele>1489.4</ele>
        <time>2019-08-17T11:12:30Z</time>
      </trkpt>
      <trkpt lat="42.95648" lon="0.84464">
        <ele>1489.2</ele>
        <time>2019-08-17T11:12:31Z</time>
      </trkpt>
      <trkpt lat="42.95648" lon="0.84465">
        <ele>1489.1</ele>
        <time>2019-08-17T11:12:32Z</time>
      </trkpt>
      <trkpt lat="42.95648" lon="0.84466">
        <ele>1488.9</ele>
        <time>2019-08-17T11:12:33Z</time>
      </trkpt>
      <trkpt lat="42.95648" lon="0.84468">
        <ele>1488.8</ele>
        <time>2019-08-17T11:12:34Z</time>
      </trkpt>
      <trkpt lat="42.95648" lon="0.84469">
        <ele>1488.6</ele>
        <time>2019-08-17T11:12:35Z</time>
      </trkpt>
      <trkpt lat="42.95649" lon="0.8447">
        <ele>1488.5</ele>
        <time>2019-08-17T11:12:36Z</time>
      </trkpt>
      <trkpt lat="42.95649" lon="0.84471">
        <ele>1488.3</ele>
        <time>2019-08-17T11:12:37Z</time>
      </trkpt>
      <trkpt lat="42.95649" lon="0.84472">
        <ele>1488.2</ele>
        <time>2019-08-17T11:12:38Z</time>
      </trkpt>
      <trkpt lat="42.95649" lon="0.84473">
        <ele>1488</ele>
        <time>2019-08-17T11:12:39Z</time>
      </trkpt>
      <trkpt lat="42.9565" lon="0.84475">
        <ele>1487.9</ele>
        <time>2019-08-17T11:12:40Z</time>
      </trkpt>
      <trkpt lat="42.9565" lon="0.84476">
        <ele>1487.8</ele>
        <time>2019-08-17T11:12:41Z</time>
      </trkpt>
      <trkpt lat="42.9565" lon="0.84477">
        <ele>1487.6</ele>
        <time>2019-08-17T11:12:42Z</time>
      </trkpt>
      <trkpt lat="42.95649" lon="0.84478">
        <ele>1487.5</ele>
        <time>2019-08-17T11:12:43Z</time>
      </trkpt>
      <trkpt lat="42.95649" lon="0.84479">
        <ele>1487.4</ele>
        <time>2019-08-17T11:12:44Z</time>
      </trkpt>
      <trkpt lat="42.95648" lon="0.84479">
        <ele>1487.2</ele>
        <time>2019-08-17T11:12:45Z</time>
      </trkpt>
      <trkpt lat="42.95648" lon="0.8448">
        <ele>1487</ele>
        <time>2019-08-17T11:12:46Z</time>
      </trkpt>
      <trkpt lat="42.95647" lon="0.84481">
        <ele>1486.9</ele>
        <time>2019-08-17T11:12:47Z</time>
      </trkpt>
      <trkpt lat="42.95647" lon="0.84482">
        <ele>1486.7</ele>
        <time>2019-08-17T11:12:48Z</time>
      </trkpt>
      <trkpt lat="42.95647" lon="0.84483">
        <ele>1486.6</ele>
        <time>2019-08-17T11:12:49Z</time>
      </trkpt>
      <trkpt lat="42.95647" lon="0.84485">
        <ele>1486.4</ele>
        <time>2019-08-17T11:12:50Z</time>
      </trkpt>
      <trkpt lat="42.95647" lon="0.84486">
        <ele>1486.2</ele>
        <time>2019-08-17T11:12:51Z</time>
      </trkpt>
      <trkpt lat="42.95647" lon="0.84487">
        <ele>1486.2</ele>
        <time>2019-08-17T11:12:52Z</time>
      </trkpt>
      <trkpt lat="42.95647" lon="0.84488">
        <ele>1486.1</ele>
        <time>2019-08-17T11:12:53Z</time>
      </trkpt>
      <trkpt lat="42.95647" lon="0.84489">
        <ele>1486.1</ele>
        <time>2019-08-17T11:12:54Z</time>
      </trkpt>
      <trkpt lat="42.95648" lon="0.8449">
        <ele>1486</ele>
        <time>2019-08-17T11:12:55Z</time>
      </trkpt>
      <trkpt lat="42.95648" lon="0.84491">
        <ele>1485.9</ele>
        <time>2019-08-17T11:12:56Z</time>
      </trkpt>
      <trkpt lat="42.95648" lon="0.84492">
        <ele>1485.9</ele>
        <time>2019-08-17T11:12:57Z</time>
      </trkpt>
      <trkpt lat="42.95648" lon="0.84494">
        <ele>1485.8</ele>
        <time>2019-08-17T11:12:58Z</time>
      </trkpt>
      <trkpt lat="42.95648" lon="0.84495">
        <ele>1485.7</ele>
        <time>2019-08-17T11:12:59Z</time>
      </trkpt>
      <trkpt lat="42.95648" lon="0.84497">
        <ele>1485.6</ele>
        <time>2019-08-17T11:13:00Z</time>
      </trkpt>
      <trkpt lat="42.95648" lon="0.84498">
        <ele>1485.5</ele>
        <time>2019-08-17T11:13:01Z</time>
      </trkpt>
      <trkpt lat="42.95648" lon="0.845">
        <ele>1485.4</ele>
        <time>2019-08-17T11:13:02Z</time>
      </trkpt>
      <trkpt lat="42.95648" lon="0.84501">
        <ele>1485.3</ele>
        <time>2019-08-17T11:13:03Z</time>
      </trkpt>
      <trkpt lat="42.95648" lon="0.84502">
        <ele>1485.2</ele>
        <time>2019-08-17T11:13:04Z</time>
      </trkpt>
      <trkpt lat="42.95648" lon="0.84503">
        <ele>1485.1</ele>
        <time>2019-08-17T11:13:05Z</time>
      </trkpt>
      <trkpt lat="42.95648" lon="0.84504">
        <ele>1485.1</ele>
        <time>2019-08-17T11:13:06Z</time>
      </trkpt>
      <trkpt lat="42.95648" lon="0.84506">
        <ele>1485</ele>
        <time>2019-08-17T11:13:07Z</time>
      </trkpt>
      <trkpt lat="42.95648" lon="0.84507">
        <ele>1484.9</ele>
        <time>2019-08-17T11:13:08Z</time>
      </trkpt>
      <trkpt lat="42.95648" lon="0.84508">
        <ele>1484.8</ele>
        <time>2019-08-17T11:13:09Z</time>
      </trkpt>
      <trkpt lat="42.95648" lon="0.84509">
        <ele>1484.7</ele>
        <time>2019-08-17T11:13:10Z</time>
      </trkpt>
      <trkpt lat="42.95648" lon="0.84511">
        <ele>1484.6</ele>
        <time>2019-08-17T11:13:11Z</time>
      </trkpt>
      <trkpt lat="42.95648" lon="0.84512">
        <ele>1484.4</ele>
        <time>2019-08-17T11:13:12Z</time>
      </trkpt>
      <trkpt lat="42.95648" lon="0.84513">
        <ele>1484.3</ele>
        <time>2019-08-17T11:13:13Z</time>
      </trkpt>
      <trkpt lat="42.95648" lon="0.84515">
        <ele>1484.2</ele>
        <time>2019-08-17T11:13:14Z</time>
      </trkpt>
      <trkpt lat="42.95648" lon="0.84516">
        <ele>1484</ele>
        <time>2019-08-17T11:13:15Z</time>
      </trkpt>
      <trkpt lat="42.95648" lon="0.84517">
        <ele>1483.9</ele>
        <time>2019-08-17T11:13:16Z</time>
      </trkpt>
      <trkpt lat="42.95648" lon="0.84519">
        <ele>1483.8</ele>
        <time>2019-08-17T11:13:17Z</time>
      </trkpt>
      <trkpt lat="42.95648" lon="0.8452">
        <ele>1483.6</ele>
        <time>2019-08-17T11:13:18Z</time>
      </trkpt>
      <trkpt lat="42.95648" lon="0.84521">
        <ele>1483.5</ele>
        <time>2019-08-17T11:13:19Z</time>
      </trkpt>
      <trkpt lat="42.95648" lon="0.84522">
        <ele>1483.4</ele>
        <time>2019-08-17T11:13:20Z</time>
      </trkpt>
      <trkpt lat="42.95648" lon="0.84523">
        <ele>1483.4</ele>
        <time>2019-08-17T11:13:21Z</time>
      </trkpt>
      <trkpt lat="42.95648" lon="0.84524">
        <ele>1483.4</ele>
        <time>2019-08-17T11:13:22Z</time>
      </trkpt>
      <trkpt lat="42.95648" lon="0.84524">
        <ele>1483.3</ele>
        <time>2019-08-17T11:13:23Z</time>
      </trkpt>
      <trkpt lat="42.95648" lon="0.84525">
        <ele>1483.3</ele>
        <time>2019-08-17T11:13:24Z</time>
      </trkpt>
      <trkpt lat="42.95648" lon="0.84525">
        <ele>1483.3</ele>
        <time>2019-08-17T11:13:25Z</time>
      </trkpt>
      <trkpt lat="42.95649" lon="0.84526">
        <ele>1483.2</ele>
        <time>2019-08-17T11:13:26Z</time>
      </trkpt>
      <trkpt lat="42.95649" lon="0.84527">
        <ele>1483.2</ele>
        <time>2019-08-17T11:13:27Z</time>
      </trkpt>
      <trkpt lat="42.95649" lon="0.84529">
        <ele>1483.1</ele>
        <time>2019-08-17T11:13:28Z</time>
      </trkpt>
      <trkpt lat="42.95649" lon="0.8453">
        <ele>1483</ele>
        <time>2019-08-17T11:13:29Z</time>
      </trkpt>
      <trkpt lat="42.95649" lon="0.84531">
        <ele>1483</ele>
        <time>2019-08-17T11:13:30Z</time>
      </trkpt>
      <trkpt lat="42.95649" lon="0.84532">
        <ele>1482.9</ele>
        <time>2019-08-17T11:13:31Z</time>
      </trkpt>
      <trkpt lat="42.95649" lon="0.84533">
        <ele>1482.8</ele>
        <time>2019-08-17T11:13:32Z</time>
      </trkpt>
      <trkpt lat="42.95649" lon="0.84534">
        <ele>1482.7</ele>
        <time>2019-08-17T11:13:33Z</time>
      </trkpt>
      <trkpt lat="42.95648" lon="0.84535">
        <ele>1482.5</ele>
        <time>2019-08-17T11:13:34Z</time>
      </trkpt>
      <trkpt lat="42.95648" lon="0.84537">
        <ele>1482.4</ele>
        <time>2019-08-17T11:13:35Z</time>
      </trkpt>
      <trkpt lat="42.95648" lon="0.84538">
        <ele>1482.2</ele>
        <time>2019-08-17T11:13:36Z</time>
      </trkpt>
      <trkpt lat="42.95649" lon="0.84539">
        <ele>1482</ele>
        <time>2019-08-17T11:13:37Z</time>
      </trkpt>
      <trkpt lat="42.95649" lon="0.84541">
        <ele>1481.8</ele>
        <time>2019-08-17T11:13:38Z</time>
      </trkpt>
      <trkpt lat="42.95649" lon="0.84542">
        <ele>1481.6</ele>
        <time>2019-08-17T11:13:39Z</time>
      </trkpt>
      <trkpt lat="42.95649" lon="0.84544">
        <ele>1481.5</ele>
        <time>2019-08-17T11:13:40Z</time>
      </trkpt>
      <trkpt lat="42.95649" lon="0.84545">
        <ele>1481.3</ele>
        <time>2019-08-17T11:13:41Z</time>
      </trkpt>
      <trkpt lat="42.95649" lon="0.84546">
        <ele>1481.2</ele>
        <time>2019-08-17T11:13:42Z</time>
      </trkpt>
      <trkpt lat="42.95649" lon="0.84547">
        <ele>1481.2</ele>
        <time>2019-08-17T11:13:43Z</time>
      </trkpt>
      <trkpt lat="42.95649" lon="0.84549">
        <ele>1481.1</ele>
        <time>2019-08-17T11:13:44Z</time>
      </trkpt>
      <trkpt lat="42.95649" lon="0.8455">
        <ele>1481</ele>
        <time>2019-08-17T11:13:45Z</time>
      </trkpt>
      <trkpt lat="42.95649" lon="0.84551">
        <ele>1480.9</ele>
        <time>2019-08-17T11:13:46Z</time>
      </trkpt>
      <trkpt lat="42.95649" lon="0.84552">
        <ele>1480.9</ele>
        <time>2019-08-17T11:13:47Z</time>
      </trkpt>
      <trkpt lat="42.95649" lon="0.84553">
        <ele>1480.8</ele>
        <time>2019-08-17T11:13:48Z</time>
      </trkpt>
      <trkpt lat="42.9565" lon="0.84554">
        <ele>1480.7</ele>
        <time>2019-08-17T11:13:49Z</time>
      </trkpt>
      <trkpt lat="42.9565" lon="0.84555">
        <ele>1480.6</ele>
        <time>2019-08-17T11:13:50Z</time>
      </trkpt>
      <trkpt lat="42.9565" lon="0.84557">
        <ele>1480.5</ele>
        <time>2019-08-17T11:13:51Z</time>
      </trkpt>
      <trkpt lat="42.95649" lon="0.84559">
        <ele>1480.4</ele>
        <time>2019-08-17T11:13:52Z</time>
      </trkpt>
      <trkpt lat="42.95648" lon="0.8456">
        <ele>1480.3</ele>
        <time>2019-08-17T11:13:53Z</time>
      </trkpt>
      <trkpt lat="42.95647" lon="0.84561">
        <ele>1480.3</ele>
        <time>2019-08-17T11:13:54Z</time>
      </trkpt>
      <trkpt lat="42.95647" lon="0.84562">
        <ele>1480.2</ele>
        <time>2019-08-17T11:13:55Z</time>
      </trkpt>
      <trkpt lat="42.95647" lon="0.84563">
        <ele>1480.1</ele>
        <time>2019-08-17T11:13:56Z</time>
      </trkpt>
      <trkpt lat="42.95647" lon="0.84564">
        <ele>1480.1</ele>
        <time>2019-08-17T11:13:57Z</time>
      </trkpt>
      <trkpt lat="42.95647" lon="0.84566">
        <ele>1480.1</ele>
        <time>2019-08-17T11:13:58Z</time>
      </trkpt>
      <trkpt lat="42.95648" lon="0.84568">
        <ele>1480.2</ele>
        <time>2019-08-17T11:13:59Z</time>
      </trkpt>
      <trkpt lat="42.95648" lon="0.84569">
        <ele>1480.2</ele>
        <time>2019-08-17T11:14:00Z</time>
      </trkpt>
      <trkpt lat="42.95649" lon="0.84571">
        <ele>1480.3</ele>
        <time>2019-08-17T11:14:01Z</time>
      </trkpt>
      <trkpt lat="42.95649" lon="0.84572">
        <ele>1480.3</ele>
        <time>2019-08-17T11:14:02Z</time>
      </trkpt>
      <trkpt lat="42.95649" lon="0.84573">
        <ele>1480.3</ele>
        <time>2019-08-17T11:14:03Z</time>
      </trkpt>
      <trkpt lat="42.95649" lon="0.84575">
        <ele>1480.2</ele>
        <time>2019-08-17T11:14:04Z</time>
      </trkpt>
      <trkpt lat="42.95649" lon="0.84576">
        <ele>1480.1</ele>
        <time>2019-08-17T11:14:05Z</time>
      </trkpt>
      <trkpt lat="42.95648" lon="0.84577">
        <ele>1480</ele>
        <time>2019-08-17T11:14:06Z</time>
      </trkpt>
      <trkpt lat="42.95648" lon="0.84578">
        <ele>1479.9</ele>
        <time>2019-08-17T11:14:07Z</time>
      </trkpt>
      <trkpt lat="42.95648" lon="0.84579">
        <ele>1479.8</ele>
        <time>2019-08-17T11:14:08Z</time>
      </trkpt>
      <trkpt lat="42.95648" lon="0.84579">
        <ele>1479.7</ele>
        <time>2019-08-17T11:14:09Z</time>
      </trkpt>
      <trkpt lat="42.95648" lon="0.8458">
        <ele>1479.7</ele>
        <time>2019-08-17T11:14:10Z</time>
      </trkpt>
      <trkpt lat="42.95649" lon="0.84581">
        <ele>1479.6</ele>
        <time>2019-08-17T11:14:11Z</time>
      </trkpt>
      <trkpt lat="42.95649" lon="0.84582">
        <ele>1479.4</ele>
        <time>2019-08-17T11:14:12Z</time>
      </trkpt>
      <trkpt lat="42.9565" lon="0.84584">
        <ele>1479.2</ele>
        <time>2019-08-17T11:14:13Z</time>
      </trkpt>
      <trkpt lat="42.9565" lon="0.84586">
        <ele>1479</ele>
        <time>2019-08-17T11:14:14Z</time>
      </trkpt>
      <trkpt lat="42.9565" lon="0.84587">
        <ele>1478.9</ele>
        <time>2019-08-17T11:14:15Z</time>
      </trkpt>
      <trkpt lat="42.9565" lon="0.84588">
        <ele>1478.8</ele>
        <time>2019-08-17T11:14:16Z</time>
      </trkpt>
      <trkpt lat="42.9565" lon="0.8459">
        <ele>1478.7</ele>
        <time>2019-08-17T11:14:17Z</time>
      </trkpt>
      <trkpt lat="42.9565" lon="0.84591">
        <ele>1478.6</ele>
        <time>2019-08-17T11:14:18Z</time>
      </trkpt>
      <trkpt lat="42.9565" lon="0.84592">
        <ele>1478.4</ele>
        <time>2019-08-17T11:14:19Z</time>
      </trkpt>
      <trkpt lat="42.9565" lon="0.84594">
        <ele>1478.3</ele>
        <time>2019-08-17T11:14:20Z</time>
      </trkpt>
      <trkpt lat="42.9565" lon="0.84595">
        <ele>1478.2</ele>
        <time>2019-08-17T11:14:21Z</time>
      </trkpt>
      <trkpt lat="42.9565" lon="0.84596">
        <ele>1478.1</ele>
        <time>2019-08-17T11:14:22Z</time>
      </trkpt>
      <trkpt lat="42.9565" lon="0.84597">
        <ele>1478.1</ele>
        <time>2019-08-17T11:14:23Z</time>
      </trkpt>
      <trkpt lat="42.9565" lon="0.84599">
        <ele>1478.1</ele>
        <time>2019-08-17T11:14:24Z</time>
      </trkpt>
      <trkpt lat="42.9565" lon="0.846">
        <ele>1478.1</ele>
        <time>2019-08-17T11:14:25Z</time>
      </trkpt>
      <trkpt lat="42.9565" lon="0.84601">
        <ele>1478.1</ele>
        <time>2019-08-17T11:14:26Z</time>
      </trkpt>
      <trkpt lat="42.9565" lon="0.84602">
        <ele>1478.1</ele>
        <time>2019-08-17T11:14:27Z</time>
      </trkpt>
      <trkpt lat="42.9565" lon="0.84603">
        <ele>1478</ele>
        <time>2019-08-17T11:14:28Z</time>
      </trkpt>
      <trkpt lat="42.9565" lon="0.84604">
        <ele>1478</ele>
        <time>2019-08-17T11:14:29Z</time>
      </trkpt>
      <trkpt lat="42.9565" lon="0.84605">
        <ele>1478</ele>
        <time>2019-08-17T11:14:30Z</time>
      </trkpt>
      <trkpt lat="42.9565" lon="0.84607">
        <ele>1478</ele>
        <time>2019-08-17T11:14:31Z</time>
      </trkpt>
      <trkpt lat="42.9565" lon="0.84608">
        <ele>1478.1</ele>
        <time>2019-08-17T11:14:32Z</time>
      </trkpt>
      <trkpt lat="42.95649" lon="0.84609">
        <ele>1478.2</ele>
        <time>2019-08-17T11:14:33Z</time>
      </trkpt>
      <trkpt lat="42.95649" lon="0.8461">
        <ele>1478.2</ele>
        <time>2019-08-17T11:14:34Z</time>
      </trkpt>
      <trkpt lat="42.95648" lon="0.8461">
        <ele>1478.3</ele>
        <time>2019-08-17T11:14:35Z</time>
      </trkpt>
      <trkpt lat="42.95647" lon="0.84611">
        <ele>1478.4</ele>
        <time>2019-08-17T11:14:36Z</time>
      </trkpt>
      <trkpt lat="42.95646" lon="0.84612">
        <ele>1478.5</ele>
        <time>2019-08-17T11:14:37Z</time>
      </trkpt>
      <trkpt lat="42.95645" lon="0.84612">
        <ele>1478.6</ele>
        <time>2019-08-17T11:14:38Z</time>
      </trkpt>
      <trkpt lat="42.95644" lon="0.84613">
        <ele>1478.7</ele>
        <time>2019-08-17T11:14:39Z</time>
      </trkpt>
      <trkpt lat="42.95643" lon="0.84614">
        <ele>1478.8</ele>
        <time>2019-08-17T11:14:40Z</time>
      </trkpt>
      <trkpt lat="42.95643" lon="0.84615">
        <ele>1478.8</ele>
        <time>2019-08-17T11:14:41Z</time>
      </trkpt>
      <trkpt lat="42.95642" lon="0.84616">
        <ele>1479</ele>
        <time>2019-08-17T11:14:42Z</time>
      </trkpt>
      <trkpt lat="42.95642" lon="0.84618">
        <ele>1479</ele>
        <time>2019-08-17T11:14:43Z</time>
      </trkpt>
      <trkpt lat="42.95642" lon="0.84618">
        <ele>1479.1</ele>
        <time>2019-08-17T11:14:44Z</time>
      </trkpt>
      <trkpt lat="42.95642" lon="0.84619">
        <ele>1479.2</ele>
        <time>2019-08-17T11:14:45Z</time>
      </trkpt>
      <trkpt lat="42.95641" lon="0.84621">
        <ele>1479.3</ele>
        <time>2019-08-17T11:14:46Z</time>
      </trkpt>
      <trkpt lat="42.9564" lon="0.84623">
        <ele>1479.5</ele>
        <time>2019-08-17T11:14:47Z</time>
      </trkpt>
      <trkpt lat="42.9564" lon="0.84625">
        <ele>1479.6</ele>
        <time>2019-08-17T11:14:48Z</time>
      </trkpt>
      <trkpt lat="42.9564" lon="0.84626">
        <ele>1479.7</ele>
        <time>2019-08-17T11:14:49Z</time>
      </trkpt>
      <trkpt lat="42.9564" lon="0.84627">
        <ele>1479.8</ele>
        <time>2019-08-17T11:14:50Z</time>
      </trkpt>
      <trkpt lat="42.9564" lon="0.84629">
        <ele>1479.9</ele>
        <time>2019-08-17T11:14:51Z</time>
      </trkpt>
      <trkpt lat="42.9564" lon="0.8463">
        <ele>1480</ele>
        <time>2019-08-17T11:14:52Z</time>
      </trkpt>
      <trkpt lat="42.95641" lon="0.84631">
        <ele>1480.1</ele>
        <time>2019-08-17T11:14:53Z</time>
      </trkpt>
      <trkpt lat="42.95641" lon="0.84632">
        <ele>1480.2</ele>
        <time>2019-08-17T11:14:54Z</time>
      </trkpt>
      <trkpt lat="42.95641" lon="0.84634">
        <ele>1480.3</ele>
        <time>2019-08-17T11:14:55Z</time>
      </trkpt>
      <trkpt lat="42.95641" lon="0.84635">
        <ele>1480.4</ele>
        <time>2019-08-17T11:14:56Z</time>
      </trkpt>
      <trkpt lat="42.95642" lon="0.84636">
        <ele>1480.6</ele>
        <time>2019-08-17T11:14:57Z</time>
      </trkpt>
      <trkpt lat="42.95642" lon="0.84638">
        <ele>1480.7</ele>
        <time>2019-08-17T11:14:58Z</time>
      </trkpt>
      <trkpt lat="42.95642" lon="0.84638">
        <ele>1480.8</ele>
        <time>2019-08-17T11:14:59Z</time>
      </trkpt>
      <trkpt lat="42.95643" lon="0.84639">
        <ele>1480.8</ele>
        <time>2019-08-17T11:15:00Z</time>
      </trkpt>
      <trkpt lat="42.95643" lon="0.84639">
        <ele>1480.9</ele>
        <time>2019-08-17T11:15:01Z</time>
      </trkpt>
      <trkpt lat="42.95643" lon="0.8464">
        <ele>1480.9</ele>
        <time>2019-08-17T11:15:02Z</time>
      </trkpt>
      <trkpt lat="42.95643" lon="0.8464">
        <ele>1480.9</ele>
        <time>2019-08-17T11:15:03Z</time>
      </trkpt>
      <trkpt lat="42.95644" lon="0.84641">
        <ele>1481</ele>
        <time>2019-08-17T11:15:04Z</time>
      </trkpt>
      <trkpt lat="42.95644" lon="0.84643">
        <ele>1481.1</ele>
        <time>2019-08-17T11:15:05Z</time>
      </trkpt>
      <trkpt lat="42.95644" lon="0.84645">
        <ele>1481.2</ele>
        <time>2019-08-17T11:15:06Z</time>
      </trkpt>
      <trkpt lat="42.95645" lon="0.84646">
        <ele>1481.2</ele>
        <time>2019-08-17T11:15:07Z</time>
      </trkpt>
      <trkpt lat="42.95645" lon="0.84648">
        <ele>1481.3</ele>
        <time>2019-08-17T11:15:08Z</time>
      </trkpt>
      <trkpt lat="42.95645" lon="0.84649">
        <ele>1481.3</ele>
        <time>2019-08-17T11:15:09Z</time>
      </trkpt>
      <trkpt lat="42.95645" lon="0.8465">
        <ele>1481.4</ele>
        <time>2019-08-17T11:15:10Z</time>
      </trkpt>
      <trkpt lat="42.95645" lon="0.84651">
        <ele>1481.4</ele>
        <time>2019-08-17T11:15:11Z</time>
      </trkpt>
      <trkpt lat="42.95645" lon="0.84652">
        <ele>1481.4</ele>
        <time>2019-08-17T11:15:12Z</time>
      </trkpt>
      <trkpt lat="42.95645" lon="0.84653">
        <ele>1481.5</ele>
        <time>2019-08-17T11:15:13Z</time>
      </trkpt>
      <trkpt lat="42.95645" lon="0.84654">
        <ele>1481.5</ele>
        <time>2019-08-17T11:15:14Z</time>
      </trkpt>
      <trkpt lat="42.95645" lon="0.84655">
        <ele>1481.6</ele>
        <time>2019-08-17T11:15:15Z</time>
      </trkpt>
      <trkpt lat="42.95645" lon="0.84656">
        <ele>1481.7</ele>
        <time>2019-08-17T11:15:16Z</time>
      </trkpt>
      <trkpt lat="42.95645" lon="0.84658">
        <ele>1481.7</ele>
        <time>2019-08-17T11:15:17Z</time>
      </trkpt>
      <trkpt lat="42.95645" lon="0.84659">
        <ele>1481.8</ele>
        <time>2019-08-17T11:15:18Z</time>
      </trkpt>
      <trkpt lat="42.95645" lon="0.8466">
        <ele>1481.9</ele>
        <time>2019-08-17T11:15:19Z</time>
      </trkpt>
      <trkpt lat="42.95645" lon="0.84662">
        <ele>1482</ele>
        <time>2019-08-17T11:15:20Z</time>
      </trkpt>
      <trkpt lat="42.95646" lon="0.84663">
        <ele>1482.1</ele>
        <time>2019-08-17T11:15:21Z</time>
      </trkpt>
      <trkpt lat="42.95646" lon="0.84664">
        <ele>1482.1</ele>
        <time>2019-08-17T11:15:22Z</time>
      </trkpt>
      <trkpt lat="42.95646" lon="0.84666">
        <ele>1482.2</ele>
        <time>2019-08-17T11:15:23Z</time>
      </trkpt>
      <trkpt lat="42.95646" lon="0.84667">
        <ele>1482.3</ele>
        <time>2019-08-17T11:15:24Z</time>
      </trkpt>
      <trkpt lat="42.95647" lon="0.84669">
        <ele>1482.3</ele>
        <time>2019-08-17T11:15:25Z</time>
      </trkpt>
      <trkpt lat="42.95647" lon="0.8467">
        <ele>1482.4</ele>
        <time>2019-08-17T11:15:26Z</time>
      </trkpt>
      <trkpt lat="42.95648" lon="0.84671">
        <ele>1482.5</ele>
        <time>2019-08-17T11:15:27Z</time>
      </trkpt>
      <trkpt lat="42.95648" lon="0.84673">
        <ele>1482.6</ele>
        <time>2019-08-17T11:15:28Z</time>
      </trkpt>
      <trkpt lat="42.95648" lon="0.84674">
        <ele>1482.5</ele>
        <time>2019-08-17T11:15:29Z</time>
      </trkpt>
      <trkpt lat="42.95649" lon="0.84675">
        <ele>1482.5</ele>
        <time>2019-08-17T11:15:30Z</time>
      </trkpt>
      <trkpt lat="42.95649" lon="0.84677">
        <ele>1482.5</ele>
        <time>2019-08-17T11:15:31Z</time>
      </trkpt>
      <trkpt lat="42.95649" lon="0.84678">
        <ele>1482.4</ele>
        <time>2019-08-17T11:15:32Z</time>
      </trkpt>
      <trkpt lat="42.95649" lon="0.84679">
        <ele>1482.4</ele>
        <time>2019-08-17T11:15:33Z</time>
      </trkpt>
      <trkpt lat="42.95648" lon="0.84681">
        <ele>1482.4</ele>
        <time>2019-08-17T11:15:34Z</time>
      </trkpt>
      <trkpt lat="42.95648" lon="0.84682">
        <ele>1482.4</ele>
        <time>2019-08-17T11:15:35Z</time>
      </trkpt>
      <trkpt lat="42.95648" lon="0.84683">
        <ele>1482.4</ele>
        <time>2019-08-17T11:15:36Z</time>
      </trkpt>
      <trkpt lat="42.95648" lon="0.84684">
        <ele>1482.4</ele>
        <time>2019-08-17T11:15:37Z</time>
      </trkpt>
      <trkpt lat="42.95649" lon="0.84685">
        <ele>1482.4</ele>
        <time>2019-08-17T11:15:38Z</time>
      </trkpt>
      <trkpt lat="42.95649" lon="0.84686">
        <ele>1482.5</ele>
        <time>2019-08-17T11:15:39Z</time>
      </trkpt>
      <trkpt lat="42.9565" lon="0.84687">
        <ele>1482.5</ele>
        <time>2019-08-17T11:15:40Z</time>
      </trkpt>
      <trkpt lat="42.95651" lon="0.84688">
        <ele>1482.5</ele>
        <time>2019-08-17T11:15:41Z</time>
      </trkpt>
      <trkpt lat="42.95651" lon="0.84689">
        <ele>1482.5</ele>
        <time>2019-08-17T11:15:42Z</time>
      </trkpt>
      <trkpt lat="42.95651" lon="0.8469">
        <ele>1482.6</ele>
        <time>2019-08-17T11:15:43Z</time>
      </trkpt>
      <trkpt lat="42.95652" lon="0.84691">
        <ele>1482.6</ele>
        <time>2019-08-17T11:15:44Z</time>
      </trkpt>
      <trkpt lat="42.95652" lon="0.84692">
        <ele>1482.6</ele>
        <time>2019-08-17T11:15:45Z</time>
      </trkpt>
      <trkpt lat="42.95652" lon="0.84694">
        <ele>1482.7</ele>
        <time>2019-08-17T11:15:46Z</time>
      </trkpt>
      <trkpt lat="42.95651" lon="0.84695">
        <ele>1482.7</ele>
        <time>2019-08-17T11:15:47Z</time>
      </trkpt>
      <trkpt lat="42.95651" lon="0.84696">
        <ele>1482.7</ele>
        <time>2019-08-17T11:15:48Z</time>
      </trkpt>
      <trkpt lat="42.95651" lon="0.84697">
        <ele>1482.8</ele>
        <time>2019-08-17T11:15:49Z</time>
      </trkpt>
      <trkpt lat="42.95651" lon="0.84698">
        <ele>1482.8</ele>
        <time>2019-08-17T11:15:50Z</time>
      </trkpt>
      <trkpt lat="42.9565" lon="0.84699">
        <ele>1482.8</ele>
        <time>2019-08-17T11:15:51Z</time>
      </trkpt>
      <trkpt lat="42.9565" lon="0.84699">
        <ele>1482.8</ele>
        <time>2019-08-17T11:15:52Z</time>
      </trkpt>
      <trkpt lat="42.9565" lon="0.847">
        <ele>1482.9</ele>
        <time>2019-08-17T11:15:53Z</time>
      </trkpt>
      <trkpt lat="42.9565" lon="0.84701">
        <ele>1482.9</ele>
        <time>2019-08-17T11:15:54Z</time>
      </trkpt>
      <trkpt lat="42.9565" lon="0.84702">
        <ele>1482.9</ele>
        <time>2019-08-17T11:15:55Z</time>
      </trkpt>
      <trkpt lat="42.9565" lon="0.84704">
        <ele>1482.8</ele>
        <time>2019-08-17T11:15:56Z</time>
      </trkpt>
      <trkpt lat="42.9565" lon="0.84705">
        <ele>1482.8</ele>
        <time>2019-08-17T11:15:57Z</time>
      </trkpt>
      <trkpt lat="42.95651" lon="0.84705">
        <ele>1482.8</ele>
        <time>2019-08-17T11:15:58Z</time>
      </trkpt>
      <trkpt lat="42.95651" lon="0.84706">
        <ele>1482.7</ele>
        <time>2019-08-17T11:15:59Z</time>
      </trkpt>
      <trkpt lat="42.95651" lon="0.84706">
        <ele>1482.7</ele>
        <time>2019-08-17T11:16:00Z</time>
      </trkpt>
      <trkpt lat="42.95651" lon="0.84706">
        <ele>1482.7</ele>
        <time>2019-08-17T11:16:01Z</time>
      </trkpt>
      <trkpt lat="42.95651" lon="0.84707">
        <ele>1482.7</ele>
        <time>2019-08-17T11:16:02Z</time>
      </trkpt>
      <trkpt lat="42.95651" lon="0.84707">
        <ele>1482.7</ele>
        <time>2019-08-17T11:16:03Z</time>
      </trkpt>
      <trkpt lat="42.95651" lon="0.84707">
        <ele>1482.7</ele>
        <time>2019-08-17T11:16:04Z</time>
      </trkpt>
      <trkpt lat="42.95651" lon="0.84707">
        <ele>1482.7</ele>
        <time>2019-08-17T11:16:05Z</time>
      </trkpt>
      <trkpt lat="42.95651" lon="0.84708">
        <ele>1482.6</ele>
        <time>2019-08-17T11:16:06Z</time>
      </trkpt>
      <trkpt lat="42.9565" lon="0.84709">
        <ele>1482.6</ele>
        <time>2019-08-17T11:16:07Z</time>
      </trkpt>
      <trkpt lat="42.9565" lon="0.8471">
        <ele>1482.5</ele>
        <time>2019-08-17T11:16:08Z</time>
      </trkpt>
      <trkpt lat="42.9565" lon="0.84711">
        <ele>1482.5</ele>
        <time>2019-08-17T11:16:09Z</time>
      </trkpt>
      <trkpt lat="42.9565" lon="0.84712">
        <ele>1482.4</ele>
        <time>2019-08-17T11:16:10Z</time>
      </trkpt>
      <trkpt lat="42.9565" lon="0.84713">
        <ele>1482.4</ele>
        <time>2019-08-17T11:16:11Z</time>
      </trkpt>
      <trkpt lat="42.95651" lon="0.84714">
        <ele>1482.4</ele>
        <time>2019-08-17T11:16:12Z</time>
      </trkpt>
      <trkpt lat="42.95651" lon="0.84715">
        <ele>1482.4</ele>
        <time>2019-08-17T11:16:13Z</time>
      </trkpt>
      <trkpt lat="42.95651" lon="0.84715">
        <ele>1482.5</ele>
        <time>2019-08-17T11:16:14Z</time>
      </trkpt>
      <trkpt lat="42.95652" lon="0.84716">
        <ele>1482.5</ele>
        <time>2019-08-17T11:16:15Z</time>
      </trkpt>
      <trkpt lat="42.95652" lon="0.84717">
        <ele>1482.5</ele>
        <time>2019-08-17T11:16:16Z</time>
      </trkpt>
      <trkpt lat="42.95652" lon="0.84717">
        <ele>1482.5</ele>
        <time>2019-08-17T11:16:17Z</time>
      </trkpt>
      <trkpt lat="42.95652" lon="0.84718">
        <ele>1482.5</ele>
        <time>2019-08-17T11:16:18Z</time>
      </trkpt>
      <trkpt lat="42.95652" lon="0.84718">
        <ele>1482.5</ele>
        <time>2019-08-17T11:16:19Z</time>
      </trkpt>
      <trkpt lat="42.95652" lon="0.84719">
        <ele>1482.5</ele>
        <time>2019-08-17T11:16:20Z</time>
      </trkpt>
      <trkpt lat="42.95653" lon="0.84719">
        <ele>1482.5</ele>
        <time>2019-08-17T11:16:21Z</time>
      </trkpt>
      <trkpt lat="42.95653" lon="0.8472">
        <ele>1482.5</ele>
        <time>2019-08-17T11:16:22Z</time>
      </trkpt>
      <trkpt lat="42.95653" lon="0.8472">
        <ele>1482.5</ele>
        <time>2019-08-17T11:16:23Z</time>
      </trkpt>
      <trkpt lat="42.95653" lon="0.84721">
        <ele>1482.6</ele>
        <time>2019-08-17T11:16:24Z</time>
      </trkpt>
      <trkpt lat="42.95653" lon="0.84721">
        <ele>1482.6</ele>
        <time>2019-08-17T11:16:25Z</time>
      </trkpt>
      <trkpt lat="42.95653" lon="0.84722">
        <ele>1482.6</ele>
        <time>2019-08-17T11:16:26Z</time>
      </trkpt>
      <trkpt lat="42.95653" lon="0.84723">
        <ele>1482.6</ele>
        <time>2019-08-17T11:16:27Z</time>
      </trkpt>
      <trkpt lat="42.95653" lon="0.84723">
        <ele>1482.6</ele>
        <time>2019-08-17T11:16:28Z</time>
      </trkpt>
      <trkpt lat="42.95653" lon="0.84724">
        <ele>1482.6</ele>
        <time>2019-08-17T11:16:29Z</time>
      </trkpt>
      <trkpt lat="42.95654" lon="0.84724">
        <ele>1482.6</ele>
        <time>2019-08-17T11:16:30Z</time>
      </trkpt>
      <trkpt lat="42.95654" lon="0.84725">
        <ele>1482.6</ele>
        <time>2019-08-17T11:16:31Z</time>
      </trkpt>
      <trkpt lat="42.95654" lon="0.84725">
        <ele>1482.6</ele>
        <time>2019-08-17T11:16:32Z</time>
      </trkpt>
      <trkpt lat="42.95654" lon="0.84726">
        <ele>1482.6</ele>
        <time>2019-08-17T11:16:33Z</time>
      </trkpt>
      <trkpt lat="42.95654" lon="0.84726">
        <ele>1482.6</ele>
        <time>2019-08-17T11:16:34Z</time>
      </trkpt>
      <trkpt lat="42.95654" lon="0.84727">
        <ele>1482.6</ele>
        <time>2019-08-17T11:16:35Z</time>
      </trkpt>
      <trkpt lat="42.95654" lon="0.84727">
        <ele>1482.6</ele>
        <time>2019-08-17T11:16:36Z</time>
      </trkpt>
      <trkpt lat="42.95654" lon="0.84728">
        <ele>1482.6</ele>
        <time>2019-08-17T11:16:37Z</time>
      </trkpt>
      <trkpt lat="42.95654" lon="0.84729">
        <ele>1482.6</ele>
        <time>2019-08-17T11:16:38Z</time>
      </trkpt>
      <trkpt lat="42.95655" lon="0.84729">
        <ele>1482.6</ele>
        <time>2019-08-17T11:16:39Z</time>
      </trkpt>
      <trkpt lat="42.95655" lon="0.8473">
        <ele>1482.6</ele>
        <time>2019-08-17T11:16:40Z</time>
      </trkpt>
      <trkpt lat="42.95655" lon="0.8473">
        <ele>1482.6</ele>
        <time>2019-08-17T11:16:41Z</time>
      </trkpt>
      <trkpt lat="42.95655" lon="0.84731">
        <ele>1482.6</ele>
        <time>2019-08-17T11:16:42Z</time>
      </trkpt>
      <trkpt lat="42.95655" lon="0.84731">
        <ele>1482.6</ele>
        <time>2019-08-17T11:16:43Z</time>
      </trkpt>
      <trkpt lat="42.95655" lon="0.84732">
        <ele>1482.7</ele>
        <time>2019-08-17T11:16:44Z</time>
      </trkpt>
      <trkpt lat="42.95655" lon="0.84732">
        <ele>1482.7</ele>
        <time>2019-08-17T11:16:45Z</time>
      </trkpt>
      <trkpt lat="42.95655" lon="0.84733">
        <ele>1482.7</ele>
        <time>2019-08-17T11:16:46Z</time>
      </trkpt>
      <trkpt lat="42.95655" lon="0.84733">
        <ele>1482.7</ele>
        <time>2019-08-17T11:16:47Z</time>
      </trkpt>
      <trkpt lat="42.95656" lon="0.84734">
        <ele>1482.7</ele>
        <time>2019-08-17T11:16:48Z</time>
      </trkpt>
      <trkpt lat="42.95656" lon="0.84735">
        <ele>1482.6</ele>
        <time>2019-08-17T11:16:49Z</time>
      </trkpt>
      <trkpt lat="42.95656" lon="0.84735">
        <ele>1482.6</ele>
        <time>2019-08-17T11:16:50Z</time>
      </trkpt>
      <trkpt lat="42.95656" lon="0.84736">
        <ele>1482.5</ele>
        <time>2019-08-17T11:16:51Z</time>
      </trkpt>
      <trkpt lat="42.95656" lon="0.84736">
        <ele>1482.5</ele>
        <time>2019-08-17T11:16:52Z</time>
      </trkpt>
      <trkpt lat="42.95656" lon="0.84737">
        <ele>1482.4</ele>
        <time>2019-08-17T11:16:53Z</time>
      </trkpt>
      <trkpt lat="42.95656" lon="0.84737">
        <ele>1482.4</ele>
        <time>2019-08-17T11:16:54Z</time>
      </trkpt>
      <trkpt lat="42.95656" lon="0.84738">
        <ele>1482.4</ele>
        <time>2019-08-17T11:16:55Z</time>
      </trkpt>
      <trkpt lat="42.95656" lon="0.84738">
        <ele>1482.3</ele>
        <time>2019-08-17T11:16:56Z</time>
      </trkpt>
      <trkpt lat="42.95657" lon="0.84739">
        <ele>1482.3</ele>
        <time>2019-08-17T11:16:57Z</time>
      </trkpt>
      <trkpt lat="42.95657" lon="0.84739">
        <ele>1482.2</ele>
        <time>2019-08-17T11:16:58Z</time>
      </trkpt>
      <trkpt lat="42.95657" lon="0.8474">
        <ele>1482.2</ele>
        <time>2019-08-17T11:16:59Z</time>
      </trkpt>
      <trkpt lat="42.95657" lon="0.84741">
        <ele>1482.1</ele>
        <time>2019-08-17T11:17:00Z</time>
      </trkpt>
      <trkpt lat="42.95657" lon="0.84741">
        <ele>1482.1</ele>
        <time>2019-08-17T11:17:01Z</time>
      </trkpt>
      <trkpt lat="42.95657" lon="0.84742">
        <ele>1482.1</ele>
        <time>2019-08-17T11:17:02Z</time>
      </trkpt>
      <trkpt lat="42.95657" lon="0.84742">
        <ele>1482</ele>
        <time>2019-08-17T11:17:03Z</time>
      </trkpt>
      <trkpt lat="42.95657" lon="0.84743">
        <ele>1482</ele>
        <time>2019-08-17T11:17:04Z</time>
      </trkpt>
      <trkpt lat="42.95657" lon="0.84743">
        <ele>1481.9</ele>
        <time>2019-08-17T11:17:05Z</time>
      </trkpt>
      <trkpt lat="42.95658" lon="0.84744">
        <ele>1481.9</ele>
        <time>2019-08-17T11:17:06Z</time>
      </trkpt>
      <trkpt lat="42.95658" lon="0.84744">
        <ele>1481.8</ele>
        <time>2019-08-17T11:17:07Z</time>
      </trkpt>
      <trkpt lat="42.95658" lon="0.84745">
        <ele>1481.8</ele>
        <time>2019-08-17T11:17:08Z</time>
      </trkpt>
      <trkpt lat="42.95658" lon="0.84746">
        <ele>1481.7</ele>
        <time>2019-08-17T11:17:09Z</time>
      </trkpt>
      <trkpt lat="42.95658" lon="0.84746">
        <ele>1481.7</ele>
        <time>2019-08-17T11:17:10Z</time>
      </trkpt>
      <trkpt lat="42.95659" lon="0.84747">
        <ele>1481.5</ele>
        <time>2019-08-17T11:17:11Z</time>
      </trkpt>
      <trkpt lat="42.95659" lon="0.84747">
        <ele>1481.5</ele>
        <time>2019-08-17T11:17:12Z</time>
      </trkpt>
      <trkpt lat="42.95659" lon="0.84748">
        <ele>1481.4</ele>
        <time>2019-08-17T11:17:13Z</time>
      </trkpt>
      <trkpt lat="42.9566" lon="0.84748">
        <ele>1481.4</ele>
        <time>2019-08-17T11:17:14Z</time>
      </trkpt>
      <trkpt lat="42.9566" lon="0.84748">
        <ele>1481.4</ele>
        <time>2019-08-17T11:17:15Z</time>
      </trkpt>
      <trkpt lat="42.9566" lon="0.84748">
        <ele>1481.3</ele>
        <time>2019-08-17T11:17:16Z</time>
      </trkpt>
      <trkpt lat="42.95661" lon="0.84749">
        <ele>1481.2</ele>
        <time>2019-08-17T11:17:17Z</time>
      </trkpt>
      <trkpt lat="42.95662" lon="0.8475">
        <ele>1481</ele>
        <time>2019-08-17T11:17:18Z</time>
      </trkpt>
      <trkpt lat="42.95663" lon="0.84751">
        <ele>1480.9</ele>
        <time>2019-08-17T11:17:19Z</time>
      </trkpt>
      <trkpt lat="42.95663" lon="0.84752">
        <ele>1480.8</ele>
        <time>2019-08-17T11:17:20Z</time>
      </trkpt>
      <trkpt lat="42.95664" lon="0.84753">
        <ele>1480.7</ele>
        <time>2019-08-17T11:17:21Z</time>
      </trkpt>
      <trkpt lat="42.95664" lon="0.84754">
        <ele>1480.5</ele>
        <time>2019-08-17T11:17:22Z</time>
      </trkpt>
      <trkpt lat="42.95664" lon="0.84754">
        <ele>1480.5</ele>
        <time>2019-08-17T11:17:23Z</time>
      </trkpt>
      <trkpt lat="42.95664" lon="0.84755">
        <ele>1480.4</ele>
        <time>2019-08-17T11:17:24Z</time>
      </trkpt>
      <trkpt lat="42.95664" lon="0.84755">
        <ele>1480.4</ele>
        <time>2019-08-17T11:17:25Z</time>
      </trkpt>
      <trkpt lat="42.95664" lon="0.84755">
        <ele>1480.4</ele>
        <time>2019-08-17T11:17:26Z</time>
      </trkpt>
      <trkpt lat="42.95664" lon="0.84755">
        <ele>1480.3</ele>
        <time>2019-08-17T11:17:27Z</time>
      </trkpt>
      <trkpt lat="42.95664" lon="0.84756">
        <ele>1480.3</ele>
        <time>2019-08-17T11:17:28Z</time>
      </trkpt>
      <trkpt lat="42.95664" lon="0.84756">
        <ele>1480.2</ele>
        <time>2019-08-17T11:17:29Z</time>
      </trkpt>
      <trkpt lat="42.95665" lon="0.84757">
        <ele>1480.2</ele>
        <time>2019-08-17T11:17:30Z</time>
      </trkpt>
      <trkpt lat="42.95665" lon="0.84757">
        <ele>1480.1</ele>
        <time>2019-08-17T11:17:31Z</time>
      </trkpt>
      <trkpt lat="42.95665" lon="0.84759">
        <ele>1479.9</ele>
        <time>2019-08-17T11:17:32Z</time>
      </trkpt>
      <trkpt lat="42.95665" lon="0.8476">
        <ele>1479.8</ele>
        <time>2019-08-17T11:17:33Z</time>
      </trkpt>
      <trkpt lat="42.95665" lon="0.8476">
        <ele>1479.8</ele>
        <time>2019-08-17T11:17:34Z</time>
      </trkpt>
      <trkpt lat="42.95665" lon="0.8476">
        <ele>1479.7</ele>
        <time>2019-08-17T11:17:35Z</time>
      </trkpt>
      <trkpt lat="42.95665" lon="0.84761">
        <ele>1479.7</ele>
        <time>2019-08-17T11:17:36Z</time>
      </trkpt>
      <trkpt lat="42.95665" lon="0.84761">
        <ele>1479.7</ele>
        <time>2019-08-17T11:17:37Z</time>
      </trkpt>
      <trkpt lat="42.95665" lon="0.84761">
        <ele>1479.7</ele>
        <time>2019-08-17T11:17:38Z</time>
      </trkpt>
      <trkpt lat="42.95665" lon="0.84761">
        <ele>1479.6</ele>
        <time>2019-08-17T11:17:39Z</time>
      </trkpt>
      <trkpt lat="42.95665" lon="0.84761">
        <ele>1479.6</ele>
        <time>2019-08-17T11:17:40Z</time>
      </trkpt>
      <trkpt lat="42.95665" lon="0.84761">
        <ele>1479.6</ele>
        <time>2019-08-17T11:17:41Z</time>
      </trkpt>
      <trkpt lat="42.95665" lon="0.84762">
        <ele>1479.6</ele>
        <time>2019-08-17T11:17:42Z</time>
      </trkpt>
      <trkpt lat="42.95665" lon="0.84762">
        <ele>1479.6</ele>
        <time>2019-08-17T11:17:43Z</time>
      </trkpt>
      <trkpt lat="42.95665" lon="0.84762">
        <ele>1479.6</ele>
        <time>2019-08-17T11:17:44Z</time>
      </trkpt>
      <trkpt lat="42.95665" lon="0.84762">
        <ele>1479.6</ele>
        <time>2019-08-17T11:17:45Z</time>
      </trkpt>
      <trkpt lat="42.95665" lon="0.84762">
        <ele>1479.6</ele>
        <time>2019-08-17T11:17:46Z</time>
      </trkpt>
      <trkpt lat="42.95665" lon="0.84762">
        <ele>1479.6</ele>
        <time>2019-08-17T11:17:47Z</time>
      </trkpt>
      <trkpt lat="42.95665" lon="0.84762">
        <ele>1479.6</ele>
        <time>2019-08-17T11:17:48Z</time>
      </trkpt>
      <trkpt lat="42.95665" lon="0.84762">
        <ele>1479.6</ele>
        <time>2019-08-17T11:17:49Z</time>
      </trkpt>
      <trkpt lat="42.95665" lon="0.84762">
        <ele>1479.6</ele>
        <time>2019-08-17T11:17:50Z</time>
      </trkpt>
      <trkpt lat="42.95665" lon="0.84762">
        <ele>1479.6</ele>
        <time>2019-08-17T11:17:51Z</time>
      </trkpt>
      <trkpt lat="42.95665" lon="0.84762">
        <ele>1479.6</ele>
        <time>2019-08-17T11:17:52Z</time>
      </trkpt>
      <trkpt lat="42.95665" lon="0.84762">
        <ele>1479.6</ele>
        <time>2019-08-17T11:17:53Z</time>
      </trkpt>
      <trkpt lat="42.95665" lon="0.84762">
        <ele>1479.6</ele>
        <time>2019-08-17T11:17:54Z</time>
      </trkpt>
      <trkpt lat="42.95665" lon="0.84762">
        <ele>1479.6</ele>
        <time>2019-08-17T11:17:55Z</time>
      </trkpt>
      <trkpt lat="42.95665" lon="0.84762">
        <ele>1479.6</ele>
        <time>2019-08-17T11:17:56Z</time>
      </trkpt>
      <trkpt lat="42.95665" lon="0.84762">
        <ele>1479.6</ele>
        <time>2019-08-17T11:17:57Z</time>
      </trkpt>
      <trkpt lat="42.95665" lon="0.84762">
        <ele>1479.6</ele>
        <time>2019-08-17T11:17:58Z</time>
      </trkpt>
      <trkpt lat="42.95665" lon="0.84762">
        <ele>1479.7</ele>
        <time>2019-08-17T11:17:59Z</time>
      </trkpt>
      <trkpt lat="42.95665" lon="0.84762">
        <ele>1479.7</ele>
        <time>2019-08-17T11:18:00Z</time>
      </trkpt>
      <trkpt lat="42.95665" lon="0.84762">
        <ele>1479.7</ele>
        <time>2019-08-17T11:18:01Z</time>
      </trkpt>
      <trkpt lat="42.95665" lon="0.84762">
        <ele>1479.7</ele>
        <time>2019-08-17T11:18:02Z</time>
      </trkpt>
      <trkpt lat="42.95665" lon="0.84762">
        <ele>1479.7</ele>
        <time>2019-08-17T11:18:03Z</time>
      </trkpt>
      <trkpt lat="42.95665" lon="0.84762">
        <ele>1479.7</ele>
        <time>2019-08-17T11:18:04Z</time>
      </trkpt>
      <trkpt lat="42.95665" lon="0.84762">
        <ele>1479.7</ele>
        <time>2019-08-17T11:18:05Z</time>
      </trkpt>
      <trkpt lat="42.95665" lon="0.84762">
        <ele>1479.8</ele>
        <time>2019-08-17T11:18:06Z</time>
      </trkpt>
      <trkpt lat="42.95665" lon="0.84762">
        <ele>1479.8</ele>
        <time>2019-08-17T11:18:07Z</time>
      </trkpt>
      <trkpt lat="42.95665" lon="0.84762">
        <ele>1479.8</ele>
        <time>2019-08-17T11:18:08Z</time>
      </trkpt>
      <trkpt lat="42.95665" lon="0.84762">
        <ele>1479.8</ele>
        <time>2019-08-17T11:18:09Z</time>
      </trkpt>
      <trkpt lat="42.95665" lon="0.84762">
        <ele>1479.7</ele>
        <time>2019-08-17T11:18:10Z</time>
      </trkpt>
      <trkpt lat="42.95665" lon="0.84762">
        <ele>1479.7</ele>
        <time>2019-08-17T11:18:11Z</time>
      </trkpt>
      <trkpt lat="42.95665" lon="0.84762">
        <ele>1479.8</ele>
        <time>2019-08-17T11:18:12Z</time>
      </trkpt>
      <trkpt lat="42.95665" lon="0.84762">
        <ele>1479.8</ele>
        <time>2019-08-17T11:18:13Z</time>
      </trkpt>
      <trkpt lat="42.95665" lon="0.84762">
        <ele>1479.8</ele>
        <time>2019-08-17T11:18:14Z</time>
      </trkpt>
      <trkpt lat="42.95665" lon="0.84762">
        <ele>1479.8</ele>
        <time>2019-08-17T11:18:15Z</time>
      </trkpt>
      <trkpt lat="42.95665" lon="0.84762">
        <ele>1479.8</ele>
        <time>2019-08-17T11:18:16Z</time>
      </trkpt>
      <trkpt lat="42.95665" lon="0.84762">
        <ele>1479.8</ele>
        <time>2019-08-17T11:18:17Z</time>
      </trkpt>
      <trkpt lat="42.95665" lon="0.84762">
        <ele>1479.8</ele>
        <time>2019-08-17T11:18:18Z</time>
      </trkpt>
      <trkpt lat="42.95665" lon="0.84762">
        <ele>1479.9</ele>
        <time>2019-08-17T11:18:19Z</time>
      </trkpt>
      <trkpt lat="42.95665" lon="0.84762">
        <ele>1479.9</ele>
        <time>2019-08-17T11:18:20Z</time>
      </trkpt>
      <trkpt lat="42.95665" lon="0.84762">
        <ele>1479.9</ele>
        <time>2019-08-17T11:18:21Z</time>
      </trkpt>
      <trkpt lat="42.95665" lon="0.84762">
        <ele>1479.9</ele>
        <time>2019-08-17T11:18:22Z</time>
      </trkpt>
      <trkpt lat="42.95665" lon="0.84762">
        <ele>1479.9</ele>
        <time>2019-08-17T11:18:23Z</time>
      </trkpt>
      <trkpt lat="42.95665" lon="0.84762">
        <ele>1479.9</ele>
        <time>2019-08-17T11:18:24Z</time>
      </trkpt>
      <trkpt lat="42.95665" lon="0.84762">
        <ele>1479.9</ele>
        <time>2019-08-17T11:18:25Z</time>
      </trkpt>
      <trkpt lat="42.95665" lon="0.84762">
        <ele>1480</ele>
        <time>2019-08-17T11:18:26Z</time>
      </trkpt>
      <trkpt lat="42.95665" lon="0.84762">
        <ele>1480</ele>
        <time>2019-08-17T11:18:27Z</time>
      </trkpt>
      <trkpt lat="42.95665" lon="0.84762">
        <ele>1480</ele>
        <time>2019-08-17T11:18:28Z</time>
      </trkpt>
      <trkpt lat="42.95665" lon="0.84762">
        <ele>1480</ele>
        <time>2019-08-17T11:18:29Z</time>
      </trkpt>
      <trkpt lat="42.95665" lon="0.84762">
        <ele>1480</ele>
        <time>2019-08-17T11:18:30Z</time>
      </trkpt>
      <trkpt lat="42.95665" lon="0.84762">
        <ele>1480</ele>
        <time>2019-08-17T11:18:31Z</time>
      </trkpt>
      <trkpt lat="42.95665" lon="0.84762">
        <ele>1480.1</ele>
        <time>2019-08-17T11:18:32Z</time>
      </trkpt>
      <trkpt lat="42.95665" lon="0.84762">
        <ele>1480.1</ele>
        <time>2019-08-17T11:18:33Z</time>
      </trkpt>
      <trkpt lat="42.95665" lon="0.84762">
        <ele>1480.1</ele>
        <time>2019-08-17T11:18:34Z</time>
      </trkpt>
      <trkpt lat="42.95665" lon="0.84762">
        <ele>1480.1</ele>
        <time>2019-08-17T11:18:35Z</time>
      </trkpt>
      <trkpt lat="42.95665" lon="0.84762">
        <ele>1480.1</ele>
        <time>2019-08-17T11:18:36Z</time>
      </trkpt>
      <trkpt lat="42.95665" lon="0.84762">
        <ele>1480.1</ele>
        <time>2019-08-17T11:18:37Z</time>
      </trkpt>
      <trkpt lat="42.95665" lon="0.84762">
        <ele>1480.1</ele>
        <time>2019-08-17T11:18:38Z</time>
      </trkpt>
      <trkpt lat="42.95665" lon="0.84762">
        <ele>1480.2</ele>
        <time>2019-08-17T11:18:39Z</time>
      </trkpt>
      <trkpt lat="42.95665" lon="0.84762">
        <ele>1480.2</ele>
        <time>2019-08-17T11:18:40Z</time>
      </trkpt>
      <trkpt lat="42.95665" lon="0.84762">
        <ele>1480.2</ele>
        <time>2019-08-17T11:18:41Z</time>
      </trkpt>
      <trkpt lat="42.95665" lon="0.84762">
        <ele>1480.2</ele>
        <time>2019-08-17T11:18:42Z</time>
      </trkpt>
      <trkpt lat="42.95665" lon="0.84762">
        <ele>1480.2</ele>
        <time>2019-08-17T11:18:43Z</time>
      </trkpt>
      <trkpt lat="42.95665" lon="0.84762">
        <ele>1480.2</ele>
        <time>2019-08-17T11:18:44Z</time>
      </trkpt>
      <trkpt lat="42.95665" lon="0.84762">
        <ele>1480.3</ele>
        <time>2019-08-17T11:18:45Z</time>
      </trkpt>
      <trkpt lat="42.95665" lon="0.84762">
        <ele>1480.3</ele>
        <time>2019-08-17T11:18:46Z</time>
      </trkpt>
      <trkpt lat="42.95665" lon="0.84762">
        <ele>1480.3</ele>
        <time>2019-08-17T11:18:47Z</time>
      </trkpt>
      <trkpt lat="42.95665" lon="0.84762">
        <ele>1480.3</ele>
        <time>2019-08-17T11:18:48Z</time>
      </trkpt>
      <trkpt lat="42.95665" lon="0.84762">
        <ele>1480.3</ele>
        <time>2019-08-17T11:18:49Z</time>
      </trkpt>
      <trkpt lat="42.95665" lon="0.84762">
        <ele>1480.3</ele>
        <time>2019-08-17T11:18:50Z</time>
      </trkpt>
      <trkpt lat="42.95665" lon="0.84762">
        <ele>1480.3</ele>
        <time>2019-08-17T11:18:51Z</time>
      </trkpt>
      <trkpt lat="42.95665" lon="0.84762">
        <ele>1480.4</ele>
        <time>2019-08-17T11:18:52Z</time>
      </trkpt>
      <trkpt lat="42.95665" lon="0.84762">
        <ele>1480.4</ele>
        <time>2019-08-17T11:18:53Z</time>
      </trkpt>
      <trkpt lat="42.95665" lon="0.84762">
        <ele>1480.4</ele>
        <time>2019-08-17T11:18:54Z</time>
      </trkpt>
      <trkpt lat="42.95665" lon="0.84762">
        <ele>1480.4</ele>
        <time>2019-08-17T11:18:55Z</time>
      </trkpt>
      <trkpt lat="42.95665" lon="0.84761">
        <ele>1480.4</ele>
        <time>2019-08-17T11:18:56Z</time>
      </trkpt>
      <trkpt lat="42.95665" lon="0.84761">
        <ele>1480.4</ele>
        <time>2019-08-17T11:18:57Z</time>
      </trkpt>
      <trkpt lat="42.95665" lon="0.8476">
        <ele>1480.3</ele>
        <time>2019-08-17T11:18:58Z</time>
      </trkpt>
      <trkpt lat="42.95664" lon="0.84758">
        <ele>1480.1</ele>
        <time>2019-08-17T11:18:59Z</time>
      </trkpt>
      <trkpt lat="42.95664" lon="0.84757">
        <ele>1480</ele>
        <time>2019-08-17T11:19:00Z</time>
      </trkpt>
      <trkpt lat="42.95664" lon="0.84757">
        <ele>1480</ele>
        <time>2019-08-17T11:19:01Z</time>
      </trkpt>
      <trkpt lat="42.95664" lon="0.84757">
        <ele>1480</ele>
        <time>2019-08-17T11:19:02Z</time>
      </trkpt>
      <trkpt lat="42.95664" lon="0.84757">
        <ele>1480.1</ele>
        <time>2019-08-17T11:19:03Z</time>
      </trkpt>
      <trkpt lat="42.95664" lon="0.84757">
        <ele>1480.1</ele>
        <time>2019-08-17T11:19:04Z</time>
      </trkpt>
      <trkpt lat="42.95664" lon="0.84757">
        <ele>1480</ele>
        <time>2019-08-17T11:19:05Z</time>
      </trkpt>
      <trkpt lat="42.95664" lon="0.84757">
        <ele>1480</ele>
        <time>2019-08-17T11:19:06Z</time>
      </trkpt>
      <trkpt lat="42.95664" lon="0.84757">
        <ele>1480.1</ele>
        <time>2019-08-17T11:19:07Z</time>
      </trkpt>
      <trkpt lat="42.95664" lon="0.84757">
        <ele>1480.1</ele>
        <time>2019-08-17T11:19:08Z</time>
      </trkpt>
      <trkpt lat="42.95664" lon="0.84757">
        <ele>1480.1</ele>
        <time>2019-08-17T11:19:09Z</time>
      </trkpt>
      <trkpt lat="42.95664" lon="0.84757">
        <ele>1480.1</ele>
        <time>2019-08-17T11:19:10Z</time>
      </trkpt>
      <trkpt lat="42.95664" lon="0.84757">
        <ele>1480.1</ele>
        <time>2019-08-17T11:19:11Z</time>
      </trkpt>
      <trkpt lat="42.95664" lon="0.84757">
        <ele>1480.1</ele>
        <time>2019-08-17T11:19:12Z</time>
      </trkpt>
      <trkpt lat="42.95664" lon="0.84757">
        <ele>1480.1</ele>
        <time>2019-08-17T11:19:13Z</time>
      </trkpt>
      <trkpt lat="42.95664" lon="0.84757">
        <ele>1480.2</ele>
        <time>2019-08-17T11:19:14Z</time>
      </trkpt>
      <trkpt lat="42.95664" lon="0.84757">
        <ele>1480.2</ele>
        <time>2019-08-17T11:19:15Z</time>
      </trkpt>
      <trkpt lat="42.95664" lon="0.84757">
        <ele>1480.2</ele>
        <time>2019-08-17T11:19:16Z</time>
      </trkpt>
      <trkpt lat="42.95664" lon="0.84757">
        <ele>1480.2</ele>
        <time>2019-08-17T11:19:17Z</time>
      </trkpt>
      <trkpt lat="42.95664" lon="0.84757">
        <ele>1480.2</ele>
        <time>2019-08-17T11:19:18Z</time>
      </trkpt>
      <trkpt lat="42.95664" lon="0.84757">
        <ele>1480.2</ele>
        <time>2019-08-17T11:19:19Z</time>
      </trkpt>
      <trkpt lat="42.95664" lon="0.84757">
        <ele>1480.3</ele>
        <time>2019-08-17T11:19:20Z</time>
      </trkpt>
      <trkpt lat="42.95664" lon="0.84757">
        <ele>1480.3</ele>
        <time>2019-08-17T11:19:21Z</time>
      </trkpt>
      <trkpt lat="42.95664" lon="0.84756">
        <ele>1480.3</ele>
        <time>2019-08-17T11:19:22Z</time>
      </trkpt>
      <trkpt lat="42.95664" lon="0.84756">
        <ele>1480.3</ele>
        <time>2019-08-17T11:19:23Z</time>
      </trkpt>
      <trkpt lat="42.95664" lon="0.84756">
        <ele>1480.3</ele>
        <time>2019-08-17T11:19:24Z</time>
      </trkpt>
      <trkpt lat="42.95664" lon="0.84756">
        <ele>1480.3</ele>
        <time>2019-08-17T11:19:25Z</time>
      </trkpt>
      <trkpt lat="42.95664" lon="0.84756">
        <ele>1480.3</ele>
        <time>2019-08-17T11:19:26Z</time>
      </trkpt>
      <trkpt lat="42.95664" lon="0.84756">
        <ele>1480.4</ele>
        <time>2019-08-17T11:19:27Z</time>
      </trkpt>
      <trkpt lat="42.95664" lon="0.84756">
        <ele>1480.4</ele>
        <time>2019-08-17T11:19:28Z</time>
      </trkpt>
      <trkpt lat="42.95664" lon="0.84756">
        <ele>1480.4</ele>
        <time>2019-08-17T11:19:29Z</time>
      </trkpt>
      <trkpt lat="42.95664" lon="0.84756">
        <ele>1480.4</ele>
        <time>2019-08-17T11:19:30Z</time>
      </trkpt>
      <trkpt lat="42.95664" lon="0.84756">
        <ele>1480.4</ele>
        <time>2019-08-17T11:19:31Z</time>
      </trkpt>
      <trkpt lat="42.95664" lon="0.84756">
        <ele>1480.4</ele>
        <time>2019-08-17T11:19:32Z</time>
      </trkpt>
      <trkpt lat="42.95664" lon="0.84756">
        <ele>1480.5</ele>
        <time>2019-08-17T11:19:33Z</time>
      </trkpt>
      <trkpt lat="42.95664" lon="0.84756">
        <ele>1480.5</ele>
        <time>2019-08-17T11:19:34Z</time>
      </trkpt>
      <trkpt lat="42.95664" lon="0.84756">
        <ele>1480.5</ele>
        <time>2019-08-17T11:19:35Z</time>
      </trkpt>
      <trkpt lat="42.95664" lon="0.84756">
        <ele>1480.5</ele>
        <time>2019-08-17T11:19:36Z</time>
      </trkpt>
      <trkpt lat="42.95664" lon="0.84756">
        <ele>1480.5</ele>
        <time>2019-08-17T11:19:37Z</time>
      </trkpt>
      <trkpt lat="42.95664" lon="0.84756">
        <ele>1480.5</ele>
        <time>2019-08-17T11:19:38Z</time>
      </trkpt>
      <trkpt lat="42.95664" lon="0.84756">
        <ele>1480.5</ele>
        <time>2019-08-17T11:19:39Z</time>
      </trkpt>
      <trkpt lat="42.95664" lon="0.84756">
        <ele>1480.5</ele>
        <time>2019-08-17T11:19:40Z</time>
      </trkpt>
      <trkpt lat="42.95664" lon="0.84756">
        <ele>1480.5</ele>
        <time>2019-08-17T11:19:41Z</time>
      </trkpt>
      <trkpt lat="42.95664" lon="0.84756">
        <ele>1480.5</ele>
        <time>2019-08-17T11:19:42Z</time>
      </trkpt>
      <trkpt lat="42.95664" lon="0.84756">
        <ele>1480.5</ele>
        <time>2019-08-17T11:19:43Z</time>
      </trkpt>
      <trkpt lat="42.95664" lon="0.84756">
        <ele>1480.5</ele>
        <time>2019-08-17T11:19:44Z</time>
      </trkpt>
      <trkpt lat="42.95664" lon="0.84756">
        <ele>1480.5</ele>
        <time>2019-08-17T11:19:45Z</time>
      </trkpt>
      <trkpt lat="42.95664" lon="0.84756">
        <ele>1480.5</ele>
        <time>2019-08-17T11:19:46Z</time>
      </trkpt>
      <trkpt lat="42.95664" lon="0.84756">
        <ele>1480.5</ele>
        <time>2019-08-17T11:19:47Z</time>
      </trkpt>
      <trkpt lat="42.95664" lon="0.84756">
        <ele>1480.5</ele>
        <time>2019-08-17T11:19:48Z</time>
      </trkpt>
      <trkpt lat="42.95664" lon="0.84756">
        <ele>1480.5</ele>
        <time>2019-08-17T11:19:49Z</time>
      </trkpt>
      <trkpt lat="42.95664" lon="0.84756">
        <ele>1480.5</ele>
        <time>2019-08-17T11:19:50Z</time>
      </trkpt>
      <trkpt lat="42.95664" lon="0.84756">
        <ele>1480.5</ele>
        <time>2019-08-17T11:19:51Z</time>
      </trkpt>
      <trkpt lat="42.95664" lon="0.84756">
        <ele>1480.5</ele>
        <time>2019-08-17T11:19:52Z</time>
      </trkpt>
      <trkpt lat="42.95664" lon="0.84756">
        <ele>1480.5</ele>
        <time>2019-08-17T11:19:53Z</time>
      </trkpt>
      <trkpt lat="42.95664" lon="0.84756">
        <ele>1480.5</ele>
        <time>2019-08-17T11:19:54Z</time>
      </trkpt>
      <trkpt lat="42.95664" lon="0.84756">
        <ele>1480.5</ele>
        <time>2019-08-17T11:19:55Z</time>
      </trkpt>
      <trkpt lat="42.95664" lon="0.84756">
        <ele>1480.5</ele>
        <time>2019-08-17T11:19:56Z</time>
      </trkpt>
      <trkpt lat="42.95664" lon="0.84756">
        <ele>1480.5</ele>
        <time>2019-08-17T11:19:57Z</time>
      </trkpt>
      <trkpt lat="42.95664" lon="0.84756">
        <ele>1480.5</ele>
        <time>2019-08-17T11:19:58Z</time>
      </trkpt>
      <trkpt lat="42.95664" lon="0.84756">
        <ele>1480.5</ele>
        <time>2019-08-17T11:19:59Z</time>
      </trkpt>
      <trkpt lat="42.95664" lon="0.84756">
        <ele>1480.5</ele>
        <time>2019-08-17T11:20:00Z</time>
      </trkpt>
      <trkpt lat="42.95664" lon="0.84756">
        <ele>1480.5</ele>
        <time>2019-08-17T11:20:01Z</time>
      </trkpt>
      <trkpt lat="42.95664" lon="0.84756">
        <ele>1480.5</ele>
        <time>2019-08-17T11:20:02Z</time>
      </trkpt>
      <trkpt lat="42.95664" lon="0.84756">
        <ele>1480.5</ele>
        <time>2019-08-17T11:20:03Z</time>
      </trkpt>
      <trkpt lat="42.95664" lon="0.84756">
        <ele>1480.5</ele>
        <time>2019-08-17T11:20:04Z</time>
      </trkpt>
      <trkpt lat="42.95664" lon="0.84756">
        <ele>1480.5</ele>
        <time>2019-08-17T11:20:05Z</time>
      </trkpt>
      <trkpt lat="42.95664" lon="0.84756">
        <ele>1480.5</ele>
        <time>2019-08-17T11:20:06Z</time>
      </trkpt>
      <trkpt lat="42.95664" lon="0.84756">
        <ele>1480.5</ele>
        <time>2019-08-17T11:20:07Z</time>
      </trkpt>
      <trkpt lat="42.95664" lon="0.84756">
        <ele>1480.5</ele>
        <time>2019-08-17T11:20:08Z</time>
      </trkpt>
      <trkpt lat="42.95664" lon="0.84756">
        <ele>1480.5</ele>
        <time>2019-08-17T11:20:09Z</time>
      </trkpt>
      <trkpt lat="42.95664" lon="0.84756">
        <ele>1480.5</ele>
        <time>2019-08-17T11:20:10Z</time>
      </trkpt>
      <trkpt lat="42.95664" lon="0.84756">
        <ele>1480.5</ele>
        <time>2019-08-17T11:20:11Z</time>
      </trkpt>
      <trkpt lat="42.95664" lon="0.84756">
        <ele>1480.5</ele>
        <time>2019-08-17T11:20:12Z</time>
      </trkpt>
      <trkpt lat="42.95664" lon="0.84756">
        <ele>1480.5</ele>
        <time>2019-08-17T11:20:13Z</time>
      </trkpt>
      <trkpt lat="42.95664" lon="0.84756">
        <ele>1480.5</ele>
        <time>2019-08-17T11:20:14Z</time>
      </trkpt>
      <trkpt lat="42.95664" lon="0.84756">
        <ele>1480.5</ele>
        <time>2019-08-17T11:20:15Z</time>
      </trkpt>
      <trkpt lat="42.95664" lon="0.84756">
        <ele>1480.5</ele>
        <time>2019-08-17T11:20:16Z</time>
      </trkpt>
      <trkpt lat="42.95664" lon="0.84756">
        <ele>1480.5</ele>
        <time>2019-08-17T11:20:17Z</time>
      </trkpt>
      <trkpt lat="42.95664" lon="0.84756">
        <ele>1480.5</ele>
        <time>2019-08-17T11:20:18Z</time>
      </trkpt>
      <trkpt lat="42.95664" lon="0.84756">
        <ele>1480.5</ele>
        <time>2019-08-17T11:20:19Z</time>
      </trkpt>
      <trkpt lat="42.95664" lon="0.84756">
        <ele>1480.5</ele>
        <time>2019-08-17T11:20:20Z</time>
      </trkpt>
      <trkpt lat="42.95664" lon="0.84756">
        <ele>1480.5</ele>
        <time>2019-08-17T11:20:21Z</time>
      </trkpt>
      <trkpt lat="42.95664" lon="0.84756">
        <ele>1480.5</ele>
        <time>2019-08-17T11:20:22Z</time>
      </trkpt>
      <trkpt lat="42.95664" lon="0.84756">
        <ele>1480.5</ele>
        <time>2019-08-17T11:20:23Z</time>
      </trkpt>
      <trkpt lat="42.95664" lon="0.84756">
        <ele>1480.5</ele>
        <time>2019-08-17T11:20:24Z</time>
      </trkpt>
      <trkpt lat="42.95664" lon="0.84756">
        <ele>1480.5</ele>
        <time>2019-08-17T11:20:25Z</time>
      </trkpt>
      <trkpt lat="42.95664" lon="0.84756">
        <ele>1480.5</ele>
        <time>2019-08-17T11:20:26Z</time>
      </trkpt>
      <trkpt lat="42.95664" lon="0.84756">
        <ele>1480.5</ele>
        <time>2019-08-17T11:20:27Z</time>
      </trkpt>
      <trkpt lat="42.95664" lon="0.84756">
        <ele>1480.5</ele>
        <time>2019-08-17T11:20:28Z</time>
      </trkpt>
      <trkpt lat="42.95664" lon="0.84756">
        <ele>1480.5</ele>
        <time>2019-08-17T11:20:29Z</time>
      </trkpt>
      <trkpt lat="42.95664" lon="0.84756">
        <ele>1480.5</ele>
        <time>2019-08-17T11:20:30Z</time>
      </trkpt>
      <trkpt lat="42.95664" lon="0.84756">
        <ele>1480.5</ele>
        <time>2019-08-17T11:20:31Z</time>
      </trkpt>
      <trkpt lat="42.95664" lon="0.84756">
        <ele>1480.5</ele>
        <time>2019-08-17T11:20:32Z</time>
      </trkpt>
      <trkpt lat="42.95664" lon="0.84756">
        <ele>1480.5</ele>
        <time>2019-08-17T11:20:33Z</time>
      </trkpt>
      <trkpt lat="42.95664" lon="0.84756">
        <ele>1480.5</ele>
        <time>2019-08-17T11:20:34Z</time>
      </trkpt>
      <trkpt lat="42.95664" lon="0.84756">
        <ele>1480.5</ele>
        <time>2019-08-17T11:20:35Z</time>
      </trkpt>
      <trkpt lat="42.95664" lon="0.84756">
        <ele>1480.5</ele>
        <time>2019-08-17T11:20:36Z</time>
      </trkpt>
      <trkpt lat="42.95664" lon="0.84756">
        <ele>1480.5</ele>
        <time>2019-08-17T11:20:37Z</time>
      </trkpt>
      <trkpt lat="42.95664" lon="0.84756">
        <ele>1480.5</ele>
        <time>2019-08-17T11:20:38Z</time>
      </trkpt>
      <trkpt lat="42.95664" lon="0.84756">
        <ele>1480.5</ele>
        <time>2019-08-17T11:20:39Z</time>
      </trkpt>
      <trkpt lat="42.95664" lon="0.84756">
        <ele>1480.5</ele>
        <time>2019-08-17T11:20:40Z</time>
      </trkpt>
      <trkpt lat="42.95664" lon="0.84756">
        <ele>1480.5</ele>
        <time>2019-08-17T11:20:41Z</time>
      </trkpt>
      <trkpt lat="42.95664" lon="0.84756">
        <ele>1480.5</ele>
        <time>2019-08-17T11:20:42Z</time>
      </trkpt>
      <trkpt lat="42.95664" lon="0.84756">
        <ele>1480.5</ele>
        <time>2019-08-17T11:20:43Z</time>
      </trkpt>
      <trkpt lat="42.95664" lon="0.84756">
        <ele>1480.5</ele>
        <time>2019-08-17T11:20:44Z</time>
      </trkpt>
      <trkpt lat="42.95664" lon="0.84756">
        <ele>1480.5</ele>
        <time>2019-08-17T11:20:45Z</time>
      </trkpt>
      <trkpt lat="42.95664" lon="0.84756">
        <ele>1480.5</ele>
        <time>2019-08-17T11:20:46Z</time>
      </trkpt>
      <trkpt lat="42.95664" lon="0.84756">
        <ele>1480.5</ele>
        <time>2019-08-17T11:20:47Z</time>
      </trkpt>
      <trkpt lat="42.95664" lon="0.84756">
        <ele>1480.5</ele>
        <time>2019-08-17T11:20:48Z</time>
      </trkpt>
      <trkpt lat="42.95664" lon="0.84756">
        <ele>1480.5</ele>
        <time>2019-08-17T11:20:49Z</time>
      </trkpt>
      <trkpt lat="42.95664" lon="0.84756">
        <ele>1480.5</ele>
        <time>2019-08-17T11:20:50Z</time>
      </trkpt>
      <trkpt lat="42.95664" lon="0.84756">
        <ele>1480.5</ele>
        <time>2019-08-17T11:20:51Z</time>
      </trkpt>
      <trkpt lat="42.95664" lon="0.84756">
        <ele>1480.5</ele>
        <time>2019-08-17T11:20:52Z</time>
      </trkpt>
      <trkpt lat="42.95664" lon="0.84756">
        <ele>1480.5</ele>
        <time>2019-08-17T11:20:53Z</time>
      </trkpt>
      <trkpt lat="42.95664" lon="0.84756">
        <ele>1480.5</ele>
        <time>2019-08-17T11:20:54Z</time>
      </trkpt>
      <trkpt lat="42.95664" lon="0.84756">
        <ele>1480.5</ele>
        <time>2019-08-17T11:20:55Z</time>
      </trkpt>
      <trkpt lat="42.95664" lon="0.84756">
        <ele>1480.5</ele>
        <time>2019-08-17T11:20:56Z</time>
      </trkpt>
      <trkpt lat="42.95664" lon="0.84756">
        <ele>1480.5</ele>
        <time>2019-08-17T11:20:57Z</time>
      </trkpt>
      <trkpt lat="42.95664" lon="0.84756">
        <ele>1480.5</ele>
        <time>2019-08-17T11:20:58Z</time>
      </trkpt>
      <trkpt lat="42.95664" lon="0.84756">
        <ele>1480.5</ele>
        <time>2019-08-17T11:20:59Z</time>
      </trkpt>
      <trkpt lat="42.95664" lon="0.84756">
        <ele>1480.5</ele>
        <time>2019-08-17T11:21:00Z</time>
      </trkpt>
      <trkpt lat="42.95664" lon="0.84756">
        <ele>1480.5</ele>
        <time>2019-08-17T11:21:01Z</time>
      </trkpt>
      <trkpt lat="42.95664" lon="0.84756">
        <ele>1480.5</ele>
        <time>2019-08-17T11:21:02Z</time>
      </trkpt>
      <trkpt lat="42.95664" lon="0.84756">
        <ele>1480.5</ele>
        <time>2019-08-17T11:21:03Z</time>
      </trkpt>
      <trkpt lat="42.95664" lon="0.84756">
        <ele>1480.5</ele>
        <time>2019-08-17T11:21:04Z</time>
      </trkpt>
      <trkpt lat="42.95664" lon="0.84756">
        <ele>1480.5</ele>
        <time>2019-08-17T11:21:05Z</time>
      </trkpt>
      <trkpt lat="42.95664" lon="0.84756">
        <ele>1480.5</ele>
        <time>2019-08-17T11:21:06Z</time>
      </trkpt>
      <trkpt lat="42.95664" lon="0.84756">
        <ele>1480.5</ele>
        <time>2019-08-17T11:21:07Z</time>
      </trkpt>
      <trkpt lat="42.95664" lon="0.84756">
        <ele>1480.5</ele>
        <time>2019-08-17T11:21:08Z</time>
      </trkpt>
      <trkpt lat="42.95664" lon="0.84756">
        <ele>1480.5</ele>
        <time>2019-08-17T11:21:09Z</time>
      </trkpt>
      <trkpt lat="42.95664" lon="0.84756">
        <ele>1480.5</ele>
        <time>2019-08-17T11:21:10Z</time>
      </trkpt>
      <trkpt lat="42.95664" lon="0.84756">
        <ele>1480.5</ele>
        <time>2019-08-17T11:21:11Z</time>
      </trkpt>
      <trkpt lat="42.95664" lon="0.84756">
        <ele>1480.5</ele>
        <time>2019-08-17T11:21:12Z</time>
      </trkpt>
      <trkpt lat="42.95664" lon="0.84756">
        <ele>1480.5</ele>
        <time>2019-08-17T11:21:13Z</time>
      </trkpt>
      <trkpt lat="42.95664" lon="0.84756">
        <ele>1480.5</ele>
        <time>2019-08-17T11:21:14Z</time>
      </trkpt>
      <trkpt lat="42.95664" lon="0.84756">
        <ele>1480.5</ele>
        <time>2019-08-17T11:21:15Z</time>
      </trkpt>
      <trkpt lat="42.95664" lon="0.84756">
        <ele>1480.5</ele>
        <time>2019-08-17T11:21:16Z</time>
      </trkpt>
      <trkpt lat="42.95664" lon="0.84756">
        <ele>1480.5</ele>
        <time>2019-08-17T11:21:17Z</time>
      </trkpt>
      <trkpt lat="42.95664" lon="0.84756">
        <ele>1480.5</ele>
        <time>2019-08-17T11:21:18Z</time>
      </trkpt>
      <trkpt lat="42.95664" lon="0.84756">
        <ele>1480.5</ele>
        <time>2019-08-17T11:21:19Z</time>
      </trkpt>
      <trkpt lat="42.95664" lon="0.84756">
        <ele>1480.5</ele>
        <time>2019-08-17T11:21:20Z</time>
      </trkpt>
      <trkpt lat="42.95664" lon="0.84756">
        <ele>1480.5</ele>
        <time>2019-08-17T11:21:21Z</time>
      </trkpt>
      <trkpt lat="42.95664" lon="0.84756">
        <ele>1480.5</ele>
        <time>2019-08-17T11:21:22Z</time>
      </trkpt>
      <trkpt lat="42.95664" lon="0.84756">
        <ele>1480.5</ele>
        <time>2019-08-17T11:21:23Z</time>
      </trkpt>
      <trkpt lat="42.95664" lon="0.84756">
        <ele>1480.5</ele>
        <time>2019-08-17T11:21:24Z</time>
      </trkpt>
      <trkpt lat="42.95664" lon="0.84756">
        <ele>1480.5</ele>
        <time>2019-08-17T11:21:25Z</time>
      </trkpt>
      <trkpt lat="42.95664" lon="0.84756">
        <ele>1480.5</ele>
        <time>2019-08-17T11:21:26Z</time>
      </trkpt>
      <trkpt lat="42.95664" lon="0.84756">
        <ele>1480.5</ele>
        <time>2019-08-17T11:21:27Z</time>
      </trkpt>
      <trkpt lat="42.95664" lon="0.84756">
        <ele>1480.5</ele>
        <time>2019-08-17T11:21:28Z</time>
      </trkpt>
      <trkpt lat="42.95664" lon="0.84756">
        <ele>1480.5</ele>
        <time>2019-08-17T11:21:29Z</time>
      </trkpt>
      <trkpt lat="42.95664" lon="0.84756">
        <ele>1480.5</ele>
        <time>2019-08-17T11:21:30Z</time>
      </trkpt>
      <trkpt lat="42.95664" lon="0.84756">
        <ele>1480.5</ele>
        <time>2019-08-17T11:21:31Z</time>
      </trkpt>
      <trkpt lat="42.95664" lon="0.84756">
        <ele>1480.5</ele>
        <time>2019-08-17T11:21:32Z</time>
      </trkpt>
      <trkpt lat="42.95664" lon="0.84756">
        <ele>1480.5</ele>
        <time>2019-08-17T11:21:33Z</time>
      </trkpt>
      <trkpt lat="42.95664" lon="0.84756">
        <ele>1480.5</ele>
        <time>2019-08-17T11:21:34Z</time>
      </trkpt>
      <trkpt lat="42.95664" lon="0.84756">
        <ele>1480.5</ele>
        <time>2019-08-17T11:21:35Z</time>
      </trkpt>
      <trkpt lat="42.95664" lon="0.84756">
        <ele>1480.5</ele>
        <time>2019-08-17T11:21:36Z</time>
      </trkpt>
      <trkpt lat="42.95664" lon="0.84756">
        <ele>1480.5</ele>
        <time>2019-08-17T11:21:37Z</time>
      </trkpt>
      <trkpt lat="42.95664" lon="0.84756">
        <ele>1480.5</ele>
        <time>2019-08-17T11:21:38Z</time>
      </trkpt>
      <trkpt lat="42.95664" lon="0.84756">
        <ele>1480.5</ele>
        <time>2019-08-17T11:21:39Z</time>
      </trkpt>
      <trkpt lat="42.95664" lon="0.84756">
        <ele>1480.5</ele>
        <time>2019-08-17T11:21:40Z</time>
      </trkpt>
      <trkpt lat="42.95664" lon="0.84756">
        <ele>1480.5</ele>
        <time>2019-08-17T11:21:41Z</time>
      </trkpt>
      <trkpt lat="42.95664" lon="0.84756">
        <ele>1480.5</ele>
        <time>2019-08-17T11:21:42Z</time>
      </trkpt>
      <trkpt lat="42.95664" lon="0.84756">
        <ele>1480.5</ele>
        <time>2019-08-17T11:21:43Z</time>
      </trkpt>
      <trkpt lat="42.95664" lon="0.84756">
        <ele>1480.5</ele>
        <time>2019-08-17T11:21:44Z</time>
      </trkpt>
      <trkpt lat="42.95664" lon="0.84756">
        <ele>1480.5</ele>
        <time>2019-08-17T11:21:45Z</time>
      </trkpt>
      <trkpt lat="42.95664" lon="0.84756">
        <ele>1480.5</ele>
        <time>2019-08-17T11:21:46Z</time>
      </trkpt>
      <trkpt lat="42.95664" lon="0.84756">
        <ele>1480.5</ele>
        <time>2019-08-17T11:21:47Z</time>
      </trkpt>
      <trkpt lat="42.95664" lon="0.84756">
        <ele>1480.5</ele>
        <time>2019-08-17T11:21:48Z</time>
      </trkpt>
      <trkpt lat="42.95664" lon="0.84756">
        <ele>1480.5</ele>
        <time>2019-08-17T11:21:49Z</time>
      </trkpt>
      <trkpt lat="42.95664" lon="0.84756">
        <ele>1480.5</ele>
        <time>2019-08-17T11:21:50Z</time>
      </trkpt>
      <trkpt lat="42.95664" lon="0.84756">
        <ele>1480.5</ele>
        <time>2019-08-17T11:21:51Z</time>
      </trkpt>
      <trkpt lat="42.95664" lon="0.84756">
        <ele>1480.5</ele>
        <time>2019-08-17T11:21:52Z</time>
      </trkpt>
      <trkpt lat="42.95664" lon="0.84756">
        <ele>1480.5</ele>
        <time>2019-08-17T11:21:53Z</time>
      </trkpt>
      <trkpt lat="42.95664" lon="0.84756">
        <ele>1480.5</ele>
        <time>2019-08-17T11:21:54Z</time>
      </trkpt>
      <trkpt lat="42.95664" lon="0.84756">
        <ele>1480.5</ele>
        <time>2019-08-17T11:21:55Z</time>
      </trkpt>
      <trkpt lat="42.95664" lon="0.84756">
        <ele>1480.5</ele>
        <time>2019-08-17T11:21:56Z</time>
      </trkpt>
      <trkpt lat="42.95664" lon="0.84756">
        <ele>1480.5</ele>
        <time>2019-08-17T11:21:57Z</time>
      </trkpt>
      <trkpt lat="42.95664" lon="0.84756">
        <ele>1480.5</ele>
        <time>2019-08-17T11:21:58Z</time>
      </trkpt>
      <trkpt lat="42.95664" lon="0.84756">
        <ele>1480.5</ele>
        <time>2019-08-17T11:21:59Z</time>
      </trkpt>
      <trkpt lat="42.95664" lon="0.84756">
        <ele>1480.5</ele>
        <time>2019-08-17T11:22:00Z</time>
      </trkpt>
      <trkpt lat="42.95664" lon="0.84756">
        <ele>1480.5</ele>
        <time>2019-08-17T11:22:01Z</time>
      </trkpt>
      <trkpt lat="42.95664" lon="0.84756">
        <ele>1480.5</ele>
        <time>2019-08-17T11:22:02Z</time>
      </trkpt>
      <trkpt lat="42.95664" lon="0.84756">
        <ele>1480.5</ele>
        <time>2019-08-17T11:22:03Z</time>
      </trkpt>
      <trkpt lat="42.95664" lon="0.84756">
        <ele>1480.5</ele>
        <time>2019-08-17T11:22:04Z</time>
      </trkpt>
      <trkpt lat="42.95664" lon="0.84756">
        <ele>1480.5</ele>
        <time>2019-08-17T11:22:05Z</time>
      </trkpt>
      <trkpt lat="42.95664" lon="0.84756">
        <ele>1480.5</ele>
        <time>2019-08-17T11:22:06Z</time>
      </trkpt>
      <trkpt lat="42.95664" lon="0.84756">
        <ele>1480.5</ele>
        <time>2019-08-17T11:22:07Z</time>
      </trkpt>
      <trkpt lat="42.95664" lon="0.84756">
        <ele>1480.5</ele>
        <time>2019-08-17T11:22:08Z</time>
      </trkpt>
      <trkpt lat="42.95664" lon="0.84756">
        <ele>1480.5</ele>
        <time>2019-08-17T11:22:09Z</time>
      </trkpt>
      <trkpt lat="42.95664" lon="0.84756">
        <ele>1480.5</ele>
        <time>2019-08-17T11:22:10Z</time>
      </trkpt>
      <trkpt lat="42.95664" lon="0.84756">
        <ele>1480.5</ele>
        <time>2019-08-17T11:22:11Z</time>
      </trkpt>
      <trkpt lat="42.95664" lon="0.84756">
        <ele>1480.5</ele>
        <time>2019-08-17T11:22:12Z</time>
      </trkpt>
      <trkpt lat="42.95664" lon="0.84756">
        <ele>1480.5</ele>
        <time>2019-08-17T11:22:13Z</time>
      </trkpt>
      <trkpt lat="42.95664" lon="0.84756">
        <ele>1480.5</ele>
        <time>2019-08-17T11:22:14Z</time>
      </trkpt>
      <trkpt lat="42.95664" lon="0.84756">
        <ele>1480.5</ele>
        <time>2019-08-17T11:22:15Z</time>
      </trkpt>
      <trkpt lat="42.95664" lon="0.84756">
        <ele>1480.5</ele>
        <time>2019-08-17T11:22:16Z</time>
      </trkpt>
      <trkpt lat="42.95664" lon="0.84756">
        <ele>1480.5</ele>
        <time>2019-08-17T11:22:17Z</time>
      </trkpt>
      <trkpt lat="42.95664" lon="0.84756">
        <ele>1480.5</ele>
        <time>2019-08-17T11:22:18Z</time>
      </trkpt>
      <trkpt lat="42.95664" lon="0.84756">
        <ele>1480.5</ele>
        <time>2019-08-17T11:22:19Z</time>
      </trkpt>
      <trkpt lat="42.95664" lon="0.84756">
        <ele>1480.5</ele>
        <time>2019-08-17T11:22:20Z</time>
      </trkpt>
      <trkpt lat="42.95664" lon="0.84756">
        <ele>1480.5</ele>
        <time>2019-08-17T11:22:21Z</time>
      </trkpt>
      <trkpt lat="42.95664" lon="0.84756">
        <ele>1480.5</ele>
        <time>2019-08-17T11:22:22Z</time>
      </trkpt>
      <trkpt lat="42.95664" lon="0.84756">
        <ele>1480.5</ele>
        <time>2019-08-17T11:22:23Z</time>
      </trkpt>
      <trkpt lat="42.95664" lon="0.84756">
        <ele>1480.5</ele>
        <time>2019-08-17T11:22:24Z</time>
      </trkpt>
      <trkpt lat="42.95664" lon="0.84756">
        <ele>1480.5</ele>
        <time>2019-08-17T11:22:25Z</time>
      </trkpt>
      <trkpt lat="42.95664" lon="0.84756">
        <ele>1480.5</ele>
        <time>2019-08-17T11:22:26Z</time>
      </trkpt>
      <trkpt lat="42.95664" lon="0.84756">
        <ele>1480.5</ele>
        <time>2019-08-17T11:22:27Z</time>
      </trkpt>
      <trkpt lat="42.95664" lon="0.84756">
        <ele>1480.5</ele>
        <time>2019-08-17T11:22:28Z</time>
      </trkpt>
      <trkpt lat="42.95664" lon="0.84756">
        <ele>1480.5</ele>
        <time>2019-08-17T11:22:29Z</time>
      </trkpt>
      <trkpt lat="42.95664" lon="0.84756">
        <ele>1480.5</ele>
        <time>2019-08-17T11:22:30Z</time>
      </trkpt>
      <trkpt lat="42.95664" lon="0.84756">
        <ele>1480.5</ele>
        <time>2019-08-17T11:22:31Z</time>
      </trkpt>
      <trkpt lat="42.95664" lon="0.84756">
        <ele>1480.5</ele>
        <time>2019-08-17T11:22:32Z</time>
      </trkpt>
      <trkpt lat="42.95664" lon="0.84756">
        <ele>1480.5</ele>
        <time>2019-08-17T11:22:33Z</time>
      </trkpt>
      <trkpt lat="42.95664" lon="0.84756">
        <ele>1480.5</ele>
        <time>2019-08-17T11:22:34Z</time>
      </trkpt>
      <trkpt lat="42.95664" lon="0.84756">
        <ele>1480.5</ele>
        <time>2019-08-17T11:22:35Z</time>
      </trkpt>
      <trkpt lat="42.95664" lon="0.84756">
        <ele>1480.5</ele>
        <time>2019-08-17T11:22:36Z</time>
      </trkpt>
      <trkpt lat="42.95664" lon="0.84756">
        <ele>1480.5</ele>
        <time>2019-08-17T11:22:37Z</time>
      </trkpt>
      <trkpt lat="42.95664" lon="0.84756">
        <ele>1480.5</ele>
        <time>2019-08-17T11:22:38Z</time>
      </trkpt>
      <trkpt lat="42.95664" lon="0.84756">
        <ele>1480.5</ele>
        <time>2019-08-17T11:22:39Z</time>
      </trkpt>
      <trkpt lat="42.95664" lon="0.84756">
        <ele>1480.5</ele>
        <time>2019-08-17T11:22:40Z</time>
      </trkpt>
      <trkpt lat="42.95664" lon="0.84756">
        <ele>1480.5</ele>
        <time>2019-08-17T11:22:41Z</time>
      </trkpt>
      <trkpt lat="42.95664" lon="0.84756">
        <ele>1480.5</ele>
        <time>2019-08-17T11:22:42Z</time>
      </trkpt>
      <trkpt lat="42.95664" lon="0.84756">
        <ele>1480.5</ele>
        <time>2019-08-17T11:22:43Z</time>
      </trkpt>
      <trkpt lat="42.95664" lon="0.84756">
        <ele>1480.5</ele>
        <time>2019-08-17T11:22:44Z</time>
      </trkpt>
      <trkpt lat="42.95664" lon="0.84756">
        <ele>1480.5</ele>
        <time>2019-08-17T11:22:45Z</time>
      </trkpt>
      <trkpt lat="42.95664" lon="0.84756">
        <ele>1480.5</ele>
        <time>2019-08-17T11:22:46Z</time>
      </trkpt>
      <trkpt lat="42.95664" lon="0.84756">
        <ele>1480.5</ele>
        <time>2019-08-17T11:22:47Z</time>
      </trkpt>
      <trkpt lat="42.95664" lon="0.84756">
        <ele>1480.5</ele>
        <time>2019-08-17T11:22:48Z</time>
      </trkpt>
      <trkpt lat="42.95664" lon="0.84756">
        <ele>1480.5</ele>
        <time>2019-08-17T11:22:49Z</time>
      </trkpt>
      <trkpt lat="42.95664" lon="0.84756">
        <ele>1480.5</ele>
        <time>2019-08-17T11:22:50Z</time>
      </trkpt>
      <trkpt lat="42.95664" lon="0.84756">
        <ele>1480.5</ele>
        <time>2019-08-17T11:22:51Z</time>
      </trkpt>
      <trkpt lat="42.95664" lon="0.84756">
        <ele>1480.5</ele>
        <time>2019-08-17T11:22:52Z</time>
      </trkpt>
      <trkpt lat="42.95664" lon="0.84756">
        <ele>1480.5</ele>
        <time>2019-08-17T11:22:53Z</time>
      </trkpt>
      <trkpt lat="42.95664" lon="0.84756">
        <ele>1480.5</ele>
        <time>2019-08-17T11:22:54Z</time>
      </trkpt>
      <trkpt lat="42.95664" lon="0.84756">
        <ele>1480.5</ele>
        <time>2019-08-17T11:22:55Z</time>
      </trkpt>
      <trkpt lat="42.95664" lon="0.84756">
        <ele>1480.5</ele>
        <time>2019-08-17T11:22:56Z</time>
      </trkpt>
      <trkpt lat="42.95664" lon="0.84756">
        <ele>1480.5</ele>
        <time>2019-08-17T11:22:57Z</time>
      </trkpt>
      <trkpt lat="42.95664" lon="0.84756">
        <ele>1480.5</ele>
        <time>2019-08-17T11:22:58Z</time>
      </trkpt>
      <trkpt lat="42.95664" lon="0.84756">
        <ele>1480.5</ele>
        <time>2019-08-17T11:22:59Z</time>
      </trkpt>
      <trkpt lat="42.95664" lon="0.84756">
        <ele>1480.5</ele>
        <time>2019-08-17T11:23:00Z</time>
      </trkpt>
      <trkpt lat="42.95664" lon="0.84756">
        <ele>1480.5</ele>
        <time>2019-08-17T11:23:01Z</time>
      </trkpt>
      <trkpt lat="42.95664" lon="0.84756">
        <ele>1480.5</ele>
        <time>2019-08-17T11:23:02Z</time>
      </trkpt>
      <trkpt lat="42.95664" lon="0.84756">
        <ele>1480.5</ele>
        <time>2019-08-17T11:23:03Z</time>
      </trkpt>
      <trkpt lat="42.95664" lon="0.84756">
        <ele>1480.5</ele>
        <time>2019-08-17T11:23:04Z</time>
      </trkpt>
      <trkpt lat="42.95664" lon="0.84756">
        <ele>1480.5</ele>
        <time>2019-08-17T11:23:05Z</time>
      </trkpt>
      <trkpt lat="42.95664" lon="0.84756">
        <ele>1480.5</ele>
        <time>2019-08-17T11:23:06Z</time>
      </trkpt>
      <trkpt lat="42.95664" lon="0.84756">
        <ele>1480.5</ele>
        <time>2019-08-17T11:23:07Z</time>
      </trkpt>
      <trkpt lat="42.95664" lon="0.84756">
        <ele>1480.5</ele>
        <time>2019-08-17T11:23:08Z</time>
      </trkpt>
      <trkpt lat="42.95664" lon="0.84756">
        <ele>1480.5</ele>
        <time>2019-08-17T11:23:09Z</time>
      </trkpt>
      <trkpt lat="42.95664" lon="0.84756">
        <ele>1480.5</ele>
        <time>2019-08-17T11:23:10Z</time>
      </trkpt>
      <trkpt lat="42.95664" lon="0.84756">
        <ele>1480.5</ele>
        <time>2019-08-17T11:23:11Z</time>
      </trkpt>
      <trkpt lat="42.95664" lon="0.84756">
        <ele>1480.5</ele>
        <time>2019-08-17T11:23:12Z</time>
      </trkpt>
      <trkpt lat="42.95664" lon="0.84756">
        <ele>1480.5</ele>
        <time>2019-08-17T11:23:13Z</time>
      </trkpt>
      <trkpt lat="42.95664" lon="0.84756">
        <ele>1480.5</ele>
        <time>2019-08-17T11:23:14Z</time>
      </trkpt>
      <trkpt lat="42.95664" lon="0.84756">
        <ele>1480.5</ele>
        <time>2019-08-17T11:23:15Z</time>
      </trkpt>
      <trkpt lat="42.95664" lon="0.84756">
        <ele>1480.5</ele>
        <time>2019-08-17T11:23:16Z</time>
      </trkpt>
      <trkpt lat="42.95664" lon="0.84756">
        <ele>1480.5</ele>
        <time>2019-08-17T11:23:17Z</time>
      </trkpt>
      <trkpt lat="42.95664" lon="0.84756">
        <ele>1480.5</ele>
        <time>2019-08-17T11:23:18Z</time>
      </trkpt>
      <trkpt lat="42.95664" lon="0.84756">
        <ele>1480.5</ele>
        <time>2019-08-17T11:23:19Z</time>
      </trkpt>
      <trkpt lat="42.95664" lon="0.84756">
        <ele>1480.5</ele>
        <time>2019-08-17T11:23:20Z</time>
      </trkpt>
      <trkpt lat="42.95664" lon="0.84756">
        <ele>1480.5</ele>
        <time>2019-08-17T11:23:21Z</time>
      </trkpt>
      <trkpt lat="42.95664" lon="0.84756">
        <ele>1480.5</ele>
        <time>2019-08-17T11:23:22Z</time>
      </trkpt>
      <trkpt lat="42.95664" lon="0.84756">
        <ele>1480.5</ele>
        <time>2019-08-17T11:23:23Z</time>
      </trkpt>
      <trkpt lat="42.95664" lon="0.84756">
        <ele>1480.5</ele>
        <time>2019-08-17T11:23:24Z</time>
      </trkpt>
      <trkpt lat="42.95664" lon="0.84756">
        <ele>1480.5</ele>
        <time>2019-08-17T11:23:25Z</time>
      </trkpt>
      <trkpt lat="42.95664" lon="0.84756">
        <ele>1480.5</ele>
        <time>2019-08-17T11:23:26Z</time>
      </trkpt>
      <trkpt lat="42.95664" lon="0.84756">
        <ele>1480.5</ele>
        <time>2019-08-17T11:23:27Z</time>
      </trkpt>
      <trkpt lat="42.95664" lon="0.84756">
        <ele>1480.5</ele>
        <time>2019-08-17T11:23:28Z</time>
      </trkpt>
      <trkpt lat="42.95664" lon="0.84756">
        <ele>1480.5</ele>
        <time>2019-08-17T11:23:29Z</time>
      </trkpt>
      <trkpt lat="42.95664" lon="0.84756">
        <ele>1480.5</ele>
        <time>2019-08-17T11:23:30Z</time>
      </trkpt>
      <trkpt lat="42.95664" lon="0.84756">
        <ele>1480.5</ele>
        <time>2019-08-17T11:23:31Z</time>
      </trkpt>
      <trkpt lat="42.95664" lon="0.84756">
        <ele>1480.5</ele>
        <time>2019-08-17T11:23:32Z</time>
      </trkpt>
      <trkpt lat="42.95664" lon="0.84756">
        <ele>1480.5</ele>
        <time>2019-08-17T11:23:33Z</time>
      </trkpt>
      <trkpt lat="42.95664" lon="0.84756">
        <ele>1480.5</ele>
        <time>2019-08-17T11:23:34Z</time>
      </trkpt>
      <trkpt lat="42.95664" lon="0.84756">
        <ele>1480.5</ele>
        <time>2019-08-17T11:23:35Z</time>
      </trkpt>
      <trkpt lat="42.95664" lon="0.84756">
        <ele>1480.5</ele>
        <time>2019-08-17T11:23:36Z</time>
      </trkpt>
      <trkpt lat="42.95664" lon="0.84756">
        <ele>1480.5</ele>
        <time>2019-08-17T11:23:37Z</time>
      </trkpt>
      <trkpt lat="42.95664" lon="0.84756">
        <ele>1480.5</ele>
        <time>2019-08-17T11:23:38Z</time>
      </trkpt>
      <trkpt lat="42.95664" lon="0.84756">
        <ele>1480.5</ele>
        <time>2019-08-17T11:23:39Z</time>
      </trkpt>
      <trkpt lat="42.95664" lon="0.84756">
        <ele>1480.5</ele>
        <time>2019-08-17T11:23:40Z</time>
      </trkpt>
      <trkpt lat="42.95664" lon="0.84756">
        <ele>1480.5</ele>
        <time>2019-08-17T11:23:41Z</time>
      </trkpt>
      <trkpt lat="42.95664" lon="0.84756">
        <ele>1480.5</ele>
        <time>2019-08-17T11:23:42Z</time>
      </trkpt>
      <trkpt lat="42.95664" lon="0.84756">
        <ele>1480.5</ele>
        <time>2019-08-17T11:23:43Z</time>
      </trkpt>
      <trkpt lat="42.95664" lon="0.84756">
        <ele>1480.5</ele>
        <time>2019-08-17T11:23:44Z</time>
      </trkpt>
      <trkpt lat="42.95664" lon="0.84756">
        <ele>1480.5</ele>
        <time>2019-08-17T11:23:45Z</time>
      </trkpt>
      <trkpt lat="42.95664" lon="0.84756">
        <ele>1480.5</ele>
        <time>2019-08-17T11:23:46Z</time>
      </trkpt>
      <trkpt lat="42.95664" lon="0.84756">
        <ele>1480.5</ele>
        <time>2019-08-17T11:23:47Z</time>
      </trkpt>
      <trkpt lat="42.95664" lon="0.84756">
        <ele>1480.5</ele>
        <time>2019-08-17T11:23:48Z</time>
      </trkpt>
      <trkpt lat="42.95664" lon="0.84756">
        <ele>1480.5</ele>
        <time>2019-08-17T11:23:49Z</time>
      </trkpt>
      <trkpt lat="42.95664" lon="0.84756">
        <ele>1480.5</ele>
        <time>2019-08-17T11:23:50Z</time>
      </trkpt>
      <trkpt lat="42.95664" lon="0.84756">
        <ele>1480.5</ele>
        <time>2019-08-17T11:23:51Z</time>
      </trkpt>
      <trkpt lat="42.95664" lon="0.84756">
        <ele>1480.5</ele>
        <time>2019-08-17T11:23:52Z</time>
      </trkpt>
      <trkpt lat="42.95664" lon="0.84756">
        <ele>1480.5</ele>
        <time>2019-08-17T11:23:53Z</time>
      </trkpt>
      <trkpt lat="42.95664" lon="0.84756">
        <ele>1480.5</ele>
        <time>2019-08-17T11:23:54Z</time>
      </trkpt>
      <trkpt lat="42.95664" lon="0.84756">
        <ele>1480.5</ele>
        <time>2019-08-17T11:23:55Z</time>
      </trkpt>
      <trkpt lat="42.95664" lon="0.84756">
        <ele>1480.5</ele>
        <time>2019-08-17T11:23:56Z</time>
      </trkpt>
      <trkpt lat="42.95664" lon="0.84756">
        <ele>1480.5</ele>
        <time>2019-08-17T11:23:57Z</time>
      </trkpt>
      <trkpt lat="42.95664" lon="0.84756">
        <ele>1480.5</ele>
        <time>2019-08-17T11:23:58Z</time>
      </trkpt>
      <trkpt lat="42.95664" lon="0.84756">
        <ele>1480.5</ele>
        <time>2019-08-17T11:23:59Z</time>
      </trkpt>
      <trkpt lat="42.95664" lon="0.84756">
        <ele>1480.5</ele>
        <time>2019-08-17T11:24:00Z</time>
      </trkpt>
      <trkpt lat="42.95664" lon="0.84756">
        <ele>1480.5</ele>
        <time>2019-08-17T11:24:01Z</time>
      </trkpt>
      <trkpt lat="42.95664" lon="0.84756">
        <ele>1480.5</ele>
        <time>2019-08-17T11:24:02Z</time>
      </trkpt>
      <trkpt lat="42.95664" lon="0.84756">
        <ele>1480.5</ele>
        <time>2019-08-17T11:24:03Z</time>
      </trkpt>
      <trkpt lat="42.95664" lon="0.84756">
        <ele>1480.5</ele>
        <time>2019-08-17T11:24:04Z</time>
      </trkpt>
      <trkpt lat="42.95664" lon="0.84756">
        <ele>1480.5</ele>
        <time>2019-08-17T11:24:05Z</time>
      </trkpt>
      <trkpt lat="42.95664" lon="0.84756">
        <ele>1480.5</ele>
        <time>2019-08-17T11:24:06Z</time>
      </trkpt>
      <trkpt lat="42.95664" lon="0.84756">
        <ele>1480.5</ele>
        <time>2019-08-17T11:24:07Z</time>
      </trkpt>
      <trkpt lat="42.95664" lon="0.84756">
        <ele>1480.5</ele>
        <time>2019-08-17T11:24:08Z</time>
      </trkpt>
      <trkpt lat="42.95664" lon="0.84756">
        <ele>1480.5</ele>
        <time>2019-08-17T11:24:09Z</time>
      </trkpt>
      <trkpt lat="42.95664" lon="0.84756">
        <ele>1480.5</ele>
        <time>2019-08-17T11:24:10Z</time>
      </trkpt>
      <trkpt lat="42.95664" lon="0.84756">
        <ele>1480.5</ele>
        <time>2019-08-17T11:24:11Z</time>
      </trkpt>
      <trkpt lat="42.95664" lon="0.84756">
        <ele>1480.5</ele>
        <time>2019-08-17T11:24:12Z</time>
      </trkpt>
      <trkpt lat="42.95664" lon="0.84756">
        <ele>1480.5</ele>
        <time>2019-08-17T11:24:13Z</time>
      </trkpt>
      <trkpt lat="42.95664" lon="0.84756">
        <ele>1480.5</ele>
        <time>2019-08-17T11:24:14Z</time>
      </trkpt>
      <trkpt lat="42.95664" lon="0.84756">
        <ele>1480.5</ele>
        <time>2019-08-17T11:24:15Z</time>
      </trkpt>
      <trkpt lat="42.95664" lon="0.84756">
        <ele>1480.5</ele>
        <time>2019-08-17T11:24:16Z</time>
      </trkpt>
      <trkpt lat="42.95664" lon="0.84756">
        <ele>1480.5</ele>
        <time>2019-08-17T11:24:17Z</time>
      </trkpt>
      <trkpt lat="42.95664" lon="0.84756">
        <ele>1480.5</ele>
        <time>2019-08-17T11:24:18Z</time>
      </trkpt>
      <trkpt lat="42.95664" lon="0.84756">
        <ele>1480.5</ele>
        <time>2019-08-17T11:24:19Z</time>
      </trkpt>
      <trkpt lat="42.95664" lon="0.84756">
        <ele>1480.5</ele>
        <time>2019-08-17T11:24:20Z</time>
      </trkpt>
      <trkpt lat="42.95664" lon="0.84756">
        <ele>1480.5</ele>
        <time>2019-08-17T11:24:21Z</time>
      </trkpt>
      <trkpt lat="42.95664" lon="0.84756">
        <ele>1480.5</ele>
        <time>2019-08-17T11:24:22Z</time>
      </trkpt>
      <trkpt lat="42.95664" lon="0.84756">
        <ele>1480.5</ele>
        <time>2019-08-17T11:24:23Z</time>
      </trkpt>
      <trkpt lat="42.95664" lon="0.84756">
        <ele>1480.5</ele>
        <time>2019-08-17T11:24:24Z</time>
      </trkpt>
      <trkpt lat="42.95664" lon="0.84756">
        <ele>1480.5</ele>
        <time>2019-08-17T11:24:25Z</time>
      </trkpt>
      <trkpt lat="42.95664" lon="0.84756">
        <ele>1480.5</ele>
        <time>2019-08-17T11:24:26Z</time>
      </trkpt>
      <trkpt lat="42.95664" lon="0.84756">
        <ele>1480.5</ele>
        <time>2019-08-17T11:24:27Z</time>
      </trkpt>
      <trkpt lat="42.95664" lon="0.84756">
        <ele>1480.5</ele>
        <time>2019-08-17T11:24:28Z</time>
      </trkpt>
      <trkpt lat="42.95664" lon="0.84756">
        <ele>1480.5</ele>
        <time>2019-08-17T11:24:29Z</time>
      </trkpt>
      <trkpt lat="42.95664" lon="0.84756">
        <ele>1480.5</ele>
        <time>2019-08-17T11:24:30Z</time>
      </trkpt>
      <trkpt lat="42.95664" lon="0.84756">
        <ele>1480.5</ele>
        <time>2019-08-17T11:24:31Z</time>
      </trkpt>
      <trkpt lat="42.95664" lon="0.84756">
        <ele>1480.5</ele>
        <time>2019-08-17T11:24:32Z</time>
      </trkpt>
      <trkpt lat="42.95664" lon="0.84756">
        <ele>1480.5</ele>
        <time>2019-08-17T11:24:33Z</time>
      </trkpt>
      <trkpt lat="42.95664" lon="0.84756">
        <ele>1480.5</ele>
        <time>2019-08-17T11:24:34Z</time>
      </trkpt>
      <trkpt lat="42.95664" lon="0.84756">
        <ele>1480.5</ele>
        <time>2019-08-17T11:24:35Z</time>
      </trkpt>
      <trkpt lat="42.95664" lon="0.84756">
        <ele>1480.5</ele>
        <time>2019-08-17T11:24:36Z</time>
      </trkpt>
      <trkpt lat="42.95664" lon="0.84756">
        <ele>1480.5</ele>
        <time>2019-08-17T11:24:37Z</time>
      </trkpt>
      <trkpt lat="42.95664" lon="0.84756">
        <ele>1480.5</ele>
        <time>2019-08-17T11:24:38Z</time>
      </trkpt>
      <trkpt lat="42.95664" lon="0.84756">
        <ele>1480.5</ele>
        <time>2019-08-17T11:24:39Z</time>
      </trkpt>
      <trkpt lat="42.95664" lon="0.84756">
        <ele>1480.5</ele>
        <time>2019-08-17T11:24:40Z</time>
      </trkpt>
      <trkpt lat="42.95664" lon="0.84756">
        <ele>1480.5</ele>
        <time>2019-08-17T11:24:41Z</time>
      </trkpt>
      <trkpt lat="42.95664" lon="0.84756">
        <ele>1480.5</ele>
        <time>2019-08-17T11:24:42Z</time>
      </trkpt>
      <trkpt lat="42.95664" lon="0.84756">
        <ele>1480.5</ele>
        <time>2019-08-17T11:24:43Z</time>
      </trkpt>
      <trkpt lat="42.95664" lon="0.84756">
        <ele>1480.5</ele>
        <time>2019-08-17T11:24:44Z</time>
      </trkpt>
      <trkpt lat="42.95664" lon="0.84756">
        <ele>1480.5</ele>
        <time>2019-08-17T11:24:45Z</time>
      </trkpt>
      <trkpt lat="42.95664" lon="0.84756">
        <ele>1480.5</ele>
        <time>2019-08-17T11:24:46Z</time>
      </trkpt>
      <trkpt lat="42.95664" lon="0.84756">
        <ele>1480.5</ele>
        <time>2019-08-17T11:24:47Z</time>
      </trkpt>
      <trkpt lat="42.95664" lon="0.84756">
        <ele>1480.5</ele>
        <time>2019-08-17T11:24:48Z</time>
      </trkpt>
      <trkpt lat="42.95664" lon="0.84756">
        <ele>1480.5</ele>
        <time>2019-08-17T11:24:49Z</time>
      </trkpt>
      <trkpt lat="42.95664" lon="0.84756">
        <ele>1480.5</ele>
        <time>2019-08-17T11:24:50Z</time>
      </trkpt>
      <trkpt lat="42.95664" lon="0.84756">
        <ele>1480.5</ele>
        <time>2019-08-17T11:24:51Z</time>
      </trkpt>
      <trkpt lat="42.95664" lon="0.84756">
        <ele>1480.5</ele>
        <time>2019-08-17T11:24:52Z</time>
      </trkpt>
      <trkpt lat="42.95664" lon="0.84756">
        <ele>1480.5</ele>
        <time>2019-08-17T11:24:53Z</time>
      </trkpt>
      <trkpt lat="42.95664" lon="0.84756">
        <ele>1480.5</ele>
        <time>2019-08-17T11:24:54Z</time>
      </trkpt>
      <trkpt lat="42.95664" lon="0.84756">
        <ele>1480.5</ele>
        <time>2019-08-17T11:24:55Z</time>
      </trkpt>
      <trkpt lat="42.95664" lon="0.84756">
        <ele>1480.5</ele>
        <time>2019-08-17T11:24:56Z</time>
      </trkpt>
      <trkpt lat="42.95664" lon="0.84756">
        <ele>1480.5</ele>
        <time>2019-08-17T11:24:57Z</time>
      </trkpt>
      <trkpt lat="42.95664" lon="0.84756">
        <ele>1480.5</ele>
        <time>2019-08-17T11:24:58Z</time>
      </trkpt>
      <trkpt lat="42.95664" lon="0.84756">
        <ele>1480.5</ele>
        <time>2019-08-17T11:24:59Z</time>
      </trkpt>
      <trkpt lat="42.95664" lon="0.84756">
        <ele>1480.5</ele>
        <time>2019-08-17T11:25:00Z</time>
      </trkpt>
      <trkpt lat="42.95664" lon="0.84756">
        <ele>1480.5</ele>
        <time>2019-08-17T11:25:01Z</time>
      </trkpt>
      <trkpt lat="42.95664" lon="0.84756">
        <ele>1480.5</ele>
        <time>2019-08-17T11:25:02Z</time>
      </trkpt>
      <trkpt lat="42.95664" lon="0.84757">
        <ele>1480.5</ele>
        <time>2019-08-17T11:25:03Z</time>
      </trkpt>
      <trkpt lat="42.95664" lon="0.84757">
        <ele>1480.5</ele>
        <time>2019-08-17T11:25:04Z</time>
      </trkpt>
      <trkpt lat="42.95664" lon="0.84757">
        <ele>1480.5</ele>
        <time>2019-08-17T11:25:05Z</time>
      </trkpt>
      <trkpt lat="42.95664" lon="0.84757">
        <ele>1480.5</ele>
        <time>2019-08-17T11:25:06Z</time>
      </trkpt>
      <trkpt lat="42.95664" lon="0.84757">
        <ele>1480.5</ele>
        <time>2019-08-17T11:25:07Z</time>
      </trkpt>
      <trkpt lat="42.95664" lon="0.84757">
        <ele>1480.5</ele>
        <time>2019-08-17T11:25:08Z</time>
      </trkpt>
      <trkpt lat="42.95664" lon="0.84756">
        <ele>1480.5</ele>
        <time>2019-08-17T11:25:09Z</time>
      </trkpt>
      <trkpt lat="42.95664" lon="0.84756">
        <ele>1480.5</ele>
        <time>2019-08-17T11:25:10Z</time>
      </trkpt>
      <trkpt lat="42.95664" lon="0.84756">
        <ele>1480.4</ele>
        <time>2019-08-17T11:25:11Z</time>
      </trkpt>
      <trkpt lat="42.95663" lon="0.84755">
        <ele>1480.3</ele>
        <time>2019-08-17T11:25:12Z</time>
      </trkpt>
      <trkpt lat="42.95661" lon="0.84753">
        <ele>1480.1</ele>
        <time>2019-08-17T11:25:13Z</time>
      </trkpt>
      <trkpt lat="42.95661" lon="0.84753">
        <ele>1480</ele>
        <time>2019-08-17T11:25:14Z</time>
      </trkpt>
      <trkpt lat="42.95661" lon="0.84753">
        <ele>1480</ele>
        <time>2019-08-17T11:25:15Z</time>
      </trkpt>
      <trkpt lat="42.95661" lon="0.84753">
        <ele>1480</ele>
        <time>2019-08-17T11:25:16Z</time>
      </trkpt>
      <trkpt lat="42.95661" lon="0.84753">
        <ele>1480</ele>
        <time>2019-08-17T11:25:17Z</time>
      </trkpt>
      <trkpt lat="42.95661" lon="0.84753">
        <ele>1480</ele>
        <time>2019-08-17T11:25:18Z</time>
      </trkpt>
      <trkpt lat="42.95661" lon="0.84753">
        <ele>1480</ele>
        <time>2019-08-17T11:25:19Z</time>
      </trkpt>
      <trkpt lat="42.95661" lon="0.84753">
        <ele>1480</ele>
        <time>2019-08-17T11:25:20Z</time>
      </trkpt>
      <trkpt lat="42.95661" lon="0.84753">
        <ele>1480</ele>
        <time>2019-08-17T11:25:21Z</time>
      </trkpt>
      <trkpt lat="42.95661" lon="0.84753">
        <ele>1480</ele>
        <time>2019-08-17T11:25:22Z</time>
      </trkpt>
      <trkpt lat="42.95661" lon="0.84753">
        <ele>1480</ele>
        <time>2019-08-17T11:25:23Z</time>
      </trkpt>
      <trkpt lat="42.95661" lon="0.84753">
        <ele>1480</ele>
        <time>2019-08-17T11:25:24Z</time>
      </trkpt>
      <trkpt lat="42.95661" lon="0.84753">
        <ele>1480</ele>
        <time>2019-08-17T11:25:25Z</time>
      </trkpt>
      <trkpt lat="42.95661" lon="0.84753">
        <ele>1480</ele>
        <time>2019-08-17T11:25:26Z</time>
      </trkpt>
      <trkpt lat="42.95661" lon="0.84753">
        <ele>1480</ele>
        <time>2019-08-17T11:25:27Z</time>
      </trkpt>
      <trkpt lat="42.95661" lon="0.84753">
        <ele>1480</ele>
        <time>2019-08-17T11:25:28Z</time>
      </trkpt>
      <trkpt lat="42.95661" lon="0.84753">
        <ele>1480</ele>
        <time>2019-08-17T11:25:29Z</time>
      </trkpt>
      <trkpt lat="42.95661" lon="0.84753">
        <ele>1480</ele>
        <time>2019-08-17T11:25:30Z</time>
      </trkpt>
      <trkpt lat="42.95661" lon="0.84753">
        <ele>1480</ele>
        <time>2019-08-17T11:25:31Z</time>
      </trkpt>
      <trkpt lat="42.95661" lon="0.84753">
        <ele>1480</ele>
        <time>2019-08-17T11:25:32Z</time>
      </trkpt>
      <trkpt lat="42.95661" lon="0.84753">
        <ele>1480</ele>
        <time>2019-08-17T11:25:33Z</time>
      </trkpt>
      <trkpt lat="42.95661" lon="0.84753">
        <ele>1480</ele>
        <time>2019-08-17T11:25:34Z</time>
      </trkpt>
      <trkpt lat="42.95661" lon="0.84753">
        <ele>1480</ele>
        <time>2019-08-17T11:25:35Z</time>
      </trkpt>
      <trkpt lat="42.95661" lon="0.84753">
        <ele>1480</ele>
        <time>2019-08-17T11:25:36Z</time>
      </trkpt>
      <trkpt lat="42.95661" lon="0.84753">
        <ele>1480</ele>
        <time>2019-08-17T11:25:37Z</time>
      </trkpt>
      <trkpt lat="42.95661" lon="0.84753">
        <ele>1480</ele>
        <time>2019-08-17T11:25:38Z</time>
      </trkpt>
      <trkpt lat="42.95661" lon="0.84753">
        <ele>1480</ele>
        <time>2019-08-17T11:25:39Z</time>
      </trkpt>
      <trkpt lat="42.95661" lon="0.84753">
        <ele>1480</ele>
        <time>2019-08-17T11:25:40Z</time>
      </trkpt>
      <trkpt lat="42.95661" lon="0.84753">
        <ele>1480</ele>
        <time>2019-08-17T11:25:41Z</time>
      </trkpt>
      <trkpt lat="42.95661" lon="0.84753">
        <ele>1480</ele>
        <time>2019-08-17T11:25:42Z</time>
      </trkpt>
      <trkpt lat="42.95661" lon="0.84753">
        <ele>1480</ele>
        <time>2019-08-17T11:25:43Z</time>
      </trkpt>
      <trkpt lat="42.95661" lon="0.84753">
        <ele>1480</ele>
        <time>2019-08-17T11:25:44Z</time>
      </trkpt>
      <trkpt lat="42.95661" lon="0.84753">
        <ele>1480</ele>
        <time>2019-08-17T11:25:45Z</time>
      </trkpt>
      <trkpt lat="42.95661" lon="0.84753">
        <ele>1480</ele>
        <time>2019-08-17T11:25:46Z</time>
      </trkpt>
      <trkpt lat="42.95661" lon="0.84753">
        <ele>1480</ele>
        <time>2019-08-17T11:25:47Z</time>
      </trkpt>
      <trkpt lat="42.95661" lon="0.84753">
        <ele>1480</ele>
        <time>2019-08-17T11:25:48Z</time>
      </trkpt>
      <trkpt lat="42.95661" lon="0.84753">
        <ele>1480</ele>
        <time>2019-08-17T11:25:49Z</time>
      </trkpt>
      <trkpt lat="42.95661" lon="0.84753">
        <ele>1480</ele>
        <time>2019-08-17T11:25:50Z</time>
      </trkpt>
      <trkpt lat="42.95661" lon="0.84753">
        <ele>1480</ele>
        <time>2019-08-17T11:25:51Z</time>
      </trkpt>
      <trkpt lat="42.95661" lon="0.84753">
        <ele>1480</ele>
        <time>2019-08-17T11:25:52Z</time>
      </trkpt>
      <trkpt lat="42.95661" lon="0.84753">
        <ele>1480</ele>
        <time>2019-08-17T11:25:53Z</time>
      </trkpt>
      <trkpt lat="42.95661" lon="0.84753">
        <ele>1480</ele>
        <time>2019-08-17T11:25:54Z</time>
      </trkpt>
      <trkpt lat="42.95661" lon="0.84753">
        <ele>1480</ele>
        <time>2019-08-17T11:25:55Z</time>
      </trkpt>
      <trkpt lat="42.95661" lon="0.84753">
        <ele>1480</ele>
        <time>2019-08-17T11:25:56Z</time>
      </trkpt>
      <trkpt lat="42.95661" lon="0.84753">
        <ele>1480</ele>
        <time>2019-08-17T11:25:57Z</time>
      </trkpt>
      <trkpt lat="42.95661" lon="0.84753">
        <ele>1480</ele>
        <time>2019-08-17T11:25:58Z</time>
      </trkpt>
      <trkpt lat="42.95661" lon="0.84753">
        <ele>1480</ele>
        <time>2019-08-17T11:25:59Z</time>
      </trkpt>
      <trkpt lat="42.95661" lon="0.84753">
        <ele>1480</ele>
        <time>2019-08-17T11:26:00Z</time>
      </trkpt>
      <trkpt lat="42.95661" lon="0.84753">
        <ele>1480</ele>
        <time>2019-08-17T11:26:01Z</time>
      </trkpt>
      <trkpt lat="42.95661" lon="0.84753">
        <ele>1480</ele>
        <time>2019-08-17T11:26:02Z</time>
      </trkpt>
      <trkpt lat="42.95661" lon="0.84753">
        <ele>1480</ele>
        <time>2019-08-17T11:26:03Z</time>
      </trkpt>
      <trkpt lat="42.95661" lon="0.84753">
        <ele>1480</ele>
        <time>2019-08-17T11:26:04Z</time>
      </trkpt>
      <trkpt lat="42.95661" lon="0.84753">
        <ele>1480</ele>
        <time>2019-08-17T11:26:05Z</time>
      </trkpt>
      <trkpt lat="42.95661" lon="0.84753">
        <ele>1480</ele>
        <time>2019-08-17T11:26:06Z</time>
      </trkpt>
      <trkpt lat="42.95661" lon="0.84753">
        <ele>1480</ele>
        <time>2019-08-17T11:26:07Z</time>
      </trkpt>
      <trkpt lat="42.95661" lon="0.84753">
        <ele>1480</ele>
        <time>2019-08-17T11:26:08Z</time>
      </trkpt>
      <trkpt lat="42.95661" lon="0.84753">
        <ele>1480</ele>
        <time>2019-08-17T11:26:09Z</time>
      </trkpt>
      <trkpt lat="42.95661" lon="0.84753">
        <ele>1480</ele>
        <time>2019-08-17T11:26:10Z</time>
      </trkpt>
      <trkpt lat="42.95661" lon="0.84753">
        <ele>1480</ele>
        <time>2019-08-17T11:26:11Z</time>
      </trkpt>
      <trkpt lat="42.95661" lon="0.84753">
        <ele>1480</ele>
        <time>2019-08-17T11:26:12Z</time>
      </trkpt>
      <trkpt lat="42.95661" lon="0.84753">
        <ele>1480</ele>
        <time>2019-08-17T11:26:13Z</time>
      </trkpt>
      <trkpt lat="42.95661" lon="0.84753">
        <ele>1480</ele>
        <time>2019-08-17T11:26:14Z</time>
      </trkpt>
      <trkpt lat="42.95661" lon="0.84753">
        <ele>1480</ele>
        <time>2019-08-17T11:26:15Z</time>
      </trkpt>
      <trkpt lat="42.95661" lon="0.84753">
        <ele>1480</ele>
        <time>2019-08-17T11:26:16Z</time>
      </trkpt>
      <trkpt lat="42.95661" lon="0.84753">
        <ele>1480</ele>
        <time>2019-08-17T11:26:17Z</time>
      </trkpt>
      <trkpt lat="42.95661" lon="0.84753">
        <ele>1480</ele>
        <time>2019-08-17T11:26:18Z</time>
      </trkpt>
      <trkpt lat="42.95661" lon="0.84753">
        <ele>1480</ele>
        <time>2019-08-17T11:26:19Z</time>
      </trkpt>
      <trkpt lat="42.95661" lon="0.84753">
        <ele>1480</ele>
        <time>2019-08-17T11:26:20Z</time>
      </trkpt>
      <trkpt lat="42.95661" lon="0.84753">
        <ele>1480</ele>
        <time>2019-08-17T11:26:21Z</time>
      </trkpt>
      <trkpt lat="42.95661" lon="0.84753">
        <ele>1480</ele>
        <time>2019-08-17T11:26:22Z</time>
      </trkpt>
      <trkpt lat="42.95661" lon="0.84753">
        <ele>1480</ele>
        <time>2019-08-17T11:26:23Z</time>
      </trkpt>
      <trkpt lat="42.95661" lon="0.84753">
        <ele>1480</ele>
        <time>2019-08-17T11:26:24Z</time>
      </trkpt>
      <trkpt lat="42.95661" lon="0.84753">
        <ele>1480</ele>
        <time>2019-08-17T11:26:25Z</time>
      </trkpt>
      <trkpt lat="42.95661" lon="0.84753">
        <ele>1480</ele>
        <time>2019-08-17T11:26:26Z</time>
      </trkpt>
      <trkpt lat="42.95661" lon="0.84753">
        <ele>1480</ele>
        <time>2019-08-17T11:26:27Z</time>
      </trkpt>
      <trkpt lat="42.95661" lon="0.84753">
        <ele>1480</ele>
        <time>2019-08-17T11:26:28Z</time>
      </trkpt>
      <trkpt lat="42.95661" lon="0.84753">
        <ele>1480</ele>
        <time>2019-08-17T11:26:29Z</time>
      </trkpt>
      <trkpt lat="42.95661" lon="0.84753">
        <ele>1480</ele>
        <time>2019-08-17T11:26:30Z</time>
      </trkpt>
      <trkpt lat="42.95661" lon="0.84753">
        <ele>1480</ele>
        <time>2019-08-17T11:26:31Z</time>
      </trkpt>
      <trkpt lat="42.95661" lon="0.84753">
        <ele>1480</ele>
        <time>2019-08-17T11:26:32Z</time>
      </trkpt>
      <trkpt lat="42.95661" lon="0.84753">
        <ele>1480</ele>
        <time>2019-08-17T11:26:33Z</time>
      </trkpt>
      <trkpt lat="42.95661" lon="0.84753">
        <ele>1480</ele>
        <time>2019-08-17T11:26:34Z</time>
      </trkpt>
      <trkpt lat="42.95661" lon="0.84753">
        <ele>1480</ele>
        <time>2019-08-17T11:26:35Z</time>
      </trkpt>
      <trkpt lat="42.95661" lon="0.84753">
        <ele>1480</ele>
        <time>2019-08-17T11:26:36Z</time>
      </trkpt>
      <trkpt lat="42.95661" lon="0.84753">
        <ele>1480</ele>
        <time>2019-08-17T11:26:37Z</time>
      </trkpt>
      <trkpt lat="42.95661" lon="0.84753">
        <ele>1480</ele>
        <time>2019-08-17T11:26:38Z</time>
      </trkpt>
      <trkpt lat="42.95661" lon="0.84753">
        <ele>1480</ele>
        <time>2019-08-17T11:26:39Z</time>
      </trkpt>
      <trkpt lat="42.95661" lon="0.84753">
        <ele>1480</ele>
        <time>2019-08-17T11:26:40Z</time>
      </trkpt>
      <trkpt lat="42.95661" lon="0.84753">
        <ele>1480</ele>
        <time>2019-08-17T11:26:41Z</time>
      </trkpt>
      <trkpt lat="42.95661" lon="0.84753">
        <ele>1480</ele>
        <time>2019-08-17T11:26:42Z</time>
      </trkpt>
      <trkpt lat="42.95661" lon="0.84753">
        <ele>1480</ele>
        <time>2019-08-17T11:26:43Z</time>
      </trkpt>
      <trkpt lat="42.95661" lon="0.84753">
        <ele>1480</ele>
        <time>2019-08-17T11:26:44Z</time>
      </trkpt>
      <trkpt lat="42.95661" lon="0.84753">
        <ele>1480</ele>
        <time>2019-08-17T11:26:45Z</time>
      </trkpt>
      <trkpt lat="42.95661" lon="0.84753">
        <ele>1480</ele>
        <time>2019-08-17T11:26:46Z</time>
      </trkpt>
      <trkpt lat="42.95661" lon="0.84753">
        <ele>1480</ele>
        <time>2019-08-17T11:26:47Z</time>
      </trkpt>
      <trkpt lat="42.95661" lon="0.84753">
        <ele>1480</ele>
        <time>2019-08-17T11:26:48Z</time>
      </trkpt>
      <trkpt lat="42.95661" lon="0.84753">
        <ele>1480</ele>
        <time>2019-08-17T11:26:49Z</time>
      </trkpt>
      <trkpt lat="42.95661" lon="0.84753">
        <ele>1480</ele>
        <time>2019-08-17T11:26:50Z</time>
      </trkpt>
      <trkpt lat="42.95661" lon="0.84753">
        <ele>1480</ele>
        <time>2019-08-17T11:26:51Z</time>
      </trkpt>
      <trkpt lat="42.95661" lon="0.84753">
        <ele>1480</ele>
        <time>2019-08-17T11:26:52Z</time>
      </trkpt>
      <trkpt lat="42.95661" lon="0.84753">
        <ele>1480</ele>
        <time>2019-08-17T11:26:53Z</time>
      </trkpt>
      <trkpt lat="42.95661" lon="0.84753">
        <ele>1480</ele>
        <time>2019-08-17T11:26:54Z</time>
      </trkpt>
      <trkpt lat="42.95661" lon="0.84753">
        <ele>1480</ele>
        <time>2019-08-17T11:26:55Z</time>
      </trkpt>
      <trkpt lat="42.95661" lon="0.84753">
        <ele>1480</ele>
        <time>2019-08-17T11:26:56Z</time>
      </trkpt>
      <trkpt lat="42.95661" lon="0.84753">
        <ele>1480</ele>
        <time>2019-08-17T11:26:57Z</time>
      </trkpt>
      <trkpt lat="42.95661" lon="0.84753">
        <ele>1480</ele>
        <time>2019-08-17T11:26:58Z</time>
      </trkpt>
      <trkpt lat="42.95661" lon="0.84753">
        <ele>1480</ele>
        <time>2019-08-17T11:26:59Z</time>
      </trkpt>
      <trkpt lat="42.95661" lon="0.84753">
        <ele>1480</ele>
        <time>2019-08-17T11:27:00Z</time>
      </trkpt>
      <trkpt lat="42.95661" lon="0.84753">
        <ele>1480</ele>
        <time>2019-08-17T11:27:01Z</time>
      </trkpt>
      <trkpt lat="42.95661" lon="0.84753">
        <ele>1480</ele>
        <time>2019-08-17T11:27:02Z</time>
      </trkpt>
      <trkpt lat="42.95661" lon="0.84753">
        <ele>1480</ele>
        <time>2019-08-17T11:27:03Z</time>
      </trkpt>
      <trkpt lat="42.95661" lon="0.84753">
        <ele>1480</ele>
        <time>2019-08-17T11:27:04Z</time>
      </trkpt>
      <trkpt lat="42.95661" lon="0.84753">
        <ele>1480</ele>
        <time>2019-08-17T11:27:05Z</time>
      </trkpt>
      <trkpt lat="42.95661" lon="0.84753">
        <ele>1480</ele>
        <time>2019-08-17T11:27:06Z</time>
      </trkpt>
      <trkpt lat="42.95661" lon="0.84753">
        <ele>1480</ele>
        <time>2019-08-17T11:27:07Z</time>
      </trkpt>
      <trkpt lat="42.95661" lon="0.84753">
        <ele>1480</ele>
        <time>2019-08-17T11:27:08Z</time>
      </trkpt>
      <trkpt lat="42.95661" lon="0.84753">
        <ele>1480</ele>
        <time>2019-08-17T11:27:09Z</time>
      </trkpt>
      <trkpt lat="42.95661" lon="0.84753">
        <ele>1480</ele>
        <time>2019-08-17T11:27:10Z</time>
      </trkpt>
      <trkpt lat="42.95661" lon="0.84753">
        <ele>1480</ele>
        <time>2019-08-17T11:27:11Z</time>
      </trkpt>
      <trkpt lat="42.95661" lon="0.84753">
        <ele>1480</ele>
        <time>2019-08-17T11:27:12Z</time>
      </trkpt>
      <trkpt lat="42.95661" lon="0.84753">
        <ele>1480</ele>
        <time>2019-08-17T11:27:13Z</time>
      </trkpt>
      <trkpt lat="42.95661" lon="0.84753">
        <ele>1480</ele>
        <time>2019-08-17T11:27:14Z</time>
      </trkpt>
      <trkpt lat="42.95661" lon="0.84753">
        <ele>1480</ele>
        <time>2019-08-17T11:27:15Z</time>
      </trkpt>
      <trkpt lat="42.95661" lon="0.84753">
        <ele>1480</ele>
        <time>2019-08-17T11:27:16Z</time>
      </trkpt>
      <trkpt lat="42.95661" lon="0.84753">
        <ele>1480</ele>
        <time>2019-08-17T11:27:17Z</time>
      </trkpt>
      <trkpt lat="42.95661" lon="0.84753">
        <ele>1480</ele>
        <time>2019-08-17T11:27:18Z</time>
      </trkpt>
      <trkpt lat="42.95661" lon="0.84753">
        <ele>1480</ele>
        <time>2019-08-17T11:27:19Z</time>
      </trkpt>
      <trkpt lat="42.95661" lon="0.84753">
        <ele>1480</ele>
        <time>2019-08-17T11:27:20Z</time>
      </trkpt>
      <trkpt lat="42.95661" lon="0.84753">
        <ele>1480</ele>
        <time>2019-08-17T11:27:21Z</time>
      </trkpt>
      <trkpt lat="42.95661" lon="0.84753">
        <ele>1480</ele>
        <time>2019-08-17T11:27:22Z</time>
      </trkpt>
      <trkpt lat="42.95661" lon="0.84753">
        <ele>1480</ele>
        <time>2019-08-17T11:27:23Z</time>
      </trkpt>
      <trkpt lat="42.95661" lon="0.84753">
        <ele>1480</ele>
        <time>2019-08-17T11:27:24Z</time>
      </trkpt>
      <trkpt lat="42.95661" lon="0.84753">
        <ele>1480</ele>
        <time>2019-08-17T11:27:25Z</time>
      </trkpt>
      <trkpt lat="42.95661" lon="0.84753">
        <ele>1480</ele>
        <time>2019-08-17T11:27:26Z</time>
      </trkpt>
      <trkpt lat="42.95661" lon="0.84753">
        <ele>1480</ele>
        <time>2019-08-17T11:27:27Z</time>
      </trkpt>
      <trkpt lat="42.95661" lon="0.84753">
        <ele>1480</ele>
        <time>2019-08-17T11:27:28Z</time>
      </trkpt>
      <trkpt lat="42.95661" lon="0.84753">
        <ele>1480</ele>
        <time>2019-08-17T11:27:29Z</time>
      </trkpt>
      <trkpt lat="42.95661" lon="0.84753">
        <ele>1480</ele>
        <time>2019-08-17T11:27:30Z</time>
      </trkpt>
      <trkpt lat="42.95661" lon="0.84753">
        <ele>1480</ele>
        <time>2019-08-17T11:27:31Z</time>
      </trkpt>
      <trkpt lat="42.95661" lon="0.84753">
        <ele>1480</ele>
        <time>2019-08-17T11:27:32Z</time>
      </trkpt>
      <trkpt lat="42.95661" lon="0.84753">
        <ele>1480</ele>
        <time>2019-08-17T11:27:33Z</time>
      </trkpt>
      <trkpt lat="42.95661" lon="0.84753">
        <ele>1480</ele>
        <time>2019-08-17T11:27:34Z</time>
      </trkpt>
      <trkpt lat="42.95661" lon="0.84753">
        <ele>1480</ele>
        <time>2019-08-17T11:27:35Z</time>
      </trkpt>
      <trkpt lat="42.95661" lon="0.84753">
        <ele>1480</ele>
        <time>2019-08-17T11:27:36Z</time>
      </trkpt>
      <trkpt lat="42.95661" lon="0.84753">
        <ele>1480</ele>
        <time>2019-08-17T11:27:37Z</time>
      </trkpt>
      <trkpt lat="42.95661" lon="0.84753">
        <ele>1480</ele>
        <time>2019-08-17T11:27:38Z</time>
      </trkpt>
      <trkpt lat="42.95661" lon="0.84753">
        <ele>1480</ele>
        <time>2019-08-17T11:27:39Z</time>
      </trkpt>
      <trkpt lat="42.95661" lon="0.84753">
        <ele>1480</ele>
        <time>2019-08-17T11:27:40Z</time>
      </trkpt>
      <trkpt lat="42.95661" lon="0.84753">
        <ele>1480</ele>
        <time>2019-08-17T11:27:41Z</time>
      </trkpt>
      <trkpt lat="42.95661" lon="0.84753">
        <ele>1480</ele>
        <time>2019-08-17T11:27:42Z</time>
      </trkpt>
      <trkpt lat="42.95661" lon="0.84753">
        <ele>1480</ele>
        <time>2019-08-17T11:27:43Z</time>
      </trkpt>
      <trkpt lat="42.95661" lon="0.84753">
        <ele>1480</ele>
        <time>2019-08-17T11:27:44Z</time>
      </trkpt>
      <trkpt lat="42.95661" lon="0.84753">
        <ele>1480</ele>
        <time>2019-08-17T11:27:45Z</time>
      </trkpt>
      <trkpt lat="42.95661" lon="0.84753">
        <ele>1480</ele>
        <time>2019-08-17T11:27:46Z</time>
      </trkpt>
      <trkpt lat="42.95661" lon="0.84753">
        <ele>1480</ele>
        <time>2019-08-17T11:27:47Z</time>
      </trkpt>
      <trkpt lat="42.95661" lon="0.84753">
        <ele>1480</ele>
        <time>2019-08-17T11:27:48Z</time>
      </trkpt>
      <trkpt lat="42.95661" lon="0.84753">
        <ele>1480</ele>
        <time>2019-08-17T11:27:49Z</time>
      </trkpt>
      <trkpt lat="42.95661" lon="0.84753">
        <ele>1480</ele>
        <time>2019-08-17T11:27:50Z</time>
      </trkpt>
      <trkpt lat="42.95661" lon="0.84753">
        <ele>1480</ele>
        <time>2019-08-17T11:27:51Z</time>
      </trkpt>
      <trkpt lat="42.95661" lon="0.84753">
        <ele>1480</ele>
        <time>2019-08-17T11:27:52Z</time>
      </trkpt>
      <trkpt lat="42.95661" lon="0.84753">
        <ele>1480</ele>
        <time>2019-08-17T11:27:53Z</time>
      </trkpt>
      <trkpt lat="42.95661" lon="0.84753">
        <ele>1480</ele>
        <time>2019-08-17T11:27:54Z</time>
      </trkpt>
      <trkpt lat="42.95661" lon="0.84753">
        <ele>1480</ele>
        <time>2019-08-17T11:27:55Z</time>
      </trkpt>
      <trkpt lat="42.95661" lon="0.84753">
        <ele>1480</ele>
        <time>2019-08-17T11:27:56Z</time>
      </trkpt>
      <trkpt lat="42.95661" lon="0.84753">
        <ele>1480</ele>
        <time>2019-08-17T11:27:57Z</time>
      </trkpt>
      <trkpt lat="42.95661" lon="0.84753">
        <ele>1480</ele>
        <time>2019-08-17T11:27:58Z</time>
      </trkpt>
      <trkpt lat="42.95661" lon="0.84753">
        <ele>1480</ele>
        <time>2019-08-17T11:27:59Z</time>
      </trkpt>
      <trkpt lat="42.95661" lon="0.84753">
        <ele>1480</ele>
        <time>2019-08-17T11:28:00Z</time>
      </trkpt>
      <trkpt lat="42.95661" lon="0.84753">
        <ele>1480</ele>
        <time>2019-08-17T11:28:01Z</time>
      </trkpt>
      <trkpt lat="42.95661" lon="0.84753">
        <ele>1480</ele>
        <time>2019-08-17T11:28:02Z</time>
      </trkpt>
      <trkpt lat="42.95661" lon="0.84753">
        <ele>1480</ele>
        <time>2019-08-17T11:28:03Z</time>
      </trkpt>
      <trkpt lat="42.95661" lon="0.84753">
        <ele>1480</ele>
        <time>2019-08-17T11:28:04Z</time>
      </trkpt>
      <trkpt lat="42.95661" lon="0.84753">
        <ele>1480</ele>
        <time>2019-08-17T11:28:05Z</time>
      </trkpt>
      <trkpt lat="42.95661" lon="0.84753">
        <ele>1480</ele>
        <time>2019-08-17T11:28:06Z</time>
      </trkpt>
      <trkpt lat="42.95661" lon="0.84753">
        <ele>1480</ele>
        <time>2019-08-17T11:28:07Z</time>
      </trkpt>
      <trkpt lat="42.95661" lon="0.84753">
        <ele>1480</ele>
        <time>2019-08-17T11:28:08Z</time>
      </trkpt>
      <trkpt lat="42.95661" lon="0.84753">
        <ele>1480</ele>
        <time>2019-08-17T11:28:09Z</time>
      </trkpt>
      <trkpt lat="42.95661" lon="0.84753">
        <ele>1480</ele>
        <time>2019-08-17T11:28:10Z</time>
      </trkpt>
      <trkpt lat="42.95661" lon="0.84753">
        <ele>1480</ele>
        <time>2019-08-17T11:28:11Z</time>
      </trkpt>
      <trkpt lat="42.95661" lon="0.84753">
        <ele>1480</ele>
        <time>2019-08-17T11:28:12Z</time>
      </trkpt>
      <trkpt lat="42.95661" lon="0.84753">
        <ele>1480</ele>
        <time>2019-08-17T11:28:13Z</time>
      </trkpt>
      <trkpt lat="42.95661" lon="0.84753">
        <ele>1480</ele>
        <time>2019-08-17T11:28:14Z</time>
      </trkpt>
      <trkpt lat="42.95661" lon="0.84753">
        <ele>1480</ele>
        <time>2019-08-17T11:28:15Z</time>
      </trkpt>
      <trkpt lat="42.95661" lon="0.84753">
        <ele>1480</ele>
        <time>2019-08-17T11:28:16Z</time>
      </trkpt>
      <trkpt lat="42.95661" lon="0.84753">
        <ele>1480</ele>
        <time>2019-08-17T11:28:17Z</time>
      </trkpt>
      <trkpt lat="42.95661" lon="0.84753">
        <ele>1480</ele>
        <time>2019-08-17T11:28:18Z</time>
      </trkpt>
      <trkpt lat="42.95661" lon="0.84753">
        <ele>1480</ele>
        <time>2019-08-17T11:28:19Z</time>
      </trkpt>
      <trkpt lat="42.95661" lon="0.84753">
        <ele>1480</ele>
        <time>2019-08-17T11:28:20Z</time>
      </trkpt>
      <trkpt lat="42.95661" lon="0.84753">
        <ele>1480</ele>
        <time>2019-08-17T11:28:21Z</time>
      </trkpt>
      <trkpt lat="42.95661" lon="0.84753">
        <ele>1480</ele>
        <time>2019-08-17T11:28:22Z</time>
      </trkpt>
      <trkpt lat="42.95661" lon="0.84753">
        <ele>1480</ele>
        <time>2019-08-17T11:28:23Z</time>
      </trkpt>
      <trkpt lat="42.95661" lon="0.84753">
        <ele>1480</ele>
        <time>2019-08-17T11:28:24Z</time>
      </trkpt>
      <trkpt lat="42.95661" lon="0.84753">
        <ele>1480</ele>
        <time>2019-08-17T11:28:25Z</time>
      </trkpt>
      <trkpt lat="42.95661" lon="0.84753">
        <ele>1480</ele>
        <time>2019-08-17T11:28:26Z</time>
      </trkpt>
      <trkpt lat="42.95661" lon="0.84753">
        <ele>1480</ele>
        <time>2019-08-17T11:28:27Z</time>
      </trkpt>
      <trkpt lat="42.95661" lon="0.84753">
        <ele>1480</ele>
        <time>2019-08-17T11:28:28Z</time>
      </trkpt>
      <trkpt lat="42.95661" lon="0.84753">
        <ele>1480</ele>
        <time>2019-08-17T11:28:29Z</time>
      </trkpt>
      <trkpt lat="42.95661" lon="0.84753">
        <ele>1480</ele>
        <time>2019-08-17T11:28:30Z</time>
      </trkpt>
      <trkpt lat="42.95661" lon="0.84753">
        <ele>1480</ele>
        <time>2019-08-17T11:28:31Z</time>
      </trkpt>
      <trkpt lat="42.95661" lon="0.84753">
        <ele>1480</ele>
        <time>2019-08-17T11:28:32Z</time>
      </trkpt>
      <trkpt lat="42.95661" lon="0.84753">
        <ele>1480</ele>
        <time>2019-08-17T11:28:33Z</time>
      </trkpt>
      <trkpt lat="42.95661" lon="0.84753">
        <ele>1480</ele>
        <time>2019-08-17T11:28:34Z</time>
      </trkpt>
      <trkpt lat="42.95661" lon="0.84753">
        <ele>1480</ele>
        <time>2019-08-17T11:28:35Z</time>
      </trkpt>
      <trkpt lat="42.95661" lon="0.84753">
        <ele>1480</ele>
        <time>2019-08-17T11:28:36Z</time>
      </trkpt>
      <trkpt lat="42.95661" lon="0.84753">
        <ele>1480</ele>
        <time>2019-08-17T11:28:37Z</time>
      </trkpt>
      <trkpt lat="42.95661" lon="0.84753">
        <ele>1480</ele>
        <time>2019-08-17T11:28:38Z</time>
      </trkpt>
      <trkpt lat="42.95661" lon="0.84753">
        <ele>1480</ele>
        <time>2019-08-17T11:28:39Z</time>
      </trkpt>
      <trkpt lat="42.95661" lon="0.84753">
        <ele>1480</ele>
        <time>2019-08-17T11:28:40Z</time>
      </trkpt>
      <trkpt lat="42.95661" lon="0.84753">
        <ele>1480</ele>
        <time>2019-08-17T11:28:41Z</time>
      </trkpt>
      <trkpt lat="42.95661" lon="0.84753">
        <ele>1480</ele>
        <time>2019-08-17T11:28:42Z</time>
      </trkpt>
      <trkpt lat="42.95661" lon="0.84753">
        <ele>1480</ele>
        <time>2019-08-17T11:28:43Z</time>
      </trkpt>
      <trkpt lat="42.95661" lon="0.84753">
        <ele>1480</ele>
        <time>2019-08-17T11:28:44Z</time>
      </trkpt>
      <trkpt lat="42.95661" lon="0.84753">
        <ele>1480</ele>
        <time>2019-08-17T11:28:45Z</time>
      </trkpt>
      <trkpt lat="42.95661" lon="0.84753">
        <ele>1480</ele>
        <time>2019-08-17T11:28:46Z</time>
      </trkpt>
      <trkpt lat="42.95661" lon="0.84753">
        <ele>1480</ele>
        <time>2019-08-17T11:28:47Z</time>
      </trkpt>
      <trkpt lat="42.95661" lon="0.84753">
        <ele>1480</ele>
        <time>2019-08-17T11:28:48Z</time>
      </trkpt>
      <trkpt lat="42.95661" lon="0.84753">
        <ele>1480</ele>
        <time>2019-08-17T11:28:49Z</time>
      </trkpt>
      <trkpt lat="42.95661" lon="0.84753">
        <ele>1480</ele>
        <time>2019-08-17T11:28:50Z</time>
      </trkpt>
      <trkpt lat="42.95661" lon="0.84753">
        <ele>1480</ele>
        <time>2019-08-17T11:28:51Z</time>
      </trkpt>
      <trkpt lat="42.95661" lon="0.84753">
        <ele>1480</ele>
        <time>2019-08-17T11:28:52Z</time>
      </trkpt>
      <trkpt lat="42.95661" lon="0.84753">
        <ele>1480</ele>
        <time>2019-08-17T11:28:53Z</time>
      </trkpt>
      <trkpt lat="42.95661" lon="0.84753">
        <ele>1480</ele>
        <time>2019-08-17T11:28:54Z</time>
      </trkpt>
      <trkpt lat="42.95661" lon="0.84753">
        <ele>1480</ele>
        <time>2019-08-17T11:28:55Z</time>
      </trkpt>
      <trkpt lat="42.95661" lon="0.84753">
        <ele>1480</ele>
        <time>2019-08-17T11:28:56Z</time>
      </trkpt>
      <trkpt lat="42.95661" lon="0.84753">
        <ele>1480</ele>
        <time>2019-08-17T11:28:57Z</time>
      </trkpt>
      <trkpt lat="42.95661" lon="0.84753">
        <ele>1480</ele>
        <time>2019-08-17T11:28:58Z</time>
      </trkpt>
      <trkpt lat="42.95661" lon="0.84753">
        <ele>1480</ele>
        <time>2019-08-17T11:28:59Z</time>
      </trkpt>
      <trkpt lat="42.95661" lon="0.84753">
        <ele>1480</ele>
        <time>2019-08-17T11:29:00Z</time>
      </trkpt>
      <trkpt lat="42.95661" lon="0.84753">
        <ele>1480</ele>
        <time>2019-08-17T11:29:01Z</time>
      </trkpt>
      <trkpt lat="42.95661" lon="0.84753">
        <ele>1480</ele>
        <time>2019-08-17T11:29:02Z</time>
      </trkpt>
      <trkpt lat="42.95661" lon="0.84753">
        <ele>1480</ele>
        <time>2019-08-17T11:29:03Z</time>
      </trkpt>
      <trkpt lat="42.95661" lon="0.84753">
        <ele>1480</ele>
        <time>2019-08-17T11:29:04Z</time>
      </trkpt>
      <trkpt lat="42.95661" lon="0.84753">
        <ele>1480</ele>
        <time>2019-08-17T11:29:05Z</time>
      </trkpt>
      <trkpt lat="42.95661" lon="0.84753">
        <ele>1480</ele>
        <time>2019-08-17T11:29:06Z</time>
      </trkpt>
      <trkpt lat="42.95661" lon="0.84753">
        <ele>1480</ele>
        <time>2019-08-17T11:29:07Z</time>
      </trkpt>
      <trkpt lat="42.95661" lon="0.84753">
        <ele>1480</ele>
        <time>2019-08-17T11:29:08Z</time>
      </trkpt>
      <trkpt lat="42.95661" lon="0.84753">
        <ele>1480</ele>
        <time>2019-08-17T11:29:09Z</time>
      </trkpt>
      <trkpt lat="42.95661" lon="0.84753">
        <ele>1480</ele>
        <time>2019-08-17T11:29:10Z</time>
      </trkpt>
      <trkpt lat="42.95661" lon="0.84753">
        <ele>1480</ele>
        <time>2019-08-17T11:29:11Z</time>
      </trkpt>
      <trkpt lat="42.95661" lon="0.84753">
        <ele>1480</ele>
        <time>2019-08-17T11:29:12Z</time>
      </trkpt>
      <trkpt lat="42.95661" lon="0.84753">
        <ele>1480</ele>
        <time>2019-08-17T11:29:13Z</time>
      </trkpt>
      <trkpt lat="42.95661" lon="0.84753">
        <ele>1480</ele>
        <time>2019-08-17T11:29:14Z</time>
      </trkpt>
      <trkpt lat="42.95661" lon="0.84753">
        <ele>1480</ele>
        <time>2019-08-17T11:29:15Z</time>
      </trkpt>
      <trkpt lat="42.95661" lon="0.84753">
        <ele>1480</ele>
        <time>2019-08-17T11:29:16Z</time>
      </trkpt>
      <trkpt lat="42.95661" lon="0.84753">
        <ele>1480</ele>
        <time>2019-08-17T11:29:17Z</time>
      </trkpt>
      <trkpt lat="42.95661" lon="0.84753">
        <ele>1480</ele>
        <time>2019-08-17T11:29:18Z</time>
      </trkpt>
      <trkpt lat="42.95661" lon="0.84753">
        <ele>1480</ele>
        <time>2019-08-17T11:29:19Z</time>
      </trkpt>
      <trkpt lat="42.95661" lon="0.84753">
        <ele>1480</ele>
        <time>2019-08-17T11:29:20Z</time>
      </trkpt>
      <trkpt lat="42.95661" lon="0.84753">
        <ele>1480</ele>
        <time>2019-08-17T11:29:21Z</time>
      </trkpt>
      <trkpt lat="42.95661" lon="0.84753">
        <ele>1480</ele>
        <time>2019-08-17T11:29:22Z</time>
      </trkpt>
      <trkpt lat="42.95661" lon="0.84753">
        <ele>1480</ele>
        <time>2019-08-17T11:29:23Z</time>
      </trkpt>
      <trkpt lat="42.95661" lon="0.84753">
        <ele>1480</ele>
        <time>2019-08-17T11:29:24Z</time>
      </trkpt>
      <trkpt lat="42.95661" lon="0.84753">
        <ele>1480</ele>
        <time>2019-08-17T11:29:25Z</time>
      </trkpt>
      <trkpt lat="42.95661" lon="0.84753">
        <ele>1480</ele>
        <time>2019-08-17T11:29:26Z</time>
      </trkpt>
      <trkpt lat="42.95661" lon="0.84753">
        <ele>1480</ele>
        <time>2019-08-17T11:29:27Z</time>
      </trkpt>
      <trkpt lat="42.95661" lon="0.84753">
        <ele>1480</ele>
        <time>2019-08-17T11:29:28Z</time>
      </trkpt>
      <trkpt lat="42.95661" lon="0.84753">
        <ele>1480</ele>
        <time>2019-08-17T11:29:29Z</time>
      </trkpt>
      <trkpt lat="42.95661" lon="0.84753">
        <ele>1480</ele>
        <time>2019-08-17T11:29:30Z</time>
      </trkpt>
      <trkpt lat="42.95661" lon="0.84753">
        <ele>1480</ele>
        <time>2019-08-17T11:29:31Z</time>
      </trkpt>
      <trkpt lat="42.95661" lon="0.84753">
        <ele>1480</ele>
        <time>2019-08-17T11:29:32Z</time>
      </trkpt>
      <trkpt lat="42.95661" lon="0.84753">
        <ele>1480</ele>
        <time>2019-08-17T11:29:33Z</time>
      </trkpt>
      <trkpt lat="42.95661" lon="0.84753">
        <ele>1480</ele>
        <time>2019-08-17T11:29:34Z</time>
      </trkpt>
      <trkpt lat="42.95661" lon="0.84753">
        <ele>1480</ele>
        <time>2019-08-17T11:29:35Z</time>
      </trkpt>
      <trkpt lat="42.95661" lon="0.84753">
        <ele>1480</ele>
        <time>2019-08-17T11:29:36Z</time>
      </trkpt>
      <trkpt lat="42.95661" lon="0.84753">
        <ele>1480</ele>
        <time>2019-08-17T11:29:37Z</time>
      </trkpt>
      <trkpt lat="42.95661" lon="0.84753">
        <ele>1480</ele>
        <time>2019-08-17T11:29:38Z</time>
      </trkpt>
      <trkpt lat="42.95661" lon="0.84753">
        <ele>1480</ele>
        <time>2019-08-17T11:29:39Z</time>
      </trkpt>
      <trkpt lat="42.95661" lon="0.84753">
        <ele>1480</ele>
        <time>2019-08-17T11:29:40Z</time>
      </trkpt>
      <trkpt lat="42.95661" lon="0.84753">
        <ele>1480</ele>
        <time>2019-08-17T11:29:41Z</time>
      </trkpt>
      <trkpt lat="42.95661" lon="0.84753">
        <ele>1480</ele>
        <time>2019-08-17T11:29:42Z</time>
      </trkpt>
      <trkpt lat="42.95661" lon="0.84753">
        <ele>1480</ele>
        <time>2019-08-17T11:29:43Z</time>
      </trkpt>
      <trkpt lat="42.95661" lon="0.84753">
        <ele>1480</ele>
        <time>2019-08-17T11:29:44Z</time>
      </trkpt>
      <trkpt lat="42.95661" lon="0.84753">
        <ele>1480</ele>
        <time>2019-08-17T11:29:45Z</time>
      </trkpt>
      <trkpt lat="42.95661" lon="0.84753">
        <ele>1480</ele>
        <time>2019-08-17T11:29:46Z</time>
      </trkpt>
      <trkpt lat="42.95661" lon="0.84753">
        <ele>1480</ele>
        <time>2019-08-17T11:29:47Z</time>
      </trkpt>
      <trkpt lat="42.95661" lon="0.84753">
        <ele>1480</ele>
        <time>2019-08-17T11:29:48Z</time>
      </trkpt>
      <trkpt lat="42.95661" lon="0.84753">
        <ele>1480</ele>
        <time>2019-08-17T11:29:49Z</time>
      </trkpt>
      <trkpt lat="42.95661" lon="0.84753">
        <ele>1480</ele>
        <time>2019-08-17T11:29:50Z</time>
      </trkpt>
      <trkpt lat="42.95661" lon="0.84753">
        <ele>1480</ele>
        <time>2019-08-17T11:29:51Z</time>
      </trkpt>
      <trkpt lat="42.95661" lon="0.84753">
        <ele>1480</ele>
        <time>2019-08-17T11:29:52Z</time>
      </trkpt>
      <trkpt lat="42.95661" lon="0.84753">
        <ele>1480</ele>
        <time>2019-08-17T11:29:53Z</time>
      </trkpt>
      <trkpt lat="42.95661" lon="0.84753">
        <ele>1480</ele>
        <time>2019-08-17T11:29:54Z</time>
      </trkpt>
      <trkpt lat="42.95661" lon="0.84753">
        <ele>1480</ele>
        <time>2019-08-17T11:29:55Z</time>
      </trkpt>
      <trkpt lat="42.95661" lon="0.84753">
        <ele>1480</ele>
        <time>2019-08-17T11:29:56Z</time>
      </trkpt>
      <trkpt lat="42.95661" lon="0.84753">
        <ele>1480</ele>
        <time>2019-08-17T11:29:57Z</time>
      </trkpt>
      <trkpt lat="42.95661" lon="0.84753">
        <ele>1480</ele>
        <time>2019-08-17T11:29:58Z</time>
      </trkpt>
      <trkpt lat="42.95661" lon="0.84753">
        <ele>1480</ele>
        <time>2019-08-17T11:29:59Z</time>
      </trkpt>
      <trkpt lat="42.95661" lon="0.84753">
        <ele>1480</ele>
        <time>2019-08-17T11:30:00Z</time>
      </trkpt>
      <trkpt lat="42.95661" lon="0.84753">
        <ele>1480</ele>
        <time>2019-08-17T11:30:01Z</time>
      </trkpt>
      <trkpt lat="42.95661" lon="0.84753">
        <ele>1480</ele>
        <time>2019-08-17T11:30:02Z</time>
      </trkpt>
      <trkpt lat="42.95661" lon="0.84753">
        <ele>1480</ele>
        <time>2019-08-17T11:30:03Z</time>
      </trkpt>
      <trkpt lat="42.95661" lon="0.84753">
        <ele>1480</ele>
        <time>2019-08-17T11:30:04Z</time>
      </trkpt>
      <trkpt lat="42.95661" lon="0.84753">
        <ele>1480</ele>
        <time>2019-08-17T11:30:05Z</time>
      </trkpt>
      <trkpt lat="42.95661" lon="0.84753">
        <ele>1480</ele>
        <time>2019-08-17T11:30:06Z</time>
      </trkpt>
      <trkpt lat="42.95661" lon="0.84753">
        <ele>1480</ele>
        <time>2019-08-17T11:30:07Z</time>
      </trkpt>
      <trkpt lat="42.95661" lon="0.84753">
        <ele>1480</ele>
        <time>2019-08-17T11:30:08Z</time>
      </trkpt>
      <trkpt lat="42.95661" lon="0.84753">
        <ele>1480</ele>
        <time>2019-08-17T11:30:09Z</time>
      </trkpt>
      <trkpt lat="42.95661" lon="0.84753">
        <ele>1480</ele>
        <time>2019-08-17T11:30:10Z</time>
      </trkpt>
      <trkpt lat="42.95661" lon="0.84753">
        <ele>1480</ele>
        <time>2019-08-17T11:30:11Z</time>
      </trkpt>
      <trkpt lat="42.95661" lon="0.84753">
        <ele>1480</ele>
        <time>2019-08-17T11:30:12Z</time>
      </trkpt>
      <trkpt lat="42.95661" lon="0.84753">
        <ele>1480</ele>
        <time>2019-08-17T11:30:13Z</time>
      </trkpt>
      <trkpt lat="42.95661" lon="0.84753">
        <ele>1480</ele>
        <time>2019-08-17T11:30:14Z</time>
      </trkpt>
      <trkpt lat="42.95661" lon="0.84753">
        <ele>1480</ele>
        <time>2019-08-17T11:30:15Z</time>
      </trkpt>
      <trkpt lat="42.95661" lon="0.84753">
        <ele>1480</ele>
        <time>2019-08-17T11:30:16Z</time>
      </trkpt>
      <trkpt lat="42.95661" lon="0.84753">
        <ele>1480</ele>
        <time>2019-08-17T11:30:17Z</time>
      </trkpt>
      <trkpt lat="42.95661" lon="0.84753">
        <ele>1480</ele>
        <time>2019-08-17T11:30:18Z</time>
      </trkpt>
      <trkpt lat="42.95661" lon="0.84753">
        <ele>1480</ele>
        <time>2019-08-17T11:30:19Z</time>
      </trkpt>
      <trkpt lat="42.95661" lon="0.84753">
        <ele>1480</ele>
        <time>2019-08-17T11:30:20Z</time>
      </trkpt>
      <trkpt lat="42.95661" lon="0.84753">
        <ele>1480</ele>
        <time>2019-08-17T11:30:21Z</time>
      </trkpt>
      <trkpt lat="42.95661" lon="0.84753">
        <ele>1480</ele>
        <time>2019-08-17T11:30:22Z</time>
      </trkpt>
      <trkpt lat="42.95661" lon="0.84753">
        <ele>1480</ele>
        <time>2019-08-17T11:30:23Z</time>
      </trkpt>
      <trkpt lat="42.95661" lon="0.84753">
        <ele>1480</ele>
        <time>2019-08-17T11:30:24Z</time>
      </trkpt>
      <trkpt lat="42.95661" lon="0.84753">
        <ele>1480</ele>
        <time>2019-08-17T11:30:25Z</time>
      </trkpt>
      <trkpt lat="42.95661" lon="0.84753">
        <ele>1480</ele>
        <time>2019-08-17T11:30:26Z</time>
      </trkpt>
      <trkpt lat="42.95661" lon="0.84753">
        <ele>1480</ele>
        <time>2019-08-17T11:30:27Z</time>
      </trkpt>
      <trkpt lat="42.95661" lon="0.84753">
        <ele>1480</ele>
        <time>2019-08-17T11:30:28Z</time>
      </trkpt>
      <trkpt lat="42.95661" lon="0.84753">
        <ele>1480</ele>
        <time>2019-08-17T11:30:29Z</time>
      </trkpt>
      <trkpt lat="42.95661" lon="0.84753">
        <ele>1480</ele>
        <time>2019-08-17T11:30:30Z</time>
      </trkpt>
      <trkpt lat="42.95661" lon="0.84753">
        <ele>1480</ele>
        <time>2019-08-17T11:30:31Z</time>
      </trkpt>
      <trkpt lat="42.95661" lon="0.84753">
        <ele>1480</ele>
        <time>2019-08-17T11:30:32Z</time>
      </trkpt>
      <trkpt lat="42.95661" lon="0.84753">
        <ele>1480</ele>
        <time>2019-08-17T11:30:33Z</time>
      </trkpt>
      <trkpt lat="42.95661" lon="0.84753">
        <ele>1480</ele>
        <time>2019-08-17T11:30:34Z</time>
      </trkpt>
      <trkpt lat="42.95661" lon="0.84753">
        <ele>1480</ele>
        <time>2019-08-17T11:30:35Z</time>
      </trkpt>
      <trkpt lat="42.95661" lon="0.84753">
        <ele>1480</ele>
        <time>2019-08-17T11:30:36Z</time>
      </trkpt>
      <trkpt lat="42.95661" lon="0.84753">
        <ele>1480</ele>
        <time>2019-08-17T11:30:37Z</time>
      </trkpt>
      <trkpt lat="42.95661" lon="0.84753">
        <ele>1480</ele>
        <time>2019-08-17T11:30:38Z</time>
      </trkpt>
      <trkpt lat="42.95661" lon="0.84753">
        <ele>1480</ele>
        <time>2019-08-17T11:30:39Z</time>
      </trkpt>
      <trkpt lat="42.95661" lon="0.84753">
        <ele>1480</ele>
        <time>2019-08-17T11:30:40Z</time>
      </trkpt>
      <trkpt lat="42.95661" lon="0.84753">
        <ele>1480</ele>
        <time>2019-08-17T11:30:41Z</time>
      </trkpt>
      <trkpt lat="42.95661" lon="0.84753">
        <ele>1480</ele>
        <time>2019-08-17T11:30:42Z</time>
      </trkpt>
      <trkpt lat="42.95661" lon="0.84753">
        <ele>1480</ele>
        <time>2019-08-17T11:30:43Z</time>
      </trkpt>
      <trkpt lat="42.95661" lon="0.84753">
        <ele>1480</ele>
        <time>2019-08-17T11:30:44Z</time>
      </trkpt>
      <trkpt lat="42.95661" lon="0.84753">
        <ele>1480</ele>
        <time>2019-08-17T11:30:45Z</time>
      </trkpt>
      <trkpt lat="42.95661" lon="0.84753">
        <ele>1480</ele>
        <time>2019-08-17T11:30:46Z</time>
      </trkpt>
      <trkpt lat="42.95661" lon="0.84753">
        <ele>1480</ele>
        <time>2019-08-17T11:30:47Z</time>
      </trkpt>
      <trkpt lat="42.95661" lon="0.84753">
        <ele>1480</ele>
        <time>2019-08-17T11:30:48Z</time>
      </trkpt>
      <trkpt lat="42.95661" lon="0.84753">
        <ele>1480</ele>
        <time>2019-08-17T11:30:49Z</time>
      </trkpt>
      <trkpt lat="42.95661" lon="0.84753">
        <ele>1480</ele>
        <time>2019-08-17T11:30:50Z</time>
      </trkpt>
      <trkpt lat="42.95661" lon="0.84753">
        <ele>1480</ele>
        <time>2019-08-17T11:30:51Z</time>
      </trkpt>
      <trkpt lat="42.95661" lon="0.84753">
        <ele>1480</ele>
        <time>2019-08-17T11:30:52Z</time>
      </trkpt>
      <trkpt lat="42.95661" lon="0.84753">
        <ele>1480</ele>
        <time>2019-08-17T11:30:53Z</time>
      </trkpt>
      <trkpt lat="42.95661" lon="0.84753">
        <ele>1480</ele>
        <time>2019-08-17T11:30:54Z</time>
      </trkpt>
      <trkpt lat="42.95661" lon="0.84753">
        <ele>1480</ele>
        <time>2019-08-17T11:30:55Z</time>
      </trkpt>
      <trkpt lat="42.95661" lon="0.84753">
        <ele>1480</ele>
        <time>2019-08-17T11:30:56Z</time>
      </trkpt>
      <trkpt lat="42.95661" lon="0.84753">
        <ele>1480</ele>
        <time>2019-08-17T11:30:57Z</time>
      </trkpt>
      <trkpt lat="42.95661" lon="0.84753">
        <ele>1480</ele>
        <time>2019-08-17T11:30:58Z</time>
      </trkpt>
      <trkpt lat="42.95661" lon="0.84753">
        <ele>1480</ele>
        <time>2019-08-17T11:30:59Z</time>
      </trkpt>
      <trkpt lat="42.95661" lon="0.84753">
        <ele>1480</ele>
        <time>2019-08-17T11:31:00Z</time>
      </trkpt>
      <trkpt lat="42.95661" lon="0.84753">
        <ele>1480</ele>
        <time>2019-08-17T11:31:01Z</time>
      </trkpt>
      <trkpt lat="42.95661" lon="0.84753">
        <ele>1480</ele>
        <time>2019-08-17T11:31:02Z</time>
      </trkpt>
      <trkpt lat="42.95661" lon="0.84753">
        <ele>1480</ele>
        <time>2019-08-17T11:31:03Z</time>
      </trkpt>
      <trkpt lat="42.95661" lon="0.84753">
        <ele>1480</ele>
        <time>2019-08-17T11:31:04Z</time>
      </trkpt>
      <trkpt lat="42.95661" lon="0.84753">
        <ele>1480</ele>
        <time>2019-08-17T11:31:05Z</time>
      </trkpt>
      <trkpt lat="42.95661" lon="0.84753">
        <ele>1480</ele>
        <time>2019-08-17T11:31:06Z</time>
      </trkpt>
      <trkpt lat="42.95661" lon="0.84753">
        <ele>1480</ele>
        <time>2019-08-17T11:31:07Z</time>
      </trkpt>
      <trkpt lat="42.95661" lon="0.84753">
        <ele>1480</ele>
        <time>2019-08-17T11:31:08Z</time>
      </trkpt>
      <trkpt lat="42.95661" lon="0.84753">
        <ele>1480</ele>
        <time>2019-08-17T11:31:09Z</time>
      </trkpt>
      <trkpt lat="42.95661" lon="0.84753">
        <ele>1480</ele>
        <time>2019-08-17T11:31:10Z</time>
      </trkpt>
      <trkpt lat="42.95661" lon="0.84753">
        <ele>1480</ele>
        <time>2019-08-17T11:31:11Z</time>
      </trkpt>
      <trkpt lat="42.95661" lon="0.84753">
        <ele>1480</ele>
        <time>2019-08-17T11:31:12Z</time>
      </trkpt>
      <trkpt lat="42.95661" lon="0.84753">
        <ele>1480</ele>
        <time>2019-08-17T11:31:13Z</time>
      </trkpt>
      <trkpt lat="42.95661" lon="0.84753">
        <ele>1480</ele>
        <time>2019-08-17T11:31:14Z</time>
      </trkpt>
      <trkpt lat="42.95661" lon="0.84753">
        <ele>1480</ele>
        <time>2019-08-17T11:31:15Z</time>
      </trkpt>
      <trkpt lat="42.95661" lon="0.84753">
        <ele>1480</ele>
        <time>2019-08-17T11:31:16Z</time>
      </trkpt>
      <trkpt lat="42.95661" lon="0.84753">
        <ele>1480</ele>
        <time>2019-08-17T11:31:17Z</time>
      </trkpt>
      <trkpt lat="42.95661" lon="0.84753">
        <ele>1480</ele>
        <time>2019-08-17T11:31:18Z</time>
      </trkpt>
      <trkpt lat="42.95661" lon="0.84753">
        <ele>1480</ele>
        <time>2019-08-17T11:31:19Z</time>
      </trkpt>
      <trkpt lat="42.95661" lon="0.84753">
        <ele>1480</ele>
        <time>2019-08-17T11:31:20Z</time>
      </trkpt>
      <trkpt lat="42.95661" lon="0.84753">
        <ele>1480</ele>
        <time>2019-08-17T11:31:21Z</time>
      </trkpt>
      <trkpt lat="42.95661" lon="0.84753">
        <ele>1480</ele>
        <time>2019-08-17T11:31:22Z</time>
      </trkpt>
      <trkpt lat="42.95661" lon="0.84753">
        <ele>1480</ele>
        <time>2019-08-17T11:31:23Z</time>
      </trkpt>
      <trkpt lat="42.95661" lon="0.84753">
        <ele>1480</ele>
        <time>2019-08-17T11:31:24Z</time>
      </trkpt>
      <trkpt lat="42.95661" lon="0.84753">
        <ele>1480</ele>
        <time>2019-08-17T11:31:25Z</time>
      </trkpt>
      <trkpt lat="42.95661" lon="0.84753">
        <ele>1480</ele>
        <time>2019-08-17T11:31:26Z</time>
      </trkpt>
      <trkpt lat="42.95661" lon="0.84753">
        <ele>1480</ele>
        <time>2019-08-17T11:31:27Z</time>
      </trkpt>
      <trkpt lat="42.95661" lon="0.84753">
        <ele>1480</ele>
        <time>2019-08-17T11:31:28Z</time>
      </trkpt>
      <trkpt lat="42.95661" lon="0.84753">
        <ele>1480</ele>
        <time>2019-08-17T11:31:29Z</time>
      </trkpt>
      <trkpt lat="42.95661" lon="0.84753">
        <ele>1480</ele>
        <time>2019-08-17T11:31:30Z</time>
      </trkpt>
      <trkpt lat="42.95661" lon="0.84753">
        <ele>1480</ele>
        <time>2019-08-17T11:31:31Z</time>
      </trkpt>
      <trkpt lat="42.95661" lon="0.84753">
        <ele>1480</ele>
        <time>2019-08-17T11:31:32Z</time>
      </trkpt>
      <trkpt lat="42.95661" lon="0.84753">
        <ele>1480</ele>
        <time>2019-08-17T11:31:33Z</time>
      </trkpt>
      <trkpt lat="42.95661" lon="0.84753">
        <ele>1480</ele>
        <time>2019-08-17T11:31:34Z</time>
      </trkpt>
      <trkpt lat="42.95661" lon="0.84753">
        <ele>1480</ele>
        <time>2019-08-17T11:31:35Z</time>
      </trkpt>
      <trkpt lat="42.95661" lon="0.84753">
        <ele>1480</ele>
        <time>2019-08-17T11:31:36Z</time>
      </trkpt>
      <trkpt lat="42.95661" lon="0.84753">
        <ele>1480</ele>
        <time>2019-08-17T11:31:37Z</time>
      </trkpt>
      <trkpt lat="42.95661" lon="0.84753">
        <ele>1480</ele>
        <time>2019-08-17T11:31:38Z</time>
      </trkpt>
      <trkpt lat="42.95661" lon="0.84753">
        <ele>1480</ele>
        <time>2019-08-17T11:31:39Z</time>
      </trkpt>
      <trkpt lat="42.95661" lon="0.84753">
        <ele>1480</ele>
        <time>2019-08-17T11:31:40Z</time>
      </trkpt>
      <trkpt lat="42.95661" lon="0.84753">
        <ele>1480</ele>
        <time>2019-08-17T11:31:41Z</time>
      </trkpt>
      <trkpt lat="42.95661" lon="0.84753">
        <ele>1480</ele>
        <time>2019-08-17T11:31:42Z</time>
      </trkpt>
      <trkpt lat="42.95661" lon="0.84753">
        <ele>1480</ele>
        <time>2019-08-17T11:31:43Z</time>
      </trkpt>
      <trkpt lat="42.95661" lon="0.84753">
        <ele>1480</ele>
        <time>2019-08-17T11:31:44Z</time>
      </trkpt>
      <trkpt lat="42.95661" lon="0.84753">
        <ele>1480</ele>
        <time>2019-08-17T11:31:45Z</time>
      </trkpt>
      <trkpt lat="42.95661" lon="0.84753">
        <ele>1480</ele>
        <time>2019-08-17T11:31:46Z</time>
      </trkpt>
      <trkpt lat="42.95661" lon="0.84753">
        <ele>1480</ele>
        <time>2019-08-17T11:31:47Z</time>
      </trkpt>
      <trkpt lat="42.95661" lon="0.84753">
        <ele>1480</ele>
        <time>2019-08-17T11:31:48Z</time>
      </trkpt>
      <trkpt lat="42.95661" lon="0.84753">
        <ele>1480</ele>
        <time>2019-08-17T11:31:49Z</time>
      </trkpt>
      <trkpt lat="42.95661" lon="0.84753">
        <ele>1480</ele>
        <time>2019-08-17T11:31:50Z</time>
      </trkpt>
      <trkpt lat="42.95661" lon="0.84753">
        <ele>1480</ele>
        <time>2019-08-17T11:31:51Z</time>
      </trkpt>
      <trkpt lat="42.95661" lon="0.84753">
        <ele>1480</ele>
        <time>2019-08-17T11:31:52Z</time>
      </trkpt>
      <trkpt lat="42.95661" lon="0.84753">
        <ele>1480</ele>
        <time>2019-08-17T11:31:53Z</time>
      </trkpt>
      <trkpt lat="42.95661" lon="0.84753">
        <ele>1480</ele>
        <time>2019-08-17T11:31:54Z</time>
      </trkpt>
      <trkpt lat="42.95661" lon="0.84753">
        <ele>1480</ele>
        <time>2019-08-17T11:31:55Z</time>
      </trkpt>
      <trkpt lat="42.95661" lon="0.84753">
        <ele>1480</ele>
        <time>2019-08-17T11:31:56Z</time>
      </trkpt>
      <trkpt lat="42.95661" lon="0.84753">
        <ele>1480</ele>
        <time>2019-08-17T11:31:57Z</time>
      </trkpt>
      <trkpt lat="42.95661" lon="0.84753">
        <ele>1480</ele>
        <time>2019-08-17T11:31:58Z</time>
      </trkpt>
      <trkpt lat="42.95661" lon="0.84753">
        <ele>1480</ele>
        <time>2019-08-17T11:31:59Z</time>
      </trkpt>
      <trkpt lat="42.95661" lon="0.84753">
        <ele>1480</ele>
        <time>2019-08-17T11:32:00Z</time>
      </trkpt>
      <trkpt lat="42.95661" lon="0.84753">
        <ele>1480</ele>
        <time>2019-08-17T11:32:01Z</time>
      </trkpt>
      <trkpt lat="42.95661" lon="0.84753">
        <ele>1480</ele>
        <time>2019-08-17T11:32:02Z</time>
      </trkpt>
      <trkpt lat="42.95661" lon="0.84753">
        <ele>1480</ele>
        <time>2019-08-17T11:32:03Z</time>
      </trkpt>
      <trkpt lat="42.95661" lon="0.84753">
        <ele>1480</ele>
        <time>2019-08-17T11:32:04Z</time>
      </trkpt>
      <trkpt lat="42.95661" lon="0.84753">
        <ele>1480</ele>
        <time>2019-08-17T11:32:05Z</time>
      </trkpt>
      <trkpt lat="42.95661" lon="0.84753">
        <ele>1480</ele>
        <time>2019-08-17T11:32:06Z</time>
      </trkpt>
      <trkpt lat="42.95661" lon="0.84753">
        <ele>1480</ele>
        <time>2019-08-17T11:32:07Z</time>
      </trkpt>
      <trkpt lat="42.95661" lon="0.84753">
        <ele>1480</ele>
        <time>2019-08-17T11:32:08Z</time>
      </trkpt>
      <trkpt lat="42.95661" lon="0.84753">
        <ele>1480</ele>
        <time>2019-08-17T11:32:09Z</time>
      </trkpt>
      <trkpt lat="42.95661" lon="0.84753">
        <ele>1480</ele>
        <time>2019-08-17T11:32:10Z</time>
      </trkpt>
      <trkpt lat="42.95661" lon="0.84753">
        <ele>1480</ele>
        <time>2019-08-17T11:32:11Z</time>
      </trkpt>
      <trkpt lat="42.95661" lon="0.84753">
        <ele>1480</ele>
        <time>2019-08-17T11:32:12Z</time>
      </trkpt>
      <trkpt lat="42.95661" lon="0.84753">
        <ele>1480</ele>
        <time>2019-08-17T11:32:13Z</time>
      </trkpt>
      <trkpt lat="42.95661" lon="0.84753">
        <ele>1480</ele>
        <time>2019-08-17T11:32:14Z</time>
      </trkpt>
      <trkpt lat="42.95661" lon="0.84753">
        <ele>1480</ele>
        <time>2019-08-17T11:32:15Z</time>
      </trkpt>
      <trkpt lat="42.95661" lon="0.84753">
        <ele>1480</ele>
        <time>2019-08-17T11:32:16Z</time>
      </trkpt>
      <trkpt lat="42.95661" lon="0.84753">
        <ele>1480</ele>
        <time>2019-08-17T11:32:17Z</time>
      </trkpt>
      <trkpt lat="42.95661" lon="0.84753">
        <ele>1480</ele>
        <time>2019-08-17T11:32:18Z</time>
      </trkpt>
      <trkpt lat="42.95661" lon="0.84753">
        <ele>1480</ele>
        <time>2019-08-17T11:32:19Z</time>
      </trkpt>
      <trkpt lat="42.95661" lon="0.84753">
        <ele>1480</ele>
        <time>2019-08-17T11:32:20Z</time>
      </trkpt>
      <trkpt lat="42.95661" lon="0.84753">
        <ele>1480</ele>
        <time>2019-08-17T11:32:21Z</time>
      </trkpt>
      <trkpt lat="42.95661" lon="0.84753">
        <ele>1480</ele>
        <time>2019-08-17T11:32:22Z</time>
      </trkpt>
      <trkpt lat="42.95661" lon="0.84753">
        <ele>1480</ele>
        <time>2019-08-17T11:32:23Z</time>
      </trkpt>
      <trkpt lat="42.95661" lon="0.84753">
        <ele>1480</ele>
        <time>2019-08-17T11:32:24Z</time>
      </trkpt>
      <trkpt lat="42.95661" lon="0.84753">
        <ele>1480</ele>
        <time>2019-08-17T11:32:25Z</time>
      </trkpt>
      <trkpt lat="42.95661" lon="0.84753">
        <ele>1480</ele>
        <time>2019-08-17T11:32:26Z</time>
      </trkpt>
      <trkpt lat="42.95661" lon="0.84753">
        <ele>1480</ele>
        <time>2019-08-17T11:32:27Z</time>
      </trkpt>
      <trkpt lat="42.95661" lon="0.84753">
        <ele>1480</ele>
        <time>2019-08-17T11:32:28Z</time>
      </trkpt>
      <trkpt lat="42.95661" lon="0.84753">
        <ele>1480</ele>
        <time>2019-08-17T11:32:29Z</time>
      </trkpt>
      <trkpt lat="42.95661" lon="0.84753">
        <ele>1480</ele>
        <time>2019-08-17T11:32:30Z</time>
      </trkpt>
      <trkpt lat="42.95661" lon="0.84753">
        <ele>1480</ele>
        <time>2019-08-17T11:32:31Z</time>
      </trkpt>
      <trkpt lat="42.95661" lon="0.84753">
        <ele>1480</ele>
        <time>2019-08-17T11:32:32Z</time>
      </trkpt>
      <trkpt lat="42.95661" lon="0.84753">
        <ele>1480</ele>
        <time>2019-08-17T11:32:33Z</time>
      </trkpt>
      <trkpt lat="42.95661" lon="0.84753">
        <ele>1480</ele>
        <time>2019-08-17T11:32:34Z</time>
      </trkpt>
      <trkpt lat="42.95661" lon="0.84753">
        <ele>1480</ele>
        <time>2019-08-17T11:32:35Z</time>
      </trkpt>
      <trkpt lat="42.95661" lon="0.84753">
        <ele>1480</ele>
        <time>2019-08-17T11:32:36Z</time>
      </trkpt>
      <trkpt lat="42.95661" lon="0.84753">
        <ele>1480</ele>
        <time>2019-08-17T11:32:37Z</time>
      </trkpt>
      <trkpt lat="42.95661" lon="0.84753">
        <ele>1480</ele>
        <time>2019-08-17T11:32:38Z</time>
      </trkpt>
      <trkpt lat="42.95661" lon="0.84753">
        <ele>1480</ele>
        <time>2019-08-17T11:32:39Z</time>
      </trkpt>
      <trkpt lat="42.95661" lon="0.84753">
        <ele>1480</ele>
        <time>2019-08-17T11:32:40Z</time>
      </trkpt>
      <trkpt lat="42.95661" lon="0.84753">
        <ele>1480</ele>
        <time>2019-08-17T11:32:41Z</time>
      </trkpt>
      <trkpt lat="42.95661" lon="0.84753">
        <ele>1480</ele>
        <time>2019-08-17T11:32:42Z</time>
      </trkpt>
      <trkpt lat="42.95661" lon="0.84753">
        <ele>1480</ele>
        <time>2019-08-17T11:32:43Z</time>
      </trkpt>
      <trkpt lat="42.95661" lon="0.84753">
        <ele>1480</ele>
        <time>2019-08-17T11:32:44Z</time>
      </trkpt>
      <trkpt lat="42.95661" lon="0.84753">
        <ele>1480</ele>
        <time>2019-08-17T11:32:45Z</time>
      </trkpt>
      <trkpt lat="42.95661" lon="0.84753">
        <ele>1480</ele>
        <time>2019-08-17T11:32:46Z</time>
      </trkpt>
      <trkpt lat="42.95661" lon="0.84753">
        <ele>1480</ele>
        <time>2019-08-17T11:32:47Z</time>
      </trkpt>
      <trkpt lat="42.95661" lon="0.84753">
        <ele>1480</ele>
        <time>2019-08-17T11:32:48Z</time>
      </trkpt>
      <trkpt lat="42.95661" lon="0.84753">
        <ele>1480</ele>
        <time>2019-08-17T11:32:49Z</time>
      </trkpt>
      <trkpt lat="42.95661" lon="0.84753">
        <ele>1480</ele>
        <time>2019-08-17T11:32:50Z</time>
      </trkpt>
      <trkpt lat="42.95661" lon="0.84753">
        <ele>1480</ele>
        <time>2019-08-17T11:32:51Z</time>
      </trkpt>
      <trkpt lat="42.95661" lon="0.84753">
        <ele>1480</ele>
        <time>2019-08-17T11:32:52Z</time>
      </trkpt>
      <trkpt lat="42.95661" lon="0.84753">
        <ele>1480</ele>
        <time>2019-08-17T11:32:53Z</time>
      </trkpt>
      <trkpt lat="42.95661" lon="0.84753">
        <ele>1480</ele>
        <time>2019-08-17T11:32:54Z</time>
      </trkpt>
      <trkpt lat="42.95661" lon="0.84753">
        <ele>1480</ele>
        <time>2019-08-17T11:32:55Z</time>
      </trkpt>
      <trkpt lat="42.95661" lon="0.84753">
        <ele>1480</ele>
        <time>2019-08-17T11:32:56Z</time>
      </trkpt>
      <trkpt lat="42.95661" lon="0.84753">
        <ele>1480</ele>
        <time>2019-08-17T11:32:57Z</time>
      </trkpt>
      <trkpt lat="42.95661" lon="0.84753">
        <ele>1480</ele>
        <time>2019-08-17T11:32:58Z</time>
      </trkpt>
      <trkpt lat="42.95661" lon="0.84753">
        <ele>1480</ele>
        <time>2019-08-17T11:32:59Z</time>
      </trkpt>
      <trkpt lat="42.95661" lon="0.84753">
        <ele>1480</ele>
        <time>2019-08-17T11:33:00Z</time>
      </trkpt>
      <trkpt lat="42.95661" lon="0.84753">
        <ele>1480</ele>
        <time>2019-08-17T11:33:01Z</time>
      </trkpt>
      <trkpt lat="42.95661" lon="0.84753">
        <ele>1480</ele>
        <time>2019-08-17T11:33:02Z</time>
      </trkpt>
      <trkpt lat="42.95661" lon="0.84753">
        <ele>1480</ele>
        <time>2019-08-17T11:33:03Z</time>
      </trkpt>
      <trkpt lat="42.95661" lon="0.84753">
        <ele>1480</ele>
        <time>2019-08-17T11:33:04Z</time>
      </trkpt>
      <trkpt lat="42.95661" lon="0.84753">
        <ele>1480</ele>
        <time>2019-08-17T11:33:05Z</time>
      </trkpt>
      <trkpt lat="42.95661" lon="0.84753">
        <ele>1480</ele>
        <time>2019-08-17T11:33:06Z</time>
      </trkpt>
      <trkpt lat="42.95661" lon="0.84753">
        <ele>1480</ele>
        <time>2019-08-17T11:33:07Z</time>
      </trkpt>
      <trkpt lat="42.95661" lon="0.84753">
        <ele>1480</ele>
        <time>2019-08-17T11:33:08Z</time>
      </trkpt>
      <trkpt lat="42.95661" lon="0.84753">
        <ele>1480</ele>
        <time>2019-08-17T11:33:09Z</time>
      </trkpt>
      <trkpt lat="42.95661" lon="0.84753">
        <ele>1480</ele>
        <time>2019-08-17T11:33:10Z</time>
      </trkpt>
      <trkpt lat="42.95661" lon="0.84753">
        <ele>1480</ele>
        <time>2019-08-17T11:33:11Z</time>
      </trkpt>
      <trkpt lat="42.95661" lon="0.84753">
        <ele>1480</ele>
        <time>2019-08-17T11:33:12Z</time>
      </trkpt>
      <trkpt lat="42.95661" lon="0.84753">
        <ele>1480</ele>
        <time>2019-08-17T11:33:13Z</time>
      </trkpt>
      <trkpt lat="42.95661" lon="0.84753">
        <ele>1480</ele>
        <time>2019-08-17T11:33:14Z</time>
      </trkpt>
      <trkpt lat="42.95661" lon="0.84753">
        <ele>1480</ele>
        <time>2019-08-17T11:33:15Z</time>
      </trkpt>
      <trkpt lat="42.95661" lon="0.84753">
        <ele>1480</ele>
        <time>2019-08-17T11:33:16Z</time>
      </trkpt>
      <trkpt lat="42.95661" lon="0.84753">
        <ele>1480</ele>
        <time>2019-08-17T11:33:17Z</time>
      </trkpt>
      <trkpt lat="42.95661" lon="0.84753">
        <ele>1480</ele>
        <time>2019-08-17T11:33:18Z</time>
      </trkpt>
      <trkpt lat="42.95661" lon="0.84753">
        <ele>1480</ele>
        <time>2019-08-17T11:33:19Z</time>
      </trkpt>
      <trkpt lat="42.95661" lon="0.84753">
        <ele>1480</ele>
        <time>2019-08-17T11:33:20Z</time>
      </trkpt>
      <trkpt lat="42.95661" lon="0.84753">
        <ele>1480</ele>
        <time>2019-08-17T11:33:21Z</time>
      </trkpt>
      <trkpt lat="42.95661" lon="0.84753">
        <ele>1480</ele>
        <time>2019-08-17T11:33:22Z</time>
      </trkpt>
      <trkpt lat="42.95661" lon="0.84753">
        <ele>1480</ele>
        <time>2019-08-17T11:33:23Z</time>
      </trkpt>
      <trkpt lat="42.95661" lon="0.84753">
        <ele>1480</ele>
        <time>2019-08-17T11:33:24Z</time>
      </trkpt>
      <trkpt lat="42.95661" lon="0.84753">
        <ele>1480</ele>
        <time>2019-08-17T11:33:25Z</time>
      </trkpt>
      <trkpt lat="42.95661" lon="0.84753">
        <ele>1480</ele>
        <time>2019-08-17T11:33:26Z</time>
      </trkpt>
      <trkpt lat="42.95661" lon="0.84753">
        <ele>1480</ele>
        <time>2019-08-17T11:33:27Z</time>
      </trkpt>
      <trkpt lat="42.95661" lon="0.84753">
        <ele>1480</ele>
        <time>2019-08-17T11:33:28Z</time>
      </trkpt>
      <trkpt lat="42.95661" lon="0.84753">
        <ele>1480</ele>
        <time>2019-08-17T11:33:29Z</time>
      </trkpt>
      <trkpt lat="42.95661" lon="0.84753">
        <ele>1480</ele>
        <time>2019-08-17T11:33:30Z</time>
      </trkpt>
      <trkpt lat="42.95661" lon="0.84753">
        <ele>1480</ele>
        <time>2019-08-17T11:33:31Z</time>
      </trkpt>
      <trkpt lat="42.95661" lon="0.84753">
        <ele>1480</ele>
        <time>2019-08-17T11:33:32Z</time>
      </trkpt>
      <trkpt lat="42.95661" lon="0.84753">
        <ele>1480</ele>
        <time>2019-08-17T11:33:33Z</time>
      </trkpt>
      <trkpt lat="42.95661" lon="0.84753">
        <ele>1480</ele>
        <time>2019-08-17T11:33:34Z</time>
      </trkpt>
      <trkpt lat="42.95661" lon="0.84753">
        <ele>1480</ele>
        <time>2019-08-17T11:33:35Z</time>
      </trkpt>
      <trkpt lat="42.95661" lon="0.84753">
        <ele>1480</ele>
        <time>2019-08-17T11:33:36Z</time>
      </trkpt>
      <trkpt lat="42.95661" lon="0.84753">
        <ele>1480</ele>
        <time>2019-08-17T11:33:37Z</time>
      </trkpt>
      <trkpt lat="42.95661" lon="0.84753">
        <ele>1480</ele>
        <time>2019-08-17T11:33:38Z</time>
      </trkpt>
      <trkpt lat="42.95661" lon="0.84753">
        <ele>1480</ele>
        <time>2019-08-17T11:33:39Z</time>
      </trkpt>
      <trkpt lat="42.95661" lon="0.84753">
        <ele>1480</ele>
        <time>2019-08-17T11:33:40Z</time>
      </trkpt>
      <trkpt lat="42.95661" lon="0.84753">
        <ele>1480</ele>
        <time>2019-08-17T11:33:41Z</time>
      </trkpt>
      <trkpt lat="42.95661" lon="0.84753">
        <ele>1480</ele>
        <time>2019-08-17T11:33:42Z</time>
      </trkpt>
      <trkpt lat="42.95661" lon="0.84753">
        <ele>1480</ele>
        <time>2019-08-17T11:33:43Z</time>
      </trkpt>
      <trkpt lat="42.95661" lon="0.84753">
        <ele>1480</ele>
        <time>2019-08-17T11:33:44Z</time>
      </trkpt>
      <trkpt lat="42.95661" lon="0.84753">
        <ele>1480</ele>
        <time>2019-08-17T11:33:45Z</time>
      </trkpt>
      <trkpt lat="42.95661" lon="0.84753">
        <ele>1480</ele>
        <time>2019-08-17T11:33:46Z</time>
      </trkpt>
      <trkpt lat="42.95661" lon="0.84753">
        <ele>1480</ele>
        <time>2019-08-17T11:33:47Z</time>
      </trkpt>
      <trkpt lat="42.95661" lon="0.84753">
        <ele>1480</ele>
        <time>2019-08-17T11:33:48Z</time>
      </trkpt>
      <trkpt lat="42.95661" lon="0.84753">
        <ele>1480</ele>
        <time>2019-08-17T11:33:49Z</time>
      </trkpt>
      <trkpt lat="42.95661" lon="0.84753">
        <ele>1480</ele>
        <time>2019-08-17T11:33:50Z</time>
      </trkpt>
      <trkpt lat="42.95661" lon="0.84753">
        <ele>1480</ele>
        <time>2019-08-17T11:33:51Z</time>
      </trkpt>
      <trkpt lat="42.95661" lon="0.84753">
        <ele>1480</ele>
        <time>2019-08-17T11:33:52Z</time>
      </trkpt>
      <trkpt lat="42.95661" lon="0.84753">
        <ele>1480</ele>
        <time>2019-08-17T11:33:53Z</time>
      </trkpt>
      <trkpt lat="42.95661" lon="0.84753">
        <ele>1480</ele>
        <time>2019-08-17T11:33:54Z</time>
      </trkpt>
      <trkpt lat="42.95661" lon="0.84753">
        <ele>1480</ele>
        <time>2019-08-17T11:33:55Z</time>
      </trkpt>
      <trkpt lat="42.95661" lon="0.84753">
        <ele>1480</ele>
        <time>2019-08-17T11:33:56Z</time>
      </trkpt>
      <trkpt lat="42.95661" lon="0.84753">
        <ele>1480</ele>
        <time>2019-08-17T11:33:57Z</time>
      </trkpt>
      <trkpt lat="42.95661" lon="0.84753">
        <ele>1480</ele>
        <time>2019-08-17T11:33:58Z</time>
      </trkpt>
      <trkpt lat="42.95661" lon="0.84753">
        <ele>1480</ele>
        <time>2019-08-17T11:33:59Z</time>
      </trkpt>
      <trkpt lat="42.95661" lon="0.84753">
        <ele>1480</ele>
        <time>2019-08-17T11:34:00Z</time>
      </trkpt>
      <trkpt lat="42.95661" lon="0.84753">
        <ele>1480</ele>
        <time>2019-08-17T11:34:01Z</time>
      </trkpt>
      <trkpt lat="42.95661" lon="0.84753">
        <ele>1480</ele>
        <time>2019-08-17T11:34:02Z</time>
      </trkpt>
      <trkpt lat="42.95661" lon="0.84753">
        <ele>1480</ele>
        <time>2019-08-17T11:34:03Z</time>
      </trkpt>
      <trkpt lat="42.95661" lon="0.84753">
        <ele>1480</ele>
        <time>2019-08-17T11:34:04Z</time>
      </trkpt>
      <trkpt lat="42.95661" lon="0.84753">
        <ele>1480</ele>
        <time>2019-08-17T11:34:05Z</time>
      </trkpt>
      <trkpt lat="42.95661" lon="0.84753">
        <ele>1480</ele>
        <time>2019-08-17T11:34:06Z</time>
      </trkpt>
      <trkpt lat="42.95661" lon="0.84753">
        <ele>1480</ele>
        <time>2019-08-17T11:34:07Z</time>
      </trkpt>
      <trkpt lat="42.95661" lon="0.84753">
        <ele>1480</ele>
        <time>2019-08-17T11:34:08Z</time>
      </trkpt>
      <trkpt lat="42.95661" lon="0.84753">
        <ele>1480</ele>
        <time>2019-08-17T11:34:09Z</time>
      </trkpt>
      <trkpt lat="42.95661" lon="0.84753">
        <ele>1480</ele>
        <time>2019-08-17T11:34:10Z</time>
      </trkpt>
      <trkpt lat="42.95661" lon="0.84753">
        <ele>1480</ele>
        <time>2019-08-17T11:34:11Z</time>
      </trkpt>
      <trkpt lat="42.95661" lon="0.84753">
        <ele>1480</ele>
        <time>2019-08-17T11:34:12Z</time>
      </trkpt>
      <trkpt lat="42.95661" lon="0.84753">
        <ele>1480</ele>
        <time>2019-08-17T11:34:13Z</time>
      </trkpt>
      <trkpt lat="42.95661" lon="0.84753">
        <ele>1480</ele>
        <time>2019-08-17T11:34:14Z</time>
      </trkpt>
      <trkpt lat="42.95661" lon="0.84753">
        <ele>1480</ele>
        <time>2019-08-17T11:34:15Z</time>
      </trkpt>
      <trkpt lat="42.95661" lon="0.84753">
        <ele>1480</ele>
        <time>2019-08-17T11:34:16Z</time>
      </trkpt>
      <trkpt lat="42.95661" lon="0.84753">
        <ele>1480</ele>
        <time>2019-08-17T11:34:17Z</time>
      </trkpt>
      <trkpt lat="42.95661" lon="0.84753">
        <ele>1480</ele>
        <time>2019-08-17T11:34:18Z</time>
      </trkpt>
      <trkpt lat="42.95661" lon="0.84753">
        <ele>1480</ele>
        <time>2019-08-17T11:34:19Z</time>
      </trkpt>
      <trkpt lat="42.95661" lon="0.84753">
        <ele>1480</ele>
        <time>2019-08-17T11:34:20Z</time>
      </trkpt>
      <trkpt lat="42.95661" lon="0.84753">
        <ele>1480</ele>
        <time>2019-08-17T11:34:21Z</time>
      </trkpt>
      <trkpt lat="42.95661" lon="0.84753">
        <ele>1480</ele>
        <time>2019-08-17T11:34:22Z</time>
      </trkpt>
      <trkpt lat="42.95661" lon="0.84753">
        <ele>1480</ele>
        <time>2019-08-17T11:34:23Z</time>
      </trkpt>
      <trkpt lat="42.95661" lon="0.84753">
        <ele>1480</ele>
        <time>2019-08-17T11:34:24Z</time>
      </trkpt>
      <trkpt lat="42.95661" lon="0.84753">
        <ele>1480</ele>
        <time>2019-08-17T11:34:25Z</time>
      </trkpt>
      <trkpt lat="42.95661" lon="0.84753">
        <ele>1480</ele>
        <time>2019-08-17T11:34:26Z</time>
      </trkpt>
      <trkpt lat="42.95661" lon="0.84753">
        <ele>1480</ele>
        <time>2019-08-17T11:34:27Z</time>
      </trkpt>
      <trkpt lat="42.95661" lon="0.84753">
        <ele>1480</ele>
        <time>2019-08-17T11:34:28Z</time>
      </trkpt>
      <trkpt lat="42.95661" lon="0.84753">
        <ele>1480</ele>
        <time>2019-08-17T11:34:29Z</time>
      </trkpt>
      <trkpt lat="42.95661" lon="0.84753">
        <ele>1480</ele>
        <time>2019-08-17T11:34:30Z</time>
      </trkpt>
      <trkpt lat="42.95661" lon="0.84753">
        <ele>1480</ele>
        <time>2019-08-17T11:34:31Z</time>
      </trkpt>
      <trkpt lat="42.95661" lon="0.84753">
        <ele>1480</ele>
        <time>2019-08-17T11:34:32Z</time>
      </trkpt>
      <trkpt lat="42.95661" lon="0.84753">
        <ele>1480</ele>
        <time>2019-08-17T11:34:33Z</time>
      </trkpt>
      <trkpt lat="42.95661" lon="0.84753">
        <ele>1480</ele>
        <time>2019-08-17T11:34:34Z</time>
      </trkpt>
      <trkpt lat="42.95661" lon="0.84753">
        <ele>1480</ele>
        <time>2019-08-17T11:34:35Z</time>
      </trkpt>
      <trkpt lat="42.95661" lon="0.84753">
        <ele>1480</ele>
        <time>2019-08-17T11:34:36Z</time>
      </trkpt>
      <trkpt lat="42.95661" lon="0.84753">
        <ele>1480</ele>
        <time>2019-08-17T11:34:37Z</time>
      </trkpt>
      <trkpt lat="42.95661" lon="0.84753">
        <ele>1480</ele>
        <time>2019-08-17T11:34:38Z</time>
      </trkpt>
      <trkpt lat="42.95661" lon="0.84753">
        <ele>1480</ele>
        <time>2019-08-17T11:34:39Z</time>
      </trkpt>
      <trkpt lat="42.95661" lon="0.84753">
        <ele>1480</ele>
        <time>2019-08-17T11:34:40Z</time>
      </trkpt>
      <trkpt lat="42.95661" lon="0.84753">
        <ele>1480</ele>
        <time>2019-08-17T11:34:41Z</time>
      </trkpt>
      <trkpt lat="42.95661" lon="0.84753">
        <ele>1480</ele>
        <time>2019-08-17T11:34:42Z</time>
      </trkpt>
      <trkpt lat="42.95661" lon="0.84753">
        <ele>1480</ele>
        <time>2019-08-17T11:34:43Z</time>
      </trkpt>
      <trkpt lat="42.95661" lon="0.84753">
        <ele>1480</ele>
        <time>2019-08-17T11:34:44Z</time>
      </trkpt>
      <trkpt lat="42.95661" lon="0.84753">
        <ele>1480</ele>
        <time>2019-08-17T11:34:45Z</time>
      </trkpt>
      <trkpt lat="42.95661" lon="0.84753">
        <ele>1480</ele>
        <time>2019-08-17T11:34:46Z</time>
      </trkpt>
      <trkpt lat="42.95661" lon="0.84753">
        <ele>1480</ele>
        <time>2019-08-17T11:34:47Z</time>
      </trkpt>
      <trkpt lat="42.95661" lon="0.84753">
        <ele>1480</ele>
        <time>2019-08-17T11:34:48Z</time>
      </trkpt>
      <trkpt lat="42.95661" lon="0.84753">
        <ele>1480</ele>
        <time>2019-08-17T11:34:49Z</time>
      </trkpt>
      <trkpt lat="42.95661" lon="0.84753">
        <ele>1480</ele>
        <time>2019-08-17T11:34:50Z</time>
      </trkpt>
      <trkpt lat="42.95661" lon="0.84753">
        <ele>1480</ele>
        <time>2019-08-17T11:34:51Z</time>
      </trkpt>
      <trkpt lat="42.95661" lon="0.84753">
        <ele>1480</ele>
        <time>2019-08-17T11:34:52Z</time>
      </trkpt>
      <trkpt lat="42.95661" lon="0.84753">
        <ele>1480</ele>
        <time>2019-08-17T11:34:53Z</time>
      </trkpt>
      <trkpt lat="42.95661" lon="0.84753">
        <ele>1480</ele>
        <time>2019-08-17T11:34:54Z</time>
      </trkpt>
      <trkpt lat="42.95661" lon="0.84753">
        <ele>1480</ele>
        <time>2019-08-17T11:34:55Z</time>
      </trkpt>
      <trkpt lat="42.95661" lon="0.84753">
        <ele>1480</ele>
        <time>2019-08-17T11:34:56Z</time>
      </trkpt>
      <trkpt lat="42.95661" lon="0.84753">
        <ele>1480</ele>
        <time>2019-08-17T11:34:57Z</time>
      </trkpt>
      <trkpt lat="42.95661" lon="0.84753">
        <ele>1480</ele>
        <time>2019-08-17T11:34:58Z</time>
      </trkpt>
      <trkpt lat="42.95661" lon="0.84753">
        <ele>1480</ele>
        <time>2019-08-17T11:34:59Z</time>
      </trkpt>
      <trkpt lat="42.95661" lon="0.84753">
        <ele>1480</ele>
        <time>2019-08-17T11:35:00Z</time>
      </trkpt>
      <trkpt lat="42.95661" lon="0.84753">
        <ele>1480</ele>
        <time>2019-08-17T11:35:01Z</time>
      </trkpt>
      <trkpt lat="42.95661" lon="0.84753">
        <ele>1480</ele>
        <time>2019-08-17T11:35:02Z</time>
      </trkpt>
      <trkpt lat="42.95661" lon="0.84753">
        <ele>1480</ele>
        <time>2019-08-17T11:35:03Z</time>
      </trkpt>
      <trkpt lat="42.95661" lon="0.84753">
        <ele>1480</ele>
        <time>2019-08-17T11:35:04Z</time>
      </trkpt>
      <trkpt lat="42.95661" lon="0.84753">
        <ele>1480</ele>
        <time>2019-08-17T11:35:05Z</time>
      </trkpt>
      <trkpt lat="42.95661" lon="0.84753">
        <ele>1480</ele>
        <time>2019-08-17T11:35:06Z</time>
      </trkpt>
      <trkpt lat="42.95661" lon="0.84753">
        <ele>1480</ele>
        <time>2019-08-17T11:35:07Z</time>
      </trkpt>
      <trkpt lat="42.95661" lon="0.84753">
        <ele>1480</ele>
        <time>2019-08-17T11:35:08Z</time>
      </trkpt>
      <trkpt lat="42.95661" lon="0.84753">
        <ele>1480</ele>
        <time>2019-08-17T11:35:09Z</time>
      </trkpt>
      <trkpt lat="42.95661" lon="0.84753">
        <ele>1480</ele>
        <time>2019-08-17T11:35:10Z</time>
      </trkpt>
      <trkpt lat="42.95661" lon="0.84753">
        <ele>1480</ele>
        <time>2019-08-17T11:35:11Z</time>
      </trkpt>
      <trkpt lat="42.95661" lon="0.84753">
        <ele>1480</ele>
        <time>2019-08-17T11:35:12Z</time>
      </trkpt>
      <trkpt lat="42.95661" lon="0.84753">
        <ele>1480</ele>
        <time>2019-08-17T11:35:13Z</time>
      </trkpt>
      <trkpt lat="42.95661" lon="0.84753">
        <ele>1480</ele>
        <time>2019-08-17T11:35:14Z</time>
      </trkpt>
      <trkpt lat="42.95661" lon="0.84753">
        <ele>1480</ele>
        <time>2019-08-17T11:35:15Z</time>
      </trkpt>
      <trkpt lat="42.95661" lon="0.84753">
        <ele>1480</ele>
        <time>2019-08-17T11:35:16Z</time>
      </trkpt>
      <trkpt lat="42.95661" lon="0.84753">
        <ele>1480</ele>
        <time>2019-08-17T11:35:17Z</time>
      </trkpt>
      <trkpt lat="42.95661" lon="0.84753">
        <ele>1480</ele>
        <time>2019-08-17T11:35:18Z</time>
      </trkpt>
      <trkpt lat="42.95661" lon="0.84753">
        <ele>1480</ele>
        <time>2019-08-17T11:35:19Z</time>
      </trkpt>
      <trkpt lat="42.95661" lon="0.84753">
        <ele>1480</ele>
        <time>2019-08-17T11:35:20Z</time>
      </trkpt>
      <trkpt lat="42.95661" lon="0.84753">
        <ele>1480</ele>
        <time>2019-08-17T11:35:21Z</time>
      </trkpt>
      <trkpt lat="42.95661" lon="0.84753">
        <ele>1480</ele>
        <time>2019-08-17T11:35:22Z</time>
      </trkpt>
      <trkpt lat="42.95661" lon="0.84753">
        <ele>1480</ele>
        <time>2019-08-17T11:35:23Z</time>
      </trkpt>
      <trkpt lat="42.95661" lon="0.84753">
        <ele>1480</ele>
        <time>2019-08-17T11:35:24Z</time>
      </trkpt>
      <trkpt lat="42.95661" lon="0.84753">
        <ele>1480</ele>
        <time>2019-08-17T11:35:25Z</time>
      </trkpt>
      <trkpt lat="42.95661" lon="0.84753">
        <ele>1480</ele>
        <time>2019-08-17T11:35:26Z</time>
      </trkpt>
      <trkpt lat="42.95661" lon="0.84753">
        <ele>1480</ele>
        <time>2019-08-17T11:35:27Z</time>
      </trkpt>
      <trkpt lat="42.95661" lon="0.84753">
        <ele>1480</ele>
        <time>2019-08-17T11:35:28Z</time>
      </trkpt>
      <trkpt lat="42.95661" lon="0.84753">
        <ele>1480</ele>
        <time>2019-08-17T11:35:29Z</time>
      </trkpt>
      <trkpt lat="42.95661" lon="0.84753">
        <ele>1480</ele>
        <time>2019-08-17T11:35:30Z</time>
      </trkpt>
      <trkpt lat="42.95661" lon="0.84753">
        <ele>1480</ele>
        <time>2019-08-17T11:35:31Z</time>
      </trkpt>
      <trkpt lat="42.95661" lon="0.84753">
        <ele>1480</ele>
        <time>2019-08-17T11:35:32Z</time>
      </trkpt>
      <trkpt lat="42.95661" lon="0.84753">
        <ele>1480</ele>
        <time>2019-08-17T11:35:33Z</time>
      </trkpt>
      <trkpt lat="42.95661" lon="0.84753">
        <ele>1480</ele>
        <time>2019-08-17T11:35:34Z</time>
      </trkpt>
      <trkpt lat="42.95661" lon="0.84753">
        <ele>1480</ele>
        <time>2019-08-17T11:35:35Z</time>
      </trkpt>
      <trkpt lat="42.95661" lon="0.84753">
        <ele>1480</ele>
        <time>2019-08-17T11:35:36Z</time>
      </trkpt>
      <trkpt lat="42.95661" lon="0.84753">
        <ele>1480</ele>
        <time>2019-08-17T11:35:37Z</time>
      </trkpt>
      <trkpt lat="42.95661" lon="0.84753">
        <ele>1480</ele>
        <time>2019-08-17T11:35:38Z</time>
      </trkpt>
      <trkpt lat="42.95661" lon="0.84753">
        <ele>1480</ele>
        <time>2019-08-17T11:35:39Z</time>
      </trkpt>
      <trkpt lat="42.95661" lon="0.84753">
        <ele>1480</ele>
        <time>2019-08-17T11:35:40Z</time>
      </trkpt>
      <trkpt lat="42.95661" lon="0.84753">
        <ele>1480</ele>
        <time>2019-08-17T11:35:41Z</time>
      </trkpt>
      <trkpt lat="42.95661" lon="0.84753">
        <ele>1480</ele>
        <time>2019-08-17T11:35:42Z</time>
      </trkpt>
      <trkpt lat="42.95661" lon="0.84753">
        <ele>1480</ele>
        <time>2019-08-17T11:35:43Z</time>
      </trkpt>
      <trkpt lat="42.95661" lon="0.84753">
        <ele>1480</ele>
        <time>2019-08-17T11:35:44Z</time>
      </trkpt>
      <trkpt lat="42.95661" lon="0.84753">
        <ele>1480</ele>
        <time>2019-08-17T11:35:45Z</time>
      </trkpt>
      <trkpt lat="42.95661" lon="0.84753">
        <ele>1480</ele>
        <time>2019-08-17T11:35:46Z</time>
      </trkpt>
      <trkpt lat="42.95661" lon="0.84753">
        <ele>1480</ele>
        <time>2019-08-17T11:35:47Z</time>
      </trkpt>
      <trkpt lat="42.95661" lon="0.84753">
        <ele>1480</ele>
        <time>2019-08-17T11:35:48Z</time>
      </trkpt>
      <trkpt lat="42.95661" lon="0.84753">
        <ele>1480</ele>
        <time>2019-08-17T11:35:49Z</time>
      </trkpt>
      <trkpt lat="42.95661" lon="0.84753">
        <ele>1480</ele>
        <time>2019-08-17T11:35:50Z</time>
      </trkpt>
      <trkpt lat="42.95661" lon="0.84753">
        <ele>1480</ele>
        <time>2019-08-17T11:35:51Z</time>
      </trkpt>
      <trkpt lat="42.95661" lon="0.84753">
        <ele>1480</ele>
        <time>2019-08-17T11:35:52Z</time>
      </trkpt>
      <trkpt lat="42.95661" lon="0.84753">
        <ele>1480</ele>
        <time>2019-08-17T11:35:53Z</time>
      </trkpt>
      <trkpt lat="42.95661" lon="0.84753">
        <ele>1480</ele>
        <time>2019-08-17T11:35:54Z</time>
      </trkpt>
      <trkpt lat="42.95661" lon="0.84753">
        <ele>1480</ele>
        <time>2019-08-17T11:35:55Z</time>
      </trkpt>
      <trkpt lat="42.95661" lon="0.84753">
        <ele>1480</ele>
        <time>2019-08-17T11:35:56Z</time>
      </trkpt>
      <trkpt lat="42.95661" lon="0.84753">
        <ele>1480</ele>
        <time>2019-08-17T11:35:57Z</time>
      </trkpt>
      <trkpt lat="42.95661" lon="0.84753">
        <ele>1480</ele>
        <time>2019-08-17T11:35:58Z</time>
      </trkpt>
      <trkpt lat="42.95661" lon="0.84753">
        <ele>1480</ele>
        <time>2019-08-17T11:35:59Z</time>
      </trkpt>
      <trkpt lat="42.95661" lon="0.84753">
        <ele>1480</ele>
        <time>2019-08-17T11:36:00Z</time>
      </trkpt>
      <trkpt lat="42.95661" lon="0.84753">
        <ele>1480</ele>
        <time>2019-08-17T11:36:01Z</time>
      </trkpt>
      <trkpt lat="42.95661" lon="0.84753">
        <ele>1480</ele>
        <time>2019-08-17T11:36:02Z</time>
      </trkpt>
      <trkpt lat="42.95661" lon="0.84753">
        <ele>1480</ele>
        <time>2019-08-17T11:36:03Z</time>
      </trkpt>
      <trkpt lat="42.95661" lon="0.84753">
        <ele>1480</ele>
        <time>2019-08-17T11:36:04Z</time>
      </trkpt>
      <trkpt lat="42.95661" lon="0.84753">
        <ele>1480</ele>
        <time>2019-08-17T11:36:05Z</time>
      </trkpt>
      <trkpt lat="42.95661" lon="0.84753">
        <ele>1480</ele>
        <time>2019-08-17T11:36:06Z</time>
      </trkpt>
      <trkpt lat="42.95661" lon="0.84753">
        <ele>1480</ele>
        <time>2019-08-17T11:36:07Z</time>
      </trkpt>
      <trkpt lat="42.95661" lon="0.84753">
        <ele>1480</ele>
        <time>2019-08-17T11:36:08Z</time>
      </trkpt>
      <trkpt lat="42.95661" lon="0.84753">
        <ele>1480</ele>
        <time>2019-08-17T11:36:09Z</time>
      </trkpt>
      <trkpt lat="42.95661" lon="0.84753">
        <ele>1480</ele>
        <time>2019-08-17T11:36:10Z</time>
      </trkpt>
      <trkpt lat="42.95661" lon="0.84753">
        <ele>1480</ele>
        <time>2019-08-17T11:36:11Z</time>
      </trkpt>
      <trkpt lat="42.95661" lon="0.84753">
        <ele>1480</ele>
        <time>2019-08-17T11:36:12Z</time>
      </trkpt>
      <trkpt lat="42.95661" lon="0.84753">
        <ele>1480</ele>
        <time>2019-08-17T11:36:13Z</time>
      </trkpt>
      <trkpt lat="42.95661" lon="0.84753">
        <ele>1480</ele>
        <time>2019-08-17T11:36:14Z</time>
      </trkpt>
      <trkpt lat="42.95661" lon="0.84753">
        <ele>1480</ele>
        <time>2019-08-17T11:36:15Z</time>
      </trkpt>
      <trkpt lat="42.95661" lon="0.84753">
        <ele>1480</ele>
        <time>2019-08-17T11:36:16Z</time>
      </trkpt>
      <trkpt lat="42.95661" lon="0.84753">
        <ele>1480</ele>
        <time>2019-08-17T11:36:17Z</time>
      </trkpt>
      <trkpt lat="42.95661" lon="0.84753">
        <ele>1480</ele>
        <time>2019-08-17T11:36:18Z</time>
      </trkpt>
      <trkpt lat="42.95661" lon="0.84753">
        <ele>1480</ele>
        <time>2019-08-17T11:36:19Z</time>
      </trkpt>
      <trkpt lat="42.95661" lon="0.84753">
        <ele>1480</ele>
        <time>2019-08-17T11:36:20Z</time>
      </trkpt>
      <trkpt lat="42.95661" lon="0.84753">
        <ele>1480</ele>
        <time>2019-08-17T11:36:21Z</time>
      </trkpt>
      <trkpt lat="42.95661" lon="0.84753">
        <ele>1480</ele>
        <time>2019-08-17T11:36:22Z</time>
      </trkpt>
      <trkpt lat="42.95661" lon="0.84753">
        <ele>1480</ele>
        <time>2019-08-17T11:36:23Z</time>
      </trkpt>
      <trkpt lat="42.95661" lon="0.84753">
        <ele>1480</ele>
        <time>2019-08-17T11:36:24Z</time>
      </trkpt>
      <trkpt lat="42.95661" lon="0.84753">
        <ele>1480</ele>
        <time>2019-08-17T11:36:25Z</time>
      </trkpt>
      <trkpt lat="42.95661" lon="0.84753">
        <ele>1480</ele>
        <time>2019-08-17T11:36:26Z</time>
      </trkpt>
      <trkpt lat="42.95661" lon="0.84753">
        <ele>1480</ele>
        <time>2019-08-17T11:36:27Z</time>
      </trkpt>
      <trkpt lat="42.95661" lon="0.84753">
        <ele>1480</ele>
        <time>2019-08-17T11:36:28Z</time>
      </trkpt>
      <trkpt lat="42.95661" lon="0.84753">
        <ele>1480</ele>
        <time>2019-08-17T11:36:29Z</time>
      </trkpt>
      <trkpt lat="42.95661" lon="0.84753">
        <ele>1480</ele>
        <time>2019-08-17T11:36:30Z</time>
      </trkpt>
      <trkpt lat="42.95661" lon="0.84753">
        <ele>1480</ele>
        <time>2019-08-17T11:36:31Z</time>
      </trkpt>
      <trkpt lat="42.95661" lon="0.84753">
        <ele>1480</ele>
        <time>2019-08-17T11:36:32Z</time>
      </trkpt>
      <trkpt lat="42.95661" lon="0.84753">
        <ele>1480</ele>
        <time>2019-08-17T11:36:33Z</time>
      </trkpt>
      <trkpt lat="42.95661" lon="0.84753">
        <ele>1480</ele>
        <time>2019-08-17T11:36:34Z</time>
      </trkpt>
      <trkpt lat="42.95661" lon="0.84753">
        <ele>1480</ele>
        <time>2019-08-17T11:36:35Z</time>
      </trkpt>
      <trkpt lat="42.95661" lon="0.84753">
        <ele>1480</ele>
        <time>2019-08-17T11:36:36Z</time>
      </trkpt>
      <trkpt lat="42.95661" lon="0.84753">
        <ele>1480</ele>
        <time>2019-08-17T11:36:37Z</time>
      </trkpt>
      <trkpt lat="42.95661" lon="0.84753">
        <ele>1480</ele>
        <time>2019-08-17T11:36:38Z</time>
      </trkpt>
      <trkpt lat="42.95661" lon="0.84753">
        <ele>1480</ele>
        <time>2019-08-17T11:36:39Z</time>
      </trkpt>
      <trkpt lat="42.95661" lon="0.84753">
        <ele>1480</ele>
        <time>2019-08-17T11:36:40Z</time>
      </trkpt>
      <trkpt lat="42.95661" lon="0.84753">
        <ele>1480</ele>
        <time>2019-08-17T11:36:41Z</time>
      </trkpt>
      <trkpt lat="42.95661" lon="0.84753">
        <ele>1480</ele>
        <time>2019-08-17T11:36:42Z</time>
      </trkpt>
      <trkpt lat="42.95661" lon="0.84753">
        <ele>1480</ele>
        <time>2019-08-17T11:36:43Z</time>
      </trkpt>
      <trkpt lat="42.95661" lon="0.84753">
        <ele>1480</ele>
        <time>2019-08-17T11:36:44Z</time>
      </trkpt>
      <trkpt lat="42.95661" lon="0.84753">
        <ele>1480</ele>
        <time>2019-08-17T11:36:45Z</time>
      </trkpt>
      <trkpt lat="42.95661" lon="0.84753">
        <ele>1480</ele>
        <time>2019-08-17T11:36:46Z</time>
      </trkpt>
      <trkpt lat="42.95661" lon="0.84753">
        <ele>1480</ele>
        <time>2019-08-17T11:36:47Z</time>
      </trkpt>
      <trkpt lat="42.95661" lon="0.84753">
        <ele>1480</ele>
        <time>2019-08-17T11:36:48Z</time>
      </trkpt>
      <trkpt lat="42.95661" lon="0.84753">
        <ele>1480</ele>
        <time>2019-08-17T11:36:49Z</time>
      </trkpt>
      <trkpt lat="42.95661" lon="0.84753">
        <ele>1480</ele>
        <time>2019-08-17T11:36:50Z</time>
      </trkpt>
      <trkpt lat="42.95661" lon="0.84753">
        <ele>1480</ele>
        <time>2019-08-17T11:36:51Z</time>
      </trkpt>
      <trkpt lat="42.95661" lon="0.84753">
        <ele>1480</ele>
        <time>2019-08-17T11:36:52Z</time>
      </trkpt>
      <trkpt lat="42.95661" lon="0.84753">
        <ele>1480</ele>
        <time>2019-08-17T11:36:53Z</time>
      </trkpt>
      <trkpt lat="42.95661" lon="0.84753">
        <ele>1480</ele>
        <time>2019-08-17T11:36:54Z</time>
      </trkpt>
      <trkpt lat="42.95661" lon="0.84753">
        <ele>1480</ele>
        <time>2019-08-17T11:36:55Z</time>
      </trkpt>
      <trkpt lat="42.95661" lon="0.84753">
        <ele>1480</ele>
        <time>2019-08-17T11:36:56Z</time>
      </trkpt>
      <trkpt lat="42.95661" lon="0.84753">
        <ele>1480</ele>
        <time>2019-08-17T11:36:57Z</time>
      </trkpt>
      <trkpt lat="42.95661" lon="0.84753">
        <ele>1480</ele>
        <time>2019-08-17T11:36:58Z</time>
      </trkpt>
      <trkpt lat="42.95661" lon="0.84753">
        <ele>1480</ele>
        <time>2019-08-17T11:36:59Z</time>
      </trkpt>
      <trkpt lat="42.95661" lon="0.84753">
        <ele>1480</ele>
        <time>2019-08-17T11:37:00Z</time>
      </trkpt>
      <trkpt lat="42.95661" lon="0.84753">
        <ele>1480</ele>
        <time>2019-08-17T11:37:01Z</time>
      </trkpt>
      <trkpt lat="42.95661" lon="0.84753">
        <ele>1480</ele>
        <time>2019-08-17T11:37:02Z</time>
      </trkpt>
      <trkpt lat="42.95661" lon="0.84753">
        <ele>1480</ele>
        <time>2019-08-17T11:37:03Z</time>
      </trkpt>
      <trkpt lat="42.95661" lon="0.84753">
        <ele>1480</ele>
        <time>2019-08-17T11:37:04Z</time>
      </trkpt>
      <trkpt lat="42.95661" lon="0.84753">
        <ele>1480</ele>
        <time>2019-08-17T11:37:05Z</time>
      </trkpt>
      <trkpt lat="42.95661" lon="0.84753">
        <ele>1480</ele>
        <time>2019-08-17T11:37:06Z</time>
      </trkpt>
      <trkpt lat="42.95661" lon="0.84753">
        <ele>1480</ele>
        <time>2019-08-17T11:37:07Z</time>
      </trkpt>
      <trkpt lat="42.95661" lon="0.84753">
        <ele>1480</ele>
        <time>2019-08-17T11:37:08Z</time>
      </trkpt>
      <trkpt lat="42.95661" lon="0.84753">
        <ele>1480</ele>
        <time>2019-08-17T11:37:09Z</time>
      </trkpt>
      <trkpt lat="42.95661" lon="0.84753">
        <ele>1480</ele>
        <time>2019-08-17T11:37:10Z</time>
      </trkpt>
      <trkpt lat="42.95661" lon="0.84753">
        <ele>1480</ele>
        <time>2019-08-17T11:37:11Z</time>
      </trkpt>
      <trkpt lat="42.95661" lon="0.84753">
        <ele>1480</ele>
        <time>2019-08-17T11:37:12Z</time>
      </trkpt>
      <trkpt lat="42.95661" lon="0.84753">
        <ele>1480</ele>
        <time>2019-08-17T11:37:13Z</time>
      </trkpt>
      <trkpt lat="42.95661" lon="0.84753">
        <ele>1480</ele>
        <time>2019-08-17T11:37:14Z</time>
      </trkpt>
      <trkpt lat="42.95661" lon="0.84753">
        <ele>1480</ele>
        <time>2019-08-17T11:37:15Z</time>
      </trkpt>
      <trkpt lat="42.95661" lon="0.84753">
        <ele>1480</ele>
        <time>2019-08-17T11:37:16Z</time>
      </trkpt>
      <trkpt lat="42.95661" lon="0.84753">
        <ele>1480</ele>
        <time>2019-08-17T11:37:17Z</time>
      </trkpt>
      <trkpt lat="42.95661" lon="0.84753">
        <ele>1480</ele>
        <time>2019-08-17T11:37:18Z</time>
      </trkpt>
      <trkpt lat="42.95661" lon="0.84753">
        <ele>1480</ele>
        <time>2019-08-17T11:37:19Z</time>
      </trkpt>
      <trkpt lat="42.95661" lon="0.84753">
        <ele>1480</ele>
        <time>2019-08-17T11:37:20Z</time>
      </trkpt>
      <trkpt lat="42.95661" lon="0.84753">
        <ele>1480</ele>
        <time>2019-08-17T11:37:21Z</time>
      </trkpt>
      <trkpt lat="42.95661" lon="0.84753">
        <ele>1480</ele>
        <time>2019-08-17T11:37:22Z</time>
      </trkpt>
      <trkpt lat="42.95661" lon="0.84753">
        <ele>1480</ele>
        <time>2019-08-17T11:37:23Z</time>
      </trkpt>
      <trkpt lat="42.95661" lon="0.84753">
        <ele>1480</ele>
        <time>2019-08-17T11:37:24Z</time>
      </trkpt>
      <trkpt lat="42.95661" lon="0.84753">
        <ele>1480</ele>
        <time>2019-08-17T11:37:25Z</time>
      </trkpt>
      <trkpt lat="42.95661" lon="0.84753">
        <ele>1480</ele>
        <time>2019-08-17T11:37:26Z</time>
      </trkpt>
      <trkpt lat="42.95661" lon="0.84753">
        <ele>1480</ele>
        <time>2019-08-17T11:37:27Z</time>
      </trkpt>
      <trkpt lat="42.95661" lon="0.84753">
        <ele>1480</ele>
        <time>2019-08-17T11:37:28Z</time>
      </trkpt>
      <trkpt lat="42.95661" lon="0.84753">
        <ele>1480</ele>
        <time>2019-08-17T11:37:29Z</time>
      </trkpt>
      <trkpt lat="42.95661" lon="0.84753">
        <ele>1480</ele>
        <time>2019-08-17T11:37:30Z</time>
      </trkpt>
      <trkpt lat="42.95661" lon="0.84753">
        <ele>1480</ele>
        <time>2019-08-17T11:37:31Z</time>
      </trkpt>
      <trkpt lat="42.95661" lon="0.84753">
        <ele>1480</ele>
        <time>2019-08-17T11:37:32Z</time>
      </trkpt>
      <trkpt lat="42.95661" lon="0.84753">
        <ele>1480</ele>
        <time>2019-08-17T11:37:33Z</time>
      </trkpt>
      <trkpt lat="42.95661" lon="0.84753">
        <ele>1480</ele>
        <time>2019-08-17T11:37:34Z</time>
      </trkpt>
      <trkpt lat="42.95661" lon="0.84753">
        <ele>1480</ele>
        <time>2019-08-17T11:37:35Z</time>
      </trkpt>
      <trkpt lat="42.95661" lon="0.84753">
        <ele>1480</ele>
        <time>2019-08-17T11:37:36Z</time>
      </trkpt>
      <trkpt lat="42.95661" lon="0.84753">
        <ele>1480</ele>
        <time>2019-08-17T11:37:37Z</time>
      </trkpt>
      <trkpt lat="42.95661" lon="0.84753">
        <ele>1480</ele>
        <time>2019-08-17T11:37:38Z</time>
      </trkpt>
      <trkpt lat="42.95661" lon="0.84753">
        <ele>1480</ele>
        <time>2019-08-17T11:37:39Z</time>
      </trkpt>
      <trkpt lat="42.95661" lon="0.84753">
        <ele>1480</ele>
        <time>2019-08-17T11:37:40Z</time>
      </trkpt>
      <trkpt lat="42.95661" lon="0.84753">
        <ele>1480</ele>
        <time>2019-08-17T11:37:41Z</time>
      </trkpt>
      <trkpt lat="42.95661" lon="0.84753">
        <ele>1480</ele>
        <time>2019-08-17T11:37:42Z</time>
      </trkpt>
      <trkpt lat="42.95661" lon="0.84753">
        <ele>1480</ele>
        <time>2019-08-17T11:37:43Z</time>
      </trkpt>
      <trkpt lat="42.95661" lon="0.84753">
        <ele>1480</ele>
        <time>2019-08-17T11:37:44Z</time>
      </trkpt>
      <trkpt lat="42.95661" lon="0.84753">
        <ele>1479.9</ele>
        <time>2019-08-17T11:37:45Z</time>
      </trkpt>
      <trkpt lat="42.95661" lon="0.84753">
        <ele>1479.9</ele>
        <time>2019-08-17T11:37:46Z</time>
      </trkpt>
      <trkpt lat="42.95661" lon="0.84753">
        <ele>1479.9</ele>
        <time>2019-08-17T11:37:47Z</time>
      </trkpt>
      <trkpt lat="42.95661" lon="0.84753">
        <ele>1479.9</ele>
        <time>2019-08-17T11:37:48Z</time>
      </trkpt>
      <trkpt lat="42.95661" lon="0.84753">
        <ele>1479.9</ele>
        <time>2019-08-17T11:37:49Z</time>
      </trkpt>
      <trkpt lat="42.95661" lon="0.84753">
        <ele>1479.9</ele>
        <time>2019-08-17T11:37:50Z</time>
      </trkpt>
      <trkpt lat="42.95661" lon="0.84753">
        <ele>1479.9</ele>
        <time>2019-08-17T11:37:51Z</time>
      </trkpt>
      <trkpt lat="42.95661" lon="0.84753">
        <ele>1479.9</ele>
        <time>2019-08-17T11:37:52Z</time>
      </trkpt>
      <trkpt lat="42.95661" lon="0.84753">
        <ele>1479.9</ele>
        <time>2019-08-17T11:37:53Z</time>
      </trkpt>
      <trkpt lat="42.95661" lon="0.84753">
        <ele>1479.9</ele>
        <time>2019-08-17T11:37:54Z</time>
      </trkpt>
      <trkpt lat="42.95662" lon="0.84753">
        <ele>1479.8</ele>
        <time>2019-08-17T11:37:55Z</time>
      </trkpt>
      <trkpt lat="42.95664" lon="0.84753">
        <ele>1479.6</ele>
        <time>2019-08-17T11:37:56Z</time>
      </trkpt>
      <trkpt lat="42.95665" lon="0.84752">
        <ele>1479.3</ele>
        <time>2019-08-17T11:37:57Z</time>
      </trkpt>
      <trkpt lat="42.95666" lon="0.84752">
        <ele>1479.1</ele>
        <time>2019-08-17T11:37:58Z</time>
      </trkpt>
      <trkpt lat="42.95666" lon="0.84752">
        <ele>1479.1</ele>
        <time>2019-08-17T11:37:59Z</time>
      </trkpt>
      <trkpt lat="42.95667" lon="0.84752">
        <ele>1479.1</ele>
        <time>2019-08-17T11:38:00Z</time>
      </trkpt>
      <trkpt lat="42.95667" lon="0.84752">
        <ele>1479</ele>
        <time>2019-08-17T11:38:01Z</time>
      </trkpt>
      <trkpt lat="42.95667" lon="0.84752">
        <ele>1479</ele>
        <time>2019-08-17T11:38:02Z</time>
      </trkpt>
      <trkpt lat="42.95667" lon="0.84752">
        <ele>1479</ele>
        <time>2019-08-17T11:38:03Z</time>
      </trkpt>
      <trkpt lat="42.95667" lon="0.84752">
        <ele>1479</ele>
        <time>2019-08-17T11:38:04Z</time>
      </trkpt>
      <trkpt lat="42.95667" lon="0.84752">
        <ele>1479</ele>
        <time>2019-08-17T11:38:05Z</time>
      </trkpt>
      <trkpt lat="42.95667" lon="0.84752">
        <ele>1479</ele>
        <time>2019-08-17T11:38:06Z</time>
      </trkpt>
      <trkpt lat="42.95667" lon="0.84752">
        <ele>1479</ele>
        <time>2019-08-17T11:38:07Z</time>
      </trkpt>
      <trkpt lat="42.95667" lon="0.84752">
        <ele>1478.9</ele>
        <time>2019-08-17T11:38:08Z</time>
      </trkpt>
      <trkpt lat="42.95667" lon="0.84752">
        <ele>1478.9</ele>
        <time>2019-08-17T11:38:09Z</time>
      </trkpt>
      <trkpt lat="42.95667" lon="0.84752">
        <ele>1478.9</ele>
        <time>2019-08-17T11:38:10Z</time>
      </trkpt>
      <trkpt lat="42.95667" lon="0.84752">
        <ele>1478.9</ele>
        <time>2019-08-17T11:38:11Z</time>
      </trkpt>
      <trkpt lat="42.95667" lon="0.84752">
        <ele>1478.9</ele>
        <time>2019-08-17T11:38:12Z</time>
      </trkpt>
      <trkpt lat="42.95667" lon="0.84752">
        <ele>1478.9</ele>
        <time>2019-08-17T11:38:13Z</time>
      </trkpt>
      <trkpt lat="42.95667" lon="0.84752">
        <ele>1478.9</ele>
        <time>2019-08-17T11:38:14Z</time>
      </trkpt>
      <trkpt lat="42.95667" lon="0.84752">
        <ele>1478.9</ele>
        <time>2019-08-17T11:38:15Z</time>
      </trkpt>
      <trkpt lat="42.95667" lon="0.84752">
        <ele>1478.9</ele>
        <time>2019-08-17T11:38:16Z</time>
      </trkpt>
      <trkpt lat="42.95667" lon="0.84752">
        <ele>1478.9</ele>
        <time>2019-08-17T11:38:17Z</time>
      </trkpt>
      <trkpt lat="42.95667" lon="0.84752">
        <ele>1478.9</ele>
        <time>2019-08-17T11:38:18Z</time>
      </trkpt>
      <trkpt lat="42.95667" lon="0.84752">
        <ele>1478.9</ele>
        <time>2019-08-17T11:38:19Z</time>
      </trkpt>
      <trkpt lat="42.95667" lon="0.84752">
        <ele>1478.8</ele>
        <time>2019-08-17T11:38:20Z</time>
      </trkpt>
      <trkpt lat="42.95667" lon="0.84752">
        <ele>1478.8</ele>
        <time>2019-08-17T11:38:21Z</time>
      </trkpt>
      <trkpt lat="42.95667" lon="0.84752">
        <ele>1478.8</ele>
        <time>2019-08-17T11:38:22Z</time>
      </trkpt>
      <trkpt lat="42.95667" lon="0.84752">
        <ele>1478.8</ele>
        <time>2019-08-17T11:38:23Z</time>
      </trkpt>
      <trkpt lat="42.95667" lon="0.84752">
        <ele>1478.8</ele>
        <time>2019-08-17T11:38:24Z</time>
      </trkpt>
      <trkpt lat="42.95667" lon="0.84752">
        <ele>1478.8</ele>
        <time>2019-08-17T11:38:25Z</time>
      </trkpt>
      <trkpt lat="42.95667" lon="0.84752">
        <ele>1478.8</ele>
        <time>2019-08-17T11:38:26Z</time>
      </trkpt>
      <trkpt lat="42.95667" lon="0.84752">
        <ele>1478.8</ele>
        <time>2019-08-17T11:38:27Z</time>
      </trkpt>
      <trkpt lat="42.95667" lon="0.84752">
        <ele>1478.8</ele>
        <time>2019-08-17T11:38:28Z</time>
      </trkpt>
      <trkpt lat="42.95667" lon="0.84752">
        <ele>1478.8</ele>
        <time>2019-08-17T11:38:29Z</time>
      </trkpt>
      <trkpt lat="42.95667" lon="0.84752">
        <ele>1478.8</ele>
        <time>2019-08-17T11:38:30Z</time>
      </trkpt>
      <trkpt lat="42.95667" lon="0.84752">
        <ele>1478.8</ele>
        <time>2019-08-17T11:38:31Z</time>
      </trkpt>
      <trkpt lat="42.95667" lon="0.84752">
        <ele>1478.8</ele>
        <time>2019-08-17T11:38:32Z</time>
      </trkpt>
      <trkpt lat="42.95667" lon="0.84752">
        <ele>1478.7</ele>
        <time>2019-08-17T11:38:33Z</time>
      </trkpt>
      <trkpt lat="42.95667" lon="0.84752">
        <ele>1478.7</ele>
        <time>2019-08-17T11:38:34Z</time>
      </trkpt>
      <trkpt lat="42.95667" lon="0.84752">
        <ele>1478.7</ele>
        <time>2019-08-17T11:38:35Z</time>
      </trkpt>
      <trkpt lat="42.95667" lon="0.84752">
        <ele>1478.7</ele>
        <time>2019-08-17T11:38:36Z</time>
      </trkpt>
      <trkpt lat="42.95667" lon="0.84752">
        <ele>1478.7</ele>
        <time>2019-08-17T11:38:37Z</time>
      </trkpt>
      <trkpt lat="42.95667" lon="0.84752">
        <ele>1478.7</ele>
        <time>2019-08-17T11:38:38Z</time>
      </trkpt>
      <trkpt lat="42.95667" lon="0.84752">
        <ele>1478.7</ele>
        <time>2019-08-17T11:38:39Z</time>
      </trkpt>
      <trkpt lat="42.95667" lon="0.84752">
        <ele>1478.7</ele>
        <time>2019-08-17T11:38:40Z</time>
      </trkpt>
      <trkpt lat="42.95667" lon="0.84752">
        <ele>1478.7</ele>
        <time>2019-08-17T11:38:41Z</time>
      </trkpt>
      <trkpt lat="42.95667" lon="0.84752">
        <ele>1478.7</ele>
        <time>2019-08-17T11:38:42Z</time>
      </trkpt>
      <trkpt lat="42.95667" lon="0.84752">
        <ele>1478.7</ele>
        <time>2019-08-17T11:38:43Z</time>
      </trkpt>
      <trkpt lat="42.95667" lon="0.84752">
        <ele>1478.7</ele>
        <time>2019-08-17T11:38:44Z</time>
      </trkpt>
      <trkpt lat="42.95667" lon="0.84752">
        <ele>1478.6</ele>
        <time>2019-08-17T11:38:45Z</time>
      </trkpt>
      <trkpt lat="42.95667" lon="0.84752">
        <ele>1478.6</ele>
        <time>2019-08-17T11:38:46Z</time>
      </trkpt>
      <trkpt lat="42.95667" lon="0.84752">
        <ele>1478.6</ele>
        <time>2019-08-17T11:38:47Z</time>
      </trkpt>
      <trkpt lat="42.95667" lon="0.84752">
        <ele>1478.6</ele>
        <time>2019-08-17T11:38:48Z</time>
      </trkpt>
      <trkpt lat="42.95667" lon="0.84752">
        <ele>1478.6</ele>
        <time>2019-08-17T11:38:49Z</time>
      </trkpt>
      <trkpt lat="42.95667" lon="0.84752">
        <ele>1478.6</ele>
        <time>2019-08-17T11:38:50Z</time>
      </trkpt>
      <trkpt lat="42.95667" lon="0.84752">
        <ele>1478.6</ele>
        <time>2019-08-17T11:38:51Z</time>
      </trkpt>
      <trkpt lat="42.95667" lon="0.84752">
        <ele>1478.6</ele>
        <time>2019-08-17T11:38:52Z</time>
      </trkpt>
      <trkpt lat="42.95667" lon="0.84752">
        <ele>1478.6</ele>
        <time>2019-08-17T11:38:53Z</time>
      </trkpt>
      <trkpt lat="42.95667" lon="0.84752">
        <ele>1478.6</ele>
        <time>2019-08-17T11:38:54Z</time>
      </trkpt>
      <trkpt lat="42.95667" lon="0.84752">
        <ele>1478.6</ele>
        <time>2019-08-17T11:38:55Z</time>
      </trkpt>
      <trkpt lat="42.95667" lon="0.84752">
        <ele>1478.6</ele>
        <time>2019-08-17T11:38:56Z</time>
      </trkpt>
      <trkpt lat="42.95667" lon="0.84752">
        <ele>1478.6</ele>
        <time>2019-08-17T11:38:57Z</time>
      </trkpt>
      <trkpt lat="42.95667" lon="0.84752">
        <ele>1478.5</ele>
        <time>2019-08-17T11:38:58Z</time>
      </trkpt>
      <trkpt lat="42.95667" lon="0.84752">
        <ele>1478.5</ele>
        <time>2019-08-17T11:38:59Z</time>
      </trkpt>
      <trkpt lat="42.95667" lon="0.84752">
        <ele>1478.5</ele>
        <time>2019-08-17T11:39:00Z</time>
      </trkpt>
      <trkpt lat="42.95667" lon="0.84752">
        <ele>1478.5</ele>
        <time>2019-08-17T11:39:01Z</time>
      </trkpt>
      <trkpt lat="42.95667" lon="0.84752">
        <ele>1478.5</ele>
        <time>2019-08-17T11:39:02Z</time>
      </trkpt>
      <trkpt lat="42.95667" lon="0.84752">
        <ele>1478.5</ele>
        <time>2019-08-17T11:39:03Z</time>
      </trkpt>
      <trkpt lat="42.95667" lon="0.84752">
        <ele>1478.5</ele>
        <time>2019-08-17T11:39:04Z</time>
      </trkpt>
      <trkpt lat="42.95667" lon="0.84752">
        <ele>1478.5</ele>
        <time>2019-08-17T11:39:05Z</time>
      </trkpt>
      <trkpt lat="42.95667" lon="0.84752">
        <ele>1478.5</ele>
        <time>2019-08-17T11:39:06Z</time>
      </trkpt>
      <trkpt lat="42.95667" lon="0.84752">
        <ele>1478.5</ele>
        <time>2019-08-17T11:39:07Z</time>
      </trkpt>
      <trkpt lat="42.95667" lon="0.84752">
        <ele>1478.5</ele>
        <time>2019-08-17T11:39:08Z</time>
      </trkpt>
      <trkpt lat="42.95667" lon="0.84752">
        <ele>1478.5</ele>
        <time>2019-08-17T11:39:09Z</time>
      </trkpt>
      <trkpt lat="42.95667" lon="0.84752">
        <ele>1478.4</ele>
        <time>2019-08-17T11:39:10Z</time>
      </trkpt>
      <trkpt lat="42.95667" lon="0.84752">
        <ele>1478.4</ele>
        <time>2019-08-17T11:39:11Z</time>
      </trkpt>
      <trkpt lat="42.95667" lon="0.84752">
        <ele>1478.4</ele>
        <time>2019-08-17T11:39:12Z</time>
      </trkpt>
      <trkpt lat="42.95667" lon="0.84752">
        <ele>1478.4</ele>
        <time>2019-08-17T11:39:13Z</time>
      </trkpt>
      <trkpt lat="42.95667" lon="0.84752">
        <ele>1478.4</ele>
        <time>2019-08-17T11:39:14Z</time>
      </trkpt>
      <trkpt lat="42.95667" lon="0.84752">
        <ele>1478.4</ele>
        <time>2019-08-17T11:39:15Z</time>
      </trkpt>
      <trkpt lat="42.95667" lon="0.84752">
        <ele>1478.4</ele>
        <time>2019-08-17T11:39:16Z</time>
      </trkpt>
      <trkpt lat="42.95667" lon="0.84752">
        <ele>1478.4</ele>
        <time>2019-08-17T11:39:17Z</time>
      </trkpt>
      <trkpt lat="42.95667" lon="0.84752">
        <ele>1478.4</ele>
        <time>2019-08-17T11:39:18Z</time>
      </trkpt>
      <trkpt lat="42.95667" lon="0.84752">
        <ele>1478.4</ele>
        <time>2019-08-17T11:39:19Z</time>
      </trkpt>
      <trkpt lat="42.95667" lon="0.84752">
        <ele>1478.4</ele>
        <time>2019-08-17T11:39:20Z</time>
      </trkpt>
      <trkpt lat="42.95667" lon="0.84752">
        <ele>1478.4</ele>
        <time>2019-08-17T11:39:21Z</time>
      </trkpt>
      <trkpt lat="42.95667" lon="0.84752">
        <ele>1478.4</ele>
        <time>2019-08-17T11:39:22Z</time>
      </trkpt>
      <trkpt lat="42.95667" lon="0.84752">
        <ele>1478.4</ele>
        <time>2019-08-17T11:39:23Z</time>
      </trkpt>
      <trkpt lat="42.95667" lon="0.84752">
        <ele>1478.4</ele>
        <time>2019-08-17T11:39:24Z</time>
      </trkpt>
      <trkpt lat="42.95667" lon="0.84752">
        <ele>1478.4</ele>
        <time>2019-08-17T11:39:25Z</time>
      </trkpt>
      <trkpt lat="42.95667" lon="0.84752">
        <ele>1478.4</ele>
        <time>2019-08-17T11:39:26Z</time>
      </trkpt>
      <trkpt lat="42.95667" lon="0.84752">
        <ele>1478.4</ele>
        <time>2019-08-17T11:39:27Z</time>
      </trkpt>
      <trkpt lat="42.95667" lon="0.84752">
        <ele>1478.4</ele>
        <time>2019-08-17T11:39:28Z</time>
      </trkpt>
      <trkpt lat="42.95667" lon="0.84752">
        <ele>1478.4</ele>
        <time>2019-08-17T11:39:29Z</time>
      </trkpt>
      <trkpt lat="42.95667" lon="0.84752">
        <ele>1478.4</ele>
        <time>2019-08-17T11:39:30Z</time>
      </trkpt>
      <trkpt lat="42.95667" lon="0.84752">
        <ele>1478.4</ele>
        <time>2019-08-17T11:39:31Z</time>
      </trkpt>
      <trkpt lat="42.95667" lon="0.84752">
        <ele>1478.4</ele>
        <time>2019-08-17T11:39:32Z</time>
      </trkpt>
      <trkpt lat="42.95667" lon="0.84752">
        <ele>1478.4</ele>
        <time>2019-08-17T11:39:33Z</time>
      </trkpt>
      <trkpt lat="42.95667" lon="0.84752">
        <ele>1478.4</ele>
        <time>2019-08-17T11:39:34Z</time>
      </trkpt>
      <trkpt lat="42.95667" lon="0.84752">
        <ele>1478.4</ele>
        <time>2019-08-17T11:39:35Z</time>
      </trkpt>
      <trkpt lat="42.95667" lon="0.84752">
        <ele>1478.4</ele>
        <time>2019-08-17T11:39:36Z</time>
      </trkpt>
      <trkpt lat="42.95667" lon="0.84752">
        <ele>1478.4</ele>
        <time>2019-08-17T11:39:37Z</time>
      </trkpt>
      <trkpt lat="42.95667" lon="0.84752">
        <ele>1478.4</ele>
        <time>2019-08-17T11:39:38Z</time>
      </trkpt>
      <trkpt lat="42.95667" lon="0.84752">
        <ele>1478.4</ele>
        <time>2019-08-17T11:39:39Z</time>
      </trkpt>
      <trkpt lat="42.95667" lon="0.84752">
        <ele>1478.4</ele>
        <time>2019-08-17T11:39:40Z</time>
      </trkpt>
      <trkpt lat="42.95667" lon="0.84752">
        <ele>1478.4</ele>
        <time>2019-08-17T11:39:41Z</time>
      </trkpt>
      <trkpt lat="42.95667" lon="0.84752">
        <ele>1478.4</ele>
        <time>2019-08-17T11:39:42Z</time>
      </trkpt>
      <trkpt lat="42.95667" lon="0.84752">
        <ele>1478.4</ele>
        <time>2019-08-17T11:39:43Z</time>
      </trkpt>
      <trkpt lat="42.95667" lon="0.84752">
        <ele>1478.4</ele>
        <time>2019-08-17T11:39:44Z</time>
      </trkpt>
      <trkpt lat="42.95667" lon="0.84752">
        <ele>1478.4</ele>
        <time>2019-08-17T11:39:45Z</time>
      </trkpt>
      <trkpt lat="42.95667" lon="0.84752">
        <ele>1478.4</ele>
        <time>2019-08-17T11:39:46Z</time>
      </trkpt>
      <trkpt lat="42.95667" lon="0.84752">
        <ele>1478.4</ele>
        <time>2019-08-17T11:39:47Z</time>
      </trkpt>
      <trkpt lat="42.95667" lon="0.84752">
        <ele>1478.4</ele>
        <time>2019-08-17T11:39:48Z</time>
      </trkpt>
      <trkpt lat="42.95667" lon="0.84752">
        <ele>1478.4</ele>
        <time>2019-08-17T11:39:49Z</time>
      </trkpt>
      <trkpt lat="42.95667" lon="0.84752">
        <ele>1478.4</ele>
        <time>2019-08-17T11:39:50Z</time>
      </trkpt>
      <trkpt lat="42.95667" lon="0.84752">
        <ele>1478.4</ele>
        <time>2019-08-17T11:39:51Z</time>
      </trkpt>
      <trkpt lat="42.95667" lon="0.84752">
        <ele>1478.4</ele>
        <time>2019-08-17T11:39:52Z</time>
      </trkpt>
      <trkpt lat="42.95667" lon="0.84752">
        <ele>1478.4</ele>
        <time>2019-08-17T11:39:53Z</time>
      </trkpt>
      <trkpt lat="42.95667" lon="0.84752">
        <ele>1478.4</ele>
        <time>2019-08-17T11:39:54Z</time>
      </trkpt>
      <trkpt lat="42.95667" lon="0.84752">
        <ele>1478.4</ele>
        <time>2019-08-17T11:39:55Z</time>
      </trkpt>
      <trkpt lat="42.95667" lon="0.84752">
        <ele>1478.4</ele>
        <time>2019-08-17T11:39:56Z</time>
      </trkpt>
      <trkpt lat="42.95667" lon="0.84752">
        <ele>1478.4</ele>
        <time>2019-08-17T11:39:57Z</time>
      </trkpt>
      <trkpt lat="42.95667" lon="0.84752">
        <ele>1478.4</ele>
        <time>2019-08-17T11:39:58Z</time>
      </trkpt>
      <trkpt lat="42.95667" lon="0.84752">
        <ele>1478.4</ele>
        <time>2019-08-17T11:39:59Z</time>
      </trkpt>
      <trkpt lat="42.95667" lon="0.84752">
        <ele>1478.4</ele>
        <time>2019-08-17T11:40:00Z</time>
      </trkpt>
      <trkpt lat="42.95667" lon="0.84752">
        <ele>1478.4</ele>
        <time>2019-08-17T11:40:01Z</time>
      </trkpt>
      <trkpt lat="42.95667" lon="0.84752">
        <ele>1478.4</ele>
        <time>2019-08-17T11:40:02Z</time>
      </trkpt>
      <trkpt lat="42.95667" lon="0.84752">
        <ele>1478.4</ele>
        <time>2019-08-17T11:40:03Z</time>
      </trkpt>
      <trkpt lat="42.95667" lon="0.84752">
        <ele>1478.4</ele>
        <time>2019-08-17T11:40:04Z</time>
      </trkpt>
      <trkpt lat="42.95667" lon="0.84752">
        <ele>1478.4</ele>
        <time>2019-08-17T11:40:05Z</time>
      </trkpt>
      <trkpt lat="42.95667" lon="0.84752">
        <ele>1478.4</ele>
        <time>2019-08-17T11:40:06Z</time>
      </trkpt>
      <trkpt lat="42.95667" lon="0.84752">
        <ele>1478.4</ele>
        <time>2019-08-17T11:40:07Z</time>
      </trkpt>
      <trkpt lat="42.95667" lon="0.84752">
        <ele>1478.4</ele>
        <time>2019-08-17T11:40:08Z</time>
      </trkpt>
      <trkpt lat="42.95667" lon="0.84752">
        <ele>1478.4</ele>
        <time>2019-08-17T11:40:09Z</time>
      </trkpt>
      <trkpt lat="42.95667" lon="0.84752">
        <ele>1478.4</ele>
        <time>2019-08-17T11:40:10Z</time>
      </trkpt>
      <trkpt lat="42.95667" lon="0.84752">
        <ele>1478.4</ele>
        <time>2019-08-17T11:40:11Z</time>
      </trkpt>
      <trkpt lat="42.95667" lon="0.84752">
        <ele>1478.4</ele>
        <time>2019-08-17T11:40:12Z</time>
      </trkpt>
      <trkpt lat="42.95667" lon="0.84752">
        <ele>1478.4</ele>
        <time>2019-08-17T11:40:13Z</time>
      </trkpt>
      <trkpt lat="42.95667" lon="0.84752">
        <ele>1478.4</ele>
        <time>2019-08-17T11:40:14Z</time>
      </trkpt>
      <trkpt lat="42.95667" lon="0.84752">
        <ele>1478.4</ele>
        <time>2019-08-17T11:40:15Z</time>
      </trkpt>
      <trkpt lat="42.95667" lon="0.84752">
        <ele>1478.4</ele>
        <time>2019-08-17T11:40:16Z</time>
      </trkpt>
      <trkpt lat="42.95667" lon="0.84752">
        <ele>1478.4</ele>
        <time>2019-08-17T11:40:17Z</time>
      </trkpt>
      <trkpt lat="42.95667" lon="0.84752">
        <ele>1478.4</ele>
        <time>2019-08-17T11:40:18Z</time>
      </trkpt>
      <trkpt lat="42.95667" lon="0.84752">
        <ele>1478.4</ele>
        <time>2019-08-17T11:40:19Z</time>
      </trkpt>
      <trkpt lat="42.95667" lon="0.84752">
        <ele>1478.4</ele>
        <time>2019-08-17T11:40:20Z</time>
      </trkpt>
      <trkpt lat="42.95667" lon="0.84752">
        <ele>1478.4</ele>
        <time>2019-08-17T11:40:21Z</time>
      </trkpt>
      <trkpt lat="42.95667" lon="0.84752">
        <ele>1478.4</ele>
        <time>2019-08-17T11:40:22Z</time>
      </trkpt>
      <trkpt lat="42.95667" lon="0.84752">
        <ele>1478.4</ele>
        <time>2019-08-17T11:40:23Z</time>
      </trkpt>
      <trkpt lat="42.95667" lon="0.84752">
        <ele>1478.4</ele>
        <time>2019-08-17T11:40:24Z</time>
      </trkpt>
      <trkpt lat="42.95667" lon="0.84752">
        <ele>1478.4</ele>
        <time>2019-08-17T11:40:25Z</time>
      </trkpt>
      <trkpt lat="42.95667" lon="0.84752">
        <ele>1478.4</ele>
        <time>2019-08-17T11:40:26Z</time>
      </trkpt>
      <trkpt lat="42.95667" lon="0.84752">
        <ele>1478.4</ele>
        <time>2019-08-17T11:40:27Z</time>
      </trkpt>
      <trkpt lat="42.95667" lon="0.84752">
        <ele>1478.4</ele>
        <time>2019-08-17T11:40:28Z</time>
      </trkpt>
      <trkpt lat="42.95667" lon="0.84752">
        <ele>1478.4</ele>
        <time>2019-08-17T11:40:29Z</time>
      </trkpt>
      <trkpt lat="42.95667" lon="0.84752">
        <ele>1478.4</ele>
        <time>2019-08-17T11:40:30Z</time>
      </trkpt>
      <trkpt lat="42.95667" lon="0.84752">
        <ele>1478.4</ele>
        <time>2019-08-17T11:40:31Z</time>
      </trkpt>
      <trkpt lat="42.95667" lon="0.84752">
        <ele>1478.4</ele>
        <time>2019-08-17T11:40:32Z</time>
      </trkpt>
      <trkpt lat="42.95667" lon="0.84752">
        <ele>1478.4</ele>
        <time>2019-08-17T11:40:33Z</time>
      </trkpt>
      <trkpt lat="42.95667" lon="0.84752">
        <ele>1478.4</ele>
        <time>2019-08-17T11:40:34Z</time>
      </trkpt>
      <trkpt lat="42.95667" lon="0.84752">
        <ele>1478.4</ele>
        <time>2019-08-17T11:40:35Z</time>
      </trkpt>
      <trkpt lat="42.95667" lon="0.84752">
        <ele>1478.4</ele>
        <time>2019-08-17T11:40:36Z</time>
      </trkpt>
      <trkpt lat="42.95667" lon="0.84752">
        <ele>1478.4</ele>
        <time>2019-08-17T11:40:37Z</time>
      </trkpt>
      <trkpt lat="42.95667" lon="0.84752">
        <ele>1478.4</ele>
        <time>2019-08-17T11:40:38Z</time>
      </trkpt>
      <trkpt lat="42.95667" lon="0.84752">
        <ele>1478.4</ele>
        <time>2019-08-17T11:40:39Z</time>
      </trkpt>
      <trkpt lat="42.95667" lon="0.84752">
        <ele>1478.4</ele>
        <time>2019-08-17T11:40:40Z</time>
      </trkpt>
      <trkpt lat="42.95667" lon="0.84752">
        <ele>1478.4</ele>
        <time>2019-08-17T11:40:41Z</time>
      </trkpt>
      <trkpt lat="42.95667" lon="0.84752">
        <ele>1478.4</ele>
        <time>2019-08-17T11:40:42Z</time>
      </trkpt>
      <trkpt lat="42.95667" lon="0.84752">
        <ele>1478.4</ele>
        <time>2019-08-17T11:40:43Z</time>
      </trkpt>
      <trkpt lat="42.95667" lon="0.84752">
        <ele>1478.4</ele>
        <time>2019-08-17T11:40:44Z</time>
      </trkpt>
      <trkpt lat="42.95667" lon="0.84752">
        <ele>1478.4</ele>
        <time>2019-08-17T11:40:45Z</time>
      </trkpt>
      <trkpt lat="42.95667" lon="0.84752">
        <ele>1478.4</ele>
        <time>2019-08-17T11:40:46Z</time>
      </trkpt>
      <trkpt lat="42.95667" lon="0.84752">
        <ele>1478.4</ele>
        <time>2019-08-17T11:40:47Z</time>
      </trkpt>
      <trkpt lat="42.95667" lon="0.84752">
        <ele>1478.4</ele>
        <time>2019-08-17T11:40:48Z</time>
      </trkpt>
      <trkpt lat="42.95667" lon="0.84752">
        <ele>1478.4</ele>
        <time>2019-08-17T11:40:49Z</time>
      </trkpt>
      <trkpt lat="42.95667" lon="0.84752">
        <ele>1478.4</ele>
        <time>2019-08-17T11:40:50Z</time>
      </trkpt>
      <trkpt lat="42.95667" lon="0.84752">
        <ele>1478.4</ele>
        <time>2019-08-17T11:40:51Z</time>
      </trkpt>
      <trkpt lat="42.95667" lon="0.84752">
        <ele>1478.4</ele>
        <time>2019-08-17T11:40:52Z</time>
      </trkpt>
      <trkpt lat="42.95667" lon="0.84752">
        <ele>1478.4</ele>
        <time>2019-08-17T11:40:53Z</time>
      </trkpt>
      <trkpt lat="42.95667" lon="0.84752">
        <ele>1478.4</ele>
        <time>2019-08-17T11:40:54Z</time>
      </trkpt>
      <trkpt lat="42.95667" lon="0.84752">
        <ele>1478.4</ele>
        <time>2019-08-17T11:40:55Z</time>
      </trkpt>
      <trkpt lat="42.95667" lon="0.84752">
        <ele>1478.4</ele>
        <time>2019-08-17T11:40:56Z</time>
      </trkpt>
      <trkpt lat="42.95667" lon="0.84752">
        <ele>1478.4</ele>
        <time>2019-08-17T11:40:57Z</time>
      </trkpt>
      <trkpt lat="42.95667" lon="0.84752">
        <ele>1478.4</ele>
        <time>2019-08-17T11:40:58Z</time>
      </trkpt>
      <trkpt lat="42.95667" lon="0.84752">
        <ele>1478.4</ele>
        <time>2019-08-17T11:40:59Z</time>
      </trkpt>
      <trkpt lat="42.95667" lon="0.84752">
        <ele>1478.4</ele>
        <time>2019-08-17T11:41:00Z</time>
      </trkpt>
      <trkpt lat="42.95667" lon="0.84752">
        <ele>1478.4</ele>
        <time>2019-08-17T11:41:01Z</time>
      </trkpt>
      <trkpt lat="42.95667" lon="0.84752">
        <ele>1478.4</ele>
        <time>2019-08-17T11:41:02Z</time>
      </trkpt>
      <trkpt lat="42.95667" lon="0.84752">
        <ele>1478.4</ele>
        <time>2019-08-17T11:41:03Z</time>
      </trkpt>
      <trkpt lat="42.95667" lon="0.84752">
        <ele>1478.4</ele>
        <time>2019-08-17T11:41:04Z</time>
      </trkpt>
      <trkpt lat="42.95667" lon="0.84752">
        <ele>1478.4</ele>
        <time>2019-08-17T11:41:05Z</time>
      </trkpt>
      <trkpt lat="42.95667" lon="0.84752">
        <ele>1478.4</ele>
        <time>2019-08-17T11:41:06Z</time>
      </trkpt>
      <trkpt lat="42.95667" lon="0.84752">
        <ele>1478.4</ele>
        <time>2019-08-17T11:41:07Z</time>
      </trkpt>
      <trkpt lat="42.95667" lon="0.84752">
        <ele>1478.4</ele>
        <time>2019-08-17T11:41:08Z</time>
      </trkpt>
      <trkpt lat="42.95667" lon="0.84752">
        <ele>1478.4</ele>
        <time>2019-08-17T11:41:09Z</time>
      </trkpt>
      <trkpt lat="42.95667" lon="0.84752">
        <ele>1478.4</ele>
        <time>2019-08-17T11:41:10Z</time>
      </trkpt>
      <trkpt lat="42.95667" lon="0.84752">
        <ele>1478.4</ele>
        <time>2019-08-17T11:41:11Z</time>
      </trkpt>
      <trkpt lat="42.95667" lon="0.84752">
        <ele>1478.4</ele>
        <time>2019-08-17T11:41:12Z</time>
      </trkpt>
      <trkpt lat="42.95667" lon="0.84752">
        <ele>1478.4</ele>
        <time>2019-08-17T11:41:13Z</time>
      </trkpt>
      <trkpt lat="42.95667" lon="0.84752">
        <ele>1478.4</ele>
        <time>2019-08-17T11:41:14Z</time>
      </trkpt>
      <trkpt lat="42.95667" lon="0.84752">
        <ele>1478.4</ele>
        <time>2019-08-17T11:41:15Z</time>
      </trkpt>
      <trkpt lat="42.95667" lon="0.84752">
        <ele>1478.4</ele>
        <time>2019-08-17T11:41:16Z</time>
      </trkpt>
      <trkpt lat="42.95667" lon="0.84752">
        <ele>1478.4</ele>
        <time>2019-08-17T11:41:17Z</time>
      </trkpt>
      <trkpt lat="42.95667" lon="0.84752">
        <ele>1478.4</ele>
        <time>2019-08-17T11:41:18Z</time>
      </trkpt>
      <trkpt lat="42.95667" lon="0.84752">
        <ele>1478.4</ele>
        <time>2019-08-17T11:41:19Z</time>
      </trkpt>
      <trkpt lat="42.95667" lon="0.84752">
        <ele>1478.4</ele>
        <time>2019-08-17T11:41:20Z</time>
      </trkpt>
      <trkpt lat="42.95667" lon="0.84752">
        <ele>1478.4</ele>
        <time>2019-08-17T11:41:21Z</time>
      </trkpt>
      <trkpt lat="42.95667" lon="0.84752">
        <ele>1478.4</ele>
        <time>2019-08-17T11:41:22Z</time>
      </trkpt>
      <trkpt lat="42.95667" lon="0.84752">
        <ele>1478.4</ele>
        <time>2019-08-17T11:41:23Z</time>
      </trkpt>
      <trkpt lat="42.95667" lon="0.84752">
        <ele>1478.4</ele>
        <time>2019-08-17T11:41:24Z</time>
      </trkpt>
      <trkpt lat="42.95667" lon="0.84752">
        <ele>1478.4</ele>
        <time>2019-08-17T11:41:25Z</time>
      </trkpt>
      <trkpt lat="42.95667" lon="0.84752">
        <ele>1478.4</ele>
        <time>2019-08-17T11:41:26Z</time>
      </trkpt>
      <trkpt lat="42.95667" lon="0.84752">
        <ele>1478.4</ele>
        <time>2019-08-17T11:41:27Z</time>
      </trkpt>
      <trkpt lat="42.95667" lon="0.84752">
        <ele>1478.4</ele>
        <time>2019-08-17T11:41:28Z</time>
      </trkpt>
      <trkpt lat="42.95667" lon="0.84752">
        <ele>1478.4</ele>
        <time>2019-08-17T11:41:29Z</time>
      </trkpt>
      <trkpt lat="42.95667" lon="0.84752">
        <ele>1478.4</ele>
        <time>2019-08-17T11:41:30Z</time>
      </trkpt>
      <trkpt lat="42.95667" lon="0.84752">
        <ele>1478.4</ele>
        <time>2019-08-17T11:41:31Z</time>
      </trkpt>
      <trkpt lat="42.95667" lon="0.84752">
        <ele>1478.3</ele>
        <time>2019-08-17T11:41:32Z</time>
      </trkpt>
      <trkpt lat="42.95666" lon="0.84753">
        <ele>1478.2</ele>
        <time>2019-08-17T11:41:33Z</time>
      </trkpt>
      <trkpt lat="42.95664" lon="0.84753">
        <ele>1478.1</ele>
        <time>2019-08-17T11:41:34Z</time>
      </trkpt>
      <trkpt lat="42.95663" lon="0.84754">
        <ele>1477.9</ele>
        <time>2019-08-17T11:41:35Z</time>
      </trkpt>
      <trkpt lat="42.95662" lon="0.84754">
        <ele>1477.9</ele>
        <time>2019-08-17T11:41:36Z</time>
      </trkpt>
      <trkpt lat="42.95662" lon="0.84754">
        <ele>1477.9</ele>
        <time>2019-08-17T11:41:37Z</time>
      </trkpt>
      <trkpt lat="42.95662" lon="0.84754">
        <ele>1477.9</ele>
        <time>2019-08-17T11:41:38Z</time>
      </trkpt>
      <trkpt lat="42.95662" lon="0.84754">
        <ele>1477.9</ele>
        <time>2019-08-17T11:41:39Z</time>
      </trkpt>
      <trkpt lat="42.95662" lon="0.84754">
        <ele>1477.9</ele>
        <time>2019-08-17T11:41:40Z</time>
      </trkpt>
      <trkpt lat="42.95662" lon="0.84754">
        <ele>1477.9</ele>
        <time>2019-08-17T11:41:41Z</time>
      </trkpt>
      <trkpt lat="42.95662" lon="0.84754">
        <ele>1477.9</ele>
        <time>2019-08-17T11:41:42Z</time>
      </trkpt>
      <trkpt lat="42.95662" lon="0.84754">
        <ele>1477.9</ele>
        <time>2019-08-17T11:41:43Z</time>
      </trkpt>
      <trkpt lat="42.95662" lon="0.84754">
        <ele>1477.9</ele>
        <time>2019-08-17T11:41:44Z</time>
      </trkpt>
      <trkpt lat="42.95662" lon="0.84754">
        <ele>1477.9</ele>
        <time>2019-08-17T11:41:45Z</time>
      </trkpt>
      <trkpt lat="42.95662" lon="0.84754">
        <ele>1477.9</ele>
        <time>2019-08-17T11:41:46Z</time>
      </trkpt>
      <trkpt lat="42.95662" lon="0.84754">
        <ele>1477.9</ele>
        <time>2019-08-17T11:41:47Z</time>
      </trkpt>
      <trkpt lat="42.95662" lon="0.84754">
        <ele>1477.9</ele>
        <time>2019-08-17T11:41:48Z</time>
      </trkpt>
      <trkpt lat="42.95662" lon="0.84754">
        <ele>1477.9</ele>
        <time>2019-08-17T11:41:49Z</time>
      </trkpt>
      <trkpt lat="42.95662" lon="0.84754">
        <ele>1477.9</ele>
        <time>2019-08-17T11:41:50Z</time>
      </trkpt>
      <trkpt lat="42.95662" lon="0.84754">
        <ele>1477.9</ele>
        <time>2019-08-17T11:41:51Z</time>
      </trkpt>
      <trkpt lat="42.95662" lon="0.84754">
        <ele>1477.9</ele>
        <time>2019-08-17T11:41:52Z</time>
      </trkpt>
      <trkpt lat="42.95662" lon="0.84754">
        <ele>1477.9</ele>
        <time>2019-08-17T11:41:53Z</time>
      </trkpt>
      <trkpt lat="42.95662" lon="0.84754">
        <ele>1477.9</ele>
        <time>2019-08-17T11:41:54Z</time>
      </trkpt>
      <trkpt lat="42.95662" lon="0.84754">
        <ele>1477.9</ele>
        <time>2019-08-17T11:41:55Z</time>
      </trkpt>
      <trkpt lat="42.95662" lon="0.84754">
        <ele>1477.9</ele>
        <time>2019-08-17T11:41:56Z</time>
      </trkpt>
      <trkpt lat="42.95662" lon="0.84754">
        <ele>1477.9</ele>
        <time>2019-08-17T11:41:57Z</time>
      </trkpt>
      <trkpt lat="42.95662" lon="0.84754">
        <ele>1477.9</ele>
        <time>2019-08-17T11:41:58Z</time>
      </trkpt>
      <trkpt lat="42.95662" lon="0.84754">
        <ele>1477.9</ele>
        <time>2019-08-17T11:41:59Z</time>
      </trkpt>
      <trkpt lat="42.95662" lon="0.84754">
        <ele>1477.9</ele>
        <time>2019-08-17T11:42:00Z</time>
      </trkpt>
      <trkpt lat="42.95662" lon="0.84754">
        <ele>1477.9</ele>
        <time>2019-08-17T11:42:01Z</time>
      </trkpt>
      <trkpt lat="42.95662" lon="0.84754">
        <ele>1477.9</ele>
        <time>2019-08-17T11:42:02Z</time>
      </trkpt>
      <trkpt lat="42.95662" lon="0.84754">
        <ele>1477.9</ele>
        <time>2019-08-17T11:42:03Z</time>
      </trkpt>
      <trkpt lat="42.95662" lon="0.84754">
        <ele>1477.9</ele>
        <time>2019-08-17T11:42:04Z</time>
      </trkpt>
      <trkpt lat="42.95662" lon="0.84754">
        <ele>1477.9</ele>
        <time>2019-08-17T11:42:05Z</time>
      </trkpt>
      <trkpt lat="42.95662" lon="0.84754">
        <ele>1477.9</ele>
        <time>2019-08-17T11:42:06Z</time>
      </trkpt>
      <trkpt lat="42.95662" lon="0.84754">
        <ele>1477.9</ele>
        <time>2019-08-17T11:42:07Z</time>
      </trkpt>
      <trkpt lat="42.95662" lon="0.84754">
        <ele>1477.9</ele>
        <time>2019-08-17T11:42:08Z</time>
      </trkpt>
      <trkpt lat="42.95662" lon="0.84754">
        <ele>1477.9</ele>
        <time>2019-08-17T11:42:09Z</time>
      </trkpt>
      <trkpt lat="42.95662" lon="0.84754">
        <ele>1477.9</ele>
        <time>2019-08-17T11:42:10Z</time>
      </trkpt>
      <trkpt lat="42.95662" lon="0.84754">
        <ele>1477.9</ele>
        <time>2019-08-17T11:42:11Z</time>
      </trkpt>
      <trkpt lat="42.95662" lon="0.84754">
        <ele>1477.9</ele>
        <time>2019-08-17T11:42:12Z</time>
      </trkpt>
      <trkpt lat="42.95662" lon="0.84754">
        <ele>1477.9</ele>
        <time>2019-08-17T11:42:13Z</time>
      </trkpt>
      <trkpt lat="42.95662" lon="0.84754">
        <ele>1477.9</ele>
        <time>2019-08-17T11:42:14Z</time>
      </trkpt>
      <trkpt lat="42.95662" lon="0.84754">
        <ele>1477.9</ele>
        <time>2019-08-17T11:42:15Z</time>
      </trkpt>
      <trkpt lat="42.95662" lon="0.84754">
        <ele>1477.9</ele>
        <time>2019-08-17T11:42:16Z</time>
      </trkpt>
      <trkpt lat="42.95662" lon="0.84754">
        <ele>1477.9</ele>
        <time>2019-08-17T11:42:17Z</time>
      </trkpt>
      <trkpt lat="42.95662" lon="0.84754">
        <ele>1477.9</ele>
        <time>2019-08-17T11:42:18Z</time>
      </trkpt>
      <trkpt lat="42.95662" lon="0.84754">
        <ele>1477.9</ele>
        <time>2019-08-17T11:42:19Z</time>
      </trkpt>
      <trkpt lat="42.95662" lon="0.84754">
        <ele>1477.9</ele>
        <time>2019-08-17T11:42:20Z</time>
      </trkpt>
      <trkpt lat="42.95662" lon="0.84754">
        <ele>1477.9</ele>
        <time>2019-08-17T11:42:21Z</time>
      </trkpt>
      <trkpt lat="42.95662" lon="0.84754">
        <ele>1477.9</ele>
        <time>2019-08-17T11:42:22Z</time>
      </trkpt>
      <trkpt lat="42.95662" lon="0.84754">
        <ele>1477.9</ele>
        <time>2019-08-17T11:42:23Z</time>
      </trkpt>
      <trkpt lat="42.95662" lon="0.84754">
        <ele>1477.9</ele>
        <time>2019-08-17T11:42:24Z</time>
      </trkpt>
      <trkpt lat="42.95662" lon="0.84754">
        <ele>1477.9</ele>
        <time>2019-08-17T11:42:25Z</time>
      </trkpt>
      <trkpt lat="42.95662" lon="0.84754">
        <ele>1477.9</ele>
        <time>2019-08-17T11:42:26Z</time>
      </trkpt>
      <trkpt lat="42.95662" lon="0.84754">
        <ele>1477.9</ele>
        <time>2019-08-17T11:42:27Z</time>
      </trkpt>
      <trkpt lat="42.95662" lon="0.84754">
        <ele>1477.9</ele>
        <time>2019-08-17T11:42:28Z</time>
      </trkpt>
      <trkpt lat="42.95662" lon="0.84754">
        <ele>1477.9</ele>
        <time>2019-08-17T11:42:29Z</time>
      </trkpt>
      <trkpt lat="42.95662" lon="0.84754">
        <ele>1477.9</ele>
        <time>2019-08-17T11:42:30Z</time>
      </trkpt>
      <trkpt lat="42.95662" lon="0.84754">
        <ele>1477.9</ele>
        <time>2019-08-17T11:42:31Z</time>
      </trkpt>
      <trkpt lat="42.95662" lon="0.84754">
        <ele>1477.9</ele>
        <time>2019-08-17T11:42:32Z</time>
      </trkpt>
      <trkpt lat="42.95662" lon="0.84754">
        <ele>1477.9</ele>
        <time>2019-08-17T11:42:33Z</time>
      </trkpt>
      <trkpt lat="42.95662" lon="0.84754">
        <ele>1477.9</ele>
        <time>2019-08-17T11:42:34Z</time>
      </trkpt>
      <trkpt lat="42.95662" lon="0.84754">
        <ele>1477.9</ele>
        <time>2019-08-17T11:42:35Z</time>
      </trkpt>
      <trkpt lat="42.95662" lon="0.84754">
        <ele>1477.9</ele>
        <time>2019-08-17T11:42:36Z</time>
      </trkpt>
      <trkpt lat="42.95662" lon="0.84754">
        <ele>1477.9</ele>
        <time>2019-08-17T11:42:37Z</time>
      </trkpt>
      <trkpt lat="42.95662" lon="0.84754">
        <ele>1477.9</ele>
        <time>2019-08-17T11:42:38Z</time>
      </trkpt>
      <trkpt lat="42.95662" lon="0.84754">
        <ele>1477.9</ele>
        <time>2019-08-17T11:42:39Z</time>
      </trkpt>
      <trkpt lat="42.95662" lon="0.84754">
        <ele>1477.9</ele>
        <time>2019-08-17T11:42:40Z</time>
      </trkpt>
      <trkpt lat="42.95662" lon="0.84754">
        <ele>1477.9</ele>
        <time>2019-08-17T11:42:41Z</time>
      </trkpt>
      <trkpt lat="42.95662" lon="0.84754">
        <ele>1477.9</ele>
        <time>2019-08-17T11:42:42Z</time>
      </trkpt>
      <trkpt lat="42.95662" lon="0.84754">
        <ele>1477.9</ele>
        <time>2019-08-17T11:42:43Z</time>
      </trkpt>
      <trkpt lat="42.95662" lon="0.84754">
        <ele>1477.9</ele>
        <time>2019-08-17T11:42:44Z</time>
      </trkpt>
      <trkpt lat="42.95662" lon="0.84754">
        <ele>1477.9</ele>
        <time>2019-08-17T11:42:45Z</time>
      </trkpt>
      <trkpt lat="42.95662" lon="0.84754">
        <ele>1477.9</ele>
        <time>2019-08-17T11:42:46Z</time>
      </trkpt>
      <trkpt lat="42.95662" lon="0.84754">
        <ele>1477.9</ele>
        <time>2019-08-17T11:42:47Z</time>
      </trkpt>
      <trkpt lat="42.95662" lon="0.84754">
        <ele>1477.9</ele>
        <time>2019-08-17T11:42:48Z</time>
      </trkpt>
      <trkpt lat="42.95662" lon="0.84754">
        <ele>1477.9</ele>
        <time>2019-08-17T11:42:49Z</time>
      </trkpt>
      <trkpt lat="42.95662" lon="0.84754">
        <ele>1477.9</ele>
        <time>2019-08-17T11:42:50Z</time>
      </trkpt>
      <trkpt lat="42.95662" lon="0.84754">
        <ele>1477.9</ele>
        <time>2019-08-17T11:42:51Z</time>
      </trkpt>
      <trkpt lat="42.95662" lon="0.84754">
        <ele>1477.9</ele>
        <time>2019-08-17T11:42:52Z</time>
      </trkpt>
      <trkpt lat="42.95662" lon="0.84754">
        <ele>1477.9</ele>
        <time>2019-08-17T11:42:53Z</time>
      </trkpt>
      <trkpt lat="42.95662" lon="0.84754">
        <ele>1477.9</ele>
        <time>2019-08-17T11:42:54Z</time>
      </trkpt>
      <trkpt lat="42.95662" lon="0.84754">
        <ele>1477.9</ele>
        <time>2019-08-17T11:42:55Z</time>
      </trkpt>
      <trkpt lat="42.95662" lon="0.84754">
        <ele>1477.9</ele>
        <time>2019-08-17T11:42:56Z</time>
      </trkpt>
      <trkpt lat="42.95662" lon="0.84754">
        <ele>1477.9</ele>
        <time>2019-08-17T11:42:57Z</time>
      </trkpt>
      <trkpt lat="42.95662" lon="0.84754">
        <ele>1477.9</ele>
        <time>2019-08-17T11:42:58Z</time>
      </trkpt>
      <trkpt lat="42.95662" lon="0.84754">
        <ele>1477.9</ele>
        <time>2019-08-17T11:42:59Z</time>
      </trkpt>
      <trkpt lat="42.95662" lon="0.84754">
        <ele>1477.9</ele>
        <time>2019-08-17T11:43:00Z</time>
      </trkpt>
      <trkpt lat="42.95662" lon="0.84754">
        <ele>1477.9</ele>
        <time>2019-08-17T11:43:01Z</time>
      </trkpt>
      <trkpt lat="42.95662" lon="0.84754">
        <ele>1477.9</ele>
        <time>2019-08-17T11:43:02Z</time>
      </trkpt>
      <trkpt lat="42.95662" lon="0.84754">
        <ele>1477.9</ele>
        <time>2019-08-17T11:43:03Z</time>
      </trkpt>
      <trkpt lat="42.95662" lon="0.84754">
        <ele>1477.9</ele>
        <time>2019-08-17T11:43:04Z</time>
      </trkpt>
      <trkpt lat="42.95662" lon="0.84754">
        <ele>1477.9</ele>
        <time>2019-08-17T11:43:05Z</time>
      </trkpt>
      <trkpt lat="42.95662" lon="0.84754">
        <ele>1477.9</ele>
        <time>2019-08-17T11:43:06Z</time>
      </trkpt>
      <trkpt lat="42.95662" lon="0.84754">
        <ele>1477.9</ele>
        <time>2019-08-17T11:43:07Z</time>
      </trkpt>
      <trkpt lat="42.95662" lon="0.84754">
        <ele>1477.9</ele>
        <time>2019-08-17T11:43:08Z</time>
      </trkpt>
      <trkpt lat="42.95662" lon="0.84754">
        <ele>1477.9</ele>
        <time>2019-08-17T11:43:09Z</time>
      </trkpt>
      <trkpt lat="42.95662" lon="0.84754">
        <ele>1477.9</ele>
        <time>2019-08-17T11:43:10Z</time>
      </trkpt>
      <trkpt lat="42.95662" lon="0.84754">
        <ele>1477.9</ele>
        <time>2019-08-17T11:43:11Z</time>
      </trkpt>
      <trkpt lat="42.95662" lon="0.84754">
        <ele>1477.9</ele>
        <time>2019-08-17T11:43:12Z</time>
      </trkpt>
      <trkpt lat="42.95662" lon="0.84754">
        <ele>1477.9</ele>
        <time>2019-08-17T11:43:13Z</time>
      </trkpt>
      <trkpt lat="42.95662" lon="0.84754">
        <ele>1477.9</ele>
        <time>2019-08-17T11:43:14Z</time>
      </trkpt>
      <trkpt lat="42.95662" lon="0.84754">
        <ele>1477.9</ele>
        <time>2019-08-17T11:43:15Z</time>
      </trkpt>
      <trkpt lat="42.95662" lon="0.84754">
        <ele>1477.9</ele>
        <time>2019-08-17T11:43:16Z</time>
      </trkpt>
      <trkpt lat="42.95662" lon="0.84754">
        <ele>1477.9</ele>
        <time>2019-08-17T11:43:17Z</time>
      </trkpt>
      <trkpt lat="42.95662" lon="0.84754">
        <ele>1477.9</ele>
        <time>2019-08-17T11:43:18Z</time>
      </trkpt>
      <trkpt lat="42.95662" lon="0.84754">
        <ele>1477.9</ele>
        <time>2019-08-17T11:43:19Z</time>
      </trkpt>
      <trkpt lat="42.95662" lon="0.84754">
        <ele>1477.9</ele>
        <time>2019-08-17T11:43:20Z</time>
      </trkpt>
      <trkpt lat="42.95662" lon="0.84754">
        <ele>1477.9</ele>
        <time>2019-08-17T11:43:21Z</time>
      </trkpt>
      <trkpt lat="42.95662" lon="0.84754">
        <ele>1477.9</ele>
        <time>2019-08-17T11:43:22Z</time>
      </trkpt>
      <trkpt lat="42.95662" lon="0.84754">
        <ele>1477.9</ele>
        <time>2019-08-17T11:43:23Z</time>
      </trkpt>
      <trkpt lat="42.95662" lon="0.84754">
        <ele>1477.9</ele>
        <time>2019-08-17T11:43:24Z</time>
      </trkpt>
      <trkpt lat="42.95662" lon="0.84754">
        <ele>1477.9</ele>
        <time>2019-08-17T11:43:25Z</time>
      </trkpt>
      <trkpt lat="42.95662" lon="0.84754">
        <ele>1477.9</ele>
        <time>2019-08-17T11:43:26Z</time>
      </trkpt>
      <trkpt lat="42.95662" lon="0.84754">
        <ele>1477.9</ele>
        <time>2019-08-17T11:43:27Z</time>
      </trkpt>
      <trkpt lat="42.95662" lon="0.84754">
        <ele>1477.9</ele>
        <time>2019-08-17T11:43:28Z</time>
      </trkpt>
      <trkpt lat="42.95662" lon="0.84754">
        <ele>1477.9</ele>
        <time>2019-08-17T11:43:29Z</time>
      </trkpt>
      <trkpt lat="42.95662" lon="0.84754">
        <ele>1477.9</ele>
        <time>2019-08-17T11:43:30Z</time>
      </trkpt>
      <trkpt lat="42.95662" lon="0.84754">
        <ele>1477.9</ele>
        <time>2019-08-17T11:43:31Z</time>
      </trkpt>
      <trkpt lat="42.95662" lon="0.84754">
        <ele>1477.9</ele>
        <time>2019-08-17T11:43:32Z</time>
      </trkpt>
      <trkpt lat="42.95662" lon="0.84754">
        <ele>1477.9</ele>
        <time>2019-08-17T11:43:33Z</time>
      </trkpt>
      <trkpt lat="42.95662" lon="0.84754">
        <ele>1477.9</ele>
        <time>2019-08-17T11:43:34Z</time>
      </trkpt>
      <trkpt lat="42.95662" lon="0.84754">
        <ele>1477.9</ele>
        <time>2019-08-17T11:43:35Z</time>
      </trkpt>
      <trkpt lat="42.95662" lon="0.84754">
        <ele>1477.9</ele>
        <time>2019-08-17T11:43:36Z</time>
      </trkpt>
      <trkpt lat="42.95662" lon="0.84754">
        <ele>1477.9</ele>
        <time>2019-08-17T11:43:37Z</time>
      </trkpt>
      <trkpt lat="42.95662" lon="0.84754">
        <ele>1477.9</ele>
        <time>2019-08-17T11:43:38Z</time>
      </trkpt>
      <trkpt lat="42.95662" lon="0.84754">
        <ele>1477.9</ele>
        <time>2019-08-17T11:43:39Z</time>
      </trkpt>
      <trkpt lat="42.95662" lon="0.84754">
        <ele>1477.9</ele>
        <time>2019-08-17T11:43:40Z</time>
      </trkpt>
      <trkpt lat="42.95662" lon="0.84754">
        <ele>1477.9</ele>
        <time>2019-08-17T11:43:41Z</time>
      </trkpt>
      <trkpt lat="42.95662" lon="0.84754">
        <ele>1477.9</ele>
        <time>2019-08-17T11:43:42Z</time>
      </trkpt>
      <trkpt lat="42.95662" lon="0.84754">
        <ele>1477.9</ele>
        <time>2019-08-17T11:43:43Z</time>
      </trkpt>
      <trkpt lat="42.95662" lon="0.84754">
        <ele>1477.9</ele>
        <time>2019-08-17T11:43:44Z</time>
      </trkpt>
      <trkpt lat="42.95662" lon="0.84754">
        <ele>1477.9</ele>
        <time>2019-08-17T11:43:45Z</time>
      </trkpt>
      <trkpt lat="42.95662" lon="0.84754">
        <ele>1477.9</ele>
        <time>2019-08-17T11:43:46Z</time>
      </trkpt>
      <trkpt lat="42.95662" lon="0.84754">
        <ele>1477.9</ele>
        <time>2019-08-17T11:43:47Z</time>
      </trkpt>
      <trkpt lat="42.95662" lon="0.84754">
        <ele>1477.9</ele>
        <time>2019-08-17T11:43:48Z</time>
      </trkpt>
      <trkpt lat="42.95662" lon="0.84754">
        <ele>1477.9</ele>
        <time>2019-08-17T11:43:49Z</time>
      </trkpt>
      <trkpt lat="42.95662" lon="0.84754">
        <ele>1477.9</ele>
        <time>2019-08-17T11:43:50Z</time>
      </trkpt>
      <trkpt lat="42.95662" lon="0.84754">
        <ele>1477.9</ele>
        <time>2019-08-17T11:43:51Z</time>
      </trkpt>
      <trkpt lat="42.95662" lon="0.84754">
        <ele>1477.9</ele>
        <time>2019-08-17T11:43:52Z</time>
      </trkpt>
      <trkpt lat="42.95662" lon="0.84754">
        <ele>1477.9</ele>
        <time>2019-08-17T11:43:53Z</time>
      </trkpt>
      <trkpt lat="42.95662" lon="0.84754">
        <ele>1477.9</ele>
        <time>2019-08-17T11:43:54Z</time>
      </trkpt>
      <trkpt lat="42.95662" lon="0.84754">
        <ele>1477.9</ele>
        <time>2019-08-17T11:43:55Z</time>
      </trkpt>
      <trkpt lat="42.95662" lon="0.84754">
        <ele>1477.9</ele>
        <time>2019-08-17T11:43:56Z</time>
      </trkpt>
      <trkpt lat="42.95662" lon="0.84754">
        <ele>1477.9</ele>
        <time>2019-08-17T11:43:57Z</time>
      </trkpt>
      <trkpt lat="42.95662" lon="0.84754">
        <ele>1477.9</ele>
        <time>2019-08-17T11:43:58Z</time>
      </trkpt>
      <trkpt lat="42.95662" lon="0.84754">
        <ele>1477.9</ele>
        <time>2019-08-17T11:43:59Z</time>
      </trkpt>
      <trkpt lat="42.95662" lon="0.84754">
        <ele>1477.9</ele>
        <time>2019-08-17T11:44:00Z</time>
      </trkpt>
      <trkpt lat="42.95662" lon="0.84754">
        <ele>1477.9</ele>
        <time>2019-08-17T11:44:01Z</time>
      </trkpt>
      <trkpt lat="42.95662" lon="0.84754">
        <ele>1477.9</ele>
        <time>2019-08-17T11:44:02Z</time>
      </trkpt>
      <trkpt lat="42.95662" lon="0.84754">
        <ele>1477.9</ele>
        <time>2019-08-17T11:44:03Z</time>
      </trkpt>
      <trkpt lat="42.95662" lon="0.84754">
        <ele>1477.9</ele>
        <time>2019-08-17T11:44:04Z</time>
      </trkpt>
      <trkpt lat="42.95662" lon="0.84754">
        <ele>1477.9</ele>
        <time>2019-08-17T11:44:05Z</time>
      </trkpt>
      <trkpt lat="42.95662" lon="0.84754">
        <ele>1477.9</ele>
        <time>2019-08-17T11:44:06Z</time>
      </trkpt>
      <trkpt lat="42.95662" lon="0.84754">
        <ele>1477.9</ele>
        <time>2019-08-17T11:44:07Z</time>
      </trkpt>
      <trkpt lat="42.95662" lon="0.84754">
        <ele>1477.9</ele>
        <time>2019-08-17T11:44:08Z</time>
      </trkpt>
      <trkpt lat="42.95662" lon="0.84754">
        <ele>1477.9</ele>
        <time>2019-08-17T11:44:09Z</time>
      </trkpt>
      <trkpt lat="42.95662" lon="0.84754">
        <ele>1477.9</ele>
        <time>2019-08-17T11:44:10Z</time>
      </trkpt>
      <trkpt lat="42.95662" lon="0.84754">
        <ele>1477.9</ele>
        <time>2019-08-17T11:44:11Z</time>
      </trkpt>
      <trkpt lat="42.95662" lon="0.84754">
        <ele>1477.9</ele>
        <time>2019-08-17T11:44:12Z</time>
      </trkpt>
      <trkpt lat="42.95662" lon="0.84754">
        <ele>1477.9</ele>
        <time>2019-08-17T11:44:13Z</time>
      </trkpt>
      <trkpt lat="42.95662" lon="0.84754">
        <ele>1477.9</ele>
        <time>2019-08-17T11:44:14Z</time>
      </trkpt>
      <trkpt lat="42.95662" lon="0.84754">
        <ele>1477.9</ele>
        <time>2019-08-17T11:44:15Z</time>
      </trkpt>
      <trkpt lat="42.95662" lon="0.84754">
        <ele>1477.9</ele>
        <time>2019-08-17T11:44:16Z</time>
      </trkpt>
      <trkpt lat="42.95662" lon="0.84754">
        <ele>1477.9</ele>
        <time>2019-08-17T11:44:17Z</time>
      </trkpt>
      <trkpt lat="42.95662" lon="0.84754">
        <ele>1477.9</ele>
        <time>2019-08-17T11:44:18Z</time>
      </trkpt>
      <trkpt lat="42.95662" lon="0.84754">
        <ele>1477.9</ele>
        <time>2019-08-17T11:44:19Z</time>
      </trkpt>
      <trkpt lat="42.95662" lon="0.84754">
        <ele>1477.9</ele>
        <time>2019-08-17T11:44:20Z</time>
      </trkpt>
      <trkpt lat="42.95662" lon="0.84754">
        <ele>1477.9</ele>
        <time>2019-08-17T11:44:21Z</time>
      </trkpt>
      <trkpt lat="42.95662" lon="0.84754">
        <ele>1477.9</ele>
        <time>2019-08-17T11:44:22Z</time>
      </trkpt>
      <trkpt lat="42.95662" lon="0.84754">
        <ele>1477.9</ele>
        <time>2019-08-17T11:44:23Z</time>
      </trkpt>
      <trkpt lat="42.95662" lon="0.84754">
        <ele>1477.9</ele>
        <time>2019-08-17T11:44:24Z</time>
      </trkpt>
      <trkpt lat="42.95662" lon="0.84754">
        <ele>1477.9</ele>
        <time>2019-08-17T11:44:25Z</time>
      </trkpt>
      <trkpt lat="42.95662" lon="0.84754">
        <ele>1477.9</ele>
        <time>2019-08-17T11:44:26Z</time>
      </trkpt>
      <trkpt lat="42.95662" lon="0.84754">
        <ele>1477.9</ele>
        <time>2019-08-17T11:44:27Z</time>
      </trkpt>
      <trkpt lat="42.95662" lon="0.84754">
        <ele>1477.9</ele>
        <time>2019-08-17T11:44:28Z</time>
      </trkpt>
      <trkpt lat="42.95662" lon="0.84754">
        <ele>1477.9</ele>
        <time>2019-08-17T11:44:29Z</time>
      </trkpt>
      <trkpt lat="42.95662" lon="0.84754">
        <ele>1477.9</ele>
        <time>2019-08-17T11:44:30Z</time>
      </trkpt>
      <trkpt lat="42.95662" lon="0.84754">
        <ele>1477.9</ele>
        <time>2019-08-17T11:44:31Z</time>
      </trkpt>
      <trkpt lat="42.95662" lon="0.84754">
        <ele>1477.9</ele>
        <time>2019-08-17T11:44:32Z</time>
      </trkpt>
      <trkpt lat="42.95662" lon="0.84754">
        <ele>1477.9</ele>
        <time>2019-08-17T11:44:33Z</time>
      </trkpt>
      <trkpt lat="42.95662" lon="0.84754">
        <ele>1477.9</ele>
        <time>2019-08-17T11:44:34Z</time>
      </trkpt>
      <trkpt lat="42.95662" lon="0.84754">
        <ele>1477.9</ele>
        <time>2019-08-17T11:44:35Z</time>
      </trkpt>
      <trkpt lat="42.95662" lon="0.84754">
        <ele>1477.9</ele>
        <time>2019-08-17T11:44:36Z</time>
      </trkpt>
      <trkpt lat="42.95662" lon="0.84754">
        <ele>1477.9</ele>
        <time>2019-08-17T11:44:37Z</time>
      </trkpt>
      <trkpt lat="42.95662" lon="0.84754">
        <ele>1477.9</ele>
        <time>2019-08-17T11:44:38Z</time>
      </trkpt>
      <trkpt lat="42.95662" lon="0.84754">
        <ele>1477.9</ele>
        <time>2019-08-17T11:44:39Z</time>
      </trkpt>
      <trkpt lat="42.95662" lon="0.84754">
        <ele>1477.9</ele>
        <time>2019-08-17T11:44:40Z</time>
      </trkpt>
      <trkpt lat="42.95662" lon="0.84754">
        <ele>1477.9</ele>
        <time>2019-08-17T11:44:41Z</time>
      </trkpt>
      <trkpt lat="42.95662" lon="0.84754">
        <ele>1477.9</ele>
        <time>2019-08-17T11:44:42Z</time>
      </trkpt>
      <trkpt lat="42.95662" lon="0.84754">
        <ele>1477.9</ele>
        <time>2019-08-17T11:44:43Z</time>
      </trkpt>
      <trkpt lat="42.95662" lon="0.84754">
        <ele>1477.9</ele>
        <time>2019-08-17T11:44:44Z</time>
      </trkpt>
      <trkpt lat="42.95662" lon="0.84754">
        <ele>1477.9</ele>
        <time>2019-08-17T11:44:45Z</time>
      </trkpt>
      <trkpt lat="42.95662" lon="0.84754">
        <ele>1477.9</ele>
        <time>2019-08-17T11:44:46Z</time>
      </trkpt>
      <trkpt lat="42.95662" lon="0.84754">
        <ele>1477.9</ele>
        <time>2019-08-17T11:44:47Z</time>
      </trkpt>
      <trkpt lat="42.95662" lon="0.84754">
        <ele>1477.9</ele>
        <time>2019-08-17T11:44:48Z</time>
      </trkpt>
      <trkpt lat="42.95662" lon="0.84754">
        <ele>1477.9</ele>
        <time>2019-08-17T11:44:49Z</time>
      </trkpt>
      <trkpt lat="42.95662" lon="0.84754">
        <ele>1477.9</ele>
        <time>2019-08-17T11:44:50Z</time>
      </trkpt>
      <trkpt lat="42.95662" lon="0.84754">
        <ele>1477.9</ele>
        <time>2019-08-17T11:44:51Z</time>
      </trkpt>
      <trkpt lat="42.95662" lon="0.84754">
        <ele>1477.9</ele>
        <time>2019-08-17T11:44:52Z</time>
      </trkpt>
      <trkpt lat="42.95662" lon="0.84754">
        <ele>1477.9</ele>
        <time>2019-08-17T11:44:53Z</time>
      </trkpt>
      <trkpt lat="42.95662" lon="0.84754">
        <ele>1477.9</ele>
        <time>2019-08-17T11:44:54Z</time>
      </trkpt>
      <trkpt lat="42.95662" lon="0.84754">
        <ele>1477.9</ele>
        <time>2019-08-17T11:44:55Z</time>
      </trkpt>
      <trkpt lat="42.95662" lon="0.84754">
        <ele>1477.9</ele>
        <time>2019-08-17T11:44:56Z</time>
      </trkpt>
      <trkpt lat="42.95662" lon="0.84754">
        <ele>1477.9</ele>
        <time>2019-08-17T11:44:57Z</time>
      </trkpt>
      <trkpt lat="42.95662" lon="0.84754">
        <ele>1477.9</ele>
        <time>2019-08-17T11:44:58Z</time>
      </trkpt>
      <trkpt lat="42.95662" lon="0.84754">
        <ele>1477.9</ele>
        <time>2019-08-17T11:44:59Z</time>
      </trkpt>
      <trkpt lat="42.95662" lon="0.84754">
        <ele>1477.9</ele>
        <time>2019-08-17T11:45:00Z</time>
      </trkpt>
      <trkpt lat="42.95662" lon="0.84754">
        <ele>1477.9</ele>
        <time>2019-08-17T11:45:01Z</time>
      </trkpt>
      <trkpt lat="42.95662" lon="0.84754">
        <ele>1477.9</ele>
        <time>2019-08-17T11:45:02Z</time>
      </trkpt>
      <trkpt lat="42.95662" lon="0.84754">
        <ele>1477.9</ele>
        <time>2019-08-17T11:45:03Z</time>
      </trkpt>
      <trkpt lat="42.95662" lon="0.84754">
        <ele>1477.9</ele>
        <time>2019-08-17T11:45:04Z</time>
      </trkpt>
      <trkpt lat="42.95662" lon="0.84754">
        <ele>1477.9</ele>
        <time>2019-08-17T11:45:05Z</time>
      </trkpt>
      <trkpt lat="42.95662" lon="0.84754">
        <ele>1477.9</ele>
        <time>2019-08-17T11:45:06Z</time>
      </trkpt>
      <trkpt lat="42.95662" lon="0.84754">
        <ele>1477.9</ele>
        <time>2019-08-17T11:45:07Z</time>
      </trkpt>
      <trkpt lat="42.95662" lon="0.84754">
        <ele>1477.9</ele>
        <time>2019-08-17T11:45:08Z</time>
      </trkpt>
      <trkpt lat="42.95662" lon="0.84754">
        <ele>1477.9</ele>
        <time>2019-08-17T11:45:09Z</time>
      </trkpt>
      <trkpt lat="42.95662" lon="0.84754">
        <ele>1477.9</ele>
        <time>2019-08-17T11:45:10Z</time>
      </trkpt>
      <trkpt lat="42.95662" lon="0.84754">
        <ele>1477.9</ele>
        <time>2019-08-17T11:45:11Z</time>
      </trkpt>
      <trkpt lat="42.95662" lon="0.84754">
        <ele>1477.9</ele>
        <time>2019-08-17T11:45:12Z</time>
      </trkpt>
      <trkpt lat="42.95662" lon="0.84754">
        <ele>1477.9</ele>
        <time>2019-08-17T11:45:13Z</time>
      </trkpt>
      <trkpt lat="42.95662" lon="0.84754">
        <ele>1477.9</ele>
        <time>2019-08-17T11:45:14Z</time>
      </trkpt>
      <trkpt lat="42.95662" lon="0.84754">
        <ele>1477.9</ele>
        <time>2019-08-17T11:45:15Z</time>
      </trkpt>
      <trkpt lat="42.95662" lon="0.84754">
        <ele>1477.9</ele>
        <time>2019-08-17T11:45:16Z</time>
      </trkpt>
      <trkpt lat="42.95662" lon="0.84754">
        <ele>1477.9</ele>
        <time>2019-08-17T11:45:17Z</time>
      </trkpt>
      <trkpt lat="42.95662" lon="0.84754">
        <ele>1477.9</ele>
        <time>2019-08-17T11:45:18Z</time>
      </trkpt>
      <trkpt lat="42.95662" lon="0.84754">
        <ele>1477.9</ele>
        <time>2019-08-17T11:45:19Z</time>
      </trkpt>
      <trkpt lat="42.95662" lon="0.84754">
        <ele>1477.9</ele>
        <time>2019-08-17T11:45:20Z</time>
      </trkpt>
      <trkpt lat="42.95662" lon="0.84754">
        <ele>1477.9</ele>
        <time>2019-08-17T11:45:21Z</time>
      </trkpt>
      <trkpt lat="42.95662" lon="0.84754">
        <ele>1477.9</ele>
        <time>2019-08-17T11:45:22Z</time>
      </trkpt>
      <trkpt lat="42.95662" lon="0.84754">
        <ele>1477.9</ele>
        <time>2019-08-17T11:45:23Z</time>
      </trkpt>
      <trkpt lat="42.95662" lon="0.84754">
        <ele>1477.9</ele>
        <time>2019-08-17T11:45:24Z</time>
      </trkpt>
      <trkpt lat="42.95662" lon="0.84754">
        <ele>1477.9</ele>
        <time>2019-08-17T11:45:25Z</time>
      </trkpt>
      <trkpt lat="42.95662" lon="0.84754">
        <ele>1477.9</ele>
        <time>2019-08-17T11:45:26Z</time>
      </trkpt>
      <trkpt lat="42.95662" lon="0.84754">
        <ele>1477.9</ele>
        <time>2019-08-17T11:45:27Z</time>
      </trkpt>
      <trkpt lat="42.95662" lon="0.84754">
        <ele>1477.9</ele>
        <time>2019-08-17T11:45:28Z</time>
      </trkpt>
      <trkpt lat="42.95662" lon="0.84754">
        <ele>1477.9</ele>
        <time>2019-08-17T11:45:29Z</time>
      </trkpt>
      <trkpt lat="42.95662" lon="0.84754">
        <ele>1477.9</ele>
        <time>2019-08-17T11:45:30Z</time>
      </trkpt>
      <trkpt lat="42.95662" lon="0.84754">
        <ele>1477.9</ele>
        <time>2019-08-17T11:45:31Z</time>
      </trkpt>
      <trkpt lat="42.95662" lon="0.84754">
        <ele>1477.9</ele>
        <time>2019-08-17T11:45:32Z</time>
      </trkpt>
      <trkpt lat="42.95662" lon="0.84754">
        <ele>1477.9</ele>
        <time>2019-08-17T11:45:33Z</time>
      </trkpt>
      <trkpt lat="42.95662" lon="0.84754">
        <ele>1477.9</ele>
        <time>2019-08-17T11:45:34Z</time>
      </trkpt>
      <trkpt lat="42.95662" lon="0.84754">
        <ele>1477.9</ele>
        <time>2019-08-17T11:45:35Z</time>
      </trkpt>
      <trkpt lat="42.95662" lon="0.84754">
        <ele>1477.9</ele>
        <time>2019-08-17T11:45:36Z</time>
      </trkpt>
      <trkpt lat="42.95662" lon="0.84754">
        <ele>1477.9</ele>
        <time>2019-08-17T11:45:37Z</time>
      </trkpt>
      <trkpt lat="42.95662" lon="0.84754">
        <ele>1477.9</ele>
        <time>2019-08-17T11:45:38Z</time>
      </trkpt>
      <trkpt lat="42.95662" lon="0.84754">
        <ele>1477.9</ele>
        <time>2019-08-17T11:45:39Z</time>
      </trkpt>
      <trkpt lat="42.95662" lon="0.84754">
        <ele>1477.9</ele>
        <time>2019-08-17T11:45:40Z</time>
      </trkpt>
      <trkpt lat="42.95662" lon="0.84754">
        <ele>1477.9</ele>
        <time>2019-08-17T11:45:41Z</time>
      </trkpt>
      <trkpt lat="42.95662" lon="0.84754">
        <ele>1477.9</ele>
        <time>2019-08-17T11:45:42Z</time>
      </trkpt>
      <trkpt lat="42.95662" lon="0.84754">
        <ele>1477.9</ele>
        <time>2019-08-17T11:45:43Z</time>
      </trkpt>
      <trkpt lat="42.95662" lon="0.84754">
        <ele>1477.9</ele>
        <time>2019-08-17T11:45:44Z</time>
      </trkpt>
      <trkpt lat="42.95662" lon="0.84754">
        <ele>1477.9</ele>
        <time>2019-08-17T11:45:45Z</time>
      </trkpt>
      <trkpt lat="42.95662" lon="0.84754">
        <ele>1477.9</ele>
        <time>2019-08-17T11:45:46Z</time>
      </trkpt>
      <trkpt lat="42.95662" lon="0.84754">
        <ele>1477.9</ele>
        <time>2019-08-17T11:45:47Z</time>
      </trkpt>
      <trkpt lat="42.95662" lon="0.84754">
        <ele>1477.9</ele>
        <time>2019-08-17T11:45:48Z</time>
      </trkpt>
      <trkpt lat="42.95662" lon="0.84754">
        <ele>1477.9</ele>
        <time>2019-08-17T11:45:49Z</time>
      </trkpt>
      <trkpt lat="42.95662" lon="0.84754">
        <ele>1477.9</ele>
        <time>2019-08-17T11:45:50Z</time>
      </trkpt>
      <trkpt lat="42.95662" lon="0.84754">
        <ele>1477.9</ele>
        <time>2019-08-17T11:45:51Z</time>
      </trkpt>
      <trkpt lat="42.95662" lon="0.84754">
        <ele>1477.9</ele>
        <time>2019-08-17T11:45:52Z</time>
      </trkpt>
      <trkpt lat="42.95662" lon="0.84754">
        <ele>1477.9</ele>
        <time>2019-08-17T11:45:53Z</time>
      </trkpt>
      <trkpt lat="42.95662" lon="0.84754">
        <ele>1477.9</ele>
        <time>2019-08-17T11:45:54Z</time>
      </trkpt>
      <trkpt lat="42.95662" lon="0.84754">
        <ele>1477.9</ele>
        <time>2019-08-17T11:45:55Z</time>
      </trkpt>
      <trkpt lat="42.95662" lon="0.84754">
        <ele>1477.9</ele>
        <time>2019-08-17T11:45:56Z</time>
      </trkpt>
      <trkpt lat="42.95662" lon="0.84754">
        <ele>1477.9</ele>
        <time>2019-08-17T11:45:57Z</time>
      </trkpt>
      <trkpt lat="42.95662" lon="0.84754">
        <ele>1477.9</ele>
        <time>2019-08-17T11:45:58Z</time>
      </trkpt>
      <trkpt lat="42.95662" lon="0.84754">
        <ele>1477.9</ele>
        <time>2019-08-17T11:45:59Z</time>
      </trkpt>
      <trkpt lat="42.95662" lon="0.84754">
        <ele>1477.9</ele>
        <time>2019-08-17T11:46:00Z</time>
      </trkpt>
      <trkpt lat="42.95662" lon="0.84754">
        <ele>1477.9</ele>
        <time>2019-08-17T11:46:01Z</time>
      </trkpt>
      <trkpt lat="42.95662" lon="0.84754">
        <ele>1477.9</ele>
        <time>2019-08-17T11:46:02Z</time>
      </trkpt>
      <trkpt lat="42.95662" lon="0.84754">
        <ele>1477.9</ele>
        <time>2019-08-17T11:46:03Z</time>
      </trkpt>
      <trkpt lat="42.95662" lon="0.84754">
        <ele>1477.9</ele>
        <time>2019-08-17T11:46:04Z</time>
      </trkpt>
      <trkpt lat="42.95662" lon="0.84754">
        <ele>1477.9</ele>
        <time>2019-08-17T11:46:05Z</time>
      </trkpt>
      <trkpt lat="42.95662" lon="0.84754">
        <ele>1477.9</ele>
        <time>2019-08-17T11:46:06Z</time>
      </trkpt>
      <trkpt lat="42.95662" lon="0.84754">
        <ele>1477.9</ele>
        <time>2019-08-17T11:46:07Z</time>
      </trkpt>
      <trkpt lat="42.95662" lon="0.84754">
        <ele>1477.9</ele>
        <time>2019-08-17T11:46:08Z</time>
      </trkpt>
      <trkpt lat="42.95662" lon="0.84754">
        <ele>1477.9</ele>
        <time>2019-08-17T11:46:09Z</time>
      </trkpt>
      <trkpt lat="42.95662" lon="0.84754">
        <ele>1477.9</ele>
        <time>2019-08-17T11:46:10Z</time>
      </trkpt>
      <trkpt lat="42.95662" lon="0.84754">
        <ele>1477.9</ele>
        <time>2019-08-17T11:46:11Z</time>
      </trkpt>
      <trkpt lat="42.95662" lon="0.84754">
        <ele>1477.9</ele>
        <time>2019-08-17T11:46:12Z</time>
      </trkpt>
      <trkpt lat="42.95662" lon="0.84754">
        <ele>1477.9</ele>
        <time>2019-08-17T11:46:13Z</time>
      </trkpt>
      <trkpt lat="42.95662" lon="0.84754">
        <ele>1477.9</ele>
        <time>2019-08-17T11:46:14Z</time>
      </trkpt>
      <trkpt lat="42.95662" lon="0.84754">
        <ele>1477.9</ele>
        <time>2019-08-17T11:46:15Z</time>
      </trkpt>
      <trkpt lat="42.95662" lon="0.84754">
        <ele>1477.9</ele>
        <time>2019-08-17T11:46:16Z</time>
      </trkpt>
      <trkpt lat="42.95662" lon="0.84754">
        <ele>1477.9</ele>
        <time>2019-08-17T11:46:17Z</time>
      </trkpt>
      <trkpt lat="42.95662" lon="0.84754">
        <ele>1477.9</ele>
        <time>2019-08-17T11:46:18Z</time>
      </trkpt>
      <trkpt lat="42.95662" lon="0.84754">
        <ele>1477.9</ele>
        <time>2019-08-17T11:46:19Z</time>
      </trkpt>
      <trkpt lat="42.95662" lon="0.84754">
        <ele>1477.9</ele>
        <time>2019-08-17T11:46:20Z</time>
      </trkpt>
      <trkpt lat="42.95662" lon="0.84754">
        <ele>1477.9</ele>
        <time>2019-08-17T11:46:21Z</time>
      </trkpt>
      <trkpt lat="42.95662" lon="0.84754">
        <ele>1477.9</ele>
        <time>2019-08-17T11:46:22Z</time>
      </trkpt>
      <trkpt lat="42.95662" lon="0.84754">
        <ele>1477.9</ele>
        <time>2019-08-17T11:46:23Z</time>
      </trkpt>
      <trkpt lat="42.95662" lon="0.84754">
        <ele>1477.9</ele>
        <time>2019-08-17T11:46:24Z</time>
      </trkpt>
      <trkpt lat="42.95662" lon="0.84754">
        <ele>1477.9</ele>
        <time>2019-08-17T11:46:25Z</time>
      </trkpt>
      <trkpt lat="42.95662" lon="0.84754">
        <ele>1477.9</ele>
        <time>2019-08-17T11:46:26Z</time>
      </trkpt>
      <trkpt lat="42.95662" lon="0.84754">
        <ele>1477.9</ele>
        <time>2019-08-17T11:46:27Z</time>
      </trkpt>
      <trkpt lat="42.95662" lon="0.84754">
        <ele>1477.9</ele>
        <time>2019-08-17T11:46:28Z</time>
      </trkpt>
      <trkpt lat="42.95662" lon="0.84754">
        <ele>1477.9</ele>
        <time>2019-08-17T11:46:29Z</time>
      </trkpt>
      <trkpt lat="42.95662" lon="0.84754">
        <ele>1477.9</ele>
        <time>2019-08-17T11:46:30Z</time>
      </trkpt>
      <trkpt lat="42.95662" lon="0.84754">
        <ele>1477.9</ele>
        <time>2019-08-17T11:46:31Z</time>
      </trkpt>
      <trkpt lat="42.95662" lon="0.84754">
        <ele>1477.9</ele>
        <time>2019-08-17T11:46:32Z</time>
      </trkpt>
      <trkpt lat="42.95662" lon="0.84754">
        <ele>1477.9</ele>
        <time>2019-08-17T11:46:33Z</time>
      </trkpt>
      <trkpt lat="42.95662" lon="0.84754">
        <ele>1477.9</ele>
        <time>2019-08-17T11:46:34Z</time>
      </trkpt>
      <trkpt lat="42.95662" lon="0.84754">
        <ele>1477.9</ele>
        <time>2019-08-17T11:46:35Z</time>
      </trkpt>
      <trkpt lat="42.95662" lon="0.84754">
        <ele>1477.9</ele>
        <time>2019-08-17T11:46:36Z</time>
      </trkpt>
      <trkpt lat="42.95662" lon="0.84754">
        <ele>1477.9</ele>
        <time>2019-08-17T11:46:37Z</time>
      </trkpt>
      <trkpt lat="42.95662" lon="0.84754">
        <ele>1477.9</ele>
        <time>2019-08-17T11:46:38Z</time>
      </trkpt>
      <trkpt lat="42.95662" lon="0.84754">
        <ele>1477.9</ele>
        <time>2019-08-17T11:46:39Z</time>
      </trkpt>
      <trkpt lat="42.95662" lon="0.84754">
        <ele>1477.9</ele>
        <time>2019-08-17T11:46:40Z</time>
      </trkpt>
      <trkpt lat="42.95662" lon="0.84754">
        <ele>1477.9</ele>
        <time>2019-08-17T11:46:41Z</time>
      </trkpt>
      <trkpt lat="42.95662" lon="0.84754">
        <ele>1477.9</ele>
        <time>2019-08-17T11:46:42Z</time>
      </trkpt>
      <trkpt lat="42.95662" lon="0.84754">
        <ele>1477.9</ele>
        <time>2019-08-17T11:46:43Z</time>
      </trkpt>
      <trkpt lat="42.95662" lon="0.84754">
        <ele>1477.9</ele>
        <time>2019-08-17T11:46:44Z</time>
      </trkpt>
      <trkpt lat="42.95662" lon="0.84754">
        <ele>1477.9</ele>
        <time>2019-08-17T11:46:45Z</time>
      </trkpt>
      <trkpt lat="42.95662" lon="0.84754">
        <ele>1477.9</ele>
        <time>2019-08-17T11:46:46Z</time>
      </trkpt>
      <trkpt lat="42.95662" lon="0.84754">
        <ele>1477.9</ele>
        <time>2019-08-17T11:46:47Z</time>
      </trkpt>
      <trkpt lat="42.95662" lon="0.84754">
        <ele>1477.9</ele>
        <time>2019-08-17T11:46:48Z</time>
      </trkpt>
      <trkpt lat="42.95662" lon="0.84754">
        <ele>1477.9</ele>
        <time>2019-08-17T11:46:49Z</time>
      </trkpt>
      <trkpt lat="42.95662" lon="0.84754">
        <ele>1477.9</ele>
        <time>2019-08-17T11:46:50Z</time>
      </trkpt>
      <trkpt lat="42.95662" lon="0.84754">
        <ele>1477.9</ele>
        <time>2019-08-17T11:46:51Z</time>
      </trkpt>
      <trkpt lat="42.95662" lon="0.84754">
        <ele>1477.9</ele>
        <time>2019-08-17T11:46:52Z</time>
      </trkpt>
      <trkpt lat="42.95662" lon="0.84754">
        <ele>1477.9</ele>
        <time>2019-08-17T11:46:53Z</time>
      </trkpt>
      <trkpt lat="42.95662" lon="0.84754">
        <ele>1477.9</ele>
        <time>2019-08-17T11:46:54Z</time>
      </trkpt>
      <trkpt lat="42.95662" lon="0.84754">
        <ele>1477.9</ele>
        <time>2019-08-17T11:46:55Z</time>
      </trkpt>
      <trkpt lat="42.95662" lon="0.84754">
        <ele>1477.9</ele>
        <time>2019-08-17T11:46:56Z</time>
      </trkpt>
      <trkpt lat="42.95662" lon="0.84754">
        <ele>1477.9</ele>
        <time>2019-08-17T11:46:57Z</time>
      </trkpt>
      <trkpt lat="42.95662" lon="0.84754">
        <ele>1477.9</ele>
        <time>2019-08-17T11:46:58Z</time>
      </trkpt>
      <trkpt lat="42.95662" lon="0.84754">
        <ele>1477.9</ele>
        <time>2019-08-17T11:46:59Z</time>
      </trkpt>
      <trkpt lat="42.95662" lon="0.84754">
        <ele>1477.9</ele>
        <time>2019-08-17T11:47:00Z</time>
      </trkpt>
      <trkpt lat="42.95662" lon="0.84754">
        <ele>1477.9</ele>
        <time>2019-08-17T11:47:01Z</time>
      </trkpt>
      <trkpt lat="42.95662" lon="0.84754">
        <ele>1477.9</ele>
        <time>2019-08-17T11:47:02Z</time>
      </trkpt>
      <trkpt lat="42.95662" lon="0.84754">
        <ele>1477.9</ele>
        <time>2019-08-17T11:47:03Z</time>
      </trkpt>
      <trkpt lat="42.95662" lon="0.84754">
        <ele>1477.9</ele>
        <time>2019-08-17T11:47:04Z</time>
      </trkpt>
      <trkpt lat="42.95662" lon="0.84754">
        <ele>1477.9</ele>
        <time>2019-08-17T11:47:05Z</time>
      </trkpt>
      <trkpt lat="42.95662" lon="0.84754">
        <ele>1477.9</ele>
        <time>2019-08-17T11:47:06Z</time>
      </trkpt>
      <trkpt lat="42.95662" lon="0.84754">
        <ele>1477.9</ele>
        <time>2019-08-17T11:47:07Z</time>
      </trkpt>
      <trkpt lat="42.95662" lon="0.84754">
        <ele>1477.9</ele>
        <time>2019-08-17T11:47:08Z</time>
      </trkpt>
      <trkpt lat="42.95662" lon="0.84754">
        <ele>1477.9</ele>
        <time>2019-08-17T11:47:09Z</time>
      </trkpt>
      <trkpt lat="42.95662" lon="0.84754">
        <ele>1477.9</ele>
        <time>2019-08-17T11:47:10Z</time>
      </trkpt>
      <trkpt lat="42.95662" lon="0.84754">
        <ele>1477.9</ele>
        <time>2019-08-17T11:47:11Z</time>
      </trkpt>
      <trkpt lat="42.95662" lon="0.84754">
        <ele>1477.9</ele>
        <time>2019-08-17T11:47:12Z</time>
      </trkpt>
      <trkpt lat="42.95662" lon="0.84754">
        <ele>1477.9</ele>
        <time>2019-08-17T11:47:13Z</time>
      </trkpt>
      <trkpt lat="42.95662" lon="0.84754">
        <ele>1477.9</ele>
        <time>2019-08-17T11:47:14Z</time>
      </trkpt>
      <trkpt lat="42.95662" lon="0.84754">
        <ele>1477.9</ele>
        <time>2019-08-17T11:47:15Z</time>
      </trkpt>
      <trkpt lat="42.95662" lon="0.84754">
        <ele>1477.9</ele>
        <time>2019-08-17T11:47:16Z</time>
      </trkpt>
      <trkpt lat="42.95662" lon="0.84754">
        <ele>1477.9</ele>
        <time>2019-08-17T11:47:17Z</time>
      </trkpt>
      <trkpt lat="42.95662" lon="0.84754">
        <ele>1477.9</ele>
        <time>2019-08-17T11:47:18Z</time>
      </trkpt>
      <trkpt lat="42.95662" lon="0.84754">
        <ele>1477.9</ele>
        <time>2019-08-17T11:47:19Z</time>
      </trkpt>
      <trkpt lat="42.95662" lon="0.84754">
        <ele>1477.9</ele>
        <time>2019-08-17T11:47:20Z</time>
      </trkpt>
      <trkpt lat="42.95662" lon="0.84754">
        <ele>1477.9</ele>
        <time>2019-08-17T11:47:21Z</time>
      </trkpt>
      <trkpt lat="42.95662" lon="0.84754">
        <ele>1477.9</ele>
        <time>2019-08-17T11:47:22Z</time>
      </trkpt>
      <trkpt lat="42.95662" lon="0.84754">
        <ele>1477.9</ele>
        <time>2019-08-17T11:47:23Z</time>
      </trkpt>
      <trkpt lat="42.95662" lon="0.84754">
        <ele>1477.9</ele>
        <time>2019-08-17T11:47:24Z</time>
      </trkpt>
      <trkpt lat="42.95662" lon="0.84754">
        <ele>1477.9</ele>
        <time>2019-08-17T11:47:25Z</time>
      </trkpt>
      <trkpt lat="42.95662" lon="0.84754">
        <ele>1477.9</ele>
        <time>2019-08-17T11:47:26Z</time>
      </trkpt>
      <trkpt lat="42.95662" lon="0.84754">
        <ele>1477.9</ele>
        <time>2019-08-17T11:47:27Z</time>
      </trkpt>
      <trkpt lat="42.95662" lon="0.84754">
        <ele>1477.9</ele>
        <time>2019-08-17T11:47:28Z</time>
      </trkpt>
      <trkpt lat="42.95662" lon="0.84754">
        <ele>1477.9</ele>
        <time>2019-08-17T11:47:29Z</time>
      </trkpt>
      <trkpt lat="42.95662" lon="0.84754">
        <ele>1477.9</ele>
        <time>2019-08-17T11:47:30Z</time>
      </trkpt>
      <trkpt lat="42.95662" lon="0.84754">
        <ele>1477.9</ele>
        <time>2019-08-17T11:47:31Z</time>
      </trkpt>
      <trkpt lat="42.95662" lon="0.84754">
        <ele>1477.9</ele>
        <time>2019-08-17T11:47:32Z</time>
      </trkpt>
      <trkpt lat="42.95662" lon="0.84754">
        <ele>1477.9</ele>
        <time>2019-08-17T11:47:33Z</time>
      </trkpt>
      <trkpt lat="42.95662" lon="0.84754">
        <ele>1477.9</ele>
        <time>2019-08-17T11:47:34Z</time>
      </trkpt>
      <trkpt lat="42.95662" lon="0.84754">
        <ele>1477.9</ele>
        <time>2019-08-17T11:47:35Z</time>
      </trkpt>
      <trkpt lat="42.95662" lon="0.84754">
        <ele>1477.9</ele>
        <time>2019-08-17T11:47:36Z</time>
      </trkpt>
      <trkpt lat="42.95662" lon="0.84754">
        <ele>1477.9</ele>
        <time>2019-08-17T11:47:37Z</time>
      </trkpt>
      <trkpt lat="42.95662" lon="0.84754">
        <ele>1477.9</ele>
        <time>2019-08-17T11:47:38Z</time>
      </trkpt>
      <trkpt lat="42.95662" lon="0.84754">
        <ele>1477.9</ele>
        <time>2019-08-17T11:47:39Z</time>
      </trkpt>
      <trkpt lat="42.95662" lon="0.84754">
        <ele>1477.9</ele>
        <time>2019-08-17T11:47:40Z</time>
      </trkpt>
      <trkpt lat="42.95662" lon="0.84754">
        <ele>1477.9</ele>
        <time>2019-08-17T11:47:41Z</time>
      </trkpt>
      <trkpt lat="42.95662" lon="0.84754">
        <ele>1477.9</ele>
        <time>2019-08-17T11:47:42Z</time>
      </trkpt>
      <trkpt lat="42.95662" lon="0.84754">
        <ele>1477.9</ele>
        <time>2019-08-17T11:47:43Z</time>
      </trkpt>
      <trkpt lat="42.95662" lon="0.84754">
        <ele>1477.9</ele>
        <time>2019-08-17T11:47:44Z</time>
      </trkpt>
      <trkpt lat="42.95662" lon="0.84754">
        <ele>1477.9</ele>
        <time>2019-08-17T11:47:45Z</time>
      </trkpt>
      <trkpt lat="42.95662" lon="0.84754">
        <ele>1477.9</ele>
        <time>2019-08-17T11:47:46Z</time>
      </trkpt>
      <trkpt lat="42.95662" lon="0.84754">
        <ele>1477.9</ele>
        <time>2019-08-17T11:47:47Z</time>
      </trkpt>
      <trkpt lat="42.95662" lon="0.84754">
        <ele>1477.9</ele>
        <time>2019-08-17T11:47:48Z</time>
      </trkpt>
      <trkpt lat="42.95662" lon="0.84754">
        <ele>1477.9</ele>
        <time>2019-08-17T11:47:49Z</time>
      </trkpt>
      <trkpt lat="42.95662" lon="0.84754">
        <ele>1477.9</ele>
        <time>2019-08-17T11:47:50Z</time>
      </trkpt>
      <trkpt lat="42.95662" lon="0.84754">
        <ele>1477.9</ele>
        <time>2019-08-17T11:47:51Z</time>
      </trkpt>
      <trkpt lat="42.95662" lon="0.84754">
        <ele>1477.9</ele>
        <time>2019-08-17T11:47:52Z</time>
      </trkpt>
      <trkpt lat="42.95662" lon="0.84754">
        <ele>1477.9</ele>
        <time>2019-08-17T11:47:53Z</time>
      </trkpt>
      <trkpt lat="42.95662" lon="0.84754">
        <ele>1477.9</ele>
        <time>2019-08-17T11:47:54Z</time>
      </trkpt>
      <trkpt lat="42.95662" lon="0.84754">
        <ele>1477.9</ele>
        <time>2019-08-17T11:47:55Z</time>
      </trkpt>
      <trkpt lat="42.95662" lon="0.84754">
        <ele>1477.9</ele>
        <time>2019-08-17T11:47:56Z</time>
      </trkpt>
      <trkpt lat="42.95662" lon="0.84754">
        <ele>1477.9</ele>
        <time>2019-08-17T11:47:57Z</time>
      </trkpt>
      <trkpt lat="42.95662" lon="0.84754">
        <ele>1477.9</ele>
        <time>2019-08-17T11:47:58Z</time>
      </trkpt>
      <trkpt lat="42.95662" lon="0.84754">
        <ele>1477.9</ele>
        <time>2019-08-17T11:47:59Z</time>
      </trkpt>
      <trkpt lat="42.95662" lon="0.84754">
        <ele>1477.9</ele>
        <time>2019-08-17T11:48:00Z</time>
      </trkpt>
      <trkpt lat="42.95662" lon="0.84754">
        <ele>1477.9</ele>
        <time>2019-08-17T11:48:01Z</time>
      </trkpt>
      <trkpt lat="42.95662" lon="0.84754">
        <ele>1477.9</ele>
        <time>2019-08-17T11:48:02Z</time>
      </trkpt>
      <trkpt lat="42.95662" lon="0.84754">
        <ele>1477.9</ele>
        <time>2019-08-17T11:48:03Z</time>
      </trkpt>
      <trkpt lat="42.95662" lon="0.84754">
        <ele>1477.9</ele>
        <time>2019-08-17T11:48:04Z</time>
      </trkpt>
      <trkpt lat="42.95662" lon="0.84754">
        <ele>1477.9</ele>
        <time>2019-08-17T11:48:05Z</time>
      </trkpt>
      <trkpt lat="42.95662" lon="0.84754">
        <ele>1477.9</ele>
        <time>2019-08-17T11:48:06Z</time>
      </trkpt>
      <trkpt lat="42.95662" lon="0.84754">
        <ele>1477.9</ele>
        <time>2019-08-17T11:48:07Z</time>
      </trkpt>
      <trkpt lat="42.95662" lon="0.84754">
        <ele>1477.9</ele>
        <time>2019-08-17T11:48:08Z</time>
      </trkpt>
      <trkpt lat="42.95662" lon="0.84754">
        <ele>1477.9</ele>
        <time>2019-08-17T11:48:09Z</time>
      </trkpt>
      <trkpt lat="42.95662" lon="0.84754">
        <ele>1477.9</ele>
        <time>2019-08-17T11:48:10Z</time>
      </trkpt>
      <trkpt lat="42.95662" lon="0.84754">
        <ele>1477.9</ele>
        <time>2019-08-17T11:48:11Z</time>
      </trkpt>
      <trkpt lat="42.95662" lon="0.84754">
        <ele>1477.9</ele>
        <time>2019-08-17T11:48:12Z</time>
      </trkpt>
      <trkpt lat="42.95662" lon="0.84754">
        <ele>1477.9</ele>
        <time>2019-08-17T11:48:13Z</time>
      </trkpt>
      <trkpt lat="42.95662" lon="0.84754">
        <ele>1477.9</ele>
        <time>2019-08-17T11:48:14Z</time>
      </trkpt>
      <trkpt lat="42.95662" lon="0.84754">
        <ele>1477.9</ele>
        <time>2019-08-17T11:48:15Z</time>
      </trkpt>
      <trkpt lat="42.95662" lon="0.84754">
        <ele>1477.9</ele>
        <time>2019-08-17T11:48:16Z</time>
      </trkpt>
      <trkpt lat="42.95662" lon="0.84754">
        <ele>1477.9</ele>
        <time>2019-08-17T11:48:17Z</time>
      </trkpt>
      <trkpt lat="42.95662" lon="0.84754">
        <ele>1477.9</ele>
        <time>2019-08-17T11:48:18Z</time>
      </trkpt>
      <trkpt lat="42.95662" lon="0.84754">
        <ele>1477.9</ele>
        <time>2019-08-17T11:48:19Z</time>
      </trkpt>
      <trkpt lat="42.95662" lon="0.84754">
        <ele>1477.9</ele>
        <time>2019-08-17T11:48:20Z</time>
      </trkpt>
      <trkpt lat="42.95662" lon="0.84754">
        <ele>1477.9</ele>
        <time>2019-08-17T11:48:21Z</time>
      </trkpt>
      <trkpt lat="42.95662" lon="0.84754">
        <ele>1477.9</ele>
        <time>2019-08-17T11:48:22Z</time>
      </trkpt>
      <trkpt lat="42.95662" lon="0.84754">
        <ele>1477.9</ele>
        <time>2019-08-17T11:48:23Z</time>
      </trkpt>
      <trkpt lat="42.95662" lon="0.84754">
        <ele>1477.9</ele>
        <time>2019-08-17T11:48:24Z</time>
      </trkpt>
      <trkpt lat="42.95662" lon="0.84754">
        <ele>1477.9</ele>
        <time>2019-08-17T11:48:25Z</time>
      </trkpt>
      <trkpt lat="42.95662" lon="0.84754">
        <ele>1477.9</ele>
        <time>2019-08-17T11:48:26Z</time>
      </trkpt>
      <trkpt lat="42.95662" lon="0.84754">
        <ele>1477.9</ele>
        <time>2019-08-17T11:48:27Z</time>
      </trkpt>
      <trkpt lat="42.95662" lon="0.84754">
        <ele>1477.9</ele>
        <time>2019-08-17T11:48:28Z</time>
      </trkpt>
      <trkpt lat="42.95662" lon="0.84754">
        <ele>1477.9</ele>
        <time>2019-08-17T11:48:29Z</time>
      </trkpt>
      <trkpt lat="42.95662" lon="0.84754">
        <ele>1477.9</ele>
        <time>2019-08-17T11:48:30Z</time>
      </trkpt>
      <trkpt lat="42.95662" lon="0.84754">
        <ele>1477.9</ele>
        <time>2019-08-17T11:48:31Z</time>
      </trkpt>
      <trkpt lat="42.95662" lon="0.84754">
        <ele>1477.9</ele>
        <time>2019-08-17T11:48:32Z</time>
      </trkpt>
      <trkpt lat="42.95662" lon="0.84754">
        <ele>1477.9</ele>
        <time>2019-08-17T11:48:33Z</time>
      </trkpt>
      <trkpt lat="42.95662" lon="0.84754">
        <ele>1477.9</ele>
        <time>2019-08-17T11:48:34Z</time>
      </trkpt>
      <trkpt lat="42.95662" lon="0.84754">
        <ele>1477.9</ele>
        <time>2019-08-17T11:48:35Z</time>
      </trkpt>
      <trkpt lat="42.95662" lon="0.84754">
        <ele>1477.9</ele>
        <time>2019-08-17T11:48:36Z</time>
      </trkpt>
      <trkpt lat="42.95662" lon="0.84754">
        <ele>1477.9</ele>
        <time>2019-08-17T11:48:37Z</time>
      </trkpt>
      <trkpt lat="42.95662" lon="0.84754">
        <ele>1477.9</ele>
        <time>2019-08-17T11:48:38Z</time>
      </trkpt>
      <trkpt lat="42.95662" lon="0.84754">
        <ele>1477.9</ele>
        <time>2019-08-17T11:48:39Z</time>
      </trkpt>
      <trkpt lat="42.95662" lon="0.84754">
        <ele>1477.9</ele>
        <time>2019-08-17T11:48:40Z</time>
      </trkpt>
      <trkpt lat="42.95662" lon="0.84754">
        <ele>1477.9</ele>
        <time>2019-08-17T11:48:41Z</time>
      </trkpt>
      <trkpt lat="42.95662" lon="0.84754">
        <ele>1477.9</ele>
        <time>2019-08-17T11:48:42Z</time>
      </trkpt>
      <trkpt lat="42.95662" lon="0.84754">
        <ele>1477.9</ele>
        <time>2019-08-17T11:48:43Z</time>
      </trkpt>
      <trkpt lat="42.95662" lon="0.84754">
        <ele>1477.9</ele>
        <time>2019-08-17T11:48:44Z</time>
      </trkpt>
      <trkpt lat="42.95662" lon="0.84754">
        <ele>1477.9</ele>
        <time>2019-08-17T11:48:45Z</time>
      </trkpt>
      <trkpt lat="42.95662" lon="0.84754">
        <ele>1477.9</ele>
        <time>2019-08-17T11:48:46Z</time>
      </trkpt>
      <trkpt lat="42.95662" lon="0.84754">
        <ele>1477.9</ele>
        <time>2019-08-17T11:48:47Z</time>
      </trkpt>
      <trkpt lat="42.95662" lon="0.84754">
        <ele>1477.9</ele>
        <time>2019-08-17T11:48:48Z</time>
      </trkpt>
      <trkpt lat="42.95662" lon="0.84754">
        <ele>1477.9</ele>
        <time>2019-08-17T11:48:49Z</time>
      </trkpt>
      <trkpt lat="42.95662" lon="0.84754">
        <ele>1477.9</ele>
        <time>2019-08-17T11:48:50Z</time>
      </trkpt>
      <trkpt lat="42.95662" lon="0.84754">
        <ele>1477.9</ele>
        <time>2019-08-17T11:48:51Z</time>
      </trkpt>
      <trkpt lat="42.95662" lon="0.84754">
        <ele>1477.9</ele>
        <time>2019-08-17T11:48:52Z</time>
      </trkpt>
      <trkpt lat="42.95662" lon="0.84754">
        <ele>1477.9</ele>
        <time>2019-08-17T11:48:53Z</time>
      </trkpt>
      <trkpt lat="42.95662" lon="0.84754">
        <ele>1477.9</ele>
        <time>2019-08-17T11:48:54Z</time>
      </trkpt>
      <trkpt lat="42.95662" lon="0.84754">
        <ele>1477.9</ele>
        <time>2019-08-17T11:48:55Z</time>
      </trkpt>
      <trkpt lat="42.95662" lon="0.84754">
        <ele>1477.9</ele>
        <time>2019-08-17T11:48:56Z</time>
      </trkpt>
      <trkpt lat="42.95662" lon="0.84754">
        <ele>1477.9</ele>
        <time>2019-08-17T11:48:57Z</time>
      </trkpt>
      <trkpt lat="42.95662" lon="0.84754">
        <ele>1477.9</ele>
        <time>2019-08-17T11:48:58Z</time>
      </trkpt>
      <trkpt lat="42.95662" lon="0.84754">
        <ele>1477.9</ele>
        <time>2019-08-17T11:48:59Z</time>
      </trkpt>
      <trkpt lat="42.95662" lon="0.84754">
        <ele>1477.9</ele>
        <time>2019-08-17T11:49:00Z</time>
      </trkpt>
      <trkpt lat="42.95662" lon="0.84754">
        <ele>1477.9</ele>
        <time>2019-08-17T11:49:01Z</time>
      </trkpt>
      <trkpt lat="42.95662" lon="0.84754">
        <ele>1477.9</ele>
        <time>2019-08-17T11:49:02Z</time>
      </trkpt>
      <trkpt lat="42.95662" lon="0.84754">
        <ele>1477.9</ele>
        <time>2019-08-17T11:49:03Z</time>
      </trkpt>
      <trkpt lat="42.95662" lon="0.84754">
        <ele>1477.9</ele>
        <time>2019-08-17T11:49:04Z</time>
      </trkpt>
      <trkpt lat="42.95662" lon="0.84754">
        <ele>1477.9</ele>
        <time>2019-08-17T11:49:05Z</time>
      </trkpt>
      <trkpt lat="42.95662" lon="0.84754">
        <ele>1477.9</ele>
        <time>2019-08-17T11:49:06Z</time>
      </trkpt>
      <trkpt lat="42.95662" lon="0.84754">
        <ele>1477.9</ele>
        <time>2019-08-17T11:49:07Z</time>
      </trkpt>
      <trkpt lat="42.95662" lon="0.84754">
        <ele>1477.9</ele>
        <time>2019-08-17T11:49:08Z</time>
      </trkpt>
      <trkpt lat="42.95662" lon="0.84754">
        <ele>1477.9</ele>
        <time>2019-08-17T11:49:09Z</time>
      </trkpt>
      <trkpt lat="42.95662" lon="0.84754">
        <ele>1477.9</ele>
        <time>2019-08-17T11:49:10Z</time>
      </trkpt>
      <trkpt lat="42.95662" lon="0.84754">
        <ele>1477.9</ele>
        <time>2019-08-17T11:49:11Z</time>
      </trkpt>
      <trkpt lat="42.95662" lon="0.84754">
        <ele>1477.9</ele>
        <time>2019-08-17T11:49:12Z</time>
      </trkpt>
      <trkpt lat="42.95662" lon="0.84754">
        <ele>1477.9</ele>
        <time>2019-08-17T11:49:13Z</time>
      </trkpt>
      <trkpt lat="42.95662" lon="0.84754">
        <ele>1477.9</ele>
        <time>2019-08-17T11:49:14Z</time>
      </trkpt>
      <trkpt lat="42.95662" lon="0.84754">
        <ele>1477.9</ele>
        <time>2019-08-17T11:49:15Z</time>
      </trkpt>
      <trkpt lat="42.95662" lon="0.84754">
        <ele>1477.9</ele>
        <time>2019-08-17T11:49:16Z</time>
      </trkpt>
      <trkpt lat="42.95662" lon="0.84754">
        <ele>1477.9</ele>
        <time>2019-08-17T11:49:17Z</time>
      </trkpt>
      <trkpt lat="42.95662" lon="0.84754">
        <ele>1477.9</ele>
        <time>2019-08-17T11:49:18Z</time>
      </trkpt>
      <trkpt lat="42.95662" lon="0.84754">
        <ele>1477.9</ele>
        <time>2019-08-17T11:49:19Z</time>
      </trkpt>
      <trkpt lat="42.95662" lon="0.84754">
        <ele>1477.9</ele>
        <time>2019-08-17T11:49:20Z</time>
      </trkpt>
      <trkpt lat="42.95662" lon="0.84754">
        <ele>1477.9</ele>
        <time>2019-08-17T11:49:21Z</time>
      </trkpt>
      <trkpt lat="42.95662" lon="0.84754">
        <ele>1477.9</ele>
        <time>2019-08-17T11:49:22Z</time>
      </trkpt>
      <trkpt lat="42.95662" lon="0.84754">
        <ele>1477.9</ele>
        <time>2019-08-17T11:49:23Z</time>
      </trkpt>
      <trkpt lat="42.95662" lon="0.84754">
        <ele>1477.9</ele>
        <time>2019-08-17T11:49:24Z</time>
      </trkpt>
      <trkpt lat="42.95662" lon="0.84754">
        <ele>1477.9</ele>
        <time>2019-08-17T11:49:25Z</time>
      </trkpt>
      <trkpt lat="42.95662" lon="0.84754">
        <ele>1477.9</ele>
        <time>2019-08-17T11:49:26Z</time>
      </trkpt>
      <trkpt lat="42.95662" lon="0.84754">
        <ele>1477.9</ele>
        <time>2019-08-17T11:49:27Z</time>
      </trkpt>
      <trkpt lat="42.95662" lon="0.84754">
        <ele>1477.9</ele>
        <time>2019-08-17T11:49:28Z</time>
      </trkpt>
      <trkpt lat="42.95662" lon="0.84754">
        <ele>1477.9</ele>
        <time>2019-08-17T11:49:29Z</time>
      </trkpt>
      <trkpt lat="42.95662" lon="0.84754">
        <ele>1477.9</ele>
        <time>2019-08-17T11:49:30Z</time>
      </trkpt>
      <trkpt lat="42.95662" lon="0.84754">
        <ele>1477.9</ele>
        <time>2019-08-17T11:49:31Z</time>
      </trkpt>
      <trkpt lat="42.95662" lon="0.84754">
        <ele>1477.9</ele>
        <time>2019-08-17T11:49:32Z</time>
      </trkpt>
      <trkpt lat="42.95662" lon="0.84754">
        <ele>1477.9</ele>
        <time>2019-08-17T11:49:33Z</time>
      </trkpt>
      <trkpt lat="42.95662" lon="0.84754">
        <ele>1477.9</ele>
        <time>2019-08-17T11:49:34Z</time>
      </trkpt>
      <trkpt lat="42.95662" lon="0.84754">
        <ele>1477.9</ele>
        <time>2019-08-17T11:49:35Z</time>
      </trkpt>
      <trkpt lat="42.95662" lon="0.84754">
        <ele>1477.9</ele>
        <time>2019-08-17T11:49:36Z</time>
      </trkpt>
      <trkpt lat="42.95662" lon="0.84754">
        <ele>1477.9</ele>
        <time>2019-08-17T11:49:37Z</time>
      </trkpt>
      <trkpt lat="42.95662" lon="0.84754">
        <ele>1477.9</ele>
        <time>2019-08-17T11:49:38Z</time>
      </trkpt>
      <trkpt lat="42.95662" lon="0.84754">
        <ele>1477.9</ele>
        <time>2019-08-17T11:49:39Z</time>
      </trkpt>
      <trkpt lat="42.95662" lon="0.84754">
        <ele>1477.9</ele>
        <time>2019-08-17T11:49:40Z</time>
      </trkpt>
      <trkpt lat="42.95662" lon="0.84754">
        <ele>1477.8</ele>
        <time>2019-08-17T11:49:41Z</time>
      </trkpt>
      <trkpt lat="42.95662" lon="0.84754">
        <ele>1477.8</ele>
        <time>2019-08-17T11:49:42Z</time>
      </trkpt>
      <trkpt lat="42.95662" lon="0.84757">
        <ele>1477.7</ele>
        <time>2019-08-17T11:49:43Z</time>
      </trkpt>
      <trkpt lat="42.95661" lon="0.84758">
        <ele>1477.5</ele>
        <time>2019-08-17T11:49:44Z</time>
      </trkpt>
      <trkpt lat="42.95661" lon="0.84759">
        <ele>1477.4</ele>
        <time>2019-08-17T11:49:45Z</time>
      </trkpt>
      <trkpt lat="42.95661" lon="0.84759">
        <ele>1477.4</ele>
        <time>2019-08-17T11:49:46Z</time>
      </trkpt>
      <trkpt lat="42.95661" lon="0.84759">
        <ele>1477.4</ele>
        <time>2019-08-17T11:49:47Z</time>
      </trkpt>
      <trkpt lat="42.95661" lon="0.8476">
        <ele>1477.4</ele>
        <time>2019-08-17T11:49:48Z</time>
      </trkpt>
      <trkpt lat="42.95661" lon="0.8476">
        <ele>1477.4</ele>
        <time>2019-08-17T11:49:49Z</time>
      </trkpt>
      <trkpt lat="42.95661" lon="0.8476">
        <ele>1477.3</ele>
        <time>2019-08-17T11:49:50Z</time>
      </trkpt>
      <trkpt lat="42.95661" lon="0.8476">
        <ele>1477.3</ele>
        <time>2019-08-17T11:49:51Z</time>
      </trkpt>
      <trkpt lat="42.95661" lon="0.8476">
        <ele>1477.3</ele>
        <time>2019-08-17T11:49:52Z</time>
      </trkpt>
      <trkpt lat="42.95661" lon="0.8476">
        <ele>1477.3</ele>
        <time>2019-08-17T11:49:53Z</time>
      </trkpt>
      <trkpt lat="42.95661" lon="0.8476">
        <ele>1477.3</ele>
        <time>2019-08-17T11:49:54Z</time>
      </trkpt>
      <trkpt lat="42.95661" lon="0.8476">
        <ele>1477.3</ele>
        <time>2019-08-17T11:49:55Z</time>
      </trkpt>
      <trkpt lat="42.95661" lon="0.8476">
        <ele>1477.3</ele>
        <time>2019-08-17T11:49:56Z</time>
      </trkpt>
      <trkpt lat="42.95661" lon="0.8476">
        <ele>1477.3</ele>
        <time>2019-08-17T11:49:57Z</time>
      </trkpt>
      <trkpt lat="42.95661" lon="0.8476">
        <ele>1477.3</ele>
        <time>2019-08-17T11:49:58Z</time>
      </trkpt>
      <trkpt lat="42.95661" lon="0.8476">
        <ele>1477.3</ele>
        <time>2019-08-17T11:49:59Z</time>
      </trkpt>
      <trkpt lat="42.95661" lon="0.8476">
        <ele>1477.3</ele>
        <time>2019-08-17T11:50:00Z</time>
      </trkpt>
      <trkpt lat="42.95661" lon="0.8476">
        <ele>1477.3</ele>
        <time>2019-08-17T11:50:01Z</time>
      </trkpt>
      <trkpt lat="42.95661" lon="0.8476">
        <ele>1477.3</ele>
        <time>2019-08-17T11:50:02Z</time>
      </trkpt>
      <trkpt lat="42.95661" lon="0.8476">
        <ele>1477.3</ele>
        <time>2019-08-17T11:50:03Z</time>
      </trkpt>
      <trkpt lat="42.95661" lon="0.8476">
        <ele>1477.3</ele>
        <time>2019-08-17T11:50:04Z</time>
      </trkpt>
      <trkpt lat="42.95661" lon="0.8476">
        <ele>1477.3</ele>
        <time>2019-08-17T11:50:05Z</time>
      </trkpt>
      <trkpt lat="42.95661" lon="0.8476">
        <ele>1477.3</ele>
        <time>2019-08-17T11:50:06Z</time>
      </trkpt>
      <trkpt lat="42.95662" lon="0.84761">
        <ele>1477.2</ele>
        <time>2019-08-17T11:50:07Z</time>
      </trkpt>
      <trkpt lat="42.95662" lon="0.84761">
        <ele>1477.1</ele>
        <time>2019-08-17T11:50:08Z</time>
      </trkpt>
      <trkpt lat="42.95662" lon="0.84762">
        <ele>1477</ele>
        <time>2019-08-17T11:50:09Z</time>
      </trkpt>
      <trkpt lat="42.95661" lon="0.84763">
        <ele>1476.8</ele>
        <time>2019-08-17T11:50:10Z</time>
      </trkpt>
      <trkpt lat="42.95661" lon="0.84764">
        <ele>1476.7</ele>
        <time>2019-08-17T11:50:11Z</time>
      </trkpt>
      <trkpt lat="42.95661" lon="0.84765">
        <ele>1476.6</ele>
        <time>2019-08-17T11:50:12Z</time>
      </trkpt>
      <trkpt lat="42.95661" lon="0.84766">
        <ele>1476.5</ele>
        <time>2019-08-17T11:50:13Z</time>
      </trkpt>
      <trkpt lat="42.95662" lon="0.84767">
        <ele>1476.4</ele>
        <time>2019-08-17T11:50:14Z</time>
      </trkpt>
      <trkpt lat="42.95662" lon="0.84768">
        <ele>1476.3</ele>
        <time>2019-08-17T11:50:15Z</time>
      </trkpt>
      <trkpt lat="42.95662" lon="0.84768">
        <ele>1476.2</ele>
        <time>2019-08-17T11:50:16Z</time>
      </trkpt>
      <trkpt lat="42.95662" lon="0.84769">
        <ele>1476.1</ele>
        <time>2019-08-17T11:50:17Z</time>
      </trkpt>
      <trkpt lat="42.95662" lon="0.84769">
        <ele>1476.1</ele>
        <time>2019-08-17T11:50:18Z</time>
      </trkpt>
      <trkpt lat="42.95662" lon="0.84769">
        <ele>1476.1</ele>
        <time>2019-08-17T11:50:19Z</time>
      </trkpt>
      <trkpt lat="42.95662" lon="0.8477">
        <ele>1476</ele>
        <time>2019-08-17T11:50:20Z</time>
      </trkpt>
      <trkpt lat="42.95662" lon="0.84771">
        <ele>1475.9</ele>
        <time>2019-08-17T11:50:21Z</time>
      </trkpt>
      <trkpt lat="42.95663" lon="0.84772">
        <ele>1475.8</ele>
        <time>2019-08-17T11:50:22Z</time>
      </trkpt>
      <trkpt lat="42.95664" lon="0.84773">
        <ele>1475.7</ele>
        <time>2019-08-17T11:50:23Z</time>
      </trkpt>
      <trkpt lat="42.95664" lon="0.84775">
        <ele>1475.5</ele>
        <time>2019-08-17T11:50:24Z</time>
      </trkpt>
      <trkpt lat="42.95665" lon="0.84776">
        <ele>1475.4</ele>
        <time>2019-08-17T11:50:25Z</time>
      </trkpt>
      <trkpt lat="42.95665" lon="0.84778">
        <ele>1475.3</ele>
        <time>2019-08-17T11:50:26Z</time>
      </trkpt>
      <trkpt lat="42.95666" lon="0.84779">
        <ele>1475.2</ele>
        <time>2019-08-17T11:50:27Z</time>
      </trkpt>
      <trkpt lat="42.95666" lon="0.8478">
        <ele>1475.1</ele>
        <time>2019-08-17T11:50:28Z</time>
      </trkpt>
      <trkpt lat="42.95667" lon="0.8478">
        <ele>1475.1</ele>
        <time>2019-08-17T11:50:29Z</time>
      </trkpt>
      <trkpt lat="42.95667" lon="0.84781">
        <ele>1475.1</ele>
        <time>2019-08-17T11:50:30Z</time>
      </trkpt>
      <trkpt lat="42.95667" lon="0.84781">
        <ele>1475.1</ele>
        <time>2019-08-17T11:50:31Z</time>
      </trkpt>
      <trkpt lat="42.95667" lon="0.84781">
        <ele>1475.2</ele>
        <time>2019-08-17T11:50:32Z</time>
      </trkpt>
      <trkpt lat="42.95668" lon="0.84782">
        <ele>1475.3</ele>
        <time>2019-08-17T11:50:33Z</time>
      </trkpt>
      <trkpt lat="42.95668" lon="0.84784">
        <ele>1475.4</ele>
        <time>2019-08-17T11:50:34Z</time>
      </trkpt>
      <trkpt lat="42.95668" lon="0.84785">
        <ele>1475.6</ele>
        <time>2019-08-17T11:50:35Z</time>
      </trkpt>
      <trkpt lat="42.95669" lon="0.84786">
        <ele>1475.7</ele>
        <time>2019-08-17T11:50:36Z</time>
      </trkpt>
      <trkpt lat="42.95669" lon="0.84787">
        <ele>1475.8</ele>
        <time>2019-08-17T11:50:37Z</time>
      </trkpt>
      <trkpt lat="42.95669" lon="0.84789">
        <ele>1475.9</ele>
        <time>2019-08-17T11:50:38Z</time>
      </trkpt>
      <trkpt lat="42.95669" lon="0.8479">
        <ele>1476</ele>
        <time>2019-08-17T11:50:39Z</time>
      </trkpt>
      <trkpt lat="42.95669" lon="0.84791">
        <ele>1476</ele>
        <time>2019-08-17T11:50:40Z</time>
      </trkpt>
      <trkpt lat="42.95669" lon="0.84793">
        <ele>1476</ele>
        <time>2019-08-17T11:50:41Z</time>
      </trkpt>
      <trkpt lat="42.95669" lon="0.84794">
        <ele>1475.9</ele>
        <time>2019-08-17T11:50:42Z</time>
      </trkpt>
      <trkpt lat="42.95669" lon="0.84796">
        <ele>1475.9</ele>
        <time>2019-08-17T11:50:43Z</time>
      </trkpt>
      <trkpt lat="42.95669" lon="0.84798">
        <ele>1475.9</ele>
        <time>2019-08-17T11:50:44Z</time>
      </trkpt>
      <trkpt lat="42.95669" lon="0.84799">
        <ele>1475.9</ele>
        <time>2019-08-17T11:50:45Z</time>
      </trkpt>
      <trkpt lat="42.95669" lon="0.848">
        <ele>1475.9</ele>
        <time>2019-08-17T11:50:46Z</time>
      </trkpt>
      <trkpt lat="42.95668" lon="0.84801">
        <ele>1475.9</ele>
        <time>2019-08-17T11:50:47Z</time>
      </trkpt>
      <trkpt lat="42.95668" lon="0.84802">
        <ele>1475.8</ele>
        <time>2019-08-17T11:50:48Z</time>
      </trkpt>
      <trkpt lat="42.95668" lon="0.84803">
        <ele>1475.8</ele>
        <time>2019-08-17T11:50:49Z</time>
      </trkpt>
      <trkpt lat="42.95667" lon="0.84804">
        <ele>1475.8</ele>
        <time>2019-08-17T11:50:50Z</time>
      </trkpt>
      <trkpt lat="42.95666" lon="0.84805">
        <ele>1475.8</ele>
        <time>2019-08-17T11:50:51Z</time>
      </trkpt>
      <trkpt lat="42.95666" lon="0.84805">
        <ele>1475.7</ele>
        <time>2019-08-17T11:50:52Z</time>
      </trkpt>
      <trkpt lat="42.95666" lon="0.84806">
        <ele>1475.7</ele>
        <time>2019-08-17T11:50:53Z</time>
      </trkpt>
      <trkpt lat="42.95665" lon="0.84807">
        <ele>1475.7</ele>
        <time>2019-08-17T11:50:54Z</time>
      </trkpt>
      <trkpt lat="42.95665" lon="0.84808">
        <ele>1475.7</ele>
        <time>2019-08-17T11:50:55Z</time>
      </trkpt>
      <trkpt lat="42.95664" lon="0.84809">
        <ele>1475.8</ele>
        <time>2019-08-17T11:50:56Z</time>
      </trkpt>
      <trkpt lat="42.95663" lon="0.84811">
        <ele>1476</ele>
        <time>2019-08-17T11:50:57Z</time>
      </trkpt>
      <trkpt lat="42.95662" lon="0.84811">
        <ele>1476.1</ele>
        <time>2019-08-17T11:50:58Z</time>
      </trkpt>
      <trkpt lat="42.95662" lon="0.84812">
        <ele>1476.1</ele>
        <time>2019-08-17T11:50:59Z</time>
      </trkpt>
      <trkpt lat="42.95662" lon="0.84812">
        <ele>1476.1</ele>
        <time>2019-08-17T11:51:00Z</time>
      </trkpt>
      <trkpt lat="42.95662" lon="0.84813">
        <ele>1476.2</ele>
        <time>2019-08-17T11:51:01Z</time>
      </trkpt>
      <trkpt lat="42.95661" lon="0.84813">
        <ele>1476.3</ele>
        <time>2019-08-17T11:51:02Z</time>
      </trkpt>
      <trkpt lat="42.9566" lon="0.84814">
        <ele>1476.5</ele>
        <time>2019-08-17T11:51:03Z</time>
      </trkpt>
      <trkpt lat="42.95659" lon="0.84815">
        <ele>1476.6</ele>
        <time>2019-08-17T11:51:04Z</time>
      </trkpt>
      <trkpt lat="42.95659" lon="0.84816">
        <ele>1476.7</ele>
        <time>2019-08-17T11:51:05Z</time>
      </trkpt>
      <trkpt lat="42.95658" lon="0.84817">
        <ele>1476.8</ele>
        <time>2019-08-17T11:51:06Z</time>
      </trkpt>
      <trkpt lat="42.95658" lon="0.84817">
        <ele>1476.7</ele>
        <time>2019-08-17T11:51:07Z</time>
      </trkpt>
      <trkpt lat="42.95658" lon="0.84817">
        <ele>1476.7</ele>
        <time>2019-08-17T11:51:08Z</time>
      </trkpt>
      <trkpt lat="42.95658" lon="0.84818">
        <ele>1476.6</ele>
        <time>2019-08-17T11:51:09Z</time>
      </trkpt>
      <trkpt lat="42.95658" lon="0.84819">
        <ele>1476.6</ele>
        <time>2019-08-17T11:51:10Z</time>
      </trkpt>
      <trkpt lat="42.95658" lon="0.8482">
        <ele>1476.5</ele>
        <time>2019-08-17T11:51:11Z</time>
      </trkpt>
      <trkpt lat="42.95658" lon="0.84821">
        <ele>1476.5</ele>
        <time>2019-08-17T11:51:12Z</time>
      </trkpt>
      <trkpt lat="42.95658" lon="0.84821">
        <ele>1476.4</ele>
        <time>2019-08-17T11:51:13Z</time>
      </trkpt>
      <trkpt lat="42.95658" lon="0.84822">
        <ele>1476.4</ele>
        <time>2019-08-17T11:51:14Z</time>
      </trkpt>
      <trkpt lat="42.95658" lon="0.84823">
        <ele>1476.3</ele>
        <time>2019-08-17T11:51:15Z</time>
      </trkpt>
      <trkpt lat="42.95658" lon="0.84824">
        <ele>1476.3</ele>
        <time>2019-08-17T11:51:16Z</time>
      </trkpt>
      <trkpt lat="42.95658" lon="0.84825">
        <ele>1476.2</ele>
        <time>2019-08-17T11:51:17Z</time>
      </trkpt>
      <trkpt lat="42.95658" lon="0.84825">
        <ele>1476.2</ele>
        <time>2019-08-17T11:51:18Z</time>
      </trkpt>
      <trkpt lat="42.95658" lon="0.84826">
        <ele>1476.1</ele>
        <time>2019-08-17T11:51:19Z</time>
      </trkpt>
      <trkpt lat="42.95659" lon="0.84827">
        <ele>1476.1</ele>
        <time>2019-08-17T11:51:20Z</time>
      </trkpt>
      <trkpt lat="42.95659" lon="0.84828">
        <ele>1476</ele>
        <time>2019-08-17T11:51:21Z</time>
      </trkpt>
      <trkpt lat="42.95659" lon="0.84829">
        <ele>1475.9</ele>
        <time>2019-08-17T11:51:22Z</time>
      </trkpt>
      <trkpt lat="42.95659" lon="0.8483">
        <ele>1475.7</ele>
        <time>2019-08-17T11:51:23Z</time>
      </trkpt>
      <trkpt lat="42.95659" lon="0.84831">
        <ele>1475.6</ele>
        <time>2019-08-17T11:51:24Z</time>
      </trkpt>
      <trkpt lat="42.95659" lon="0.84833">
        <ele>1475.4</ele>
        <time>2019-08-17T11:51:25Z</time>
      </trkpt>
      <trkpt lat="42.95659" lon="0.84834">
        <ele>1475.3</ele>
        <time>2019-08-17T11:51:26Z</time>
      </trkpt>
      <trkpt lat="42.95659" lon="0.84835">
        <ele>1475.2</ele>
        <time>2019-08-17T11:51:27Z</time>
      </trkpt>
      <trkpt lat="42.95659" lon="0.84836">
        <ele>1475</ele>
        <time>2019-08-17T11:51:28Z</time>
      </trkpt>
      <trkpt lat="42.95659" lon="0.84837">
        <ele>1474.9</ele>
        <time>2019-08-17T11:51:29Z</time>
      </trkpt>
      <trkpt lat="42.95658" lon="0.84838">
        <ele>1474.8</ele>
        <time>2019-08-17T11:51:30Z</time>
      </trkpt>
      <trkpt lat="42.95658" lon="0.84838">
        <ele>1474.7</ele>
        <time>2019-08-17T11:51:31Z</time>
      </trkpt>
      <trkpt lat="42.95658" lon="0.84839">
        <ele>1474.6</ele>
        <time>2019-08-17T11:51:32Z</time>
      </trkpt>
      <trkpt lat="42.95658" lon="0.84841">
        <ele>1474.4</ele>
        <time>2019-08-17T11:51:33Z</time>
      </trkpt>
      <trkpt lat="42.95658" lon="0.84842">
        <ele>1474.3</ele>
        <time>2019-08-17T11:51:34Z</time>
      </trkpt>
      <trkpt lat="42.95658" lon="0.84843">
        <ele>1474.2</ele>
        <time>2019-08-17T11:51:35Z</time>
      </trkpt>
      <trkpt lat="42.95658" lon="0.84844">
        <ele>1474</ele>
        <time>2019-08-17T11:51:36Z</time>
      </trkpt>
      <trkpt lat="42.95658" lon="0.84844">
        <ele>1474</ele>
        <time>2019-08-17T11:51:37Z</time>
      </trkpt>
      <trkpt lat="42.95658" lon="0.84845">
        <ele>1473.9</ele>
        <time>2019-08-17T11:51:38Z</time>
      </trkpt>
      <trkpt lat="42.95658" lon="0.84845">
        <ele>1473.9</ele>
        <time>2019-08-17T11:51:39Z</time>
      </trkpt>
      <trkpt lat="42.95658" lon="0.84845">
        <ele>1473.9</ele>
        <time>2019-08-17T11:51:40Z</time>
      </trkpt>
      <trkpt lat="42.95658" lon="0.84845">
        <ele>1473.9</ele>
        <time>2019-08-17T11:51:41Z</time>
      </trkpt>
      <trkpt lat="42.95658" lon="0.84845">
        <ele>1473.9</ele>
        <time>2019-08-17T11:51:42Z</time>
      </trkpt>
      <trkpt lat="42.95658" lon="0.84845">
        <ele>1473.9</ele>
        <time>2019-08-17T11:51:43Z</time>
      </trkpt>
      <trkpt lat="42.95658" lon="0.84845">
        <ele>1473.8</ele>
        <time>2019-08-17T11:51:44Z</time>
      </trkpt>
      <trkpt lat="42.95658" lon="0.84846">
        <ele>1473.7</ele>
        <time>2019-08-17T11:51:45Z</time>
      </trkpt>
      <trkpt lat="42.95657" lon="0.84847">
        <ele>1473.6</ele>
        <time>2019-08-17T11:51:46Z</time>
      </trkpt>
      <trkpt lat="42.95657" lon="0.84848">
        <ele>1473.4</ele>
        <time>2019-08-17T11:51:47Z</time>
      </trkpt>
      <trkpt lat="42.95656" lon="0.8485">
        <ele>1473.3</ele>
        <time>2019-08-17T11:51:48Z</time>
      </trkpt>
      <trkpt lat="42.95656" lon="0.84851">
        <ele>1473.1</ele>
        <time>2019-08-17T11:51:49Z</time>
      </trkpt>
      <trkpt lat="42.95656" lon="0.84853">
        <ele>1473</ele>
        <time>2019-08-17T11:51:50Z</time>
      </trkpt>
      <trkpt lat="42.95655" lon="0.84854">
        <ele>1472.8</ele>
        <time>2019-08-17T11:51:51Z</time>
      </trkpt>
      <trkpt lat="42.95655" lon="0.84855">
        <ele>1472.7</ele>
        <time>2019-08-17T11:51:52Z</time>
      </trkpt>
      <trkpt lat="42.95655" lon="0.84856">
        <ele>1472.5</ele>
        <time>2019-08-17T11:51:53Z</time>
      </trkpt>
      <trkpt lat="42.95654" lon="0.84857">
        <ele>1472.3</ele>
        <time>2019-08-17T11:51:54Z</time>
      </trkpt>
      <trkpt lat="42.95654" lon="0.84857">
        <ele>1472.2</ele>
        <time>2019-08-17T11:51:55Z</time>
      </trkpt>
      <trkpt lat="42.95654" lon="0.84858">
        <ele>1472</ele>
        <time>2019-08-17T11:51:56Z</time>
      </trkpt>
      <trkpt lat="42.95653" lon="0.8486">
        <ele>1471.8</ele>
        <time>2019-08-17T11:51:57Z</time>
      </trkpt>
      <trkpt lat="42.95653" lon="0.84861">
        <ele>1471.6</ele>
        <time>2019-08-17T11:51:58Z</time>
      </trkpt>
      <trkpt lat="42.95653" lon="0.84862">
        <ele>1471.5</ele>
        <time>2019-08-17T11:51:59Z</time>
      </trkpt>
      <trkpt lat="42.95653" lon="0.84862">
        <ele>1471.4</ele>
        <time>2019-08-17T11:52:00Z</time>
      </trkpt>
      <trkpt lat="42.95652" lon="0.84863">
        <ele>1471.3</ele>
        <time>2019-08-17T11:52:01Z</time>
      </trkpt>
      <trkpt lat="42.95652" lon="0.84863">
        <ele>1471.3</ele>
        <time>2019-08-17T11:52:02Z</time>
      </trkpt>
      <trkpt lat="42.95652" lon="0.84863">
        <ele>1471.2</ele>
        <time>2019-08-17T11:52:03Z</time>
      </trkpt>
      <trkpt lat="42.95652" lon="0.84863">
        <ele>1471.2</ele>
        <time>2019-08-17T11:52:04Z</time>
      </trkpt>
      <trkpt lat="42.95651" lon="0.84864">
        <ele>1471.1</ele>
        <time>2019-08-17T11:52:05Z</time>
      </trkpt>
      <trkpt lat="42.95651" lon="0.84865">
        <ele>1471.1</ele>
        <time>2019-08-17T11:52:06Z</time>
      </trkpt>
      <trkpt lat="42.95651" lon="0.84866">
        <ele>1471</ele>
        <time>2019-08-17T11:52:07Z</time>
      </trkpt>
      <trkpt lat="42.95651" lon="0.84866">
        <ele>1470.9</ele>
        <time>2019-08-17T11:52:08Z</time>
      </trkpt>
      <trkpt lat="42.9565" lon="0.84867">
        <ele>1470.8</ele>
        <time>2019-08-17T11:52:09Z</time>
      </trkpt>
      <trkpt lat="42.9565" lon="0.84868">
        <ele>1470.7</ele>
        <time>2019-08-17T11:52:10Z</time>
      </trkpt>
      <trkpt lat="42.9565" lon="0.84869">
        <ele>1470.6</ele>
        <time>2019-08-17T11:52:11Z</time>
      </trkpt>
      <trkpt lat="42.9565" lon="0.84871">
        <ele>1470.4</ele>
        <time>2019-08-17T11:52:12Z</time>
      </trkpt>
      <trkpt lat="42.95649" lon="0.84872">
        <ele>1470.3</ele>
        <time>2019-08-17T11:52:13Z</time>
      </trkpt>
      <trkpt lat="42.95649" lon="0.84873">
        <ele>1470.1</ele>
        <time>2019-08-17T11:52:14Z</time>
      </trkpt>
      <trkpt lat="42.95648" lon="0.84873">
        <ele>1469.9</ele>
        <time>2019-08-17T11:52:15Z</time>
      </trkpt>
      <trkpt lat="42.95647" lon="0.84874">
        <ele>1469.6</ele>
        <time>2019-08-17T11:52:16Z</time>
      </trkpt>
      <trkpt lat="42.95647" lon="0.84875">
        <ele>1469.4</ele>
        <time>2019-08-17T11:52:17Z</time>
      </trkpt>
      <trkpt lat="42.95646" lon="0.84875">
        <ele>1469.3</ele>
        <time>2019-08-17T11:52:18Z</time>
      </trkpt>
      <trkpt lat="42.95646" lon="0.84876">
        <ele>1469.3</ele>
        <time>2019-08-17T11:52:19Z</time>
      </trkpt>
      <trkpt lat="42.95646" lon="0.84876">
        <ele>1469.3</ele>
        <time>2019-08-17T11:52:20Z</time>
      </trkpt>
      <trkpt lat="42.95646" lon="0.84877">
        <ele>1469.3</ele>
        <time>2019-08-17T11:52:21Z</time>
      </trkpt>
      <trkpt lat="42.95646" lon="0.84877">
        <ele>1469.3</ele>
        <time>2019-08-17T11:52:22Z</time>
      </trkpt>
      <trkpt lat="42.95646" lon="0.84877">
        <ele>1469.3</ele>
        <time>2019-08-17T11:52:23Z</time>
      </trkpt>
      <trkpt lat="42.95646" lon="0.84877">
        <ele>1469.3</ele>
        <time>2019-08-17T11:52:24Z</time>
      </trkpt>
      <trkpt lat="42.95645" lon="0.84877">
        <ele>1469.3</ele>
        <time>2019-08-17T11:52:25Z</time>
      </trkpt>
      <trkpt lat="42.95645" lon="0.84877">
        <ele>1469.3</ele>
        <time>2019-08-17T11:52:26Z</time>
      </trkpt>
      <trkpt lat="42.95645" lon="0.84877">
        <ele>1469.3</ele>
        <time>2019-08-17T11:52:27Z</time>
      </trkpt>
      <trkpt lat="42.95645" lon="0.84878">
        <ele>1469.3</ele>
        <time>2019-08-17T11:52:28Z</time>
      </trkpt>
      <trkpt lat="42.95644" lon="0.84879">
        <ele>1469.3</ele>
        <time>2019-08-17T11:52:29Z</time>
      </trkpt>
      <trkpt lat="42.95644" lon="0.8488">
        <ele>1469.3</ele>
        <time>2019-08-17T11:52:30Z</time>
      </trkpt>
      <trkpt lat="42.95643" lon="0.84881">
        <ele>1469.3</ele>
        <time>2019-08-17T11:52:31Z</time>
      </trkpt>
      <trkpt lat="42.95642" lon="0.84882">
        <ele>1469.3</ele>
        <time>2019-08-17T11:52:32Z</time>
      </trkpt>
      <trkpt lat="42.95642" lon="0.84882">
        <ele>1469.3</ele>
        <time>2019-08-17T11:52:33Z</time>
      </trkpt>
      <trkpt lat="42.95641" lon="0.84882">
        <ele>1469.2</ele>
        <time>2019-08-17T11:52:34Z</time>
      </trkpt>
      <trkpt lat="42.9564" lon="0.84882">
        <ele>1469.2</ele>
        <time>2019-08-17T11:52:35Z</time>
      </trkpt>
      <trkpt lat="42.95639" lon="0.84882">
        <ele>1469.2</ele>
        <time>2019-08-17T11:52:36Z</time>
      </trkpt>
      <trkpt lat="42.95638" lon="0.84882">
        <ele>1469.2</ele>
        <time>2019-08-17T11:52:37Z</time>
      </trkpt>
      <trkpt lat="42.95638" lon="0.84882">
        <ele>1469.2</ele>
        <time>2019-08-17T11:52:38Z</time>
      </trkpt>
      <trkpt lat="42.95638" lon="0.84882">
        <ele>1469.2</ele>
        <time>2019-08-17T11:52:39Z</time>
      </trkpt>
      <trkpt lat="42.95638" lon="0.84881">
        <ele>1469.2</ele>
        <time>2019-08-17T11:52:40Z</time>
      </trkpt>
      <trkpt lat="42.95638" lon="0.84881">
        <ele>1469.2</ele>
        <time>2019-08-17T11:52:41Z</time>
      </trkpt>
      <trkpt lat="42.95638" lon="0.84881">
        <ele>1469.2</ele>
        <time>2019-08-17T11:52:42Z</time>
      </trkpt>
      <trkpt lat="42.95639" lon="0.84881">
        <ele>1469.2</ele>
        <time>2019-08-17T11:52:43Z</time>
      </trkpt>
      <trkpt lat="42.95639" lon="0.8488">
        <ele>1469.2</ele>
        <time>2019-08-17T11:52:44Z</time>
      </trkpt>
      <trkpt lat="42.95639" lon="0.8488">
        <ele>1469.2</ele>
        <time>2019-08-17T11:52:45Z</time>
      </trkpt>
      <trkpt lat="42.95639" lon="0.8488">
        <ele>1469.2</ele>
        <time>2019-08-17T11:52:46Z</time>
      </trkpt>
      <trkpt lat="42.95639" lon="0.8488">
        <ele>1469.2</ele>
        <time>2019-08-17T11:52:47Z</time>
      </trkpt>
      <trkpt lat="42.95639" lon="0.8488">
        <ele>1469.2</ele>
        <time>2019-08-17T11:52:48Z</time>
      </trkpt>
      <trkpt lat="42.95639" lon="0.8488">
        <ele>1469.2</ele>
        <time>2019-08-17T11:52:49Z</time>
      </trkpt>
      <trkpt lat="42.95639" lon="0.8488">
        <ele>1469.2</ele>
        <time>2019-08-17T11:52:50Z</time>
      </trkpt>
      <trkpt lat="42.95639" lon="0.8488">
        <ele>1469.2</ele>
        <time>2019-08-17T11:52:51Z</time>
      </trkpt>
      <trkpt lat="42.95639" lon="0.8488">
        <ele>1469.2</ele>
        <time>2019-08-17T11:52:52Z</time>
      </trkpt>
      <trkpt lat="42.95639" lon="0.8488">
        <ele>1469.2</ele>
        <time>2019-08-17T11:52:53Z</time>
      </trkpt>
      <trkpt lat="42.95639" lon="0.8488">
        <ele>1469.2</ele>
        <time>2019-08-17T11:52:54Z</time>
      </trkpt>
      <trkpt lat="42.9564" lon="0.84879">
        <ele>1469.2</ele>
        <time>2019-08-17T11:52:55Z</time>
      </trkpt>
      <trkpt lat="42.9564" lon="0.84878">
        <ele>1469.2</ele>
        <time>2019-08-17T11:52:56Z</time>
      </trkpt>
      <trkpt lat="42.9564" lon="0.84877">
        <ele>1469.2</ele>
        <time>2019-08-17T11:52:57Z</time>
      </trkpt>
      <trkpt lat="42.95639" lon="0.84876">
        <ele>1469.2</ele>
        <time>2019-08-17T11:52:58Z</time>
      </trkpt>
      <trkpt lat="42.95639" lon="0.84875">
        <ele>1469.3</ele>
        <time>2019-08-17T11:52:59Z</time>
      </trkpt>
      <trkpt lat="42.95638" lon="0.84875">
        <ele>1469.3</ele>
        <time>2019-08-17T11:53:00Z</time>
      </trkpt>
      <trkpt lat="42.95637" lon="0.84874">
        <ele>1469.3</ele>
        <time>2019-08-17T11:53:01Z</time>
      </trkpt>
      <trkpt lat="42.95636" lon="0.84874">
        <ele>1469.4</ele>
        <time>2019-08-17T11:53:02Z</time>
      </trkpt>
      <trkpt lat="42.95635" lon="0.84873">
        <ele>1469.4</ele>
        <time>2019-08-17T11:53:03Z</time>
      </trkpt>
      <trkpt lat="42.95634" lon="0.84873">
        <ele>1469.5</ele>
        <time>2019-08-17T11:53:04Z</time>
      </trkpt>
      <trkpt lat="42.95633" lon="0.84873">
        <ele>1469.4</ele>
        <time>2019-08-17T11:53:05Z</time>
      </trkpt>
      <trkpt lat="42.95632" lon="0.84873">
        <ele>1469.4</ele>
        <time>2019-08-17T11:53:06Z</time>
      </trkpt>
      <trkpt lat="42.95631" lon="0.84873">
        <ele>1469.3</ele>
        <time>2019-08-17T11:53:07Z</time>
      </trkpt>
      <trkpt lat="42.95631" lon="0.84873">
        <ele>1469.3</ele>
        <time>2019-08-17T11:53:08Z</time>
      </trkpt>
      <trkpt lat="42.9563" lon="0.84873">
        <ele>1469.2</ele>
        <time>2019-08-17T11:53:09Z</time>
      </trkpt>
      <trkpt lat="42.95629" lon="0.84874">
        <ele>1469.2</ele>
        <time>2019-08-17T11:53:10Z</time>
      </trkpt>
      <trkpt lat="42.95628" lon="0.84874">
        <ele>1469.2</ele>
        <time>2019-08-17T11:53:11Z</time>
      </trkpt>
      <trkpt lat="42.95628" lon="0.84873">
        <ele>1469.1</ele>
        <time>2019-08-17T11:53:12Z</time>
      </trkpt>
      <trkpt lat="42.95627" lon="0.84873">
        <ele>1469.1</ele>
        <time>2019-08-17T11:53:13Z</time>
      </trkpt>
      <trkpt lat="42.95626" lon="0.84873">
        <ele>1469</ele>
        <time>2019-08-17T11:53:14Z</time>
      </trkpt>
      <trkpt lat="42.95625" lon="0.84872">
        <ele>1469</ele>
        <time>2019-08-17T11:53:15Z</time>
      </trkpt>
      <trkpt lat="42.95625" lon="0.84871">
        <ele>1468.9</ele>
        <time>2019-08-17T11:53:16Z</time>
      </trkpt>
      <trkpt lat="42.95624" lon="0.84871">
        <ele>1468.8</ele>
        <time>2019-08-17T11:53:17Z</time>
      </trkpt>
      <trkpt lat="42.95623" lon="0.8487">
        <ele>1468.8</ele>
        <time>2019-08-17T11:53:18Z</time>
      </trkpt>
      <trkpt lat="42.95622" lon="0.84869">
        <ele>1468.7</ele>
        <time>2019-08-17T11:53:19Z</time>
      </trkpt>
      <trkpt lat="42.95621" lon="0.84869">
        <ele>1468.7</ele>
        <time>2019-08-17T11:53:20Z</time>
      </trkpt>
      <trkpt lat="42.95621" lon="0.84869">
        <ele>1468.6</ele>
        <time>2019-08-17T11:53:21Z</time>
      </trkpt>
      <trkpt lat="42.9562" lon="0.84869">
        <ele>1468.6</ele>
        <time>2019-08-17T11:53:22Z</time>
      </trkpt>
      <trkpt lat="42.95619" lon="0.84869">
        <ele>1468.5</ele>
        <time>2019-08-17T11:53:23Z</time>
      </trkpt>
      <trkpt lat="42.95619" lon="0.8487">
        <ele>1468.5</ele>
        <time>2019-08-17T11:53:24Z</time>
      </trkpt>
      <trkpt lat="42.95618" lon="0.8487">
        <ele>1468.4</ele>
        <time>2019-08-17T11:53:25Z</time>
      </trkpt>
      <trkpt lat="42.95617" lon="0.84871">
        <ele>1468.3</ele>
        <time>2019-08-17T11:53:26Z</time>
      </trkpt>
      <trkpt lat="42.95617" lon="0.84871">
        <ele>1468.3</ele>
        <time>2019-08-17T11:53:27Z</time>
      </trkpt>
      <trkpt lat="42.95616" lon="0.84872">
        <ele>1468.2</ele>
        <time>2019-08-17T11:53:28Z</time>
      </trkpt>
      <trkpt lat="42.95615" lon="0.84873">
        <ele>1468.1</ele>
        <time>2019-08-17T11:53:29Z</time>
      </trkpt>
      <trkpt lat="42.95615" lon="0.84873">
        <ele>1468.1</ele>
        <time>2019-08-17T11:53:30Z</time>
      </trkpt>
      <trkpt lat="42.95614" lon="0.84874">
        <ele>1468</ele>
        <time>2019-08-17T11:53:31Z</time>
      </trkpt>
      <trkpt lat="42.95613" lon="0.84874">
        <ele>1467.9</ele>
        <time>2019-08-17T11:53:32Z</time>
      </trkpt>
      <trkpt lat="42.95613" lon="0.84875">
        <ele>1467.9</ele>
        <time>2019-08-17T11:53:33Z</time>
      </trkpt>
      <trkpt lat="42.95612" lon="0.84875">
        <ele>1467.8</ele>
        <time>2019-08-17T11:53:34Z</time>
      </trkpt>
      <trkpt lat="42.95611" lon="0.84875">
        <ele>1467.8</ele>
        <time>2019-08-17T11:53:35Z</time>
      </trkpt>
      <trkpt lat="42.95611" lon="0.84875">
        <ele>1467.7</ele>
        <time>2019-08-17T11:53:36Z</time>
      </trkpt>
      <trkpt lat="42.9561" lon="0.84875">
        <ele>1467.6</ele>
        <time>2019-08-17T11:53:37Z</time>
      </trkpt>
      <trkpt lat="42.9561" lon="0.84874">
        <ele>1467.6</ele>
        <time>2019-08-17T11:53:38Z</time>
      </trkpt>
      <trkpt lat="42.9561" lon="0.84873">
        <ele>1467.5</ele>
        <time>2019-08-17T11:53:39Z</time>
      </trkpt>
      <trkpt lat="42.95609" lon="0.84872">
        <ele>1467.4</ele>
        <time>2019-08-17T11:53:40Z</time>
      </trkpt>
      <trkpt lat="42.95609" lon="0.84871">
        <ele>1467.3</ele>
        <time>2019-08-17T11:53:41Z</time>
      </trkpt>
      <trkpt lat="42.95609" lon="0.8487">
        <ele>1467.2</ele>
        <time>2019-08-17T11:53:42Z</time>
      </trkpt>
      <trkpt lat="42.95608" lon="0.8487">
        <ele>1467.1</ele>
        <time>2019-08-17T11:53:43Z</time>
      </trkpt>
      <trkpt lat="42.95608" lon="0.84869">
        <ele>1467</ele>
        <time>2019-08-17T11:53:44Z</time>
      </trkpt>
      <trkpt lat="42.95608" lon="0.84869">
        <ele>1467</ele>
        <time>2019-08-17T11:53:45Z</time>
      </trkpt>
      <trkpt lat="42.95607" lon="0.84869">
        <ele>1466.9</ele>
        <time>2019-08-17T11:53:46Z</time>
      </trkpt>
      <trkpt lat="42.95607" lon="0.84869">
        <ele>1466.8</ele>
        <time>2019-08-17T11:53:47Z</time>
      </trkpt>
      <trkpt lat="42.95606" lon="0.84869">
        <ele>1466.8</ele>
        <time>2019-08-17T11:53:48Z</time>
      </trkpt>
      <trkpt lat="42.95606" lon="0.84869">
        <ele>1466.7</ele>
        <time>2019-08-17T11:53:49Z</time>
      </trkpt>
      <trkpt lat="42.95605" lon="0.84869">
        <ele>1466.7</ele>
        <time>2019-08-17T11:53:50Z</time>
      </trkpt>
      <trkpt lat="42.95604" lon="0.84869">
        <ele>1466.6</ele>
        <time>2019-08-17T11:53:51Z</time>
      </trkpt>
      <trkpt lat="42.95604" lon="0.84869">
        <ele>1466.5</ele>
        <time>2019-08-17T11:53:52Z</time>
      </trkpt>
      <trkpt lat="42.95603" lon="0.8487">
        <ele>1466.5</ele>
        <time>2019-08-17T11:53:53Z</time>
      </trkpt>
      <trkpt lat="42.95602" lon="0.8487">
        <ele>1466.5</ele>
        <time>2019-08-17T11:53:54Z</time>
      </trkpt>
      <trkpt lat="42.95602" lon="0.8487">
        <ele>1466.4</ele>
        <time>2019-08-17T11:53:55Z</time>
      </trkpt>
      <trkpt lat="42.95601" lon="0.8487">
        <ele>1466.4</ele>
        <time>2019-08-17T11:53:56Z</time>
      </trkpt>
      <trkpt lat="42.956" lon="0.84869">
        <ele>1466.4</ele>
        <time>2019-08-17T11:53:57Z</time>
      </trkpt>
      <trkpt lat="42.95599" lon="0.84869">
        <ele>1466.3</ele>
        <time>2019-08-17T11:53:58Z</time>
      </trkpt>
      <trkpt lat="42.95598" lon="0.84868">
        <ele>1466.3</ele>
        <time>2019-08-17T11:53:59Z</time>
      </trkpt>
      <trkpt lat="42.95597" lon="0.84867">
        <ele>1466.2</ele>
        <time>2019-08-17T11:54:00Z</time>
      </trkpt>
      <trkpt lat="42.95597" lon="0.84866">
        <ele>1466.2</ele>
        <time>2019-08-17T11:54:01Z</time>
      </trkpt>
      <trkpt lat="42.95596" lon="0.84865">
        <ele>1466.2</ele>
        <time>2019-08-17T11:54:02Z</time>
      </trkpt>
      <trkpt lat="42.95596" lon="0.84864">
        <ele>1466.1</ele>
        <time>2019-08-17T11:54:03Z</time>
      </trkpt>
      <trkpt lat="42.95595" lon="0.84864">
        <ele>1466.1</ele>
        <time>2019-08-17T11:54:04Z</time>
      </trkpt>
      <trkpt lat="42.95595" lon="0.84864">
        <ele>1466.1</ele>
        <time>2019-08-17T11:54:05Z</time>
      </trkpt>
      <trkpt lat="42.95595" lon="0.84863">
        <ele>1466.1</ele>
        <time>2019-08-17T11:54:06Z</time>
      </trkpt>
      <trkpt lat="42.95594" lon="0.84863">
        <ele>1466</ele>
        <time>2019-08-17T11:54:07Z</time>
      </trkpt>
      <trkpt lat="42.95594" lon="0.84863">
        <ele>1466</ele>
        <time>2019-08-17T11:54:08Z</time>
      </trkpt>
      <trkpt lat="42.95594" lon="0.84863">
        <ele>1466</ele>
        <time>2019-08-17T11:54:09Z</time>
      </trkpt>
      <trkpt lat="42.95594" lon="0.84863">
        <ele>1465.9</ele>
        <time>2019-08-17T11:54:10Z</time>
      </trkpt>
      <trkpt lat="42.95593" lon="0.84862">
        <ele>1465.8</ele>
        <time>2019-08-17T11:54:11Z</time>
      </trkpt>
      <trkpt lat="42.95593" lon="0.84862">
        <ele>1465.7</ele>
        <time>2019-08-17T11:54:12Z</time>
      </trkpt>
      <trkpt lat="42.95592" lon="0.84861">
        <ele>1465.7</ele>
        <time>2019-08-17T11:54:13Z</time>
      </trkpt>
      <trkpt lat="42.95592" lon="0.84861">
        <ele>1465.6</ele>
        <time>2019-08-17T11:54:14Z</time>
      </trkpt>
      <trkpt lat="42.95592" lon="0.8486">
        <ele>1465.6</ele>
        <time>2019-08-17T11:54:15Z</time>
      </trkpt>
      <trkpt lat="42.95592" lon="0.8486">
        <ele>1465.5</ele>
        <time>2019-08-17T11:54:16Z</time>
      </trkpt>
      <trkpt lat="42.95592" lon="0.8486">
        <ele>1465.5</ele>
        <time>2019-08-17T11:54:17Z</time>
      </trkpt>
      <trkpt lat="42.95592" lon="0.8486">
        <ele>1465.5</ele>
        <time>2019-08-17T11:54:18Z</time>
      </trkpt>
      <trkpt lat="42.95592" lon="0.8486">
        <ele>1465.5</ele>
        <time>2019-08-17T11:54:19Z</time>
      </trkpt>
      <trkpt lat="42.95592" lon="0.8486">
        <ele>1465.5</ele>
        <time>2019-08-17T11:54:20Z</time>
      </trkpt>
      <trkpt lat="42.95591" lon="0.84859">
        <ele>1465.4</ele>
        <time>2019-08-17T11:54:21Z</time>
      </trkpt>
      <trkpt lat="42.95591" lon="0.84858">
        <ele>1465.3</ele>
        <time>2019-08-17T11:54:22Z</time>
      </trkpt>
      <trkpt lat="42.9559" lon="0.84857">
        <ele>1465.2</ele>
        <time>2019-08-17T11:54:23Z</time>
      </trkpt>
      <trkpt lat="42.9559" lon="0.84857">
        <ele>1465.1</ele>
        <time>2019-08-17T11:54:24Z</time>
      </trkpt>
      <trkpt lat="42.95589" lon="0.84856">
        <ele>1465</ele>
        <time>2019-08-17T11:54:25Z</time>
      </trkpt>
      <trkpt lat="42.95589" lon="0.84855">
        <ele>1464.9</ele>
        <time>2019-08-17T11:54:26Z</time>
      </trkpt>
      <trkpt lat="42.95588" lon="0.84855">
        <ele>1464.8</ele>
        <time>2019-08-17T11:54:27Z</time>
      </trkpt>
      <trkpt lat="42.95588" lon="0.84854">
        <ele>1464.7</ele>
        <time>2019-08-17T11:54:28Z</time>
      </trkpt>
      <trkpt lat="42.95587" lon="0.84853">
        <ele>1464.6</ele>
        <time>2019-08-17T11:54:29Z</time>
      </trkpt>
      <trkpt lat="42.95587" lon="0.84852">
        <ele>1464.4</ele>
        <time>2019-08-17T11:54:30Z</time>
      </trkpt>
      <trkpt lat="42.95586" lon="0.84852">
        <ele>1464.2</ele>
        <time>2019-08-17T11:54:31Z</time>
      </trkpt>
      <trkpt lat="42.95586" lon="0.84851">
        <ele>1464</ele>
        <time>2019-08-17T11:54:32Z</time>
      </trkpt>
      <trkpt lat="42.95585" lon="0.8485">
        <ele>1463.8</ele>
        <time>2019-08-17T11:54:33Z</time>
      </trkpt>
      <trkpt lat="42.95584" lon="0.8485">
        <ele>1463.6</ele>
        <time>2019-08-17T11:54:34Z</time>
      </trkpt>
      <trkpt lat="42.95583" lon="0.84849">
        <ele>1463.4</ele>
        <time>2019-08-17T11:54:35Z</time>
      </trkpt>
      <trkpt lat="42.95582" lon="0.84849">
        <ele>1463.2</ele>
        <time>2019-08-17T11:54:36Z</time>
      </trkpt>
      <trkpt lat="42.95582" lon="0.84848">
        <ele>1463</ele>
        <time>2019-08-17T11:54:37Z</time>
      </trkpt>
      <trkpt lat="42.95581" lon="0.84848">
        <ele>1462.8</ele>
        <time>2019-08-17T11:54:38Z</time>
      </trkpt>
      <trkpt lat="42.9558" lon="0.84848">
        <ele>1462.6</ele>
        <time>2019-08-17T11:54:39Z</time>
      </trkpt>
      <trkpt lat="42.95579" lon="0.84847">
        <ele>1462.4</ele>
        <time>2019-08-17T11:54:40Z</time>
      </trkpt>
      <trkpt lat="42.95578" lon="0.84847">
        <ele>1462.1</ele>
        <time>2019-08-17T11:54:41Z</time>
      </trkpt>
      <trkpt lat="42.95577" lon="0.84847">
        <ele>1461.9</ele>
        <time>2019-08-17T11:54:42Z</time>
      </trkpt>
      <trkpt lat="42.95576" lon="0.84846">
        <ele>1461.7</ele>
        <time>2019-08-17T11:54:43Z</time>
      </trkpt>
      <trkpt lat="42.95575" lon="0.84846">
        <ele>1461.4</ele>
        <time>2019-08-17T11:54:44Z</time>
      </trkpt>
      <trkpt lat="42.95575" lon="0.84845">
        <ele>1461.2</ele>
        <time>2019-08-17T11:54:45Z</time>
      </trkpt>
      <trkpt lat="42.95574" lon="0.84844">
        <ele>1460.9</ele>
        <time>2019-08-17T11:54:46Z</time>
      </trkpt>
      <trkpt lat="42.95573" lon="0.84844">
        <ele>1460.7</ele>
        <time>2019-08-17T11:54:47Z</time>
      </trkpt>
      <trkpt lat="42.95572" lon="0.84843">
        <ele>1460.4</ele>
        <time>2019-08-17T11:54:48Z</time>
      </trkpt>
      <trkpt lat="42.95571" lon="0.84843">
        <ele>1460.2</ele>
        <time>2019-08-17T11:54:49Z</time>
      </trkpt>
      <trkpt lat="42.95571" lon="0.84842">
        <ele>1460</ele>
        <time>2019-08-17T11:54:50Z</time>
      </trkpt>
      <trkpt lat="42.9557" lon="0.84841">
        <ele>1459.9</ele>
        <time>2019-08-17T11:54:51Z</time>
      </trkpt>
      <trkpt lat="42.95569" lon="0.84841">
        <ele>1459.7</ele>
        <time>2019-08-17T11:54:52Z</time>
      </trkpt>
      <trkpt lat="42.95569" lon="0.84841">
        <ele>1459.5</ele>
        <time>2019-08-17T11:54:53Z</time>
      </trkpt>
      <trkpt lat="42.95568" lon="0.8484">
        <ele>1459.4</ele>
        <time>2019-08-17T11:54:54Z</time>
      </trkpt>
      <trkpt lat="42.95568" lon="0.8484">
        <ele>1459.4</ele>
        <time>2019-08-17T11:54:55Z</time>
      </trkpt>
      <trkpt lat="42.95568" lon="0.8484">
        <ele>1459.3</ele>
        <time>2019-08-17T11:54:56Z</time>
      </trkpt>
      <trkpt lat="42.95568" lon="0.8484">
        <ele>1459.3</ele>
        <time>2019-08-17T11:54:57Z</time>
      </trkpt>
      <trkpt lat="42.95568" lon="0.8484">
        <ele>1459.3</ele>
        <time>2019-08-17T11:54:58Z</time>
      </trkpt>
      <trkpt lat="42.95569" lon="0.84841">
        <ele>1459.2</ele>
        <time>2019-08-17T11:54:59Z</time>
      </trkpt>
      <trkpt lat="42.95569" lon="0.84841">
        <ele>1459</ele>
        <time>2019-08-17T11:55:00Z</time>
      </trkpt>
      <trkpt lat="42.9557" lon="0.84841">
        <ele>1458.8</ele>
        <time>2019-08-17T11:55:01Z</time>
      </trkpt>
      <trkpt lat="42.95571" lon="0.84842">
        <ele>1458.6</ele>
        <time>2019-08-17T11:55:02Z</time>
      </trkpt>
      <trkpt lat="42.95572" lon="0.84843">
        <ele>1458.4</ele>
        <time>2019-08-17T11:55:03Z</time>
      </trkpt>
      <trkpt lat="42.95572" lon="0.84843">
        <ele>1458.2</ele>
        <time>2019-08-17T11:55:04Z</time>
      </trkpt>
      <trkpt lat="42.95573" lon="0.84844">
        <ele>1458</ele>
        <time>2019-08-17T11:55:05Z</time>
      </trkpt>
      <trkpt lat="42.95574" lon="0.84844">
        <ele>1457.8</ele>
        <time>2019-08-17T11:55:06Z</time>
      </trkpt>
      <trkpt lat="42.95574" lon="0.84845">
        <ele>1457.7</ele>
        <time>2019-08-17T11:55:07Z</time>
      </trkpt>
      <trkpt lat="42.95575" lon="0.84845">
        <ele>1457.6</ele>
        <time>2019-08-17T11:55:08Z</time>
      </trkpt>
      <trkpt lat="42.95575" lon="0.84846">
        <ele>1457.5</ele>
        <time>2019-08-17T11:55:09Z</time>
      </trkpt>
      <trkpt lat="42.95575" lon="0.84846">
        <ele>1457.4</ele>
        <time>2019-08-17T11:55:10Z</time>
      </trkpt>
      <trkpt lat="42.95575" lon="0.84846">
        <ele>1457.4</ele>
        <time>2019-08-17T11:55:11Z</time>
      </trkpt>
      <trkpt lat="42.95576" lon="0.84847">
        <ele>1457.2</ele>
        <time>2019-08-17T11:55:12Z</time>
      </trkpt>
      <trkpt lat="42.95576" lon="0.84848">
        <ele>1457</ele>
        <time>2019-08-17T11:55:13Z</time>
      </trkpt>
      <trkpt lat="42.95577" lon="0.84849">
        <ele>1456.8</ele>
        <time>2019-08-17T11:55:14Z</time>
      </trkpt>
      <trkpt lat="42.95578" lon="0.8485">
        <ele>1456.5</ele>
        <time>2019-08-17T11:55:15Z</time>
      </trkpt>
      <trkpt lat="42.95578" lon="0.84851">
        <ele>1456.3</ele>
        <time>2019-08-17T11:55:16Z</time>
      </trkpt>
      <trkpt lat="42.95579" lon="0.84852">
        <ele>1456.2</ele>
        <time>2019-08-17T11:55:17Z</time>
      </trkpt>
      <trkpt lat="42.95579" lon="0.84853">
        <ele>1456</ele>
        <time>2019-08-17T11:55:18Z</time>
      </trkpt>
      <trkpt lat="42.95579" lon="0.84854">
        <ele>1455.7</ele>
        <time>2019-08-17T11:55:19Z</time>
      </trkpt>
      <trkpt lat="42.95579" lon="0.84854">
        <ele>1455.5</ele>
        <time>2019-08-17T11:55:20Z</time>
      </trkpt>
      <trkpt lat="42.95579" lon="0.84855">
        <ele>1455.3</ele>
        <time>2019-08-17T11:55:21Z</time>
      </trkpt>
      <trkpt lat="42.95579" lon="0.84855">
        <ele>1455.2</ele>
        <time>2019-08-17T11:55:22Z</time>
      </trkpt>
      <trkpt lat="42.95579" lon="0.84856">
        <ele>1455.1</ele>
        <time>2019-08-17T11:55:23Z</time>
      </trkpt>
      <trkpt lat="42.95579" lon="0.84856">
        <ele>1455</ele>
        <time>2019-08-17T11:55:24Z</time>
      </trkpt>
      <trkpt lat="42.95579" lon="0.84856">
        <ele>1454.9</ele>
        <time>2019-08-17T11:55:25Z</time>
      </trkpt>
      <trkpt lat="42.95579" lon="0.84856">
        <ele>1454.9</ele>
        <time>2019-08-17T11:55:26Z</time>
      </trkpt>
      <trkpt lat="42.95579" lon="0.84856">
        <ele>1454.8</ele>
        <time>2019-08-17T11:55:27Z</time>
      </trkpt>
      <trkpt lat="42.95579" lon="0.84856">
        <ele>1454.7</ele>
        <time>2019-08-17T11:55:28Z</time>
      </trkpt>
      <trkpt lat="42.95578" lon="0.84856">
        <ele>1454.6</ele>
        <time>2019-08-17T11:55:29Z</time>
      </trkpt>
      <trkpt lat="42.95578" lon="0.84857">
        <ele>1454.6</ele>
        <time>2019-08-17T11:55:30Z</time>
      </trkpt>
      <trkpt lat="42.95578" lon="0.84857">
        <ele>1454.5</ele>
        <time>2019-08-17T11:55:31Z</time>
      </trkpt>
      <trkpt lat="42.95578" lon="0.84857">
        <ele>1454.3</ele>
        <time>2019-08-17T11:55:32Z</time>
      </trkpt>
      <trkpt lat="42.95578" lon="0.84858">
        <ele>1454.2</ele>
        <time>2019-08-17T11:55:33Z</time>
      </trkpt>
      <trkpt lat="42.95577" lon="0.84858">
        <ele>1454</ele>
        <time>2019-08-17T11:55:34Z</time>
      </trkpt>
      <trkpt lat="42.95577" lon="0.84858">
        <ele>1453.7</ele>
        <time>2019-08-17T11:55:35Z</time>
      </trkpt>
      <trkpt lat="42.95576" lon="0.84859">
        <ele>1453.4</ele>
        <time>2019-08-17T11:55:36Z</time>
      </trkpt>
      <trkpt lat="42.95576" lon="0.84859">
        <ele>1453.2</ele>
        <time>2019-08-17T11:55:37Z</time>
      </trkpt>
      <trkpt lat="42.95575" lon="0.8486">
        <ele>1452.9</ele>
        <time>2019-08-17T11:55:38Z</time>
      </trkpt>
      <trkpt lat="42.95575" lon="0.84861">
        <ele>1452.7</ele>
        <time>2019-08-17T11:55:39Z</time>
      </trkpt>
      <trkpt lat="42.95574" lon="0.84861">
        <ele>1452.4</ele>
        <time>2019-08-17T11:55:40Z</time>
      </trkpt>
      <trkpt lat="42.95573" lon="0.84861">
        <ele>1452.2</ele>
        <time>2019-08-17T11:55:41Z</time>
      </trkpt>
      <trkpt lat="42.95573" lon="0.84861">
        <ele>1452</ele>
        <time>2019-08-17T11:55:42Z</time>
      </trkpt>
      <trkpt lat="42.95572" lon="0.84861">
        <ele>1451.7</ele>
        <time>2019-08-17T11:55:43Z</time>
      </trkpt>
      <trkpt lat="42.95571" lon="0.8486">
        <ele>1451.4</ele>
        <time>2019-08-17T11:55:44Z</time>
      </trkpt>
      <trkpt lat="42.9557" lon="0.84859">
        <ele>1451.2</ele>
        <time>2019-08-17T11:55:45Z</time>
      </trkpt>
      <trkpt lat="42.9557" lon="0.84859">
        <ele>1451</ele>
        <time>2019-08-17T11:55:46Z</time>
      </trkpt>
      <trkpt lat="42.95569" lon="0.84859">
        <ele>1450.8</ele>
        <time>2019-08-17T11:55:47Z</time>
      </trkpt>
      <trkpt lat="42.95569" lon="0.84859">
        <ele>1450.7</ele>
        <time>2019-08-17T11:55:48Z</time>
      </trkpt>
      <trkpt lat="42.95568" lon="0.84859">
        <ele>1450.6</ele>
        <time>2019-08-17T11:55:49Z</time>
      </trkpt>
      <trkpt lat="42.95568" lon="0.84859">
        <ele>1450.4</ele>
        <time>2019-08-17T11:55:50Z</time>
      </trkpt>
      <trkpt lat="42.95567" lon="0.8486">
        <ele>1450.1</ele>
        <time>2019-08-17T11:55:51Z</time>
      </trkpt>
      <trkpt lat="42.95566" lon="0.8486">
        <ele>1449.8</ele>
        <time>2019-08-17T11:55:52Z</time>
      </trkpt>
      <trkpt lat="42.95565" lon="0.84861">
        <ele>1449.5</ele>
        <time>2019-08-17T11:55:53Z</time>
      </trkpt>
      <trkpt lat="42.95564" lon="0.84861">
        <ele>1449.3</ele>
        <time>2019-08-17T11:55:54Z</time>
      </trkpt>
      <trkpt lat="42.95563" lon="0.84861">
        <ele>1449.1</ele>
        <time>2019-08-17T11:55:55Z</time>
      </trkpt>
      <trkpt lat="42.95563" lon="0.84861">
        <ele>1448.9</ele>
        <time>2019-08-17T11:55:56Z</time>
      </trkpt>
      <trkpt lat="42.95562" lon="0.84861">
        <ele>1448.8</ele>
        <time>2019-08-17T11:55:57Z</time>
      </trkpt>
      <trkpt lat="42.95561" lon="0.84861">
        <ele>1448.6</ele>
        <time>2019-08-17T11:55:58Z</time>
      </trkpt>
      <trkpt lat="42.95561" lon="0.84861">
        <ele>1448.5</ele>
        <time>2019-08-17T11:55:59Z</time>
      </trkpt>
      <trkpt lat="42.9556" lon="0.84862">
        <ele>1448.3</ele>
        <time>2019-08-17T11:56:00Z</time>
      </trkpt>
      <trkpt lat="42.95559" lon="0.84862">
        <ele>1448.2</ele>
        <time>2019-08-17T11:56:01Z</time>
      </trkpt>
      <trkpt lat="42.95559" lon="0.84862">
        <ele>1448</ele>
        <time>2019-08-17T11:56:02Z</time>
      </trkpt>
      <trkpt lat="42.95558" lon="0.84862">
        <ele>1447.9</ele>
        <time>2019-08-17T11:56:03Z</time>
      </trkpt>
      <trkpt lat="42.95558" lon="0.84863">
        <ele>1447.7</ele>
        <time>2019-08-17T11:56:04Z</time>
      </trkpt>
      <trkpt lat="42.95557" lon="0.84863">
        <ele>1447.6</ele>
        <time>2019-08-17T11:56:05Z</time>
      </trkpt>
      <trkpt lat="42.95557" lon="0.84864">
        <ele>1447.5</ele>
        <time>2019-08-17T11:56:06Z</time>
      </trkpt>
      <trkpt lat="42.95557" lon="0.84864">
        <ele>1447.4</ele>
        <time>2019-08-17T11:56:07Z</time>
      </trkpt>
      <trkpt lat="42.95557" lon="0.84864">
        <ele>1447.4</ele>
        <time>2019-08-17T11:56:08Z</time>
      </trkpt>
      <trkpt lat="42.95557" lon="0.84864">
        <ele>1447.4</ele>
        <time>2019-08-17T11:56:09Z</time>
      </trkpt>
      <trkpt lat="42.95557" lon="0.84864">
        <ele>1447.3</ele>
        <time>2019-08-17T11:56:10Z</time>
      </trkpt>
      <trkpt lat="42.95557" lon="0.84864">
        <ele>1447.3</ele>
        <time>2019-08-17T11:56:11Z</time>
      </trkpt>
      <trkpt lat="42.95556" lon="0.84864">
        <ele>1447.1</ele>
        <time>2019-08-17T11:56:12Z</time>
      </trkpt>
      <trkpt lat="42.95555" lon="0.84865">
        <ele>1446.9</ele>
        <time>2019-08-17T11:56:13Z</time>
      </trkpt>
      <trkpt lat="42.95555" lon="0.84866">
        <ele>1446.7</ele>
        <time>2019-08-17T11:56:14Z</time>
      </trkpt>
      <trkpt lat="42.95554" lon="0.84866">
        <ele>1446.5</ele>
        <time>2019-08-17T11:56:15Z</time>
      </trkpt>
      <trkpt lat="42.95554" lon="0.84866">
        <ele>1446.4</ele>
        <time>2019-08-17T11:56:16Z</time>
      </trkpt>
      <trkpt lat="42.95554" lon="0.84866">
        <ele>1446.2</ele>
        <time>2019-08-17T11:56:17Z</time>
      </trkpt>
      <trkpt lat="42.95553" lon="0.84866">
        <ele>1446</ele>
        <time>2019-08-17T11:56:18Z</time>
      </trkpt>
      <trkpt lat="42.95552" lon="0.84867">
        <ele>1445.8</ele>
        <time>2019-08-17T11:56:19Z</time>
      </trkpt>
      <trkpt lat="42.95552" lon="0.84867">
        <ele>1445.6</ele>
        <time>2019-08-17T11:56:20Z</time>
      </trkpt>
      <trkpt lat="42.95551" lon="0.84868">
        <ele>1445.3</ele>
        <time>2019-08-17T11:56:21Z</time>
      </trkpt>
      <trkpt lat="42.9555" lon="0.84868">
        <ele>1445</ele>
        <time>2019-08-17T11:56:22Z</time>
      </trkpt>
      <trkpt lat="42.95549" lon="0.84869">
        <ele>1444.6</ele>
        <time>2019-08-17T11:56:23Z</time>
      </trkpt>
      <trkpt lat="42.95548" lon="0.84869">
        <ele>1444.3</ele>
        <time>2019-08-17T11:56:24Z</time>
      </trkpt>
      <trkpt lat="42.95547" lon="0.8487">
        <ele>1444</ele>
        <time>2019-08-17T11:56:25Z</time>
      </trkpt>
      <trkpt lat="42.95546" lon="0.8487">
        <ele>1443.6</ele>
        <time>2019-08-17T11:56:26Z</time>
      </trkpt>
      <trkpt lat="42.95545" lon="0.84871">
        <ele>1443.2</ele>
        <time>2019-08-17T11:56:27Z</time>
      </trkpt>
      <trkpt lat="42.95545" lon="0.84871">
        <ele>1442.9</ele>
        <time>2019-08-17T11:56:28Z</time>
      </trkpt>
      <trkpt lat="42.95544" lon="0.84872">
        <ele>1442.6</ele>
        <time>2019-08-17T11:56:29Z</time>
      </trkpt>
      <trkpt lat="42.95543" lon="0.84872">
        <ele>1442.3</ele>
        <time>2019-08-17T11:56:30Z</time>
      </trkpt>
      <trkpt lat="42.95542" lon="0.84873">
        <ele>1442</ele>
        <time>2019-08-17T11:56:31Z</time>
      </trkpt>
      <trkpt lat="42.95541" lon="0.84874">
        <ele>1441.7</ele>
        <time>2019-08-17T11:56:32Z</time>
      </trkpt>
      <trkpt lat="42.9554" lon="0.84875">
        <ele>1441.4</ele>
        <time>2019-08-17T11:56:33Z</time>
      </trkpt>
      <trkpt lat="42.95539" lon="0.84876">
        <ele>1441.1</ele>
        <time>2019-08-17T11:56:34Z</time>
      </trkpt>
      <trkpt lat="42.95538" lon="0.84877">
        <ele>1440.8</ele>
        <time>2019-08-17T11:56:35Z</time>
      </trkpt>
      <trkpt lat="42.95537" lon="0.84878">
        <ele>1440.5</ele>
        <time>2019-08-17T11:56:36Z</time>
      </trkpt>
      <trkpt lat="42.95537" lon="0.84879">
        <ele>1440.1</ele>
        <time>2019-08-17T11:56:37Z</time>
      </trkpt>
      <trkpt lat="42.95536" lon="0.84879">
        <ele>1439.8</ele>
        <time>2019-08-17T11:56:38Z</time>
      </trkpt>
      <trkpt lat="42.95535" lon="0.8488">
        <ele>1439.4</ele>
        <time>2019-08-17T11:56:39Z</time>
      </trkpt>
      <trkpt lat="42.95534" lon="0.84881">
        <ele>1439</ele>
        <time>2019-08-17T11:56:40Z</time>
      </trkpt>
      <trkpt lat="42.95533" lon="0.84882">
        <ele>1438.6</ele>
        <time>2019-08-17T11:56:41Z</time>
      </trkpt>
      <trkpt lat="42.95532" lon="0.84882">
        <ele>1438.2</ele>
        <time>2019-08-17T11:56:42Z</time>
      </trkpt>
      <trkpt lat="42.9553" lon="0.84882">
        <ele>1437.8</ele>
        <time>2019-08-17T11:56:43Z</time>
      </trkpt>
      <trkpt lat="42.95529" lon="0.84883">
        <ele>1437.4</ele>
        <time>2019-08-17T11:56:44Z</time>
      </trkpt>
      <trkpt lat="42.95528" lon="0.84883">
        <ele>1437</ele>
        <time>2019-08-17T11:56:45Z</time>
      </trkpt>
      <trkpt lat="42.95527" lon="0.84883">
        <ele>1436.5</ele>
        <time>2019-08-17T11:56:46Z</time>
      </trkpt>
      <trkpt lat="42.95526" lon="0.84883">
        <ele>1436.3</ele>
        <time>2019-08-17T11:56:47Z</time>
      </trkpt>
      <trkpt lat="42.95524" lon="0.84883">
        <ele>1436.1</ele>
        <time>2019-08-17T11:56:48Z</time>
      </trkpt>
      <trkpt lat="42.95523" lon="0.84883">
        <ele>1435.9</ele>
        <time>2019-08-17T11:56:49Z</time>
      </trkpt>
      <trkpt lat="42.95522" lon="0.84883">
        <ele>1435.7</ele>
        <time>2019-08-17T11:56:50Z</time>
      </trkpt>
      <trkpt lat="42.95521" lon="0.84883">
        <ele>1435.5</ele>
        <time>2019-08-17T11:56:51Z</time>
      </trkpt>
      <trkpt lat="42.9552" lon="0.84883">
        <ele>1435.3</ele>
        <time>2019-08-17T11:56:52Z</time>
      </trkpt>
      <trkpt lat="42.95519" lon="0.84883">
        <ele>1435.1</ele>
        <time>2019-08-17T11:56:53Z</time>
      </trkpt>
      <trkpt lat="42.95518" lon="0.84883">
        <ele>1434.9</ele>
        <time>2019-08-17T11:56:54Z</time>
      </trkpt>
      <trkpt lat="42.95517" lon="0.84884">
        <ele>1434.7</ele>
        <time>2019-08-17T11:56:55Z</time>
      </trkpt>
      <trkpt lat="42.95515" lon="0.84884">
        <ele>1434.4</ele>
        <time>2019-08-17T11:56:56Z</time>
      </trkpt>
      <trkpt lat="42.95514" lon="0.84885">
        <ele>1434.1</ele>
        <time>2019-08-17T11:56:57Z</time>
      </trkpt>
      <trkpt lat="42.95513" lon="0.84885">
        <ele>1433.8</ele>
        <time>2019-08-17T11:56:58Z</time>
      </trkpt>
      <trkpt lat="42.95512" lon="0.84886">
        <ele>1433.5</ele>
        <time>2019-08-17T11:56:59Z</time>
      </trkpt>
      <trkpt lat="42.9551" lon="0.84886">
        <ele>1433.2</ele>
        <time>2019-08-17T11:57:00Z</time>
      </trkpt>
      <trkpt lat="42.95509" lon="0.84886">
        <ele>1432.9</ele>
        <time>2019-08-17T11:57:01Z</time>
      </trkpt>
      <trkpt lat="42.95508" lon="0.84886">
        <ele>1432.6</ele>
        <time>2019-08-17T11:57:02Z</time>
      </trkpt>
      <trkpt lat="42.95507" lon="0.84886">
        <ele>1432.3</ele>
        <time>2019-08-17T11:57:03Z</time>
      </trkpt>
      <trkpt lat="42.95505" lon="0.84885">
        <ele>1432</ele>
        <time>2019-08-17T11:57:04Z</time>
      </trkpt>
      <trkpt lat="42.95504" lon="0.84885">
        <ele>1431.7</ele>
        <time>2019-08-17T11:57:05Z</time>
      </trkpt>
      <trkpt lat="42.95503" lon="0.84885">
        <ele>1431.4</ele>
        <time>2019-08-17T11:57:06Z</time>
      </trkpt>
      <trkpt lat="42.95502" lon="0.84885">
        <ele>1431.1</ele>
        <time>2019-08-17T11:57:07Z</time>
      </trkpt>
      <trkpt lat="42.955" lon="0.84886">
        <ele>1430.8</ele>
        <time>2019-08-17T11:57:08Z</time>
      </trkpt>
      <trkpt lat="42.95499" lon="0.84886">
        <ele>1430.5</ele>
        <time>2019-08-17T11:57:09Z</time>
      </trkpt>
      <trkpt lat="42.95498" lon="0.84886">
        <ele>1430.3</ele>
        <time>2019-08-17T11:57:10Z</time>
      </trkpt>
      <trkpt lat="42.95497" lon="0.84886">
        <ele>1430</ele>
        <time>2019-08-17T11:57:11Z</time>
      </trkpt>
      <trkpt lat="42.95496" lon="0.84886">
        <ele>1429.7</ele>
        <time>2019-08-17T11:57:12Z</time>
      </trkpt>
      <trkpt lat="42.95495" lon="0.84886">
        <ele>1429.5</ele>
        <time>2019-08-17T11:57:13Z</time>
      </trkpt>
      <trkpt lat="42.95493" lon="0.84886">
        <ele>1429.4</ele>
        <time>2019-08-17T11:57:14Z</time>
      </trkpt>
      <trkpt lat="42.95492" lon="0.84886">
        <ele>1429.2</ele>
        <time>2019-08-17T11:57:15Z</time>
      </trkpt>
      <trkpt lat="42.95491" lon="0.84885">
        <ele>1429.1</ele>
        <time>2019-08-17T11:57:16Z</time>
      </trkpt>
      <trkpt lat="42.9549" lon="0.84885">
        <ele>1428.9</ele>
        <time>2019-08-17T11:57:17Z</time>
      </trkpt>
      <trkpt lat="42.95489" lon="0.84885">
        <ele>1428.8</ele>
        <time>2019-08-17T11:57:18Z</time>
      </trkpt>
      <trkpt lat="42.95488" lon="0.84885">
        <ele>1428.6</ele>
        <time>2019-08-17T11:57:19Z</time>
      </trkpt>
      <trkpt lat="42.95487" lon="0.84885">
        <ele>1428.5</ele>
        <time>2019-08-17T11:57:20Z</time>
      </trkpt>
      <trkpt lat="42.95486" lon="0.84884">
        <ele>1428.3</ele>
        <time>2019-08-17T11:57:21Z</time>
      </trkpt>
      <trkpt lat="42.95485" lon="0.84884">
        <ele>1428.1</ele>
        <time>2019-08-17T11:57:22Z</time>
      </trkpt>
      <trkpt lat="42.95484" lon="0.84884">
        <ele>1428</ele>
        <time>2019-08-17T11:57:23Z</time>
      </trkpt>
      <trkpt lat="42.95483" lon="0.84883">
        <ele>1427.8</ele>
        <time>2019-08-17T11:57:24Z</time>
      </trkpt>
      <trkpt lat="42.95481" lon="0.84883">
        <ele>1427.7</ele>
        <time>2019-08-17T11:57:25Z</time>
      </trkpt>
      <trkpt lat="42.9548" lon="0.84883">
        <ele>1427.5</ele>
        <time>2019-08-17T11:57:26Z</time>
      </trkpt>
      <trkpt lat="42.95479" lon="0.84882">
        <ele>1427.3</ele>
        <time>2019-08-17T11:57:27Z</time>
      </trkpt>
      <trkpt lat="42.95478" lon="0.84882">
        <ele>1427.2</ele>
        <time>2019-08-17T11:57:28Z</time>
      </trkpt>
      <trkpt lat="42.95477" lon="0.84882">
        <ele>1427</ele>
        <time>2019-08-17T11:57:29Z</time>
      </trkpt>
      <trkpt lat="42.95476" lon="0.84881">
        <ele>1426.8</ele>
        <time>2019-08-17T11:57:30Z</time>
      </trkpt>
      <trkpt lat="42.95475" lon="0.84881">
        <ele>1426.5</ele>
        <time>2019-08-17T11:57:31Z</time>
      </trkpt>
      <trkpt lat="42.95474" lon="0.8488">
        <ele>1426.3</ele>
        <time>2019-08-17T11:57:32Z</time>
      </trkpt>
      <trkpt lat="42.95473" lon="0.8488">
        <ele>1426.1</ele>
        <time>2019-08-17T11:57:33Z</time>
      </trkpt>
      <trkpt lat="42.95472" lon="0.8488">
        <ele>1425.9</ele>
        <time>2019-08-17T11:57:34Z</time>
      </trkpt>
      <trkpt lat="42.95471" lon="0.84879">
        <ele>1425.6</ele>
        <time>2019-08-17T11:57:35Z</time>
      </trkpt>
      <trkpt lat="42.9547" lon="0.84879">
        <ele>1425.4</ele>
        <time>2019-08-17T11:57:36Z</time>
      </trkpt>
      <trkpt lat="42.95469" lon="0.84879">
        <ele>1425.1</ele>
        <time>2019-08-17T11:57:37Z</time>
      </trkpt>
      <trkpt lat="42.95467" lon="0.84878">
        <ele>1425</ele>
        <time>2019-08-17T11:57:38Z</time>
      </trkpt>
      <trkpt lat="42.95466" lon="0.84878">
        <ele>1424.8</ele>
        <time>2019-08-17T11:57:39Z</time>
      </trkpt>
      <trkpt lat="42.95465" lon="0.84878">
        <ele>1424.6</ele>
        <time>2019-08-17T11:57:40Z</time>
      </trkpt>
      <trkpt lat="42.95464" lon="0.84877">
        <ele>1424.5</ele>
        <time>2019-08-17T11:57:41Z</time>
      </trkpt>
      <trkpt lat="42.95463" lon="0.84877">
        <ele>1424.4</ele>
        <time>2019-08-17T11:57:42Z</time>
      </trkpt>
      <trkpt lat="42.95461" lon="0.84877">
        <ele>1424.3</ele>
        <time>2019-08-17T11:57:43Z</time>
      </trkpt>
      <trkpt lat="42.9546" lon="0.84876">
        <ele>1424.1</ele>
        <time>2019-08-17T11:57:44Z</time>
      </trkpt>
      <trkpt lat="42.95459" lon="0.84876">
        <ele>1424</ele>
        <time>2019-08-17T11:57:45Z</time>
      </trkpt>
      <trkpt lat="42.95458" lon="0.84875">
        <ele>1423.8</ele>
        <time>2019-08-17T11:57:46Z</time>
      </trkpt>
      <trkpt lat="42.95457" lon="0.84875">
        <ele>1423.7</ele>
        <time>2019-08-17T11:57:47Z</time>
      </trkpt>
      <trkpt lat="42.95456" lon="0.84874">
        <ele>1423.5</ele>
        <time>2019-08-17T11:57:48Z</time>
      </trkpt>
      <trkpt lat="42.95455" lon="0.84874">
        <ele>1423.3</ele>
        <time>2019-08-17T11:57:49Z</time>
      </trkpt>
      <trkpt lat="42.95454" lon="0.84873">
        <ele>1423.2</ele>
        <time>2019-08-17T11:57:50Z</time>
      </trkpt>
      <trkpt lat="42.95452" lon="0.84872">
        <ele>1423</ele>
        <time>2019-08-17T11:57:51Z</time>
      </trkpt>
      <trkpt lat="42.95451" lon="0.84872">
        <ele>1422.8</ele>
        <time>2019-08-17T11:57:52Z</time>
      </trkpt>
      <trkpt lat="42.9545" lon="0.84871">
        <ele>1422.6</ele>
        <time>2019-08-17T11:57:53Z</time>
      </trkpt>
      <trkpt lat="42.9545" lon="0.84871">
        <ele>1422.4</ele>
        <time>2019-08-17T11:57:54Z</time>
      </trkpt>
      <trkpt lat="42.9545" lon="0.84871">
        <ele>1422.4</ele>
        <time>2019-08-17T11:57:55Z</time>
      </trkpt>
      <trkpt lat="42.9545" lon="0.84871">
        <ele>1422.4</ele>
        <time>2019-08-17T11:57:56Z</time>
      </trkpt>
      <trkpt lat="42.95449" lon="0.84871">
        <ele>1422.4</ele>
        <time>2019-08-17T11:57:57Z</time>
      </trkpt>
      <trkpt lat="42.95448" lon="0.8487">
        <ele>1422.2</ele>
        <time>2019-08-17T11:57:58Z</time>
      </trkpt>
      <trkpt lat="42.95447" lon="0.84869">
        <ele>1422</ele>
        <time>2019-08-17T11:57:59Z</time>
      </trkpt>
      <trkpt lat="42.95446" lon="0.84869">
        <ele>1421.7</ele>
        <time>2019-08-17T11:58:00Z</time>
      </trkpt>
      <trkpt lat="42.95445" lon="0.84868">
        <ele>1421.5</ele>
        <time>2019-08-17T11:58:01Z</time>
      </trkpt>
      <trkpt lat="42.95444" lon="0.84867">
        <ele>1421.3</ele>
        <time>2019-08-17T11:58:02Z</time>
      </trkpt>
      <trkpt lat="42.95443" lon="0.84867">
        <ele>1421.1</ele>
        <time>2019-08-17T11:58:03Z</time>
      </trkpt>
      <trkpt lat="42.95441" lon="0.84866">
        <ele>1420.9</ele>
        <time>2019-08-17T11:58:04Z</time>
      </trkpt>
      <trkpt lat="42.9544" lon="0.84866">
        <ele>1420.7</ele>
        <time>2019-08-17T11:58:05Z</time>
      </trkpt>
      <trkpt lat="42.95439" lon="0.84866">
        <ele>1420.5</ele>
        <time>2019-08-17T11:58:06Z</time>
      </trkpt>
      <trkpt lat="42.95438" lon="0.84865">
        <ele>1420.3</ele>
        <time>2019-08-17T11:58:07Z</time>
      </trkpt>
      <trkpt lat="42.95437" lon="0.84865">
        <ele>1420.1</ele>
        <time>2019-08-17T11:58:08Z</time>
      </trkpt>
      <trkpt lat="42.95436" lon="0.84865">
        <ele>1419.9</ele>
        <time>2019-08-17T11:58:09Z</time>
      </trkpt>
      <trkpt lat="42.95435" lon="0.84865">
        <ele>1419.7</ele>
        <time>2019-08-17T11:58:10Z</time>
      </trkpt>
      <trkpt lat="42.95434" lon="0.84864">
        <ele>1419.5</ele>
        <time>2019-08-17T11:58:11Z</time>
      </trkpt>
      <trkpt lat="42.95433" lon="0.84864">
        <ele>1419.2</ele>
        <time>2019-08-17T11:58:12Z</time>
      </trkpt>
      <trkpt lat="42.95431" lon="0.84864">
        <ele>1418.9</ele>
        <time>2019-08-17T11:58:13Z</time>
      </trkpt>
      <trkpt lat="42.9543" lon="0.84863">
        <ele>1418.7</ele>
        <time>2019-08-17T11:58:14Z</time>
      </trkpt>
      <trkpt lat="42.95429" lon="0.84862">
        <ele>1418.4</ele>
        <time>2019-08-17T11:58:15Z</time>
      </trkpt>
      <trkpt lat="42.95428" lon="0.84862">
        <ele>1418.2</ele>
        <time>2019-08-17T11:58:16Z</time>
      </trkpt>
      <trkpt lat="42.95427" lon="0.84861">
        <ele>1417.9</ele>
        <time>2019-08-17T11:58:17Z</time>
      </trkpt>
      <trkpt lat="42.95426" lon="0.84861">
        <ele>1417.7</ele>
        <time>2019-08-17T11:58:18Z</time>
      </trkpt>
      <trkpt lat="42.95425" lon="0.8486">
        <ele>1417.4</ele>
        <time>2019-08-17T11:58:19Z</time>
      </trkpt>
      <trkpt lat="42.95424" lon="0.8486">
        <ele>1417.3</ele>
        <time>2019-08-17T11:58:20Z</time>
      </trkpt>
      <trkpt lat="42.95423" lon="0.84859">
        <ele>1417.1</ele>
        <time>2019-08-17T11:58:21Z</time>
      </trkpt>
      <trkpt lat="42.95422" lon="0.84859">
        <ele>1416.9</ele>
        <time>2019-08-17T11:58:22Z</time>
      </trkpt>
      <trkpt lat="42.95421" lon="0.84858">
        <ele>1416.7</ele>
        <time>2019-08-17T11:58:23Z</time>
      </trkpt>
      <trkpt lat="42.95421" lon="0.84857">
        <ele>1416.5</ele>
        <time>2019-08-17T11:58:24Z</time>
      </trkpt>
      <trkpt lat="42.9542" lon="0.84856">
        <ele>1416.3</ele>
        <time>2019-08-17T11:58:25Z</time>
      </trkpt>
      <trkpt lat="42.95419" lon="0.84855">
        <ele>1416.1</ele>
        <time>2019-08-17T11:58:26Z</time>
      </trkpt>
      <trkpt lat="42.95418" lon="0.84854">
        <ele>1415.9</ele>
        <time>2019-08-17T11:58:27Z</time>
      </trkpt>
      <trkpt lat="42.95418" lon="0.84853">
        <ele>1415.7</ele>
        <time>2019-08-17T11:58:28Z</time>
      </trkpt>
      <trkpt lat="42.95417" lon="0.84852">
        <ele>1415.5</ele>
        <time>2019-08-17T11:58:29Z</time>
      </trkpt>
      <trkpt lat="42.95416" lon="0.84851">
        <ele>1415.4</ele>
        <time>2019-08-17T11:58:30Z</time>
      </trkpt>
      <trkpt lat="42.95416" lon="0.84849">
        <ele>1415.1</ele>
        <time>2019-08-17T11:58:31Z</time>
      </trkpt>
      <trkpt lat="42.95415" lon="0.84849">
        <ele>1415</ele>
        <time>2019-08-17T11:58:32Z</time>
      </trkpt>
      <trkpt lat="42.95414" lon="0.84848">
        <ele>1414.9</ele>
        <time>2019-08-17T11:58:33Z</time>
      </trkpt>
      <trkpt lat="42.95413" lon="0.84848">
        <ele>1414.7</ele>
        <time>2019-08-17T11:58:34Z</time>
      </trkpt>
      <trkpt lat="42.95412" lon="0.84848">
        <ele>1414.5</ele>
        <time>2019-08-17T11:58:35Z</time>
      </trkpt>
      <trkpt lat="42.95411" lon="0.84848">
        <ele>1414.4</ele>
        <time>2019-08-17T11:58:36Z</time>
      </trkpt>
      <trkpt lat="42.9541" lon="0.84848">
        <ele>1414.3</ele>
        <time>2019-08-17T11:58:37Z</time>
      </trkpt>
      <trkpt lat="42.95409" lon="0.84848">
        <ele>1414</ele>
        <time>2019-08-17T11:58:38Z</time>
      </trkpt>
      <trkpt lat="42.95408" lon="0.84848">
        <ele>1413.8</ele>
        <time>2019-08-17T11:58:39Z</time>
      </trkpt>
      <trkpt lat="42.95407" lon="0.84848">
        <ele>1413.5</ele>
        <time>2019-08-17T11:58:40Z</time>
      </trkpt>
      <trkpt lat="42.95406" lon="0.84848">
        <ele>1413.3</ele>
        <time>2019-08-17T11:58:41Z</time>
      </trkpt>
      <trkpt lat="42.95405" lon="0.84847">
        <ele>1413.1</ele>
        <time>2019-08-17T11:58:42Z</time>
      </trkpt>
      <trkpt lat="42.95404" lon="0.84847">
        <ele>1412.9</ele>
        <time>2019-08-17T11:58:43Z</time>
      </trkpt>
      <trkpt lat="42.95403" lon="0.84847">
        <ele>1412.6</ele>
        <time>2019-08-17T11:58:44Z</time>
      </trkpt>
      <trkpt lat="42.95402" lon="0.84847">
        <ele>1412.3</ele>
        <time>2019-08-17T11:58:45Z</time>
      </trkpt>
      <trkpt lat="42.95401" lon="0.84846">
        <ele>1412.1</ele>
        <time>2019-08-17T11:58:46Z</time>
      </trkpt>
      <trkpt lat="42.954" lon="0.84846">
        <ele>1411.9</ele>
        <time>2019-08-17T11:58:47Z</time>
      </trkpt>
      <trkpt lat="42.95399" lon="0.84846">
        <ele>1411.7</ele>
        <time>2019-08-17T11:58:48Z</time>
      </trkpt>
      <trkpt lat="42.95398" lon="0.84845">
        <ele>1411.4</ele>
        <time>2019-08-17T11:58:49Z</time>
      </trkpt>
      <trkpt lat="42.95397" lon="0.84845">
        <ele>1411.2</ele>
        <time>2019-08-17T11:58:50Z</time>
      </trkpt>
      <trkpt lat="42.95396" lon="0.84844">
        <ele>1411</ele>
        <time>2019-08-17T11:58:51Z</time>
      </trkpt>
      <trkpt lat="42.95395" lon="0.84844">
        <ele>1410.9</ele>
        <time>2019-08-17T11:58:52Z</time>
      </trkpt>
      <trkpt lat="42.95394" lon="0.84844">
        <ele>1410.6</ele>
        <time>2019-08-17T11:58:53Z</time>
      </trkpt>
      <trkpt lat="42.95394" lon="0.84844">
        <ele>1410.5</ele>
        <time>2019-08-17T11:58:54Z</time>
      </trkpt>
      <trkpt lat="42.95393" lon="0.84843">
        <ele>1410.4</ele>
        <time>2019-08-17T11:58:55Z</time>
      </trkpt>
      <trkpt lat="42.95393" lon="0.84843">
        <ele>1410.2</ele>
        <time>2019-08-17T11:58:56Z</time>
      </trkpt>
      <trkpt lat="42.95393" lon="0.84843">
        <ele>1410.2</ele>
        <time>2019-08-17T11:58:57Z</time>
      </trkpt>
      <trkpt lat="42.95393" lon="0.84843">
        <ele>1410.2</ele>
        <time>2019-08-17T11:58:58Z</time>
      </trkpt>
      <trkpt lat="42.95393" lon="0.84843">
        <ele>1410.2</ele>
        <time>2019-08-17T11:58:59Z</time>
      </trkpt>
      <trkpt lat="42.95392" lon="0.84843">
        <ele>1410.2</ele>
        <time>2019-08-17T11:59:00Z</time>
      </trkpt>
      <trkpt lat="42.95392" lon="0.84843">
        <ele>1410.2</ele>
        <time>2019-08-17T11:59:01Z</time>
      </trkpt>
      <trkpt lat="42.95392" lon="0.84843">
        <ele>1410.2</ele>
        <time>2019-08-17T11:59:02Z</time>
      </trkpt>
      <trkpt lat="42.95392" lon="0.84843">
        <ele>1410.2</ele>
        <time>2019-08-17T11:59:03Z</time>
      </trkpt>
      <trkpt lat="42.95393" lon="0.84843">
        <ele>1410.2</ele>
        <time>2019-08-17T11:59:04Z</time>
      </trkpt>
      <trkpt lat="42.95393" lon="0.84843">
        <ele>1410.2</ele>
        <time>2019-08-17T11:59:05Z</time>
      </trkpt>
      <trkpt lat="42.95393" lon="0.84843">
        <ele>1410.2</ele>
        <time>2019-08-17T11:59:06Z</time>
      </trkpt>
      <trkpt lat="42.95392" lon="0.84843">
        <ele>1410.2</ele>
        <time>2019-08-17T11:59:07Z</time>
      </trkpt>
      <trkpt lat="42.95392" lon="0.84843">
        <ele>1410.1</ele>
        <time>2019-08-17T11:59:08Z</time>
      </trkpt>
      <trkpt lat="42.95392" lon="0.84843">
        <ele>1410.1</ele>
        <time>2019-08-17T11:59:09Z</time>
      </trkpt>
      <trkpt lat="42.95392" lon="0.84843">
        <ele>1410.1</ele>
        <time>2019-08-17T11:59:10Z</time>
      </trkpt>
      <trkpt lat="42.95392" lon="0.84843">
        <ele>1410</ele>
        <time>2019-08-17T11:59:11Z</time>
      </trkpt>
      <trkpt lat="42.95391" lon="0.84843">
        <ele>1409.9</ele>
        <time>2019-08-17T11:59:12Z</time>
      </trkpt>
      <trkpt lat="42.9539" lon="0.84842">
        <ele>1409.7</ele>
        <time>2019-08-17T11:59:13Z</time>
      </trkpt>
      <trkpt lat="42.95389" lon="0.84842">
        <ele>1409.6</ele>
        <time>2019-08-17T11:59:14Z</time>
      </trkpt>
      <trkpt lat="42.95388" lon="0.84841">
        <ele>1409.4</ele>
        <time>2019-08-17T11:59:15Z</time>
      </trkpt>
      <trkpt lat="42.95387" lon="0.84841">
        <ele>1409.2</ele>
        <time>2019-08-17T11:59:16Z</time>
      </trkpt>
      <trkpt lat="42.95386" lon="0.8484">
        <ele>1409</ele>
        <time>2019-08-17T11:59:17Z</time>
      </trkpt>
      <trkpt lat="42.95385" lon="0.84839">
        <ele>1408.9</ele>
        <time>2019-08-17T11:59:18Z</time>
      </trkpt>
      <trkpt lat="42.95384" lon="0.84838">
        <ele>1408.7</ele>
        <time>2019-08-17T11:59:19Z</time>
      </trkpt>
      <trkpt lat="42.95384" lon="0.84837">
        <ele>1408.6</ele>
        <time>2019-08-17T11:59:20Z</time>
      </trkpt>
      <trkpt lat="42.95383" lon="0.84837">
        <ele>1408.4</ele>
        <time>2019-08-17T11:59:21Z</time>
      </trkpt>
      <trkpt lat="42.95382" lon="0.84836">
        <ele>1408.2</ele>
        <time>2019-08-17T11:59:22Z</time>
      </trkpt>
      <trkpt lat="42.95382" lon="0.84835">
        <ele>1408</ele>
        <time>2019-08-17T11:59:23Z</time>
      </trkpt>
      <trkpt lat="42.95381" lon="0.84834">
        <ele>1407.8</ele>
        <time>2019-08-17T11:59:24Z</time>
      </trkpt>
      <trkpt lat="42.95381" lon="0.84834">
        <ele>1407.6</ele>
        <time>2019-08-17T11:59:25Z</time>
      </trkpt>
      <trkpt lat="42.95381" lon="0.84833">
        <ele>1407.4</ele>
        <time>2019-08-17T11:59:26Z</time>
      </trkpt>
      <trkpt lat="42.95381" lon="0.84832">
        <ele>1407.3</ele>
        <time>2019-08-17T11:59:27Z</time>
      </trkpt>
      <trkpt lat="42.95381" lon="0.84831">
        <ele>1407.1</ele>
        <time>2019-08-17T11:59:28Z</time>
      </trkpt>
      <trkpt lat="42.95381" lon="0.84831">
        <ele>1407</ele>
        <time>2019-08-17T11:59:29Z</time>
      </trkpt>
      <trkpt lat="42.95381" lon="0.8483">
        <ele>1406.9</ele>
        <time>2019-08-17T11:59:30Z</time>
      </trkpt>
      <trkpt lat="42.95381" lon="0.8483">
        <ele>1406.8</ele>
        <time>2019-08-17T11:59:31Z</time>
      </trkpt>
      <trkpt lat="42.95381" lon="0.8483">
        <ele>1406.7</ele>
        <time>2019-08-17T11:59:32Z</time>
      </trkpt>
      <trkpt lat="42.95381" lon="0.84829">
        <ele>1406.7</ele>
        <time>2019-08-17T11:59:33Z</time>
      </trkpt>
      <trkpt lat="42.95381" lon="0.84829">
        <ele>1406.6</ele>
        <time>2019-08-17T11:59:34Z</time>
      </trkpt>
      <trkpt lat="42.95381" lon="0.84828">
        <ele>1406.5</ele>
        <time>2019-08-17T11:59:35Z</time>
      </trkpt>
      <trkpt lat="42.95381" lon="0.84828">
        <ele>1406.3</ele>
        <time>2019-08-17T11:59:36Z</time>
      </trkpt>
      <trkpt lat="42.9538" lon="0.84827">
        <ele>1406.2</ele>
        <time>2019-08-17T11:59:37Z</time>
      </trkpt>
      <trkpt lat="42.9538" lon="0.84827">
        <ele>1406</ele>
        <time>2019-08-17T11:59:38Z</time>
      </trkpt>
      <trkpt lat="42.9538" lon="0.84826">
        <ele>1405.9</ele>
        <time>2019-08-17T11:59:39Z</time>
      </trkpt>
      <trkpt lat="42.95379" lon="0.84826">
        <ele>1405.8</ele>
        <time>2019-08-17T11:59:40Z</time>
      </trkpt>
      <trkpt lat="42.95379" lon="0.84826">
        <ele>1405.7</ele>
        <time>2019-08-17T11:59:41Z</time>
      </trkpt>
      <trkpt lat="42.95379" lon="0.84825">
        <ele>1405.6</ele>
        <time>2019-08-17T11:59:42Z</time>
      </trkpt>
      <trkpt lat="42.95378" lon="0.84825">
        <ele>1405.4</ele>
        <time>2019-08-17T11:59:43Z</time>
      </trkpt>
      <trkpt lat="42.95377" lon="0.84824">
        <ele>1405.3</ele>
        <time>2019-08-17T11:59:44Z</time>
      </trkpt>
      <trkpt lat="42.95377" lon="0.84824">
        <ele>1405.1</ele>
        <time>2019-08-17T11:59:45Z</time>
      </trkpt>
      <trkpt lat="42.95376" lon="0.84823">
        <ele>1405</ele>
        <time>2019-08-17T11:59:46Z</time>
      </trkpt>
      <trkpt lat="42.95376" lon="0.84823">
        <ele>1404.9</ele>
        <time>2019-08-17T11:59:47Z</time>
      </trkpt>
      <trkpt lat="42.95376" lon="0.84823">
        <ele>1404.9</ele>
        <time>2019-08-17T11:59:48Z</time>
      </trkpt>
      <trkpt lat="42.95376" lon="0.84822">
        <ele>1404.8</ele>
        <time>2019-08-17T11:59:49Z</time>
      </trkpt>
      <trkpt lat="42.95375" lon="0.84822">
        <ele>1404.7</ele>
        <time>2019-08-17T11:59:50Z</time>
      </trkpt>
      <trkpt lat="42.95375" lon="0.84822">
        <ele>1404.6</ele>
        <time>2019-08-17T11:59:51Z</time>
      </trkpt>
      <trkpt lat="42.95375" lon="0.84821">
        <ele>1404.5</ele>
        <time>2019-08-17T11:59:52Z</time>
      </trkpt>
      <trkpt lat="42.95374" lon="0.84821">
        <ele>1404.3</ele>
        <time>2019-08-17T11:59:53Z</time>
      </trkpt>
      <trkpt lat="42.95374" lon="0.8482">
        <ele>1404.2</ele>
        <time>2019-08-17T11:59:54Z</time>
      </trkpt>
      <trkpt lat="42.95373" lon="0.8482">
        <ele>1404.1</ele>
        <time>2019-08-17T11:59:55Z</time>
      </trkpt>
      <trkpt lat="42.95373" lon="0.8482">
        <ele>1404</ele>
        <time>2019-08-17T11:59:56Z</time>
      </trkpt>
      <trkpt lat="42.95373" lon="0.84819">
        <ele>1404</ele>
        <time>2019-08-17T11:59:57Z</time>
      </trkpt>
      <trkpt lat="42.95373" lon="0.84819">
        <ele>1404</ele>
        <time>2019-08-17T11:59:58Z</time>
      </trkpt>
      <trkpt lat="42.95373" lon="0.84819">
        <ele>1403.9</ele>
        <time>2019-08-17T11:59:59Z</time>
      </trkpt>
      <trkpt lat="42.95372" lon="0.84819">
        <ele>1403.9</ele>
        <time>2019-08-17T12:00:00Z</time>
      </trkpt>
      <trkpt lat="42.95372" lon="0.84819">
        <ele>1403.9</ele>
        <time>2019-08-17T12:00:01Z</time>
      </trkpt>
      <trkpt lat="42.95372" lon="0.84818">
        <ele>1403.8</ele>
        <time>2019-08-17T12:00:02Z</time>
      </trkpt>
      <trkpt lat="42.95371" lon="0.84818">
        <ele>1403.6</ele>
        <time>2019-08-17T12:00:03Z</time>
      </trkpt>
      <trkpt lat="42.9537" lon="0.84818">
        <ele>1403.4</ele>
        <time>2019-08-17T12:00:04Z</time>
      </trkpt>
      <trkpt lat="42.9537" lon="0.84817">
        <ele>1403.2</ele>
        <time>2019-08-17T12:00:05Z</time>
      </trkpt>
      <trkpt lat="42.95369" lon="0.84817">
        <ele>1403.1</ele>
        <time>2019-08-17T12:00:06Z</time>
      </trkpt>
      <trkpt lat="42.95369" lon="0.84817">
        <ele>1403</ele>
        <time>2019-08-17T12:00:07Z</time>
      </trkpt>
      <trkpt lat="42.95369" lon="0.84816">
        <ele>1403</ele>
        <time>2019-08-17T12:00:08Z</time>
      </trkpt>
      <trkpt lat="42.95369" lon="0.84816">
        <ele>1402.9</ele>
        <time>2019-08-17T12:00:09Z</time>
      </trkpt>
      <trkpt lat="42.95368" lon="0.84816">
        <ele>1402.8</ele>
        <time>2019-08-17T12:00:10Z</time>
      </trkpt>
      <trkpt lat="42.95368" lon="0.84816">
        <ele>1402.8</ele>
        <time>2019-08-17T12:00:11Z</time>
      </trkpt>
      <trkpt lat="42.95368" lon="0.84816">
        <ele>1402.8</ele>
        <time>2019-08-17T12:00:12Z</time>
      </trkpt>
      <trkpt lat="42.95368" lon="0.84816">
        <ele>1402.7</ele>
        <time>2019-08-17T12:00:13Z</time>
      </trkpt>
      <trkpt lat="42.95368" lon="0.84816">
        <ele>1402.7</ele>
        <time>2019-08-17T12:00:14Z</time>
      </trkpt>
      <trkpt lat="42.95368" lon="0.84816">
        <ele>1402.7</ele>
        <time>2019-08-17T12:00:15Z</time>
      </trkpt>
      <trkpt lat="42.95368" lon="0.84816">
        <ele>1402.6</ele>
        <time>2019-08-17T12:00:16Z</time>
      </trkpt>
      <trkpt lat="42.95368" lon="0.84815">
        <ele>1402.6</ele>
        <time>2019-08-17T12:00:17Z</time>
      </trkpt>
      <trkpt lat="42.95368" lon="0.84815">
        <ele>1402.6</ele>
        <time>2019-08-17T12:00:18Z</time>
      </trkpt>
      <trkpt lat="42.95367" lon="0.84815">
        <ele>1402.6</ele>
        <time>2019-08-17T12:00:19Z</time>
      </trkpt>
      <trkpt lat="42.95367" lon="0.84815">
        <ele>1402.6</ele>
        <time>2019-08-17T12:00:20Z</time>
      </trkpt>
      <trkpt lat="42.95367" lon="0.84815">
        <ele>1402.6</ele>
        <time>2019-08-17T12:00:21Z</time>
      </trkpt>
      <trkpt lat="42.95367" lon="0.84815">
        <ele>1402.6</ele>
        <time>2019-08-17T12:00:22Z</time>
      </trkpt>
      <trkpt lat="42.95367" lon="0.84815">
        <ele>1402.6</ele>
        <time>2019-08-17T12:00:23Z</time>
      </trkpt>
      <trkpt lat="42.95367" lon="0.84815">
        <ele>1402.6</ele>
        <time>2019-08-17T12:00:24Z</time>
      </trkpt>
      <trkpt lat="42.95367" lon="0.84815">
        <ele>1402.6</ele>
        <time>2019-08-17T12:00:25Z</time>
      </trkpt>
      <trkpt lat="42.95367" lon="0.84815">
        <ele>1402.5</ele>
        <time>2019-08-17T12:00:26Z</time>
      </trkpt>
      <trkpt lat="42.95367" lon="0.84815">
        <ele>1402.5</ele>
        <time>2019-08-17T12:00:27Z</time>
      </trkpt>
      <trkpt lat="42.95367" lon="0.84815">
        <ele>1402.5</ele>
        <time>2019-08-17T12:00:28Z</time>
      </trkpt>
      <trkpt lat="42.95367" lon="0.84815">
        <ele>1402.4</ele>
        <time>2019-08-17T12:00:29Z</time>
      </trkpt>
      <trkpt lat="42.95367" lon="0.84815">
        <ele>1402.4</ele>
        <time>2019-08-17T12:00:30Z</time>
      </trkpt>
      <trkpt lat="42.95367" lon="0.84815">
        <ele>1402.3</ele>
        <time>2019-08-17T12:00:31Z</time>
      </trkpt>
      <trkpt lat="42.95366" lon="0.84814">
        <ele>1402.2</ele>
        <time>2019-08-17T12:00:32Z</time>
      </trkpt>
      <trkpt lat="42.95366" lon="0.84813">
        <ele>1402</ele>
        <time>2019-08-17T12:00:33Z</time>
      </trkpt>
      <trkpt lat="42.95365" lon="0.84812">
        <ele>1401.8</ele>
        <time>2019-08-17T12:00:34Z</time>
      </trkpt>
      <trkpt lat="42.95365" lon="0.84811">
        <ele>1401.5</ele>
        <time>2019-08-17T12:00:35Z</time>
      </trkpt>
      <trkpt lat="42.95364" lon="0.8481">
        <ele>1401.3</ele>
        <time>2019-08-17T12:00:36Z</time>
      </trkpt>
      <trkpt lat="42.95364" lon="0.84809">
        <ele>1401.1</ele>
        <time>2019-08-17T12:00:37Z</time>
      </trkpt>
      <trkpt lat="42.95364" lon="0.84808">
        <ele>1400.9</ele>
        <time>2019-08-17T12:00:38Z</time>
      </trkpt>
      <trkpt lat="42.95363" lon="0.84808">
        <ele>1400.7</ele>
        <time>2019-08-17T12:00:39Z</time>
      </trkpt>
      <trkpt lat="42.95363" lon="0.84807">
        <ele>1400.5</ele>
        <time>2019-08-17T12:00:40Z</time>
      </trkpt>
      <trkpt lat="42.95362" lon="0.84806">
        <ele>1400.1</ele>
        <time>2019-08-17T12:00:41Z</time>
      </trkpt>
      <trkpt lat="42.95362" lon="0.84805">
        <ele>1399.8</ele>
        <time>2019-08-17T12:00:42Z</time>
      </trkpt>
      <trkpt lat="42.95361" lon="0.84804">
        <ele>1399.5</ele>
        <time>2019-08-17T12:00:43Z</time>
      </trkpt>
      <trkpt lat="42.95361" lon="0.84803">
        <ele>1399.3</ele>
        <time>2019-08-17T12:00:44Z</time>
      </trkpt>
      <trkpt lat="42.9536" lon="0.84803">
        <ele>1399</ele>
        <time>2019-08-17T12:00:45Z</time>
      </trkpt>
      <trkpt lat="42.95359" lon="0.84802">
        <ele>1398.8</ele>
        <time>2019-08-17T12:00:46Z</time>
      </trkpt>
      <trkpt lat="42.95359" lon="0.84802">
        <ele>1398.7</ele>
        <time>2019-08-17T12:00:47Z</time>
      </trkpt>
      <trkpt lat="42.95359" lon="0.84802">
        <ele>1398.5</ele>
        <time>2019-08-17T12:00:48Z</time>
      </trkpt>
      <trkpt lat="42.95358" lon="0.84802">
        <ele>1398.4</ele>
        <time>2019-08-17T12:00:49Z</time>
      </trkpt>
      <trkpt lat="42.95358" lon="0.84802">
        <ele>1398.3</ele>
        <time>2019-08-17T12:00:50Z</time>
      </trkpt>
      <trkpt lat="42.95358" lon="0.84802">
        <ele>1398.2</ele>
        <time>2019-08-17T12:00:51Z</time>
      </trkpt>
      <trkpt lat="42.95357" lon="0.84802">
        <ele>1398.1</ele>
        <time>2019-08-17T12:00:52Z</time>
      </trkpt>
      <trkpt lat="42.95356" lon="0.84802">
        <ele>1397.9</ele>
        <time>2019-08-17T12:00:53Z</time>
      </trkpt>
      <trkpt lat="42.95355" lon="0.84802">
        <ele>1397.7</ele>
        <time>2019-08-17T12:00:54Z</time>
      </trkpt>
      <trkpt lat="42.95354" lon="0.84802">
        <ele>1397.3</ele>
        <time>2019-08-17T12:00:55Z</time>
      </trkpt>
      <trkpt lat="42.95353" lon="0.84802">
        <ele>1397</ele>
        <time>2019-08-17T12:00:56Z</time>
      </trkpt>
      <trkpt lat="42.95352" lon="0.84802">
        <ele>1396.8</ele>
        <time>2019-08-17T12:00:57Z</time>
      </trkpt>
      <trkpt lat="42.95351" lon="0.84801">
        <ele>1396.6</ele>
        <time>2019-08-17T12:00:58Z</time>
      </trkpt>
      <trkpt lat="42.95351" lon="0.84801">
        <ele>1396.5</ele>
        <time>2019-08-17T12:00:59Z</time>
      </trkpt>
      <trkpt lat="42.95349" lon="0.84802">
        <ele>1396.1</ele>
        <time>2019-08-17T12:01:00Z</time>
      </trkpt>
      <trkpt lat="42.95348" lon="0.84801">
        <ele>1395.9</ele>
        <time>2019-08-17T12:01:01Z</time>
      </trkpt>
      <trkpt lat="42.95348" lon="0.84801">
        <ele>1395.7</ele>
        <time>2019-08-17T12:01:02Z</time>
      </trkpt>
      <trkpt lat="42.95347" lon="0.84801">
        <ele>1395.5</ele>
        <time>2019-08-17T12:01:03Z</time>
      </trkpt>
      <trkpt lat="42.95346" lon="0.84801">
        <ele>1395.3</ele>
        <time>2019-08-17T12:01:04Z</time>
      </trkpt>
      <trkpt lat="42.95346" lon="0.84801">
        <ele>1395</ele>
        <time>2019-08-17T12:01:05Z</time>
      </trkpt>
      <trkpt lat="42.95345" lon="0.84801">
        <ele>1394.8</ele>
        <time>2019-08-17T12:01:06Z</time>
      </trkpt>
      <trkpt lat="42.95345" lon="0.84801">
        <ele>1394.6</ele>
        <time>2019-08-17T12:01:07Z</time>
      </trkpt>
      <trkpt lat="42.95344" lon="0.84801">
        <ele>1394.5</ele>
        <time>2019-08-17T12:01:08Z</time>
      </trkpt>
      <trkpt lat="42.95344" lon="0.84801">
        <ele>1394.4</ele>
        <time>2019-08-17T12:01:09Z</time>
      </trkpt>
      <trkpt lat="42.95344" lon="0.848">
        <ele>1394.3</ele>
        <time>2019-08-17T12:01:10Z</time>
      </trkpt>
      <trkpt lat="42.95343" lon="0.848">
        <ele>1393.9</ele>
        <time>2019-08-17T12:01:11Z</time>
      </trkpt>
      <trkpt lat="42.95342" lon="0.848">
        <ele>1393.5</ele>
        <time>2019-08-17T12:01:12Z</time>
      </trkpt>
      <trkpt lat="42.95341" lon="0.848">
        <ele>1393.1</ele>
        <time>2019-08-17T12:01:13Z</time>
      </trkpt>
      <trkpt lat="42.9534" lon="0.848">
        <ele>1392.9</ele>
        <time>2019-08-17T12:01:14Z</time>
      </trkpt>
      <trkpt lat="42.95339" lon="0.84799">
        <ele>1392.6</ele>
        <time>2019-08-17T12:01:15Z</time>
      </trkpt>
      <trkpt lat="42.95338" lon="0.84799">
        <ele>1392.3</ele>
        <time>2019-08-17T12:01:16Z</time>
      </trkpt>
      <trkpt lat="42.95337" lon="0.84799">
        <ele>1392</ele>
        <time>2019-08-17T12:01:17Z</time>
      </trkpt>
      <trkpt lat="42.95337" lon="0.84799">
        <ele>1392</ele>
        <time>2019-08-17T12:01:18Z</time>
      </trkpt>
      <trkpt lat="42.95336" lon="0.84799">
        <ele>1391.9</ele>
        <time>2019-08-17T12:01:19Z</time>
      </trkpt>
      <trkpt lat="42.95336" lon="0.84798">
        <ele>1391.8</ele>
        <time>2019-08-17T12:01:20Z</time>
      </trkpt>
      <trkpt lat="42.95336" lon="0.84798">
        <ele>1391.7</ele>
        <time>2019-08-17T12:01:21Z</time>
      </trkpt>
      <trkpt lat="42.95335" lon="0.84798">
        <ele>1391.6</ele>
        <time>2019-08-17T12:01:22Z</time>
      </trkpt>
      <trkpt lat="42.95335" lon="0.84798">
        <ele>1391.5</ele>
        <time>2019-08-17T12:01:23Z</time>
      </trkpt>
      <trkpt lat="42.95335" lon="0.84798">
        <ele>1391.4</ele>
        <time>2019-08-17T12:01:24Z</time>
      </trkpt>
      <trkpt lat="42.95334" lon="0.84798">
        <ele>1391.3</ele>
        <time>2019-08-17T12:01:25Z</time>
      </trkpt>
      <trkpt lat="42.95334" lon="0.84797">
        <ele>1391.2</ele>
        <time>2019-08-17T12:01:26Z</time>
      </trkpt>
      <trkpt lat="42.95333" lon="0.84797">
        <ele>1391</ele>
        <time>2019-08-17T12:01:27Z</time>
      </trkpt>
      <trkpt lat="42.95332" lon="0.84797">
        <ele>1390.9</ele>
        <time>2019-08-17T12:01:28Z</time>
      </trkpt>
      <trkpt lat="42.95332" lon="0.84797">
        <ele>1390.7</ele>
        <time>2019-08-17T12:01:29Z</time>
      </trkpt>
      <trkpt lat="42.95332" lon="0.84797">
        <ele>1390.6</ele>
        <time>2019-08-17T12:01:30Z</time>
      </trkpt>
      <trkpt lat="42.95331" lon="0.84798">
        <ele>1390.6</ele>
        <time>2019-08-17T12:01:31Z</time>
      </trkpt>
      <trkpt lat="42.95331" lon="0.84797">
        <ele>1390.5</ele>
        <time>2019-08-17T12:01:32Z</time>
      </trkpt>
      <trkpt lat="42.95331" lon="0.84797">
        <ele>1390.5</ele>
        <time>2019-08-17T12:01:33Z</time>
      </trkpt>
      <trkpt lat="42.95331" lon="0.84797">
        <ele>1390.5</ele>
        <time>2019-08-17T12:01:34Z</time>
      </trkpt>
      <trkpt lat="42.95331" lon="0.84797">
        <ele>1390.5</ele>
        <time>2019-08-17T12:01:35Z</time>
      </trkpt>
      <trkpt lat="42.95331" lon="0.84797">
        <ele>1390.4</ele>
        <time>2019-08-17T12:01:36Z</time>
      </trkpt>
      <trkpt lat="42.95331" lon="0.84797">
        <ele>1390.4</ele>
        <time>2019-08-17T12:01:37Z</time>
      </trkpt>
      <trkpt lat="42.95331" lon="0.84797">
        <ele>1390.4</ele>
        <time>2019-08-17T12:01:38Z</time>
      </trkpt>
      <trkpt lat="42.95331" lon="0.84796">
        <ele>1390.3</ele>
        <time>2019-08-17T12:01:39Z</time>
      </trkpt>
      <trkpt lat="42.95331" lon="0.84796">
        <ele>1390.1</ele>
        <time>2019-08-17T12:01:40Z</time>
      </trkpt>
      <trkpt lat="42.9533" lon="0.84796">
        <ele>1390.1</ele>
        <time>2019-08-17T12:01:41Z</time>
      </trkpt>
      <trkpt lat="42.9533" lon="0.84796">
        <ele>1390</ele>
        <time>2019-08-17T12:01:42Z</time>
      </trkpt>
      <trkpt lat="42.9533" lon="0.84795">
        <ele>1389.9</ele>
        <time>2019-08-17T12:01:43Z</time>
      </trkpt>
      <trkpt lat="42.95329" lon="0.84795">
        <ele>1389.8</ele>
        <time>2019-08-17T12:01:44Z</time>
      </trkpt>
      <trkpt lat="42.95329" lon="0.84794">
        <ele>1389.6</ele>
        <time>2019-08-17T12:01:45Z</time>
      </trkpt>
      <trkpt lat="42.95328" lon="0.84793">
        <ele>1389.4</ele>
        <time>2019-08-17T12:01:46Z</time>
      </trkpt>
      <trkpt lat="42.95328" lon="0.84792">
        <ele>1389.2</ele>
        <time>2019-08-17T12:01:47Z</time>
      </trkpt>
      <trkpt lat="42.95327" lon="0.84792">
        <ele>1389.1</ele>
        <time>2019-08-17T12:01:48Z</time>
      </trkpt>
      <trkpt lat="42.95327" lon="0.84791">
        <ele>1388.9</ele>
        <time>2019-08-17T12:01:49Z</time>
      </trkpt>
      <trkpt lat="42.95326" lon="0.8479">
        <ele>1388.7</ele>
        <time>2019-08-17T12:01:50Z</time>
      </trkpt>
      <trkpt lat="42.95326" lon="0.84789">
        <ele>1388.6</ele>
        <time>2019-08-17T12:01:51Z</time>
      </trkpt>
      <trkpt lat="42.95326" lon="0.84788">
        <ele>1388.4</ele>
        <time>2019-08-17T12:01:52Z</time>
      </trkpt>
      <trkpt lat="42.95325" lon="0.84787">
        <ele>1388.2</ele>
        <time>2019-08-17T12:01:53Z</time>
      </trkpt>
      <trkpt lat="42.95325" lon="0.84786">
        <ele>1388.1</ele>
        <time>2019-08-17T12:01:54Z</time>
      </trkpt>
      <trkpt lat="42.95325" lon="0.84785">
        <ele>1387.9</ele>
        <time>2019-08-17T12:01:55Z</time>
      </trkpt>
      <trkpt lat="42.95324" lon="0.84784">
        <ele>1387.7</ele>
        <time>2019-08-17T12:01:56Z</time>
      </trkpt>
      <trkpt lat="42.95324" lon="0.84784">
        <ele>1387.5</ele>
        <time>2019-08-17T12:01:57Z</time>
      </trkpt>
      <trkpt lat="42.95324" lon="0.84783">
        <ele>1387.3</ele>
        <time>2019-08-17T12:01:58Z</time>
      </trkpt>
      <trkpt lat="42.95324" lon="0.84782">
        <ele>1387.1</ele>
        <time>2019-08-17T12:01:59Z</time>
      </trkpt>
      <trkpt lat="42.95324" lon="0.84782">
        <ele>1387</ele>
        <time>2019-08-17T12:02:00Z</time>
      </trkpt>
      <trkpt lat="42.95323" lon="0.84781">
        <ele>1386.9</ele>
        <time>2019-08-17T12:02:01Z</time>
      </trkpt>
      <trkpt lat="42.95323" lon="0.84781">
        <ele>1386.8</ele>
        <time>2019-08-17T12:02:02Z</time>
      </trkpt>
      <trkpt lat="42.95323" lon="0.84781">
        <ele>1386.7</ele>
        <time>2019-08-17T12:02:03Z</time>
      </trkpt>
      <trkpt lat="42.95323" lon="0.8478">
        <ele>1386.6</ele>
        <time>2019-08-17T12:02:04Z</time>
      </trkpt>
      <trkpt lat="42.95323" lon="0.8478">
        <ele>1386.5</ele>
        <time>2019-08-17T12:02:05Z</time>
      </trkpt>
      <trkpt lat="42.95323" lon="0.8478">
        <ele>1386.5</ele>
        <time>2019-08-17T12:02:06Z</time>
      </trkpt>
      <trkpt lat="42.95322" lon="0.8478">
        <ele>1386.4</ele>
        <time>2019-08-17T12:02:07Z</time>
      </trkpt>
      <trkpt lat="42.95322" lon="0.84779">
        <ele>1386.1</ele>
        <time>2019-08-17T12:02:08Z</time>
      </trkpt>
      <trkpt lat="42.95319" lon="0.84779">
        <ele>1385.4</ele>
        <time>2019-08-17T12:02:09Z</time>
      </trkpt>
      <trkpt lat="42.95318" lon="0.84778">
        <ele>1385</ele>
        <time>2019-08-17T12:02:10Z</time>
      </trkpt>
      <trkpt lat="42.95317" lon="0.84777">
        <ele>1384.7</ele>
        <time>2019-08-17T12:02:11Z</time>
      </trkpt>
      <trkpt lat="42.95316" lon="0.84777">
        <ele>1384.5</ele>
        <time>2019-08-17T12:02:12Z</time>
      </trkpt>
      <trkpt lat="42.95316" lon="0.84776">
        <ele>1384.4</ele>
        <time>2019-08-17T12:02:13Z</time>
      </trkpt>
      <trkpt lat="42.95316" lon="0.84776">
        <ele>1384.3</ele>
        <time>2019-08-17T12:02:14Z</time>
      </trkpt>
      <trkpt lat="42.95315" lon="0.84776">
        <ele>1384.3</ele>
        <time>2019-08-17T12:02:15Z</time>
      </trkpt>
      <trkpt lat="42.95315" lon="0.84776">
        <ele>1384.2</ele>
        <time>2019-08-17T12:02:16Z</time>
      </trkpt>
      <trkpt lat="42.95315" lon="0.84776">
        <ele>1384.1</ele>
        <time>2019-08-17T12:02:17Z</time>
      </trkpt>
      <trkpt lat="42.95314" lon="0.84775">
        <ele>1383.8</ele>
        <time>2019-08-17T12:02:18Z</time>
      </trkpt>
      <trkpt lat="42.95312" lon="0.84774">
        <ele>1383.3</ele>
        <time>2019-08-17T12:02:19Z</time>
      </trkpt>
      <trkpt lat="42.9531" lon="0.84773">
        <ele>1383</ele>
        <time>2019-08-17T12:02:20Z</time>
      </trkpt>
      <trkpt lat="42.9531" lon="0.84772">
        <ele>1382.8</ele>
        <time>2019-08-17T12:02:21Z</time>
      </trkpt>
      <trkpt lat="42.9531" lon="0.84772">
        <ele>1382.7</ele>
        <time>2019-08-17T12:02:22Z</time>
      </trkpt>
      <trkpt lat="42.95309" lon="0.84772">
        <ele>1382.7</ele>
        <time>2019-08-17T12:02:23Z</time>
      </trkpt>
      <trkpt lat="42.95309" lon="0.84772">
        <ele>1382.7</ele>
        <time>2019-08-17T12:02:24Z</time>
      </trkpt>
      <trkpt lat="42.95309" lon="0.84772">
        <ele>1382.6</ele>
        <time>2019-08-17T12:02:25Z</time>
      </trkpt>
      <trkpt lat="42.95309" lon="0.84771">
        <ele>1382.6</ele>
        <time>2019-08-17T12:02:26Z</time>
      </trkpt>
      <trkpt lat="42.95309" lon="0.84771">
        <ele>1382.6</ele>
        <time>2019-08-17T12:02:27Z</time>
      </trkpt>
      <trkpt lat="42.95309" lon="0.84771">
        <ele>1382.5</ele>
        <time>2019-08-17T12:02:28Z</time>
      </trkpt>
      <trkpt lat="42.95309" lon="0.84771">
        <ele>1382.5</ele>
        <time>2019-08-17T12:02:29Z</time>
      </trkpt>
      <trkpt lat="42.95308" lon="0.84771">
        <ele>1382.5</ele>
        <time>2019-08-17T12:02:30Z</time>
      </trkpt>
      <trkpt lat="42.95308" lon="0.84771">
        <ele>1382.4</ele>
        <time>2019-08-17T12:02:31Z</time>
      </trkpt>
      <trkpt lat="42.95308" lon="0.84771">
        <ele>1382.4</ele>
        <time>2019-08-17T12:02:32Z</time>
      </trkpt>
      <trkpt lat="42.95308" lon="0.8477">
        <ele>1382.3</ele>
        <time>2019-08-17T12:02:33Z</time>
      </trkpt>
      <trkpt lat="42.95307" lon="0.8477">
        <ele>1382.1</ele>
        <time>2019-08-17T12:02:34Z</time>
      </trkpt>
      <trkpt lat="42.95307" lon="0.84769">
        <ele>1381.9</ele>
        <time>2019-08-17T12:02:35Z</time>
      </trkpt>
      <trkpt lat="42.95306" lon="0.84768">
        <ele>1381.7</ele>
        <time>2019-08-17T12:02:36Z</time>
      </trkpt>
      <trkpt lat="42.95305" lon="0.84768">
        <ele>1381.6</ele>
        <time>2019-08-17T12:02:37Z</time>
      </trkpt>
      <trkpt lat="42.95305" lon="0.84768">
        <ele>1381.5</ele>
        <time>2019-08-17T12:02:38Z</time>
      </trkpt>
      <trkpt lat="42.95304" lon="0.84768">
        <ele>1381.4</ele>
        <time>2019-08-17T12:02:39Z</time>
      </trkpt>
      <trkpt lat="42.95304" lon="0.84768">
        <ele>1381.4</ele>
        <time>2019-08-17T12:02:40Z</time>
      </trkpt>
      <trkpt lat="42.95303" lon="0.84767">
        <ele>1381.2</ele>
        <time>2019-08-17T12:02:41Z</time>
      </trkpt>
      <trkpt lat="42.95302" lon="0.84767">
        <ele>1381</ele>
        <time>2019-08-17T12:02:42Z</time>
      </trkpt>
      <trkpt lat="42.95302" lon="0.84767">
        <ele>1380.8</ele>
        <time>2019-08-17T12:02:43Z</time>
      </trkpt>
      <trkpt lat="42.95301" lon="0.84767">
        <ele>1380.7</ele>
        <time>2019-08-17T12:02:44Z</time>
      </trkpt>
      <trkpt lat="42.953" lon="0.84766">
        <ele>1380.5</ele>
        <time>2019-08-17T12:02:45Z</time>
      </trkpt>
      <trkpt lat="42.95299" lon="0.84766">
        <ele>1380.2</ele>
        <time>2019-08-17T12:02:46Z</time>
      </trkpt>
      <trkpt lat="42.95299" lon="0.84766">
        <ele>1380</ele>
        <time>2019-08-17T12:02:47Z</time>
      </trkpt>
      <trkpt lat="42.95298" lon="0.84765">
        <ele>1379.8</ele>
        <time>2019-08-17T12:02:48Z</time>
      </trkpt>
      <trkpt lat="42.95297" lon="0.84765">
        <ele>1379.6</ele>
        <time>2019-08-17T12:02:49Z</time>
      </trkpt>
      <trkpt lat="42.95296" lon="0.84765">
        <ele>1379.4</ele>
        <time>2019-08-17T12:02:50Z</time>
      </trkpt>
      <trkpt lat="42.95295" lon="0.84764">
        <ele>1379</ele>
        <time>2019-08-17T12:02:51Z</time>
      </trkpt>
      <trkpt lat="42.95295" lon="0.84764">
        <ele>1378.8</ele>
        <time>2019-08-17T12:02:52Z</time>
      </trkpt>
      <trkpt lat="42.95294" lon="0.84763">
        <ele>1378.6</ele>
        <time>2019-08-17T12:02:53Z</time>
      </trkpt>
      <trkpt lat="42.95293" lon="0.84763">
        <ele>1378.4</ele>
        <time>2019-08-17T12:02:54Z</time>
      </trkpt>
      <trkpt lat="42.95293" lon="0.84763">
        <ele>1378.3</ele>
        <time>2019-08-17T12:02:55Z</time>
      </trkpt>
      <trkpt lat="42.95292" lon="0.84763">
        <ele>1378</ele>
        <time>2019-08-17T12:02:56Z</time>
      </trkpt>
      <trkpt lat="42.95291" lon="0.84763">
        <ele>1377.7</ele>
        <time>2019-08-17T12:02:57Z</time>
      </trkpt>
      <trkpt lat="42.9529" lon="0.84763">
        <ele>1377.5</ele>
        <time>2019-08-17T12:02:58Z</time>
      </trkpt>
      <trkpt lat="42.9529" lon="0.84762">
        <ele>1377.2</ele>
        <time>2019-08-17T12:02:59Z</time>
      </trkpt>
      <trkpt lat="42.95289" lon="0.84762">
        <ele>1376.9</ele>
        <time>2019-08-17T12:03:00Z</time>
      </trkpt>
      <trkpt lat="42.95288" lon="0.84762">
        <ele>1376.6</ele>
        <time>2019-08-17T12:03:01Z</time>
      </trkpt>
      <trkpt lat="42.95287" lon="0.84762">
        <ele>1376.4</ele>
        <time>2019-08-17T12:03:02Z</time>
      </trkpt>
      <trkpt lat="42.95287" lon="0.84761">
        <ele>1376.1</ele>
        <time>2019-08-17T12:03:03Z</time>
      </trkpt>
      <trkpt lat="42.95286" lon="0.84761">
        <ele>1375.9</ele>
        <time>2019-08-17T12:03:04Z</time>
      </trkpt>
      <trkpt lat="42.95285" lon="0.84761">
        <ele>1375.7</ele>
        <time>2019-08-17T12:03:05Z</time>
      </trkpt>
      <trkpt lat="42.95285" lon="0.84761">
        <ele>1375.5</ele>
        <time>2019-08-17T12:03:06Z</time>
      </trkpt>
      <trkpt lat="42.95284" lon="0.8476">
        <ele>1375.3</ele>
        <time>2019-08-17T12:03:07Z</time>
      </trkpt>
      <trkpt lat="42.95284" lon="0.8476">
        <ele>1375.1</ele>
        <time>2019-08-17T12:03:08Z</time>
      </trkpt>
      <trkpt lat="42.95283" lon="0.8476">
        <ele>1374.8</ele>
        <time>2019-08-17T12:03:09Z</time>
      </trkpt>
      <trkpt lat="42.95282" lon="0.8476">
        <ele>1374.7</ele>
        <time>2019-08-17T12:03:10Z</time>
      </trkpt>
      <trkpt lat="42.95282" lon="0.8476">
        <ele>1374.5</ele>
        <time>2019-08-17T12:03:11Z</time>
      </trkpt>
      <trkpt lat="42.95281" lon="0.8476">
        <ele>1374.4</ele>
        <time>2019-08-17T12:03:12Z</time>
      </trkpt>
      <trkpt lat="42.95281" lon="0.8476">
        <ele>1374.3</ele>
        <time>2019-08-17T12:03:13Z</time>
      </trkpt>
      <trkpt lat="42.9528" lon="0.8476">
        <ele>1374.2</ele>
        <time>2019-08-17T12:03:14Z</time>
      </trkpt>
      <trkpt lat="42.9528" lon="0.84761">
        <ele>1374.1</ele>
        <time>2019-08-17T12:03:15Z</time>
      </trkpt>
      <trkpt lat="42.95279" lon="0.84761">
        <ele>1374</ele>
        <time>2019-08-17T12:03:16Z</time>
      </trkpt>
      <trkpt lat="42.95279" lon="0.84761">
        <ele>1373.9</ele>
        <time>2019-08-17T12:03:17Z</time>
      </trkpt>
      <trkpt lat="42.95279" lon="0.84761">
        <ele>1373.8</ele>
        <time>2019-08-17T12:03:18Z</time>
      </trkpt>
      <trkpt lat="42.95279" lon="0.84761">
        <ele>1373.7</ele>
        <time>2019-08-17T12:03:19Z</time>
      </trkpt>
      <trkpt lat="42.95278" lon="0.84761">
        <ele>1373.7</ele>
        <time>2019-08-17T12:03:20Z</time>
      </trkpt>
      <trkpt lat="42.95278" lon="0.84762">
        <ele>1373.5</ele>
        <time>2019-08-17T12:03:21Z</time>
      </trkpt>
      <trkpt lat="42.95277" lon="0.84762">
        <ele>1373.4</ele>
        <time>2019-08-17T12:03:22Z</time>
      </trkpt>
      <trkpt lat="42.95276" lon="0.84762">
        <ele>1373.2</ele>
        <time>2019-08-17T12:03:23Z</time>
      </trkpt>
      <trkpt lat="42.95276" lon="0.84763">
        <ele>1373</ele>
        <time>2019-08-17T12:03:24Z</time>
      </trkpt>
      <trkpt lat="42.95275" lon="0.84763">
        <ele>1372.9</ele>
        <time>2019-08-17T12:03:25Z</time>
      </trkpt>
      <trkpt lat="42.95274" lon="0.84764">
        <ele>1372.7</ele>
        <time>2019-08-17T12:03:26Z</time>
      </trkpt>
      <trkpt lat="42.95273" lon="0.84764">
        <ele>1372.5</ele>
        <time>2019-08-17T12:03:27Z</time>
      </trkpt>
      <trkpt lat="42.95273" lon="0.84763">
        <ele>1372.2</ele>
        <time>2019-08-17T12:03:28Z</time>
      </trkpt>
      <trkpt lat="42.95272" lon="0.84763">
        <ele>1372</ele>
        <time>2019-08-17T12:03:29Z</time>
      </trkpt>
      <trkpt lat="42.95271" lon="0.84762">
        <ele>1371.7</ele>
        <time>2019-08-17T12:03:30Z</time>
      </trkpt>
      <trkpt lat="42.9527" lon="0.84762">
        <ele>1371.5</ele>
        <time>2019-08-17T12:03:31Z</time>
      </trkpt>
      <trkpt lat="42.95269" lon="0.84762">
        <ele>1371.2</ele>
        <time>2019-08-17T12:03:32Z</time>
      </trkpt>
      <trkpt lat="42.95268" lon="0.84762">
        <ele>1370.9</ele>
        <time>2019-08-17T12:03:33Z</time>
      </trkpt>
      <trkpt lat="42.95268" lon="0.84762">
        <ele>1370.7</ele>
        <time>2019-08-17T12:03:34Z</time>
      </trkpt>
      <trkpt lat="42.95267" lon="0.84762">
        <ele>1370.5</ele>
        <time>2019-08-17T12:03:35Z</time>
      </trkpt>
      <trkpt lat="42.95266" lon="0.84762">
        <ele>1370.3</ele>
        <time>2019-08-17T12:03:36Z</time>
      </trkpt>
      <trkpt lat="42.95266" lon="0.84763">
        <ele>1370.2</ele>
        <time>2019-08-17T12:03:37Z</time>
      </trkpt>
      <trkpt lat="42.95265" lon="0.84763">
        <ele>1370</ele>
        <time>2019-08-17T12:03:38Z</time>
      </trkpt>
      <trkpt lat="42.95265" lon="0.84763">
        <ele>1369.9</ele>
        <time>2019-08-17T12:03:39Z</time>
      </trkpt>
      <trkpt lat="42.95264" lon="0.84764">
        <ele>1369.7</ele>
        <time>2019-08-17T12:03:40Z</time>
      </trkpt>
      <trkpt lat="42.95264" lon="0.84764">
        <ele>1369.6</ele>
        <time>2019-08-17T12:03:41Z</time>
      </trkpt>
      <trkpt lat="42.95263" lon="0.84763">
        <ele>1369.4</ele>
        <time>2019-08-17T12:03:42Z</time>
      </trkpt>
      <trkpt lat="42.95262" lon="0.84763">
        <ele>1369.2</ele>
        <time>2019-08-17T12:03:43Z</time>
      </trkpt>
      <trkpt lat="42.95261" lon="0.84763">
        <ele>1369</ele>
        <time>2019-08-17T12:03:44Z</time>
      </trkpt>
      <trkpt lat="42.9526" lon="0.84763">
        <ele>1368.8</ele>
        <time>2019-08-17T12:03:45Z</time>
      </trkpt>
      <trkpt lat="42.95259" lon="0.84763">
        <ele>1368.6</ele>
        <time>2019-08-17T12:03:46Z</time>
      </trkpt>
      <trkpt lat="42.95258" lon="0.84763">
        <ele>1368.4</ele>
        <time>2019-08-17T12:03:47Z</time>
      </trkpt>
      <trkpt lat="42.95257" lon="0.84763">
        <ele>1368.2</ele>
        <time>2019-08-17T12:03:48Z</time>
      </trkpt>
      <trkpt lat="42.95257" lon="0.84763">
        <ele>1368</ele>
        <time>2019-08-17T12:03:49Z</time>
      </trkpt>
      <trkpt lat="42.95256" lon="0.84763">
        <ele>1367.8</ele>
        <time>2019-08-17T12:03:50Z</time>
      </trkpt>
      <trkpt lat="42.95255" lon="0.84763">
        <ele>1367.5</ele>
        <time>2019-08-17T12:03:51Z</time>
      </trkpt>
      <trkpt lat="42.95254" lon="0.84763">
        <ele>1367.3</ele>
        <time>2019-08-17T12:03:52Z</time>
      </trkpt>
      <trkpt lat="42.95254" lon="0.84763">
        <ele>1367.3</ele>
        <time>2019-08-17T12:03:53Z</time>
      </trkpt>
      <trkpt lat="42.95254" lon="0.84763">
        <ele>1367.2</ele>
        <time>2019-08-17T12:03:54Z</time>
      </trkpt>
      <trkpt lat="42.95254" lon="0.84763">
        <ele>1367.2</ele>
        <time>2019-08-17T12:03:55Z</time>
      </trkpt>
      <trkpt lat="42.95254" lon="0.84764">
        <ele>1367.1</ele>
        <time>2019-08-17T12:03:56Z</time>
      </trkpt>
      <trkpt lat="42.95253" lon="0.84764">
        <ele>1366.8</ele>
        <time>2019-08-17T12:03:57Z</time>
      </trkpt>
      <trkpt lat="42.95252" lon="0.84764">
        <ele>1366.6</ele>
        <time>2019-08-17T12:03:58Z</time>
      </trkpt>
      <trkpt lat="42.95252" lon="0.84764">
        <ele>1366.2</ele>
        <time>2019-08-17T12:03:59Z</time>
      </trkpt>
      <trkpt lat="42.95251" lon="0.84765">
        <ele>1365.9</ele>
        <time>2019-08-17T12:04:00Z</time>
      </trkpt>
      <trkpt lat="42.95249" lon="0.84765">
        <ele>1365.4</ele>
        <time>2019-08-17T12:04:01Z</time>
      </trkpt>
      <trkpt lat="42.95248" lon="0.84766">
        <ele>1365</ele>
        <time>2019-08-17T12:04:02Z</time>
      </trkpt>
      <trkpt lat="42.95247" lon="0.84766">
        <ele>1364.6</ele>
        <time>2019-08-17T12:04:03Z</time>
      </trkpt>
      <trkpt lat="42.95246" lon="0.84767">
        <ele>1364.3</ele>
        <time>2019-08-17T12:04:04Z</time>
      </trkpt>
      <trkpt lat="42.95245" lon="0.84767">
        <ele>1364</ele>
        <time>2019-08-17T12:04:05Z</time>
      </trkpt>
      <trkpt lat="42.95244" lon="0.84767">
        <ele>1363.8</ele>
        <time>2019-08-17T12:04:06Z</time>
      </trkpt>
      <trkpt lat="42.95244" lon="0.84767">
        <ele>1363.5</ele>
        <time>2019-08-17T12:04:07Z</time>
      </trkpt>
      <trkpt lat="42.95243" lon="0.84768">
        <ele>1363.3</ele>
        <time>2019-08-17T12:04:08Z</time>
      </trkpt>
      <trkpt lat="42.95242" lon="0.84768">
        <ele>1363</ele>
        <time>2019-08-17T12:04:09Z</time>
      </trkpt>
      <trkpt lat="42.95241" lon="0.84769">
        <ele>1362.8</ele>
        <time>2019-08-17T12:04:10Z</time>
      </trkpt>
      <trkpt lat="42.9524" lon="0.8477">
        <ele>1362.5</ele>
        <time>2019-08-17T12:04:11Z</time>
      </trkpt>
      <trkpt lat="42.9524" lon="0.84771">
        <ele>1362.2</ele>
        <time>2019-08-17T12:04:12Z</time>
      </trkpt>
      <trkpt lat="42.95239" lon="0.84772">
        <ele>1361.8</ele>
        <time>2019-08-17T12:04:13Z</time>
      </trkpt>
      <trkpt lat="42.95238" lon="0.84773">
        <ele>1361.5</ele>
        <time>2019-08-17T12:04:14Z</time>
      </trkpt>
      <trkpt lat="42.95237" lon="0.84774">
        <ele>1361.3</ele>
        <time>2019-08-17T12:04:15Z</time>
      </trkpt>
      <trkpt lat="42.95236" lon="0.84775">
        <ele>1361</ele>
        <time>2019-08-17T12:04:16Z</time>
      </trkpt>
      <trkpt lat="42.95235" lon="0.84776">
        <ele>1360.8</ele>
        <time>2019-08-17T12:04:17Z</time>
      </trkpt>
      <trkpt lat="42.95234" lon="0.84776">
        <ele>1360.6</ele>
        <time>2019-08-17T12:04:18Z</time>
      </trkpt>
      <trkpt lat="42.95234" lon="0.84777">
        <ele>1360.4</ele>
        <time>2019-08-17T12:04:19Z</time>
      </trkpt>
      <trkpt lat="42.95233" lon="0.84777">
        <ele>1360.2</ele>
        <time>2019-08-17T12:04:20Z</time>
      </trkpt>
      <trkpt lat="42.95232" lon="0.84778">
        <ele>1359.9</ele>
        <time>2019-08-17T12:04:21Z</time>
      </trkpt>
      <trkpt lat="42.95231" lon="0.84779">
        <ele>1359.7</ele>
        <time>2019-08-17T12:04:22Z</time>
      </trkpt>
      <trkpt lat="42.9523" lon="0.8478">
        <ele>1359.3</ele>
        <time>2019-08-17T12:04:23Z</time>
      </trkpt>
      <trkpt lat="42.95229" lon="0.84781">
        <ele>1359</ele>
        <time>2019-08-17T12:04:24Z</time>
      </trkpt>
      <trkpt lat="42.95228" lon="0.84782">
        <ele>1358.6</ele>
        <time>2019-08-17T12:04:25Z</time>
      </trkpt>
      <trkpt lat="42.95228" lon="0.84782">
        <ele>1358.3</ele>
        <time>2019-08-17T12:04:26Z</time>
      </trkpt>
      <trkpt lat="42.95227" lon="0.84783">
        <ele>1357.9</ele>
        <time>2019-08-17T12:04:27Z</time>
      </trkpt>
      <trkpt lat="42.95226" lon="0.84784">
        <ele>1357.7</ele>
        <time>2019-08-17T12:04:28Z</time>
      </trkpt>
      <trkpt lat="42.95225" lon="0.84784">
        <ele>1357.5</ele>
        <time>2019-08-17T12:04:29Z</time>
      </trkpt>
      <trkpt lat="42.95225" lon="0.84784">
        <ele>1357.3</ele>
        <time>2019-08-17T12:04:30Z</time>
      </trkpt>
      <trkpt lat="42.95225" lon="0.84784">
        <ele>1357.2</ele>
        <time>2019-08-17T12:04:31Z</time>
      </trkpt>
      <trkpt lat="42.95225" lon="0.84784">
        <ele>1357.2</ele>
        <time>2019-08-17T12:04:32Z</time>
      </trkpt>
      <trkpt lat="42.95225" lon="0.84785">
        <ele>1357.2</ele>
        <time>2019-08-17T12:04:33Z</time>
      </trkpt>
      <trkpt lat="42.95225" lon="0.84785">
        <ele>1357.1</ele>
        <time>2019-08-17T12:04:34Z</time>
      </trkpt>
      <trkpt lat="42.95224" lon="0.84785">
        <ele>1356.9</ele>
        <time>2019-08-17T12:04:35Z</time>
      </trkpt>
      <trkpt lat="42.95223" lon="0.84785">
        <ele>1356.7</ele>
        <time>2019-08-17T12:04:36Z</time>
      </trkpt>
      <trkpt lat="42.95223" lon="0.84786">
        <ele>1356.6</ele>
        <time>2019-08-17T12:04:37Z</time>
      </trkpt>
      <trkpt lat="42.95223" lon="0.84786">
        <ele>1356.5</ele>
        <time>2019-08-17T12:04:38Z</time>
      </trkpt>
      <trkpt lat="42.95223" lon="0.84786">
        <ele>1356.5</ele>
        <time>2019-08-17T12:04:39Z</time>
      </trkpt>
      <trkpt lat="42.95223" lon="0.84786">
        <ele>1356.5</ele>
        <time>2019-08-17T12:04:40Z</time>
      </trkpt>
      <trkpt lat="42.95223" lon="0.84786">
        <ele>1356.4</ele>
        <time>2019-08-17T12:04:41Z</time>
      </trkpt>
      <trkpt lat="42.95223" lon="0.84786">
        <ele>1356.4</ele>
        <time>2019-08-17T12:04:42Z</time>
      </trkpt>
      <trkpt lat="42.95222" lon="0.84786">
        <ele>1356.4</ele>
        <time>2019-08-17T12:04:43Z</time>
      </trkpt>
      <trkpt lat="42.95222" lon="0.84786">
        <ele>1356.4</ele>
        <time>2019-08-17T12:04:44Z</time>
      </trkpt>
      <trkpt lat="42.95222" lon="0.84786">
        <ele>1356.4</ele>
        <time>2019-08-17T12:04:45Z</time>
      </trkpt>
      <trkpt lat="42.95222" lon="0.84786">
        <ele>1356.4</ele>
        <time>2019-08-17T12:04:46Z</time>
      </trkpt>
      <trkpt lat="42.95222" lon="0.84786">
        <ele>1356.4</ele>
        <time>2019-08-17T12:04:47Z</time>
      </trkpt>
      <trkpt lat="42.95222" lon="0.84786">
        <ele>1356.3</ele>
        <time>2019-08-17T12:04:48Z</time>
      </trkpt>
      <trkpt lat="42.95221" lon="0.84787">
        <ele>1356</ele>
        <time>2019-08-17T12:04:49Z</time>
      </trkpt>
      <trkpt lat="42.95221" lon="0.84787">
        <ele>1355.9</ele>
        <time>2019-08-17T12:04:50Z</time>
      </trkpt>
      <trkpt lat="42.95221" lon="0.84788">
        <ele>1355.8</ele>
        <time>2019-08-17T12:04:51Z</time>
      </trkpt>
      <trkpt lat="42.9522" lon="0.84788">
        <ele>1355.8</ele>
        <time>2019-08-17T12:04:52Z</time>
      </trkpt>
      <trkpt lat="42.9522" lon="0.84788">
        <ele>1355.8</ele>
        <time>2019-08-17T12:04:53Z</time>
      </trkpt>
      <trkpt lat="42.9522" lon="0.84788">
        <ele>1355.8</ele>
        <time>2019-08-17T12:04:54Z</time>
      </trkpt>
      <trkpt lat="42.9522" lon="0.84788">
        <ele>1355.7</ele>
        <time>2019-08-17T12:04:55Z</time>
      </trkpt>
      <trkpt lat="42.9522" lon="0.84788">
        <ele>1355.7</ele>
        <time>2019-08-17T12:04:56Z</time>
      </trkpt>
      <trkpt lat="42.9522" lon="0.84788">
        <ele>1355.7</ele>
        <time>2019-08-17T12:04:57Z</time>
      </trkpt>
      <trkpt lat="42.9522" lon="0.84788">
        <ele>1355.6</ele>
        <time>2019-08-17T12:04:58Z</time>
      </trkpt>
      <trkpt lat="42.9522" lon="0.84788">
        <ele>1355.6</ele>
        <time>2019-08-17T12:04:59Z</time>
      </trkpt>
      <trkpt lat="42.95219" lon="0.84788">
        <ele>1355.5</ele>
        <time>2019-08-17T12:05:00Z</time>
      </trkpt>
      <trkpt lat="42.95219" lon="0.84789">
        <ele>1355.5</ele>
        <time>2019-08-17T12:05:01Z</time>
      </trkpt>
      <trkpt lat="42.95219" lon="0.84789">
        <ele>1355.4</ele>
        <time>2019-08-17T12:05:02Z</time>
      </trkpt>
      <trkpt lat="42.95219" lon="0.84789">
        <ele>1355.3</ele>
        <time>2019-08-17T12:05:03Z</time>
      </trkpt>
      <trkpt lat="42.95218" lon="0.8479">
        <ele>1355.1</ele>
        <time>2019-08-17T12:05:04Z</time>
      </trkpt>
      <trkpt lat="42.95217" lon="0.8479">
        <ele>1354.8</ele>
        <time>2019-08-17T12:05:05Z</time>
      </trkpt>
      <trkpt lat="42.95216" lon="0.84791">
        <ele>1354.6</ele>
        <time>2019-08-17T12:05:06Z</time>
      </trkpt>
      <trkpt lat="42.95215" lon="0.84792">
        <ele>1354.4</ele>
        <time>2019-08-17T12:05:07Z</time>
      </trkpt>
      <trkpt lat="42.95215" lon="0.84792">
        <ele>1354.2</ele>
        <time>2019-08-17T12:05:08Z</time>
      </trkpt>
      <trkpt lat="42.95214" lon="0.84793">
        <ele>1353.9</ele>
        <time>2019-08-17T12:05:09Z</time>
      </trkpt>
      <trkpt lat="42.95213" lon="0.84794">
        <ele>1353.7</ele>
        <time>2019-08-17T12:05:10Z</time>
      </trkpt>
      <trkpt lat="42.95212" lon="0.84795">
        <ele>1353.4</ele>
        <time>2019-08-17T12:05:11Z</time>
      </trkpt>
      <trkpt lat="42.95211" lon="0.84796">
        <ele>1353.2</ele>
        <time>2019-08-17T12:05:12Z</time>
      </trkpt>
      <trkpt lat="42.9521" lon="0.84797">
        <ele>1352.9</ele>
        <time>2019-08-17T12:05:13Z</time>
      </trkpt>
      <trkpt lat="42.95209" lon="0.84798">
        <ele>1352.6</ele>
        <time>2019-08-17T12:05:14Z</time>
      </trkpt>
      <trkpt lat="42.95208" lon="0.84798">
        <ele>1352.4</ele>
        <time>2019-08-17T12:05:15Z</time>
      </trkpt>
      <trkpt lat="42.95207" lon="0.84799">
        <ele>1352.1</ele>
        <time>2019-08-17T12:05:16Z</time>
      </trkpt>
      <trkpt lat="42.95206" lon="0.848">
        <ele>1351.9</ele>
        <time>2019-08-17T12:05:17Z</time>
      </trkpt>
      <trkpt lat="42.95206" lon="0.848">
        <ele>1351.7</ele>
        <time>2019-08-17T12:05:18Z</time>
      </trkpt>
      <trkpt lat="42.95205" lon="0.848">
        <ele>1351.5</ele>
        <time>2019-08-17T12:05:19Z</time>
      </trkpt>
      <trkpt lat="42.95204" lon="0.848">
        <ele>1351.3</ele>
        <time>2019-08-17T12:05:20Z</time>
      </trkpt>
      <trkpt lat="42.95203" lon="0.848">
        <ele>1351.1</ele>
        <time>2019-08-17T12:05:21Z</time>
      </trkpt>
      <trkpt lat="42.95202" lon="0.848">
        <ele>1351</ele>
        <time>2019-08-17T12:05:22Z</time>
      </trkpt>
      <trkpt lat="42.95201" lon="0.84801">
        <ele>1350.7</ele>
        <time>2019-08-17T12:05:23Z</time>
      </trkpt>
      <trkpt lat="42.95201" lon="0.84802">
        <ele>1350.6</ele>
        <time>2019-08-17T12:05:24Z</time>
      </trkpt>
      <trkpt lat="42.952" lon="0.84802">
        <ele>1350.4</ele>
        <time>2019-08-17T12:05:25Z</time>
      </trkpt>
      <trkpt lat="42.95199" lon="0.84803">
        <ele>1350.3</ele>
        <time>2019-08-17T12:05:26Z</time>
      </trkpt>
      <trkpt lat="42.95199" lon="0.84803">
        <ele>1350.2</ele>
        <time>2019-08-17T12:05:27Z</time>
      </trkpt>
      <trkpt lat="42.95198" lon="0.84803">
        <ele>1350</ele>
        <time>2019-08-17T12:05:28Z</time>
      </trkpt>
      <trkpt lat="42.95198" lon="0.84804">
        <ele>1349.9</ele>
        <time>2019-08-17T12:05:29Z</time>
      </trkpt>
      <trkpt lat="42.95197" lon="0.84804">
        <ele>1349.7</ele>
        <time>2019-08-17T12:05:30Z</time>
      </trkpt>
      <trkpt lat="42.95197" lon="0.84805">
        <ele>1349.6</ele>
        <time>2019-08-17T12:05:31Z</time>
      </trkpt>
      <trkpt lat="42.95196" lon="0.84805">
        <ele>1349.4</ele>
        <time>2019-08-17T12:05:32Z</time>
      </trkpt>
      <trkpt lat="42.95196" lon="0.84806">
        <ele>1349.2</ele>
        <time>2019-08-17T12:05:33Z</time>
      </trkpt>
      <trkpt lat="42.95195" lon="0.84806">
        <ele>1349.1</ele>
        <time>2019-08-17T12:05:34Z</time>
      </trkpt>
      <trkpt lat="42.95195" lon="0.84807">
        <ele>1348.9</ele>
        <time>2019-08-17T12:05:35Z</time>
      </trkpt>
      <trkpt lat="42.95194" lon="0.84807">
        <ele>1348.8</ele>
        <time>2019-08-17T12:05:36Z</time>
      </trkpt>
      <trkpt lat="42.95194" lon="0.84807">
        <ele>1348.6</ele>
        <time>2019-08-17T12:05:37Z</time>
      </trkpt>
      <trkpt lat="42.95193" lon="0.84808">
        <ele>1348.5</ele>
        <time>2019-08-17T12:05:38Z</time>
      </trkpt>
      <trkpt lat="42.95193" lon="0.84808">
        <ele>1348.3</ele>
        <time>2019-08-17T12:05:39Z</time>
      </trkpt>
      <trkpt lat="42.95192" lon="0.84809">
        <ele>1348.2</ele>
        <time>2019-08-17T12:05:40Z</time>
      </trkpt>
      <trkpt lat="42.95192" lon="0.84809">
        <ele>1348</ele>
        <time>2019-08-17T12:05:41Z</time>
      </trkpt>
      <trkpt lat="42.95191" lon="0.8481">
        <ele>1347.9</ele>
        <time>2019-08-17T12:05:42Z</time>
      </trkpt>
      <trkpt lat="42.95191" lon="0.8481">
        <ele>1347.7</ele>
        <time>2019-08-17T12:05:43Z</time>
      </trkpt>
      <trkpt lat="42.9519" lon="0.84811">
        <ele>1347.5</ele>
        <time>2019-08-17T12:05:44Z</time>
      </trkpt>
      <trkpt lat="42.9519" lon="0.84811">
        <ele>1347.4</ele>
        <time>2019-08-17T12:05:45Z</time>
      </trkpt>
      <trkpt lat="42.95189" lon="0.84811">
        <ele>1347.2</ele>
        <time>2019-08-17T12:05:46Z</time>
      </trkpt>
      <trkpt lat="42.95188" lon="0.84812">
        <ele>1347</ele>
        <time>2019-08-17T12:05:47Z</time>
      </trkpt>
      <trkpt lat="42.95188" lon="0.84812">
        <ele>1346.9</ele>
        <time>2019-08-17T12:05:48Z</time>
      </trkpt>
      <trkpt lat="42.95187" lon="0.84813">
        <ele>1346.7</ele>
        <time>2019-08-17T12:05:49Z</time>
      </trkpt>
      <trkpt lat="42.95187" lon="0.84813">
        <ele>1346.5</ele>
        <time>2019-08-17T12:05:50Z</time>
      </trkpt>
      <trkpt lat="42.95186" lon="0.84814">
        <ele>1346.4</ele>
        <time>2019-08-17T12:05:51Z</time>
      </trkpt>
      <trkpt lat="42.95186" lon="0.84814">
        <ele>1346.2</ele>
        <time>2019-08-17T12:05:52Z</time>
      </trkpt>
      <trkpt lat="42.95185" lon="0.84815">
        <ele>1346.1</ele>
        <time>2019-08-17T12:05:53Z</time>
      </trkpt>
      <trkpt lat="42.95185" lon="0.84815">
        <ele>1345.9</ele>
        <time>2019-08-17T12:05:54Z</time>
      </trkpt>
      <trkpt lat="42.95184" lon="0.84815">
        <ele>1345.7</ele>
        <time>2019-08-17T12:05:55Z</time>
      </trkpt>
      <trkpt lat="42.95184" lon="0.84816">
        <ele>1345.6</ele>
        <time>2019-08-17T12:05:56Z</time>
      </trkpt>
      <trkpt lat="42.95183" lon="0.84816">
        <ele>1345.5</ele>
        <time>2019-08-17T12:05:57Z</time>
      </trkpt>
      <trkpt lat="42.95183" lon="0.84817">
        <ele>1345.2</ele>
        <time>2019-08-17T12:05:58Z</time>
      </trkpt>
      <trkpt lat="42.95182" lon="0.84818">
        <ele>1344.8</ele>
        <time>2019-08-17T12:05:59Z</time>
      </trkpt>
      <trkpt lat="42.95181" lon="0.84819">
        <ele>1344.4</ele>
        <time>2019-08-17T12:06:00Z</time>
      </trkpt>
      <trkpt lat="42.9518" lon="0.84819">
        <ele>1344.1</ele>
        <time>2019-08-17T12:06:01Z</time>
      </trkpt>
      <trkpt lat="42.9518" lon="0.8482">
        <ele>1343.9</ele>
        <time>2019-08-17T12:06:02Z</time>
      </trkpt>
      <trkpt lat="42.9518" lon="0.8482">
        <ele>1343.7</ele>
        <time>2019-08-17T12:06:03Z</time>
      </trkpt>
      <trkpt lat="42.9518" lon="0.8482">
        <ele>1343.6</ele>
        <time>2019-08-17T12:06:04Z</time>
      </trkpt>
      <trkpt lat="42.95179" lon="0.84821">
        <ele>1343.4</ele>
        <time>2019-08-17T12:06:05Z</time>
      </trkpt>
      <trkpt lat="42.95179" lon="0.84821">
        <ele>1343.2</ele>
        <time>2019-08-17T12:06:06Z</time>
      </trkpt>
      <trkpt lat="42.95178" lon="0.84822">
        <ele>1342.9</ele>
        <time>2019-08-17T12:06:07Z</time>
      </trkpt>
      <trkpt lat="42.95177" lon="0.84823">
        <ele>1342.4</ele>
        <time>2019-08-17T12:06:08Z</time>
      </trkpt>
      <trkpt lat="42.95176" lon="0.84824">
        <ele>1341.9</ele>
        <time>2019-08-17T12:06:09Z</time>
      </trkpt>
      <trkpt lat="42.95175" lon="0.84825">
        <ele>1341.5</ele>
        <time>2019-08-17T12:06:10Z</time>
      </trkpt>
      <trkpt lat="42.95175" lon="0.84825">
        <ele>1341.2</ele>
        <time>2019-08-17T12:06:11Z</time>
      </trkpt>
      <trkpt lat="42.95174" lon="0.84826">
        <ele>1341</ele>
        <time>2019-08-17T12:06:12Z</time>
      </trkpt>
      <trkpt lat="42.95173" lon="0.84827">
        <ele>1340.7</ele>
        <time>2019-08-17T12:06:13Z</time>
      </trkpt>
      <trkpt lat="42.95173" lon="0.84827">
        <ele>1340.5</ele>
        <time>2019-08-17T12:06:14Z</time>
      </trkpt>
      <trkpt lat="42.95172" lon="0.84828">
        <ele>1340.3</ele>
        <time>2019-08-17T12:06:15Z</time>
      </trkpt>
      <trkpt lat="42.95171" lon="0.84828">
        <ele>1340.1</ele>
        <time>2019-08-17T12:06:16Z</time>
      </trkpt>
      <trkpt lat="42.95171" lon="0.84828">
        <ele>1339.9</ele>
        <time>2019-08-17T12:06:17Z</time>
      </trkpt>
      <trkpt lat="42.95171" lon="0.84829">
        <ele>1339.9</ele>
        <time>2019-08-17T12:06:18Z</time>
      </trkpt>
      <trkpt lat="42.9517" lon="0.84829">
        <ele>1339.8</ele>
        <time>2019-08-17T12:06:19Z</time>
      </trkpt>
      <trkpt lat="42.9517" lon="0.84829">
        <ele>1339.6</ele>
        <time>2019-08-17T12:06:20Z</time>
      </trkpt>
      <trkpt lat="42.95169" lon="0.8483">
        <ele>1339.3</ele>
        <time>2019-08-17T12:06:21Z</time>
      </trkpt>
      <trkpt lat="42.95168" lon="0.84831">
        <ele>1338.9</ele>
        <time>2019-08-17T12:06:22Z</time>
      </trkpt>
      <trkpt lat="42.95167" lon="0.84832">
        <ele>1338.7</ele>
        <time>2019-08-17T12:06:23Z</time>
      </trkpt>
      <trkpt lat="42.95166" lon="0.84832">
        <ele>1338.4</ele>
        <time>2019-08-17T12:06:24Z</time>
      </trkpt>
      <trkpt lat="42.95166" lon="0.84833">
        <ele>1338.2</ele>
        <time>2019-08-17T12:06:25Z</time>
      </trkpt>
      <trkpt lat="42.95165" lon="0.84833">
        <ele>1338</ele>
        <time>2019-08-17T12:06:26Z</time>
      </trkpt>
      <trkpt lat="42.95165" lon="0.84834">
        <ele>1337.8</ele>
        <time>2019-08-17T12:06:27Z</time>
      </trkpt>
      <trkpt lat="42.95164" lon="0.84834">
        <ele>1337.6</ele>
        <time>2019-08-17T12:06:28Z</time>
      </trkpt>
      <trkpt lat="42.95163" lon="0.84835">
        <ele>1337.2</ele>
        <time>2019-08-17T12:06:29Z</time>
      </trkpt>
      <trkpt lat="42.95163" lon="0.84836">
        <ele>1337</ele>
        <time>2019-08-17T12:06:30Z</time>
      </trkpt>
      <trkpt lat="42.95162" lon="0.84836">
        <ele>1336.8</ele>
        <time>2019-08-17T12:06:31Z</time>
      </trkpt>
      <trkpt lat="42.95162" lon="0.84837">
        <ele>1336.7</ele>
        <time>2019-08-17T12:06:32Z</time>
      </trkpt>
      <trkpt lat="42.95161" lon="0.84837">
        <ele>1336.5</ele>
        <time>2019-08-17T12:06:33Z</time>
      </trkpt>
      <trkpt lat="42.95161" lon="0.84837">
        <ele>1336.3</ele>
        <time>2019-08-17T12:06:34Z</time>
      </trkpt>
      <trkpt lat="42.95161" lon="0.84838">
        <ele>1336.2</ele>
        <time>2019-08-17T12:06:35Z</time>
      </trkpt>
      <trkpt lat="42.95161" lon="0.84838">
        <ele>1336.2</ele>
        <time>2019-08-17T12:06:36Z</time>
      </trkpt>
      <trkpt lat="42.9516" lon="0.84838">
        <ele>1336.1</ele>
        <time>2019-08-17T12:06:37Z</time>
      </trkpt>
      <trkpt lat="42.9516" lon="0.84839">
        <ele>1335.8</ele>
        <time>2019-08-17T12:06:38Z</time>
      </trkpt>
      <trkpt lat="42.95159" lon="0.8484">
        <ele>1335.3</ele>
        <time>2019-08-17T12:06:39Z</time>
      </trkpt>
      <trkpt lat="42.95157" lon="0.84841">
        <ele>1334.7</ele>
        <time>2019-08-17T12:06:40Z</time>
      </trkpt>
      <trkpt lat="42.95157" lon="0.84842">
        <ele>1334.4</ele>
        <time>2019-08-17T12:06:41Z</time>
      </trkpt>
      <trkpt lat="42.95156" lon="0.84842">
        <ele>1334.1</ele>
        <time>2019-08-17T12:06:42Z</time>
      </trkpt>
      <trkpt lat="42.95155" lon="0.84842">
        <ele>1333.9</ele>
        <time>2019-08-17T12:06:43Z</time>
      </trkpt>
      <trkpt lat="42.95155" lon="0.84843">
        <ele>1333.7</ele>
        <time>2019-08-17T12:06:44Z</time>
      </trkpt>
      <trkpt lat="42.95155" lon="0.84843">
        <ele>1333.6</ele>
        <time>2019-08-17T12:06:45Z</time>
      </trkpt>
      <trkpt lat="42.95154" lon="0.84843">
        <ele>1333.5</ele>
        <time>2019-08-17T12:06:46Z</time>
      </trkpt>
      <trkpt lat="42.95154" lon="0.84843">
        <ele>1333.4</ele>
        <time>2019-08-17T12:06:47Z</time>
      </trkpt>
      <trkpt lat="42.95154" lon="0.84843">
        <ele>1333.3</ele>
        <time>2019-08-17T12:06:48Z</time>
      </trkpt>
      <trkpt lat="42.95153" lon="0.84844">
        <ele>1333</ele>
        <time>2019-08-17T12:06:49Z</time>
      </trkpt>
      <trkpt lat="42.95152" lon="0.84846">
        <ele>1332.5</ele>
        <time>2019-08-17T12:06:50Z</time>
      </trkpt>
      <trkpt lat="42.95152" lon="0.84847">
        <ele>1332.1</ele>
        <time>2019-08-17T12:06:51Z</time>
      </trkpt>
      <trkpt lat="42.95151" lon="0.84848">
        <ele>1331.7</ele>
        <time>2019-08-17T12:06:52Z</time>
      </trkpt>
      <trkpt lat="42.95151" lon="0.8485">
        <ele>1331.4</ele>
        <time>2019-08-17T12:06:53Z</time>
      </trkpt>
      <trkpt lat="42.95151" lon="0.84851">
        <ele>1331.1</ele>
        <time>2019-08-17T12:06:54Z</time>
      </trkpt>
      <trkpt lat="42.9515" lon="0.84852">
        <ele>1330.8</ele>
        <time>2019-08-17T12:06:55Z</time>
      </trkpt>
      <trkpt lat="42.9515" lon="0.84853">
        <ele>1330.6</ele>
        <time>2019-08-17T12:06:56Z</time>
      </trkpt>
      <trkpt lat="42.9515" lon="0.84853">
        <ele>1330.4</ele>
        <time>2019-08-17T12:06:57Z</time>
      </trkpt>
      <trkpt lat="42.9515" lon="0.84854">
        <ele>1330.2</ele>
        <time>2019-08-17T12:06:58Z</time>
      </trkpt>
      <trkpt lat="42.9515" lon="0.84855">
        <ele>1330</ele>
        <time>2019-08-17T12:06:59Z</time>
      </trkpt>
      <trkpt lat="42.95149" lon="0.84856">
        <ele>1329.7</ele>
        <time>2019-08-17T12:07:00Z</time>
      </trkpt>
      <trkpt lat="42.95149" lon="0.84857">
        <ele>1329.5</ele>
        <time>2019-08-17T12:07:01Z</time>
      </trkpt>
      <trkpt lat="42.95148" lon="0.84859">
        <ele>1328.9</ele>
        <time>2019-08-17T12:07:02Z</time>
      </trkpt>
      <trkpt lat="42.95148" lon="0.8486">
        <ele>1328.7</ele>
        <time>2019-08-17T12:07:03Z</time>
      </trkpt>
      <trkpt lat="42.95148" lon="0.8486">
        <ele>1328.6</ele>
        <time>2019-08-17T12:07:04Z</time>
      </trkpt>
      <trkpt lat="42.95147" lon="0.84861">
        <ele>1328.4</ele>
        <time>2019-08-17T12:07:05Z</time>
      </trkpt>
      <trkpt lat="42.95147" lon="0.84862">
        <ele>1328.2</ele>
        <time>2019-08-17T12:07:06Z</time>
      </trkpt>
      <trkpt lat="42.95147" lon="0.84862">
        <ele>1328.1</ele>
        <time>2019-08-17T12:07:07Z</time>
      </trkpt>
      <trkpt lat="42.95147" lon="0.84864">
        <ele>1327.8</ele>
        <time>2019-08-17T12:07:08Z</time>
      </trkpt>
      <trkpt lat="42.95146" lon="0.84865">
        <ele>1327.4</ele>
        <time>2019-08-17T12:07:09Z</time>
      </trkpt>
      <trkpt lat="42.95146" lon="0.84866">
        <ele>1327</ele>
        <time>2019-08-17T12:07:10Z</time>
      </trkpt>
      <trkpt lat="42.95145" lon="0.84868">
        <ele>1326.7</ele>
        <time>2019-08-17T12:07:11Z</time>
      </trkpt>
      <trkpt lat="42.95144" lon="0.84869">
        <ele>1326.4</ele>
        <time>2019-08-17T12:07:12Z</time>
      </trkpt>
      <trkpt lat="42.95144" lon="0.8487">
        <ele>1326.1</ele>
        <time>2019-08-17T12:07:13Z</time>
      </trkpt>
      <trkpt lat="42.95143" lon="0.8487">
        <ele>1325.8</ele>
        <time>2019-08-17T12:07:14Z</time>
      </trkpt>
      <trkpt lat="42.95143" lon="0.84871">
        <ele>1325.5</ele>
        <time>2019-08-17T12:07:15Z</time>
      </trkpt>
      <trkpt lat="42.95142" lon="0.84872">
        <ele>1325.2</ele>
        <time>2019-08-17T12:07:16Z</time>
      </trkpt>
      <trkpt lat="42.95141" lon="0.84873">
        <ele>1324.8</ele>
        <time>2019-08-17T12:07:17Z</time>
      </trkpt>
      <trkpt lat="42.95141" lon="0.84874">
        <ele>1324.5</ele>
        <time>2019-08-17T12:07:18Z</time>
      </trkpt>
      <trkpt lat="42.9514" lon="0.84875">
        <ele>1324.1</ele>
        <time>2019-08-17T12:07:19Z</time>
      </trkpt>
      <trkpt lat="42.9514" lon="0.84876">
        <ele>1323.8</ele>
        <time>2019-08-17T12:07:20Z</time>
      </trkpt>
      <trkpt lat="42.95139" lon="0.84878">
        <ele>1323.4</ele>
        <time>2019-08-17T12:07:21Z</time>
      </trkpt>
      <trkpt lat="42.95139" lon="0.84879">
        <ele>1323</ele>
        <time>2019-08-17T12:07:22Z</time>
      </trkpt>
      <trkpt lat="42.95138" lon="0.8488">
        <ele>1322.7</ele>
        <time>2019-08-17T12:07:23Z</time>
      </trkpt>
      <trkpt lat="42.95138" lon="0.84881">
        <ele>1322.5</ele>
        <time>2019-08-17T12:07:24Z</time>
      </trkpt>
      <trkpt lat="42.95137" lon="0.84882">
        <ele>1322.3</ele>
        <time>2019-08-17T12:07:25Z</time>
      </trkpt>
      <trkpt lat="42.95136" lon="0.84883">
        <ele>1322.2</ele>
        <time>2019-08-17T12:07:26Z</time>
      </trkpt>
      <trkpt lat="42.95136" lon="0.84884">
        <ele>1322</ele>
        <time>2019-08-17T12:07:27Z</time>
      </trkpt>
      <trkpt lat="42.95135" lon="0.84885">
        <ele>1321.9</ele>
        <time>2019-08-17T12:07:28Z</time>
      </trkpt>
      <trkpt lat="42.95135" lon="0.84887">
        <ele>1321.6</ele>
        <time>2019-08-17T12:07:29Z</time>
      </trkpt>
      <trkpt lat="42.95134" lon="0.84888">
        <ele>1321.4</ele>
        <time>2019-08-17T12:07:30Z</time>
      </trkpt>
      <trkpt lat="42.95134" lon="0.84889">
        <ele>1321.3</ele>
        <time>2019-08-17T12:07:31Z</time>
      </trkpt>
      <trkpt lat="42.95134" lon="0.84891">
        <ele>1321.2</ele>
        <time>2019-08-17T12:07:32Z</time>
      </trkpt>
      <trkpt lat="42.95134" lon="0.84892">
        <ele>1321</ele>
        <time>2019-08-17T12:07:33Z</time>
      </trkpt>
      <trkpt lat="42.95133" lon="0.84893">
        <ele>1320.7</ele>
        <time>2019-08-17T12:07:34Z</time>
      </trkpt>
      <trkpt lat="42.95133" lon="0.84894">
        <ele>1320.4</ele>
        <time>2019-08-17T12:07:35Z</time>
      </trkpt>
      <trkpt lat="42.95133" lon="0.84895">
        <ele>1320.2</ele>
        <time>2019-08-17T12:07:36Z</time>
      </trkpt>
      <trkpt lat="42.95133" lon="0.84896">
        <ele>1319.9</ele>
        <time>2019-08-17T12:07:37Z</time>
      </trkpt>
      <trkpt lat="42.95132" lon="0.84897">
        <ele>1319.6</ele>
        <time>2019-08-17T12:07:38Z</time>
      </trkpt>
      <trkpt lat="42.95132" lon="0.84898">
        <ele>1319.3</ele>
        <time>2019-08-17T12:07:39Z</time>
      </trkpt>
      <trkpt lat="42.95132" lon="0.84899">
        <ele>1319.1</ele>
        <time>2019-08-17T12:07:40Z</time>
      </trkpt>
      <trkpt lat="42.95132" lon="0.849">
        <ele>1318.8</ele>
        <time>2019-08-17T12:07:41Z</time>
      </trkpt>
      <trkpt lat="42.95131" lon="0.84901">
        <ele>1318.5</ele>
        <time>2019-08-17T12:07:42Z</time>
      </trkpt>
      <trkpt lat="42.95131" lon="0.84902">
        <ele>1318.2</ele>
        <time>2019-08-17T12:07:43Z</time>
      </trkpt>
      <trkpt lat="42.95131" lon="0.84904">
        <ele>1318</ele>
        <time>2019-08-17T12:07:44Z</time>
      </trkpt>
      <trkpt lat="42.95131" lon="0.84905">
        <ele>1317.7</ele>
        <time>2019-08-17T12:07:45Z</time>
      </trkpt>
      <trkpt lat="42.9513" lon="0.84906">
        <ele>1317.6</ele>
        <time>2019-08-17T12:07:46Z</time>
      </trkpt>
      <trkpt lat="42.9513" lon="0.84907">
        <ele>1317.5</ele>
        <time>2019-08-17T12:07:47Z</time>
      </trkpt>
      <trkpt lat="42.9513" lon="0.84908">
        <ele>1317.4</ele>
        <time>2019-08-17T12:07:48Z</time>
      </trkpt>
      <trkpt lat="42.9513" lon="0.84909">
        <ele>1317.3</ele>
        <time>2019-08-17T12:07:49Z</time>
      </trkpt>
      <trkpt lat="42.95129" lon="0.8491">
        <ele>1317.3</ele>
        <time>2019-08-17T12:07:50Z</time>
      </trkpt>
      <trkpt lat="42.95129" lon="0.84911">
        <ele>1317.2</ele>
        <time>2019-08-17T12:07:51Z</time>
      </trkpt>
      <trkpt lat="42.95129" lon="0.84912">
        <ele>1317.1</ele>
        <time>2019-08-17T12:07:52Z</time>
      </trkpt>
      <trkpt lat="42.95129" lon="0.84913">
        <ele>1317</ele>
        <time>2019-08-17T12:07:53Z</time>
      </trkpt>
      <trkpt lat="42.95128" lon="0.84914">
        <ele>1316.9</ele>
        <time>2019-08-17T12:07:54Z</time>
      </trkpt>
      <trkpt lat="42.95128" lon="0.84915">
        <ele>1316.8</ele>
        <time>2019-08-17T12:07:55Z</time>
      </trkpt>
      <trkpt lat="42.95128" lon="0.84916">
        <ele>1316.7</ele>
        <time>2019-08-17T12:07:56Z</time>
      </trkpt>
      <trkpt lat="42.95128" lon="0.84918">
        <ele>1316.6</ele>
        <time>2019-08-17T12:07:57Z</time>
      </trkpt>
      <trkpt lat="42.95127" lon="0.84919">
        <ele>1316.5</ele>
        <time>2019-08-17T12:07:58Z</time>
      </trkpt>
      <trkpt lat="42.95127" lon="0.8492">
        <ele>1316.4</ele>
        <time>2019-08-17T12:07:59Z</time>
      </trkpt>
      <trkpt lat="42.95127" lon="0.84921">
        <ele>1316.3</ele>
        <time>2019-08-17T12:08:00Z</time>
      </trkpt>
      <trkpt lat="42.95127" lon="0.84922">
        <ele>1316.2</ele>
        <time>2019-08-17T12:08:01Z</time>
      </trkpt>
      <trkpt lat="42.95126" lon="0.84923">
        <ele>1316.1</ele>
        <time>2019-08-17T12:08:02Z</time>
      </trkpt>
      <trkpt lat="42.95126" lon="0.84924">
        <ele>1316</ele>
        <time>2019-08-17T12:08:03Z</time>
      </trkpt>
      <trkpt lat="42.95126" lon="0.84925">
        <ele>1315.9</ele>
        <time>2019-08-17T12:08:04Z</time>
      </trkpt>
      <trkpt lat="42.95126" lon="0.84926">
        <ele>1315.8</ele>
        <time>2019-08-17T12:08:05Z</time>
      </trkpt>
      <trkpt lat="42.95125" lon="0.84927">
        <ele>1315.7</ele>
        <time>2019-08-17T12:08:06Z</time>
      </trkpt>
      <trkpt lat="42.95125" lon="0.84928">
        <ele>1315.6</ele>
        <time>2019-08-17T12:08:07Z</time>
      </trkpt>
      <trkpt lat="42.95125" lon="0.84929">
        <ele>1315.5</ele>
        <time>2019-08-17T12:08:08Z</time>
      </trkpt>
      <trkpt lat="42.95125" lon="0.84931">
        <ele>1315.4</ele>
        <time>2019-08-17T12:08:09Z</time>
      </trkpt>
      <trkpt lat="42.95124" lon="0.84932">
        <ele>1315.3</ele>
        <time>2019-08-17T12:08:10Z</time>
      </trkpt>
      <trkpt lat="42.95124" lon="0.84933">
        <ele>1315.3</ele>
        <time>2019-08-17T12:08:11Z</time>
      </trkpt>
      <trkpt lat="42.95124" lon="0.84934">
        <ele>1315.2</ele>
        <time>2019-08-17T12:08:12Z</time>
      </trkpt>
      <trkpt lat="42.95124" lon="0.84935">
        <ele>1315.1</ele>
        <time>2019-08-17T12:08:13Z</time>
      </trkpt>
      <trkpt lat="42.95123" lon="0.84936">
        <ele>1315</ele>
        <time>2019-08-17T12:08:14Z</time>
      </trkpt>
      <trkpt lat="42.95123" lon="0.84937">
        <ele>1314.9</ele>
        <time>2019-08-17T12:08:15Z</time>
      </trkpt>
      <trkpt lat="42.95123" lon="0.84938">
        <ele>1314.8</ele>
        <time>2019-08-17T12:08:16Z</time>
      </trkpt>
      <trkpt lat="42.95123" lon="0.84939">
        <ele>1314.7</ele>
        <time>2019-08-17T12:08:17Z</time>
      </trkpt>
      <trkpt lat="42.95123" lon="0.8494">
        <ele>1314.6</ele>
        <time>2019-08-17T12:08:18Z</time>
      </trkpt>
      <trkpt lat="42.95122" lon="0.84941">
        <ele>1314.5</ele>
        <time>2019-08-17T12:08:19Z</time>
      </trkpt>
      <trkpt lat="42.95122" lon="0.84942">
        <ele>1314.4</ele>
        <time>2019-08-17T12:08:20Z</time>
      </trkpt>
      <trkpt lat="42.95122" lon="0.84943">
        <ele>1314.3</ele>
        <time>2019-08-17T12:08:21Z</time>
      </trkpt>
      <trkpt lat="42.95122" lon="0.84945">
        <ele>1314.2</ele>
        <time>2019-08-17T12:08:22Z</time>
      </trkpt>
      <trkpt lat="42.95121" lon="0.84946">
        <ele>1314.1</ele>
        <time>2019-08-17T12:08:23Z</time>
      </trkpt>
      <trkpt lat="42.95121" lon="0.84947">
        <ele>1314</ele>
        <time>2019-08-17T12:08:24Z</time>
      </trkpt>
      <trkpt lat="42.95121" lon="0.84948">
        <ele>1313.9</ele>
        <time>2019-08-17T12:08:25Z</time>
      </trkpt>
      <trkpt lat="42.95121" lon="0.84949">
        <ele>1313.8</ele>
        <time>2019-08-17T12:08:26Z</time>
      </trkpt>
      <trkpt lat="42.9512" lon="0.8495">
        <ele>1313.6</ele>
        <time>2019-08-17T12:08:27Z</time>
      </trkpt>
      <trkpt lat="42.9512" lon="0.84951">
        <ele>1313.5</ele>
        <time>2019-08-17T12:08:28Z</time>
      </trkpt>
      <trkpt lat="42.9512" lon="0.84952">
        <ele>1313.4</ele>
        <time>2019-08-17T12:08:29Z</time>
      </trkpt>
      <trkpt lat="42.9512" lon="0.84953">
        <ele>1313.3</ele>
        <time>2019-08-17T12:08:30Z</time>
      </trkpt>
      <trkpt lat="42.9512" lon="0.84954">
        <ele>1313.2</ele>
        <time>2019-08-17T12:08:31Z</time>
      </trkpt>
      <trkpt lat="42.9512" lon="0.84955">
        <ele>1313.1</ele>
        <time>2019-08-17T12:08:32Z</time>
      </trkpt>
      <trkpt lat="42.9512" lon="0.84956">
        <ele>1313</ele>
        <time>2019-08-17T12:08:33Z</time>
      </trkpt>
      <trkpt lat="42.9512" lon="0.84957">
        <ele>1312.8</ele>
        <time>2019-08-17T12:08:34Z</time>
      </trkpt>
      <trkpt lat="42.9512" lon="0.84958">
        <ele>1312.6</ele>
        <time>2019-08-17T12:08:35Z</time>
      </trkpt>
      <trkpt lat="42.9512" lon="0.84959">
        <ele>1312.5</ele>
        <time>2019-08-17T12:08:36Z</time>
      </trkpt>
      <trkpt lat="42.9512" lon="0.84959">
        <ele>1312.3</ele>
        <time>2019-08-17T12:08:37Z</time>
      </trkpt>
      <trkpt lat="42.9512" lon="0.84959">
        <ele>1312.2</ele>
        <time>2019-08-17T12:08:38Z</time>
      </trkpt>
      <trkpt lat="42.9512" lon="0.8496">
        <ele>1312.2</ele>
        <time>2019-08-17T12:08:39Z</time>
      </trkpt>
      <trkpt lat="42.9512" lon="0.8496">
        <ele>1312.1</ele>
        <time>2019-08-17T12:08:40Z</time>
      </trkpt>
      <trkpt lat="42.9512" lon="0.8496">
        <ele>1312.1</ele>
        <time>2019-08-17T12:08:41Z</time>
      </trkpt>
      <trkpt lat="42.9512" lon="0.8496">
        <ele>1312.1</ele>
        <time>2019-08-17T12:08:42Z</time>
      </trkpt>
      <trkpt lat="42.9512" lon="0.8496">
        <ele>1312.1</ele>
        <time>2019-08-17T12:08:43Z</time>
      </trkpt>
      <trkpt lat="42.9512" lon="0.84961">
        <ele>1311.9</ele>
        <time>2019-08-17T12:08:44Z</time>
      </trkpt>
      <trkpt lat="42.9512" lon="0.84962">
        <ele>1311.5</ele>
        <time>2019-08-17T12:08:45Z</time>
      </trkpt>
      <trkpt lat="42.95119" lon="0.84963">
        <ele>1311.2</ele>
        <time>2019-08-17T12:08:46Z</time>
      </trkpt>
      <trkpt lat="42.95118" lon="0.84964">
        <ele>1310.8</ele>
        <time>2019-08-17T12:08:47Z</time>
      </trkpt>
      <trkpt lat="42.95117" lon="0.84965">
        <ele>1310.5</ele>
        <time>2019-08-17T12:08:48Z</time>
      </trkpt>
      <trkpt lat="42.95117" lon="0.84966">
        <ele>1310.2</ele>
        <time>2019-08-17T12:08:49Z</time>
      </trkpt>
      <trkpt lat="42.95116" lon="0.84967">
        <ele>1309.8</ele>
        <time>2019-08-17T12:08:50Z</time>
      </trkpt>
      <trkpt lat="42.95115" lon="0.84968">
        <ele>1309.7</ele>
        <time>2019-08-17T12:08:51Z</time>
      </trkpt>
      <trkpt lat="42.95115" lon="0.84969">
        <ele>1309.7</ele>
        <time>2019-08-17T12:08:52Z</time>
      </trkpt>
      <trkpt lat="42.95115" lon="0.84971">
        <ele>1309.7</ele>
        <time>2019-08-17T12:08:53Z</time>
      </trkpt>
      <trkpt lat="42.95115" lon="0.84972">
        <ele>1309.8</ele>
        <time>2019-08-17T12:08:54Z</time>
      </trkpt>
      <trkpt lat="42.95115" lon="0.84973">
        <ele>1309.8</ele>
        <time>2019-08-17T12:08:55Z</time>
      </trkpt>
      <trkpt lat="42.95115" lon="0.84973">
        <ele>1309.8</ele>
        <time>2019-08-17T12:08:56Z</time>
      </trkpt>
      <trkpt lat="42.95114" lon="0.84975">
        <ele>1309.8</ele>
        <time>2019-08-17T12:08:57Z</time>
      </trkpt>
      <trkpt lat="42.95114" lon="0.84975">
        <ele>1309.8</ele>
        <time>2019-08-17T12:08:58Z</time>
      </trkpt>
      <trkpt lat="42.95114" lon="0.84976">
        <ele>1309.8</ele>
        <time>2019-08-17T12:08:59Z</time>
      </trkpt>
      <trkpt lat="42.95114" lon="0.84977">
        <ele>1309.9</ele>
        <time>2019-08-17T12:09:00Z</time>
      </trkpt>
      <trkpt lat="42.95113" lon="0.84977">
        <ele>1309.9</ele>
        <time>2019-08-17T12:09:01Z</time>
      </trkpt>
      <trkpt lat="42.95113" lon="0.84978">
        <ele>1309.9</ele>
        <time>2019-08-17T12:09:02Z</time>
      </trkpt>
      <trkpt lat="42.95113" lon="0.84979">
        <ele>1309.9</ele>
        <time>2019-08-17T12:09:03Z</time>
      </trkpt>
      <trkpt lat="42.95113" lon="0.84979">
        <ele>1309.8</ele>
        <time>2019-08-17T12:09:04Z</time>
      </trkpt>
      <trkpt lat="42.95112" lon="0.8498">
        <ele>1309.7</ele>
        <time>2019-08-17T12:09:05Z</time>
      </trkpt>
      <trkpt lat="42.95112" lon="0.84981">
        <ele>1309.6</ele>
        <time>2019-08-17T12:09:06Z</time>
      </trkpt>
      <trkpt lat="42.95112" lon="0.84981">
        <ele>1309.5</ele>
        <time>2019-08-17T12:09:07Z</time>
      </trkpt>
      <trkpt lat="42.95112" lon="0.84982">
        <ele>1309.5</ele>
        <time>2019-08-17T12:09:08Z</time>
      </trkpt>
      <trkpt lat="42.95111" lon="0.84983">
        <ele>1309.4</ele>
        <time>2019-08-17T12:09:09Z</time>
      </trkpt>
      <trkpt lat="42.95111" lon="0.84983">
        <ele>1309.3</ele>
        <time>2019-08-17T12:09:10Z</time>
      </trkpt>
      <trkpt lat="42.95111" lon="0.84984">
        <ele>1309.2</ele>
        <time>2019-08-17T12:09:11Z</time>
      </trkpt>
      <trkpt lat="42.95111" lon="0.84985">
        <ele>1309.1</ele>
        <time>2019-08-17T12:09:12Z</time>
      </trkpt>
      <trkpt lat="42.95111" lon="0.84985">
        <ele>1309</ele>
        <time>2019-08-17T12:09:13Z</time>
      </trkpt>
      <trkpt lat="42.9511" lon="0.84986">
        <ele>1308.9</ele>
        <time>2019-08-17T12:09:14Z</time>
      </trkpt>
      <trkpt lat="42.9511" lon="0.84987">
        <ele>1308.8</ele>
        <time>2019-08-17T12:09:15Z</time>
      </trkpt>
      <trkpt lat="42.9511" lon="0.84987">
        <ele>1308.7</ele>
        <time>2019-08-17T12:09:16Z</time>
      </trkpt>
      <trkpt lat="42.9511" lon="0.84988">
        <ele>1308.6</ele>
        <time>2019-08-17T12:09:17Z</time>
      </trkpt>
      <trkpt lat="42.95109" lon="0.84989">
        <ele>1308.5</ele>
        <time>2019-08-17T12:09:18Z</time>
      </trkpt>
      <trkpt lat="42.95109" lon="0.84989">
        <ele>1308.4</ele>
        <time>2019-08-17T12:09:19Z</time>
      </trkpt>
      <trkpt lat="42.95109" lon="0.8499">
        <ele>1308.3</ele>
        <time>2019-08-17T12:09:20Z</time>
      </trkpt>
      <trkpt lat="42.95109" lon="0.84991">
        <ele>1308.2</ele>
        <time>2019-08-17T12:09:21Z</time>
      </trkpt>
      <trkpt lat="42.95109" lon="0.84991">
        <ele>1308.1</ele>
        <time>2019-08-17T12:09:22Z</time>
      </trkpt>
      <trkpt lat="42.95108" lon="0.84992">
        <ele>1308</ele>
        <time>2019-08-17T12:09:23Z</time>
      </trkpt>
      <trkpt lat="42.95108" lon="0.84993">
        <ele>1307.9</ele>
        <time>2019-08-17T12:09:24Z</time>
      </trkpt>
      <trkpt lat="42.95108" lon="0.84993">
        <ele>1307.8</ele>
        <time>2019-08-17T12:09:25Z</time>
      </trkpt>
      <trkpt lat="42.95108" lon="0.84994">
        <ele>1307.6</ele>
        <time>2019-08-17T12:09:26Z</time>
      </trkpt>
      <trkpt lat="42.95107" lon="0.84996">
        <ele>1307.5</ele>
        <time>2019-08-17T12:09:27Z</time>
      </trkpt>
      <trkpt lat="42.95107" lon="0.84997">
        <ele>1307.3</ele>
        <time>2019-08-17T12:09:28Z</time>
      </trkpt>
      <trkpt lat="42.95106" lon="0.84998">
        <ele>1307.1</ele>
        <time>2019-08-17T12:09:29Z</time>
      </trkpt>
      <trkpt lat="42.95106" lon="0.84999">
        <ele>1307</ele>
        <time>2019-08-17T12:09:30Z</time>
      </trkpt>
      <trkpt lat="42.95106" lon="0.85">
        <ele>1306.8</ele>
        <time>2019-08-17T12:09:31Z</time>
      </trkpt>
      <trkpt lat="42.95105" lon="0.85001">
        <ele>1306.6</ele>
        <time>2019-08-17T12:09:32Z</time>
      </trkpt>
      <trkpt lat="42.95105" lon="0.85002">
        <ele>1306.5</ele>
        <time>2019-08-17T12:09:33Z</time>
      </trkpt>
      <trkpt lat="42.95105" lon="0.85003">
        <ele>1306.4</ele>
        <time>2019-08-17T12:09:34Z</time>
      </trkpt>
      <trkpt lat="42.95105" lon="0.85004">
        <ele>1306.3</ele>
        <time>2019-08-17T12:09:35Z</time>
      </trkpt>
      <trkpt lat="42.95105" lon="0.85005">
        <ele>1306.2</ele>
        <time>2019-08-17T12:09:36Z</time>
      </trkpt>
      <trkpt lat="42.95105" lon="0.85005">
        <ele>1306.1</ele>
        <time>2019-08-17T12:09:37Z</time>
      </trkpt>
      <trkpt lat="42.95105" lon="0.85006">
        <ele>1306.1</ele>
        <time>2019-08-17T12:09:38Z</time>
      </trkpt>
      <trkpt lat="42.95105" lon="0.85006">
        <ele>1306</ele>
        <time>2019-08-17T12:09:39Z</time>
      </trkpt>
      <trkpt lat="42.95105" lon="0.85007">
        <ele>1305.9</ele>
        <time>2019-08-17T12:09:40Z</time>
      </trkpt>
      <trkpt lat="42.95104" lon="0.85008">
        <ele>1305.8</ele>
        <time>2019-08-17T12:09:41Z</time>
      </trkpt>
      <trkpt lat="42.95104" lon="0.8501">
        <ele>1305.5</ele>
        <time>2019-08-17T12:09:42Z</time>
      </trkpt>
      <trkpt lat="42.95104" lon="0.85012">
        <ele>1305.3</ele>
        <time>2019-08-17T12:09:43Z</time>
      </trkpt>
      <trkpt lat="42.95104" lon="0.85013">
        <ele>1305.2</ele>
        <time>2019-08-17T12:09:44Z</time>
      </trkpt>
      <trkpt lat="42.95104" lon="0.85014">
        <ele>1305.2</ele>
        <time>2019-08-17T12:09:45Z</time>
      </trkpt>
      <trkpt lat="42.95104" lon="0.85015">
        <ele>1305.2</ele>
        <time>2019-08-17T12:09:46Z</time>
      </trkpt>
      <trkpt lat="42.95103" lon="0.85016">
        <ele>1305.3</ele>
        <time>2019-08-17T12:09:47Z</time>
      </trkpt>
      <trkpt lat="42.95103" lon="0.85017">
        <ele>1305.3</ele>
        <time>2019-08-17T12:09:48Z</time>
      </trkpt>
      <trkpt lat="42.95103" lon="0.85017">
        <ele>1305.3</ele>
        <time>2019-08-17T12:09:49Z</time>
      </trkpt>
      <trkpt lat="42.95103" lon="0.85017">
        <ele>1305.3</ele>
        <time>2019-08-17T12:09:50Z</time>
      </trkpt>
      <trkpt lat="42.95103" lon="0.85018">
        <ele>1305.3</ele>
        <time>2019-08-17T12:09:51Z</time>
      </trkpt>
      <trkpt lat="42.95103" lon="0.85018">
        <ele>1305.3</ele>
        <time>2019-08-17T12:09:52Z</time>
      </trkpt>
      <trkpt lat="42.95103" lon="0.85019">
        <ele>1305.3</ele>
        <time>2019-08-17T12:09:53Z</time>
      </trkpt>
      <trkpt lat="42.95103" lon="0.85021">
        <ele>1305.4</ele>
        <time>2019-08-17T12:09:54Z</time>
      </trkpt>
      <trkpt lat="42.95102" lon="0.85023">
        <ele>1305.4</ele>
        <time>2019-08-17T12:09:55Z</time>
      </trkpt>
      <trkpt lat="42.95102" lon="0.85024">
        <ele>1305.4</ele>
        <time>2019-08-17T12:09:56Z</time>
      </trkpt>
      <trkpt lat="42.95102" lon="0.85025">
        <ele>1305.4</ele>
        <time>2019-08-17T12:09:57Z</time>
      </trkpt>
      <trkpt lat="42.95102" lon="0.85025">
        <ele>1305.4</ele>
        <time>2019-08-17T12:09:58Z</time>
      </trkpt>
      <trkpt lat="42.95102" lon="0.85025">
        <ele>1305.4</ele>
        <time>2019-08-17T12:09:59Z</time>
      </trkpt>
      <trkpt lat="42.95102" lon="0.85025">
        <ele>1305.4</ele>
        <time>2019-08-17T12:10:00Z</time>
      </trkpt>
      <trkpt lat="42.95102" lon="0.85025">
        <ele>1305.4</ele>
        <time>2019-08-17T12:10:01Z</time>
      </trkpt>
      <trkpt lat="42.95102" lon="0.85025">
        <ele>1305.3</ele>
        <time>2019-08-17T12:10:02Z</time>
      </trkpt>
      <trkpt lat="42.95102" lon="0.85025">
        <ele>1305.3</ele>
        <time>2019-08-17T12:10:03Z</time>
      </trkpt>
      <trkpt lat="42.95102" lon="0.85025">
        <ele>1305.3</ele>
        <time>2019-08-17T12:10:04Z</time>
      </trkpt>
      <trkpt lat="42.95102" lon="0.85025">
        <ele>1305.3</ele>
        <time>2019-08-17T12:10:05Z</time>
      </trkpt>
      <trkpt lat="42.95102" lon="0.85025">
        <ele>1305.3</ele>
        <time>2019-08-17T12:10:06Z</time>
      </trkpt>
      <trkpt lat="42.95102" lon="0.85025">
        <ele>1305.3</ele>
        <time>2019-08-17T12:10:07Z</time>
      </trkpt>
      <trkpt lat="42.95102" lon="0.85025">
        <ele>1305.3</ele>
        <time>2019-08-17T12:10:08Z</time>
      </trkpt>
      <trkpt lat="42.95102" lon="0.85026">
        <ele>1305.3</ele>
        <time>2019-08-17T12:10:09Z</time>
      </trkpt>
      <trkpt lat="42.95102" lon="0.85026">
        <ele>1305.3</ele>
        <time>2019-08-17T12:10:10Z</time>
      </trkpt>
      <trkpt lat="42.95102" lon="0.85026">
        <ele>1305.3</ele>
        <time>2019-08-17T12:10:11Z</time>
      </trkpt>
      <trkpt lat="42.95102" lon="0.85026">
        <ele>1305.3</ele>
        <time>2019-08-17T12:10:12Z</time>
      </trkpt>
      <trkpt lat="42.95102" lon="0.85026">
        <ele>1305.3</ele>
        <time>2019-08-17T12:10:13Z</time>
      </trkpt>
      <trkpt lat="42.95102" lon="0.85026">
        <ele>1305.3</ele>
        <time>2019-08-17T12:10:14Z</time>
      </trkpt>
      <trkpt lat="42.95102" lon="0.85026">
        <ele>1305.3</ele>
        <time>2019-08-17T12:10:15Z</time>
      </trkpt>
      <trkpt lat="42.95102" lon="0.85026">
        <ele>1305.3</ele>
        <time>2019-08-17T12:10:16Z</time>
      </trkpt>
      <trkpt lat="42.95102" lon="0.85026">
        <ele>1305.3</ele>
        <time>2019-08-17T12:10:17Z</time>
      </trkpt>
      <trkpt lat="42.95102" lon="0.85026">
        <ele>1305.3</ele>
        <time>2019-08-17T12:10:18Z</time>
      </trkpt>
      <trkpt lat="42.95102" lon="0.85026">
        <ele>1305.3</ele>
        <time>2019-08-17T12:10:19Z</time>
      </trkpt>
      <trkpt lat="42.95102" lon="0.85026">
        <ele>1305.3</ele>
        <time>2019-08-17T12:10:20Z</time>
      </trkpt>
      <trkpt lat="42.95102" lon="0.85026">
        <ele>1305.3</ele>
        <time>2019-08-17T12:10:21Z</time>
      </trkpt>
      <trkpt lat="42.95102" lon="0.85026">
        <ele>1305.3</ele>
        <time>2019-08-17T12:10:22Z</time>
      </trkpt>
      <trkpt lat="42.95102" lon="0.85026">
        <ele>1305.3</ele>
        <time>2019-08-17T12:10:23Z</time>
      </trkpt>
      <trkpt lat="42.95102" lon="0.85026">
        <ele>1305.3</ele>
        <time>2019-08-17T12:10:24Z</time>
      </trkpt>
      <trkpt lat="42.95102" lon="0.85026">
        <ele>1305.3</ele>
        <time>2019-08-17T12:10:25Z</time>
      </trkpt>
      <trkpt lat="42.95102" lon="0.85026">
        <ele>1305.3</ele>
        <time>2019-08-17T12:10:26Z</time>
      </trkpt>
      <trkpt lat="42.95102" lon="0.85026">
        <ele>1305.3</ele>
        <time>2019-08-17T12:10:27Z</time>
      </trkpt>
      <trkpt lat="42.95102" lon="0.85026">
        <ele>1305.3</ele>
        <time>2019-08-17T12:10:28Z</time>
      </trkpt>
      <trkpt lat="42.95101" lon="0.85026">
        <ele>1305.3</ele>
        <time>2019-08-17T12:10:29Z</time>
      </trkpt>
      <trkpt lat="42.95101" lon="0.85026">
        <ele>1305.2</ele>
        <time>2019-08-17T12:10:30Z</time>
      </trkpt>
      <trkpt lat="42.95101" lon="0.85026">
        <ele>1305.2</ele>
        <time>2019-08-17T12:10:31Z</time>
      </trkpt>
      <trkpt lat="42.95101" lon="0.85026">
        <ele>1305.2</ele>
        <time>2019-08-17T12:10:32Z</time>
      </trkpt>
      <trkpt lat="42.95101" lon="0.85026">
        <ele>1305.2</ele>
        <time>2019-08-17T12:10:33Z</time>
      </trkpt>
      <trkpt lat="42.95101" lon="0.85026">
        <ele>1305.2</ele>
        <time>2019-08-17T12:10:34Z</time>
      </trkpt>
      <trkpt lat="42.95101" lon="0.85026">
        <ele>1305.2</ele>
        <time>2019-08-17T12:10:35Z</time>
      </trkpt>
      <trkpt lat="42.95101" lon="0.85026">
        <ele>1305.2</ele>
        <time>2019-08-17T12:10:36Z</time>
      </trkpt>
      <trkpt lat="42.95101" lon="0.85026">
        <ele>1305.2</ele>
        <time>2019-08-17T12:10:37Z</time>
      </trkpt>
      <trkpt lat="42.95101" lon="0.85026">
        <ele>1305.2</ele>
        <time>2019-08-17T12:10:38Z</time>
      </trkpt>
      <trkpt lat="42.95101" lon="0.85026">
        <ele>1305.2</ele>
        <time>2019-08-17T12:10:39Z</time>
      </trkpt>
      <trkpt lat="42.95101" lon="0.85026">
        <ele>1305.2</ele>
        <time>2019-08-17T12:10:40Z</time>
      </trkpt>
      <trkpt lat="42.95101" lon="0.85026">
        <ele>1305.2</ele>
        <time>2019-08-17T12:10:41Z</time>
      </trkpt>
      <trkpt lat="42.95101" lon="0.85026">
        <ele>1305.2</ele>
        <time>2019-08-17T12:10:42Z</time>
      </trkpt>
      <trkpt lat="42.95101" lon="0.85026">
        <ele>1305.2</ele>
        <time>2019-08-17T12:10:43Z</time>
      </trkpt>
      <trkpt lat="42.95101" lon="0.85026">
        <ele>1305.2</ele>
        <time>2019-08-17T12:10:44Z</time>
      </trkpt>
      <trkpt lat="42.95101" lon="0.85026">
        <ele>1305.2</ele>
        <time>2019-08-17T12:10:45Z</time>
      </trkpt>
      <trkpt lat="42.95101" lon="0.85026">
        <ele>1305.2</ele>
        <time>2019-08-17T12:10:46Z</time>
      </trkpt>
      <trkpt lat="42.95101" lon="0.85026">
        <ele>1305.2</ele>
        <time>2019-08-17T12:10:47Z</time>
      </trkpt>
      <trkpt lat="42.95101" lon="0.85026">
        <ele>1305.2</ele>
        <time>2019-08-17T12:10:48Z</time>
      </trkpt>
      <trkpt lat="42.95101" lon="0.85026">
        <ele>1305.2</ele>
        <time>2019-08-17T12:10:49Z</time>
      </trkpt>
      <trkpt lat="42.95101" lon="0.85026">
        <ele>1305.2</ele>
        <time>2019-08-17T12:10:50Z</time>
      </trkpt>
      <trkpt lat="42.95101" lon="0.85026">
        <ele>1305.2</ele>
        <time>2019-08-17T12:10:51Z</time>
      </trkpt>
      <trkpt lat="42.95101" lon="0.85026">
        <ele>1305.2</ele>
        <time>2019-08-17T12:10:52Z</time>
      </trkpt>
      <trkpt lat="42.95101" lon="0.85026">
        <ele>1305.2</ele>
        <time>2019-08-17T12:10:53Z</time>
      </trkpt>
      <trkpt lat="42.95101" lon="0.85026">
        <ele>1305.2</ele>
        <time>2019-08-17T12:10:54Z</time>
      </trkpt>
      <trkpt lat="42.95101" lon="0.85026">
        <ele>1305.2</ele>
        <time>2019-08-17T12:10:55Z</time>
      </trkpt>
      <trkpt lat="42.95101" lon="0.85026">
        <ele>1305.2</ele>
        <time>2019-08-17T12:10:56Z</time>
      </trkpt>
      <trkpt lat="42.95101" lon="0.85027">
        <ele>1305</ele>
        <time>2019-08-17T12:10:57Z</time>
      </trkpt>
      <trkpt lat="42.951" lon="0.85029">
        <ele>1304.7</ele>
        <time>2019-08-17T12:10:58Z</time>
      </trkpt>
      <trkpt lat="42.95099" lon="0.8503">
        <ele>1304.7</ele>
        <time>2019-08-17T12:10:59Z</time>
      </trkpt>
      <trkpt lat="42.95099" lon="0.8503">
        <ele>1304.7</ele>
        <time>2019-08-17T12:11:00Z</time>
      </trkpt>
      <trkpt lat="42.95099" lon="0.8503">
        <ele>1304.7</ele>
        <time>2019-08-17T12:11:01Z</time>
      </trkpt>
      <trkpt lat="42.95099" lon="0.8503">
        <ele>1304.7</ele>
        <time>2019-08-17T12:11:02Z</time>
      </trkpt>
      <trkpt lat="42.95099" lon="0.8503">
        <ele>1304.7</ele>
        <time>2019-08-17T12:11:03Z</time>
      </trkpt>
      <trkpt lat="42.95099" lon="0.8503">
        <ele>1304.7</ele>
        <time>2019-08-17T12:11:04Z</time>
      </trkpt>
      <trkpt lat="42.95099" lon="0.8503">
        <ele>1304.7</ele>
        <time>2019-08-17T12:11:05Z</time>
      </trkpt>
      <trkpt lat="42.95099" lon="0.8503">
        <ele>1304.7</ele>
        <time>2019-08-17T12:11:06Z</time>
      </trkpt>
      <trkpt lat="42.95099" lon="0.8503">
        <ele>1304.7</ele>
        <time>2019-08-17T12:11:07Z</time>
      </trkpt>
      <trkpt lat="42.95099" lon="0.8503">
        <ele>1304.7</ele>
        <time>2019-08-17T12:11:08Z</time>
      </trkpt>
      <trkpt lat="42.95099" lon="0.8503">
        <ele>1304.7</ele>
        <time>2019-08-17T12:11:09Z</time>
      </trkpt>
      <trkpt lat="42.95099" lon="0.8503">
        <ele>1304.6</ele>
        <time>2019-08-17T12:11:10Z</time>
      </trkpt>
      <trkpt lat="42.95099" lon="0.8503">
        <ele>1304.6</ele>
        <time>2019-08-17T12:11:11Z</time>
      </trkpt>
      <trkpt lat="42.95099" lon="0.8503">
        <ele>1304.6</ele>
        <time>2019-08-17T12:11:12Z</time>
      </trkpt>
      <trkpt lat="42.95099" lon="0.8503">
        <ele>1304.6</ele>
        <time>2019-08-17T12:11:13Z</time>
      </trkpt>
      <trkpt lat="42.95099" lon="0.8503">
        <ele>1304.6</ele>
        <time>2019-08-17T12:11:14Z</time>
      </trkpt>
      <trkpt lat="42.95099" lon="0.8503">
        <ele>1304.6</ele>
        <time>2019-08-17T12:11:15Z</time>
      </trkpt>
      <trkpt lat="42.95099" lon="0.8503">
        <ele>1304.6</ele>
        <time>2019-08-17T12:11:16Z</time>
      </trkpt>
      <trkpt lat="42.95099" lon="0.8503">
        <ele>1304.6</ele>
        <time>2019-08-17T12:11:17Z</time>
      </trkpt>
      <trkpt lat="42.95099" lon="0.8503">
        <ele>1304.6</ele>
        <time>2019-08-17T12:11:18Z</time>
      </trkpt>
      <trkpt lat="42.95099" lon="0.8503">
        <ele>1304.6</ele>
        <time>2019-08-17T12:11:19Z</time>
      </trkpt>
      <trkpt lat="42.95099" lon="0.8503">
        <ele>1304.6</ele>
        <time>2019-08-17T12:11:20Z</time>
      </trkpt>
      <trkpt lat="42.95099" lon="0.85031">
        <ele>1304.6</ele>
        <time>2019-08-17T12:11:21Z</time>
      </trkpt>
      <trkpt lat="42.95099" lon="0.85031">
        <ele>1304.6</ele>
        <time>2019-08-17T12:11:22Z</time>
      </trkpt>
      <trkpt lat="42.95099" lon="0.85031">
        <ele>1304.5</ele>
        <time>2019-08-17T12:11:23Z</time>
      </trkpt>
      <trkpt lat="42.95099" lon="0.85032">
        <ele>1304.5</ele>
        <time>2019-08-17T12:11:24Z</time>
      </trkpt>
      <trkpt lat="42.95099" lon="0.85032">
        <ele>1304.4</ele>
        <time>2019-08-17T12:11:25Z</time>
      </trkpt>
      <trkpt lat="42.951" lon="0.85033">
        <ele>1304.3</ele>
        <time>2019-08-17T12:11:26Z</time>
      </trkpt>
      <trkpt lat="42.95101" lon="0.85035">
        <ele>1304</ele>
        <time>2019-08-17T12:11:27Z</time>
      </trkpt>
      <trkpt lat="42.95101" lon="0.85036">
        <ele>1303.9</ele>
        <time>2019-08-17T12:11:28Z</time>
      </trkpt>
      <trkpt lat="42.95101" lon="0.85037">
        <ele>1303.8</ele>
        <time>2019-08-17T12:11:29Z</time>
      </trkpt>
      <trkpt lat="42.95101" lon="0.85038">
        <ele>1303.7</ele>
        <time>2019-08-17T12:11:30Z</time>
      </trkpt>
      <trkpt lat="42.951" lon="0.85039">
        <ele>1303.6</ele>
        <time>2019-08-17T12:11:31Z</time>
      </trkpt>
      <trkpt lat="42.951" lon="0.85041">
        <ele>1303.5</ele>
        <time>2019-08-17T12:11:32Z</time>
      </trkpt>
      <trkpt lat="42.951" lon="0.85043">
        <ele>1303.3</ele>
        <time>2019-08-17T12:11:33Z</time>
      </trkpt>
      <trkpt lat="42.951" lon="0.85044">
        <ele>1303.2</ele>
        <time>2019-08-17T12:11:34Z</time>
      </trkpt>
      <trkpt lat="42.951" lon="0.85045">
        <ele>1303.1</ele>
        <time>2019-08-17T12:11:35Z</time>
      </trkpt>
      <trkpt lat="42.951" lon="0.85046">
        <ele>1303</ele>
        <time>2019-08-17T12:11:36Z</time>
      </trkpt>
      <trkpt lat="42.951" lon="0.85047">
        <ele>1302.9</ele>
        <time>2019-08-17T12:11:37Z</time>
      </trkpt>
      <trkpt lat="42.951" lon="0.85048">
        <ele>1302.9</ele>
        <time>2019-08-17T12:11:38Z</time>
      </trkpt>
      <trkpt lat="42.95099" lon="0.85049">
        <ele>1303</ele>
        <time>2019-08-17T12:11:39Z</time>
      </trkpt>
      <trkpt lat="42.95099" lon="0.8505">
        <ele>1303</ele>
        <time>2019-08-17T12:11:40Z</time>
      </trkpt>
      <trkpt lat="42.95099" lon="0.85051">
        <ele>1303</ele>
        <time>2019-08-17T12:11:41Z</time>
      </trkpt>
      <trkpt lat="42.95099" lon="0.85052">
        <ele>1303</ele>
        <time>2019-08-17T12:11:42Z</time>
      </trkpt>
      <trkpt lat="42.95099" lon="0.85053">
        <ele>1303</ele>
        <time>2019-08-17T12:11:43Z</time>
      </trkpt>
      <trkpt lat="42.95099" lon="0.85055">
        <ele>1303.1</ele>
        <time>2019-08-17T12:11:44Z</time>
      </trkpt>
      <trkpt lat="42.95099" lon="0.85056">
        <ele>1303.1</ele>
        <time>2019-08-17T12:11:45Z</time>
      </trkpt>
      <trkpt lat="42.95099" lon="0.85057">
        <ele>1303.1</ele>
        <time>2019-08-17T12:11:46Z</time>
      </trkpt>
      <trkpt lat="42.95099" lon="0.85058">
        <ele>1303.1</ele>
        <time>2019-08-17T12:11:47Z</time>
      </trkpt>
      <trkpt lat="42.95099" lon="0.85059">
        <ele>1303.1</ele>
        <time>2019-08-17T12:11:48Z</time>
      </trkpt>
      <trkpt lat="42.95099" lon="0.8506">
        <ele>1303.1</ele>
        <time>2019-08-17T12:11:49Z</time>
      </trkpt>
      <trkpt lat="42.95099" lon="0.8506">
        <ele>1303</ele>
        <time>2019-08-17T12:11:50Z</time>
      </trkpt>
      <trkpt lat="42.95099" lon="0.85061">
        <ele>1302.9</ele>
        <time>2019-08-17T12:11:51Z</time>
      </trkpt>
      <trkpt lat="42.95099" lon="0.85062">
        <ele>1302.9</ele>
        <time>2019-08-17T12:11:52Z</time>
      </trkpt>
      <trkpt lat="42.95098" lon="0.85062">
        <ele>1302.8</ele>
        <time>2019-08-17T12:11:53Z</time>
      </trkpt>
      <trkpt lat="42.95098" lon="0.85063">
        <ele>1302.7</ele>
        <time>2019-08-17T12:11:54Z</time>
      </trkpt>
      <trkpt lat="42.95098" lon="0.85063">
        <ele>1302.7</ele>
        <time>2019-08-17T12:11:55Z</time>
      </trkpt>
      <trkpt lat="42.95098" lon="0.85063">
        <ele>1302.7</ele>
        <time>2019-08-17T12:11:56Z</time>
      </trkpt>
      <trkpt lat="42.95098" lon="0.85064">
        <ele>1302.6</ele>
        <time>2019-08-17T12:11:57Z</time>
      </trkpt>
      <trkpt lat="42.95098" lon="0.85066">
        <ele>1302.4</ele>
        <time>2019-08-17T12:11:58Z</time>
      </trkpt>
      <trkpt lat="42.95098" lon="0.85067">
        <ele>1302.2</ele>
        <time>2019-08-17T12:11:59Z</time>
      </trkpt>
      <trkpt lat="42.95098" lon="0.85068">
        <ele>1302.2</ele>
        <time>2019-08-17T12:12:00Z</time>
      </trkpt>
      <trkpt lat="42.95097" lon="0.85069">
        <ele>1302.1</ele>
        <time>2019-08-17T12:12:01Z</time>
      </trkpt>
      <trkpt lat="42.95097" lon="0.8507">
        <ele>1301.9</ele>
        <time>2019-08-17T12:12:02Z</time>
      </trkpt>
      <trkpt lat="42.95097" lon="0.85071">
        <ele>1301.8</ele>
        <time>2019-08-17T12:12:03Z</time>
      </trkpt>
      <trkpt lat="42.95096" lon="0.85072">
        <ele>1301.8</ele>
        <time>2019-08-17T12:12:04Z</time>
      </trkpt>
      <trkpt lat="42.95096" lon="0.85073">
        <ele>1301.8</ele>
        <time>2019-08-17T12:12:05Z</time>
      </trkpt>
      <trkpt lat="42.95096" lon="0.85075">
        <ele>1301.8</ele>
        <time>2019-08-17T12:12:06Z</time>
      </trkpt>
      <trkpt lat="42.95096" lon="0.85076">
        <ele>1301.8</ele>
        <time>2019-08-17T12:12:07Z</time>
      </trkpt>
      <trkpt lat="42.95096" lon="0.85077">
        <ele>1301.8</ele>
        <time>2019-08-17T12:12:08Z</time>
      </trkpt>
      <trkpt lat="42.95096" lon="0.85078">
        <ele>1301.8</ele>
        <time>2019-08-17T12:12:09Z</time>
      </trkpt>
      <trkpt lat="42.95096" lon="0.85078">
        <ele>1301.8</ele>
        <time>2019-08-17T12:12:10Z</time>
      </trkpt>
      <trkpt lat="42.95096" lon="0.85078">
        <ele>1301.8</ele>
        <time>2019-08-17T12:12:11Z</time>
      </trkpt>
      <trkpt lat="42.95096" lon="0.85078">
        <ele>1301.8</ele>
        <time>2019-08-17T12:12:12Z</time>
      </trkpt>
      <trkpt lat="42.95096" lon="0.85078">
        <ele>1301.8</ele>
        <time>2019-08-17T12:12:13Z</time>
      </trkpt>
      <trkpt lat="42.95096" lon="0.85078">
        <ele>1301.8</ele>
        <time>2019-08-17T12:12:14Z</time>
      </trkpt>
      <trkpt lat="42.95096" lon="0.85078">
        <ele>1301.8</ele>
        <time>2019-08-17T12:12:15Z</time>
      </trkpt>
      <trkpt lat="42.95096" lon="0.85078">
        <ele>1301.8</ele>
        <time>2019-08-17T12:12:16Z</time>
      </trkpt>
      <trkpt lat="42.95096" lon="0.85078">
        <ele>1301.8</ele>
        <time>2019-08-17T12:12:17Z</time>
      </trkpt>
      <trkpt lat="42.95096" lon="0.85078">
        <ele>1301.8</ele>
        <time>2019-08-17T12:12:18Z</time>
      </trkpt>
      <trkpt lat="42.95096" lon="0.85078">
        <ele>1301.8</ele>
        <time>2019-08-17T12:12:19Z</time>
      </trkpt>
      <trkpt lat="42.95096" lon="0.85078">
        <ele>1301.8</ele>
        <time>2019-08-17T12:12:20Z</time>
      </trkpt>
      <trkpt lat="42.95096" lon="0.85079">
        <ele>1301.8</ele>
        <time>2019-08-17T12:12:21Z</time>
      </trkpt>
      <trkpt lat="42.95096" lon="0.85079">
        <ele>1301.8</ele>
        <time>2019-08-17T12:12:22Z</time>
      </trkpt>
      <trkpt lat="42.95096" lon="0.8508">
        <ele>1301.8</ele>
        <time>2019-08-17T12:12:23Z</time>
      </trkpt>
      <trkpt lat="42.95096" lon="0.85081">
        <ele>1301.8</ele>
        <time>2019-08-17T12:12:24Z</time>
      </trkpt>
      <trkpt lat="42.95095" lon="0.85082">
        <ele>1301.8</ele>
        <time>2019-08-17T12:12:25Z</time>
      </trkpt>
      <trkpt lat="42.95095" lon="0.85083">
        <ele>1301.8</ele>
        <time>2019-08-17T12:12:26Z</time>
      </trkpt>
      <trkpt lat="42.95095" lon="0.85084">
        <ele>1301.7</ele>
        <time>2019-08-17T12:12:27Z</time>
      </trkpt>
      <trkpt lat="42.95095" lon="0.85085">
        <ele>1301.5</ele>
        <time>2019-08-17T12:12:28Z</time>
      </trkpt>
      <trkpt lat="42.95095" lon="0.85087">
        <ele>1301.3</ele>
        <time>2019-08-17T12:12:29Z</time>
      </trkpt>
      <trkpt lat="42.95095" lon="0.85088">
        <ele>1301.1</ele>
        <time>2019-08-17T12:12:30Z</time>
      </trkpt>
      <trkpt lat="42.95095" lon="0.85089">
        <ele>1300.9</ele>
        <time>2019-08-17T12:12:31Z</time>
      </trkpt>
      <trkpt lat="42.95095" lon="0.8509">
        <ele>1300.7</ele>
        <time>2019-08-17T12:12:32Z</time>
      </trkpt>
      <trkpt lat="42.95096" lon="0.85091">
        <ele>1300.6</ele>
        <time>2019-08-17T12:12:33Z</time>
      </trkpt>
      <trkpt lat="42.95096" lon="0.85092">
        <ele>1300.4</ele>
        <time>2019-08-17T12:12:34Z</time>
      </trkpt>
      <trkpt lat="42.95096" lon="0.85093">
        <ele>1300.3</ele>
        <time>2019-08-17T12:12:35Z</time>
      </trkpt>
      <trkpt lat="42.95095" lon="0.85094">
        <ele>1300.1</ele>
        <time>2019-08-17T12:12:36Z</time>
      </trkpt>
      <trkpt lat="42.95095" lon="0.85095">
        <ele>1299.9</ele>
        <time>2019-08-17T12:12:37Z</time>
      </trkpt>
      <trkpt lat="42.95095" lon="0.85097">
        <ele>1299.8</ele>
        <time>2019-08-17T12:12:38Z</time>
      </trkpt>
      <trkpt lat="42.95095" lon="0.85098">
        <ele>1299.6</ele>
        <time>2019-08-17T12:12:39Z</time>
      </trkpt>
      <trkpt lat="42.95095" lon="0.85099">
        <ele>1299.4</ele>
        <time>2019-08-17T12:12:40Z</time>
      </trkpt>
      <trkpt lat="42.95095" lon="0.851">
        <ele>1299.3</ele>
        <time>2019-08-17T12:12:41Z</time>
      </trkpt>
      <trkpt lat="42.95095" lon="0.85101">
        <ele>1299.1</ele>
        <time>2019-08-17T12:12:42Z</time>
      </trkpt>
      <trkpt lat="42.95095" lon="0.85103">
        <ele>1298.8</ele>
        <time>2019-08-17T12:12:43Z</time>
      </trkpt>
      <trkpt lat="42.95095" lon="0.85104">
        <ele>1298.5</ele>
        <time>2019-08-17T12:12:44Z</time>
      </trkpt>
      <trkpt lat="42.95094" lon="0.85106">
        <ele>1298.3</ele>
        <time>2019-08-17T12:12:45Z</time>
      </trkpt>
      <trkpt lat="42.95094" lon="0.85107">
        <ele>1298.1</ele>
        <time>2019-08-17T12:12:46Z</time>
      </trkpt>
      <trkpt lat="42.95094" lon="0.85107">
        <ele>1298</ele>
        <time>2019-08-17T12:12:47Z</time>
      </trkpt>
      <trkpt lat="42.95094" lon="0.85108">
        <ele>1298</ele>
        <time>2019-08-17T12:12:48Z</time>
      </trkpt>
      <trkpt lat="42.95094" lon="0.85108">
        <ele>1298</ele>
        <time>2019-08-17T12:12:49Z</time>
      </trkpt>
      <trkpt lat="42.95094" lon="0.85108">
        <ele>1298</ele>
        <time>2019-08-17T12:12:50Z</time>
      </trkpt>
      <trkpt lat="42.95094" lon="0.85108">
        <ele>1297.9</ele>
        <time>2019-08-17T12:12:51Z</time>
      </trkpt>
      <trkpt lat="42.95094" lon="0.85109">
        <ele>1297.9</ele>
        <time>2019-08-17T12:12:52Z</time>
      </trkpt>
      <trkpt lat="42.95094" lon="0.85109">
        <ele>1297.9</ele>
        <time>2019-08-17T12:12:53Z</time>
      </trkpt>
      <trkpt lat="42.95093" lon="0.85111">
        <ele>1297.8</ele>
        <time>2019-08-17T12:12:54Z</time>
      </trkpt>
      <trkpt lat="42.95092" lon="0.85112">
        <ele>1297.7</ele>
        <time>2019-08-17T12:12:55Z</time>
      </trkpt>
      <trkpt lat="42.95091" lon="0.85113">
        <ele>1297.7</ele>
        <time>2019-08-17T12:12:56Z</time>
      </trkpt>
      <trkpt lat="42.95091" lon="0.85114">
        <ele>1297.6</ele>
        <time>2019-08-17T12:12:57Z</time>
      </trkpt>
      <trkpt lat="42.9509" lon="0.85115">
        <ele>1297.5</ele>
        <time>2019-08-17T12:12:58Z</time>
      </trkpt>
      <trkpt lat="42.95089" lon="0.85116">
        <ele>1297.4</ele>
        <time>2019-08-17T12:12:59Z</time>
      </trkpt>
      <trkpt lat="42.95088" lon="0.85117">
        <ele>1297.3</ele>
        <time>2019-08-17T12:13:00Z</time>
      </trkpt>
      <trkpt lat="42.95087" lon="0.85118">
        <ele>1297.1</ele>
        <time>2019-08-17T12:13:01Z</time>
      </trkpt>
      <trkpt lat="42.95086" lon="0.85119">
        <ele>1296.8</ele>
        <time>2019-08-17T12:13:02Z</time>
      </trkpt>
      <trkpt lat="42.95085" lon="0.8512">
        <ele>1296.6</ele>
        <time>2019-08-17T12:13:03Z</time>
      </trkpt>
      <trkpt lat="42.95085" lon="0.8512">
        <ele>1296.4</ele>
        <time>2019-08-17T12:13:04Z</time>
      </trkpt>
      <trkpt lat="42.95084" lon="0.85121">
        <ele>1296.1</ele>
        <time>2019-08-17T12:13:05Z</time>
      </trkpt>
      <trkpt lat="42.95083" lon="0.85122">
        <ele>1295.9</ele>
        <time>2019-08-17T12:13:06Z</time>
      </trkpt>
      <trkpt lat="42.95083" lon="0.85123">
        <ele>1295.7</ele>
        <time>2019-08-17T12:13:07Z</time>
      </trkpt>
      <trkpt lat="42.95082" lon="0.85124">
        <ele>1295.5</ele>
        <time>2019-08-17T12:13:08Z</time>
      </trkpt>
      <trkpt lat="42.95082" lon="0.85125">
        <ele>1295.3</ele>
        <time>2019-08-17T12:13:09Z</time>
      </trkpt>
      <trkpt lat="42.95081" lon="0.85126">
        <ele>1295.1</ele>
        <time>2019-08-17T12:13:10Z</time>
      </trkpt>
      <trkpt lat="42.95081" lon="0.85127">
        <ele>1295</ele>
        <time>2019-08-17T12:13:11Z</time>
      </trkpt>
      <trkpt lat="42.9508" lon="0.85128">
        <ele>1294.9</ele>
        <time>2019-08-17T12:13:12Z</time>
      </trkpt>
      <trkpt lat="42.9508" lon="0.85129">
        <ele>1294.9</ele>
        <time>2019-08-17T12:13:13Z</time>
      </trkpt>
      <trkpt lat="42.95079" lon="0.85131">
        <ele>1294.8</ele>
        <time>2019-08-17T12:13:14Z</time>
      </trkpt>
      <trkpt lat="42.95079" lon="0.85132">
        <ele>1294.7</ele>
        <time>2019-08-17T12:13:15Z</time>
      </trkpt>
      <trkpt lat="42.95078" lon="0.85133">
        <ele>1294.6</ele>
        <time>2019-08-17T12:13:16Z</time>
      </trkpt>
      <trkpt lat="42.95078" lon="0.85135">
        <ele>1294.5</ele>
        <time>2019-08-17T12:13:17Z</time>
      </trkpt>
      <trkpt lat="42.95077" lon="0.85136">
        <ele>1294.4</ele>
        <time>2019-08-17T12:13:18Z</time>
      </trkpt>
      <trkpt lat="42.95077" lon="0.85137">
        <ele>1294.3</ele>
        <time>2019-08-17T12:13:19Z</time>
      </trkpt>
      <trkpt lat="42.95077" lon="0.85139">
        <ele>1294</ele>
        <time>2019-08-17T12:13:20Z</time>
      </trkpt>
      <trkpt lat="42.95076" lon="0.8514">
        <ele>1293.7</ele>
        <time>2019-08-17T12:13:21Z</time>
      </trkpt>
      <trkpt lat="42.95076" lon="0.85142">
        <ele>1293.4</ele>
        <time>2019-08-17T12:13:22Z</time>
      </trkpt>
      <trkpt lat="42.95075" lon="0.85143">
        <ele>1293.2</ele>
        <time>2019-08-17T12:13:23Z</time>
      </trkpt>
      <trkpt lat="42.95075" lon="0.85144">
        <ele>1292.9</ele>
        <time>2019-08-17T12:13:24Z</time>
      </trkpt>
      <trkpt lat="42.95075" lon="0.85146">
        <ele>1292.6</ele>
        <time>2019-08-17T12:13:25Z</time>
      </trkpt>
      <trkpt lat="42.95074" lon="0.85147">
        <ele>1292.4</ele>
        <time>2019-08-17T12:13:26Z</time>
      </trkpt>
      <trkpt lat="42.95074" lon="0.85148">
        <ele>1292.1</ele>
        <time>2019-08-17T12:13:27Z</time>
      </trkpt>
      <trkpt lat="42.95073" lon="0.8515">
        <ele>1291.9</ele>
        <time>2019-08-17T12:13:28Z</time>
      </trkpt>
      <trkpt lat="42.95073" lon="0.85151">
        <ele>1291.6</ele>
        <time>2019-08-17T12:13:29Z</time>
      </trkpt>
      <trkpt lat="42.95072" lon="0.85152">
        <ele>1291.4</ele>
        <time>2019-08-17T12:13:30Z</time>
      </trkpt>
      <trkpt lat="42.95072" lon="0.85154">
        <ele>1291.2</ele>
        <time>2019-08-17T12:13:31Z</time>
      </trkpt>
      <trkpt lat="42.95071" lon="0.85155">
        <ele>1290.9</ele>
        <time>2019-08-17T12:13:32Z</time>
      </trkpt>
      <trkpt lat="42.9507" lon="0.85157">
        <ele>1290.7</ele>
        <time>2019-08-17T12:13:33Z</time>
      </trkpt>
      <trkpt lat="42.9507" lon="0.85158">
        <ele>1290.4</ele>
        <time>2019-08-17T12:13:34Z</time>
      </trkpt>
      <trkpt lat="42.95069" lon="0.85159">
        <ele>1290.2</ele>
        <time>2019-08-17T12:13:35Z</time>
      </trkpt>
      <trkpt lat="42.95069" lon="0.85161">
        <ele>1289.9</ele>
        <time>2019-08-17T12:13:36Z</time>
      </trkpt>
      <trkpt lat="42.95068" lon="0.85162">
        <ele>1289.7</ele>
        <time>2019-08-17T12:13:37Z</time>
      </trkpt>
      <trkpt lat="42.95067" lon="0.85164">
        <ele>1289.5</ele>
        <time>2019-08-17T12:13:38Z</time>
      </trkpt>
      <trkpt lat="42.95067" lon="0.85165">
        <ele>1289.3</ele>
        <time>2019-08-17T12:13:39Z</time>
      </trkpt>
      <trkpt lat="42.95066" lon="0.85166">
        <ele>1289.1</ele>
        <time>2019-08-17T12:13:40Z</time>
      </trkpt>
      <trkpt lat="42.95066" lon="0.85167">
        <ele>1288.9</ele>
        <time>2019-08-17T12:13:41Z</time>
      </trkpt>
      <trkpt lat="42.95065" lon="0.85169">
        <ele>1288.7</ele>
        <time>2019-08-17T12:13:42Z</time>
      </trkpt>
      <trkpt lat="42.95065" lon="0.8517">
        <ele>1288.6</ele>
        <time>2019-08-17T12:13:43Z</time>
      </trkpt>
      <trkpt lat="42.95065" lon="0.85171">
        <ele>1288.4</ele>
        <time>2019-08-17T12:13:44Z</time>
      </trkpt>
      <trkpt lat="42.95065" lon="0.85172">
        <ele>1288.3</ele>
        <time>2019-08-17T12:13:45Z</time>
      </trkpt>
      <trkpt lat="42.95064" lon="0.85173">
        <ele>1288.2</ele>
        <time>2019-08-17T12:13:46Z</time>
      </trkpt>
      <trkpt lat="42.95064" lon="0.85174">
        <ele>1288</ele>
        <time>2019-08-17T12:13:47Z</time>
      </trkpt>
      <trkpt lat="42.95064" lon="0.85175">
        <ele>1287.9</ele>
        <time>2019-08-17T12:13:48Z</time>
      </trkpt>
      <trkpt lat="42.95064" lon="0.85176">
        <ele>1287.8</ele>
        <time>2019-08-17T12:13:49Z</time>
      </trkpt>
      <trkpt lat="42.95064" lon="0.85177">
        <ele>1287.7</ele>
        <time>2019-08-17T12:13:50Z</time>
      </trkpt>
      <trkpt lat="42.95063" lon="0.85178">
        <ele>1287.5</ele>
        <time>2019-08-17T12:13:51Z</time>
      </trkpt>
      <trkpt lat="42.95063" lon="0.85179">
        <ele>1287.4</ele>
        <time>2019-08-17T12:13:52Z</time>
      </trkpt>
      <trkpt lat="42.95062" lon="0.85181">
        <ele>1287.3</ele>
        <time>2019-08-17T12:13:53Z</time>
      </trkpt>
      <trkpt lat="42.95062" lon="0.85182">
        <ele>1287.1</ele>
        <time>2019-08-17T12:13:54Z</time>
      </trkpt>
      <trkpt lat="42.95062" lon="0.85183">
        <ele>1286.9</ele>
        <time>2019-08-17T12:13:55Z</time>
      </trkpt>
      <trkpt lat="42.95061" lon="0.85184">
        <ele>1286.6</ele>
        <time>2019-08-17T12:13:56Z</time>
      </trkpt>
      <trkpt lat="42.9506" lon="0.85185">
        <ele>1286.4</ele>
        <time>2019-08-17T12:13:57Z</time>
      </trkpt>
      <trkpt lat="42.9506" lon="0.85186">
        <ele>1286.1</ele>
        <time>2019-08-17T12:13:58Z</time>
      </trkpt>
      <trkpt lat="42.95059" lon="0.85187">
        <ele>1285.9</ele>
        <time>2019-08-17T12:13:59Z</time>
      </trkpt>
      <trkpt lat="42.95058" lon="0.85188">
        <ele>1285.6</ele>
        <time>2019-08-17T12:14:00Z</time>
      </trkpt>
      <trkpt lat="42.95058" lon="0.85189">
        <ele>1285.3</ele>
        <time>2019-08-17T12:14:01Z</time>
      </trkpt>
      <trkpt lat="42.95057" lon="0.8519">
        <ele>1285.1</ele>
        <time>2019-08-17T12:14:02Z</time>
      </trkpt>
      <trkpt lat="42.95056" lon="0.85191">
        <ele>1284.8</ele>
        <time>2019-08-17T12:14:03Z</time>
      </trkpt>
      <trkpt lat="42.95056" lon="0.85192">
        <ele>1284.6</ele>
        <time>2019-08-17T12:14:04Z</time>
      </trkpt>
      <trkpt lat="42.95055" lon="0.85193">
        <ele>1284.6</ele>
        <time>2019-08-17T12:14:05Z</time>
      </trkpt>
      <trkpt lat="42.95054" lon="0.85193">
        <ele>1284.5</ele>
        <time>2019-08-17T12:14:06Z</time>
      </trkpt>
      <trkpt lat="42.95053" lon="0.85194">
        <ele>1284.4</ele>
        <time>2019-08-17T12:14:07Z</time>
      </trkpt>
      <trkpt lat="42.95053" lon="0.85195">
        <ele>1284.3</ele>
        <time>2019-08-17T12:14:08Z</time>
      </trkpt>
      <trkpt lat="42.95052" lon="0.85196">
        <ele>1284.2</ele>
        <time>2019-08-17T12:14:09Z</time>
      </trkpt>
      <trkpt lat="42.95051" lon="0.85197">
        <ele>1284.1</ele>
        <time>2019-08-17T12:14:10Z</time>
      </trkpt>
      <trkpt lat="42.9505" lon="0.85197">
        <ele>1284</ele>
        <time>2019-08-17T12:14:11Z</time>
      </trkpt>
      <trkpt lat="42.9505" lon="0.85198">
        <ele>1283.9</ele>
        <time>2019-08-17T12:14:12Z</time>
      </trkpt>
      <trkpt lat="42.95049" lon="0.85199">
        <ele>1283.8</ele>
        <time>2019-08-17T12:14:13Z</time>
      </trkpt>
      <trkpt lat="42.95048" lon="0.852">
        <ele>1283.8</ele>
        <time>2019-08-17T12:14:14Z</time>
      </trkpt>
      <trkpt lat="42.95047" lon="0.85201">
        <ele>1283.7</ele>
        <time>2019-08-17T12:14:15Z</time>
      </trkpt>
      <trkpt lat="42.95046" lon="0.85201">
        <ele>1283.6</ele>
        <time>2019-08-17T12:14:16Z</time>
      </trkpt>
      <trkpt lat="42.95045" lon="0.85202">
        <ele>1283.5</ele>
        <time>2019-08-17T12:14:17Z</time>
      </trkpt>
      <trkpt lat="42.95044" lon="0.85203">
        <ele>1283.4</ele>
        <time>2019-08-17T12:14:18Z</time>
      </trkpt>
      <trkpt lat="42.95043" lon="0.85204">
        <ele>1283.3</ele>
        <time>2019-08-17T12:14:19Z</time>
      </trkpt>
      <trkpt lat="42.95042" lon="0.85204">
        <ele>1283.2</ele>
        <time>2019-08-17T12:14:20Z</time>
      </trkpt>
      <trkpt lat="42.95041" lon="0.85205">
        <ele>1283.1</ele>
        <time>2019-08-17T12:14:21Z</time>
      </trkpt>
      <trkpt lat="42.9504" lon="0.85206">
        <ele>1282.9</ele>
        <time>2019-08-17T12:14:22Z</time>
      </trkpt>
      <trkpt lat="42.95039" lon="0.85206">
        <ele>1282.6</ele>
        <time>2019-08-17T12:14:23Z</time>
      </trkpt>
      <trkpt lat="42.95039" lon="0.85207">
        <ele>1282.3</ele>
        <time>2019-08-17T12:14:24Z</time>
      </trkpt>
      <trkpt lat="42.95038" lon="0.85208">
        <ele>1282.1</ele>
        <time>2019-08-17T12:14:25Z</time>
      </trkpt>
      <trkpt lat="42.95037" lon="0.85209">
        <ele>1281.8</ele>
        <time>2019-08-17T12:14:26Z</time>
      </trkpt>
      <trkpt lat="42.95036" lon="0.8521">
        <ele>1281.6</ele>
        <time>2019-08-17T12:14:27Z</time>
      </trkpt>
      <trkpt lat="42.95035" lon="0.8521">
        <ele>1281.3</ele>
        <time>2019-08-17T12:14:28Z</time>
      </trkpt>
      <trkpt lat="42.95035" lon="0.85211">
        <ele>1281.1</ele>
        <time>2019-08-17T12:14:29Z</time>
      </trkpt>
      <trkpt lat="42.95034" lon="0.85211">
        <ele>1280.9</ele>
        <time>2019-08-17T12:14:30Z</time>
      </trkpt>
      <trkpt lat="42.95033" lon="0.85212">
        <ele>1280.8</ele>
        <time>2019-08-17T12:14:31Z</time>
      </trkpt>
      <trkpt lat="42.95032" lon="0.85212">
        <ele>1280.7</ele>
        <time>2019-08-17T12:14:32Z</time>
      </trkpt>
      <trkpt lat="42.95031" lon="0.85212">
        <ele>1280.6</ele>
        <time>2019-08-17T12:14:33Z</time>
      </trkpt>
      <trkpt lat="42.95031" lon="0.85212">
        <ele>1280.5</ele>
        <time>2019-08-17T12:14:34Z</time>
      </trkpt>
      <trkpt lat="42.9503" lon="0.85211">
        <ele>1280.5</ele>
        <time>2019-08-17T12:14:35Z</time>
      </trkpt>
      <trkpt lat="42.9503" lon="0.8521">
        <ele>1280.4</ele>
        <time>2019-08-17T12:14:36Z</time>
      </trkpt>
      <trkpt lat="42.9503" lon="0.85208">
        <ele>1280.3</ele>
        <time>2019-08-17T12:14:37Z</time>
      </trkpt>
      <trkpt lat="42.9503" lon="0.85207">
        <ele>1280.1</ele>
        <time>2019-08-17T12:14:38Z</time>
      </trkpt>
      <trkpt lat="42.9503" lon="0.85205">
        <ele>1280</ele>
        <time>2019-08-17T12:14:39Z</time>
      </trkpt>
      <trkpt lat="42.9503" lon="0.85204">
        <ele>1280</ele>
        <time>2019-08-17T12:14:40Z</time>
      </trkpt>
      <trkpt lat="42.9503" lon="0.85203">
        <ele>1279.8</ele>
        <time>2019-08-17T12:14:41Z</time>
      </trkpt>
      <trkpt lat="42.9503" lon="0.85202">
        <ele>1279.6</ele>
        <time>2019-08-17T12:14:42Z</time>
      </trkpt>
      <trkpt lat="42.9503" lon="0.85201">
        <ele>1279.4</ele>
        <time>2019-08-17T12:14:43Z</time>
      </trkpt>
      <trkpt lat="42.9503" lon="0.852">
        <ele>1279.2</ele>
        <time>2019-08-17T12:14:44Z</time>
      </trkpt>
      <trkpt lat="42.9503" lon="0.85199">
        <ele>1278.9</ele>
        <time>2019-08-17T12:14:45Z</time>
      </trkpt>
      <trkpt lat="42.9503" lon="0.85197">
        <ele>1278.6</ele>
        <time>2019-08-17T12:14:46Z</time>
      </trkpt>
      <trkpt lat="42.9503" lon="0.85196">
        <ele>1278.4</ele>
        <time>2019-08-17T12:14:47Z</time>
      </trkpt>
      <trkpt lat="42.9503" lon="0.85195">
        <ele>1278.1</ele>
        <time>2019-08-17T12:14:48Z</time>
      </trkpt>
      <trkpt lat="42.9503" lon="0.85193">
        <ele>1277.9</ele>
        <time>2019-08-17T12:14:49Z</time>
      </trkpt>
      <trkpt lat="42.9503" lon="0.85192">
        <ele>1277.7</ele>
        <time>2019-08-17T12:14:50Z</time>
      </trkpt>
      <trkpt lat="42.9503" lon="0.85191">
        <ele>1277.6</ele>
        <time>2019-08-17T12:14:51Z</time>
      </trkpt>
      <trkpt lat="42.9503" lon="0.85191">
        <ele>1277.5</ele>
        <time>2019-08-17T12:14:52Z</time>
      </trkpt>
      <trkpt lat="42.9503" lon="0.8519">
        <ele>1277.5</ele>
        <time>2019-08-17T12:14:53Z</time>
      </trkpt>
      <trkpt lat="42.9503" lon="0.8519">
        <ele>1277.5</ele>
        <time>2019-08-17T12:14:54Z</time>
      </trkpt>
      <trkpt lat="42.9503" lon="0.85189">
        <ele>1277.5</ele>
        <time>2019-08-17T12:14:55Z</time>
      </trkpt>
      <trkpt lat="42.9503" lon="0.85187">
        <ele>1277.5</ele>
        <time>2019-08-17T12:14:56Z</time>
      </trkpt>
      <trkpt lat="42.95029" lon="0.85186">
        <ele>1277.4</ele>
        <time>2019-08-17T12:14:57Z</time>
      </trkpt>
      <trkpt lat="42.95029" lon="0.85185">
        <ele>1277.4</ele>
        <time>2019-08-17T12:14:58Z</time>
      </trkpt>
      <trkpt lat="42.95029" lon="0.85184">
        <ele>1277.4</ele>
        <time>2019-08-17T12:14:59Z</time>
      </trkpt>
      <trkpt lat="42.95029" lon="0.85183">
        <ele>1277.3</ele>
        <time>2019-08-17T12:15:00Z</time>
      </trkpt>
      <trkpt lat="42.95029" lon="0.85182">
        <ele>1277.3</ele>
        <time>2019-08-17T12:15:01Z</time>
      </trkpt>
      <trkpt lat="42.95029" lon="0.85181">
        <ele>1277.3</ele>
        <time>2019-08-17T12:15:02Z</time>
      </trkpt>
      <trkpt lat="42.95028" lon="0.8518">
        <ele>1277.3</ele>
        <time>2019-08-17T12:15:03Z</time>
      </trkpt>
      <trkpt lat="42.95028" lon="0.8518">
        <ele>1277.3</ele>
        <time>2019-08-17T12:15:04Z</time>
      </trkpt>
      <trkpt lat="42.95028" lon="0.85179">
        <ele>1277.2</ele>
        <time>2019-08-17T12:15:05Z</time>
      </trkpt>
      <trkpt lat="42.95028" lon="0.85179">
        <ele>1277.2</ele>
        <time>2019-08-17T12:15:06Z</time>
      </trkpt>
      <trkpt lat="42.95028" lon="0.85179">
        <ele>1277.2</ele>
        <time>2019-08-17T12:15:07Z</time>
      </trkpt>
      <trkpt lat="42.95028" lon="0.85178">
        <ele>1277.1</ele>
        <time>2019-08-17T12:15:08Z</time>
      </trkpt>
      <trkpt lat="42.95027" lon="0.85178">
        <ele>1277.1</ele>
        <time>2019-08-17T12:15:09Z</time>
      </trkpt>
      <trkpt lat="42.95027" lon="0.85178">
        <ele>1277.1</ele>
        <time>2019-08-17T12:15:10Z</time>
      </trkpt>
      <trkpt lat="42.95027" lon="0.85177">
        <ele>1277</ele>
        <time>2019-08-17T12:15:11Z</time>
      </trkpt>
      <trkpt lat="42.95027" lon="0.85177">
        <ele>1277</ele>
        <time>2019-08-17T12:15:12Z</time>
      </trkpt>
      <trkpt lat="42.95027" lon="0.85176">
        <ele>1277</ele>
        <time>2019-08-17T12:15:13Z</time>
      </trkpt>
      <trkpt lat="42.95027" lon="0.85176">
        <ele>1276.9</ele>
        <time>2019-08-17T12:15:14Z</time>
      </trkpt>
      <trkpt lat="42.95027" lon="0.85175">
        <ele>1276.8</ele>
        <time>2019-08-17T12:15:15Z</time>
      </trkpt>
      <trkpt lat="42.95027" lon="0.85173">
        <ele>1276.7</ele>
        <time>2019-08-17T12:15:16Z</time>
      </trkpt>
      <trkpt lat="42.95028" lon="0.85171">
        <ele>1276.5</ele>
        <time>2019-08-17T12:15:17Z</time>
      </trkpt>
      <trkpt lat="42.95028" lon="0.8517">
        <ele>1276.4</ele>
        <time>2019-08-17T12:15:18Z</time>
      </trkpt>
      <trkpt lat="42.95027" lon="0.85169">
        <ele>1276.4</ele>
        <time>2019-08-17T12:15:19Z</time>
      </trkpt>
      <trkpt lat="42.95027" lon="0.85169">
        <ele>1276.4</ele>
        <time>2019-08-17T12:15:20Z</time>
      </trkpt>
      <trkpt lat="42.95028" lon="0.85168">
        <ele>1276.3</ele>
        <time>2019-08-17T12:15:21Z</time>
      </trkpt>
      <trkpt lat="42.95028" lon="0.85167">
        <ele>1276.2</ele>
        <time>2019-08-17T12:15:22Z</time>
      </trkpt>
      <trkpt lat="42.95028" lon="0.85165">
        <ele>1275.8</ele>
        <time>2019-08-17T12:15:23Z</time>
      </trkpt>
      <trkpt lat="42.95029" lon="0.85163">
        <ele>1275.4</ele>
        <time>2019-08-17T12:15:24Z</time>
      </trkpt>
      <trkpt lat="42.95028" lon="0.85162">
        <ele>1275.2</ele>
        <time>2019-08-17T12:15:25Z</time>
      </trkpt>
      <trkpt lat="42.95028" lon="0.85161">
        <ele>1274.9</ele>
        <time>2019-08-17T12:15:26Z</time>
      </trkpt>
      <trkpt lat="42.95028" lon="0.8516">
        <ele>1274.8</ele>
        <time>2019-08-17T12:15:27Z</time>
      </trkpt>
      <trkpt lat="42.95028" lon="0.85159">
        <ele>1274.6</ele>
        <time>2019-08-17T12:15:28Z</time>
      </trkpt>
      <trkpt lat="42.95028" lon="0.85158">
        <ele>1274.5</ele>
        <time>2019-08-17T12:15:29Z</time>
      </trkpt>
      <trkpt lat="42.95028" lon="0.85157">
        <ele>1274.3</ele>
        <time>2019-08-17T12:15:30Z</time>
      </trkpt>
      <trkpt lat="42.95028" lon="0.85156">
        <ele>1274</ele>
        <time>2019-08-17T12:15:31Z</time>
      </trkpt>
      <trkpt lat="42.95028" lon="0.85155">
        <ele>1273.8</ele>
        <time>2019-08-17T12:15:32Z</time>
      </trkpt>
      <trkpt lat="42.95028" lon="0.85153">
        <ele>1273.8</ele>
        <time>2019-08-17T12:15:33Z</time>
      </trkpt>
      <trkpt lat="42.95028" lon="0.85152">
        <ele>1273.7</ele>
        <time>2019-08-17T12:15:34Z</time>
      </trkpt>
      <trkpt lat="42.95028" lon="0.85151">
        <ele>1273.6</ele>
        <time>2019-08-17T12:15:35Z</time>
      </trkpt>
      <trkpt lat="42.95028" lon="0.8515">
        <ele>1273.6</ele>
        <time>2019-08-17T12:15:36Z</time>
      </trkpt>
      <trkpt lat="42.95029" lon="0.85149">
        <ele>1273.5</ele>
        <time>2019-08-17T12:15:37Z</time>
      </trkpt>
      <trkpt lat="42.95029" lon="0.85148">
        <ele>1273.5</ele>
        <time>2019-08-17T12:15:38Z</time>
      </trkpt>
      <trkpt lat="42.95029" lon="0.85147">
        <ele>1273.4</ele>
        <time>2019-08-17T12:15:39Z</time>
      </trkpt>
      <trkpt lat="42.95029" lon="0.85147">
        <ele>1273.4</ele>
        <time>2019-08-17T12:15:40Z</time>
      </trkpt>
      <trkpt lat="42.95029" lon="0.85147">
        <ele>1273.4</ele>
        <time>2019-08-17T12:15:41Z</time>
      </trkpt>
      <trkpt lat="42.95029" lon="0.85146">
        <ele>1273.4</ele>
        <time>2019-08-17T12:15:42Z</time>
      </trkpt>
      <trkpt lat="42.95029" lon="0.85146">
        <ele>1273.3</ele>
        <time>2019-08-17T12:15:43Z</time>
      </trkpt>
      <trkpt lat="42.95029" lon="0.85144">
        <ele>1273.3</ele>
        <time>2019-08-17T12:15:44Z</time>
      </trkpt>
      <trkpt lat="42.95029" lon="0.85143">
        <ele>1273.2</ele>
        <time>2019-08-17T12:15:45Z</time>
      </trkpt>
      <trkpt lat="42.95029" lon="0.85142">
        <ele>1273.1</ele>
        <time>2019-08-17T12:15:46Z</time>
      </trkpt>
      <trkpt lat="42.95029" lon="0.85141">
        <ele>1272.9</ele>
        <time>2019-08-17T12:15:47Z</time>
      </trkpt>
      <trkpt lat="42.95029" lon="0.85139">
        <ele>1272.6</ele>
        <time>2019-08-17T12:15:48Z</time>
      </trkpt>
      <trkpt lat="42.95029" lon="0.85138">
        <ele>1272.4</ele>
        <time>2019-08-17T12:15:49Z</time>
      </trkpt>
      <trkpt lat="42.95029" lon="0.85137">
        <ele>1272.1</ele>
        <time>2019-08-17T12:15:50Z</time>
      </trkpt>
      <trkpt lat="42.95029" lon="0.85136">
        <ele>1271.9</ele>
        <time>2019-08-17T12:15:51Z</time>
      </trkpt>
      <trkpt lat="42.95028" lon="0.85135">
        <ele>1271.7</ele>
        <time>2019-08-17T12:15:52Z</time>
      </trkpt>
      <trkpt lat="42.95028" lon="0.85133">
        <ele>1271.5</ele>
        <time>2019-08-17T12:15:53Z</time>
      </trkpt>
      <trkpt lat="42.95028" lon="0.85132">
        <ele>1271.3</ele>
        <time>2019-08-17T12:15:54Z</time>
      </trkpt>
      <trkpt lat="42.95028" lon="0.85131">
        <ele>1271</ele>
        <time>2019-08-17T12:15:55Z</time>
      </trkpt>
      <trkpt lat="42.95028" lon="0.8513">
        <ele>1270.8</ele>
        <time>2019-08-17T12:15:56Z</time>
      </trkpt>
      <trkpt lat="42.95028" lon="0.85129">
        <ele>1270.7</ele>
        <time>2019-08-17T12:15:57Z</time>
      </trkpt>
      <trkpt lat="42.95028" lon="0.85128">
        <ele>1270.6</ele>
        <time>2019-08-17T12:15:58Z</time>
      </trkpt>
      <trkpt lat="42.95028" lon="0.85126">
        <ele>1270.6</ele>
        <time>2019-08-17T12:15:59Z</time>
      </trkpt>
      <trkpt lat="42.95028" lon="0.85125">
        <ele>1270.5</ele>
        <time>2019-08-17T12:16:00Z</time>
      </trkpt>
      <trkpt lat="42.95028" lon="0.85124">
        <ele>1270.4</ele>
        <time>2019-08-17T12:16:01Z</time>
      </trkpt>
      <trkpt lat="42.95028" lon="0.85123">
        <ele>1270.4</ele>
        <time>2019-08-17T12:16:02Z</time>
      </trkpt>
      <trkpt lat="42.95028" lon="0.85122">
        <ele>1270.3</ele>
        <time>2019-08-17T12:16:03Z</time>
      </trkpt>
      <trkpt lat="42.95027" lon="0.85121">
        <ele>1270.2</ele>
        <time>2019-08-17T12:16:04Z</time>
      </trkpt>
      <trkpt lat="42.95027" lon="0.8512">
        <ele>1270.2</ele>
        <time>2019-08-17T12:16:05Z</time>
      </trkpt>
      <trkpt lat="42.95027" lon="0.85119">
        <ele>1270.1</ele>
        <time>2019-08-17T12:16:06Z</time>
      </trkpt>
      <trkpt lat="42.95027" lon="0.85118">
        <ele>1270.1</ele>
        <time>2019-08-17T12:16:07Z</time>
      </trkpt>
      <trkpt lat="42.95027" lon="0.85117">
        <ele>1270</ele>
        <time>2019-08-17T12:16:08Z</time>
      </trkpt>
      <trkpt lat="42.95026" lon="0.85115">
        <ele>1270</ele>
        <time>2019-08-17T12:16:09Z</time>
      </trkpt>
      <trkpt lat="42.95026" lon="0.85114">
        <ele>1269.9</ele>
        <time>2019-08-17T12:16:10Z</time>
      </trkpt>
      <trkpt lat="42.95026" lon="0.85113">
        <ele>1269.9</ele>
        <time>2019-08-17T12:16:11Z</time>
      </trkpt>
      <trkpt lat="42.95025" lon="0.85112">
        <ele>1269.9</ele>
        <time>2019-08-17T12:16:12Z</time>
      </trkpt>
      <trkpt lat="42.95025" lon="0.85111">
        <ele>1269.8</ele>
        <time>2019-08-17T12:16:13Z</time>
      </trkpt>
      <trkpt lat="42.95025" lon="0.8511">
        <ele>1269.8</ele>
        <time>2019-08-17T12:16:14Z</time>
      </trkpt>
      <trkpt lat="42.95024" lon="0.85108">
        <ele>1269.7</ele>
        <time>2019-08-17T12:16:15Z</time>
      </trkpt>
      <trkpt lat="42.95024" lon="0.85107">
        <ele>1269.7</ele>
        <time>2019-08-17T12:16:16Z</time>
      </trkpt>
      <trkpt lat="42.95024" lon="0.85106">
        <ele>1269.7</ele>
        <time>2019-08-17T12:16:17Z</time>
      </trkpt>
      <trkpt lat="42.95024" lon="0.85105">
        <ele>1269.6</ele>
        <time>2019-08-17T12:16:18Z</time>
      </trkpt>
      <trkpt lat="42.95024" lon="0.85103">
        <ele>1269.4</ele>
        <time>2019-08-17T12:16:19Z</time>
      </trkpt>
      <trkpt lat="42.95024" lon="0.85102">
        <ele>1269.2</ele>
        <time>2019-08-17T12:16:20Z</time>
      </trkpt>
      <trkpt lat="42.95024" lon="0.85101">
        <ele>1269.1</ele>
        <time>2019-08-17T12:16:21Z</time>
      </trkpt>
      <trkpt lat="42.95024" lon="0.851">
        <ele>1268.9</ele>
        <time>2019-08-17T12:16:22Z</time>
      </trkpt>
      <trkpt lat="42.95024" lon="0.851">
        <ele>1268.8</ele>
        <time>2019-08-17T12:16:23Z</time>
      </trkpt>
      <trkpt lat="42.95024" lon="0.85099">
        <ele>1268.7</ele>
        <time>2019-08-17T12:16:24Z</time>
      </trkpt>
      <trkpt lat="42.95024" lon="0.85099">
        <ele>1268.6</ele>
        <time>2019-08-17T12:16:25Z</time>
      </trkpt>
      <trkpt lat="42.95024" lon="0.85098">
        <ele>1268.5</ele>
        <time>2019-08-17T12:16:26Z</time>
      </trkpt>
      <trkpt lat="42.95024" lon="0.85097">
        <ele>1268.3</ele>
        <time>2019-08-17T12:16:27Z</time>
      </trkpt>
      <trkpt lat="42.95024" lon="0.85096">
        <ele>1268.2</ele>
        <time>2019-08-17T12:16:28Z</time>
      </trkpt>
      <trkpt lat="42.95024" lon="0.85095">
        <ele>1268</ele>
        <time>2019-08-17T12:16:29Z</time>
      </trkpt>
      <trkpt lat="42.95024" lon="0.85094">
        <ele>1267.8</ele>
        <time>2019-08-17T12:16:30Z</time>
      </trkpt>
      <trkpt lat="42.95024" lon="0.85093">
        <ele>1267.6</ele>
        <time>2019-08-17T12:16:31Z</time>
      </trkpt>
      <trkpt lat="42.95023" lon="0.85091">
        <ele>1267.4</ele>
        <time>2019-08-17T12:16:32Z</time>
      </trkpt>
      <trkpt lat="42.95023" lon="0.8509">
        <ele>1267.2</ele>
        <time>2019-08-17T12:16:33Z</time>
      </trkpt>
      <trkpt lat="42.95023" lon="0.85089">
        <ele>1267</ele>
        <time>2019-08-17T12:16:34Z</time>
      </trkpt>
      <trkpt lat="42.95023" lon="0.85088">
        <ele>1266.9</ele>
        <time>2019-08-17T12:16:35Z</time>
      </trkpt>
      <trkpt lat="42.95023" lon="0.85087">
        <ele>1266.7</ele>
        <time>2019-08-17T12:16:36Z</time>
      </trkpt>
      <trkpt lat="42.95023" lon="0.85086">
        <ele>1266.5</ele>
        <time>2019-08-17T12:16:37Z</time>
      </trkpt>
      <trkpt lat="42.95023" lon="0.85085">
        <ele>1266.3</ele>
        <time>2019-08-17T12:16:38Z</time>
      </trkpt>
      <trkpt lat="42.95023" lon="0.85083">
        <ele>1266.1</ele>
        <time>2019-08-17T12:16:39Z</time>
      </trkpt>
      <trkpt lat="42.95023" lon="0.85082">
        <ele>1265.9</ele>
        <time>2019-08-17T12:16:40Z</time>
      </trkpt>
      <trkpt lat="42.95023" lon="0.85081">
        <ele>1265.7</ele>
        <time>2019-08-17T12:16:41Z</time>
      </trkpt>
      <trkpt lat="42.95023" lon="0.8508">
        <ele>1265.4</ele>
        <time>2019-08-17T12:16:42Z</time>
      </trkpt>
      <trkpt lat="42.95023" lon="0.85078">
        <ele>1265.2</ele>
        <time>2019-08-17T12:16:43Z</time>
      </trkpt>
      <trkpt lat="42.95022" lon="0.85077">
        <ele>1265</ele>
        <time>2019-08-17T12:16:44Z</time>
      </trkpt>
      <trkpt lat="42.95022" lon="0.85076">
        <ele>1264.8</ele>
        <time>2019-08-17T12:16:45Z</time>
      </trkpt>
      <trkpt lat="42.95022" lon="0.85075">
        <ele>1264.6</ele>
        <time>2019-08-17T12:16:46Z</time>
      </trkpt>
      <trkpt lat="42.95022" lon="0.85074">
        <ele>1264.3</ele>
        <time>2019-08-17T12:16:47Z</time>
      </trkpt>
      <trkpt lat="42.95022" lon="0.85073">
        <ele>1264.2</ele>
        <time>2019-08-17T12:16:48Z</time>
      </trkpt>
      <trkpt lat="42.95022" lon="0.85072">
        <ele>1264</ele>
        <time>2019-08-17T12:16:49Z</time>
      </trkpt>
      <trkpt lat="42.95022" lon="0.85071">
        <ele>1263.8</ele>
        <time>2019-08-17T12:16:50Z</time>
      </trkpt>
      <trkpt lat="42.95022" lon="0.8507">
        <ele>1263.7</ele>
        <time>2019-08-17T12:16:51Z</time>
      </trkpt>
      <trkpt lat="42.95021" lon="0.8507">
        <ele>1263.6</ele>
        <time>2019-08-17T12:16:52Z</time>
      </trkpt>
      <trkpt lat="42.95021" lon="0.85069">
        <ele>1263.5</ele>
        <time>2019-08-17T12:16:53Z</time>
      </trkpt>
      <trkpt lat="42.95021" lon="0.85069">
        <ele>1263.4</ele>
        <time>2019-08-17T12:16:54Z</time>
      </trkpt>
      <trkpt lat="42.95021" lon="0.85069">
        <ele>1263.4</ele>
        <time>2019-08-17T12:16:55Z</time>
      </trkpt>
      <trkpt lat="42.95021" lon="0.85069">
        <ele>1263.4</ele>
        <time>2019-08-17T12:16:56Z</time>
      </trkpt>
      <trkpt lat="42.95021" lon="0.85069">
        <ele>1263.4</ele>
        <time>2019-08-17T12:16:57Z</time>
      </trkpt>
      <trkpt lat="42.95021" lon="0.85069">
        <ele>1263.4</ele>
        <time>2019-08-17T12:16:58Z</time>
      </trkpt>
      <trkpt lat="42.95021" lon="0.85069">
        <ele>1263.4</ele>
        <time>2019-08-17T12:16:59Z</time>
      </trkpt>
      <trkpt lat="42.95021" lon="0.85069">
        <ele>1263.4</ele>
        <time>2019-08-17T12:17:00Z</time>
      </trkpt>
      <trkpt lat="42.95021" lon="0.85069">
        <ele>1263.4</ele>
        <time>2019-08-17T12:17:01Z</time>
      </trkpt>
      <trkpt lat="42.95021" lon="0.85069">
        <ele>1263.4</ele>
        <time>2019-08-17T12:17:02Z</time>
      </trkpt>
      <trkpt lat="42.95021" lon="0.85069">
        <ele>1263.4</ele>
        <time>2019-08-17T12:17:03Z</time>
      </trkpt>
      <trkpt lat="42.95021" lon="0.85069">
        <ele>1263.3</ele>
        <time>2019-08-17T12:17:04Z</time>
      </trkpt>
      <trkpt lat="42.95021" lon="0.85069">
        <ele>1263.3</ele>
        <time>2019-08-17T12:17:05Z</time>
      </trkpt>
      <trkpt lat="42.95021" lon="0.85068">
        <ele>1263.3</ele>
        <time>2019-08-17T12:17:06Z</time>
      </trkpt>
      <trkpt lat="42.95021" lon="0.85068">
        <ele>1263.2</ele>
        <time>2019-08-17T12:17:07Z</time>
      </trkpt>
      <trkpt lat="42.95021" lon="0.85068">
        <ele>1263.2</ele>
        <time>2019-08-17T12:17:08Z</time>
      </trkpt>
      <trkpt lat="42.95021" lon="0.85068">
        <ele>1263.2</ele>
        <time>2019-08-17T12:17:09Z</time>
      </trkpt>
      <trkpt lat="42.95021" lon="0.85067">
        <ele>1263.2</ele>
        <time>2019-08-17T12:17:10Z</time>
      </trkpt>
      <trkpt lat="42.95021" lon="0.85067">
        <ele>1263.2</ele>
        <time>2019-08-17T12:17:11Z</time>
      </trkpt>
      <trkpt lat="42.95021" lon="0.85066">
        <ele>1263.2</ele>
        <time>2019-08-17T12:17:12Z</time>
      </trkpt>
      <trkpt lat="42.95021" lon="0.85066">
        <ele>1263.2</ele>
        <time>2019-08-17T12:17:13Z</time>
      </trkpt>
      <trkpt lat="42.95021" lon="0.85066">
        <ele>1263.1</ele>
        <time>2019-08-17T12:17:14Z</time>
      </trkpt>
      <trkpt lat="42.95021" lon="0.85066">
        <ele>1263.1</ele>
        <time>2019-08-17T12:17:15Z</time>
      </trkpt>
      <trkpt lat="42.95021" lon="0.85065">
        <ele>1263.1</ele>
        <time>2019-08-17T12:17:16Z</time>
      </trkpt>
      <trkpt lat="42.9502" lon="0.85064">
        <ele>1263.1</ele>
        <time>2019-08-17T12:17:17Z</time>
      </trkpt>
      <trkpt lat="42.9502" lon="0.85063">
        <ele>1263.1</ele>
        <time>2019-08-17T12:17:18Z</time>
      </trkpt>
      <trkpt lat="42.9502" lon="0.85062">
        <ele>1263.1</ele>
        <time>2019-08-17T12:17:19Z</time>
      </trkpt>
      <trkpt lat="42.9502" lon="0.85061">
        <ele>1263</ele>
        <time>2019-08-17T12:17:20Z</time>
      </trkpt>
      <trkpt lat="42.95021" lon="0.8506">
        <ele>1263</ele>
        <time>2019-08-17T12:17:21Z</time>
      </trkpt>
      <trkpt lat="42.95021" lon="0.8506">
        <ele>1263</ele>
        <time>2019-08-17T12:17:22Z</time>
      </trkpt>
      <trkpt lat="42.95021" lon="0.85059">
        <ele>1262.9</ele>
        <time>2019-08-17T12:17:23Z</time>
      </trkpt>
      <trkpt lat="42.95021" lon="0.85058">
        <ele>1262.9</ele>
        <time>2019-08-17T12:17:24Z</time>
      </trkpt>
      <trkpt lat="42.9502" lon="0.85057">
        <ele>1262.8</ele>
        <time>2019-08-17T12:17:25Z</time>
      </trkpt>
      <trkpt lat="42.95019" lon="0.85057">
        <ele>1262.8</ele>
        <time>2019-08-17T12:17:26Z</time>
      </trkpt>
      <trkpt lat="42.95018" lon="0.85057">
        <ele>1262.6</ele>
        <time>2019-08-17T12:17:27Z</time>
      </trkpt>
      <trkpt lat="42.95018" lon="0.85056">
        <ele>1262.4</ele>
        <time>2019-08-17T12:17:28Z</time>
      </trkpt>
      <trkpt lat="42.95017" lon="0.85056">
        <ele>1262.2</ele>
        <time>2019-08-17T12:17:29Z</time>
      </trkpt>
      <trkpt lat="42.95017" lon="0.85055">
        <ele>1262.1</ele>
        <time>2019-08-17T12:17:30Z</time>
      </trkpt>
      <trkpt lat="42.95017" lon="0.85054">
        <ele>1262</ele>
        <time>2019-08-17T12:17:31Z</time>
      </trkpt>
      <trkpt lat="42.95016" lon="0.85054">
        <ele>1261.9</ele>
        <time>2019-08-17T12:17:32Z</time>
      </trkpt>
      <trkpt lat="42.95016" lon="0.85054">
        <ele>1261.9</ele>
        <time>2019-08-17T12:17:33Z</time>
      </trkpt>
      <trkpt lat="42.95016" lon="0.85054">
        <ele>1261.8</ele>
        <time>2019-08-17T12:17:34Z</time>
      </trkpt>
      <trkpt lat="42.95016" lon="0.85053">
        <ele>1261.8</ele>
        <time>2019-08-17T12:17:35Z</time>
      </trkpt>
      <trkpt lat="42.95016" lon="0.85053">
        <ele>1261.8</ele>
        <time>2019-08-17T12:17:36Z</time>
      </trkpt>
      <trkpt lat="42.95016" lon="0.85053">
        <ele>1261.8</ele>
        <time>2019-08-17T12:17:37Z</time>
      </trkpt>
      <trkpt lat="42.95016" lon="0.85053">
        <ele>1261.8</ele>
        <time>2019-08-17T12:17:38Z</time>
      </trkpt>
      <trkpt lat="42.95016" lon="0.85053">
        <ele>1261.8</ele>
        <time>2019-08-17T12:17:39Z</time>
      </trkpt>
      <trkpt lat="42.95016" lon="0.85053">
        <ele>1261.8</ele>
        <time>2019-08-17T12:17:40Z</time>
      </trkpt>
      <trkpt lat="42.95016" lon="0.85053">
        <ele>1261.8</ele>
        <time>2019-08-17T12:17:41Z</time>
      </trkpt>
      <trkpt lat="42.95016" lon="0.85053">
        <ele>1261.7</ele>
        <time>2019-08-17T12:17:42Z</time>
      </trkpt>
      <trkpt lat="42.95016" lon="0.85053">
        <ele>1261.7</ele>
        <time>2019-08-17T12:17:43Z</time>
      </trkpt>
      <trkpt lat="42.95016" lon="0.85053">
        <ele>1261.7</ele>
        <time>2019-08-17T12:17:44Z</time>
      </trkpt>
      <trkpt lat="42.95016" lon="0.85053">
        <ele>1261.7</ele>
        <time>2019-08-17T12:17:45Z</time>
      </trkpt>
      <trkpt lat="42.95016" lon="0.85053">
        <ele>1261.7</ele>
        <time>2019-08-17T12:17:46Z</time>
      </trkpt>
      <trkpt lat="42.95016" lon="0.85053">
        <ele>1261.6</ele>
        <time>2019-08-17T12:17:47Z</time>
      </trkpt>
      <trkpt lat="42.95016" lon="0.85053">
        <ele>1261.6</ele>
        <time>2019-08-17T12:17:48Z</time>
      </trkpt>
      <trkpt lat="42.95016" lon="0.85054">
        <ele>1261.5</ele>
        <time>2019-08-17T12:17:49Z</time>
      </trkpt>
      <trkpt lat="42.95016" lon="0.85055">
        <ele>1261.4</ele>
        <time>2019-08-17T12:17:50Z</time>
      </trkpt>
      <trkpt lat="42.95016" lon="0.85055">
        <ele>1261.3</ele>
        <time>2019-08-17T12:17:51Z</time>
      </trkpt>
      <trkpt lat="42.95016" lon="0.85057">
        <ele>1261.1</ele>
        <time>2019-08-17T12:17:52Z</time>
      </trkpt>
      <trkpt lat="42.95016" lon="0.85058">
        <ele>1260.9</ele>
        <time>2019-08-17T12:17:53Z</time>
      </trkpt>
      <trkpt lat="42.95016" lon="0.85059">
        <ele>1260.8</ele>
        <time>2019-08-17T12:17:54Z</time>
      </trkpt>
      <trkpt lat="42.95016" lon="0.85061">
        <ele>1260.6</ele>
        <time>2019-08-17T12:17:55Z</time>
      </trkpt>
      <trkpt lat="42.95016" lon="0.85062">
        <ele>1260.4</ele>
        <time>2019-08-17T12:17:56Z</time>
      </trkpt>
      <trkpt lat="42.95016" lon="0.85064">
        <ele>1260.2</ele>
        <time>2019-08-17T12:17:57Z</time>
      </trkpt>
      <trkpt lat="42.95016" lon="0.85065">
        <ele>1256.5</ele>
        <time>2019-08-17T12:17:58Z</time>
      </trkpt>
      <trkpt lat="42.95016" lon="0.85067">
        <ele>1256.1</ele>
        <time>2019-08-17T12:17:59Z</time>
      </trkpt>
      <trkpt lat="42.95016" lon="0.85069">
        <ele>1255.7</ele>
        <time>2019-08-17T12:18:00Z</time>
      </trkpt>
      <trkpt lat="42.95015" lon="0.8507">
        <ele>1255.3</ele>
        <time>2019-08-17T12:18:01Z</time>
      </trkpt>
      <trkpt lat="42.95015" lon="0.85072">
        <ele>1255</ele>
        <time>2019-08-17T12:18:02Z</time>
      </trkpt>
      <trkpt lat="42.95015" lon="0.85073">
        <ele>1254.6</ele>
        <time>2019-08-17T12:18:03Z</time>
      </trkpt>
      <trkpt lat="42.95015" lon="0.85075">
        <ele>1254.2</ele>
        <time>2019-08-17T12:18:04Z</time>
      </trkpt>
      <trkpt lat="42.95015" lon="0.85076">
        <ele>1253.8</ele>
        <time>2019-08-17T12:18:05Z</time>
      </trkpt>
      <trkpt lat="42.95014" lon="0.85078">
        <ele>1253.6</ele>
        <time>2019-08-17T12:18:06Z</time>
      </trkpt>
      <trkpt lat="42.95014" lon="0.8508">
        <ele>1253.3</ele>
        <time>2019-08-17T12:18:07Z</time>
      </trkpt>
      <trkpt lat="42.95014" lon="0.85081">
        <ele>1253</ele>
        <time>2019-08-17T12:18:08Z</time>
      </trkpt>
      <trkpt lat="42.95014" lon="0.85083">
        <ele>1252.7</ele>
        <time>2019-08-17T12:18:09Z</time>
      </trkpt>
      <trkpt lat="42.95014" lon="0.85084">
        <ele>1252.4</ele>
        <time>2019-08-17T12:18:10Z</time>
      </trkpt>
      <trkpt lat="42.95014" lon="0.85086">
        <ele>1252.2</ele>
        <time>2019-08-17T12:18:11Z</time>
      </trkpt>
      <trkpt lat="42.95014" lon="0.85087">
        <ele>1251.9</ele>
        <time>2019-08-17T12:18:12Z</time>
      </trkpt>
      <trkpt lat="42.95014" lon="0.85089">
        <ele>1251.6</ele>
        <time>2019-08-17T12:18:13Z</time>
      </trkpt>
      <trkpt lat="42.95013" lon="0.8509">
        <ele>1251.4</ele>
        <time>2019-08-17T12:18:14Z</time>
      </trkpt>
      <trkpt lat="42.95013" lon="0.85091">
        <ele>1251.2</ele>
        <time>2019-08-17T12:18:15Z</time>
      </trkpt>
      <trkpt lat="42.95012" lon="0.85093">
        <ele>1250.9</ele>
        <time>2019-08-17T12:18:16Z</time>
      </trkpt>
      <trkpt lat="42.95012" lon="0.85094">
        <ele>1250.7</ele>
        <time>2019-08-17T12:18:17Z</time>
      </trkpt>
      <trkpt lat="42.95011" lon="0.85095">
        <ele>1250.4</ele>
        <time>2019-08-17T12:18:18Z</time>
      </trkpt>
      <trkpt lat="42.95011" lon="0.85096">
        <ele>1250.2</ele>
        <time>2019-08-17T12:18:19Z</time>
      </trkpt>
      <trkpt lat="42.9501" lon="0.85098">
        <ele>1249.9</ele>
        <time>2019-08-17T12:18:20Z</time>
      </trkpt>
      <trkpt lat="42.9501" lon="0.85099">
        <ele>1249.7</ele>
        <time>2019-08-17T12:18:21Z</time>
      </trkpt>
      <trkpt lat="42.95009" lon="0.851">
        <ele>1249.6</ele>
        <time>2019-08-17T12:18:22Z</time>
      </trkpt>
      <trkpt lat="42.95008" lon="0.85102">
        <ele>1249.4</ele>
        <time>2019-08-17T12:18:23Z</time>
      </trkpt>
      <trkpt lat="42.95008" lon="0.85103">
        <ele>1249.2</ele>
        <time>2019-08-17T12:18:24Z</time>
      </trkpt>
      <trkpt lat="42.95007" lon="0.85105">
        <ele>1249</ele>
        <time>2019-08-17T12:18:25Z</time>
      </trkpt>
      <trkpt lat="42.95007" lon="0.85106">
        <ele>1248.8</ele>
        <time>2019-08-17T12:18:26Z</time>
      </trkpt>
      <trkpt lat="42.95006" lon="0.85108">
        <ele>1248.6</ele>
        <time>2019-08-17T12:18:27Z</time>
      </trkpt>
      <trkpt lat="42.95006" lon="0.85109">
        <ele>1248.4</ele>
        <time>2019-08-17T12:18:28Z</time>
      </trkpt>
      <trkpt lat="42.95006" lon="0.8511">
        <ele>1248.2</ele>
        <time>2019-08-17T12:18:29Z</time>
      </trkpt>
      <trkpt lat="42.95005" lon="0.85112">
        <ele>1248</ele>
        <time>2019-08-17T12:18:30Z</time>
      </trkpt>
      <trkpt lat="42.95005" lon="0.85113">
        <ele>1247.9</ele>
        <time>2019-08-17T12:18:31Z</time>
      </trkpt>
      <trkpt lat="42.95004" lon="0.85114">
        <ele>1247.7</ele>
        <time>2019-08-17T12:18:32Z</time>
      </trkpt>
      <trkpt lat="42.95003" lon="0.85116">
        <ele>1247.5</ele>
        <time>2019-08-17T12:18:33Z</time>
      </trkpt>
      <trkpt lat="42.95003" lon="0.85117">
        <ele>1247.3</ele>
        <time>2019-08-17T12:18:34Z</time>
      </trkpt>
      <trkpt lat="42.95002" lon="0.85118">
        <ele>1247.2</ele>
        <time>2019-08-17T12:18:35Z</time>
      </trkpt>
      <trkpt lat="42.95002" lon="0.85119">
        <ele>1247</ele>
        <time>2019-08-17T12:18:36Z</time>
      </trkpt>
      <trkpt lat="42.95001" lon="0.8512">
        <ele>1246.8</ele>
        <time>2019-08-17T12:18:37Z</time>
      </trkpt>
      <trkpt lat="42.95001" lon="0.85122">
        <ele>1246.6</ele>
        <time>2019-08-17T12:18:38Z</time>
      </trkpt>
      <trkpt lat="42.95" lon="0.85123">
        <ele>1246.5</ele>
        <time>2019-08-17T12:18:39Z</time>
      </trkpt>
      <trkpt lat="42.94999" lon="0.85124">
        <ele>1246.3</ele>
        <time>2019-08-17T12:18:40Z</time>
      </trkpt>
      <trkpt lat="42.94999" lon="0.85125">
        <ele>1246.1</ele>
        <time>2019-08-17T12:18:41Z</time>
      </trkpt>
      <trkpt lat="42.94998" lon="0.85126">
        <ele>1245.9</ele>
        <time>2019-08-17T12:18:42Z</time>
      </trkpt>
      <trkpt lat="42.94998" lon="0.85128">
        <ele>1245.7</ele>
        <time>2019-08-17T12:18:43Z</time>
      </trkpt>
      <trkpt lat="42.94997" lon="0.85129">
        <ele>1245.6</ele>
        <time>2019-08-17T12:18:44Z</time>
      </trkpt>
      <trkpt lat="42.94997" lon="0.8513">
        <ele>1245.4</ele>
        <time>2019-08-17T12:18:45Z</time>
      </trkpt>
      <trkpt lat="42.94996" lon="0.85131">
        <ele>1245.2</ele>
        <time>2019-08-17T12:18:46Z</time>
      </trkpt>
      <trkpt lat="42.94995" lon="0.85133">
        <ele>1245</ele>
        <time>2019-08-17T12:18:47Z</time>
      </trkpt>
      <trkpt lat="42.94995" lon="0.85134">
        <ele>1244.8</ele>
        <time>2019-08-17T12:18:48Z</time>
      </trkpt>
      <trkpt lat="42.94994" lon="0.85135">
        <ele>1244.6</ele>
        <time>2019-08-17T12:18:49Z</time>
      </trkpt>
      <trkpt lat="42.94994" lon="0.85137">
        <ele>1244.4</ele>
        <time>2019-08-17T12:18:50Z</time>
      </trkpt>
      <trkpt lat="42.94993" lon="0.85138">
        <ele>1244.2</ele>
        <time>2019-08-17T12:18:51Z</time>
      </trkpt>
      <trkpt lat="42.94993" lon="0.85139">
        <ele>1244</ele>
        <time>2019-08-17T12:18:52Z</time>
      </trkpt>
      <trkpt lat="42.94992" lon="0.85141">
        <ele>1243.8</ele>
        <time>2019-08-17T12:18:53Z</time>
      </trkpt>
      <trkpt lat="42.94992" lon="0.85142">
        <ele>1243.6</ele>
        <time>2019-08-17T12:18:54Z</time>
      </trkpt>
      <trkpt lat="42.94991" lon="0.85143">
        <ele>1243.4</ele>
        <time>2019-08-17T12:18:55Z</time>
      </trkpt>
      <trkpt lat="42.9499" lon="0.85145">
        <ele>1243.2</ele>
        <time>2019-08-17T12:18:56Z</time>
      </trkpt>
      <trkpt lat="42.9499" lon="0.85146">
        <ele>1243</ele>
        <time>2019-08-17T12:18:57Z</time>
      </trkpt>
      <trkpt lat="42.94989" lon="0.85147">
        <ele>1242.9</ele>
        <time>2019-08-17T12:18:58Z</time>
      </trkpt>
      <trkpt lat="42.94989" lon="0.85148">
        <ele>1242.7</ele>
        <time>2019-08-17T12:18:59Z</time>
      </trkpt>
      <trkpt lat="42.94988" lon="0.8515">
        <ele>1242.6</ele>
        <time>2019-08-17T12:19:00Z</time>
      </trkpt>
      <trkpt lat="42.94987" lon="0.85151">
        <ele>1242.4</ele>
        <time>2019-08-17T12:19:01Z</time>
      </trkpt>
      <trkpt lat="42.94987" lon="0.85152">
        <ele>1242.3</ele>
        <time>2019-08-17T12:19:02Z</time>
      </trkpt>
      <trkpt lat="42.94986" lon="0.85154">
        <ele>1242.1</ele>
        <time>2019-08-17T12:19:03Z</time>
      </trkpt>
      <trkpt lat="42.94985" lon="0.85155">
        <ele>1242</ele>
        <time>2019-08-17T12:19:04Z</time>
      </trkpt>
      <trkpt lat="42.94984" lon="0.85156">
        <ele>1241.9</ele>
        <time>2019-08-17T12:19:05Z</time>
      </trkpt>
      <trkpt lat="42.94984" lon="0.85157">
        <ele>1241.7</ele>
        <time>2019-08-17T12:19:06Z</time>
      </trkpt>
      <trkpt lat="42.94983" lon="0.85158">
        <ele>1241.6</ele>
        <time>2019-08-17T12:19:07Z</time>
      </trkpt>
      <trkpt lat="42.94982" lon="0.85159">
        <ele>1241.4</ele>
        <time>2019-08-17T12:19:08Z</time>
      </trkpt>
      <trkpt lat="42.94981" lon="0.85161">
        <ele>1241.3</ele>
        <time>2019-08-17T12:19:09Z</time>
      </trkpt>
      <trkpt lat="42.94981" lon="0.85162">
        <ele>1241.1</ele>
        <time>2019-08-17T12:19:10Z</time>
      </trkpt>
      <trkpt lat="42.9498" lon="0.85163">
        <ele>1241</ele>
        <time>2019-08-17T12:19:11Z</time>
      </trkpt>
      <trkpt lat="42.94979" lon="0.85164">
        <ele>1240.8</ele>
        <time>2019-08-17T12:19:12Z</time>
      </trkpt>
      <trkpt lat="42.94978" lon="0.85165">
        <ele>1240.7</ele>
        <time>2019-08-17T12:19:13Z</time>
      </trkpt>
      <trkpt lat="42.94977" lon="0.85166">
        <ele>1240.5</ele>
        <time>2019-08-17T12:19:14Z</time>
      </trkpt>
      <trkpt lat="42.94977" lon="0.85167">
        <ele>1240.3</ele>
        <time>2019-08-17T12:19:15Z</time>
      </trkpt>
      <trkpt lat="42.94976" lon="0.85168">
        <ele>1240.2</ele>
        <time>2019-08-17T12:19:16Z</time>
      </trkpt>
      <trkpt lat="42.94975" lon="0.85169">
        <ele>1240</ele>
        <time>2019-08-17T12:19:17Z</time>
      </trkpt>
      <trkpt lat="42.94974" lon="0.8517">
        <ele>1239.9</ele>
        <time>2019-08-17T12:19:18Z</time>
      </trkpt>
      <trkpt lat="42.94973" lon="0.85171">
        <ele>1239.7</ele>
        <time>2019-08-17T12:19:19Z</time>
      </trkpt>
      <trkpt lat="42.94972" lon="0.85172">
        <ele>1239.5</ele>
        <time>2019-08-17T12:19:20Z</time>
      </trkpt>
      <trkpt lat="42.94971" lon="0.85173">
        <ele>1239.4</ele>
        <time>2019-08-17T12:19:21Z</time>
      </trkpt>
      <trkpt lat="42.94971" lon="0.85173">
        <ele>1239.2</ele>
        <time>2019-08-17T12:19:22Z</time>
      </trkpt>
      <trkpt lat="42.9497" lon="0.85174">
        <ele>1239.1</ele>
        <time>2019-08-17T12:19:23Z</time>
      </trkpt>
      <trkpt lat="42.94969" lon="0.85175">
        <ele>1238.9</ele>
        <time>2019-08-17T12:19:24Z</time>
      </trkpt>
      <trkpt lat="42.94968" lon="0.85176">
        <ele>1238.8</ele>
        <time>2019-08-17T12:19:25Z</time>
      </trkpt>
      <trkpt lat="42.94967" lon="0.85177">
        <ele>1238.6</ele>
        <time>2019-08-17T12:19:26Z</time>
      </trkpt>
      <trkpt lat="42.94966" lon="0.85178">
        <ele>1238.5</ele>
        <time>2019-08-17T12:19:27Z</time>
      </trkpt>
      <trkpt lat="42.94965" lon="0.85178">
        <ele>1238.3</ele>
        <time>2019-08-17T12:19:28Z</time>
      </trkpt>
      <trkpt lat="42.94964" lon="0.85179">
        <ele>1238.1</ele>
        <time>2019-08-17T12:19:29Z</time>
      </trkpt>
      <trkpt lat="42.94963" lon="0.8518">
        <ele>1238</ele>
        <time>2019-08-17T12:19:30Z</time>
      </trkpt>
      <trkpt lat="42.94963" lon="0.8518">
        <ele>1237.8</ele>
        <time>2019-08-17T12:19:31Z</time>
      </trkpt>
      <trkpt lat="42.94962" lon="0.85181">
        <ele>1237.7</ele>
        <time>2019-08-17T12:19:32Z</time>
      </trkpt>
      <trkpt lat="42.94961" lon="0.85181">
        <ele>1237.5</ele>
        <time>2019-08-17T12:19:33Z</time>
      </trkpt>
      <trkpt lat="42.9496" lon="0.85182">
        <ele>1237.4</ele>
        <time>2019-08-17T12:19:34Z</time>
      </trkpt>
      <trkpt lat="42.94959" lon="0.85182">
        <ele>1237.2</ele>
        <time>2019-08-17T12:19:35Z</time>
      </trkpt>
      <trkpt lat="42.94958" lon="0.85183">
        <ele>1237</ele>
        <time>2019-08-17T12:19:36Z</time>
      </trkpt>
      <trkpt lat="42.94957" lon="0.85183">
        <ele>1236.8</ele>
        <time>2019-08-17T12:19:37Z</time>
      </trkpt>
      <trkpt lat="42.94956" lon="0.85184">
        <ele>1236.3</ele>
        <time>2019-08-17T12:19:38Z</time>
      </trkpt>
      <trkpt lat="42.94955" lon="0.85184">
        <ele>1235.9</ele>
        <time>2019-08-17T12:19:39Z</time>
      </trkpt>
      <trkpt lat="42.94954" lon="0.85184">
        <ele>1235.4</ele>
        <time>2019-08-17T12:19:40Z</time>
      </trkpt>
      <trkpt lat="42.94952" lon="0.85185">
        <ele>1234.9</ele>
        <time>2019-08-17T12:19:41Z</time>
      </trkpt>
      <trkpt lat="42.94951" lon="0.85185">
        <ele>1234.4</ele>
        <time>2019-08-17T12:19:42Z</time>
      </trkpt>
      <trkpt lat="42.9495" lon="0.85186">
        <ele>1233.9</ele>
        <time>2019-08-17T12:19:43Z</time>
      </trkpt>
      <trkpt lat="42.94949" lon="0.85186">
        <ele>1233.4</ele>
        <time>2019-08-17T12:19:44Z</time>
      </trkpt>
      <trkpt lat="42.94948" lon="0.85187">
        <ele>1232.8</ele>
        <time>2019-08-17T12:19:45Z</time>
      </trkpt>
      <trkpt lat="42.94947" lon="0.85188">
        <ele>1232.3</ele>
        <time>2019-08-17T12:19:46Z</time>
      </trkpt>
      <trkpt lat="42.94945" lon="0.85188">
        <ele>1231.7</ele>
        <time>2019-08-17T12:19:47Z</time>
      </trkpt>
      <trkpt lat="42.94944" lon="0.85188">
        <ele>1231.1</ele>
        <time>2019-08-17T12:19:48Z</time>
      </trkpt>
      <trkpt lat="42.94943" lon="0.85188">
        <ele>1230.7</ele>
        <time>2019-08-17T12:19:49Z</time>
      </trkpt>
      <trkpt lat="42.94942" lon="0.85187">
        <ele>1230.2</ele>
        <time>2019-08-17T12:19:50Z</time>
      </trkpt>
      <trkpt lat="42.94942" lon="0.85186">
        <ele>1229.7</ele>
        <time>2019-08-17T12:19:51Z</time>
      </trkpt>
      <trkpt lat="42.94941" lon="0.85185">
        <ele>1229.3</ele>
        <time>2019-08-17T12:19:52Z</time>
      </trkpt>
      <trkpt lat="42.94941" lon="0.85184">
        <ele>1228.8</ele>
        <time>2019-08-17T12:19:53Z</time>
      </trkpt>
      <trkpt lat="42.94941" lon="0.85183">
        <ele>1228.5</ele>
        <time>2019-08-17T12:19:54Z</time>
      </trkpt>
      <trkpt lat="42.94942" lon="0.85182">
        <ele>1228.1</ele>
        <time>2019-08-17T12:19:55Z</time>
      </trkpt>
      <trkpt lat="42.94942" lon="0.85181">
        <ele>1227.7</ele>
        <time>2019-08-17T12:19:56Z</time>
      </trkpt>
      <trkpt lat="42.94943" lon="0.85181">
        <ele>1227.3</ele>
        <time>2019-08-17T12:19:57Z</time>
      </trkpt>
      <trkpt lat="42.94944" lon="0.8518">
        <ele>1226.8</ele>
        <time>2019-08-17T12:19:58Z</time>
      </trkpt>
      <trkpt lat="42.94945" lon="0.8518">
        <ele>1226.5</ele>
        <time>2019-08-17T12:19:59Z</time>
      </trkpt>
      <trkpt lat="42.94946" lon="0.85179">
        <ele>1226.1</ele>
        <time>2019-08-17T12:20:00Z</time>
      </trkpt>
      <trkpt lat="42.94946" lon="0.85179">
        <ele>1225.9</ele>
        <time>2019-08-17T12:20:01Z</time>
      </trkpt>
      <trkpt lat="42.94947" lon="0.85178">
        <ele>1225.6</ele>
        <time>2019-08-17T12:20:02Z</time>
      </trkpt>
      <trkpt lat="42.94947" lon="0.85177">
        <ele>1225.3</ele>
        <time>2019-08-17T12:20:03Z</time>
      </trkpt>
      <trkpt lat="42.94948" lon="0.85176">
        <ele>1225</ele>
        <time>2019-08-17T12:20:04Z</time>
      </trkpt>
      <trkpt lat="42.94948" lon="0.85175">
        <ele>1224.6</ele>
        <time>2019-08-17T12:20:05Z</time>
      </trkpt>
      <trkpt lat="42.94948" lon="0.85173">
        <ele>1224.2</ele>
        <time>2019-08-17T12:20:06Z</time>
      </trkpt>
      <trkpt lat="42.94949" lon="0.85172">
        <ele>1223.8</ele>
        <time>2019-08-17T12:20:07Z</time>
      </trkpt>
      <trkpt lat="42.94949" lon="0.8517">
        <ele>1223.4</ele>
        <time>2019-08-17T12:20:08Z</time>
      </trkpt>
      <trkpt lat="42.94949" lon="0.85169">
        <ele>1223.1</ele>
        <time>2019-08-17T12:20:09Z</time>
      </trkpt>
      <trkpt lat="42.94949" lon="0.85167">
        <ele>1222.8</ele>
        <time>2019-08-17T12:20:10Z</time>
      </trkpt>
      <trkpt lat="42.9495" lon="0.85166">
        <ele>1222.6</ele>
        <time>2019-08-17T12:20:11Z</time>
      </trkpt>
      <trkpt lat="42.9495" lon="0.85165">
        <ele>1222.4</ele>
        <time>2019-08-17T12:20:12Z</time>
      </trkpt>
      <trkpt lat="42.9495" lon="0.85164">
        <ele>1222.2</ele>
        <time>2019-08-17T12:20:13Z</time>
      </trkpt>
      <trkpt lat="42.9495" lon="0.85163">
        <ele>1222</ele>
        <time>2019-08-17T12:20:14Z</time>
      </trkpt>
      <trkpt lat="42.94951" lon="0.85163">
        <ele>1221.8</ele>
        <time>2019-08-17T12:20:15Z</time>
      </trkpt>
      <trkpt lat="42.94951" lon="0.85162">
        <ele>1221.7</ele>
        <time>2019-08-17T12:20:16Z</time>
      </trkpt>
      <trkpt lat="42.94951" lon="0.85161">
        <ele>1221.6</ele>
        <time>2019-08-17T12:20:17Z</time>
      </trkpt>
      <trkpt lat="42.94951" lon="0.85161">
        <ele>1221.5</ele>
        <time>2019-08-17T12:20:18Z</time>
      </trkpt>
      <trkpt lat="42.94951" lon="0.8516">
        <ele>1221.4</ele>
        <time>2019-08-17T12:20:19Z</time>
      </trkpt>
      <trkpt lat="42.94951" lon="0.85159">
        <ele>1221.2</ele>
        <time>2019-08-17T12:20:20Z</time>
      </trkpt>
      <trkpt lat="42.94952" lon="0.85158">
        <ele>1220.9</ele>
        <time>2019-08-17T12:20:21Z</time>
      </trkpt>
      <trkpt lat="42.94952" lon="0.85157">
        <ele>1220.7</ele>
        <time>2019-08-17T12:20:22Z</time>
      </trkpt>
      <trkpt lat="42.94952" lon="0.85156">
        <ele>1220.4</ele>
        <time>2019-08-17T12:20:23Z</time>
      </trkpt>
      <trkpt lat="42.94953" lon="0.85154">
        <ele>1220.1</ele>
        <time>2019-08-17T12:20:24Z</time>
      </trkpt>
      <trkpt lat="42.94952" lon="0.85153">
        <ele>1219.8</ele>
        <time>2019-08-17T12:20:25Z</time>
      </trkpt>
      <trkpt lat="42.94953" lon="0.85152">
        <ele>1219.5</ele>
        <time>2019-08-17T12:20:26Z</time>
      </trkpt>
      <trkpt lat="42.94953" lon="0.8515">
        <ele>1219.1</ele>
        <time>2019-08-17T12:20:27Z</time>
      </trkpt>
      <trkpt lat="42.94953" lon="0.85149">
        <ele>1218.8</ele>
        <time>2019-08-17T12:20:28Z</time>
      </trkpt>
      <trkpt lat="42.94953" lon="0.85148">
        <ele>1218.4</ele>
        <time>2019-08-17T12:20:29Z</time>
      </trkpt>
      <trkpt lat="42.94953" lon="0.85146">
        <ele>1218.1</ele>
        <time>2019-08-17T12:20:30Z</time>
      </trkpt>
      <trkpt lat="42.94953" lon="0.85145">
        <ele>1217.8</ele>
        <time>2019-08-17T12:20:31Z</time>
      </trkpt>
      <trkpt lat="42.94953" lon="0.85143">
        <ele>1217.5</ele>
        <time>2019-08-17T12:20:32Z</time>
      </trkpt>
      <trkpt lat="42.94953" lon="0.85142">
        <ele>1217.3</ele>
        <time>2019-08-17T12:20:33Z</time>
      </trkpt>
      <trkpt lat="42.94952" lon="0.85141">
        <ele>1217.1</ele>
        <time>2019-08-17T12:20:34Z</time>
      </trkpt>
      <trkpt lat="42.94952" lon="0.8514">
        <ele>1216.9</ele>
        <time>2019-08-17T12:20:35Z</time>
      </trkpt>
      <trkpt lat="42.94951" lon="0.8514">
        <ele>1216.7</ele>
        <time>2019-08-17T12:20:36Z</time>
      </trkpt>
      <trkpt lat="42.9495" lon="0.85139">
        <ele>1216.6</ele>
        <time>2019-08-17T12:20:37Z</time>
      </trkpt>
      <trkpt lat="42.9495" lon="0.8514">
        <ele>1216.5</ele>
        <time>2019-08-17T12:20:38Z</time>
      </trkpt>
      <trkpt lat="42.94949" lon="0.8514">
        <ele>1216.3</ele>
        <time>2019-08-17T12:20:39Z</time>
      </trkpt>
      <trkpt lat="42.94948" lon="0.85141">
        <ele>1216.1</ele>
        <time>2019-08-17T12:20:40Z</time>
      </trkpt>
      <trkpt lat="42.94947" lon="0.85141">
        <ele>1215.9</ele>
        <time>2019-08-17T12:20:41Z</time>
      </trkpt>
      <trkpt lat="42.94947" lon="0.85142">
        <ele>1215.8</ele>
        <time>2019-08-17T12:20:42Z</time>
      </trkpt>
      <trkpt lat="42.94946" lon="0.85142">
        <ele>1215.6</ele>
        <time>2019-08-17T12:20:43Z</time>
      </trkpt>
      <trkpt lat="42.94945" lon="0.85142">
        <ele>1215.4</ele>
        <time>2019-08-17T12:20:44Z</time>
      </trkpt>
      <trkpt lat="42.94944" lon="0.85142">
        <ele>1215.2</ele>
        <time>2019-08-17T12:20:45Z</time>
      </trkpt>
      <trkpt lat="42.94943" lon="0.85142">
        <ele>1214.9</ele>
        <time>2019-08-17T12:20:46Z</time>
      </trkpt>
      <trkpt lat="42.94942" lon="0.85141">
        <ele>1214.7</ele>
        <time>2019-08-17T12:20:47Z</time>
      </trkpt>
      <trkpt lat="42.94941" lon="0.85141">
        <ele>1214.4</ele>
        <time>2019-08-17T12:20:48Z</time>
      </trkpt>
      <trkpt lat="42.94939" lon="0.8514">
        <ele>1214.1</ele>
        <time>2019-08-17T12:20:49Z</time>
      </trkpt>
      <trkpt lat="42.94938" lon="0.8514">
        <ele>1213.8</ele>
        <time>2019-08-17T12:20:50Z</time>
      </trkpt>
      <trkpt lat="42.94937" lon="0.85139">
        <ele>1213.5</ele>
        <time>2019-08-17T12:20:51Z</time>
      </trkpt>
      <trkpt lat="42.94936" lon="0.85138">
        <ele>1213.2</ele>
        <time>2019-08-17T12:20:52Z</time>
      </trkpt>
      <trkpt lat="42.94934" lon="0.85138">
        <ele>1212.9</ele>
        <time>2019-08-17T12:20:53Z</time>
      </trkpt>
      <trkpt lat="42.94933" lon="0.85137">
        <ele>1212.5</ele>
        <time>2019-08-17T12:20:54Z</time>
      </trkpt>
      <trkpt lat="42.94932" lon="0.85137">
        <ele>1212.1</ele>
        <time>2019-08-17T12:20:55Z</time>
      </trkpt>
      <trkpt lat="42.94931" lon="0.85137">
        <ele>1211.8</ele>
        <time>2019-08-17T12:20:56Z</time>
      </trkpt>
      <trkpt lat="42.9493" lon="0.85137">
        <ele>1211.5</ele>
        <time>2019-08-17T12:20:57Z</time>
      </trkpt>
      <trkpt lat="42.94928" lon="0.85137">
        <ele>1211.2</ele>
        <time>2019-08-17T12:20:58Z</time>
      </trkpt>
      <trkpt lat="42.94927" lon="0.85137">
        <ele>1211</ele>
        <time>2019-08-17T12:20:59Z</time>
      </trkpt>
      <trkpt lat="42.94926" lon="0.85138">
        <ele>1210.8</ele>
        <time>2019-08-17T12:21:00Z</time>
      </trkpt>
      <trkpt lat="42.94925" lon="0.85139">
        <ele>1210.5</ele>
        <time>2019-08-17T12:21:01Z</time>
      </trkpt>
      <trkpt lat="42.94924" lon="0.85139">
        <ele>1210.3</ele>
        <time>2019-08-17T12:21:02Z</time>
      </trkpt>
      <trkpt lat="42.94924" lon="0.8514">
        <ele>1210.1</ele>
        <time>2019-08-17T12:21:03Z</time>
      </trkpt>
      <trkpt lat="42.94923" lon="0.85141">
        <ele>1209.9</ele>
        <time>2019-08-17T12:21:04Z</time>
      </trkpt>
      <trkpt lat="42.94922" lon="0.85141">
        <ele>1209.7</ele>
        <time>2019-08-17T12:21:05Z</time>
      </trkpt>
      <trkpt lat="42.94921" lon="0.85142">
        <ele>1209.5</ele>
        <time>2019-08-17T12:21:06Z</time>
      </trkpt>
      <trkpt lat="42.9492" lon="0.85142">
        <ele>1209.3</ele>
        <time>2019-08-17T12:21:07Z</time>
      </trkpt>
      <trkpt lat="42.94919" lon="0.85142">
        <ele>1209.1</ele>
        <time>2019-08-17T12:21:08Z</time>
      </trkpt>
      <trkpt lat="42.94918" lon="0.85142">
        <ele>1208.9</ele>
        <time>2019-08-17T12:21:09Z</time>
      </trkpt>
      <trkpt lat="42.94917" lon="0.85141">
        <ele>1208.7</ele>
        <time>2019-08-17T12:21:10Z</time>
      </trkpt>
      <trkpt lat="42.94916" lon="0.85141">
        <ele>1208.5</ele>
        <time>2019-08-17T12:21:11Z</time>
      </trkpt>
      <trkpt lat="42.94915" lon="0.85141">
        <ele>1208.3</ele>
        <time>2019-08-17T12:21:12Z</time>
      </trkpt>
      <trkpt lat="42.94915" lon="0.85141">
        <ele>1208.2</ele>
        <time>2019-08-17T12:21:13Z</time>
      </trkpt>
      <trkpt lat="42.94914" lon="0.85141">
        <ele>1208</ele>
        <time>2019-08-17T12:21:14Z</time>
      </trkpt>
      <trkpt lat="42.94913" lon="0.85141">
        <ele>1207.7</ele>
        <time>2019-08-17T12:21:15Z</time>
      </trkpt>
      <trkpt lat="42.94912" lon="0.85142">
        <ele>1207.5</ele>
        <time>2019-08-17T12:21:16Z</time>
      </trkpt>
      <trkpt lat="42.94911" lon="0.85142">
        <ele>1207.2</ele>
        <time>2019-08-17T12:21:17Z</time>
      </trkpt>
      <trkpt lat="42.94909" lon="0.85142">
        <ele>1207</ele>
        <time>2019-08-17T12:21:18Z</time>
      </trkpt>
      <trkpt lat="42.94908" lon="0.85142">
        <ele>1206.7</ele>
        <time>2019-08-17T12:21:19Z</time>
      </trkpt>
      <trkpt lat="42.94907" lon="0.85142">
        <ele>1206.5</ele>
        <time>2019-08-17T12:21:20Z</time>
      </trkpt>
      <trkpt lat="42.94906" lon="0.85141">
        <ele>1206.2</ele>
        <time>2019-08-17T12:21:21Z</time>
      </trkpt>
      <trkpt lat="42.94905" lon="0.85141">
        <ele>1206</ele>
        <time>2019-08-17T12:21:22Z</time>
      </trkpt>
      <trkpt lat="42.94904" lon="0.8514">
        <ele>1205.9</ele>
        <time>2019-08-17T12:21:23Z</time>
      </trkpt>
      <trkpt lat="42.94903" lon="0.8514">
        <ele>1205.8</ele>
        <time>2019-08-17T12:21:24Z</time>
      </trkpt>
      <trkpt lat="42.94903" lon="0.8514">
        <ele>1205.7</ele>
        <time>2019-08-17T12:21:25Z</time>
      </trkpt>
      <trkpt lat="42.94903" lon="0.8514">
        <ele>1205.6</ele>
        <time>2019-08-17T12:21:26Z</time>
      </trkpt>
      <trkpt lat="42.94902" lon="0.85141">
        <ele>1205.4</ele>
        <time>2019-08-17T12:21:27Z</time>
      </trkpt>
      <trkpt lat="42.94901" lon="0.85141">
        <ele>1205.2</ele>
        <time>2019-08-17T12:21:28Z</time>
      </trkpt>
      <trkpt lat="42.949" lon="0.85142">
        <ele>1205</ele>
        <time>2019-08-17T12:21:29Z</time>
      </trkpt>
      <trkpt lat="42.94899" lon="0.85142">
        <ele>1204.8</ele>
        <time>2019-08-17T12:21:30Z</time>
      </trkpt>
      <trkpt lat="42.94898" lon="0.85143">
        <ele>1204.6</ele>
        <time>2019-08-17T12:21:31Z</time>
      </trkpt>
      <trkpt lat="42.94897" lon="0.85144">
        <ele>1204.5</ele>
        <time>2019-08-17T12:21:32Z</time>
      </trkpt>
      <trkpt lat="42.94896" lon="0.85144">
        <ele>1204.3</ele>
        <time>2019-08-17T12:21:33Z</time>
      </trkpt>
      <trkpt lat="42.94896" lon="0.85145">
        <ele>1204.2</ele>
        <time>2019-08-17T12:21:34Z</time>
      </trkpt>
      <trkpt lat="42.94895" lon="0.85145">
        <ele>1204</ele>
        <time>2019-08-17T12:21:35Z</time>
      </trkpt>
      <trkpt lat="42.94894" lon="0.85146">
        <ele>1203.8</ele>
        <time>2019-08-17T12:21:36Z</time>
      </trkpt>
      <trkpt lat="42.94893" lon="0.85146">
        <ele>1203.7</ele>
        <time>2019-08-17T12:21:37Z</time>
      </trkpt>
      <trkpt lat="42.94892" lon="0.85147">
        <ele>1203.5</ele>
        <time>2019-08-17T12:21:38Z</time>
      </trkpt>
      <trkpt lat="42.94891" lon="0.85148">
        <ele>1203.4</ele>
        <time>2019-08-17T12:21:39Z</time>
      </trkpt>
      <trkpt lat="42.94891" lon="0.85148">
        <ele>1203.2</ele>
        <time>2019-08-17T12:21:40Z</time>
      </trkpt>
      <trkpt lat="42.9489" lon="0.85149">
        <ele>1203</ele>
        <time>2019-08-17T12:21:41Z</time>
      </trkpt>
      <trkpt lat="42.94889" lon="0.85149">
        <ele>1202.8</ele>
        <time>2019-08-17T12:21:42Z</time>
      </trkpt>
      <trkpt lat="42.94888" lon="0.8515">
        <ele>1202.7</ele>
        <time>2019-08-17T12:21:43Z</time>
      </trkpt>
      <trkpt lat="42.94887" lon="0.8515">
        <ele>1202.5</ele>
        <time>2019-08-17T12:21:44Z</time>
      </trkpt>
      <trkpt lat="42.94886" lon="0.85151">
        <ele>1202.3</ele>
        <time>2019-08-17T12:21:45Z</time>
      </trkpt>
      <trkpt lat="42.94885" lon="0.85151">
        <ele>1202.1</ele>
        <time>2019-08-17T12:21:46Z</time>
      </trkpt>
      <trkpt lat="42.94884" lon="0.85151">
        <ele>1201.8</ele>
        <time>2019-08-17T12:21:47Z</time>
      </trkpt>
      <trkpt lat="42.94883" lon="0.85151">
        <ele>1201.6</ele>
        <time>2019-08-17T12:21:48Z</time>
      </trkpt>
      <trkpt lat="42.94882" lon="0.85151">
        <ele>1201.3</ele>
        <time>2019-08-17T12:21:49Z</time>
      </trkpt>
      <trkpt lat="42.94881" lon="0.85151">
        <ele>1201.1</ele>
        <time>2019-08-17T12:21:50Z</time>
      </trkpt>
      <trkpt lat="42.94879" lon="0.85151">
        <ele>1200.8</ele>
        <time>2019-08-17T12:21:51Z</time>
      </trkpt>
      <trkpt lat="42.94878" lon="0.8515">
        <ele>1200.6</ele>
        <time>2019-08-17T12:21:52Z</time>
      </trkpt>
      <trkpt lat="42.94877" lon="0.8515">
        <ele>1200.4</ele>
        <time>2019-08-17T12:21:53Z</time>
      </trkpt>
      <trkpt lat="42.94876" lon="0.8515">
        <ele>1200.2</ele>
        <time>2019-08-17T12:21:54Z</time>
      </trkpt>
      <trkpt lat="42.94875" lon="0.85151">
        <ele>1200</ele>
        <time>2019-08-17T12:21:55Z</time>
      </trkpt>
      <trkpt lat="42.94874" lon="0.85151">
        <ele>1199.8</ele>
        <time>2019-08-17T12:21:56Z</time>
      </trkpt>
      <trkpt lat="42.94873" lon="0.85152">
        <ele>1199.7</ele>
        <time>2019-08-17T12:21:57Z</time>
      </trkpt>
      <trkpt lat="42.94873" lon="0.85152">
        <ele>1199.5</ele>
        <time>2019-08-17T12:21:58Z</time>
      </trkpt>
      <trkpt lat="42.94872" lon="0.85153">
        <ele>1199.4</ele>
        <time>2019-08-17T12:21:59Z</time>
      </trkpt>
      <trkpt lat="42.94871" lon="0.85153">
        <ele>1199.2</ele>
        <time>2019-08-17T12:22:00Z</time>
      </trkpt>
      <trkpt lat="42.9487" lon="0.85154">
        <ele>1199.1</ele>
        <time>2019-08-17T12:22:01Z</time>
      </trkpt>
      <trkpt lat="42.94869" lon="0.85154">
        <ele>1198.9</ele>
        <time>2019-08-17T12:22:02Z</time>
      </trkpt>
      <trkpt lat="42.94869" lon="0.85154">
        <ele>1198.7</ele>
        <time>2019-08-17T12:22:03Z</time>
      </trkpt>
      <trkpt lat="42.94868" lon="0.85155">
        <ele>1198.5</ele>
        <time>2019-08-17T12:22:04Z</time>
      </trkpt>
      <trkpt lat="42.94867" lon="0.85155">
        <ele>1198.3</ele>
        <time>2019-08-17T12:22:05Z</time>
      </trkpt>
      <trkpt lat="42.94866" lon="0.85156">
        <ele>1198.1</ele>
        <time>2019-08-17T12:22:06Z</time>
      </trkpt>
      <trkpt lat="42.94866" lon="0.85156">
        <ele>1197.9</ele>
        <time>2019-08-17T12:22:07Z</time>
      </trkpt>
      <trkpt lat="42.94865" lon="0.85157">
        <ele>1197.7</ele>
        <time>2019-08-17T12:22:08Z</time>
      </trkpt>
      <trkpt lat="42.94864" lon="0.85158">
        <ele>1197.5</ele>
        <time>2019-08-17T12:22:09Z</time>
      </trkpt>
      <trkpt lat="42.94863" lon="0.85159">
        <ele>1197.3</ele>
        <time>2019-08-17T12:22:10Z</time>
      </trkpt>
      <trkpt lat="42.94862" lon="0.8516">
        <ele>1197</ele>
        <time>2019-08-17T12:22:11Z</time>
      </trkpt>
      <trkpt lat="42.94861" lon="0.85161">
        <ele>1196.8</ele>
        <time>2019-08-17T12:22:12Z</time>
      </trkpt>
      <trkpt lat="42.9486" lon="0.85162">
        <ele>1196.5</ele>
        <time>2019-08-17T12:22:13Z</time>
      </trkpt>
      <trkpt lat="42.94859" lon="0.85162">
        <ele>1196.3</ele>
        <time>2019-08-17T12:22:14Z</time>
      </trkpt>
      <trkpt lat="42.94858" lon="0.85163">
        <ele>1196</ele>
        <time>2019-08-17T12:22:15Z</time>
      </trkpt>
      <trkpt lat="42.94857" lon="0.85164">
        <ele>1195.7</ele>
        <time>2019-08-17T12:22:16Z</time>
      </trkpt>
      <trkpt lat="42.94856" lon="0.85165">
        <ele>1195.4</ele>
        <time>2019-08-17T12:22:17Z</time>
      </trkpt>
      <trkpt lat="42.94855" lon="0.85166">
        <ele>1195.2</ele>
        <time>2019-08-17T12:22:18Z</time>
      </trkpt>
      <trkpt lat="42.94854" lon="0.85167">
        <ele>1194.9</ele>
        <time>2019-08-17T12:22:19Z</time>
      </trkpt>
      <trkpt lat="42.94853" lon="0.85168">
        <ele>1194.7</ele>
        <time>2019-08-17T12:22:20Z</time>
      </trkpt>
      <trkpt lat="42.94852" lon="0.85168">
        <ele>1194.5</ele>
        <time>2019-08-17T12:22:21Z</time>
      </trkpt>
      <trkpt lat="42.94851" lon="0.85169">
        <ele>1194.2</ele>
        <time>2019-08-17T12:22:22Z</time>
      </trkpt>
      <trkpt lat="42.9485" lon="0.8517">
        <ele>1194</ele>
        <time>2019-08-17T12:22:23Z</time>
      </trkpt>
      <trkpt lat="42.94849" lon="0.8517">
        <ele>1193.8</ele>
        <time>2019-08-17T12:22:24Z</time>
      </trkpt>
      <trkpt lat="42.94848" lon="0.85171">
        <ele>1193.6</ele>
        <time>2019-08-17T12:22:25Z</time>
      </trkpt>
      <trkpt lat="42.94847" lon="0.85171">
        <ele>1193.4</ele>
        <time>2019-08-17T12:22:26Z</time>
      </trkpt>
      <trkpt lat="42.94847" lon="0.85172">
        <ele>1193.2</ele>
        <time>2019-08-17T12:22:27Z</time>
      </trkpt>
      <trkpt lat="42.94846" lon="0.85173">
        <ele>1192.9</ele>
        <time>2019-08-17T12:22:28Z</time>
      </trkpt>
      <trkpt lat="42.94845" lon="0.85173">
        <ele>1192.7</ele>
        <time>2019-08-17T12:22:29Z</time>
      </trkpt>
      <trkpt lat="42.94844" lon="0.85174">
        <ele>1192.5</ele>
        <time>2019-08-17T12:22:30Z</time>
      </trkpt>
      <trkpt lat="42.94843" lon="0.85174">
        <ele>1192.3</ele>
        <time>2019-08-17T12:22:31Z</time>
      </trkpt>
      <trkpt lat="42.94842" lon="0.85175">
        <ele>1192.1</ele>
        <time>2019-08-17T12:22:32Z</time>
      </trkpt>
      <trkpt lat="42.94841" lon="0.85176">
        <ele>1191.8</ele>
        <time>2019-08-17T12:22:33Z</time>
      </trkpt>
      <trkpt lat="42.94841" lon="0.85177">
        <ele>1191.6</ele>
        <time>2019-08-17T12:22:34Z</time>
      </trkpt>
      <trkpt lat="42.9484" lon="0.85177">
        <ele>1191.4</ele>
        <time>2019-08-17T12:22:35Z</time>
      </trkpt>
      <trkpt lat="42.94838" lon="0.85179">
        <ele>1191</ele>
        <time>2019-08-17T12:22:36Z</time>
      </trkpt>
      <trkpt lat="42.94838" lon="0.8518">
        <ele>1190.8</ele>
        <time>2019-08-17T12:22:37Z</time>
      </trkpt>
      <trkpt lat="42.94837" lon="0.85181">
        <ele>1190.6</ele>
        <time>2019-08-17T12:22:38Z</time>
      </trkpt>
      <trkpt lat="42.94836" lon="0.85181">
        <ele>1190.4</ele>
        <time>2019-08-17T12:22:39Z</time>
      </trkpt>
      <trkpt lat="42.94836" lon="0.85182">
        <ele>1190.2</ele>
        <time>2019-08-17T12:22:40Z</time>
      </trkpt>
      <trkpt lat="42.94835" lon="0.85183">
        <ele>1190</ele>
        <time>2019-08-17T12:22:41Z</time>
      </trkpt>
      <trkpt lat="42.94835" lon="0.85184">
        <ele>1189.7</ele>
        <time>2019-08-17T12:22:42Z</time>
      </trkpt>
      <trkpt lat="42.94834" lon="0.85185">
        <ele>1189.5</ele>
        <time>2019-08-17T12:22:43Z</time>
      </trkpt>
      <trkpt lat="42.94833" lon="0.85186">
        <ele>1189.3</ele>
        <time>2019-08-17T12:22:44Z</time>
      </trkpt>
      <trkpt lat="42.94833" lon="0.85186">
        <ele>1189.1</ele>
        <time>2019-08-17T12:22:45Z</time>
      </trkpt>
      <trkpt lat="42.94832" lon="0.85187">
        <ele>1188.8</ele>
        <time>2019-08-17T12:22:46Z</time>
      </trkpt>
      <trkpt lat="42.94831" lon="0.85188">
        <ele>1188.6</ele>
        <time>2019-08-17T12:22:47Z</time>
      </trkpt>
      <trkpt lat="42.94831" lon="0.85189">
        <ele>1188.4</ele>
        <time>2019-08-17T12:22:48Z</time>
      </trkpt>
      <trkpt lat="42.9483" lon="0.8519">
        <ele>1188.2</ele>
        <time>2019-08-17T12:22:49Z</time>
      </trkpt>
      <trkpt lat="42.94829" lon="0.85191">
        <ele>1187.9</ele>
        <time>2019-08-17T12:22:50Z</time>
      </trkpt>
      <trkpt lat="42.94829" lon="0.85191">
        <ele>1187.7</ele>
        <time>2019-08-17T12:22:51Z</time>
      </trkpt>
      <trkpt lat="42.94828" lon="0.85192">
        <ele>1187.4</ele>
        <time>2019-08-17T12:22:52Z</time>
      </trkpt>
      <trkpt lat="42.94828" lon="0.85193">
        <ele>1187.2</ele>
        <time>2019-08-17T12:22:53Z</time>
      </trkpt>
      <trkpt lat="42.94827" lon="0.85194">
        <ele>1186.9</ele>
        <time>2019-08-17T12:22:54Z</time>
      </trkpt>
      <trkpt lat="42.94826" lon="0.85195">
        <ele>1186.6</ele>
        <time>2019-08-17T12:22:55Z</time>
      </trkpt>
      <trkpt lat="42.94826" lon="0.85196">
        <ele>1186.4</ele>
        <time>2019-08-17T12:22:56Z</time>
      </trkpt>
      <trkpt lat="42.94825" lon="0.85196">
        <ele>1186.1</ele>
        <time>2019-08-17T12:22:57Z</time>
      </trkpt>
      <trkpt lat="42.94824" lon="0.85197">
        <ele>1185.9</ele>
        <time>2019-08-17T12:22:58Z</time>
      </trkpt>
      <trkpt lat="42.94824" lon="0.85198">
        <ele>1185.6</ele>
        <time>2019-08-17T12:22:59Z</time>
      </trkpt>
      <trkpt lat="42.94823" lon="0.85199">
        <ele>1185.4</ele>
        <time>2019-08-17T12:23:00Z</time>
      </trkpt>
      <trkpt lat="42.94823" lon="0.852">
        <ele>1185.1</ele>
        <time>2019-08-17T12:23:01Z</time>
      </trkpt>
      <trkpt lat="42.94822" lon="0.85201">
        <ele>1184.9</ele>
        <time>2019-08-17T12:23:02Z</time>
      </trkpt>
      <trkpt lat="42.94821" lon="0.85202">
        <ele>1184.6</ele>
        <time>2019-08-17T12:23:03Z</time>
      </trkpt>
      <trkpt lat="42.94821" lon="0.85202">
        <ele>1184.4</ele>
        <time>2019-08-17T12:23:04Z</time>
      </trkpt>
      <trkpt lat="42.9482" lon="0.85203">
        <ele>1184.1</ele>
        <time>2019-08-17T12:23:05Z</time>
      </trkpt>
      <trkpt lat="42.94819" lon="0.85204">
        <ele>1183.9</ele>
        <time>2019-08-17T12:23:06Z</time>
      </trkpt>
      <trkpt lat="42.94818" lon="0.85205">
        <ele>1183.6</ele>
        <time>2019-08-17T12:23:07Z</time>
      </trkpt>
      <trkpt lat="42.94818" lon="0.85205">
        <ele>1183.4</ele>
        <time>2019-08-17T12:23:08Z</time>
      </trkpt>
      <trkpt lat="42.94817" lon="0.85206">
        <ele>1183.1</ele>
        <time>2019-08-17T12:23:09Z</time>
      </trkpt>
      <trkpt lat="42.94816" lon="0.85207">
        <ele>1182.8</ele>
        <time>2019-08-17T12:23:10Z</time>
      </trkpt>
      <trkpt lat="42.94815" lon="0.85208">
        <ele>1182.6</ele>
        <time>2019-08-17T12:23:11Z</time>
      </trkpt>
      <trkpt lat="42.94815" lon="0.85209">
        <ele>1182.3</ele>
        <time>2019-08-17T12:23:12Z</time>
      </trkpt>
      <trkpt lat="42.94814" lon="0.8521">
        <ele>1182</ele>
        <time>2019-08-17T12:23:13Z</time>
      </trkpt>
      <trkpt lat="42.94813" lon="0.85211">
        <ele>1181.7</ele>
        <time>2019-08-17T12:23:14Z</time>
      </trkpt>
      <trkpt lat="42.94813" lon="0.85212">
        <ele>1181.4</ele>
        <time>2019-08-17T12:23:15Z</time>
      </trkpt>
      <trkpt lat="42.94812" lon="0.85213">
        <ele>1181.1</ele>
        <time>2019-08-17T12:23:16Z</time>
      </trkpt>
      <trkpt lat="42.94811" lon="0.85214">
        <ele>1180.8</ele>
        <time>2019-08-17T12:23:17Z</time>
      </trkpt>
      <trkpt lat="42.94811" lon="0.85215">
        <ele>1180.5</ele>
        <time>2019-08-17T12:23:18Z</time>
      </trkpt>
      <trkpt lat="42.9481" lon="0.85216">
        <ele>1180.1</ele>
        <time>2019-08-17T12:23:19Z</time>
      </trkpt>
      <trkpt lat="42.9481" lon="0.85218">
        <ele>1179.8</ele>
        <time>2019-08-17T12:23:20Z</time>
      </trkpt>
      <trkpt lat="42.94809" lon="0.85219">
        <ele>1179.5</ele>
        <time>2019-08-17T12:23:21Z</time>
      </trkpt>
      <trkpt lat="42.94809" lon="0.8522">
        <ele>1179.2</ele>
        <time>2019-08-17T12:23:22Z</time>
      </trkpt>
      <trkpt lat="42.94808" lon="0.85221">
        <ele>1178.9</ele>
        <time>2019-08-17T12:23:23Z</time>
      </trkpt>
      <trkpt lat="42.94808" lon="0.85222">
        <ele>1178.6</ele>
        <time>2019-08-17T12:23:24Z</time>
      </trkpt>
      <trkpt lat="42.94808" lon="0.85223">
        <ele>1178.3</ele>
        <time>2019-08-17T12:23:25Z</time>
      </trkpt>
      <trkpt lat="42.94808" lon="0.85224">
        <ele>1178</ele>
        <time>2019-08-17T12:23:26Z</time>
      </trkpt>
      <trkpt lat="42.94807" lon="0.85226">
        <ele>1177.7</ele>
        <time>2019-08-17T12:23:27Z</time>
      </trkpt>
      <trkpt lat="42.94807" lon="0.85227">
        <ele>1177.5</ele>
        <time>2019-08-17T12:23:28Z</time>
      </trkpt>
      <trkpt lat="42.94807" lon="0.85228">
        <ele>1177.3</ele>
        <time>2019-08-17T12:23:29Z</time>
      </trkpt>
      <trkpt lat="42.94807" lon="0.85229">
        <ele>1177</ele>
        <time>2019-08-17T12:23:30Z</time>
      </trkpt>
      <trkpt lat="42.94806" lon="0.8523">
        <ele>1176.8</ele>
        <time>2019-08-17T12:23:31Z</time>
      </trkpt>
      <trkpt lat="42.94806" lon="0.85231">
        <ele>1176.5</ele>
        <time>2019-08-17T12:23:32Z</time>
      </trkpt>
      <trkpt lat="42.94806" lon="0.85232">
        <ele>1176.3</ele>
        <time>2019-08-17T12:23:33Z</time>
      </trkpt>
      <trkpt lat="42.94805" lon="0.85233">
        <ele>1176.1</ele>
        <time>2019-08-17T12:23:34Z</time>
      </trkpt>
      <trkpt lat="42.94805" lon="0.85234">
        <ele>1175.8</ele>
        <time>2019-08-17T12:23:35Z</time>
      </trkpt>
      <trkpt lat="42.94804" lon="0.85236">
        <ele>1175.4</ele>
        <time>2019-08-17T12:23:36Z</time>
      </trkpt>
      <trkpt lat="42.94803" lon="0.85237">
        <ele>1175.2</ele>
        <time>2019-08-17T12:23:37Z</time>
      </trkpt>
      <trkpt lat="42.94803" lon="0.85237">
        <ele>1175</ele>
        <time>2019-08-17T12:23:38Z</time>
      </trkpt>
      <trkpt lat="42.94802" lon="0.85238">
        <ele>1174.7</ele>
        <time>2019-08-17T12:23:39Z</time>
      </trkpt>
      <trkpt lat="42.94802" lon="0.85239">
        <ele>1174.5</ele>
        <time>2019-08-17T12:23:40Z</time>
      </trkpt>
      <trkpt lat="42.94801" lon="0.8524">
        <ele>1174.2</ele>
        <time>2019-08-17T12:23:41Z</time>
      </trkpt>
      <trkpt lat="42.94801" lon="0.85241">
        <ele>1173.9</ele>
        <time>2019-08-17T12:23:42Z</time>
      </trkpt>
      <trkpt lat="42.948" lon="0.85241">
        <ele>1173.6</ele>
        <time>2019-08-17T12:23:43Z</time>
      </trkpt>
      <trkpt lat="42.948" lon="0.85242">
        <ele>1173.3</ele>
        <time>2019-08-17T12:23:44Z</time>
      </trkpt>
      <trkpt lat="42.94799" lon="0.85243">
        <ele>1173.1</ele>
        <time>2019-08-17T12:23:45Z</time>
      </trkpt>
      <trkpt lat="42.94799" lon="0.85244">
        <ele>1172.8</ele>
        <time>2019-08-17T12:23:46Z</time>
      </trkpt>
      <trkpt lat="42.94798" lon="0.85244">
        <ele>1172.5</ele>
        <time>2019-08-17T12:23:47Z</time>
      </trkpt>
      <trkpt lat="42.94798" lon="0.85245">
        <ele>1172.2</ele>
        <time>2019-08-17T12:23:48Z</time>
      </trkpt>
      <trkpt lat="42.94797" lon="0.85246">
        <ele>1172</ele>
        <time>2019-08-17T12:23:49Z</time>
      </trkpt>
      <trkpt lat="42.94797" lon="0.85247">
        <ele>1171.7</ele>
        <time>2019-08-17T12:23:50Z</time>
      </trkpt>
      <trkpt lat="42.94796" lon="0.85248">
        <ele>1171.4</ele>
        <time>2019-08-17T12:23:51Z</time>
      </trkpt>
      <trkpt lat="42.94796" lon="0.85248">
        <ele>1171.2</ele>
        <time>2019-08-17T12:23:52Z</time>
      </trkpt>
      <trkpt lat="42.94796" lon="0.85249">
        <ele>1171</ele>
        <time>2019-08-17T12:23:53Z</time>
      </trkpt>
      <trkpt lat="42.94795" lon="0.85249">
        <ele>1170.9</ele>
        <time>2019-08-17T12:23:54Z</time>
      </trkpt>
      <trkpt lat="42.94795" lon="0.8525">
        <ele>1170.7</ele>
        <time>2019-08-17T12:23:55Z</time>
      </trkpt>
      <trkpt lat="42.94794" lon="0.85252">
        <ele>1170.2</ele>
        <time>2019-08-17T12:23:56Z</time>
      </trkpt>
      <trkpt lat="42.94793" lon="0.85253">
        <ele>1169.8</ele>
        <time>2019-08-17T12:23:57Z</time>
      </trkpt>
      <trkpt lat="42.94793" lon="0.85254">
        <ele>1169.5</ele>
        <time>2019-08-17T12:23:58Z</time>
      </trkpt>
      <trkpt lat="42.94792" lon="0.85256">
        <ele>1169.1</ele>
        <time>2019-08-17T12:23:59Z</time>
      </trkpt>
      <trkpt lat="42.94792" lon="0.85257">
        <ele>1168.8</ele>
        <time>2019-08-17T12:24:00Z</time>
      </trkpt>
      <trkpt lat="42.94791" lon="0.85258">
        <ele>1168.4</ele>
        <time>2019-08-17T12:24:01Z</time>
      </trkpt>
      <trkpt lat="42.94791" lon="0.85259">
        <ele>1168</ele>
        <time>2019-08-17T12:24:02Z</time>
      </trkpt>
      <trkpt lat="42.9479" lon="0.8526">
        <ele>1167.7</ele>
        <time>2019-08-17T12:24:03Z</time>
      </trkpt>
      <trkpt lat="42.9479" lon="0.85261">
        <ele>1167.5</ele>
        <time>2019-08-17T12:24:04Z</time>
      </trkpt>
      <trkpt lat="42.94789" lon="0.85261">
        <ele>1167.4</ele>
        <time>2019-08-17T12:24:05Z</time>
      </trkpt>
      <trkpt lat="42.94789" lon="0.85262">
        <ele>1167.2</ele>
        <time>2019-08-17T12:24:06Z</time>
      </trkpt>
      <trkpt lat="42.94788" lon="0.85263">
        <ele>1167</ele>
        <time>2019-08-17T12:24:07Z</time>
      </trkpt>
      <trkpt lat="42.94787" lon="0.85264">
        <ele>1166.7</ele>
        <time>2019-08-17T12:24:08Z</time>
      </trkpt>
      <trkpt lat="42.94787" lon="0.85265">
        <ele>1166.4</ele>
        <time>2019-08-17T12:24:09Z</time>
      </trkpt>
      <trkpt lat="42.94786" lon="0.85266">
        <ele>1166.2</ele>
        <time>2019-08-17T12:24:10Z</time>
      </trkpt>
      <trkpt lat="42.94785" lon="0.85267">
        <ele>1165.9</ele>
        <time>2019-08-17T12:24:11Z</time>
      </trkpt>
      <trkpt lat="42.94785" lon="0.85268">
        <ele>1165.7</ele>
        <time>2019-08-17T12:24:12Z</time>
      </trkpt>
      <trkpt lat="42.94784" lon="0.85269">
        <ele>1165.4</ele>
        <time>2019-08-17T12:24:13Z</time>
      </trkpt>
      <trkpt lat="42.94784" lon="0.8527">
        <ele>1165.1</ele>
        <time>2019-08-17T12:24:14Z</time>
      </trkpt>
      <trkpt lat="42.94783" lon="0.85271">
        <ele>1164.9</ele>
        <time>2019-08-17T12:24:15Z</time>
      </trkpt>
      <trkpt lat="42.94783" lon="0.85272">
        <ele>1164.5</ele>
        <time>2019-08-17T12:24:16Z</time>
      </trkpt>
      <trkpt lat="42.94782" lon="0.85274">
        <ele>1164.2</ele>
        <time>2019-08-17T12:24:17Z</time>
      </trkpt>
      <trkpt lat="42.94782" lon="0.85274">
        <ele>1164</ele>
        <time>2019-08-17T12:24:18Z</time>
      </trkpt>
      <trkpt lat="42.94782" lon="0.85275">
        <ele>1163.9</ele>
        <time>2019-08-17T12:24:19Z</time>
      </trkpt>
      <trkpt lat="42.94782" lon="0.85275">
        <ele>1163.8</ele>
        <time>2019-08-17T12:24:20Z</time>
      </trkpt>
      <trkpt lat="42.94782" lon="0.85276">
        <ele>1163.6</ele>
        <time>2019-08-17T12:24:21Z</time>
      </trkpt>
      <trkpt lat="42.94782" lon="0.85276">
        <ele>1163.5</ele>
        <time>2019-08-17T12:24:22Z</time>
      </trkpt>
      <trkpt lat="42.94782" lon="0.85277">
        <ele>1163.4</ele>
        <time>2019-08-17T12:24:23Z</time>
      </trkpt>
      <trkpt lat="42.94782" lon="0.85277">
        <ele>1163.1</ele>
        <time>2019-08-17T12:24:24Z</time>
      </trkpt>
      <trkpt lat="42.94781" lon="0.85278">
        <ele>1162.8</ele>
        <time>2019-08-17T12:24:25Z</time>
      </trkpt>
      <trkpt lat="42.94781" lon="0.85279">
        <ele>1162.5</ele>
        <time>2019-08-17T12:24:26Z</time>
      </trkpt>
      <trkpt lat="42.9478" lon="0.8528">
        <ele>1162.2</ele>
        <time>2019-08-17T12:24:27Z</time>
      </trkpt>
      <trkpt lat="42.94779" lon="0.85281">
        <ele>1162</ele>
        <time>2019-08-17T12:24:28Z</time>
      </trkpt>
      <trkpt lat="42.94779" lon="0.85282">
        <ele>1161.9</ele>
        <time>2019-08-17T12:24:29Z</time>
      </trkpt>
      <trkpt lat="42.94779" lon="0.85282">
        <ele>1161.8</ele>
        <time>2019-08-17T12:24:30Z</time>
      </trkpt>
      <trkpt lat="42.94779" lon="0.85282">
        <ele>1161.7</ele>
        <time>2019-08-17T12:24:31Z</time>
      </trkpt>
      <trkpt lat="42.94778" lon="0.85282">
        <ele>1161.6</ele>
        <time>2019-08-17T12:24:32Z</time>
      </trkpt>
      <trkpt lat="42.94778" lon="0.85283">
        <ele>1161.5</ele>
        <time>2019-08-17T12:24:33Z</time>
      </trkpt>
      <trkpt lat="42.94777" lon="0.85283">
        <ele>1161.1</ele>
        <time>2019-08-17T12:24:34Z</time>
      </trkpt>
      <trkpt lat="42.94776" lon="0.85283">
        <ele>1160.9</ele>
        <time>2019-08-17T12:24:35Z</time>
      </trkpt>
      <trkpt lat="42.94775" lon="0.85283">
        <ele>1160.7</ele>
        <time>2019-08-17T12:24:36Z</time>
      </trkpt>
      <trkpt lat="42.94775" lon="0.85284">
        <ele>1160.6</ele>
        <time>2019-08-17T12:24:37Z</time>
      </trkpt>
      <trkpt lat="42.94775" lon="0.85284">
        <ele>1160.5</ele>
        <time>2019-08-17T12:24:38Z</time>
      </trkpt>
      <trkpt lat="42.94775" lon="0.85284">
        <ele>1160.5</ele>
        <time>2019-08-17T12:24:39Z</time>
      </trkpt>
      <trkpt lat="42.94775" lon="0.85284">
        <ele>1160.5</ele>
        <time>2019-08-17T12:24:40Z</time>
      </trkpt>
      <trkpt lat="42.94775" lon="0.85284">
        <ele>1160.5</ele>
        <time>2019-08-17T12:24:41Z</time>
      </trkpt>
      <trkpt lat="42.94775" lon="0.85284">
        <ele>1160.5</ele>
        <time>2019-08-17T12:24:42Z</time>
      </trkpt>
      <trkpt lat="42.94775" lon="0.85284">
        <ele>1160.5</ele>
        <time>2019-08-17T12:24:43Z</time>
      </trkpt>
      <trkpt lat="42.94775" lon="0.85284">
        <ele>1160.5</ele>
        <time>2019-08-17T12:24:44Z</time>
      </trkpt>
      <trkpt lat="42.94775" lon="0.85284">
        <ele>1160.5</ele>
        <time>2019-08-17T12:24:45Z</time>
      </trkpt>
      <trkpt lat="42.94775" lon="0.85284">
        <ele>1160.5</ele>
        <time>2019-08-17T12:24:46Z</time>
      </trkpt>
      <trkpt lat="42.94775" lon="0.85284">
        <ele>1160.5</ele>
        <time>2019-08-17T12:24:47Z</time>
      </trkpt>
      <trkpt lat="42.94774" lon="0.85284">
        <ele>1160.5</ele>
        <time>2019-08-17T12:24:48Z</time>
      </trkpt>
      <trkpt lat="42.94774" lon="0.85284">
        <ele>1160.5</ele>
        <time>2019-08-17T12:24:49Z</time>
      </trkpt>
      <trkpt lat="42.94774" lon="0.85284">
        <ele>1160.4</ele>
        <time>2019-08-17T12:24:50Z</time>
      </trkpt>
      <trkpt lat="42.94774" lon="0.85284">
        <ele>1160.4</ele>
        <time>2019-08-17T12:24:51Z</time>
      </trkpt>
      <trkpt lat="42.94774" lon="0.85284">
        <ele>1160.4</ele>
        <time>2019-08-17T12:24:52Z</time>
      </trkpt>
      <trkpt lat="42.94774" lon="0.85284">
        <ele>1160.4</ele>
        <time>2019-08-17T12:24:53Z</time>
      </trkpt>
      <trkpt lat="42.94774" lon="0.85284">
        <ele>1160.4</ele>
        <time>2019-08-17T12:24:54Z</time>
      </trkpt>
      <trkpt lat="42.94774" lon="0.85284">
        <ele>1160.4</ele>
        <time>2019-08-17T12:24:55Z</time>
      </trkpt>
      <trkpt lat="42.94774" lon="0.85284">
        <ele>1160.4</ele>
        <time>2019-08-17T12:24:56Z</time>
      </trkpt>
      <trkpt lat="42.94774" lon="0.85284">
        <ele>1160.4</ele>
        <time>2019-08-17T12:24:57Z</time>
      </trkpt>
      <trkpt lat="42.94774" lon="0.85284">
        <ele>1160.3</ele>
        <time>2019-08-17T12:24:58Z</time>
      </trkpt>
      <trkpt lat="42.94774" lon="0.85284">
        <ele>1160.3</ele>
        <time>2019-08-17T12:24:59Z</time>
      </trkpt>
      <trkpt lat="42.94774" lon="0.85285">
        <ele>1160.2</ele>
        <time>2019-08-17T12:25:00Z</time>
      </trkpt>
      <trkpt lat="42.94773" lon="0.85285">
        <ele>1160.1</ele>
        <time>2019-08-17T12:25:01Z</time>
      </trkpt>
      <trkpt lat="42.94773" lon="0.85286">
        <ele>1159.8</ele>
        <time>2019-08-17T12:25:02Z</time>
      </trkpt>
      <trkpt lat="42.94772" lon="0.85287">
        <ele>1159.5</ele>
        <time>2019-08-17T12:25:03Z</time>
      </trkpt>
      <trkpt lat="42.94771" lon="0.85288">
        <ele>1159.4</ele>
        <time>2019-08-17T12:25:04Z</time>
      </trkpt>
      <trkpt lat="42.94771" lon="0.85288">
        <ele>1159.2</ele>
        <time>2019-08-17T12:25:05Z</time>
      </trkpt>
      <trkpt lat="42.9477" lon="0.85289">
        <ele>1159</ele>
        <time>2019-08-17T12:25:06Z</time>
      </trkpt>
      <trkpt lat="42.9477" lon="0.85289">
        <ele>1158.9</ele>
        <time>2019-08-17T12:25:07Z</time>
      </trkpt>
      <trkpt lat="42.94769" lon="0.8529">
        <ele>1158.8</ele>
        <time>2019-08-17T12:25:08Z</time>
      </trkpt>
      <trkpt lat="42.94769" lon="0.8529">
        <ele>1158.7</ele>
        <time>2019-08-17T12:25:09Z</time>
      </trkpt>
      <trkpt lat="42.94769" lon="0.85291">
        <ele>1158.5</ele>
        <time>2019-08-17T12:25:10Z</time>
      </trkpt>
      <trkpt lat="42.94768" lon="0.85291">
        <ele>1158.4</ele>
        <time>2019-08-17T12:25:11Z</time>
      </trkpt>
      <trkpt lat="42.94768" lon="0.85291">
        <ele>1158.3</ele>
        <time>2019-08-17T12:25:12Z</time>
      </trkpt>
      <trkpt lat="42.94768" lon="0.85292">
        <ele>1158.2</ele>
        <time>2019-08-17T12:25:13Z</time>
      </trkpt>
      <trkpt lat="42.94767" lon="0.85292">
        <ele>1158.1</ele>
        <time>2019-08-17T12:25:14Z</time>
      </trkpt>
      <trkpt lat="42.94767" lon="0.85293">
        <ele>1157.9</ele>
        <time>2019-08-17T12:25:15Z</time>
      </trkpt>
      <trkpt lat="42.94767" lon="0.85293">
        <ele>1157.8</ele>
        <time>2019-08-17T12:25:16Z</time>
      </trkpt>
      <trkpt lat="42.94767" lon="0.85294">
        <ele>1157.7</ele>
        <time>2019-08-17T12:25:17Z</time>
      </trkpt>
      <trkpt lat="42.94766" lon="0.85295">
        <ele>1157.5</ele>
        <time>2019-08-17T12:25:18Z</time>
      </trkpt>
      <trkpt lat="42.94766" lon="0.85297">
        <ele>1157.1</ele>
        <time>2019-08-17T12:25:19Z</time>
      </trkpt>
      <trkpt lat="42.94765" lon="0.85299">
        <ele>1156.8</ele>
        <time>2019-08-17T12:25:20Z</time>
      </trkpt>
      <trkpt lat="42.94765" lon="0.853">
        <ele>1156.5</ele>
        <time>2019-08-17T12:25:21Z</time>
      </trkpt>
      <trkpt lat="42.94765" lon="0.85302">
        <ele>1156.2</ele>
        <time>2019-08-17T12:25:22Z</time>
      </trkpt>
      <trkpt lat="42.94765" lon="0.85303">
        <ele>1155.9</ele>
        <time>2019-08-17T12:25:23Z</time>
      </trkpt>
      <trkpt lat="42.94765" lon="0.85304">
        <ele>1155.7</ele>
        <time>2019-08-17T12:25:24Z</time>
      </trkpt>
      <trkpt lat="42.94764" lon="0.85305">
        <ele>1155.4</ele>
        <time>2019-08-17T12:25:25Z</time>
      </trkpt>
      <trkpt lat="42.94764" lon="0.85306">
        <ele>1155.2</ele>
        <time>2019-08-17T12:25:26Z</time>
      </trkpt>
      <trkpt lat="42.94764" lon="0.85307">
        <ele>1155</ele>
        <time>2019-08-17T12:25:27Z</time>
      </trkpt>
      <trkpt lat="42.94764" lon="0.85308">
        <ele>1154.7</ele>
        <time>2019-08-17T12:25:28Z</time>
      </trkpt>
      <trkpt lat="42.94763" lon="0.85309">
        <ele>1154.5</ele>
        <time>2019-08-17T12:25:29Z</time>
      </trkpt>
      <trkpt lat="42.94763" lon="0.8531">
        <ele>1154.3</ele>
        <time>2019-08-17T12:25:30Z</time>
      </trkpt>
      <trkpt lat="42.94762" lon="0.85311">
        <ele>1154</ele>
        <time>2019-08-17T12:25:31Z</time>
      </trkpt>
      <trkpt lat="42.94762" lon="0.85312">
        <ele>1153.8</ele>
        <time>2019-08-17T12:25:32Z</time>
      </trkpt>
      <trkpt lat="42.94761" lon="0.85312">
        <ele>1153.6</ele>
        <time>2019-08-17T12:25:33Z</time>
      </trkpt>
      <trkpt lat="42.94761" lon="0.85313">
        <ele>1153.4</ele>
        <time>2019-08-17T12:25:34Z</time>
      </trkpt>
      <trkpt lat="42.9476" lon="0.85314">
        <ele>1153.2</ele>
        <time>2019-08-17T12:25:35Z</time>
      </trkpt>
      <trkpt lat="42.9476" lon="0.85315">
        <ele>1153</ele>
        <time>2019-08-17T12:25:36Z</time>
      </trkpt>
      <trkpt lat="42.94759" lon="0.85315">
        <ele>1152.8</ele>
        <time>2019-08-17T12:25:37Z</time>
      </trkpt>
      <trkpt lat="42.94759" lon="0.85316">
        <ele>1152.6</ele>
        <time>2019-08-17T12:25:38Z</time>
      </trkpt>
      <trkpt lat="42.94758" lon="0.85317">
        <ele>1152.3</ele>
        <time>2019-08-17T12:25:39Z</time>
      </trkpt>
      <trkpt lat="42.94758" lon="0.85318">
        <ele>1152</ele>
        <time>2019-08-17T12:25:40Z</time>
      </trkpt>
      <trkpt lat="42.94757" lon="0.85319">
        <ele>1151.7</ele>
        <time>2019-08-17T12:25:41Z</time>
      </trkpt>
      <trkpt lat="42.94757" lon="0.8532">
        <ele>1151.5</ele>
        <time>2019-08-17T12:25:42Z</time>
      </trkpt>
      <trkpt lat="42.94756" lon="0.85321">
        <ele>1151.2</ele>
        <time>2019-08-17T12:25:43Z</time>
      </trkpt>
      <trkpt lat="42.94756" lon="0.85322">
        <ele>1151</ele>
        <time>2019-08-17T12:25:44Z</time>
      </trkpt>
      <trkpt lat="42.94755" lon="0.85322">
        <ele>1150.8</ele>
        <time>2019-08-17T12:25:45Z</time>
      </trkpt>
      <trkpt lat="42.94755" lon="0.85323">
        <ele>1150.6</ele>
        <time>2019-08-17T12:25:46Z</time>
      </trkpt>
      <trkpt lat="42.94754" lon="0.85324">
        <ele>1150.3</ele>
        <time>2019-08-17T12:25:47Z</time>
      </trkpt>
      <trkpt lat="42.94754" lon="0.85325">
        <ele>1150.1</ele>
        <time>2019-08-17T12:25:48Z</time>
      </trkpt>
      <trkpt lat="42.94753" lon="0.85325">
        <ele>1149.9</ele>
        <time>2019-08-17T12:25:49Z</time>
      </trkpt>
      <trkpt lat="42.94753" lon="0.85326">
        <ele>1149.7</ele>
        <time>2019-08-17T12:25:50Z</time>
      </trkpt>
      <trkpt lat="42.94752" lon="0.85326">
        <ele>1149.5</ele>
        <time>2019-08-17T12:25:51Z</time>
      </trkpt>
      <trkpt lat="42.94752" lon="0.85327">
        <ele>1149.3</ele>
        <time>2019-08-17T12:25:52Z</time>
      </trkpt>
      <trkpt lat="42.94751" lon="0.85328">
        <ele>1149.1</ele>
        <time>2019-08-17T12:25:53Z</time>
      </trkpt>
      <trkpt lat="42.94751" lon="0.85328">
        <ele>1148.9</ele>
        <time>2019-08-17T12:25:54Z</time>
      </trkpt>
      <trkpt lat="42.9475" lon="0.85329">
        <ele>1148.7</ele>
        <time>2019-08-17T12:25:55Z</time>
      </trkpt>
      <trkpt lat="42.9475" lon="0.85329">
        <ele>1148.5</ele>
        <time>2019-08-17T12:25:56Z</time>
      </trkpt>
      <trkpt lat="42.94749" lon="0.8533">
        <ele>1148.3</ele>
        <time>2019-08-17T12:25:57Z</time>
      </trkpt>
      <trkpt lat="42.94749" lon="0.85331">
        <ele>1148.1</ele>
        <time>2019-08-17T12:25:58Z</time>
      </trkpt>
      <trkpt lat="42.94748" lon="0.85331">
        <ele>1147.9</ele>
        <time>2019-08-17T12:25:59Z</time>
      </trkpt>
      <trkpt lat="42.94748" lon="0.85332">
        <ele>1147.7</ele>
        <time>2019-08-17T12:26:00Z</time>
      </trkpt>
      <trkpt lat="42.94747" lon="0.85332">
        <ele>1147.5</ele>
        <time>2019-08-17T12:26:01Z</time>
      </trkpt>
      <trkpt lat="42.94747" lon="0.85333">
        <ele>1147.3</ele>
        <time>2019-08-17T12:26:02Z</time>
      </trkpt>
      <trkpt lat="42.94746" lon="0.85334">
        <ele>1147.1</ele>
        <time>2019-08-17T12:26:03Z</time>
      </trkpt>
      <trkpt lat="42.94746" lon="0.85334">
        <ele>1146.9</ele>
        <time>2019-08-17T12:26:04Z</time>
      </trkpt>
      <trkpt lat="42.94745" lon="0.85335">
        <ele>1146.6</ele>
        <time>2019-08-17T12:26:05Z</time>
      </trkpt>
      <trkpt lat="42.94745" lon="0.85335">
        <ele>1146.4</ele>
        <time>2019-08-17T12:26:06Z</time>
      </trkpt>
      <trkpt lat="42.94744" lon="0.85336">
        <ele>1146.2</ele>
        <time>2019-08-17T12:26:07Z</time>
      </trkpt>
      <trkpt lat="42.94744" lon="0.85337">
        <ele>1145.9</ele>
        <time>2019-08-17T12:26:08Z</time>
      </trkpt>
      <trkpt lat="42.94743" lon="0.85337">
        <ele>1145.7</ele>
        <time>2019-08-17T12:26:09Z</time>
      </trkpt>
      <trkpt lat="42.94743" lon="0.85338">
        <ele>1145.5</ele>
        <time>2019-08-17T12:26:10Z</time>
      </trkpt>
      <trkpt lat="42.94742" lon="0.85338">
        <ele>1145.3</ele>
        <time>2019-08-17T12:26:11Z</time>
      </trkpt>
      <trkpt lat="42.94742" lon="0.85339">
        <ele>1145</ele>
        <time>2019-08-17T12:26:12Z</time>
      </trkpt>
      <trkpt lat="42.94741" lon="0.8534">
        <ele>1144.8</ele>
        <time>2019-08-17T12:26:13Z</time>
      </trkpt>
      <trkpt lat="42.94741" lon="0.8534">
        <ele>1144.6</ele>
        <time>2019-08-17T12:26:14Z</time>
      </trkpt>
      <trkpt lat="42.9474" lon="0.85341">
        <ele>1144.3</ele>
        <time>2019-08-17T12:26:15Z</time>
      </trkpt>
      <trkpt lat="42.9474" lon="0.85341">
        <ele>1144.1</ele>
        <time>2019-08-17T12:26:16Z</time>
      </trkpt>
      <trkpt lat="42.94739" lon="0.85342">
        <ele>1143.8</ele>
        <time>2019-08-17T12:26:17Z</time>
      </trkpt>
      <trkpt lat="42.94739" lon="0.85343">
        <ele>1143.6</ele>
        <time>2019-08-17T12:26:18Z</time>
      </trkpt>
      <trkpt lat="42.94738" lon="0.85342">
        <ele>1143.4</ele>
        <time>2019-08-17T12:26:19Z</time>
      </trkpt>
      <trkpt lat="42.94738" lon="0.85342">
        <ele>1143.2</ele>
        <time>2019-08-17T12:26:20Z</time>
      </trkpt>
      <trkpt lat="42.94737" lon="0.85342">
        <ele>1143.1</ele>
        <time>2019-08-17T12:26:21Z</time>
      </trkpt>
      <trkpt lat="42.94737" lon="0.85342">
        <ele>1142.9</ele>
        <time>2019-08-17T12:26:22Z</time>
      </trkpt>
      <trkpt lat="42.94736" lon="0.85342">
        <ele>1142.8</ele>
        <time>2019-08-17T12:26:23Z</time>
      </trkpt>
      <trkpt lat="42.94736" lon="0.85342">
        <ele>1142.6</ele>
        <time>2019-08-17T12:26:24Z</time>
      </trkpt>
      <trkpt lat="42.94735" lon="0.85342">
        <ele>1142.3</ele>
        <time>2019-08-17T12:26:25Z</time>
      </trkpt>
      <trkpt lat="42.94734" lon="0.85342">
        <ele>1142.1</ele>
        <time>2019-08-17T12:26:26Z</time>
      </trkpt>
      <trkpt lat="42.94734" lon="0.85342">
        <ele>1141.9</ele>
        <time>2019-08-17T12:26:27Z</time>
      </trkpt>
      <trkpt lat="42.94733" lon="0.85343">
        <ele>1141.8</ele>
        <time>2019-08-17T12:26:28Z</time>
      </trkpt>
      <trkpt lat="42.94733" lon="0.85343">
        <ele>1141.7</ele>
        <time>2019-08-17T12:26:29Z</time>
      </trkpt>
      <trkpt lat="42.94733" lon="0.85343">
        <ele>1141.7</ele>
        <time>2019-08-17T12:26:30Z</time>
      </trkpt>
      <trkpt lat="42.94733" lon="0.85343">
        <ele>1141.6</ele>
        <time>2019-08-17T12:26:31Z</time>
      </trkpt>
      <trkpt lat="42.94732" lon="0.85344">
        <ele>1141.3</ele>
        <time>2019-08-17T12:26:32Z</time>
      </trkpt>
      <trkpt lat="42.94731" lon="0.85345">
        <ele>1140.9</ele>
        <time>2019-08-17T12:26:33Z</time>
      </trkpt>
      <trkpt lat="42.9473" lon="0.85346">
        <ele>1140.6</ele>
        <time>2019-08-17T12:26:34Z</time>
      </trkpt>
      <trkpt lat="42.94729" lon="0.85346">
        <ele>1140.3</ele>
        <time>2019-08-17T12:26:35Z</time>
      </trkpt>
      <trkpt lat="42.94729" lon="0.85347">
        <ele>1140.1</ele>
        <time>2019-08-17T12:26:36Z</time>
      </trkpt>
      <trkpt lat="42.94728" lon="0.85348">
        <ele>1139.8</ele>
        <time>2019-08-17T12:26:37Z</time>
      </trkpt>
      <trkpt lat="42.94728" lon="0.85348">
        <ele>1139.7</ele>
        <time>2019-08-17T12:26:38Z</time>
      </trkpt>
      <trkpt lat="42.94727" lon="0.85349">
        <ele>1139.5</ele>
        <time>2019-08-17T12:26:39Z</time>
      </trkpt>
      <trkpt lat="42.94727" lon="0.85349">
        <ele>1139.4</ele>
        <time>2019-08-17T12:26:40Z</time>
      </trkpt>
      <trkpt lat="42.94727" lon="0.85349">
        <ele>1139.3</ele>
        <time>2019-08-17T12:26:41Z</time>
      </trkpt>
      <trkpt lat="42.94727" lon="0.85349">
        <ele>1139.2</ele>
        <time>2019-08-17T12:26:42Z</time>
      </trkpt>
      <trkpt lat="42.94727" lon="0.85349">
        <ele>1139.2</ele>
        <time>2019-08-17T12:26:43Z</time>
      </trkpt>
      <trkpt lat="42.94726" lon="0.8535">
        <ele>1139</ele>
        <time>2019-08-17T12:26:44Z</time>
      </trkpt>
      <trkpt lat="42.94726" lon="0.8535">
        <ele>1138.9</ele>
        <time>2019-08-17T12:26:45Z</time>
      </trkpt>
      <trkpt lat="42.94726" lon="0.85351">
        <ele>1138.7</ele>
        <time>2019-08-17T12:26:46Z</time>
      </trkpt>
      <trkpt lat="42.94725" lon="0.85351">
        <ele>1138.4</ele>
        <time>2019-08-17T12:26:47Z</time>
      </trkpt>
      <trkpt lat="42.94725" lon="0.85352">
        <ele>1138.2</ele>
        <time>2019-08-17T12:26:48Z</time>
      </trkpt>
      <trkpt lat="42.94724" lon="0.85353">
        <ele>1137.9</ele>
        <time>2019-08-17T12:26:49Z</time>
      </trkpt>
      <trkpt lat="42.94724" lon="0.85354">
        <ele>1137.7</ele>
        <time>2019-08-17T12:26:50Z</time>
      </trkpt>
      <trkpt lat="42.94724" lon="0.85355">
        <ele>1137.4</ele>
        <time>2019-08-17T12:26:51Z</time>
      </trkpt>
      <trkpt lat="42.94723" lon="0.85356">
        <ele>1137.2</ele>
        <time>2019-08-17T12:26:52Z</time>
      </trkpt>
      <trkpt lat="42.94722" lon="0.85357">
        <ele>1136.9</ele>
        <time>2019-08-17T12:26:53Z</time>
      </trkpt>
      <trkpt lat="42.94722" lon="0.85358">
        <ele>1136.8</ele>
        <time>2019-08-17T12:26:54Z</time>
      </trkpt>
      <trkpt lat="42.94722" lon="0.85358">
        <ele>1136.7</ele>
        <time>2019-08-17T12:26:55Z</time>
      </trkpt>
      <trkpt lat="42.94721" lon="0.85358">
        <ele>1136.6</ele>
        <time>2019-08-17T12:26:56Z</time>
      </trkpt>
      <trkpt lat="42.94721" lon="0.85359">
        <ele>1136.5</ele>
        <time>2019-08-17T12:26:57Z</time>
      </trkpt>
      <trkpt lat="42.94721" lon="0.85359">
        <ele>1136.3</ele>
        <time>2019-08-17T12:26:58Z</time>
      </trkpt>
      <trkpt lat="42.9472" lon="0.85359">
        <ele>1136.2</ele>
        <time>2019-08-17T12:26:59Z</time>
      </trkpt>
      <trkpt lat="42.9472" lon="0.85359">
        <ele>1136.1</ele>
        <time>2019-08-17T12:27:00Z</time>
      </trkpt>
      <trkpt lat="42.9472" lon="0.8536">
        <ele>1136</ele>
        <time>2019-08-17T12:27:01Z</time>
      </trkpt>
      <trkpt lat="42.94719" lon="0.8536">
        <ele>1135.9</ele>
        <time>2019-08-17T12:27:02Z</time>
      </trkpt>
      <trkpt lat="42.94719" lon="0.85361">
        <ele>1135.6</ele>
        <time>2019-08-17T12:27:03Z</time>
      </trkpt>
      <trkpt lat="42.94718" lon="0.85362">
        <ele>1135.3</ele>
        <time>2019-08-17T12:27:04Z</time>
      </trkpt>
      <trkpt lat="42.94717" lon="0.85362">
        <ele>1135</ele>
        <time>2019-08-17T12:27:05Z</time>
      </trkpt>
      <trkpt lat="42.94716" lon="0.85363">
        <ele>1134.8</ele>
        <time>2019-08-17T12:27:06Z</time>
      </trkpt>
      <trkpt lat="42.94716" lon="0.85364">
        <ele>1134.6</ele>
        <time>2019-08-17T12:27:07Z</time>
      </trkpt>
      <trkpt lat="42.94716" lon="0.85364">
        <ele>1134.5</ele>
        <time>2019-08-17T12:27:08Z</time>
      </trkpt>
      <trkpt lat="42.94715" lon="0.85364">
        <ele>1134.4</ele>
        <time>2019-08-17T12:27:09Z</time>
      </trkpt>
      <trkpt lat="42.94715" lon="0.85364">
        <ele>1134.3</ele>
        <time>2019-08-17T12:27:10Z</time>
      </trkpt>
      <trkpt lat="42.94715" lon="0.85365">
        <ele>1134.2</ele>
        <time>2019-08-17T12:27:11Z</time>
      </trkpt>
      <trkpt lat="42.94715" lon="0.85365">
        <ele>1134.1</ele>
        <time>2019-08-17T12:27:12Z</time>
      </trkpt>
      <trkpt lat="42.94714" lon="0.85365">
        <ele>1134</ele>
        <time>2019-08-17T12:27:13Z</time>
      </trkpt>
      <trkpt lat="42.94714" lon="0.85365">
        <ele>1133.9</ele>
        <time>2019-08-17T12:27:14Z</time>
      </trkpt>
      <trkpt lat="42.94714" lon="0.85366">
        <ele>1133.7</ele>
        <time>2019-08-17T12:27:15Z</time>
      </trkpt>
      <trkpt lat="42.94713" lon="0.85366">
        <ele>1133.5</ele>
        <time>2019-08-17T12:27:16Z</time>
      </trkpt>
      <trkpt lat="42.94713" lon="0.85367">
        <ele>1133.3</ele>
        <time>2019-08-17T12:27:17Z</time>
      </trkpt>
      <trkpt lat="42.94712" lon="0.85367">
        <ele>1133.2</ele>
        <time>2019-08-17T12:27:18Z</time>
      </trkpt>
      <trkpt lat="42.94712" lon="0.85368">
        <ele>1133</ele>
        <time>2019-08-17T12:27:19Z</time>
      </trkpt>
      <trkpt lat="42.94711" lon="0.85368">
        <ele>1132.7</ele>
        <time>2019-08-17T12:27:20Z</time>
      </trkpt>
      <trkpt lat="42.9471" lon="0.85369">
        <ele>1132.4</ele>
        <time>2019-08-17T12:27:21Z</time>
      </trkpt>
      <trkpt lat="42.94709" lon="0.85369">
        <ele>1132.1</ele>
        <time>2019-08-17T12:27:22Z</time>
      </trkpt>
      <trkpt lat="42.94709" lon="0.85369">
        <ele>1131.9</ele>
        <time>2019-08-17T12:27:23Z</time>
      </trkpt>
      <trkpt lat="42.94708" lon="0.8537">
        <ele>1131.8</ele>
        <time>2019-08-17T12:27:24Z</time>
      </trkpt>
      <trkpt lat="42.94708" lon="0.8537">
        <ele>1131.7</ele>
        <time>2019-08-17T12:27:25Z</time>
      </trkpt>
      <trkpt lat="42.94708" lon="0.8537">
        <ele>1131.6</ele>
        <time>2019-08-17T12:27:26Z</time>
      </trkpt>
      <trkpt lat="42.94708" lon="0.8537">
        <ele>1131.5</ele>
        <time>2019-08-17T12:27:27Z</time>
      </trkpt>
      <trkpt lat="42.94707" lon="0.8537">
        <ele>1131.4</ele>
        <time>2019-08-17T12:27:28Z</time>
      </trkpt>
      <trkpt lat="42.94707" lon="0.85371">
        <ele>1131.2</ele>
        <time>2019-08-17T12:27:29Z</time>
      </trkpt>
      <trkpt lat="42.94706" lon="0.85371">
        <ele>1131</ele>
        <time>2019-08-17T12:27:30Z</time>
      </trkpt>
      <trkpt lat="42.94706" lon="0.85372">
        <ele>1130.8</ele>
        <time>2019-08-17T12:27:31Z</time>
      </trkpt>
      <trkpt lat="42.94705" lon="0.85373">
        <ele>1130.5</ele>
        <time>2019-08-17T12:27:32Z</time>
      </trkpt>
      <trkpt lat="42.94705" lon="0.85374">
        <ele>1130.1</ele>
        <time>2019-08-17T12:27:33Z</time>
      </trkpt>
      <trkpt lat="42.94704" lon="0.85375">
        <ele>1129.7</ele>
        <time>2019-08-17T12:27:34Z</time>
      </trkpt>
      <trkpt lat="42.94704" lon="0.85376">
        <ele>1129.3</ele>
        <time>2019-08-17T12:27:35Z</time>
      </trkpt>
      <trkpt lat="42.94703" lon="0.85377">
        <ele>1129</ele>
        <time>2019-08-17T12:27:36Z</time>
      </trkpt>
      <trkpt lat="42.94702" lon="0.85378">
        <ele>1128.7</ele>
        <time>2019-08-17T12:27:37Z</time>
      </trkpt>
      <trkpt lat="42.94702" lon="0.85378">
        <ele>1128.6</ele>
        <time>2019-08-17T12:27:38Z</time>
      </trkpt>
      <trkpt lat="42.94702" lon="0.85379">
        <ele>1128.4</ele>
        <time>2019-08-17T12:27:39Z</time>
      </trkpt>
      <trkpt lat="42.94701" lon="0.85379">
        <ele>1128.3</ele>
        <time>2019-08-17T12:27:40Z</time>
      </trkpt>
      <trkpt lat="42.94701" lon="0.85379">
        <ele>1128.2</ele>
        <time>2019-08-17T12:27:41Z</time>
      </trkpt>
      <trkpt lat="42.94701" lon="0.85379">
        <ele>1128.1</ele>
        <time>2019-08-17T12:27:42Z</time>
      </trkpt>
      <trkpt lat="42.947" lon="0.8538">
        <ele>1127.9</ele>
        <time>2019-08-17T12:27:43Z</time>
      </trkpt>
      <trkpt lat="42.94699" lon="0.8538">
        <ele>1127.5</ele>
        <time>2019-08-17T12:27:44Z</time>
      </trkpt>
      <trkpt lat="42.94699" lon="0.8538">
        <ele>1127.3</ele>
        <time>2019-08-17T12:27:45Z</time>
      </trkpt>
      <trkpt lat="42.94698" lon="0.85381">
        <ele>1127.2</ele>
        <time>2019-08-17T12:27:46Z</time>
      </trkpt>
      <trkpt lat="42.94698" lon="0.85381">
        <ele>1127</ele>
        <time>2019-08-17T12:27:47Z</time>
      </trkpt>
      <trkpt lat="42.94697" lon="0.85381">
        <ele>1126.8</ele>
        <time>2019-08-17T12:27:48Z</time>
      </trkpt>
      <trkpt lat="42.94697" lon="0.85382">
        <ele>1126.6</ele>
        <time>2019-08-17T12:27:49Z</time>
      </trkpt>
      <trkpt lat="42.94696" lon="0.85383">
        <ele>1126.3</ele>
        <time>2019-08-17T12:27:50Z</time>
      </trkpt>
      <trkpt lat="42.94695" lon="0.85383">
        <ele>1126</ele>
        <time>2019-08-17T12:27:51Z</time>
      </trkpt>
      <trkpt lat="42.94695" lon="0.85384">
        <ele>1125.8</ele>
        <time>2019-08-17T12:27:52Z</time>
      </trkpt>
      <trkpt lat="42.94694" lon="0.85385">
        <ele>1125.6</ele>
        <time>2019-08-17T12:27:53Z</time>
      </trkpt>
      <trkpt lat="42.94694" lon="0.85385">
        <ele>1125.4</ele>
        <time>2019-08-17T12:27:54Z</time>
      </trkpt>
      <trkpt lat="42.94693" lon="0.85385">
        <ele>1125.3</ele>
        <time>2019-08-17T12:27:55Z</time>
      </trkpt>
      <trkpt lat="42.94693" lon="0.85385">
        <ele>1125.2</ele>
        <time>2019-08-17T12:27:56Z</time>
      </trkpt>
      <trkpt lat="42.94693" lon="0.85385">
        <ele>1125.1</ele>
        <time>2019-08-17T12:27:57Z</time>
      </trkpt>
      <trkpt lat="42.94693" lon="0.85385">
        <ele>1125</ele>
        <time>2019-08-17T12:27:58Z</time>
      </trkpt>
      <trkpt lat="42.94692" lon="0.85386">
        <ele>1124.8</ele>
        <time>2019-08-17T12:27:59Z</time>
      </trkpt>
      <trkpt lat="42.94691" lon="0.85387">
        <ele>1124.4</ele>
        <time>2019-08-17T12:28:00Z</time>
      </trkpt>
      <trkpt lat="42.9469" lon="0.85389">
        <ele>1124</ele>
        <time>2019-08-17T12:28:01Z</time>
      </trkpt>
      <trkpt lat="42.9469" lon="0.85389">
        <ele>1123.7</ele>
        <time>2019-08-17T12:28:02Z</time>
      </trkpt>
      <trkpt lat="42.94689" lon="0.8539">
        <ele>1123.6</ele>
        <time>2019-08-17T12:28:03Z</time>
      </trkpt>
      <trkpt lat="42.94689" lon="0.85391">
        <ele>1123.4</ele>
        <time>2019-08-17T12:28:04Z</time>
      </trkpt>
      <trkpt lat="42.94689" lon="0.85391">
        <ele>1123.2</ele>
        <time>2019-08-17T12:28:05Z</time>
      </trkpt>
      <trkpt lat="42.94688" lon="0.85391">
        <ele>1123.1</ele>
        <time>2019-08-17T12:28:06Z</time>
      </trkpt>
      <trkpt lat="42.94688" lon="0.85392">
        <ele>1123</ele>
        <time>2019-08-17T12:28:07Z</time>
      </trkpt>
      <trkpt lat="42.94688" lon="0.85392">
        <ele>1123</ele>
        <time>2019-08-17T12:28:08Z</time>
      </trkpt>
      <trkpt lat="42.94688" lon="0.85392">
        <ele>1122.9</ele>
        <time>2019-08-17T12:28:09Z</time>
      </trkpt>
      <trkpt lat="42.94688" lon="0.85392">
        <ele>1122.9</ele>
        <time>2019-08-17T12:28:10Z</time>
      </trkpt>
      <trkpt lat="42.94688" lon="0.85392">
        <ele>1122.8</ele>
        <time>2019-08-17T12:28:11Z</time>
      </trkpt>
      <trkpt lat="42.94687" lon="0.85393">
        <ele>1122.7</ele>
        <time>2019-08-17T12:28:12Z</time>
      </trkpt>
      <trkpt lat="42.94687" lon="0.85393">
        <ele>1122.5</ele>
        <time>2019-08-17T12:28:13Z</time>
      </trkpt>
      <trkpt lat="42.94687" lon="0.85394">
        <ele>1122.4</ele>
        <time>2019-08-17T12:28:14Z</time>
      </trkpt>
      <trkpt lat="42.94686" lon="0.85394">
        <ele>1122.3</ele>
        <time>2019-08-17T12:28:15Z</time>
      </trkpt>
      <trkpt lat="42.94686" lon="0.85395">
        <ele>1122.1</ele>
        <time>2019-08-17T12:28:16Z</time>
      </trkpt>
      <trkpt lat="42.94685" lon="0.85396">
        <ele>1121.8</ele>
        <time>2019-08-17T12:28:17Z</time>
      </trkpt>
      <trkpt lat="42.94685" lon="0.85397">
        <ele>1121.5</ele>
        <time>2019-08-17T12:28:18Z</time>
      </trkpt>
      <trkpt lat="42.94684" lon="0.85398">
        <ele>1121.3</ele>
        <time>2019-08-17T12:28:19Z</time>
      </trkpt>
      <trkpt lat="42.94683" lon="0.85398">
        <ele>1121</ele>
        <time>2019-08-17T12:28:20Z</time>
      </trkpt>
      <trkpt lat="42.94683" lon="0.85399">
        <ele>1120.8</ele>
        <time>2019-08-17T12:28:21Z</time>
      </trkpt>
      <trkpt lat="42.94682" lon="0.854">
        <ele>1120.6</ele>
        <time>2019-08-17T12:28:22Z</time>
      </trkpt>
      <trkpt lat="42.94681" lon="0.854">
        <ele>1120.4</ele>
        <time>2019-08-17T12:28:23Z</time>
      </trkpt>
      <trkpt lat="42.94681" lon="0.85401">
        <ele>1120.2</ele>
        <time>2019-08-17T12:28:24Z</time>
      </trkpt>
      <trkpt lat="42.9468" lon="0.85401">
        <ele>1120</ele>
        <time>2019-08-17T12:28:25Z</time>
      </trkpt>
      <trkpt lat="42.9468" lon="0.85401">
        <ele>1119.8</ele>
        <time>2019-08-17T12:28:26Z</time>
      </trkpt>
      <trkpt lat="42.94679" lon="0.85402">
        <ele>1119.5</ele>
        <time>2019-08-17T12:28:27Z</time>
      </trkpt>
      <trkpt lat="42.94678" lon="0.85402">
        <ele>1119.3</ele>
        <time>2019-08-17T12:28:28Z</time>
      </trkpt>
      <trkpt lat="42.94678" lon="0.85403">
        <ele>1119</ele>
        <time>2019-08-17T12:28:29Z</time>
      </trkpt>
      <trkpt lat="42.94677" lon="0.85403">
        <ele>1118.7</ele>
        <time>2019-08-17T12:28:30Z</time>
      </trkpt>
      <trkpt lat="42.94676" lon="0.85404">
        <ele>1118.5</ele>
        <time>2019-08-17T12:28:31Z</time>
      </trkpt>
      <trkpt lat="42.94676" lon="0.85404">
        <ele>1118.3</ele>
        <time>2019-08-17T12:28:32Z</time>
      </trkpt>
      <trkpt lat="42.94675" lon="0.85404">
        <ele>1118.1</ele>
        <time>2019-08-17T12:28:33Z</time>
      </trkpt>
      <trkpt lat="42.94675" lon="0.85404">
        <ele>1118</ele>
        <time>2019-08-17T12:28:34Z</time>
      </trkpt>
      <trkpt lat="42.94674" lon="0.85404">
        <ele>1117.9</ele>
        <time>2019-08-17T12:28:35Z</time>
      </trkpt>
      <trkpt lat="42.94674" lon="0.85404">
        <ele>1117.6</ele>
        <time>2019-08-17T12:28:36Z</time>
      </trkpt>
      <trkpt lat="42.94673" lon="0.85404">
        <ele>1117.4</ele>
        <time>2019-08-17T12:28:37Z</time>
      </trkpt>
      <trkpt lat="42.94672" lon="0.85404">
        <ele>1117.1</ele>
        <time>2019-08-17T12:28:38Z</time>
      </trkpt>
      <trkpt lat="42.94671" lon="0.85404">
        <ele>1116.9</ele>
        <time>2019-08-17T12:28:39Z</time>
      </trkpt>
      <trkpt lat="42.94671" lon="0.85404">
        <ele>1116.8</ele>
        <time>2019-08-17T12:28:40Z</time>
      </trkpt>
      <trkpt lat="42.94671" lon="0.85405">
        <ele>1116.7</ele>
        <time>2019-08-17T12:28:41Z</time>
      </trkpt>
      <trkpt lat="42.9467" lon="0.85405">
        <ele>1116.4</ele>
        <time>2019-08-17T12:28:42Z</time>
      </trkpt>
      <trkpt lat="42.9467" lon="0.85405">
        <ele>1116.3</ele>
        <time>2019-08-17T12:28:43Z</time>
      </trkpt>
      <trkpt lat="42.94669" lon="0.85405">
        <ele>1116</ele>
        <time>2019-08-17T12:28:44Z</time>
      </trkpt>
      <trkpt lat="42.94668" lon="0.85405">
        <ele>1115.8</ele>
        <time>2019-08-17T12:28:45Z</time>
      </trkpt>
      <trkpt lat="42.94667" lon="0.85405">
        <ele>1115.4</ele>
        <time>2019-08-17T12:28:46Z</time>
      </trkpt>
      <trkpt lat="42.94666" lon="0.85406">
        <ele>1115.1</ele>
        <time>2019-08-17T12:28:47Z</time>
      </trkpt>
      <trkpt lat="42.94666" lon="0.85406">
        <ele>1114.9</ele>
        <time>2019-08-17T12:28:48Z</time>
      </trkpt>
      <trkpt lat="42.94665" lon="0.85408">
        <ele>1114.6</ele>
        <time>2019-08-17T12:28:49Z</time>
      </trkpt>
      <trkpt lat="42.94665" lon="0.85409">
        <ele>1114.4</ele>
        <time>2019-08-17T12:28:50Z</time>
      </trkpt>
      <trkpt lat="42.94665" lon="0.8541">
        <ele>1114.1</ele>
        <time>2019-08-17T12:28:51Z</time>
      </trkpt>
      <trkpt lat="42.94665" lon="0.85411">
        <ele>1113.8</ele>
        <time>2019-08-17T12:28:52Z</time>
      </trkpt>
      <trkpt lat="42.94664" lon="0.85412">
        <ele>1113.6</ele>
        <time>2019-08-17T12:28:53Z</time>
      </trkpt>
      <trkpt lat="42.94664" lon="0.85413">
        <ele>1113.4</ele>
        <time>2019-08-17T12:28:54Z</time>
      </trkpt>
      <trkpt lat="42.94664" lon="0.85413">
        <ele>1113.2</ele>
        <time>2019-08-17T12:28:55Z</time>
      </trkpt>
      <trkpt lat="42.94663" lon="0.85414">
        <ele>1113</ele>
        <time>2019-08-17T12:28:56Z</time>
      </trkpt>
      <trkpt lat="42.94663" lon="0.85414">
        <ele>1112.8</ele>
        <time>2019-08-17T12:28:57Z</time>
      </trkpt>
      <trkpt lat="42.94662" lon="0.85415">
        <ele>1112.6</ele>
        <time>2019-08-17T12:28:58Z</time>
      </trkpt>
      <trkpt lat="42.94661" lon="0.85415">
        <ele>1112.4</ele>
        <time>2019-08-17T12:28:59Z</time>
      </trkpt>
      <trkpt lat="42.94661" lon="0.85416">
        <ele>1112.2</ele>
        <time>2019-08-17T12:29:00Z</time>
      </trkpt>
      <trkpt lat="42.9466" lon="0.85416">
        <ele>1112</ele>
        <time>2019-08-17T12:29:01Z</time>
      </trkpt>
      <trkpt lat="42.94659" lon="0.85416">
        <ele>1111.9</ele>
        <time>2019-08-17T12:29:02Z</time>
      </trkpt>
      <trkpt lat="42.94659" lon="0.85416">
        <ele>1111.8</ele>
        <time>2019-08-17T12:29:03Z</time>
      </trkpt>
      <trkpt lat="42.94659" lon="0.85416">
        <ele>1111.7</ele>
        <time>2019-08-17T12:29:04Z</time>
      </trkpt>
      <trkpt lat="42.94658" lon="0.85416">
        <ele>1111.6</ele>
        <time>2019-08-17T12:29:05Z</time>
      </trkpt>
      <trkpt lat="42.94657" lon="0.85416">
        <ele>1111.3</ele>
        <time>2019-08-17T12:29:06Z</time>
      </trkpt>
      <trkpt lat="42.94656" lon="0.85415">
        <ele>1111</ele>
        <time>2019-08-17T12:29:07Z</time>
      </trkpt>
      <trkpt lat="42.94655" lon="0.85415">
        <ele>1110.8</ele>
        <time>2019-08-17T12:29:08Z</time>
      </trkpt>
      <trkpt lat="42.94654" lon="0.85415">
        <ele>1110.6</ele>
        <time>2019-08-17T12:29:09Z</time>
      </trkpt>
      <trkpt lat="42.94653" lon="0.85414">
        <ele>1110.4</ele>
        <time>2019-08-17T12:29:10Z</time>
      </trkpt>
      <trkpt lat="42.94652" lon="0.85414">
        <ele>1110.1</ele>
        <time>2019-08-17T12:29:11Z</time>
      </trkpt>
      <trkpt lat="42.94651" lon="0.85414">
        <ele>1109.9</ele>
        <time>2019-08-17T12:29:12Z</time>
      </trkpt>
      <trkpt lat="42.9465" lon="0.85413">
        <ele>1109.7</ele>
        <time>2019-08-17T12:29:13Z</time>
      </trkpt>
      <trkpt lat="42.94649" lon="0.85413">
        <ele>1109.5</ele>
        <time>2019-08-17T12:29:14Z</time>
      </trkpt>
      <trkpt lat="42.94648" lon="0.85412">
        <ele>1109.2</ele>
        <time>2019-08-17T12:29:15Z</time>
      </trkpt>
      <trkpt lat="42.94648" lon="0.85412">
        <ele>1109</ele>
        <time>2019-08-17T12:29:16Z</time>
      </trkpt>
      <trkpt lat="42.94647" lon="0.85411">
        <ele>1108.6</ele>
        <time>2019-08-17T12:29:17Z</time>
      </trkpt>
      <trkpt lat="42.94646" lon="0.8541">
        <ele>1108.2</ele>
        <time>2019-08-17T12:29:18Z</time>
      </trkpt>
      <trkpt lat="42.94644" lon="0.85409">
        <ele>1107.6</ele>
        <time>2019-08-17T12:29:19Z</time>
      </trkpt>
      <trkpt lat="42.94644" lon="0.85408">
        <ele>1107.3</ele>
        <time>2019-08-17T12:29:20Z</time>
      </trkpt>
      <trkpt lat="42.94643" lon="0.85408">
        <ele>1107</ele>
        <time>2019-08-17T12:29:21Z</time>
      </trkpt>
      <trkpt lat="42.94642" lon="0.85408">
        <ele>1106.7</ele>
        <time>2019-08-17T12:29:22Z</time>
      </trkpt>
      <trkpt lat="42.94641" lon="0.85407">
        <ele>1106.4</ele>
        <time>2019-08-17T12:29:23Z</time>
      </trkpt>
      <trkpt lat="42.9464" lon="0.85407">
        <ele>1106.1</ele>
        <time>2019-08-17T12:29:24Z</time>
      </trkpt>
      <trkpt lat="42.94639" lon="0.85406">
        <ele>1105.8</ele>
        <time>2019-08-17T12:29:25Z</time>
      </trkpt>
      <trkpt lat="42.94638" lon="0.85406">
        <ele>1105.6</ele>
        <time>2019-08-17T12:29:26Z</time>
      </trkpt>
      <trkpt lat="42.94638" lon="0.85406">
        <ele>1105.3</ele>
        <time>2019-08-17T12:29:27Z</time>
      </trkpt>
      <trkpt lat="42.94637" lon="0.85405">
        <ele>1105</ele>
        <time>2019-08-17T12:29:28Z</time>
      </trkpt>
      <trkpt lat="42.94636" lon="0.85405">
        <ele>1104.8</ele>
        <time>2019-08-17T12:29:29Z</time>
      </trkpt>
      <trkpt lat="42.94635" lon="0.85404">
        <ele>1104.5</ele>
        <time>2019-08-17T12:29:30Z</time>
      </trkpt>
      <trkpt lat="42.94634" lon="0.85404">
        <ele>1104.3</ele>
        <time>2019-08-17T12:29:31Z</time>
      </trkpt>
      <trkpt lat="42.94633" lon="0.85404">
        <ele>1104</ele>
        <time>2019-08-17T12:29:32Z</time>
      </trkpt>
      <trkpt lat="42.94632" lon="0.85403">
        <ele>1103.7</ele>
        <time>2019-08-17T12:29:33Z</time>
      </trkpt>
      <trkpt lat="42.94632" lon="0.85403">
        <ele>1103.6</ele>
        <time>2019-08-17T12:29:34Z</time>
      </trkpt>
      <trkpt lat="42.94631" lon="0.85402">
        <ele>1103.4</ele>
        <time>2019-08-17T12:29:35Z</time>
      </trkpt>
      <trkpt lat="42.9463" lon="0.85402">
        <ele>1103.2</ele>
        <time>2019-08-17T12:29:36Z</time>
      </trkpt>
      <trkpt lat="42.94629" lon="0.85402">
        <ele>1103.1</ele>
        <time>2019-08-17T12:29:37Z</time>
      </trkpt>
      <trkpt lat="42.94628" lon="0.85401">
        <ele>1102.9</ele>
        <time>2019-08-17T12:29:38Z</time>
      </trkpt>
      <trkpt lat="42.94627" lon="0.85401">
        <ele>1102.7</ele>
        <time>2019-08-17T12:29:39Z</time>
      </trkpt>
      <trkpt lat="42.94626" lon="0.854">
        <ele>1102.5</ele>
        <time>2019-08-17T12:29:40Z</time>
      </trkpt>
      <trkpt lat="42.94625" lon="0.854">
        <ele>1102.4</ele>
        <time>2019-08-17T12:29:41Z</time>
      </trkpt>
      <trkpt lat="42.94625" lon="0.854">
        <ele>1102.2</ele>
        <time>2019-08-17T12:29:42Z</time>
      </trkpt>
      <trkpt lat="42.94624" lon="0.85399">
        <ele>1102</ele>
        <time>2019-08-17T12:29:43Z</time>
      </trkpt>
      <trkpt lat="42.94623" lon="0.85399">
        <ele>1101.8</ele>
        <time>2019-08-17T12:29:44Z</time>
      </trkpt>
      <trkpt lat="42.94622" lon="0.85398">
        <ele>1101.7</ele>
        <time>2019-08-17T12:29:45Z</time>
      </trkpt>
      <trkpt lat="42.94621" lon="0.85398">
        <ele>1101.4</ele>
        <time>2019-08-17T12:29:46Z</time>
      </trkpt>
      <trkpt lat="42.9462" lon="0.85398">
        <ele>1101.2</ele>
        <time>2019-08-17T12:29:47Z</time>
      </trkpt>
      <trkpt lat="42.94619" lon="0.85397">
        <ele>1101</ele>
        <time>2019-08-17T12:29:48Z</time>
      </trkpt>
      <trkpt lat="42.94619" lon="0.85397">
        <ele>1100.8</ele>
        <time>2019-08-17T12:29:49Z</time>
      </trkpt>
      <trkpt lat="42.94618" lon="0.85396">
        <ele>1100.5</ele>
        <time>2019-08-17T12:29:50Z</time>
      </trkpt>
      <trkpt lat="42.94617" lon="0.85396">
        <ele>1100.3</ele>
        <time>2019-08-17T12:29:51Z</time>
      </trkpt>
      <trkpt lat="42.94616" lon="0.85396">
        <ele>1100.1</ele>
        <time>2019-08-17T12:29:52Z</time>
      </trkpt>
      <trkpt lat="42.94615" lon="0.85395">
        <ele>1100</ele>
        <time>2019-08-17T12:29:53Z</time>
      </trkpt>
      <trkpt lat="42.94614" lon="0.85395">
        <ele>1099.8</ele>
        <time>2019-08-17T12:29:54Z</time>
      </trkpt>
      <trkpt lat="42.94613" lon="0.85394">
        <ele>1099.6</ele>
        <time>2019-08-17T12:29:55Z</time>
      </trkpt>
      <trkpt lat="42.94613" lon="0.85394">
        <ele>1099.4</ele>
        <time>2019-08-17T12:29:56Z</time>
      </trkpt>
      <trkpt lat="42.94612" lon="0.85394">
        <ele>1099.3</ele>
        <time>2019-08-17T12:29:57Z</time>
      </trkpt>
      <trkpt lat="42.94611" lon="0.85393">
        <ele>1099.1</ele>
        <time>2019-08-17T12:29:58Z</time>
      </trkpt>
      <trkpt lat="42.9461" lon="0.85393">
        <ele>1098.9</ele>
        <time>2019-08-17T12:29:59Z</time>
      </trkpt>
      <trkpt lat="42.94609" lon="0.85392">
        <ele>1098.8</ele>
        <time>2019-08-17T12:30:00Z</time>
      </trkpt>
      <trkpt lat="42.94608" lon="0.85392">
        <ele>1098.6</ele>
        <time>2019-08-17T12:30:01Z</time>
      </trkpt>
      <trkpt lat="42.94608" lon="0.85392">
        <ele>1098.5</ele>
        <time>2019-08-17T12:30:02Z</time>
      </trkpt>
      <trkpt lat="42.94607" lon="0.85392">
        <ele>1098.3</ele>
        <time>2019-08-17T12:30:03Z</time>
      </trkpt>
      <trkpt lat="42.94606" lon="0.85392">
        <ele>1098.2</ele>
        <time>2019-08-17T12:30:04Z</time>
      </trkpt>
      <trkpt lat="42.94605" lon="0.85392">
        <ele>1098</ele>
        <time>2019-08-17T12:30:05Z</time>
      </trkpt>
      <trkpt lat="42.94604" lon="0.85392">
        <ele>1097.6</ele>
        <time>2019-08-17T12:30:06Z</time>
      </trkpt>
      <trkpt lat="42.94603" lon="0.85392">
        <ele>1097.3</ele>
        <time>2019-08-17T12:30:07Z</time>
      </trkpt>
      <trkpt lat="42.94602" lon="0.85392">
        <ele>1097.1</ele>
        <time>2019-08-17T12:30:08Z</time>
      </trkpt>
      <trkpt lat="42.94601" lon="0.85391">
        <ele>1096.9</ele>
        <time>2019-08-17T12:30:09Z</time>
      </trkpt>
      <trkpt lat="42.946" lon="0.85391">
        <ele>1096.7</ele>
        <time>2019-08-17T12:30:10Z</time>
      </trkpt>
      <trkpt lat="42.94599" lon="0.85391">
        <ele>1096.5</ele>
        <time>2019-08-17T12:30:11Z</time>
      </trkpt>
      <trkpt lat="42.94599" lon="0.85391">
        <ele>1096.3</ele>
        <time>2019-08-17T12:30:12Z</time>
      </trkpt>
      <trkpt lat="42.94598" lon="0.85391">
        <ele>1096</ele>
        <time>2019-08-17T12:30:13Z</time>
      </trkpt>
      <trkpt lat="42.94597" lon="0.8539">
        <ele>1095.8</ele>
        <time>2019-08-17T12:30:14Z</time>
      </trkpt>
      <trkpt lat="42.94596" lon="0.8539">
        <ele>1095.6</ele>
        <time>2019-08-17T12:30:15Z</time>
      </trkpt>
      <trkpt lat="42.94595" lon="0.8539">
        <ele>1095.3</ele>
        <time>2019-08-17T12:30:16Z</time>
      </trkpt>
      <trkpt lat="42.94594" lon="0.8539">
        <ele>1095.1</ele>
        <time>2019-08-17T12:30:17Z</time>
      </trkpt>
      <trkpt lat="42.94594" lon="0.8539">
        <ele>1094.9</ele>
        <time>2019-08-17T12:30:18Z</time>
      </trkpt>
      <trkpt lat="42.94593" lon="0.8539">
        <ele>1094.7</ele>
        <time>2019-08-17T12:30:19Z</time>
      </trkpt>
      <trkpt lat="42.94592" lon="0.85389">
        <ele>1094.5</ele>
        <time>2019-08-17T12:30:20Z</time>
      </trkpt>
      <trkpt lat="42.94591" lon="0.85389">
        <ele>1094.4</ele>
        <time>2019-08-17T12:30:21Z</time>
      </trkpt>
      <trkpt lat="42.9459" lon="0.85389">
        <ele>1094.1</ele>
        <time>2019-08-17T12:30:22Z</time>
      </trkpt>
      <trkpt lat="42.94589" lon="0.85389">
        <ele>1094</ele>
        <time>2019-08-17T12:30:23Z</time>
      </trkpt>
      <trkpt lat="42.94589" lon="0.85389">
        <ele>1093.1</ele>
        <time>2019-08-17T12:30:24Z</time>
      </trkpt>
      <trkpt lat="42.94588" lon="0.85389">
        <ele>1092.9</ele>
        <time>2019-08-17T12:30:25Z</time>
      </trkpt>
      <trkpt lat="42.94587" lon="0.85388">
        <ele>1092.8</ele>
        <time>2019-08-17T12:30:26Z</time>
      </trkpt>
      <trkpt lat="42.94586" lon="0.85388">
        <ele>1092.6</ele>
        <time>2019-08-17T12:30:27Z</time>
      </trkpt>
      <trkpt lat="42.94585" lon="0.85388">
        <ele>1092.4</ele>
        <time>2019-08-17T12:30:28Z</time>
      </trkpt>
      <trkpt lat="42.94584" lon="0.85388">
        <ele>1092.2</ele>
        <time>2019-08-17T12:30:29Z</time>
      </trkpt>
      <trkpt lat="42.94584" lon="0.85388">
        <ele>1092.1</ele>
        <time>2019-08-17T12:30:30Z</time>
      </trkpt>
      <trkpt lat="42.94583" lon="0.85387">
        <ele>1091.9</ele>
        <time>2019-08-17T12:30:31Z</time>
      </trkpt>
      <trkpt lat="42.94582" lon="0.85387">
        <ele>1091.7</ele>
        <time>2019-08-17T12:30:32Z</time>
      </trkpt>
      <trkpt lat="42.94581" lon="0.85387">
        <ele>1091.5</ele>
        <time>2019-08-17T12:30:33Z</time>
      </trkpt>
      <trkpt lat="42.9458" lon="0.85387">
        <ele>1091.4</ele>
        <time>2019-08-17T12:30:34Z</time>
      </trkpt>
      <trkpt lat="42.94579" lon="0.85387">
        <ele>1091.2</ele>
        <time>2019-08-17T12:30:35Z</time>
      </trkpt>
      <trkpt lat="42.94576" lon="0.85387">
        <ele>1090.7</ele>
        <time>2019-08-17T12:30:36Z</time>
      </trkpt>
      <trkpt lat="42.94575" lon="0.85387">
        <ele>1090.5</ele>
        <time>2019-08-17T12:30:37Z</time>
      </trkpt>
      <trkpt lat="42.94574" lon="0.85386">
        <ele>1090.3</ele>
        <time>2019-08-17T12:30:38Z</time>
      </trkpt>
      <trkpt lat="42.94573" lon="0.85386">
        <ele>1090.1</ele>
        <time>2019-08-17T12:30:39Z</time>
      </trkpt>
      <trkpt lat="42.94572" lon="0.85386">
        <ele>1089.9</ele>
        <time>2019-08-17T12:30:40Z</time>
      </trkpt>
      <trkpt lat="42.94571" lon="0.85386">
        <ele>1089.8</ele>
        <time>2019-08-17T12:30:41Z</time>
      </trkpt>
      <trkpt lat="42.94569" lon="0.85386">
        <ele>1089.6</ele>
        <time>2019-08-17T12:30:42Z</time>
      </trkpt>
      <trkpt lat="42.94568" lon="0.85386">
        <ele>1089.4</ele>
        <time>2019-08-17T12:30:43Z</time>
      </trkpt>
      <trkpt lat="42.94567" lon="0.85386">
        <ele>1089.3</ele>
        <time>2019-08-17T12:30:44Z</time>
      </trkpt>
      <trkpt lat="42.94566" lon="0.85386">
        <ele>1089.1</ele>
        <time>2019-08-17T12:30:45Z</time>
      </trkpt>
      <trkpt lat="42.94565" lon="0.85385">
        <ele>1088.9</ele>
        <time>2019-08-17T12:30:46Z</time>
      </trkpt>
      <trkpt lat="42.94564" lon="0.85385">
        <ele>1088.7</ele>
        <time>2019-08-17T12:30:47Z</time>
      </trkpt>
      <trkpt lat="42.94563" lon="0.85385">
        <ele>1088.6</ele>
        <time>2019-08-17T12:30:48Z</time>
      </trkpt>
      <trkpt lat="42.94562" lon="0.85385">
        <ele>1088.4</ele>
        <time>2019-08-17T12:30:49Z</time>
      </trkpt>
      <trkpt lat="42.9456" lon="0.85385">
        <ele>1088.2</ele>
        <time>2019-08-17T12:30:50Z</time>
      </trkpt>
      <trkpt lat="42.94559" lon="0.85385">
        <ele>1088</ele>
        <time>2019-08-17T12:30:51Z</time>
      </trkpt>
      <trkpt lat="42.94558" lon="0.85385">
        <ele>1087.8</ele>
        <time>2019-08-17T12:30:52Z</time>
      </trkpt>
      <trkpt lat="42.94557" lon="0.85385">
        <ele>1087.7</ele>
        <time>2019-08-17T12:30:53Z</time>
      </trkpt>
      <trkpt lat="42.94556" lon="0.85386">
        <ele>1087.5</ele>
        <time>2019-08-17T12:30:54Z</time>
      </trkpt>
      <trkpt lat="42.94555" lon="0.85386">
        <ele>1087.3</ele>
        <time>2019-08-17T12:30:55Z</time>
      </trkpt>
      <trkpt lat="42.94554" lon="0.85386">
        <ele>1087.1</ele>
        <time>2019-08-17T12:30:56Z</time>
      </trkpt>
      <trkpt lat="42.94553" lon="0.85386">
        <ele>1087</ele>
        <time>2019-08-17T12:30:57Z</time>
      </trkpt>
      <trkpt lat="42.94552" lon="0.85386">
        <ele>1086.8</ele>
        <time>2019-08-17T12:30:58Z</time>
      </trkpt>
      <trkpt lat="42.94551" lon="0.85387">
        <ele>1086.6</ele>
        <time>2019-08-17T12:30:59Z</time>
      </trkpt>
      <trkpt lat="42.9455" lon="0.85387">
        <ele>1086.4</ele>
        <time>2019-08-17T12:31:00Z</time>
      </trkpt>
      <trkpt lat="42.94549" lon="0.85387">
        <ele>1086.2</ele>
        <time>2019-08-17T12:31:01Z</time>
      </trkpt>
      <trkpt lat="42.94548" lon="0.85387">
        <ele>1086</ele>
        <time>2019-08-17T12:31:02Z</time>
      </trkpt>
      <trkpt lat="42.94547" lon="0.85387">
        <ele>1085.9</ele>
        <time>2019-08-17T12:31:03Z</time>
      </trkpt>
      <trkpt lat="42.94546" lon="0.85388">
        <ele>1085.7</ele>
        <time>2019-08-17T12:31:04Z</time>
      </trkpt>
      <trkpt lat="42.94545" lon="0.85388">
        <ele>1085.5</ele>
        <time>2019-08-17T12:31:05Z</time>
      </trkpt>
      <trkpt lat="42.94544" lon="0.85388">
        <ele>1085.4</ele>
        <time>2019-08-17T12:31:06Z</time>
      </trkpt>
      <trkpt lat="42.94543" lon="0.85388">
        <ele>1085.2</ele>
        <time>2019-08-17T12:31:07Z</time>
      </trkpt>
      <trkpt lat="42.94542" lon="0.85388">
        <ele>1085.1</ele>
        <time>2019-08-17T12:31:08Z</time>
      </trkpt>
      <trkpt lat="42.94541" lon="0.85388">
        <ele>1084.9</ele>
        <time>2019-08-17T12:31:09Z</time>
      </trkpt>
      <trkpt lat="42.9454" lon="0.85388">
        <ele>1084.8</ele>
        <time>2019-08-17T12:31:10Z</time>
      </trkpt>
      <trkpt lat="42.94539" lon="0.85388">
        <ele>1084.6</ele>
        <time>2019-08-17T12:31:11Z</time>
      </trkpt>
      <trkpt lat="42.94538" lon="0.85388">
        <ele>1084.4</ele>
        <time>2019-08-17T12:31:12Z</time>
      </trkpt>
      <trkpt lat="42.94537" lon="0.85388">
        <ele>1084.3</ele>
        <time>2019-08-17T12:31:13Z</time>
      </trkpt>
      <trkpt lat="42.94536" lon="0.85388">
        <ele>1084.1</ele>
        <time>2019-08-17T12:31:14Z</time>
      </trkpt>
      <trkpt lat="42.94535" lon="0.85388">
        <ele>1084</ele>
        <time>2019-08-17T12:31:15Z</time>
      </trkpt>
      <trkpt lat="42.94534" lon="0.85388">
        <ele>1083.8</ele>
        <time>2019-08-17T12:31:16Z</time>
      </trkpt>
      <trkpt lat="42.94533" lon="0.85387">
        <ele>1083.7</ele>
        <time>2019-08-17T12:31:17Z</time>
      </trkpt>
      <trkpt lat="42.94532" lon="0.85387">
        <ele>1083.5</ele>
        <time>2019-08-17T12:31:18Z</time>
      </trkpt>
      <trkpt lat="42.94531" lon="0.85387">
        <ele>1083.4</ele>
        <time>2019-08-17T12:31:19Z</time>
      </trkpt>
      <trkpt lat="42.94531" lon="0.85387">
        <ele>1083.3</ele>
        <time>2019-08-17T12:31:20Z</time>
      </trkpt>
      <trkpt lat="42.9453" lon="0.85387">
        <ele>1083.1</ele>
        <time>2019-08-17T12:31:21Z</time>
      </trkpt>
      <trkpt lat="42.94529" lon="0.85387">
        <ele>1083</ele>
        <time>2019-08-17T12:31:22Z</time>
      </trkpt>
      <trkpt lat="42.94528" lon="0.85387">
        <ele>1082.9</ele>
        <time>2019-08-17T12:31:23Z</time>
      </trkpt>
      <trkpt lat="42.94527" lon="0.85387">
        <ele>1082.7</ele>
        <time>2019-08-17T12:31:24Z</time>
      </trkpt>
      <trkpt lat="42.94526" lon="0.85387">
        <ele>1082.6</ele>
        <time>2019-08-17T12:31:25Z</time>
      </trkpt>
      <trkpt lat="42.94525" lon="0.85387">
        <ele>1082.5</ele>
        <time>2019-08-17T12:31:26Z</time>
      </trkpt>
      <trkpt lat="42.94524" lon="0.85387">
        <ele>1082.3</ele>
        <time>2019-08-17T12:31:27Z</time>
      </trkpt>
      <trkpt lat="42.94523" lon="0.85388">
        <ele>1082.2</ele>
        <time>2019-08-17T12:31:28Z</time>
      </trkpt>
      <trkpt lat="42.94522" lon="0.85388">
        <ele>1082.1</ele>
        <time>2019-08-17T12:31:29Z</time>
      </trkpt>
      <trkpt lat="42.94522" lon="0.85387">
        <ele>1081.9</ele>
        <time>2019-08-17T12:31:30Z</time>
      </trkpt>
      <trkpt lat="42.94521" lon="0.85387">
        <ele>1081.8</ele>
        <time>2019-08-17T12:31:31Z</time>
      </trkpt>
      <trkpt lat="42.9452" lon="0.85387">
        <ele>1081.7</ele>
        <time>2019-08-17T12:31:32Z</time>
      </trkpt>
      <trkpt lat="42.94519" lon="0.85387">
        <ele>1081.5</ele>
        <time>2019-08-17T12:31:33Z</time>
      </trkpt>
      <trkpt lat="42.94518" lon="0.85387">
        <ele>1081.4</ele>
        <time>2019-08-17T12:31:34Z</time>
      </trkpt>
      <trkpt lat="42.94518" lon="0.85387">
        <ele>1081.3</ele>
        <time>2019-08-17T12:31:35Z</time>
      </trkpt>
      <trkpt lat="42.94517" lon="0.85386">
        <ele>1081.1</ele>
        <time>2019-08-17T12:31:36Z</time>
      </trkpt>
      <trkpt lat="42.94516" lon="0.85386">
        <ele>1081</ele>
        <time>2019-08-17T12:31:37Z</time>
      </trkpt>
      <trkpt lat="42.94515" lon="0.85386">
        <ele>1080.8</ele>
        <time>2019-08-17T12:31:38Z</time>
      </trkpt>
      <trkpt lat="42.94514" lon="0.85386">
        <ele>1080.7</ele>
        <time>2019-08-17T12:31:39Z</time>
      </trkpt>
      <trkpt lat="42.94514" lon="0.85386">
        <ele>1080.6</ele>
        <time>2019-08-17T12:31:40Z</time>
      </trkpt>
      <trkpt lat="42.94513" lon="0.85386">
        <ele>1080.5</ele>
        <time>2019-08-17T12:31:41Z</time>
      </trkpt>
      <trkpt lat="42.94513" lon="0.85386">
        <ele>1080.4</ele>
        <time>2019-08-17T12:31:42Z</time>
      </trkpt>
      <trkpt lat="42.94512" lon="0.85386">
        <ele>1080.4</ele>
        <time>2019-08-17T12:31:43Z</time>
      </trkpt>
      <trkpt lat="42.94512" lon="0.85386">
        <ele>1080.3</ele>
        <time>2019-08-17T12:31:44Z</time>
      </trkpt>
      <trkpt lat="42.94512" lon="0.85386">
        <ele>1080.3</ele>
        <time>2019-08-17T12:31:45Z</time>
      </trkpt>
      <trkpt lat="42.94512" lon="0.85386">
        <ele>1080.3</ele>
        <time>2019-08-17T12:31:46Z</time>
      </trkpt>
      <trkpt lat="42.94512" lon="0.85386">
        <ele>1080.3</ele>
        <time>2019-08-17T12:31:47Z</time>
      </trkpt>
      <trkpt lat="42.94512" lon="0.85386">
        <ele>1080.3</ele>
        <time>2019-08-17T12:31:48Z</time>
      </trkpt>
      <trkpt lat="42.94512" lon="0.85386">
        <ele>1080.3</ele>
        <time>2019-08-17T12:31:49Z</time>
      </trkpt>
      <trkpt lat="42.94512" lon="0.85386">
        <ele>1080.3</ele>
        <time>2019-08-17T12:31:50Z</time>
      </trkpt>
      <trkpt lat="42.94512" lon="0.85386">
        <ele>1080.3</ele>
        <time>2019-08-17T12:31:51Z</time>
      </trkpt>
      <trkpt lat="42.94512" lon="0.85386">
        <ele>1080.3</ele>
        <time>2019-08-17T12:31:52Z</time>
      </trkpt>
      <trkpt lat="42.94512" lon="0.85386">
        <ele>1080.3</ele>
        <time>2019-08-17T12:31:53Z</time>
      </trkpt>
      <trkpt lat="42.94512" lon="0.85386">
        <ele>1080.3</ele>
        <time>2019-08-17T12:31:54Z</time>
      </trkpt>
      <trkpt lat="42.94512" lon="0.85386">
        <ele>1080.3</ele>
        <time>2019-08-17T12:31:55Z</time>
      </trkpt>
      <trkpt lat="42.94512" lon="0.85386">
        <ele>1080.3</ele>
        <time>2019-08-17T12:31:56Z</time>
      </trkpt>
      <trkpt lat="42.94512" lon="0.85386">
        <ele>1080.3</ele>
        <time>2019-08-17T12:31:57Z</time>
      </trkpt>
      <trkpt lat="42.94512" lon="0.85386">
        <ele>1080.3</ele>
        <time>2019-08-17T12:31:58Z</time>
      </trkpt>
      <trkpt lat="42.94512" lon="0.85386">
        <ele>1080.3</ele>
        <time>2019-08-17T12:31:59Z</time>
      </trkpt>
      <trkpt lat="42.94512" lon="0.85386">
        <ele>1080.3</ele>
        <time>2019-08-17T12:32:00Z</time>
      </trkpt>
      <trkpt lat="42.94512" lon="0.85386">
        <ele>1080.3</ele>
        <time>2019-08-17T12:32:01Z</time>
      </trkpt>
      <trkpt lat="42.94512" lon="0.85386">
        <ele>1080.3</ele>
        <time>2019-08-17T12:32:02Z</time>
      </trkpt>
      <trkpt lat="42.94512" lon="0.85386">
        <ele>1080.3</ele>
        <time>2019-08-17T12:32:03Z</time>
      </trkpt>
      <trkpt lat="42.94512" lon="0.85386">
        <ele>1080.3</ele>
        <time>2019-08-17T12:32:04Z</time>
      </trkpt>
      <trkpt lat="42.94512" lon="0.85386">
        <ele>1080.3</ele>
        <time>2019-08-17T12:32:05Z</time>
      </trkpt>
      <trkpt lat="42.94512" lon="0.85386">
        <ele>1080.3</ele>
        <time>2019-08-17T12:32:06Z</time>
      </trkpt>
      <trkpt lat="42.94512" lon="0.85386">
        <ele>1080.3</ele>
        <time>2019-08-17T12:32:07Z</time>
      </trkpt>
      <trkpt lat="42.94512" lon="0.85386">
        <ele>1080.2</ele>
        <time>2019-08-17T12:32:08Z</time>
      </trkpt>
      <trkpt lat="42.94512" lon="0.85386">
        <ele>1080.2</ele>
        <time>2019-08-17T12:32:09Z</time>
      </trkpt>
      <trkpt lat="42.94512" lon="0.85386">
        <ele>1080.2</ele>
        <time>2019-08-17T12:32:10Z</time>
      </trkpt>
      <trkpt lat="42.94512" lon="0.85386">
        <ele>1080.2</ele>
        <time>2019-08-17T12:32:11Z</time>
      </trkpt>
      <trkpt lat="42.94512" lon="0.85386">
        <ele>1080.2</ele>
        <time>2019-08-17T12:32:12Z</time>
      </trkpt>
      <trkpt lat="42.94512" lon="0.85386">
        <ele>1080.2</ele>
        <time>2019-08-17T12:32:13Z</time>
      </trkpt>
      <trkpt lat="42.94512" lon="0.85386">
        <ele>1080.2</ele>
        <time>2019-08-17T12:32:14Z</time>
      </trkpt>
      <trkpt lat="42.94512" lon="0.85385">
        <ele>1080.2</ele>
        <time>2019-08-17T12:32:15Z</time>
      </trkpt>
      <trkpt lat="42.94511" lon="0.85385">
        <ele>1080.1</ele>
        <time>2019-08-17T12:32:16Z</time>
      </trkpt>
      <trkpt lat="42.94511" lon="0.85385">
        <ele>1080.1</ele>
        <time>2019-08-17T12:32:17Z</time>
      </trkpt>
      <trkpt lat="42.94511" lon="0.85385">
        <ele>1080</ele>
        <time>2019-08-17T12:32:18Z</time>
      </trkpt>
      <trkpt lat="42.9451" lon="0.85385">
        <ele>1079.9</ele>
        <time>2019-08-17T12:32:19Z</time>
      </trkpt>
      <trkpt lat="42.9451" lon="0.85385">
        <ele>1079.9</ele>
        <time>2019-08-17T12:32:20Z</time>
      </trkpt>
      <trkpt lat="42.9451" lon="0.85385">
        <ele>1079.8</ele>
        <time>2019-08-17T12:32:21Z</time>
      </trkpt>
      <trkpt lat="42.94509" lon="0.85385">
        <ele>1079.8</ele>
        <time>2019-08-17T12:32:22Z</time>
      </trkpt>
      <trkpt lat="42.94509" lon="0.85385">
        <ele>1079.8</ele>
        <time>2019-08-17T12:32:23Z</time>
      </trkpt>
      <trkpt lat="42.94509" lon="0.85385">
        <ele>1079.8</ele>
        <time>2019-08-17T12:32:24Z</time>
      </trkpt>
      <trkpt lat="42.9451" lon="0.85385">
        <ele>1079.7</ele>
        <time>2019-08-17T12:32:25Z</time>
      </trkpt>
      <trkpt lat="42.9451" lon="0.85386">
        <ele>1079.7</ele>
        <time>2019-08-17T12:32:26Z</time>
      </trkpt>
      <trkpt lat="42.94511" lon="0.85386">
        <ele>1079.6</ele>
        <time>2019-08-17T12:32:27Z</time>
      </trkpt>
      <trkpt lat="42.94511" lon="0.85386">
        <ele>1079.4</ele>
        <time>2019-08-17T12:32:28Z</time>
      </trkpt>
      <trkpt lat="42.94512" lon="0.85387">
        <ele>1079.3</ele>
        <time>2019-08-17T12:32:29Z</time>
      </trkpt>
      <trkpt lat="42.94512" lon="0.85387">
        <ele>1079.2</ele>
        <time>2019-08-17T12:32:30Z</time>
      </trkpt>
      <trkpt lat="42.94513" lon="0.85388">
        <ele>1079.1</ele>
        <time>2019-08-17T12:32:31Z</time>
      </trkpt>
      <trkpt lat="42.94513" lon="0.85388">
        <ele>1079</ele>
        <time>2019-08-17T12:32:32Z</time>
      </trkpt>
      <trkpt lat="42.94513" lon="0.85388">
        <ele>1079</ele>
        <time>2019-08-17T12:32:33Z</time>
      </trkpt>
      <trkpt lat="42.94513" lon="0.85388">
        <ele>1079</ele>
        <time>2019-08-17T12:32:34Z</time>
      </trkpt>
      <trkpt lat="42.94513" lon="0.85388">
        <ele>1078.9</ele>
        <time>2019-08-17T12:32:35Z</time>
      </trkpt>
      <trkpt lat="42.94513" lon="0.85388">
        <ele>1078.9</ele>
        <time>2019-08-17T12:32:36Z</time>
      </trkpt>
      <trkpt lat="42.94513" lon="0.85387">
        <ele>1078.8</ele>
        <time>2019-08-17T12:32:37Z</time>
      </trkpt>
      <trkpt lat="42.94512" lon="0.85387">
        <ele>1078.6</ele>
        <time>2019-08-17T12:32:38Z</time>
      </trkpt>
      <trkpt lat="42.94511" lon="0.85387">
        <ele>1078.5</ele>
        <time>2019-08-17T12:32:39Z</time>
      </trkpt>
      <trkpt lat="42.9451" lon="0.85386">
        <ele>1078.3</ele>
        <time>2019-08-17T12:32:40Z</time>
      </trkpt>
      <trkpt lat="42.94509" lon="0.85386">
        <ele>1078.2</ele>
        <time>2019-08-17T12:32:41Z</time>
      </trkpt>
      <trkpt lat="42.94508" lon="0.85386">
        <ele>1078</ele>
        <time>2019-08-17T12:32:42Z</time>
      </trkpt>
      <trkpt lat="42.94507" lon="0.85387">
        <ele>1077.8</ele>
        <time>2019-08-17T12:32:43Z</time>
      </trkpt>
      <trkpt lat="42.94506" lon="0.85387">
        <ele>1077.6</ele>
        <time>2019-08-17T12:32:44Z</time>
      </trkpt>
      <trkpt lat="42.94505" lon="0.85388">
        <ele>1077.3</ele>
        <time>2019-08-17T12:32:45Z</time>
      </trkpt>
      <trkpt lat="42.94505" lon="0.85389">
        <ele>1077.2</ele>
        <time>2019-08-17T12:32:46Z</time>
      </trkpt>
      <trkpt lat="42.94504" lon="0.85391">
        <ele>1077</ele>
        <time>2019-08-17T12:32:47Z</time>
      </trkpt>
      <trkpt lat="42.94504" lon="0.85392">
        <ele>1076.9</ele>
        <time>2019-08-17T12:32:48Z</time>
      </trkpt>
      <trkpt lat="42.94505" lon="0.85393">
        <ele>1076.7</ele>
        <time>2019-08-17T12:32:49Z</time>
      </trkpt>
      <trkpt lat="42.94505" lon="0.85394">
        <ele>1076.6</ele>
        <time>2019-08-17T12:32:50Z</time>
      </trkpt>
      <trkpt lat="42.94506" lon="0.85395">
        <ele>1076.4</ele>
        <time>2019-08-17T12:32:51Z</time>
      </trkpt>
      <trkpt lat="42.94506" lon="0.85395">
        <ele>1076.3</ele>
        <time>2019-08-17T12:32:52Z</time>
      </trkpt>
      <trkpt lat="42.94507" lon="0.85396">
        <ele>1076.2</ele>
        <time>2019-08-17T12:32:53Z</time>
      </trkpt>
      <trkpt lat="42.94507" lon="0.85396">
        <ele>1076.1</ele>
        <time>2019-08-17T12:32:54Z</time>
      </trkpt>
      <trkpt lat="42.94507" lon="0.85396">
        <ele>1076.1</ele>
        <time>2019-08-17T12:32:55Z</time>
      </trkpt>
      <trkpt lat="42.94507" lon="0.85397">
        <ele>1076</ele>
        <time>2019-08-17T12:32:56Z</time>
      </trkpt>
      <trkpt lat="42.94507" lon="0.85397">
        <ele>1076</ele>
        <time>2019-08-17T12:32:57Z</time>
      </trkpt>
      <trkpt lat="42.94507" lon="0.85397">
        <ele>1076</ele>
        <time>2019-08-17T12:32:58Z</time>
      </trkpt>
      <trkpt lat="42.94507" lon="0.85397">
        <ele>1076</ele>
        <time>2019-08-17T12:32:59Z</time>
      </trkpt>
      <trkpt lat="42.94507" lon="0.85396">
        <ele>1075.9</ele>
        <time>2019-08-17T12:33:00Z</time>
      </trkpt>
      <trkpt lat="42.94507" lon="0.85396">
        <ele>1075.9</ele>
        <time>2019-08-17T12:33:01Z</time>
      </trkpt>
      <trkpt lat="42.94507" lon="0.85396">
        <ele>1075.9</ele>
        <time>2019-08-17T12:33:02Z</time>
      </trkpt>
      <trkpt lat="42.94507" lon="0.85396">
        <ele>1075.9</ele>
        <time>2019-08-17T12:33:03Z</time>
      </trkpt>
      <trkpt lat="42.94507" lon="0.85396">
        <ele>1075.9</ele>
        <time>2019-08-17T12:33:04Z</time>
      </trkpt>
      <trkpt lat="42.94507" lon="0.85396">
        <ele>1075.9</ele>
        <time>2019-08-17T12:33:05Z</time>
      </trkpt>
      <trkpt lat="42.94507" lon="0.85396">
        <ele>1075.9</ele>
        <time>2019-08-17T12:33:06Z</time>
      </trkpt>
      <trkpt lat="42.94507" lon="0.85396">
        <ele>1075.9</ele>
        <time>2019-08-17T12:33:07Z</time>
      </trkpt>
      <trkpt lat="42.94507" lon="0.85396">
        <ele>1075.9</ele>
        <time>2019-08-17T12:33:08Z</time>
      </trkpt>
      <trkpt lat="42.94507" lon="0.85396">
        <ele>1075.9</ele>
        <time>2019-08-17T12:33:09Z</time>
      </trkpt>
      <trkpt lat="42.94507" lon="0.85396">
        <ele>1075.8</ele>
        <time>2019-08-17T12:33:10Z</time>
      </trkpt>
      <trkpt lat="42.94507" lon="0.85396">
        <ele>1075.8</ele>
        <time>2019-08-17T12:33:11Z</time>
      </trkpt>
      <trkpt lat="42.94507" lon="0.85396">
        <ele>1075.8</ele>
        <time>2019-08-17T12:33:12Z</time>
      </trkpt>
      <trkpt lat="42.94507" lon="0.85396">
        <ele>1075.8</ele>
        <time>2019-08-17T12:33:13Z</time>
      </trkpt>
      <trkpt lat="42.94507" lon="0.85396">
        <ele>1075.8</ele>
        <time>2019-08-17T12:33:14Z</time>
      </trkpt>
      <trkpt lat="42.94507" lon="0.85397">
        <ele>1075.8</ele>
        <time>2019-08-17T12:33:15Z</time>
      </trkpt>
      <trkpt lat="42.94506" lon="0.85398">
        <ele>1075.7</ele>
        <time>2019-08-17T12:33:16Z</time>
      </trkpt>
      <trkpt lat="42.94506" lon="0.85398">
        <ele>1075.5</ele>
        <time>2019-08-17T12:33:17Z</time>
      </trkpt>
      <trkpt lat="42.94505" lon="0.85398">
        <ele>1075.4</ele>
        <time>2019-08-17T12:33:18Z</time>
      </trkpt>
      <trkpt lat="42.94504" lon="0.85397">
        <ele>1075.2</ele>
        <time>2019-08-17T12:33:19Z</time>
      </trkpt>
      <trkpt lat="42.94503" lon="0.85397">
        <ele>1075</ele>
        <time>2019-08-17T12:33:20Z</time>
      </trkpt>
      <trkpt lat="42.94502" lon="0.85396">
        <ele>1074.9</ele>
        <time>2019-08-17T12:33:21Z</time>
      </trkpt>
      <trkpt lat="42.94501" lon="0.85395">
        <ele>1074.7</ele>
        <time>2019-08-17T12:33:22Z</time>
      </trkpt>
      <trkpt lat="42.945" lon="0.85395">
        <ele>1074.5</ele>
        <time>2019-08-17T12:33:23Z</time>
      </trkpt>
      <trkpt lat="42.94499" lon="0.85394">
        <ele>1074.4</ele>
        <time>2019-08-17T12:33:24Z</time>
      </trkpt>
      <trkpt lat="42.94498" lon="0.85393">
        <ele>1074.1</ele>
        <time>2019-08-17T12:33:25Z</time>
      </trkpt>
      <trkpt lat="42.94497" lon="0.85393">
        <ele>1073.9</ele>
        <time>2019-08-17T12:33:26Z</time>
      </trkpt>
      <trkpt lat="42.94496" lon="0.85392">
        <ele>1073.7</ele>
        <time>2019-08-17T12:33:27Z</time>
      </trkpt>
      <trkpt lat="42.94494" lon="0.85392">
        <ele>1073.5</ele>
        <time>2019-08-17T12:33:28Z</time>
      </trkpt>
      <trkpt lat="42.94493" lon="0.85392">
        <ele>1073.3</ele>
        <time>2019-08-17T12:33:29Z</time>
      </trkpt>
      <trkpt lat="42.94492" lon="0.85392">
        <ele>1072.2</ele>
        <time>2019-08-17T12:33:30Z</time>
      </trkpt>
      <trkpt lat="42.94492" lon="0.85392">
        <ele>1072.2</ele>
        <time>2019-08-17T12:33:31Z</time>
      </trkpt>
      <trkpt lat="42.94491" lon="0.85393">
        <ele>1072.2</ele>
        <time>2019-08-17T12:33:32Z</time>
      </trkpt>
      <trkpt lat="42.9449" lon="0.85394">
        <ele>1072.2</ele>
        <time>2019-08-17T12:33:33Z</time>
      </trkpt>
      <trkpt lat="42.9449" lon="0.85395">
        <ele>1072.2</ele>
        <time>2019-08-17T12:33:34Z</time>
      </trkpt>
      <trkpt lat="42.94489" lon="0.85396">
        <ele>1072.2</ele>
        <time>2019-08-17T12:33:35Z</time>
      </trkpt>
      <trkpt lat="42.94489" lon="0.85397">
        <ele>1072.2</ele>
        <time>2019-08-17T12:33:36Z</time>
      </trkpt>
      <trkpt lat="42.94489" lon="0.85399">
        <ele>1072.2</ele>
        <time>2019-08-17T12:33:37Z</time>
      </trkpt>
      <trkpt lat="42.94488" lon="0.854">
        <ele>1072.1</ele>
        <time>2019-08-17T12:33:38Z</time>
      </trkpt>
      <trkpt lat="42.94488" lon="0.85402">
        <ele>1072.1</ele>
        <time>2019-08-17T12:33:39Z</time>
      </trkpt>
      <trkpt lat="42.94488" lon="0.85403">
        <ele>1072.1</ele>
        <time>2019-08-17T12:33:40Z</time>
      </trkpt>
      <trkpt lat="42.94488" lon="0.85405">
        <ele>1072.1</ele>
        <time>2019-08-17T12:33:41Z</time>
      </trkpt>
      <trkpt lat="42.94488" lon="0.85406">
        <ele>1072.1</ele>
        <time>2019-08-17T12:33:42Z</time>
      </trkpt>
      <trkpt lat="42.94488" lon="0.85407">
        <ele>1072.3</ele>
        <time>2019-08-17T12:33:43Z</time>
      </trkpt>
      <trkpt lat="42.94488" lon="0.85408">
        <ele>1072.2</ele>
        <time>2019-08-17T12:33:44Z</time>
      </trkpt>
      <trkpt lat="42.94488" lon="0.8541">
        <ele>1072.1</ele>
        <time>2019-08-17T12:33:45Z</time>
      </trkpt>
      <trkpt lat="42.94488" lon="0.85411">
        <ele>1072.1</ele>
        <time>2019-08-17T12:33:46Z</time>
      </trkpt>
      <trkpt lat="42.94489" lon="0.85412">
        <ele>1072</ele>
        <time>2019-08-17T12:33:47Z</time>
      </trkpt>
      <trkpt lat="42.94489" lon="0.85414">
        <ele>1071.9</ele>
        <time>2019-08-17T12:33:48Z</time>
      </trkpt>
      <trkpt lat="42.94489" lon="0.85415">
        <ele>1071.8</ele>
        <time>2019-08-17T12:33:49Z</time>
      </trkpt>
      <trkpt lat="42.9449" lon="0.85416">
        <ele>1071.7</ele>
        <time>2019-08-17T12:33:50Z</time>
      </trkpt>
      <trkpt lat="42.9449" lon="0.85418">
        <ele>1071.6</ele>
        <time>2019-08-17T12:33:51Z</time>
      </trkpt>
      <trkpt lat="42.94491" lon="0.85419">
        <ele>1071.5</ele>
        <time>2019-08-17T12:33:52Z</time>
      </trkpt>
      <trkpt lat="42.94491" lon="0.8542">
        <ele>1071.4</ele>
        <time>2019-08-17T12:33:53Z</time>
      </trkpt>
      <trkpt lat="42.94492" lon="0.85422">
        <ele>1071.3</ele>
        <time>2019-08-17T12:33:54Z</time>
      </trkpt>
      <trkpt lat="42.94492" lon="0.85423">
        <ele>1071.2</ele>
        <time>2019-08-17T12:33:55Z</time>
      </trkpt>
      <trkpt lat="42.94493" lon="0.85425">
        <ele>1071.1</ele>
        <time>2019-08-17T12:33:56Z</time>
      </trkpt>
      <trkpt lat="42.94493" lon="0.85426">
        <ele>1071</ele>
        <time>2019-08-17T12:33:57Z</time>
      </trkpt>
      <trkpt lat="42.94493" lon="0.85427">
        <ele>1070.9</ele>
        <time>2019-08-17T12:33:58Z</time>
      </trkpt>
      <trkpt lat="42.94494" lon="0.85428">
        <ele>1070.8</ele>
        <time>2019-08-17T12:33:59Z</time>
      </trkpt>
      <trkpt lat="42.94494" lon="0.8543">
        <ele>1070.8</ele>
        <time>2019-08-17T12:34:00Z</time>
      </trkpt>
      <trkpt lat="42.94494" lon="0.85431">
        <ele>1070.7</ele>
        <time>2019-08-17T12:34:01Z</time>
      </trkpt>
      <trkpt lat="42.94494" lon="0.85432">
        <ele>1070.6</ele>
        <time>2019-08-17T12:34:02Z</time>
      </trkpt>
      <trkpt lat="42.94495" lon="0.85433">
        <ele>1070.5</ele>
        <time>2019-08-17T12:34:03Z</time>
      </trkpt>
      <trkpt lat="42.94495" lon="0.85434">
        <ele>1070.5</ele>
        <time>2019-08-17T12:34:04Z</time>
      </trkpt>
      <trkpt lat="42.94495" lon="0.85435">
        <ele>1070.4</ele>
        <time>2019-08-17T12:34:05Z</time>
      </trkpt>
      <trkpt lat="42.94495" lon="0.85436">
        <ele>1070.3</ele>
        <time>2019-08-17T12:34:06Z</time>
      </trkpt>
      <trkpt lat="42.94496" lon="0.85438">
        <ele>1070.2</ele>
        <time>2019-08-17T12:34:07Z</time>
      </trkpt>
      <trkpt lat="42.94496" lon="0.85439">
        <ele>1070.1</ele>
        <time>2019-08-17T12:34:08Z</time>
      </trkpt>
      <trkpt lat="42.94497" lon="0.8544">
        <ele>1069.9</ele>
        <time>2019-08-17T12:34:09Z</time>
      </trkpt>
      <trkpt lat="42.94497" lon="0.85442">
        <ele>1069.8</ele>
        <time>2019-08-17T12:34:10Z</time>
      </trkpt>
      <trkpt lat="42.94497" lon="0.85443">
        <ele>1069.7</ele>
        <time>2019-08-17T12:34:11Z</time>
      </trkpt>
      <trkpt lat="42.94498" lon="0.85444">
        <ele>1069.7</ele>
        <time>2019-08-17T12:34:12Z</time>
      </trkpt>
      <trkpt lat="42.94498" lon="0.85446">
        <ele>1069.7</ele>
        <time>2019-08-17T12:34:13Z</time>
      </trkpt>
      <trkpt lat="42.94498" lon="0.85447">
        <ele>1069.6</ele>
        <time>2019-08-17T12:34:14Z</time>
      </trkpt>
      <trkpt lat="42.94498" lon="0.85448">
        <ele>1069.6</ele>
        <time>2019-08-17T12:34:15Z</time>
      </trkpt>
      <trkpt lat="42.94498" lon="0.85448">
        <ele>1069.6</ele>
        <time>2019-08-17T12:34:16Z</time>
      </trkpt>
      <trkpt lat="42.94498" lon="0.85449">
        <ele>1069.6</ele>
        <time>2019-08-17T12:34:17Z</time>
      </trkpt>
      <trkpt lat="42.94498" lon="0.85449">
        <ele>1069.5</ele>
        <time>2019-08-17T12:34:18Z</time>
      </trkpt>
      <trkpt lat="42.94498" lon="0.85449">
        <ele>1069.5</ele>
        <time>2019-08-17T12:34:19Z</time>
      </trkpt>
      <trkpt lat="42.94498" lon="0.85449">
        <ele>1069.5</ele>
        <time>2019-08-17T12:34:20Z</time>
      </trkpt>
      <trkpt lat="42.94498" lon="0.85449">
        <ele>1069.5</ele>
        <time>2019-08-17T12:34:21Z</time>
      </trkpt>
      <trkpt lat="42.94498" lon="0.85449">
        <ele>1069.5</ele>
        <time>2019-08-17T12:34:22Z</time>
      </trkpt>
      <trkpt lat="42.94498" lon="0.85449">
        <ele>1069.5</ele>
        <time>2019-08-17T12:34:23Z</time>
      </trkpt>
      <trkpt lat="42.94498" lon="0.85449">
        <ele>1069.5</ele>
        <time>2019-08-17T12:34:24Z</time>
      </trkpt>
      <trkpt lat="42.94498" lon="0.85449">
        <ele>1069.5</ele>
        <time>2019-08-17T12:34:25Z</time>
      </trkpt>
      <trkpt lat="42.94498" lon="0.85449">
        <ele>1069.5</ele>
        <time>2019-08-17T12:34:26Z</time>
      </trkpt>
      <trkpt lat="42.94498" lon="0.85449">
        <ele>1069.5</ele>
        <time>2019-08-17T12:34:27Z</time>
      </trkpt>
      <trkpt lat="42.94498" lon="0.85449">
        <ele>1069.5</ele>
        <time>2019-08-17T12:34:28Z</time>
      </trkpt>
      <trkpt lat="42.94498" lon="0.85449">
        <ele>1069.5</ele>
        <time>2019-08-17T12:34:29Z</time>
      </trkpt>
      <trkpt lat="42.94498" lon="0.85449">
        <ele>1069.5</ele>
        <time>2019-08-17T12:34:30Z</time>
      </trkpt>
      <trkpt lat="42.94498" lon="0.85449">
        <ele>1069.5</ele>
        <time>2019-08-17T12:34:31Z</time>
      </trkpt>
      <trkpt lat="42.94498" lon="0.85449">
        <ele>1069.5</ele>
        <time>2019-08-17T12:34:32Z</time>
      </trkpt>
      <trkpt lat="42.94498" lon="0.85449">
        <ele>1069.5</ele>
        <time>2019-08-17T12:34:33Z</time>
      </trkpt>
      <trkpt lat="42.94498" lon="0.85449">
        <ele>1069.5</ele>
        <time>2019-08-17T12:34:34Z</time>
      </trkpt>
      <trkpt lat="42.94498" lon="0.85449">
        <ele>1069.5</ele>
        <time>2019-08-17T12:34:35Z</time>
      </trkpt>
      <trkpt lat="42.94498" lon="0.85449">
        <ele>1069.5</ele>
        <time>2019-08-17T12:34:36Z</time>
      </trkpt>
      <trkpt lat="42.94498" lon="0.85449">
        <ele>1069.5</ele>
        <time>2019-08-17T12:34:37Z</time>
      </trkpt>
      <trkpt lat="42.94498" lon="0.85449">
        <ele>1069.5</ele>
        <time>2019-08-17T12:34:38Z</time>
      </trkpt>
      <trkpt lat="42.94498" lon="0.85449">
        <ele>1069.5</ele>
        <time>2019-08-17T12:34:39Z</time>
      </trkpt>
      <trkpt lat="42.94498" lon="0.85449">
        <ele>1069.5</ele>
        <time>2019-08-17T12:34:40Z</time>
      </trkpt>
      <trkpt lat="42.94498" lon="0.85449">
        <ele>1069.5</ele>
        <time>2019-08-17T12:34:41Z</time>
      </trkpt>
      <trkpt lat="42.94498" lon="0.85449">
        <ele>1069.5</ele>
        <time>2019-08-17T12:34:42Z</time>
      </trkpt>
      <trkpt lat="42.94498" lon="0.85449">
        <ele>1069.5</ele>
        <time>2019-08-17T12:34:43Z</time>
      </trkpt>
      <trkpt lat="42.94498" lon="0.85449">
        <ele>1069.5</ele>
        <time>2019-08-17T12:34:44Z</time>
      </trkpt>
      <trkpt lat="42.94498" lon="0.85449">
        <ele>1069.5</ele>
        <time>2019-08-17T12:34:45Z</time>
      </trkpt>
      <trkpt lat="42.94498" lon="0.85449">
        <ele>1069.5</ele>
        <time>2019-08-17T12:34:46Z</time>
      </trkpt>
      <trkpt lat="42.94498" lon="0.85449">
        <ele>1069.5</ele>
        <time>2019-08-17T12:34:47Z</time>
      </trkpt>
      <trkpt lat="42.94498" lon="0.85449">
        <ele>1069.5</ele>
        <time>2019-08-17T12:34:48Z</time>
      </trkpt>
      <trkpt lat="42.94498" lon="0.85449">
        <ele>1069.5</ele>
        <time>2019-08-17T12:34:49Z</time>
      </trkpt>
      <trkpt lat="42.94498" lon="0.85449">
        <ele>1069.5</ele>
        <time>2019-08-17T12:34:50Z</time>
      </trkpt>
      <trkpt lat="42.94498" lon="0.85449">
        <ele>1069.5</ele>
        <time>2019-08-17T12:34:51Z</time>
      </trkpt>
      <trkpt lat="42.94498" lon="0.85449">
        <ele>1069.5</ele>
        <time>2019-08-17T12:34:52Z</time>
      </trkpt>
      <trkpt lat="42.94498" lon="0.85449">
        <ele>1069.5</ele>
        <time>2019-08-17T12:34:53Z</time>
      </trkpt>
      <trkpt lat="42.94498" lon="0.85449">
        <ele>1069.5</ele>
        <time>2019-08-17T12:34:54Z</time>
      </trkpt>
      <trkpt lat="42.94498" lon="0.85449">
        <ele>1069.5</ele>
        <time>2019-08-17T12:34:55Z</time>
      </trkpt>
      <trkpt lat="42.94498" lon="0.85449">
        <ele>1069.5</ele>
        <time>2019-08-17T12:34:56Z</time>
      </trkpt>
      <trkpt lat="42.94498" lon="0.85449">
        <ele>1069.5</ele>
        <time>2019-08-17T12:34:57Z</time>
      </trkpt>
      <trkpt lat="42.94498" lon="0.85449">
        <ele>1069.5</ele>
        <time>2019-08-17T12:34:58Z</time>
      </trkpt>
      <trkpt lat="42.94498" lon="0.85449">
        <ele>1069.5</ele>
        <time>2019-08-17T12:34:59Z</time>
      </trkpt>
      <trkpt lat="42.94498" lon="0.85449">
        <ele>1069.5</ele>
        <time>2019-08-17T12:35:00Z</time>
      </trkpt>
      <trkpt lat="42.94498" lon="0.85449">
        <ele>1069.5</ele>
        <time>2019-08-17T12:35:01Z</time>
      </trkpt>
      <trkpt lat="42.94498" lon="0.85449">
        <ele>1069.5</ele>
        <time>2019-08-17T12:35:02Z</time>
      </trkpt>
      <trkpt lat="42.94498" lon="0.85449">
        <ele>1069.5</ele>
        <time>2019-08-17T12:35:03Z</time>
      </trkpt>
      <trkpt lat="42.94498" lon="0.85449">
        <ele>1069.5</ele>
        <time>2019-08-17T12:35:04Z</time>
      </trkpt>
      <trkpt lat="42.94498" lon="0.85449">
        <ele>1069.5</ele>
        <time>2019-08-17T12:35:05Z</time>
      </trkpt>
      <trkpt lat="42.94498" lon="0.85449">
        <ele>1069.5</ele>
        <time>2019-08-17T12:35:06Z</time>
      </trkpt>
      <trkpt lat="42.94498" lon="0.85449">
        <ele>1069.5</ele>
        <time>2019-08-17T12:35:07Z</time>
      </trkpt>
      <trkpt lat="42.94498" lon="0.85449">
        <ele>1069.5</ele>
        <time>2019-08-17T12:35:08Z</time>
      </trkpt>
      <trkpt lat="42.94498" lon="0.85449">
        <ele>1069.5</ele>
        <time>2019-08-17T12:35:09Z</time>
      </trkpt>
      <trkpt lat="42.94498" lon="0.85449">
        <ele>1069.5</ele>
        <time>2019-08-17T12:35:10Z</time>
      </trkpt>
      <trkpt lat="42.94498" lon="0.85449">
        <ele>1069.5</ele>
        <time>2019-08-17T12:35:11Z</time>
      </trkpt>
      <trkpt lat="42.94498" lon="0.85449">
        <ele>1069.5</ele>
        <time>2019-08-17T12:35:12Z</time>
      </trkpt>
      <trkpt lat="42.94498" lon="0.85449">
        <ele>1069.5</ele>
        <time>2019-08-17T12:35:13Z</time>
      </trkpt>
      <trkpt lat="42.94498" lon="0.85449">
        <ele>1069.5</ele>
        <time>2019-08-17T12:35:14Z</time>
      </trkpt>
      <trkpt lat="42.94498" lon="0.85449">
        <ele>1069.5</ele>
        <time>2019-08-17T12:35:15Z</time>
      </trkpt>
      <trkpt lat="42.94498" lon="0.85449">
        <ele>1069.5</ele>
        <time>2019-08-17T12:35:16Z</time>
      </trkpt>
      <trkpt lat="42.94498" lon="0.85449">
        <ele>1069.5</ele>
        <time>2019-08-17T12:35:17Z</time>
      </trkpt>
      <trkpt lat="42.94498" lon="0.85449">
        <ele>1069.5</ele>
        <time>2019-08-17T12:35:18Z</time>
      </trkpt>
      <trkpt lat="42.94498" lon="0.85449">
        <ele>1069.5</ele>
        <time>2019-08-17T12:35:19Z</time>
      </trkpt>
      <trkpt lat="42.94498" lon="0.85449">
        <ele>1069.5</ele>
        <time>2019-08-17T12:35:20Z</time>
      </trkpt>
      <trkpt lat="42.94498" lon="0.85449">
        <ele>1069.5</ele>
        <time>2019-08-17T12:35:21Z</time>
      </trkpt>
      <trkpt lat="42.94498" lon="0.85449">
        <ele>1069.5</ele>
        <time>2019-08-17T12:35:22Z</time>
      </trkpt>
      <trkpt lat="42.94498" lon="0.85449">
        <ele>1069.5</ele>
        <time>2019-08-17T12:35:23Z</time>
      </trkpt>
      <trkpt lat="42.94498" lon="0.85449">
        <ele>1069.5</ele>
        <time>2019-08-17T12:35:24Z</time>
      </trkpt>
      <trkpt lat="42.94498" lon="0.85449">
        <ele>1069.5</ele>
        <time>2019-08-17T12:35:25Z</time>
      </trkpt>
      <trkpt lat="42.94498" lon="0.85448">
        <ele>1069.5</ele>
        <time>2019-08-17T12:35:26Z</time>
      </trkpt>
      <trkpt lat="42.94498" lon="0.85448">
        <ele>1069.5</ele>
        <time>2019-08-17T12:35:27Z</time>
      </trkpt>
      <trkpt lat="42.94498" lon="0.85447">
        <ele>1069.5</ele>
        <time>2019-08-17T12:35:28Z</time>
      </trkpt>
      <trkpt lat="42.94498" lon="0.85447">
        <ele>1069.4</ele>
        <time>2019-08-17T12:35:29Z</time>
      </trkpt>
      <trkpt lat="42.94498" lon="0.85447">
        <ele>1069.4</ele>
        <time>2019-08-17T12:35:30Z</time>
      </trkpt>
      <trkpt lat="42.94498" lon="0.85448">
        <ele>1069.4</ele>
        <time>2019-08-17T12:35:31Z</time>
      </trkpt>
      <trkpt lat="42.94498" lon="0.85448">
        <ele>1069.4</ele>
        <time>2019-08-17T12:35:32Z</time>
      </trkpt>
      <trkpt lat="42.94498" lon="0.85448">
        <ele>1069.4</ele>
        <time>2019-08-17T12:35:33Z</time>
      </trkpt>
      <trkpt lat="42.94498" lon="0.85448">
        <ele>1069.4</ele>
        <time>2019-08-17T12:35:34Z</time>
      </trkpt>
      <trkpt lat="42.94498" lon="0.85448">
        <ele>1069.4</ele>
        <time>2019-08-17T12:35:35Z</time>
      </trkpt>
      <trkpt lat="42.94498" lon="0.85448">
        <ele>1069.4</ele>
        <time>2019-08-17T12:35:36Z</time>
      </trkpt>
      <trkpt lat="42.94498" lon="0.85448">
        <ele>1069.4</ele>
        <time>2019-08-17T12:35:37Z</time>
      </trkpt>
      <trkpt lat="42.94498" lon="0.85448">
        <ele>1069.4</ele>
        <time>2019-08-17T12:35:38Z</time>
      </trkpt>
      <trkpt lat="42.94498" lon="0.85448">
        <ele>1069.4</ele>
        <time>2019-08-17T12:35:39Z</time>
      </trkpt>
      <trkpt lat="42.94498" lon="0.85448">
        <ele>1069.4</ele>
        <time>2019-08-17T12:35:40Z</time>
      </trkpt>
      <trkpt lat="42.94498" lon="0.85448">
        <ele>1069.4</ele>
        <time>2019-08-17T12:35:41Z</time>
      </trkpt>
      <trkpt lat="42.94498" lon="0.85448">
        <ele>1069.4</ele>
        <time>2019-08-17T12:35:42Z</time>
      </trkpt>
      <trkpt lat="42.94498" lon="0.85448">
        <ele>1069.4</ele>
        <time>2019-08-17T12:35:43Z</time>
      </trkpt>
      <trkpt lat="42.94498" lon="0.85448">
        <ele>1069.4</ele>
        <time>2019-08-17T12:35:44Z</time>
      </trkpt>
      <trkpt lat="42.94498" lon="0.85448">
        <ele>1069.4</ele>
        <time>2019-08-17T12:35:45Z</time>
      </trkpt>
      <trkpt lat="42.94498" lon="0.85448">
        <ele>1069.4</ele>
        <time>2019-08-17T12:35:46Z</time>
      </trkpt>
      <trkpt lat="42.94498" lon="0.85448">
        <ele>1069.4</ele>
        <time>2019-08-17T12:35:47Z</time>
      </trkpt>
      <trkpt lat="42.94498" lon="0.85448">
        <ele>1069.4</ele>
        <time>2019-08-17T12:35:48Z</time>
      </trkpt>
      <trkpt lat="42.94498" lon="0.85448">
        <ele>1069.4</ele>
        <time>2019-08-17T12:35:49Z</time>
      </trkpt>
      <trkpt lat="42.94498" lon="0.85448">
        <ele>1069.4</ele>
        <time>2019-08-17T12:35:50Z</time>
      </trkpt>
      <trkpt lat="42.94498" lon="0.85448">
        <ele>1069.4</ele>
        <time>2019-08-17T12:35:51Z</time>
      </trkpt>
      <trkpt lat="42.94498" lon="0.85448">
        <ele>1069.4</ele>
        <time>2019-08-17T12:35:52Z</time>
      </trkpt>
      <trkpt lat="42.94498" lon="0.85448">
        <ele>1069.4</ele>
        <time>2019-08-17T12:35:53Z</time>
      </trkpt>
      <trkpt lat="42.94498" lon="0.85448">
        <ele>1069.4</ele>
        <time>2019-08-17T12:35:54Z</time>
      </trkpt>
      <trkpt lat="42.94498" lon="0.85448">
        <ele>1069.4</ele>
        <time>2019-08-17T12:35:55Z</time>
      </trkpt>
      <trkpt lat="42.94498" lon="0.85448">
        <ele>1069.4</ele>
        <time>2019-08-17T12:35:56Z</time>
      </trkpt>
      <trkpt lat="42.94498" lon="0.85448">
        <ele>1069.4</ele>
        <time>2019-08-17T12:35:57Z</time>
      </trkpt>
      <trkpt lat="42.94498" lon="0.85448">
        <ele>1069.4</ele>
        <time>2019-08-17T12:35:58Z</time>
      </trkpt>
      <trkpt lat="42.94498" lon="0.85448">
        <ele>1069.4</ele>
        <time>2019-08-17T12:35:59Z</time>
      </trkpt>
      <trkpt lat="42.94498" lon="0.85448">
        <ele>1069.4</ele>
        <time>2019-08-17T12:36:00Z</time>
      </trkpt>
      <trkpt lat="42.94498" lon="0.85448">
        <ele>1069.4</ele>
        <time>2019-08-17T12:36:01Z</time>
      </trkpt>
      <trkpt lat="42.94498" lon="0.85448">
        <ele>1069.4</ele>
        <time>2019-08-17T12:36:02Z</time>
      </trkpt>
      <trkpt lat="42.94498" lon="0.85448">
        <ele>1069.4</ele>
        <time>2019-08-17T12:36:03Z</time>
      </trkpt>
      <trkpt lat="42.94498" lon="0.85448">
        <ele>1069.4</ele>
        <time>2019-08-17T12:36:04Z</time>
      </trkpt>
      <trkpt lat="42.94498" lon="0.85448">
        <ele>1069.4</ele>
        <time>2019-08-17T12:36:05Z</time>
      </trkpt>
      <trkpt lat="42.94498" lon="0.85448">
        <ele>1069.4</ele>
        <time>2019-08-17T12:36:06Z</time>
      </trkpt>
      <trkpt lat="42.94498" lon="0.85448">
        <ele>1069.4</ele>
        <time>2019-08-17T12:36:07Z</time>
      </trkpt>
      <trkpt lat="42.94498" lon="0.85448">
        <ele>1069.4</ele>
        <time>2019-08-17T12:36:08Z</time>
      </trkpt>
      <trkpt lat="42.94498" lon="0.85448">
        <ele>1069.4</ele>
        <time>2019-08-17T12:36:09Z</time>
      </trkpt>
      <trkpt lat="42.94498" lon="0.85448">
        <ele>1069.4</ele>
        <time>2019-08-17T12:36:10Z</time>
      </trkpt>
      <trkpt lat="42.94498" lon="0.85448">
        <ele>1069.4</ele>
        <time>2019-08-17T12:36:11Z</time>
      </trkpt>
      <trkpt lat="42.94498" lon="0.85448">
        <ele>1069.4</ele>
        <time>2019-08-17T12:36:12Z</time>
      </trkpt>
      <trkpt lat="42.94498" lon="0.85448">
        <ele>1069.4</ele>
        <time>2019-08-17T12:36:13Z</time>
      </trkpt>
      <trkpt lat="42.94498" lon="0.85448">
        <ele>1069.4</ele>
        <time>2019-08-17T12:36:14Z</time>
      </trkpt>
      <trkpt lat="42.94498" lon="0.85448">
        <ele>1069.4</ele>
        <time>2019-08-17T12:36:15Z</time>
      </trkpt>
      <trkpt lat="42.94498" lon="0.85448">
        <ele>1069.4</ele>
        <time>2019-08-17T12:36:16Z</time>
      </trkpt>
      <trkpt lat="42.94498" lon="0.85448">
        <ele>1069.4</ele>
        <time>2019-08-17T12:36:17Z</time>
      </trkpt>
      <trkpt lat="42.94498" lon="0.85448">
        <ele>1069.4</ele>
        <time>2019-08-17T12:36:18Z</time>
      </trkpt>
      <trkpt lat="42.94498" lon="0.85448">
        <ele>1069.4</ele>
        <time>2019-08-17T12:36:19Z</time>
      </trkpt>
      <trkpt lat="42.94498" lon="0.85448">
        <ele>1069.4</ele>
        <time>2019-08-17T12:36:20Z</time>
      </trkpt>
      <trkpt lat="42.94498" lon="0.85448">
        <ele>1069.4</ele>
        <time>2019-08-17T12:36:21Z</time>
      </trkpt>
      <trkpt lat="42.94498" lon="0.85448">
        <ele>1069.4</ele>
        <time>2019-08-17T12:36:22Z</time>
      </trkpt>
      <trkpt lat="42.94498" lon="0.85448">
        <ele>1069.4</ele>
        <time>2019-08-17T12:36:23Z</time>
      </trkpt>
      <trkpt lat="42.94498" lon="0.85448">
        <ele>1069.4</ele>
        <time>2019-08-17T12:36:24Z</time>
      </trkpt>
      <trkpt lat="42.94498" lon="0.85448">
        <ele>1069.4</ele>
        <time>2019-08-17T12:36:25Z</time>
      </trkpt>
      <trkpt lat="42.94498" lon="0.85448">
        <ele>1069.4</ele>
        <time>2019-08-17T12:36:26Z</time>
      </trkpt>
      <trkpt lat="42.94498" lon="0.85448">
        <ele>1069.4</ele>
        <time>2019-08-17T12:36:27Z</time>
      </trkpt>
      <trkpt lat="42.94499" lon="0.85448">
        <ele>1069.4</ele>
        <time>2019-08-17T12:36:28Z</time>
      </trkpt>
      <trkpt lat="42.94499" lon="0.85448">
        <ele>1069.4</ele>
        <time>2019-08-17T12:36:29Z</time>
      </trkpt>
      <trkpt lat="42.94499" lon="0.85448">
        <ele>1069.4</ele>
        <time>2019-08-17T12:36:30Z</time>
      </trkpt>
      <trkpt lat="42.94499" lon="0.85448">
        <ele>1069.4</ele>
        <time>2019-08-17T12:36:31Z</time>
      </trkpt>
      <trkpt lat="42.94499" lon="0.85448">
        <ele>1069.4</ele>
        <time>2019-08-17T12:36:32Z</time>
      </trkpt>
      <trkpt lat="42.94499" lon="0.85448">
        <ele>1069.4</ele>
        <time>2019-08-17T12:36:33Z</time>
      </trkpt>
      <trkpt lat="42.94499" lon="0.85448">
        <ele>1069.4</ele>
        <time>2019-08-17T12:36:34Z</time>
      </trkpt>
      <trkpt lat="42.94499" lon="0.85448">
        <ele>1069.4</ele>
        <time>2019-08-17T12:36:35Z</time>
      </trkpt>
      <trkpt lat="42.94499" lon="0.85448">
        <ele>1069.4</ele>
        <time>2019-08-17T12:36:36Z</time>
      </trkpt>
      <trkpt lat="42.94499" lon="0.85448">
        <ele>1069.4</ele>
        <time>2019-08-17T12:36:37Z</time>
      </trkpt>
      <trkpt lat="42.94499" lon="0.85448">
        <ele>1069.4</ele>
        <time>2019-08-17T12:36:38Z</time>
      </trkpt>
      <trkpt lat="42.94499" lon="0.85448">
        <ele>1069.4</ele>
        <time>2019-08-17T12:36:39Z</time>
      </trkpt>
      <trkpt lat="42.94499" lon="0.85448">
        <ele>1069.4</ele>
        <time>2019-08-17T12:36:40Z</time>
      </trkpt>
    </trkseg>
  </trk>
</gpx>